<?xml version="1.0" encoding="UTF-8" standalone="no" ?>
<gpx xmlns="http://www.topografix.com/GPX/1/1" xmlns:xsi="http://www.w3.org/2001/XMLSchema-instance" xsi:schemaLocation="http://www.topografix.com/GPX/1/1 http://www.topografix.com/GPX/1/1/gpx.xsd" version="1.1" creator="VisuGPX - https://www.visugpx.com">
  <metadata>
    <name>Villeneuve-Raron</name>
    <desc><![CDATA[2e étape, de Villeneuve à Raron sur la route du Rhône.
Camping :
[url]https://www.santa-monica.ch/?lang=en[/url]]]></desc>
  </metadata>
  <trk>
    <name><![CDATA[Villeneuve VTT]]></name>
    <trkseg>
      <trkpt lat="46.3952" lon="6.92136">
        <ele>380.39999389648</ele>
        <time>2023-04-04T07:27:59.000Z</time>
      </trkpt>
      <trkpt lat="46.3952" lon="6.92136">
        <ele>376</ele>
        <time>2023-04-04T07:28:00.000Z</time>
      </trkpt>
      <trkpt lat="46.39523" lon="6.92138">
        <ele>375.79998779297</ele>
        <time>2023-04-04T07:28:07.000Z</time>
      </trkpt>
      <trkpt lat="46.39525" lon="6.92141">
        <ele>375.79998779297</ele>
        <time>2023-04-04T07:28:09.000Z</time>
      </trkpt>
      <trkpt lat="46.39526" lon="6.92143">
        <ele>375.79998779297</ele>
        <time>2023-04-04T07:28:10.000Z</time>
      </trkpt>
      <trkpt lat="46.39526" lon="6.92146">
        <ele>376</ele>
        <time>2023-04-04T07:28:11.000Z</time>
      </trkpt>
      <trkpt lat="46.39526" lon="6.92148">
        <ele>376</ele>
        <time>2023-04-04T07:28:12.000Z</time>
      </trkpt>
      <trkpt lat="46.39526" lon="6.92149">
        <ele>376</ele>
        <time>2023-04-04T07:28:13.000Z</time>
      </trkpt>
      <trkpt lat="46.39527" lon="6.9215">
        <ele>376</ele>
        <time>2023-04-04T07:28:14.000Z</time>
      </trkpt>
      <trkpt lat="46.39528" lon="6.92151">
        <ele>375.79998779297</ele>
        <time>2023-04-04T07:28:15.000Z</time>
      </trkpt>
      <trkpt lat="46.39529" lon="6.92152">
        <ele>375.79998779297</ele>
        <time>2023-04-04T07:28:16.000Z</time>
      </trkpt>
      <trkpt lat="46.39529" lon="6.92153">
        <ele>376</ele>
        <time>2023-04-04T07:28:17.000Z</time>
      </trkpt>
      <trkpt lat="46.3953" lon="6.92153">
        <ele>376</ele>
        <time>2023-04-04T07:28:18.000Z</time>
      </trkpt>
      <trkpt lat="46.3953" lon="6.92154">
        <ele>376</ele>
        <time>2023-04-04T07:28:19.000Z</time>
      </trkpt>
      <trkpt lat="46.39531" lon="6.92154">
        <ele>376</ele>
        <time>2023-04-04T07:28:20.000Z</time>
      </trkpt>
      <trkpt lat="46.3953" lon="6.92155">
        <ele>376</ele>
        <time>2023-04-04T07:28:21.000Z</time>
      </trkpt>
      <trkpt lat="46.39528" lon="6.92158">
        <ele>376</ele>
        <time>2023-04-04T07:28:23.000Z</time>
      </trkpt>
      <trkpt lat="46.39528" lon="6.92159">
        <ele>376</ele>
        <time>2023-04-04T07:28:24.000Z</time>
      </trkpt>
      <trkpt lat="46.39524" lon="6.92161">
        <ele>376</ele>
        <time>2023-04-04T07:28:27.000Z</time>
      </trkpt>
      <trkpt lat="46.39522" lon="6.92162">
        <ele>376</ele>
        <time>2023-04-04T07:28:28.000Z</time>
      </trkpt>
      <trkpt lat="46.3952" lon="6.92162">
        <ele>376</ele>
        <time>2023-04-04T07:28:29.000Z</time>
      </trkpt>
      <trkpt lat="46.39502" lon="6.92166">
        <ele>376.20001220703</ele>
        <time>2023-04-04T07:28:38.000Z</time>
      </trkpt>
      <trkpt lat="46.39484" lon="6.92169">
        <ele>376.20001220703</ele>
        <time>2023-04-04T07:28:45.000Z</time>
      </trkpt>
      <trkpt lat="46.39458" lon="6.92169">
        <ele>376.20001220703</ele>
        <time>2023-04-04T07:28:54.000Z</time>
      </trkpt>
      <trkpt lat="46.3945" lon="6.92169">
        <ele>376.20001220703</ele>
        <time>2023-04-04T07:28:57.000Z</time>
      </trkpt>
      <trkpt lat="46.39447" lon="6.92169">
        <ele>376.20001220703</ele>
        <time>2023-04-04T07:28:58.000Z</time>
      </trkpt>
      <trkpt lat="46.39445" lon="6.92168">
        <ele>376.20001220703</ele>
        <time>2023-04-04T07:28:59.000Z</time>
      </trkpt>
      <trkpt lat="46.39442" lon="6.92168">
        <ele>376.20001220703</ele>
        <time>2023-04-04T07:29:00.000Z</time>
      </trkpt>
      <trkpt lat="46.39439" lon="6.92167">
        <ele>376.20001220703</ele>
        <time>2023-04-04T07:29:01.000Z</time>
      </trkpt>
      <trkpt lat="46.39436" lon="6.92167">
        <ele>376.39999389648</ele>
        <time>2023-04-04T07:29:02.000Z</time>
      </trkpt>
      <trkpt lat="46.39434" lon="6.92166">
        <ele>376.39999389648</ele>
        <time>2023-04-04T07:29:03.000Z</time>
      </trkpt>
      <trkpt lat="46.39427" lon="6.92165">
        <ele>376.60000610352</ele>
        <time>2023-04-04T07:29:06.000Z</time>
      </trkpt>
      <trkpt lat="46.39425" lon="6.92165">
        <ele>376.60000610352</ele>
        <time>2023-04-04T07:29:07.000Z</time>
      </trkpt>
      <trkpt lat="46.39423" lon="6.92166">
        <ele>376.60000610352</ele>
        <time>2023-04-04T07:29:08.000Z</time>
      </trkpt>
      <trkpt lat="46.39421" lon="6.92168">
        <ele>376.60000610352</ele>
        <time>2023-04-04T07:29:09.000Z</time>
      </trkpt>
      <trkpt lat="46.3942" lon="6.92169">
        <ele>376.60000610352</ele>
        <time>2023-04-04T07:29:10.000Z</time>
      </trkpt>
      <trkpt lat="46.39419" lon="6.92171">
        <ele>376.60000610352</ele>
        <time>2023-04-04T07:29:11.000Z</time>
      </trkpt>
      <trkpt lat="46.39419" lon="6.92173">
        <ele>376.60000610352</ele>
        <time>2023-04-04T07:29:12.000Z</time>
      </trkpt>
      <trkpt lat="46.39418" lon="6.92175">
        <ele>376.79998779297</ele>
        <time>2023-04-04T07:29:13.000Z</time>
      </trkpt>
      <trkpt lat="46.39417" lon="6.92177">
        <ele>376.79998779297</ele>
        <time>2023-04-04T07:29:14.000Z</time>
      </trkpt>
      <trkpt lat="46.39415" lon="6.92177">
        <ele>376.79998779297</ele>
        <time>2023-04-04T07:29:15.000Z</time>
      </trkpt>
      <trkpt lat="46.39413" lon="6.92178">
        <ele>376.79998779297</ele>
        <time>2023-04-04T07:29:16.000Z</time>
      </trkpt>
      <trkpt lat="46.39411" lon="6.92178">
        <ele>377</ele>
        <time>2023-04-04T07:29:17.000Z</time>
      </trkpt>
      <trkpt lat="46.39408" lon="6.92178">
        <ele>377</ele>
        <time>2023-04-04T07:29:18.000Z</time>
      </trkpt>
      <trkpt lat="46.39406" lon="6.92178">
        <ele>377</ele>
        <time>2023-04-04T07:29:19.000Z</time>
      </trkpt>
      <trkpt lat="46.394" lon="6.92177">
        <ele>377.20001220703</ele>
        <time>2023-04-04T07:29:21.000Z</time>
      </trkpt>
      <trkpt lat="46.39398" lon="6.92176">
        <ele>377.20001220703</ele>
        <time>2023-04-04T07:29:22.000Z</time>
      </trkpt>
      <trkpt lat="46.39396" lon="6.92175">
        <ele>377.39999389648</ele>
        <time>2023-04-04T07:29:23.000Z</time>
      </trkpt>
      <trkpt lat="46.39394" lon="6.92174">
        <ele>377.60000610352</ele>
        <time>2023-04-04T07:29:24.000Z</time>
      </trkpt>
      <trkpt lat="46.39393" lon="6.92172">
        <ele>377.60000610352</ele>
        <time>2023-04-04T07:29:25.000Z</time>
      </trkpt>
      <trkpt lat="46.39393" lon="6.9217">
        <ele>377.60000610352</ele>
        <time>2023-04-04T07:29:26.000Z</time>
      </trkpt>
      <trkpt lat="46.39397" lon="6.92162">
        <ele>377.39999389648</ele>
        <time>2023-04-04T07:29:30.000Z</time>
      </trkpt>
      <trkpt lat="46.39399" lon="6.92159">
        <ele>377.20001220703</ele>
        <time>2023-04-04T07:29:31.000Z</time>
      </trkpt>
      <trkpt lat="46.3941" lon="6.92139">
        <ele>376.60000610352</ele>
        <time>2023-04-04T07:29:37.000Z</time>
      </trkpt>
      <trkpt lat="46.39412" lon="6.92136">
        <ele>376.60000610352</ele>
        <time>2023-04-04T07:29:38.000Z</time>
      </trkpt>
      <trkpt lat="46.39414" lon="6.92133">
        <ele>376.39999389648</ele>
        <time>2023-04-04T07:29:39.000Z</time>
      </trkpt>
      <trkpt lat="46.39415" lon="6.9213">
        <ele>376.20001220703</ele>
        <time>2023-04-04T07:29:40.000Z</time>
      </trkpt>
      <trkpt lat="46.39417" lon="6.92127">
        <ele>376.20001220703</ele>
        <time>2023-04-04T07:29:41.000Z</time>
      </trkpt>
      <trkpt lat="46.39419" lon="6.92124">
        <ele>376.20001220703</ele>
        <time>2023-04-04T07:29:42.000Z</time>
      </trkpt>
      <trkpt lat="46.3942" lon="6.92121">
        <ele>376</ele>
        <time>2023-04-04T07:29:43.000Z</time>
      </trkpt>
      <trkpt lat="46.39421" lon="6.92118">
        <ele>376</ele>
        <time>2023-04-04T07:29:44.000Z</time>
      </trkpt>
      <trkpt lat="46.39423" lon="6.92115">
        <ele>376</ele>
        <time>2023-04-04T07:29:45.000Z</time>
      </trkpt>
      <trkpt lat="46.39425" lon="6.92112">
        <ele>376</ele>
        <time>2023-04-04T07:29:46.000Z</time>
      </trkpt>
      <trkpt lat="46.39426" lon="6.92109">
        <ele>376</ele>
        <time>2023-04-04T07:29:47.000Z</time>
      </trkpt>
      <trkpt lat="46.39428" lon="6.92107">
        <ele>376</ele>
        <time>2023-04-04T07:29:48.000Z</time>
      </trkpt>
      <trkpt lat="46.39429" lon="6.92105">
        <ele>376</ele>
        <time>2023-04-04T07:29:49.000Z</time>
      </trkpt>
      <trkpt lat="46.39431" lon="6.92104">
        <ele>376</ele>
        <time>2023-04-04T07:29:50.000Z</time>
      </trkpt>
      <trkpt lat="46.39432" lon="6.92101">
        <ele>376</ele>
        <time>2023-04-04T07:29:51.000Z</time>
      </trkpt>
      <trkpt lat="46.39433" lon="6.92098">
        <ele>376</ele>
        <time>2023-04-04T07:29:52.000Z</time>
      </trkpt>
      <trkpt lat="46.39434" lon="6.92093">
        <ele>376</ele>
        <time>2023-04-04T07:29:53.000Z</time>
      </trkpt>
      <trkpt lat="46.39434" lon="6.92088">
        <ele>376</ele>
        <time>2023-04-04T07:29:54.000Z</time>
      </trkpt>
      <trkpt lat="46.39434" lon="6.92084">
        <ele>376</ele>
        <time>2023-04-04T07:29:55.000Z</time>
      </trkpt>
      <trkpt lat="46.39434" lon="6.9208">
        <ele>376</ele>
        <time>2023-04-04T07:29:56.000Z</time>
      </trkpt>
      <trkpt lat="46.39432" lon="6.92077">
        <ele>376</ele>
        <time>2023-04-04T07:29:57.000Z</time>
      </trkpt>
      <trkpt lat="46.39431" lon="6.92073">
        <ele>376</ele>
        <time>2023-04-04T07:29:58.000Z</time>
      </trkpt>
      <trkpt lat="46.39427" lon="6.9206">
        <ele>376.20001220703</ele>
        <time>2023-04-04T07:30:01.000Z</time>
      </trkpt>
      <trkpt lat="46.39417" lon="6.92035">
        <ele>376.39999389648</ele>
        <time>2023-04-04T07:30:08.000Z</time>
      </trkpt>
      <trkpt lat="46.39416" lon="6.92032">
        <ele>376.39999389648</ele>
        <time>2023-04-04T07:30:09.000Z</time>
      </trkpt>
      <trkpt lat="46.39414" lon="6.92025">
        <ele>376.39999389648</ele>
        <time>2023-04-04T07:30:11.000Z</time>
      </trkpt>
      <trkpt lat="46.39414" lon="6.92023">
        <ele>376.39999389648</ele>
        <time>2023-04-04T07:30:12.000Z</time>
      </trkpt>
      <trkpt lat="46.39413" lon="6.92019">
        <ele>376.39999389648</ele>
        <time>2023-04-04T07:30:13.000Z</time>
      </trkpt>
      <trkpt lat="46.39407" lon="6.92001">
        <ele>376.20001220703</ele>
        <time>2023-04-04T07:30:18.000Z</time>
      </trkpt>
      <trkpt lat="46.39405" lon="6.91997">
        <ele>376.20001220703</ele>
        <time>2023-04-04T07:30:19.000Z</time>
      </trkpt>
      <trkpt lat="46.39401" lon="6.91989">
        <ele>376.20001220703</ele>
        <time>2023-04-04T07:30:21.000Z</time>
      </trkpt>
      <trkpt lat="46.39399" lon="6.91981">
        <ele>376.20001220703</ele>
        <time>2023-04-04T07:30:23.000Z</time>
      </trkpt>
      <trkpt lat="46.39391" lon="6.9196">
        <ele>376.39999389648</ele>
        <time>2023-04-04T07:30:28.000Z</time>
      </trkpt>
      <trkpt lat="46.39388" lon="6.91956">
        <ele>376.39999389648</ele>
        <time>2023-04-04T07:30:29.000Z</time>
      </trkpt>
      <trkpt lat="46.39385" lon="6.91944">
        <ele>376.39999389648</ele>
        <time>2023-04-04T07:30:32.000Z</time>
      </trkpt>
      <trkpt lat="46.39384" lon="6.9194">
        <ele>376.39999389648</ele>
        <time>2023-04-04T07:30:33.000Z</time>
      </trkpt>
      <trkpt lat="46.39382" lon="6.9193">
        <ele>376.39999389648</ele>
        <time>2023-04-04T07:30:35.000Z</time>
      </trkpt>
      <trkpt lat="46.39381" lon="6.91918">
        <ele>376.20001220703</ele>
        <time>2023-04-04T07:30:38.000Z</time>
      </trkpt>
      <trkpt lat="46.39381" lon="6.91913">
        <ele>376</ele>
        <time>2023-04-04T07:30:39.000Z</time>
      </trkpt>
      <trkpt lat="46.39381" lon="6.91901">
        <ele>376</ele>
        <time>2023-04-04T07:30:42.000Z</time>
      </trkpt>
      <trkpt lat="46.39381" lon="6.91897">
        <ele>376</ele>
        <time>2023-04-04T07:30:43.000Z</time>
      </trkpt>
      <trkpt lat="46.39381" lon="6.91893">
        <ele>376</ele>
        <time>2023-04-04T07:30:44.000Z</time>
      </trkpt>
      <trkpt lat="46.39381" lon="6.91889">
        <ele>376</ele>
        <time>2023-04-04T07:30:45.000Z</time>
      </trkpt>
      <trkpt lat="46.39381" lon="6.91885">
        <ele>376</ele>
        <time>2023-04-04T07:30:46.000Z</time>
      </trkpt>
      <trkpt lat="46.39381" lon="6.91881">
        <ele>376</ele>
        <time>2023-04-04T07:30:47.000Z</time>
      </trkpt>
      <trkpt lat="46.39382" lon="6.91877">
        <ele>376</ele>
        <time>2023-04-04T07:30:48.000Z</time>
      </trkpt>
      <trkpt lat="46.39382" lon="6.91872">
        <ele>376</ele>
        <time>2023-04-04T07:30:49.000Z</time>
      </trkpt>
      <trkpt lat="46.39382" lon="6.91868">
        <ele>376</ele>
        <time>2023-04-04T07:30:50.000Z</time>
      </trkpt>
      <trkpt lat="46.39383" lon="6.91864">
        <ele>376</ele>
        <time>2023-04-04T07:30:51.000Z</time>
      </trkpt>
      <trkpt lat="46.3938" lon="6.91841">
        <ele>376.20001220703</ele>
        <time>2023-04-04T07:30:57.000Z</time>
      </trkpt>
      <trkpt lat="46.3937" lon="6.91816">
        <ele>376.20001220703</ele>
        <time>2023-04-04T07:31:04.000Z</time>
      </trkpt>
      <trkpt lat="46.3936" lon="6.91799">
        <ele>376.39999389648</ele>
        <time>2023-04-04T07:31:09.000Z</time>
      </trkpt>
      <trkpt lat="46.39358" lon="6.91797">
        <ele>376.39999389648</ele>
        <time>2023-04-04T07:31:10.000Z</time>
      </trkpt>
      <trkpt lat="46.39358" lon="6.91791">
        <ele>376.39999389648</ele>
        <time>2023-04-04T07:31:12.000Z</time>
      </trkpt>
      <trkpt lat="46.39358" lon="6.91787">
        <ele>376.39999389648</ele>
        <time>2023-04-04T07:31:13.000Z</time>
      </trkpt>
      <trkpt lat="46.39358" lon="6.91783">
        <ele>376.39999389648</ele>
        <time>2023-04-04T07:31:14.000Z</time>
      </trkpt>
      <trkpt lat="46.39358" lon="6.91779">
        <ele>376.20001220703</ele>
        <time>2023-04-04T07:31:15.000Z</time>
      </trkpt>
      <trkpt lat="46.39357" lon="6.91776">
        <ele>376.20001220703</ele>
        <time>2023-04-04T07:31:16.000Z</time>
      </trkpt>
      <trkpt lat="46.39357" lon="6.91772">
        <ele>376.20001220703</ele>
        <time>2023-04-04T07:31:17.000Z</time>
      </trkpt>
      <trkpt lat="46.39356" lon="6.91768">
        <ele>376.20001220703</ele>
        <time>2023-04-04T07:31:18.000Z</time>
      </trkpt>
      <trkpt lat="46.39355" lon="6.91764">
        <ele>376.20001220703</ele>
        <time>2023-04-04T07:31:19.000Z</time>
      </trkpt>
      <trkpt lat="46.39355" lon="6.9176">
        <ele>376.20001220703</ele>
        <time>2023-04-04T07:31:20.000Z</time>
      </trkpt>
      <trkpt lat="46.39355" lon="6.91757">
        <ele>376.20001220703</ele>
        <time>2023-04-04T07:31:21.000Z</time>
      </trkpt>
      <trkpt lat="46.39352" lon="6.91711">
        <ele>376.39999389648</ele>
        <time>2023-04-04T07:31:31.000Z</time>
      </trkpt>
      <trkpt lat="46.39356" lon="6.91676">
        <ele>376.39999389648</ele>
        <time>2023-04-04T07:31:37.000Z</time>
      </trkpt>
      <trkpt lat="46.39355" lon="6.91667">
        <ele>376.39999389648</ele>
        <time>2023-04-04T07:31:39.000Z</time>
      </trkpt>
      <trkpt lat="46.39355" lon="6.91662">
        <ele>376.39999389648</ele>
        <time>2023-04-04T07:31:40.000Z</time>
      </trkpt>
      <trkpt lat="46.39355" lon="6.91651">
        <ele>376.39999389648</ele>
        <time>2023-04-04T07:31:43.000Z</time>
      </trkpt>
      <trkpt lat="46.39356" lon="6.91648">
        <ele>376.39999389648</ele>
        <time>2023-04-04T07:31:44.000Z</time>
      </trkpt>
      <trkpt lat="46.39356" lon="6.91644">
        <ele>376.39999389648</ele>
        <time>2023-04-04T07:31:45.000Z</time>
      </trkpt>
      <trkpt lat="46.39357" lon="6.91641">
        <ele>376.39999389648</ele>
        <time>2023-04-04T07:31:46.000Z</time>
      </trkpt>
      <trkpt lat="46.39358" lon="6.91638">
        <ele>376.60000610352</ele>
        <time>2023-04-04T07:31:47.000Z</time>
      </trkpt>
      <trkpt lat="46.39358" lon="6.91634">
        <ele>376.60000610352</ele>
        <time>2023-04-04T07:31:48.000Z</time>
      </trkpt>
      <trkpt lat="46.39358" lon="6.91632">
        <ele>376.60000610352</ele>
        <time>2023-04-04T07:31:49.000Z</time>
      </trkpt>
      <trkpt lat="46.39359" lon="6.91629">
        <ele>376.60000610352</ele>
        <time>2023-04-04T07:31:50.000Z</time>
      </trkpt>
      <trkpt lat="46.39359" lon="6.91625">
        <ele>376.60000610352</ele>
        <time>2023-04-04T07:31:51.000Z</time>
      </trkpt>
      <trkpt lat="46.39359" lon="6.91623">
        <ele>376.60000610352</ele>
        <time>2023-04-04T07:31:52.000Z</time>
      </trkpt>
      <trkpt lat="46.39361" lon="6.91619">
        <ele>376.79998779297</ele>
        <time>2023-04-04T07:31:54.000Z</time>
      </trkpt>
      <trkpt lat="46.39361" lon="6.91616">
        <ele>376.79998779297</ele>
        <time>2023-04-04T07:31:55.000Z</time>
      </trkpt>
      <trkpt lat="46.39362" lon="6.91613">
        <ele>376.79998779297</ele>
        <time>2023-04-04T07:31:56.000Z</time>
      </trkpt>
      <trkpt lat="46.39363" lon="6.9161">
        <ele>376.79998779297</ele>
        <time>2023-04-04T07:31:57.000Z</time>
      </trkpt>
      <trkpt lat="46.39364" lon="6.91607">
        <ele>376.79998779297</ele>
        <time>2023-04-04T07:31:58.000Z</time>
      </trkpt>
      <trkpt lat="46.39364" lon="6.91604">
        <ele>376.79998779297</ele>
        <time>2023-04-04T07:31:59.000Z</time>
      </trkpt>
      <trkpt lat="46.39365" lon="6.91601">
        <ele>376.79998779297</ele>
        <time>2023-04-04T07:32:00.000Z</time>
      </trkpt>
      <trkpt lat="46.39366" lon="6.91598">
        <ele>376.79998779297</ele>
        <time>2023-04-04T07:32:01.000Z</time>
      </trkpt>
      <trkpt lat="46.39367" lon="6.91594">
        <ele>376.79998779297</ele>
        <time>2023-04-04T07:32:02.000Z</time>
      </trkpt>
      <trkpt lat="46.39372" lon="6.91577">
        <ele>376.79998779297</ele>
        <time>2023-04-04T07:32:06.000Z</time>
      </trkpt>
      <trkpt lat="46.39381" lon="6.91545">
        <ele>376.79998779297</ele>
        <time>2023-04-04T07:32:12.000Z</time>
      </trkpt>
      <trkpt lat="46.39391" lon="6.91517">
        <ele>376.79998779297</ele>
        <time>2023-04-04T07:32:17.000Z</time>
      </trkpt>
      <trkpt lat="46.39392" lon="6.91512">
        <ele>376.79998779297</ele>
        <time>2023-04-04T07:32:18.000Z</time>
      </trkpt>
      <trkpt lat="46.39394" lon="6.91506">
        <ele>376.79998779297</ele>
        <time>2023-04-04T07:32:19.000Z</time>
      </trkpt>
      <trkpt lat="46.39396" lon="6.91502">
        <ele>376.79998779297</ele>
        <time>2023-04-04T07:32:20.000Z</time>
      </trkpt>
      <trkpt lat="46.39398" lon="6.91499">
        <ele>376.79998779297</ele>
        <time>2023-04-04T07:32:21.000Z</time>
      </trkpt>
      <trkpt lat="46.394" lon="6.91496">
        <ele>376.79998779297</ele>
        <time>2023-04-04T07:32:22.000Z</time>
      </trkpt>
      <trkpt lat="46.39402" lon="6.91492">
        <ele>376.79998779297</ele>
        <time>2023-04-04T07:32:23.000Z</time>
      </trkpt>
      <trkpt lat="46.39416" lon="6.91469">
        <ele>377</ele>
        <time>2023-04-04T07:32:28.000Z</time>
      </trkpt>
      <trkpt lat="46.3943" lon="6.91451">
        <ele>377</ele>
        <time>2023-04-04T07:32:33.000Z</time>
      </trkpt>
      <trkpt lat="46.39432" lon="6.91447">
        <ele>377</ele>
        <time>2023-04-04T07:32:34.000Z</time>
      </trkpt>
      <trkpt lat="46.39436" lon="6.91444">
        <ele>377</ele>
        <time>2023-04-04T07:32:35.000Z</time>
      </trkpt>
      <trkpt lat="46.39443" lon="6.9144">
        <ele>377</ele>
        <time>2023-04-04T07:32:36.000Z</time>
      </trkpt>
      <trkpt lat="46.39448" lon="6.91436">
        <ele>377</ele>
        <time>2023-04-04T07:32:37.000Z</time>
      </trkpt>
      <trkpt lat="46.39453" lon="6.91427">
        <ele>377</ele>
        <time>2023-04-04T07:32:39.000Z</time>
      </trkpt>
      <trkpt lat="46.39455" lon="6.91424">
        <ele>377</ele>
        <time>2023-04-04T07:32:40.000Z</time>
      </trkpt>
      <trkpt lat="46.39456" lon="6.9142">
        <ele>377</ele>
        <time>2023-04-04T07:32:41.000Z</time>
      </trkpt>
      <trkpt lat="46.39456" lon="6.91415">
        <ele>377</ele>
        <time>2023-04-04T07:32:42.000Z</time>
      </trkpt>
      <trkpt lat="46.39456" lon="6.9141">
        <ele>377</ele>
        <time>2023-04-04T07:32:43.000Z</time>
      </trkpt>
      <trkpt lat="46.39456" lon="6.91406">
        <ele>377</ele>
        <time>2023-04-04T07:32:44.000Z</time>
      </trkpt>
      <trkpt lat="46.39456" lon="6.91403">
        <ele>377</ele>
        <time>2023-04-04T07:32:45.000Z</time>
      </trkpt>
      <trkpt lat="46.3946" lon="6.91399">
        <ele>377</ele>
        <time>2023-04-04T07:32:46.000Z</time>
      </trkpt>
      <trkpt lat="46.39464" lon="6.91394">
        <ele>377</ele>
        <time>2023-04-04T07:32:47.000Z</time>
      </trkpt>
      <trkpt lat="46.39469" lon="6.91388">
        <ele>377</ele>
        <time>2023-04-04T07:32:48.000Z</time>
      </trkpt>
      <trkpt lat="46.39471" lon="6.91385">
        <ele>377</ele>
        <time>2023-04-04T07:32:49.000Z</time>
      </trkpt>
      <trkpt lat="46.39473" lon="6.9138">
        <ele>377</ele>
        <time>2023-04-04T07:32:50.000Z</time>
      </trkpt>
      <trkpt lat="46.39477" lon="6.91362">
        <ele>377</ele>
        <time>2023-04-04T07:32:53.000Z</time>
      </trkpt>
      <trkpt lat="46.39476" lon="6.91354">
        <ele>377</ele>
        <time>2023-04-04T07:32:54.000Z</time>
      </trkpt>
      <trkpt lat="46.39472" lon="6.91348">
        <ele>377</ele>
        <time>2023-04-04T07:32:55.000Z</time>
      </trkpt>
      <trkpt lat="46.39471" lon="6.91342">
        <ele>377</ele>
        <time>2023-04-04T07:32:56.000Z</time>
      </trkpt>
      <trkpt lat="46.39466" lon="6.91337">
        <ele>377</ele>
        <time>2023-04-04T07:32:57.000Z</time>
      </trkpt>
      <trkpt lat="46.39465" lon="6.91332">
        <ele>377</ele>
        <time>2023-04-04T07:32:58.000Z</time>
      </trkpt>
      <trkpt lat="46.39463" lon="6.91317">
        <ele>376.79998779297</ele>
        <time>2023-04-04T07:33:01.000Z</time>
      </trkpt>
      <trkpt lat="46.39464" lon="6.91311">
        <ele>376.60000610352</ele>
        <time>2023-04-04T07:33:02.000Z</time>
      </trkpt>
      <trkpt lat="46.39462" lon="6.91289">
        <ele>376.60000610352</ele>
        <time>2023-04-04T07:33:06.000Z</time>
      </trkpt>
      <trkpt lat="46.3946" lon="6.91284">
        <ele>376.60000610352</ele>
        <time>2023-04-04T07:33:07.000Z</time>
      </trkpt>
      <trkpt lat="46.39457" lon="6.91279">
        <ele>376.60000610352</ele>
        <time>2023-04-04T07:33:08.000Z</time>
      </trkpt>
      <trkpt lat="46.39455" lon="6.91274">
        <ele>376.60000610352</ele>
        <time>2023-04-04T07:33:09.000Z</time>
      </trkpt>
      <trkpt lat="46.39457" lon="6.91267">
        <ele>376.60000610352</ele>
        <time>2023-04-04T07:33:10.000Z</time>
      </trkpt>
      <trkpt lat="46.39458" lon="6.9126">
        <ele>376.60000610352</ele>
        <time>2023-04-04T07:33:11.000Z</time>
      </trkpt>
      <trkpt lat="46.39458" lon="6.91255">
        <ele>376.60000610352</ele>
        <time>2023-04-04T07:33:12.000Z</time>
      </trkpt>
      <trkpt lat="46.39457" lon="6.91245">
        <ele>376.60000610352</ele>
        <time>2023-04-04T07:33:14.000Z</time>
      </trkpt>
      <trkpt lat="46.39456" lon="6.9124">
        <ele>376.79998779297</ele>
        <time>2023-04-04T07:33:15.000Z</time>
      </trkpt>
      <trkpt lat="46.39451" lon="6.91235">
        <ele>376.79998779297</ele>
        <time>2023-04-04T07:33:16.000Z</time>
      </trkpt>
      <trkpt lat="46.3945" lon="6.91232">
        <ele>376.79998779297</ele>
        <time>2023-04-04T07:33:17.000Z</time>
      </trkpt>
      <trkpt lat="46.39449" lon="6.91218">
        <ele>376.79998779297</ele>
        <time>2023-04-04T07:33:20.000Z</time>
      </trkpt>
      <trkpt lat="46.39449" lon="6.91213">
        <ele>376.79998779297</ele>
        <time>2023-04-04T07:33:21.000Z</time>
      </trkpt>
      <trkpt lat="46.39445" lon="6.91192">
        <ele>376.60000610352</ele>
        <time>2023-04-04T07:33:26.000Z</time>
      </trkpt>
      <trkpt lat="46.39444" lon="6.91187">
        <ele>376.60000610352</ele>
        <time>2023-04-04T07:33:27.000Z</time>
      </trkpt>
      <trkpt lat="46.39443" lon="6.91182">
        <ele>376.60000610352</ele>
        <time>2023-04-04T07:33:28.000Z</time>
      </trkpt>
      <trkpt lat="46.39442" lon="6.91173">
        <ele>376.60000610352</ele>
        <time>2023-04-04T07:33:30.000Z</time>
      </trkpt>
      <trkpt lat="46.39441" lon="6.91169">
        <ele>376.39999389648</ele>
        <time>2023-04-04T07:33:31.000Z</time>
      </trkpt>
      <trkpt lat="46.39438" lon="6.91158">
        <ele>376.39999389648</ele>
        <time>2023-04-04T07:33:33.000Z</time>
      </trkpt>
      <trkpt lat="46.39437" lon="6.91153">
        <ele>376.39999389648</ele>
        <time>2023-04-04T07:33:34.000Z</time>
      </trkpt>
      <trkpt lat="46.39436" lon="6.91148">
        <ele>376</ele>
        <time>2023-04-04T07:33:35.000Z</time>
      </trkpt>
      <trkpt lat="46.39435" lon="6.91143">
        <ele>376</ele>
        <time>2023-04-04T07:33:36.000Z</time>
      </trkpt>
      <trkpt lat="46.39433" lon="6.9114">
        <ele>376</ele>
        <time>2023-04-04T07:33:37.000Z</time>
      </trkpt>
      <trkpt lat="46.39431" lon="6.91134">
        <ele>376</ele>
        <time>2023-04-04T07:33:38.000Z</time>
      </trkpt>
      <trkpt lat="46.39429" lon="6.91129">
        <ele>376</ele>
        <time>2023-04-04T07:33:39.000Z</time>
      </trkpt>
      <trkpt lat="46.39427" lon="6.91126">
        <ele>376</ele>
        <time>2023-04-04T07:33:40.000Z</time>
      </trkpt>
      <trkpt lat="46.39425" lon="6.91121">
        <ele>376</ele>
        <time>2023-04-04T07:33:41.000Z</time>
      </trkpt>
      <trkpt lat="46.39422" lon="6.91107">
        <ele>376.20001220703</ele>
        <time>2023-04-04T07:33:44.000Z</time>
      </trkpt>
      <trkpt lat="46.39415" lon="6.91079">
        <ele>376.60000610352</ele>
        <time>2023-04-04T07:33:50.000Z</time>
      </trkpt>
      <trkpt lat="46.39413" lon="6.91074">
        <ele>376.60000610352</ele>
        <time>2023-04-04T07:33:51.000Z</time>
      </trkpt>
      <trkpt lat="46.39411" lon="6.9107">
        <ele>376.60000610352</ele>
        <time>2023-04-04T07:33:52.000Z</time>
      </trkpt>
      <trkpt lat="46.39401" lon="6.91046">
        <ele>376.60000610352</ele>
        <time>2023-04-04T07:33:58.000Z</time>
      </trkpt>
      <trkpt lat="46.39394" lon="6.91024">
        <ele>376.39999389648</ele>
        <time>2023-04-04T07:34:03.000Z</time>
      </trkpt>
      <trkpt lat="46.3938" lon="6.90996">
        <ele>376.39999389648</ele>
        <time>2023-04-04T07:34:10.000Z</time>
      </trkpt>
      <trkpt lat="46.39364" lon="6.90963">
        <ele>376.39999389648</ele>
        <time>2023-04-04T07:34:18.000Z</time>
      </trkpt>
      <trkpt lat="46.39362" lon="6.9096">
        <ele>376.39999389648</ele>
        <time>2023-04-04T07:34:19.000Z</time>
      </trkpt>
      <trkpt lat="46.3936" lon="6.90957">
        <ele>376.39999389648</ele>
        <time>2023-04-04T07:34:20.000Z</time>
      </trkpt>
      <trkpt lat="46.39358" lon="6.90954">
        <ele>376.39999389648</ele>
        <time>2023-04-04T07:34:21.000Z</time>
      </trkpt>
      <trkpt lat="46.39357" lon="6.90952">
        <ele>376.39999389648</ele>
        <time>2023-04-04T07:34:22.000Z</time>
      </trkpt>
      <trkpt lat="46.39356" lon="6.9095">
        <ele>376.39999389648</ele>
        <time>2023-04-04T07:34:23.000Z</time>
      </trkpt>
      <trkpt lat="46.39356" lon="6.90949">
        <ele>376.39999389648</ele>
        <time>2023-04-04T07:34:24.000Z</time>
      </trkpt>
      <trkpt lat="46.39356" lon="6.90949">
        <ele>376.39999389648</ele>
        <time>2023-04-04T07:34:25.000Z</time>
      </trkpt>
      <trkpt lat="46.3935" lon="6.9094">
        <ele>376</ele>
        <time>2023-04-04T07:35:24.000Z</time>
      </trkpt>
      <trkpt lat="46.39348" lon="6.90937">
        <ele>376</ele>
        <time>2023-04-04T07:35:25.000Z</time>
      </trkpt>
      <trkpt lat="46.39346" lon="6.90934">
        <ele>376</ele>
        <time>2023-04-04T07:35:26.000Z</time>
      </trkpt>
      <trkpt lat="46.39344" lon="6.90931">
        <ele>376</ele>
        <time>2023-04-04T07:35:27.000Z</time>
      </trkpt>
      <trkpt lat="46.39338" lon="6.90924">
        <ele>375.79998779297</ele>
        <time>2023-04-04T07:35:30.000Z</time>
      </trkpt>
      <trkpt lat="46.39334" lon="6.90917">
        <ele>375.79998779297</ele>
        <time>2023-04-04T07:35:32.000Z</time>
      </trkpt>
      <trkpt lat="46.39323" lon="6.90896">
        <ele>375.79998779297</ele>
        <time>2023-04-04T07:35:38.000Z</time>
      </trkpt>
      <trkpt lat="46.39314" lon="6.90871">
        <ele>376.20001220703</ele>
        <time>2023-04-04T07:35:45.000Z</time>
      </trkpt>
      <trkpt lat="46.39312" lon="6.90868">
        <ele>376.20001220703</ele>
        <time>2023-04-04T07:35:46.000Z</time>
      </trkpt>
      <trkpt lat="46.39311" lon="6.90864">
        <ele>376.39999389648</ele>
        <time>2023-04-04T07:35:47.000Z</time>
      </trkpt>
      <trkpt lat="46.39309" lon="6.90861">
        <ele>376.39999389648</ele>
        <time>2023-04-04T07:35:48.000Z</time>
      </trkpt>
      <trkpt lat="46.39307" lon="6.90859">
        <ele>376.60000610352</ele>
        <time>2023-04-04T07:35:49.000Z</time>
      </trkpt>
      <trkpt lat="46.39305" lon="6.90853">
        <ele>376.79998779297</ele>
        <time>2023-04-04T07:35:51.000Z</time>
      </trkpt>
      <trkpt lat="46.39304" lon="6.90846">
        <ele>376.79998779297</ele>
        <time>2023-04-04T07:35:53.000Z</time>
      </trkpt>
      <trkpt lat="46.39303" lon="6.90842">
        <ele>376.79998779297</ele>
        <time>2023-04-04T07:35:54.000Z</time>
      </trkpt>
      <trkpt lat="46.39302" lon="6.90836">
        <ele>376.79998779297</ele>
        <time>2023-04-04T07:35:55.000Z</time>
      </trkpt>
      <trkpt lat="46.39301" lon="6.90832">
        <ele>377</ele>
        <time>2023-04-04T07:35:56.000Z</time>
      </trkpt>
      <trkpt lat="46.39287" lon="6.90808">
        <ele>377</ele>
        <time>2023-04-04T07:36:02.000Z</time>
      </trkpt>
      <trkpt lat="46.39273" lon="6.90787">
        <ele>377</ele>
        <time>2023-04-04T07:36:07.000Z</time>
      </trkpt>
      <trkpt lat="46.3927" lon="6.90778">
        <ele>377</ele>
        <time>2023-04-04T07:36:09.000Z</time>
      </trkpt>
      <trkpt lat="46.39268" lon="6.90774">
        <ele>376.79998779297</ele>
        <time>2023-04-04T07:36:10.000Z</time>
      </trkpt>
      <trkpt lat="46.39264" lon="6.90772">
        <ele>376.79998779297</ele>
        <time>2023-04-04T07:36:11.000Z</time>
      </trkpt>
      <trkpt lat="46.39263" lon="6.90769">
        <ele>376.79998779297</ele>
        <time>2023-04-04T07:36:12.000Z</time>
      </trkpt>
      <trkpt lat="46.39259" lon="6.90759">
        <ele>376.79998779297</ele>
        <time>2023-04-04T07:36:14.000Z</time>
      </trkpt>
      <trkpt lat="46.39257" lon="6.90754">
        <ele>376.79998779297</ele>
        <time>2023-04-04T07:36:15.000Z</time>
      </trkpt>
      <trkpt lat="46.39256" lon="6.90749">
        <ele>376.79998779297</ele>
        <time>2023-04-04T07:36:16.000Z</time>
      </trkpt>
      <trkpt lat="46.39252" lon="6.90747">
        <ele>376.79998779297</ele>
        <time>2023-04-04T07:36:17.000Z</time>
      </trkpt>
      <trkpt lat="46.3925" lon="6.90745">
        <ele>376.79998779297</ele>
        <time>2023-04-04T07:36:18.000Z</time>
      </trkpt>
      <trkpt lat="46.39246" lon="6.90745">
        <ele>376.79998779297</ele>
        <time>2023-04-04T07:36:19.000Z</time>
      </trkpt>
      <trkpt lat="46.39241" lon="6.90744">
        <ele>376.79998779297</ele>
        <time>2023-04-04T07:36:20.000Z</time>
      </trkpt>
      <trkpt lat="46.39229" lon="6.90734">
        <ele>376.79998779297</ele>
        <time>2023-04-04T07:36:23.000Z</time>
      </trkpt>
      <trkpt lat="46.39227" lon="6.90731">
        <ele>376.79998779297</ele>
        <time>2023-04-04T07:36:24.000Z</time>
      </trkpt>
      <trkpt lat="46.39226" lon="6.90728">
        <ele>376.79998779297</ele>
        <time>2023-04-04T07:36:25.000Z</time>
      </trkpt>
      <trkpt lat="46.39224" lon="6.90724">
        <ele>376.79998779297</ele>
        <time>2023-04-04T07:36:26.000Z</time>
      </trkpt>
      <trkpt lat="46.39222" lon="6.9072">
        <ele>376.79998779297</ele>
        <time>2023-04-04T07:36:27.000Z</time>
      </trkpt>
      <trkpt lat="46.3922" lon="6.90716">
        <ele>376.79998779297</ele>
        <time>2023-04-04T07:36:28.000Z</time>
      </trkpt>
      <trkpt lat="46.39215" lon="6.90708">
        <ele>376.79998779297</ele>
        <time>2023-04-04T07:36:30.000Z</time>
      </trkpt>
      <trkpt lat="46.39212" lon="6.90703">
        <ele>376.79998779297</ele>
        <time>2023-04-04T07:36:31.000Z</time>
      </trkpt>
      <trkpt lat="46.3921" lon="6.90701">
        <ele>376.79998779297</ele>
        <time>2023-04-04T07:36:32.000Z</time>
      </trkpt>
      <trkpt lat="46.39208" lon="6.90698">
        <ele>377</ele>
        <time>2023-04-04T07:36:33.000Z</time>
      </trkpt>
      <trkpt lat="46.39204" lon="6.90694">
        <ele>377</ele>
        <time>2023-04-04T07:36:34.000Z</time>
      </trkpt>
      <trkpt lat="46.392" lon="6.90689">
        <ele>377</ele>
        <time>2023-04-04T07:36:35.000Z</time>
      </trkpt>
      <trkpt lat="46.39198" lon="6.90686">
        <ele>377</ele>
        <time>2023-04-04T07:36:36.000Z</time>
      </trkpt>
      <trkpt lat="46.39195" lon="6.90681">
        <ele>377</ele>
        <time>2023-04-04T07:36:37.000Z</time>
      </trkpt>
      <trkpt lat="46.3919" lon="6.90676">
        <ele>377</ele>
        <time>2023-04-04T07:36:38.000Z</time>
      </trkpt>
      <trkpt lat="46.3918" lon="6.90664">
        <ele>377.20001220703</ele>
        <time>2023-04-04T07:36:42.000Z</time>
      </trkpt>
      <trkpt lat="46.39177" lon="6.90662">
        <ele>377.20001220703</ele>
        <time>2023-04-04T07:36:43.000Z</time>
      </trkpt>
      <trkpt lat="46.39175" lon="6.90659">
        <ele>377.20001220703</ele>
        <time>2023-04-04T07:36:44.000Z</time>
      </trkpt>
      <trkpt lat="46.39173" lon="6.90657">
        <ele>377.20001220703</ele>
        <time>2023-04-04T07:36:45.000Z</time>
      </trkpt>
      <trkpt lat="46.39169" lon="6.90656">
        <ele>377.20001220703</ele>
        <time>2023-04-04T07:36:46.000Z</time>
      </trkpt>
      <trkpt lat="46.39165" lon="6.90652">
        <ele>377.20001220703</ele>
        <time>2023-04-04T07:36:47.000Z</time>
      </trkpt>
      <trkpt lat="46.39159" lon="6.90642">
        <ele>377.20001220703</ele>
        <time>2023-04-04T07:36:50.000Z</time>
      </trkpt>
      <trkpt lat="46.39158" lon="6.90637">
        <ele>377.20001220703</ele>
        <time>2023-04-04T07:36:51.000Z</time>
      </trkpt>
      <trkpt lat="46.39157" lon="6.90632">
        <ele>377.20001220703</ele>
        <time>2023-04-04T07:36:52.000Z</time>
      </trkpt>
      <trkpt lat="46.39148" lon="6.90616">
        <ele>377.60000610352</ele>
        <time>2023-04-04T07:36:56.000Z</time>
      </trkpt>
      <trkpt lat="46.39144" lon="6.90612">
        <ele>377.60000610352</ele>
        <time>2023-04-04T07:36:57.000Z</time>
      </trkpt>
      <trkpt lat="46.39139" lon="6.90611">
        <ele>377.60000610352</ele>
        <time>2023-04-04T07:36:58.000Z</time>
      </trkpt>
      <trkpt lat="46.39134" lon="6.90611">
        <ele>377.60000610352</ele>
        <time>2023-04-04T07:36:59.000Z</time>
      </trkpt>
      <trkpt lat="46.39129" lon="6.9061">
        <ele>377.60000610352</ele>
        <time>2023-04-04T07:37:00.000Z</time>
      </trkpt>
      <trkpt lat="46.39124" lon="6.90606">
        <ele>377.60000610352</ele>
        <time>2023-04-04T07:37:01.000Z</time>
      </trkpt>
      <trkpt lat="46.39121" lon="6.90602">
        <ele>377.60000610352</ele>
        <time>2023-04-04T07:37:02.000Z</time>
      </trkpt>
      <trkpt lat="46.39119" lon="6.90599">
        <ele>377.60000610352</ele>
        <time>2023-04-04T07:37:03.000Z</time>
      </trkpt>
      <trkpt lat="46.39117" lon="6.90595">
        <ele>377.60000610352</ele>
        <time>2023-04-04T07:37:04.000Z</time>
      </trkpt>
      <trkpt lat="46.39114" lon="6.90591">
        <ele>377.60000610352</ele>
        <time>2023-04-04T07:37:05.000Z</time>
      </trkpt>
      <trkpt lat="46.39106" lon="6.90579">
        <ele>377.39999389648</ele>
        <time>2023-04-04T07:37:09.000Z</time>
      </trkpt>
      <trkpt lat="46.39103" lon="6.90578">
        <ele>377.39999389648</ele>
        <time>2023-04-04T07:37:10.000Z</time>
      </trkpt>
      <trkpt lat="46.39103" lon="6.90577">
        <ele>377.39999389648</ele>
        <time>2023-04-04T07:37:11.000Z</time>
      </trkpt>
      <trkpt lat="46.39103" lon="6.90574">
        <ele>377.20001220703</ele>
        <time>2023-04-04T07:37:12.000Z</time>
      </trkpt>
      <trkpt lat="46.39103" lon="6.90572">
        <ele>377.20001220703</ele>
        <time>2023-04-04T07:37:13.000Z</time>
      </trkpt>
      <trkpt lat="46.39104" lon="6.90567">
        <ele>377.20001220703</ele>
        <time>2023-04-04T07:37:15.000Z</time>
      </trkpt>
      <trkpt lat="46.39104" lon="6.90564">
        <ele>377.20001220703</ele>
        <time>2023-04-04T07:37:16.000Z</time>
      </trkpt>
      <trkpt lat="46.39104" lon="6.90561">
        <ele>377.20001220703</ele>
        <time>2023-04-04T07:37:17.000Z</time>
      </trkpt>
      <trkpt lat="46.39105" lon="6.90556">
        <ele>377.20001220703</ele>
        <time>2023-04-04T07:37:18.000Z</time>
      </trkpt>
      <trkpt lat="46.39109" lon="6.90548">
        <ele>377</ele>
        <time>2023-04-04T07:37:20.000Z</time>
      </trkpt>
      <trkpt lat="46.3911" lon="6.90544">
        <ele>377</ele>
        <time>2023-04-04T07:37:21.000Z</time>
      </trkpt>
      <trkpt lat="46.39112" lon="6.90539">
        <ele>377</ele>
        <time>2023-04-04T07:37:22.000Z</time>
      </trkpt>
      <trkpt lat="46.39113" lon="6.90534">
        <ele>377</ele>
        <time>2023-04-04T07:37:23.000Z</time>
      </trkpt>
      <trkpt lat="46.39115" lon="6.9053">
        <ele>377.20001220703</ele>
        <time>2023-04-04T07:37:24.000Z</time>
      </trkpt>
      <trkpt lat="46.39115" lon="6.90526">
        <ele>377.20001220703</ele>
        <time>2023-04-04T07:37:25.000Z</time>
      </trkpt>
      <trkpt lat="46.39116" lon="6.90522">
        <ele>377.20001220703</ele>
        <time>2023-04-04T07:37:26.000Z</time>
      </trkpt>
      <trkpt lat="46.39117" lon="6.90518">
        <ele>377.20001220703</ele>
        <time>2023-04-04T07:37:27.000Z</time>
      </trkpt>
      <trkpt lat="46.39123" lon="6.90498">
        <ele>377.20001220703</ele>
        <time>2023-04-04T07:37:32.000Z</time>
      </trkpt>
      <trkpt lat="46.39125" lon="6.90495">
        <ele>377.20001220703</ele>
        <time>2023-04-04T07:37:33.000Z</time>
      </trkpt>
      <trkpt lat="46.39127" lon="6.90491">
        <ele>377.20001220703</ele>
        <time>2023-04-04T07:37:34.000Z</time>
      </trkpt>
      <trkpt lat="46.39128" lon="6.90486">
        <ele>377.20001220703</ele>
        <time>2023-04-04T07:37:35.000Z</time>
      </trkpt>
      <trkpt lat="46.39131" lon="6.90475">
        <ele>377.20001220703</ele>
        <time>2023-04-04T07:37:37.000Z</time>
      </trkpt>
      <trkpt lat="46.39133" lon="6.9047">
        <ele>377.20001220703</ele>
        <time>2023-04-04T07:37:38.000Z</time>
      </trkpt>
      <trkpt lat="46.39134" lon="6.90462">
        <ele>377</ele>
        <time>2023-04-04T07:37:40.000Z</time>
      </trkpt>
      <trkpt lat="46.39137" lon="6.90453">
        <ele>377</ele>
        <time>2023-04-04T07:37:42.000Z</time>
      </trkpt>
      <trkpt lat="46.39145" lon="6.90432">
        <ele>377</ele>
        <time>2023-04-04T07:37:47.000Z</time>
      </trkpt>
      <trkpt lat="46.39145" lon="6.90428">
        <ele>377</ele>
        <time>2023-04-04T07:37:48.000Z</time>
      </trkpt>
      <trkpt lat="46.39146" lon="6.90424">
        <ele>377</ele>
        <time>2023-04-04T07:37:49.000Z</time>
      </trkpt>
      <trkpt lat="46.39148" lon="6.9042">
        <ele>377</ele>
        <time>2023-04-04T07:37:50.000Z</time>
      </trkpt>
      <trkpt lat="46.39151" lon="6.90414">
        <ele>377</ele>
        <time>2023-04-04T07:37:51.000Z</time>
      </trkpt>
      <trkpt lat="46.39153" lon="6.90409">
        <ele>377.20001220703</ele>
        <time>2023-04-04T07:37:52.000Z</time>
      </trkpt>
      <trkpt lat="46.39157" lon="6.90404">
        <ele>377.20001220703</ele>
        <time>2023-04-04T07:37:53.000Z</time>
      </trkpt>
      <trkpt lat="46.39159" lon="6.904">
        <ele>377.20001220703</ele>
        <time>2023-04-04T07:37:54.000Z</time>
      </trkpt>
      <trkpt lat="46.39159" lon="6.90396">
        <ele>377.20001220703</ele>
        <time>2023-04-04T07:37:55.000Z</time>
      </trkpt>
      <trkpt lat="46.39159" lon="6.90391">
        <ele>377.20001220703</ele>
        <time>2023-04-04T07:37:56.000Z</time>
      </trkpt>
      <trkpt lat="46.39161" lon="6.90386">
        <ele>377.20001220703</ele>
        <time>2023-04-04T07:37:57.000Z</time>
      </trkpt>
      <trkpt lat="46.3916" lon="6.90379">
        <ele>377.20001220703</ele>
        <time>2023-04-04T07:37:58.000Z</time>
      </trkpt>
      <trkpt lat="46.3916" lon="6.90373">
        <ele>377.20001220703</ele>
        <time>2023-04-04T07:37:59.000Z</time>
      </trkpt>
      <trkpt lat="46.39155" lon="6.90357">
        <ele>377.20001220703</ele>
        <time>2023-04-04T07:38:01.000Z</time>
      </trkpt>
      <trkpt lat="46.39153" lon="6.90353">
        <ele>377.20001220703</ele>
        <time>2023-04-04T07:38:02.000Z</time>
      </trkpt>
      <trkpt lat="46.39153" lon="6.90348">
        <ele>377.20001220703</ele>
        <time>2023-04-04T07:38:03.000Z</time>
      </trkpt>
      <trkpt lat="46.39153" lon="6.90338">
        <ele>377.20001220703</ele>
        <time>2023-04-04T07:38:05.000Z</time>
      </trkpt>
      <trkpt lat="46.39151" lon="6.90333">
        <ele>377</ele>
        <time>2023-04-04T07:38:06.000Z</time>
      </trkpt>
      <trkpt lat="46.39151" lon="6.90317">
        <ele>377</ele>
        <time>2023-04-04T07:38:09.000Z</time>
      </trkpt>
      <trkpt lat="46.39148" lon="6.903">
        <ele>377</ele>
        <time>2023-04-04T07:38:12.000Z</time>
      </trkpt>
      <trkpt lat="46.39147" lon="6.90296">
        <ele>377</ele>
        <time>2023-04-04T07:38:13.000Z</time>
      </trkpt>
      <trkpt lat="46.39146" lon="6.90286">
        <ele>377</ele>
        <time>2023-04-04T07:38:15.000Z</time>
      </trkpt>
      <trkpt lat="46.39138" lon="6.90244">
        <ele>377.39999389648</ele>
        <time>2023-04-04T07:38:24.000Z</time>
      </trkpt>
      <trkpt lat="46.3913" lon="6.90199">
        <ele>377.39999389648</ele>
        <time>2023-04-04T07:38:33.000Z</time>
      </trkpt>
      <trkpt lat="46.39125" lon="6.90175">
        <ele>377.39999389648</ele>
        <time>2023-04-04T07:38:38.000Z</time>
      </trkpt>
      <trkpt lat="46.39124" lon="6.90171">
        <ele>377.39999389648</ele>
        <time>2023-04-04T07:38:39.000Z</time>
      </trkpt>
      <trkpt lat="46.39123" lon="6.90166">
        <ele>377.39999389648</ele>
        <time>2023-04-04T07:38:40.000Z</time>
      </trkpt>
      <trkpt lat="46.39122" lon="6.90162">
        <ele>377.39999389648</ele>
        <time>2023-04-04T07:38:41.000Z</time>
      </trkpt>
      <trkpt lat="46.39122" lon="6.90157">
        <ele>377.60000610352</ele>
        <time>2023-04-04T07:38:42.000Z</time>
      </trkpt>
      <trkpt lat="46.39121" lon="6.90153">
        <ele>377.60000610352</ele>
        <time>2023-04-04T07:38:43.000Z</time>
      </trkpt>
      <trkpt lat="46.3912" lon="6.90148">
        <ele>377.60000610352</ele>
        <time>2023-04-04T07:38:44.000Z</time>
      </trkpt>
      <trkpt lat="46.39119" lon="6.90143">
        <ele>377.60000610352</ele>
        <time>2023-04-04T07:38:45.000Z</time>
      </trkpt>
      <trkpt lat="46.39115" lon="6.90124">
        <ele>377.79998779297</ele>
        <time>2023-04-04T07:38:49.000Z</time>
      </trkpt>
      <trkpt lat="46.39113" lon="6.9011">
        <ele>377.79998779297</ele>
        <time>2023-04-04T07:38:52.000Z</time>
      </trkpt>
      <trkpt lat="46.39103" lon="6.90056">
        <ele>377.79998779297</ele>
        <time>2023-04-04T07:39:03.000Z</time>
      </trkpt>
      <trkpt lat="46.39093" lon="6.90011">
        <ele>378</ele>
        <time>2023-04-04T07:39:12.000Z</time>
      </trkpt>
      <trkpt lat="46.39087" lon="6.89975">
        <ele>378</ele>
        <time>2023-04-04T07:39:19.000Z</time>
      </trkpt>
      <trkpt lat="46.39085" lon="6.89966">
        <ele>378</ele>
        <time>2023-04-04T07:39:21.000Z</time>
      </trkpt>
      <trkpt lat="46.39084" lon="6.89961">
        <ele>378</ele>
        <time>2023-04-04T07:39:22.000Z</time>
      </trkpt>
      <trkpt lat="46.39083" lon="6.89957">
        <ele>378</ele>
        <time>2023-04-04T07:39:23.000Z</time>
      </trkpt>
      <trkpt lat="46.39082" lon="6.89953">
        <ele>378</ele>
        <time>2023-04-04T07:39:24.000Z</time>
      </trkpt>
      <trkpt lat="46.39081" lon="6.89951">
        <ele>378</ele>
        <time>2023-04-04T07:39:25.000Z</time>
      </trkpt>
      <trkpt lat="46.39081" lon="6.89949">
        <ele>378</ele>
        <time>2023-04-04T07:39:26.000Z</time>
      </trkpt>
      <trkpt lat="46.39081" lon="6.89949">
        <ele>378</ele>
        <time>2023-04-04T07:39:27.000Z</time>
      </trkpt>
      <trkpt lat="46.39081" lon="6.89946">
        <ele>377.79998779297</ele>
        <time>2023-04-04T07:39:36.000Z</time>
      </trkpt>
      <trkpt lat="46.3908" lon="6.89944">
        <ele>377.79998779297</ele>
        <time>2023-04-04T07:39:37.000Z</time>
      </trkpt>
      <trkpt lat="46.3908" lon="6.89942">
        <ele>377.79998779297</ele>
        <time>2023-04-04T07:39:38.000Z</time>
      </trkpt>
      <trkpt lat="46.39079" lon="6.89939">
        <ele>377.79998779297</ele>
        <time>2023-04-04T07:39:39.000Z</time>
      </trkpt>
      <trkpt lat="46.39072" lon="6.89916">
        <ele>377.60000610352</ele>
        <time>2023-04-04T07:39:45.000Z</time>
      </trkpt>
      <trkpt lat="46.39071" lon="6.89912">
        <ele>377.60000610352</ele>
        <time>2023-04-04T07:39:46.000Z</time>
      </trkpt>
      <trkpt lat="46.39062" lon="6.8988">
        <ele>377.60000610352</ele>
        <time>2023-04-04T07:39:53.000Z</time>
      </trkpt>
      <trkpt lat="46.3905" lon="6.89841">
        <ele>378</ele>
        <time>2023-04-04T07:40:01.000Z</time>
      </trkpt>
      <trkpt lat="46.39043" lon="6.89815">
        <ele>378.39999389648</ele>
        <time>2023-04-04T07:40:06.000Z</time>
      </trkpt>
      <trkpt lat="46.39037" lon="6.89794">
        <ele>378.39999389648</ele>
        <time>2023-04-04T07:40:10.000Z</time>
      </trkpt>
      <trkpt lat="46.3902" lon="6.89736">
        <ele>378.79998779297</ele>
        <time>2023-04-04T07:40:21.000Z</time>
      </trkpt>
      <trkpt lat="46.39004" lon="6.89681">
        <ele>378.60000610352</ele>
        <time>2023-04-04T07:40:31.000Z</time>
      </trkpt>
      <trkpt lat="46.38997" lon="6.89659">
        <ele>378.20001220703</ele>
        <time>2023-04-04T07:40:35.000Z</time>
      </trkpt>
      <trkpt lat="46.38996" lon="6.89654">
        <ele>378.20001220703</ele>
        <time>2023-04-04T07:40:36.000Z</time>
      </trkpt>
      <trkpt lat="46.38994" lon="6.89649">
        <ele>378.20001220703</ele>
        <time>2023-04-04T07:40:37.000Z</time>
      </trkpt>
      <trkpt lat="46.38993" lon="6.89644">
        <ele>378.20001220703</ele>
        <time>2023-04-04T07:40:38.000Z</time>
      </trkpt>
      <trkpt lat="46.38992" lon="6.8964">
        <ele>378.20001220703</ele>
        <time>2023-04-04T07:40:39.000Z</time>
      </trkpt>
      <trkpt lat="46.38991" lon="6.89635">
        <ele>378.20001220703</ele>
        <time>2023-04-04T07:40:40.000Z</time>
      </trkpt>
      <trkpt lat="46.38991" lon="6.8963">
        <ele>378.20001220703</ele>
        <time>2023-04-04T07:40:41.000Z</time>
      </trkpt>
      <trkpt lat="46.3899" lon="6.89624">
        <ele>378.20001220703</ele>
        <time>2023-04-04T07:40:42.000Z</time>
      </trkpt>
      <trkpt lat="46.3899" lon="6.89618">
        <ele>378.20001220703</ele>
        <time>2023-04-04T07:40:43.000Z</time>
      </trkpt>
      <trkpt lat="46.38988" lon="6.89599">
        <ele>378.39999389648</ele>
        <time>2023-04-04T07:40:46.000Z</time>
      </trkpt>
      <trkpt lat="46.38987" lon="6.89585">
        <ele>378.39999389648</ele>
        <time>2023-04-04T07:40:48.000Z</time>
      </trkpt>
      <trkpt lat="46.38984" lon="6.89558">
        <ele>378.20001220703</ele>
        <time>2023-04-04T07:40:52.000Z</time>
      </trkpt>
      <trkpt lat="46.38982" lon="6.89539">
        <ele>378</ele>
        <time>2023-04-04T07:40:55.000Z</time>
      </trkpt>
      <trkpt lat="46.38982" lon="6.89533">
        <ele>378</ele>
        <time>2023-04-04T07:40:56.000Z</time>
      </trkpt>
      <trkpt lat="46.38981" lon="6.89528">
        <ele>378</ele>
        <time>2023-04-04T07:40:57.000Z</time>
      </trkpt>
      <trkpt lat="46.38981" lon="6.89521">
        <ele>378</ele>
        <time>2023-04-04T07:40:58.000Z</time>
      </trkpt>
      <trkpt lat="46.3898" lon="6.89516">
        <ele>378</ele>
        <time>2023-04-04T07:40:59.000Z</time>
      </trkpt>
      <trkpt lat="46.38979" lon="6.8951">
        <ele>378</ele>
        <time>2023-04-04T07:41:00.000Z</time>
      </trkpt>
      <trkpt lat="46.38979" lon="6.89504">
        <ele>378</ele>
        <time>2023-04-04T07:41:01.000Z</time>
      </trkpt>
      <trkpt lat="46.38978" lon="6.89498">
        <ele>377.79998779297</ele>
        <time>2023-04-04T07:41:02.000Z</time>
      </trkpt>
      <trkpt lat="46.38978" lon="6.89493">
        <ele>377.79998779297</ele>
        <time>2023-04-04T07:41:03.000Z</time>
      </trkpt>
      <trkpt lat="46.38977" lon="6.89487">
        <ele>377.60000610352</ele>
        <time>2023-04-04T07:41:04.000Z</time>
      </trkpt>
      <trkpt lat="46.38976" lon="6.89482">
        <ele>377.60000610352</ele>
        <time>2023-04-04T07:41:05.000Z</time>
      </trkpt>
      <trkpt lat="46.38974" lon="6.89463">
        <ele>377.39999389648</ele>
        <time>2023-04-04T07:41:08.000Z</time>
      </trkpt>
      <trkpt lat="46.38972" lon="6.8945">
        <ele>377.39999389648</ele>
        <time>2023-04-04T07:41:10.000Z</time>
      </trkpt>
      <trkpt lat="46.38971" lon="6.89438">
        <ele>377.39999389648</ele>
        <time>2023-04-04T07:41:12.000Z</time>
      </trkpt>
      <trkpt lat="46.38965" lon="6.89421">
        <ele>377.20001220703</ele>
        <time>2023-04-04T07:41:15.000Z</time>
      </trkpt>
      <trkpt lat="46.38943" lon="6.89366">
        <ele>377.39999389648</ele>
        <time>2023-04-04T07:41:25.000Z</time>
      </trkpt>
      <trkpt lat="46.3894" lon="6.8936">
        <ele>377.39999389648</ele>
        <time>2023-04-04T07:41:26.000Z</time>
      </trkpt>
      <trkpt lat="46.38934" lon="6.89343">
        <ele>377.39999389648</ele>
        <time>2023-04-04T07:41:29.000Z</time>
      </trkpt>
      <trkpt lat="46.38932" lon="6.89338">
        <ele>377.39999389648</ele>
        <time>2023-04-04T07:41:30.000Z</time>
      </trkpt>
      <trkpt lat="46.3893" lon="6.89333">
        <ele>377.39999389648</ele>
        <time>2023-04-04T07:41:31.000Z</time>
      </trkpt>
      <trkpt lat="46.38928" lon="6.89328">
        <ele>377.20001220703</ele>
        <time>2023-04-04T07:41:32.000Z</time>
      </trkpt>
      <trkpt lat="46.38926" lon="6.89323">
        <ele>377.20001220703</ele>
        <time>2023-04-04T07:41:33.000Z</time>
      </trkpt>
      <trkpt lat="46.38924" lon="6.89318">
        <ele>377.20001220703</ele>
        <time>2023-04-04T07:41:34.000Z</time>
      </trkpt>
      <trkpt lat="46.38922" lon="6.89313">
        <ele>377.20001220703</ele>
        <time>2023-04-04T07:41:35.000Z</time>
      </trkpt>
      <trkpt lat="46.3892" lon="6.89307">
        <ele>377.20001220703</ele>
        <time>2023-04-04T07:41:36.000Z</time>
      </trkpt>
      <trkpt lat="46.38918" lon="6.89302">
        <ele>377.20001220703</ele>
        <time>2023-04-04T07:41:37.000Z</time>
      </trkpt>
      <trkpt lat="46.38916" lon="6.89297">
        <ele>377</ele>
        <time>2023-04-04T07:41:38.000Z</time>
      </trkpt>
      <trkpt lat="46.38911" lon="6.89282">
        <ele>377</ele>
        <time>2023-04-04T07:41:41.000Z</time>
      </trkpt>
      <trkpt lat="46.38908" lon="6.89277">
        <ele>377</ele>
        <time>2023-04-04T07:41:42.000Z</time>
      </trkpt>
      <trkpt lat="46.38906" lon="6.89271">
        <ele>377</ele>
        <time>2023-04-04T07:41:43.000Z</time>
      </trkpt>
      <trkpt lat="46.38901" lon="6.89256">
        <ele>377</ele>
        <time>2023-04-04T07:41:46.000Z</time>
      </trkpt>
      <trkpt lat="46.38897" lon="6.89246">
        <ele>377</ele>
        <time>2023-04-04T07:41:48.000Z</time>
      </trkpt>
      <trkpt lat="46.38895" lon="6.89241">
        <ele>377</ele>
        <time>2023-04-04T07:41:49.000Z</time>
      </trkpt>
      <trkpt lat="46.38893" lon="6.89237">
        <ele>377</ele>
        <time>2023-04-04T07:41:50.000Z</time>
      </trkpt>
      <trkpt lat="46.38892" lon="6.89233">
        <ele>377</ele>
        <time>2023-04-04T07:41:51.000Z</time>
      </trkpt>
      <trkpt lat="46.38891" lon="6.8923">
        <ele>377</ele>
        <time>2023-04-04T07:41:52.000Z</time>
      </trkpt>
      <trkpt lat="46.3889" lon="6.89227">
        <ele>377</ele>
        <time>2023-04-04T07:41:53.000Z</time>
      </trkpt>
      <trkpt lat="46.38889" lon="6.89223">
        <ele>377</ele>
        <time>2023-04-04T07:41:54.000Z</time>
      </trkpt>
      <trkpt lat="46.38888" lon="6.8922">
        <ele>377</ele>
        <time>2023-04-04T07:41:55.000Z</time>
      </trkpt>
      <trkpt lat="46.38886" lon="6.89218">
        <ele>377</ele>
        <time>2023-04-04T07:41:56.000Z</time>
      </trkpt>
      <trkpt lat="46.38886" lon="6.89216">
        <ele>377</ele>
        <time>2023-04-04T07:41:57.000Z</time>
      </trkpt>
      <trkpt lat="46.38885" lon="6.89215">
        <ele>377.20001220703</ele>
        <time>2023-04-04T07:41:58.000Z</time>
      </trkpt>
      <trkpt lat="46.38885" lon="6.89215">
        <ele>377.20001220703</ele>
        <time>2023-04-04T07:41:59.000Z</time>
      </trkpt>
      <trkpt lat="46.38875" lon="6.89167">
        <ele>377.79998779297</ele>
        <time>2023-04-04T07:42:59.000Z</time>
      </trkpt>
      <trkpt lat="46.38874" lon="6.89165">
        <ele>377.79998779297</ele>
        <time>2023-04-04T07:43:00.000Z</time>
      </trkpt>
      <trkpt lat="46.38874" lon="6.89162">
        <ele>377.79998779297</ele>
        <time>2023-04-04T07:43:01.000Z</time>
      </trkpt>
      <trkpt lat="46.38873" lon="6.89159">
        <ele>377.60000610352</ele>
        <time>2023-04-04T07:43:02.000Z</time>
      </trkpt>
      <trkpt lat="46.38869" lon="6.89139">
        <ele>377.20001220703</ele>
        <time>2023-04-04T07:43:08.000Z</time>
      </trkpt>
      <trkpt lat="46.38864" lon="6.89113">
        <ele>377</ele>
        <time>2023-04-04T07:43:15.000Z</time>
      </trkpt>
      <trkpt lat="46.38856" lon="6.89085">
        <ele>377.20001220703</ele>
        <time>2023-04-04T07:43:23.000Z</time>
      </trkpt>
      <trkpt lat="46.38847" lon="6.89041">
        <ele>377.39999389648</ele>
        <time>2023-04-04T07:43:33.000Z</time>
      </trkpt>
      <trkpt lat="46.38847" lon="6.88998">
        <ele>377.60000610352</ele>
        <time>2023-04-04T07:43:42.000Z</time>
      </trkpt>
      <trkpt lat="46.38854" lon="6.88955">
        <ele>377.79998779297</ele>
        <time>2023-04-04T07:43:51.000Z</time>
      </trkpt>
      <trkpt lat="46.38857" lon="6.88937">
        <ele>377.79998779297</ele>
        <time>2023-04-04T07:43:55.000Z</time>
      </trkpt>
      <trkpt lat="46.38858" lon="6.88932">
        <ele>377.79998779297</ele>
        <time>2023-04-04T07:43:56.000Z</time>
      </trkpt>
      <trkpt lat="46.38859" lon="6.88928">
        <ele>377.79998779297</ele>
        <time>2023-04-04T07:43:57.000Z</time>
      </trkpt>
      <trkpt lat="46.38861" lon="6.88919">
        <ele>377.60000610352</ele>
        <time>2023-04-04T07:43:59.000Z</time>
      </trkpt>
      <trkpt lat="46.38862" lon="6.88914">
        <ele>377.60000610352</ele>
        <time>2023-04-04T07:44:00.000Z</time>
      </trkpt>
      <trkpt lat="46.38863" lon="6.8891">
        <ele>377.60000610352</ele>
        <time>2023-04-04T07:44:01.000Z</time>
      </trkpt>
      <trkpt lat="46.38864" lon="6.88905">
        <ele>377.60000610352</ele>
        <time>2023-04-04T07:44:02.000Z</time>
      </trkpt>
      <trkpt lat="46.38865" lon="6.88901">
        <ele>377.60000610352</ele>
        <time>2023-04-04T07:44:03.000Z</time>
      </trkpt>
      <trkpt lat="46.38868" lon="6.88858">
        <ele>377.60000610352</ele>
        <time>2023-04-04T07:44:12.000Z</time>
      </trkpt>
      <trkpt lat="46.38869" lon="6.88849">
        <ele>377.60000610352</ele>
        <time>2023-04-04T07:44:14.000Z</time>
      </trkpt>
      <trkpt lat="46.38873" lon="6.88814">
        <ele>377.60000610352</ele>
        <time>2023-04-04T07:44:21.000Z</time>
      </trkpt>
      <trkpt lat="46.38879" lon="6.88774">
        <ele>377.60000610352</ele>
        <time>2023-04-04T07:44:29.000Z</time>
      </trkpt>
      <trkpt lat="46.38883" lon="6.88733">
        <ele>377.60000610352</ele>
        <time>2023-04-04T07:44:37.000Z</time>
      </trkpt>
      <trkpt lat="46.38883" lon="6.88727">
        <ele>377.60000610352</ele>
        <time>2023-04-04T07:44:38.000Z</time>
      </trkpt>
      <trkpt lat="46.38887" lon="6.88687">
        <ele>377.60000610352</ele>
        <time>2023-04-04T07:44:46.000Z</time>
      </trkpt>
      <trkpt lat="46.38893" lon="6.88639">
        <ele>377.39999389648</ele>
        <time>2023-04-04T07:44:55.000Z</time>
      </trkpt>
      <trkpt lat="46.38896" lon="6.88624">
        <ele>377.39999389648</ele>
        <time>2023-04-04T07:44:58.000Z</time>
      </trkpt>
      <trkpt lat="46.389" lon="6.88581">
        <ele>377.79998779297</ele>
        <time>2023-04-04T07:45:06.000Z</time>
      </trkpt>
      <trkpt lat="46.38902" lon="6.88561">
        <ele>377.79998779297</ele>
        <time>2023-04-04T07:45:10.000Z</time>
      </trkpt>
      <trkpt lat="46.38903" lon="6.88528">
        <ele>377.79998779297</ele>
        <time>2023-04-04T07:45:16.000Z</time>
      </trkpt>
      <trkpt lat="46.38911" lon="6.88473">
        <ele>377.60000610352</ele>
        <time>2023-04-04T07:45:27.000Z</time>
      </trkpt>
      <trkpt lat="46.38911" lon="6.88468">
        <ele>377.60000610352</ele>
        <time>2023-04-04T07:45:28.000Z</time>
      </trkpt>
      <trkpt lat="46.38912" lon="6.88463">
        <ele>377.60000610352</ele>
        <time>2023-04-04T07:45:29.000Z</time>
      </trkpt>
      <trkpt lat="46.38914" lon="6.88451">
        <ele>377.60000610352</ele>
        <time>2023-04-04T07:45:32.000Z</time>
      </trkpt>
      <trkpt lat="46.38914" lon="6.88446">
        <ele>377.60000610352</ele>
        <time>2023-04-04T07:45:33.000Z</time>
      </trkpt>
      <trkpt lat="46.38914" lon="6.88443">
        <ele>377.60000610352</ele>
        <time>2023-04-04T07:45:34.000Z</time>
      </trkpt>
      <trkpt lat="46.38913" lon="6.88439">
        <ele>377.60000610352</ele>
        <time>2023-04-04T07:45:35.000Z</time>
      </trkpt>
      <trkpt lat="46.38913" lon="6.88436">
        <ele>377.60000610352</ele>
        <time>2023-04-04T07:45:36.000Z</time>
      </trkpt>
      <trkpt lat="46.38913" lon="6.88432">
        <ele>377.60000610352</ele>
        <time>2023-04-04T07:45:37.000Z</time>
      </trkpt>
      <trkpt lat="46.38913" lon="6.88428">
        <ele>377.60000610352</ele>
        <time>2023-04-04T07:45:38.000Z</time>
      </trkpt>
      <trkpt lat="46.38914" lon="6.88424">
        <ele>377.60000610352</ele>
        <time>2023-04-04T07:45:39.000Z</time>
      </trkpt>
      <trkpt lat="46.38915" lon="6.88419">
        <ele>377.60000610352</ele>
        <time>2023-04-04T07:45:40.000Z</time>
      </trkpt>
      <trkpt lat="46.38914" lon="6.88408">
        <ele>377.39999389648</ele>
        <time>2023-04-04T07:45:42.000Z</time>
      </trkpt>
      <trkpt lat="46.38914" lon="6.88403">
        <ele>377.20001220703</ele>
        <time>2023-04-04T07:45:43.000Z</time>
      </trkpt>
      <trkpt lat="46.38913" lon="6.884">
        <ele>377.20001220703</ele>
        <time>2023-04-04T07:45:44.000Z</time>
      </trkpt>
      <trkpt lat="46.38913" lon="6.88396">
        <ele>377.20001220703</ele>
        <time>2023-04-04T07:45:45.000Z</time>
      </trkpt>
      <trkpt lat="46.38911" lon="6.88391">
        <ele>377.20001220703</ele>
        <time>2023-04-04T07:45:46.000Z</time>
      </trkpt>
      <trkpt lat="46.3891" lon="6.88384">
        <ele>377</ele>
        <time>2023-04-04T07:45:47.000Z</time>
      </trkpt>
      <trkpt lat="46.38909" lon="6.88376">
        <ele>377</ele>
        <time>2023-04-04T07:45:49.000Z</time>
      </trkpt>
      <trkpt lat="46.38909" lon="6.88373">
        <ele>377</ele>
        <time>2023-04-04T07:45:50.000Z</time>
      </trkpt>
      <trkpt lat="46.3891" lon="6.88368">
        <ele>377</ele>
        <time>2023-04-04T07:45:51.000Z</time>
      </trkpt>
      <trkpt lat="46.38911" lon="6.88362">
        <ele>377</ele>
        <time>2023-04-04T07:45:52.000Z</time>
      </trkpt>
      <trkpt lat="46.38909" lon="6.88358">
        <ele>376.79998779297</ele>
        <time>2023-04-04T07:45:53.000Z</time>
      </trkpt>
      <trkpt lat="46.38907" lon="6.88354">
        <ele>376.79998779297</ele>
        <time>2023-04-04T07:45:54.000Z</time>
      </trkpt>
      <trkpt lat="46.38905" lon="6.88348">
        <ele>376.60000610352</ele>
        <time>2023-04-04T07:45:55.000Z</time>
      </trkpt>
      <trkpt lat="46.38902" lon="6.88345">
        <ele>376.60000610352</ele>
        <time>2023-04-04T07:45:56.000Z</time>
      </trkpt>
      <trkpt lat="46.38899" lon="6.88341">
        <ele>376.60000610352</ele>
        <time>2023-04-04T07:45:57.000Z</time>
      </trkpt>
      <trkpt lat="46.38899" lon="6.88336">
        <ele>376.60000610352</ele>
        <time>2023-04-04T07:45:58.000Z</time>
      </trkpt>
      <trkpt lat="46.38897" lon="6.88325">
        <ele>376.60000610352</ele>
        <time>2023-04-04T07:45:59.000Z</time>
      </trkpt>
      <trkpt lat="46.38897" lon="6.88316">
        <ele>376.60000610352</ele>
        <time>2023-04-04T07:46:00.000Z</time>
      </trkpt>
      <trkpt lat="46.38894" lon="6.88299">
        <ele>376.60000610352</ele>
        <time>2023-04-04T07:46:03.000Z</time>
      </trkpt>
      <trkpt lat="46.38892" lon="6.88294">
        <ele>376.60000610352</ele>
        <time>2023-04-04T07:46:04.000Z</time>
      </trkpt>
      <trkpt lat="46.38892" lon="6.88287">
        <ele>376.39999389648</ele>
        <time>2023-04-04T07:46:05.000Z</time>
      </trkpt>
      <trkpt lat="46.38894" lon="6.8828">
        <ele>376.39999389648</ele>
        <time>2023-04-04T07:46:06.000Z</time>
      </trkpt>
      <trkpt lat="46.38896" lon="6.88275">
        <ele>376.39999389648</ele>
        <time>2023-04-04T07:46:07.000Z</time>
      </trkpt>
      <trkpt lat="46.38899" lon="6.8827">
        <ele>376.39999389648</ele>
        <time>2023-04-04T07:46:08.000Z</time>
      </trkpt>
      <trkpt lat="46.38899" lon="6.88265">
        <ele>376.39999389648</ele>
        <time>2023-04-04T07:46:09.000Z</time>
      </trkpt>
      <trkpt lat="46.38897" lon="6.88261">
        <ele>376.39999389648</ele>
        <time>2023-04-04T07:46:10.000Z</time>
      </trkpt>
      <trkpt lat="46.38896" lon="6.88256">
        <ele>376.60000610352</ele>
        <time>2023-04-04T07:46:11.000Z</time>
      </trkpt>
      <trkpt lat="46.38895" lon="6.8825">
        <ele>376.60000610352</ele>
        <time>2023-04-04T07:46:12.000Z</time>
      </trkpt>
      <trkpt lat="46.38892" lon="6.88244">
        <ele>376.60000610352</ele>
        <time>2023-04-04T07:46:13.000Z</time>
      </trkpt>
      <trkpt lat="46.38894" lon="6.88237">
        <ele>376.60000610352</ele>
        <time>2023-04-04T07:46:14.000Z</time>
      </trkpt>
      <trkpt lat="46.38901" lon="6.8822">
        <ele>376.60000610352</ele>
        <time>2023-04-04T07:46:16.000Z</time>
      </trkpt>
      <trkpt lat="46.38902" lon="6.88214">
        <ele>376.60000610352</ele>
        <time>2023-04-04T07:46:17.000Z</time>
      </trkpt>
      <trkpt lat="46.38903" lon="6.8821">
        <ele>376.60000610352</ele>
        <time>2023-04-04T07:46:18.000Z</time>
      </trkpt>
      <trkpt lat="46.38904" lon="6.8819">
        <ele>376.60000610352</ele>
        <time>2023-04-04T07:46:22.000Z</time>
      </trkpt>
      <trkpt lat="46.38903" lon="6.88175">
        <ele>376.79998779297</ele>
        <time>2023-04-04T07:46:25.000Z</time>
      </trkpt>
      <trkpt lat="46.38904" lon="6.8817">
        <ele>376.79998779297</ele>
        <time>2023-04-04T07:46:26.000Z</time>
      </trkpt>
      <trkpt lat="46.38904" lon="6.88165">
        <ele>376.79998779297</ele>
        <time>2023-04-04T07:46:27.000Z</time>
      </trkpt>
      <trkpt lat="46.38905" lon="6.8815">
        <ele>377</ele>
        <time>2023-04-04T07:46:30.000Z</time>
      </trkpt>
      <trkpt lat="46.38905" lon="6.88145">
        <ele>377</ele>
        <time>2023-04-04T07:46:31.000Z</time>
      </trkpt>
      <trkpt lat="46.38905" lon="6.88141">
        <ele>377</ele>
        <time>2023-04-04T07:46:32.000Z</time>
      </trkpt>
      <trkpt lat="46.38905" lon="6.88136">
        <ele>377</ele>
        <time>2023-04-04T07:46:33.000Z</time>
      </trkpt>
      <trkpt lat="46.38903" lon="6.88128">
        <ele>376.79998779297</ele>
        <time>2023-04-04T07:46:35.000Z</time>
      </trkpt>
      <trkpt lat="46.38901" lon="6.88124">
        <ele>376.79998779297</ele>
        <time>2023-04-04T07:46:36.000Z</time>
      </trkpt>
      <trkpt lat="46.38899" lon="6.88122">
        <ele>376.79998779297</ele>
        <time>2023-04-04T07:46:37.000Z</time>
      </trkpt>
      <trkpt lat="46.38897" lon="6.88121">
        <ele>376.79998779297</ele>
        <time>2023-04-04T07:46:38.000Z</time>
      </trkpt>
      <trkpt lat="46.38894" lon="6.88119">
        <ele>376.79998779297</ele>
        <time>2023-04-04T07:46:39.000Z</time>
      </trkpt>
      <trkpt lat="46.38893" lon="6.88118">
        <ele>376.79998779297</ele>
        <time>2023-04-04T07:46:40.000Z</time>
      </trkpt>
      <trkpt lat="46.3889" lon="6.88117">
        <ele>376.60000610352</ele>
        <time>2023-04-04T07:46:41.000Z</time>
      </trkpt>
      <trkpt lat="46.38889" lon="6.88116">
        <ele>376.60000610352</ele>
        <time>2023-04-04T07:46:42.000Z</time>
      </trkpt>
      <trkpt lat="46.38885" lon="6.88114">
        <ele>376.60000610352</ele>
        <time>2023-04-04T07:46:44.000Z</time>
      </trkpt>
      <trkpt lat="46.38883" lon="6.88114">
        <ele>376.60000610352</ele>
        <time>2023-04-04T07:46:45.000Z</time>
      </trkpt>
      <trkpt lat="46.38882" lon="6.88113">
        <ele>376.60000610352</ele>
        <time>2023-04-04T07:46:46.000Z</time>
      </trkpt>
      <trkpt lat="46.3888" lon="6.88111">
        <ele>376.60000610352</ele>
        <time>2023-04-04T07:46:47.000Z</time>
      </trkpt>
      <trkpt lat="46.38878" lon="6.88109">
        <ele>376.60000610352</ele>
        <time>2023-04-04T07:46:48.000Z</time>
      </trkpt>
      <trkpt lat="46.38876" lon="6.88108">
        <ele>376.60000610352</ele>
        <time>2023-04-04T07:46:49.000Z</time>
      </trkpt>
      <trkpt lat="46.38867" lon="6.881">
        <ele>376.60000610352</ele>
        <time>2023-04-04T07:46:53.000Z</time>
      </trkpt>
      <trkpt lat="46.38865" lon="6.88097">
        <ele>376.60000610352</ele>
        <time>2023-04-04T07:46:54.000Z</time>
      </trkpt>
      <trkpt lat="46.38863" lon="6.88094">
        <ele>376.60000610352</ele>
        <time>2023-04-04T07:46:55.000Z</time>
      </trkpt>
      <trkpt lat="46.38862" lon="6.8809">
        <ele>376.79998779297</ele>
        <time>2023-04-04T07:46:56.000Z</time>
      </trkpt>
      <trkpt lat="46.3886" lon="6.88086">
        <ele>376.79998779297</ele>
        <time>2023-04-04T07:46:57.000Z</time>
      </trkpt>
      <trkpt lat="46.38855" lon="6.88073">
        <ele>377</ele>
        <time>2023-04-04T07:47:01.000Z</time>
      </trkpt>
      <trkpt lat="46.38844" lon="6.8805">
        <ele>377</ele>
        <time>2023-04-04T07:47:07.000Z</time>
      </trkpt>
      <trkpt lat="46.38832" lon="6.88033">
        <ele>377</ele>
        <time>2023-04-04T07:47:12.000Z</time>
      </trkpt>
      <trkpt lat="46.38813" lon="6.88004">
        <ele>377.20001220703</ele>
        <time>2023-04-04T07:47:20.000Z</time>
      </trkpt>
      <trkpt lat="46.38811" lon="6.88">
        <ele>377.20001220703</ele>
        <time>2023-04-04T07:47:21.000Z</time>
      </trkpt>
      <trkpt lat="46.38809" lon="6.87998">
        <ele>377.20001220703</ele>
        <time>2023-04-04T07:47:22.000Z</time>
      </trkpt>
      <trkpt lat="46.38808" lon="6.87994">
        <ele>377.20001220703</ele>
        <time>2023-04-04T07:47:23.000Z</time>
      </trkpt>
      <trkpt lat="46.38806" lon="6.87991">
        <ele>377.39999389648</ele>
        <time>2023-04-04T07:47:24.000Z</time>
      </trkpt>
      <trkpt lat="46.38795" lon="6.87979">
        <ele>377.20001220703</ele>
        <time>2023-04-04T07:47:27.000Z</time>
      </trkpt>
      <trkpt lat="46.38793" lon="6.87976">
        <ele>377.20001220703</ele>
        <time>2023-04-04T07:47:28.000Z</time>
      </trkpt>
      <trkpt lat="46.38792" lon="6.87969">
        <ele>377.20001220703</ele>
        <time>2023-04-04T07:47:29.000Z</time>
      </trkpt>
      <trkpt lat="46.38789" lon="6.87963">
        <ele>377.20001220703</ele>
        <time>2023-04-04T07:47:30.000Z</time>
      </trkpt>
      <trkpt lat="46.38786" lon="6.87957">
        <ele>377.20001220703</ele>
        <time>2023-04-04T07:47:31.000Z</time>
      </trkpt>
      <trkpt lat="46.38786" lon="6.87955">
        <ele>377.20001220703</ele>
        <time>2023-04-04T07:47:32.000Z</time>
      </trkpt>
      <trkpt lat="46.38786" lon="6.87951">
        <ele>377.20001220703</ele>
        <time>2023-04-04T07:47:33.000Z</time>
      </trkpt>
      <trkpt lat="46.38786" lon="6.87944">
        <ele>377.20001220703</ele>
        <time>2023-04-04T07:47:35.000Z</time>
      </trkpt>
      <trkpt lat="46.38787" lon="6.87943">
        <ele>377.20001220703</ele>
        <time>2023-04-04T07:47:36.000Z</time>
      </trkpt>
      <trkpt lat="46.38788" lon="6.87939">
        <ele>377.20001220703</ele>
        <time>2023-04-04T07:47:37.000Z</time>
      </trkpt>
      <trkpt lat="46.3879" lon="6.87934">
        <ele>377.20001220703</ele>
        <time>2023-04-04T07:47:38.000Z</time>
      </trkpt>
      <trkpt lat="46.38791" lon="6.8793">
        <ele>377.20001220703</ele>
        <time>2023-04-04T07:47:39.000Z</time>
      </trkpt>
      <trkpt lat="46.38791" lon="6.87927">
        <ele>377.20001220703</ele>
        <time>2023-04-04T07:47:40.000Z</time>
      </trkpt>
      <trkpt lat="46.38791" lon="6.87922">
        <ele>377.39999389648</ele>
        <time>2023-04-04T07:47:41.000Z</time>
      </trkpt>
      <trkpt lat="46.38792" lon="6.87906">
        <ele>377.39999389648</ele>
        <time>2023-04-04T07:47:45.000Z</time>
      </trkpt>
      <trkpt lat="46.38791" lon="6.87903">
        <ele>377.60000610352</ele>
        <time>2023-04-04T07:47:46.000Z</time>
      </trkpt>
      <trkpt lat="46.38788" lon="6.87881">
        <ele>377.39999389648</ele>
        <time>2023-04-04T07:47:52.000Z</time>
      </trkpt>
      <trkpt lat="46.38787" lon="6.87877">
        <ele>377.39999389648</ele>
        <time>2023-04-04T07:47:53.000Z</time>
      </trkpt>
      <trkpt lat="46.38786" lon="6.87874">
        <ele>377.39999389648</ele>
        <time>2023-04-04T07:47:54.000Z</time>
      </trkpt>
      <trkpt lat="46.38784" lon="6.87872">
        <ele>377.39999389648</ele>
        <time>2023-04-04T07:47:55.000Z</time>
      </trkpt>
      <trkpt lat="46.38783" lon="6.87869">
        <ele>377.39999389648</ele>
        <time>2023-04-04T07:47:56.000Z</time>
      </trkpt>
      <trkpt lat="46.38783" lon="6.87867">
        <ele>377.39999389648</ele>
        <time>2023-04-04T07:47:57.000Z</time>
      </trkpt>
      <trkpt lat="46.38782" lon="6.87865">
        <ele>377.39999389648</ele>
        <time>2023-04-04T07:47:58.000Z</time>
      </trkpt>
      <trkpt lat="46.38782" lon="6.87864">
        <ele>377.39999389648</ele>
        <time>2023-04-04T07:47:59.000Z</time>
      </trkpt>
      <trkpt lat="46.38781" lon="6.87863">
        <ele>377.39999389648</ele>
        <time>2023-04-04T07:48:00.000Z</time>
      </trkpt>
      <trkpt lat="46.38781" lon="6.87861">
        <ele>377.39999389648</ele>
        <time>2023-04-04T07:48:01.000Z</time>
      </trkpt>
      <trkpt lat="46.38779" lon="6.8786">
        <ele>377.39999389648</ele>
        <time>2023-04-04T07:48:02.000Z</time>
      </trkpt>
      <trkpt lat="46.38778" lon="6.87859">
        <ele>377.39999389648</ele>
        <time>2023-04-04T07:48:03.000Z</time>
      </trkpt>
      <trkpt lat="46.38775" lon="6.87858">
        <ele>377.20001220703</ele>
        <time>2023-04-04T07:48:04.000Z</time>
      </trkpt>
      <trkpt lat="46.38774" lon="6.87857">
        <ele>377.20001220703</ele>
        <time>2023-04-04T07:48:05.000Z</time>
      </trkpt>
      <trkpt lat="46.38772" lon="6.87856">
        <ele>377.20001220703</ele>
        <time>2023-04-04T07:48:06.000Z</time>
      </trkpt>
      <trkpt lat="46.38771" lon="6.87856">
        <ele>377.20001220703</ele>
        <time>2023-04-04T07:48:07.000Z</time>
      </trkpt>
      <trkpt lat="46.38758" lon="6.87853">
        <ele>377.20001220703</ele>
        <time>2023-04-04T07:48:12.000Z</time>
      </trkpt>
      <trkpt lat="46.38755" lon="6.87852">
        <ele>377</ele>
        <time>2023-04-04T07:48:13.000Z</time>
      </trkpt>
      <trkpt lat="46.38753" lon="6.8785">
        <ele>377</ele>
        <time>2023-04-04T07:48:14.000Z</time>
      </trkpt>
      <trkpt lat="46.3875" lon="6.87849">
        <ele>376.79998779297</ele>
        <time>2023-04-04T07:48:15.000Z</time>
      </trkpt>
      <trkpt lat="46.38747" lon="6.87847">
        <ele>376.79998779297</ele>
        <time>2023-04-04T07:48:16.000Z</time>
      </trkpt>
      <trkpt lat="46.38745" lon="6.87846">
        <ele>376.60000610352</ele>
        <time>2023-04-04T07:48:17.000Z</time>
      </trkpt>
      <trkpt lat="46.38743" lon="6.87846">
        <ele>376.60000610352</ele>
        <time>2023-04-04T07:48:18.000Z</time>
      </trkpt>
      <trkpt lat="46.38741" lon="6.87847">
        <ele>376.60000610352</ele>
        <time>2023-04-04T07:48:19.000Z</time>
      </trkpt>
      <trkpt lat="46.38739" lon="6.87846">
        <ele>376.39999389648</ele>
        <time>2023-04-04T07:48:20.000Z</time>
      </trkpt>
      <trkpt lat="46.38738" lon="6.87844">
        <ele>376.39999389648</ele>
        <time>2023-04-04T07:48:21.000Z</time>
      </trkpt>
      <trkpt lat="46.38738" lon="6.87843">
        <ele>376.39999389648</ele>
        <time>2023-04-04T07:48:22.000Z</time>
      </trkpt>
      <trkpt lat="46.38739" lon="6.8784">
        <ele>376.39999389648</ele>
        <time>2023-04-04T07:48:23.000Z</time>
      </trkpt>
      <trkpt lat="46.3874" lon="6.87837">
        <ele>376.39999389648</ele>
        <time>2023-04-04T07:48:24.000Z</time>
      </trkpt>
      <trkpt lat="46.3874" lon="6.87835">
        <ele>376.39999389648</ele>
        <time>2023-04-04T07:48:25.000Z</time>
      </trkpt>
      <trkpt lat="46.38741" lon="6.87834">
        <ele>376.60000610352</ele>
        <time>2023-04-04T07:48:26.000Z</time>
      </trkpt>
      <trkpt lat="46.38741" lon="6.87831">
        <ele>376.60000610352</ele>
        <time>2023-04-04T07:48:27.000Z</time>
      </trkpt>
      <trkpt lat="46.38737" lon="6.87826">
        <ele>376.60000610352</ele>
        <time>2023-04-04T07:48:28.000Z</time>
      </trkpt>
      <trkpt lat="46.38733" lon="6.87821">
        <ele>376.79998779297</ele>
        <time>2023-04-04T07:48:29.000Z</time>
      </trkpt>
      <trkpt lat="46.38738" lon="6.87809">
        <ele>376.79998779297</ele>
        <time>2023-04-04T07:48:31.000Z</time>
      </trkpt>
      <trkpt lat="46.38739" lon="6.87805">
        <ele>376.79998779297</ele>
        <time>2023-04-04T07:48:32.000Z</time>
      </trkpt>
      <trkpt lat="46.38739" lon="6.87802">
        <ele>376.79998779297</ele>
        <time>2023-04-04T07:48:33.000Z</time>
      </trkpt>
      <trkpt lat="46.38738" lon="6.87799">
        <ele>376.79998779297</ele>
        <time>2023-04-04T07:48:34.000Z</time>
      </trkpt>
      <trkpt lat="46.38738" lon="6.87795">
        <ele>376.79998779297</ele>
        <time>2023-04-04T07:48:35.000Z</time>
      </trkpt>
      <trkpt lat="46.38737" lon="6.87793">
        <ele>376.79998779297</ele>
        <time>2023-04-04T07:48:36.000Z</time>
      </trkpt>
      <trkpt lat="46.38735" lon="6.87784">
        <ele>376.79998779297</ele>
        <time>2023-04-04T07:48:38.000Z</time>
      </trkpt>
      <trkpt lat="46.38736" lon="6.87781">
        <ele>376.79998779297</ele>
        <time>2023-04-04T07:48:39.000Z</time>
      </trkpt>
      <trkpt lat="46.38738" lon="6.87771">
        <ele>376.60000610352</ele>
        <time>2023-04-04T07:48:41.000Z</time>
      </trkpt>
      <trkpt lat="46.38738" lon="6.87766">
        <ele>376.60000610352</ele>
        <time>2023-04-04T07:48:42.000Z</time>
      </trkpt>
      <trkpt lat="46.38738" lon="6.87761">
        <ele>376.60000610352</ele>
        <time>2023-04-04T07:48:43.000Z</time>
      </trkpt>
      <trkpt lat="46.38736" lon="6.87758">
        <ele>376.60000610352</ele>
        <time>2023-04-04T07:48:44.000Z</time>
      </trkpt>
      <trkpt lat="46.38735" lon="6.87755">
        <ele>376.60000610352</ele>
        <time>2023-04-04T07:48:45.000Z</time>
      </trkpt>
      <trkpt lat="46.38736" lon="6.87743">
        <ele>376.60000610352</ele>
        <time>2023-04-04T07:48:48.000Z</time>
      </trkpt>
      <trkpt lat="46.3874" lon="6.8772">
        <ele>376.60000610352</ele>
        <time>2023-04-04T07:48:54.000Z</time>
      </trkpt>
      <trkpt lat="46.38742" lon="6.87717">
        <ele>376.60000610352</ele>
        <time>2023-04-04T07:48:55.000Z</time>
      </trkpt>
      <trkpt lat="46.38744" lon="6.87715">
        <ele>376.79998779297</ele>
        <time>2023-04-04T07:48:56.000Z</time>
      </trkpt>
      <trkpt lat="46.38747" lon="6.87712">
        <ele>376.79998779297</ele>
        <time>2023-04-04T07:48:57.000Z</time>
      </trkpt>
      <trkpt lat="46.38749" lon="6.87709">
        <ele>376.79998779297</ele>
        <time>2023-04-04T07:48:58.000Z</time>
      </trkpt>
      <trkpt lat="46.38752" lon="6.87706">
        <ele>376.79998779297</ele>
        <time>2023-04-04T07:48:59.000Z</time>
      </trkpt>
      <trkpt lat="46.38763" lon="6.87691">
        <ele>376.39999389648</ele>
        <time>2023-04-04T07:49:04.000Z</time>
      </trkpt>
      <trkpt lat="46.38765" lon="6.87688">
        <ele>376.39999389648</ele>
        <time>2023-04-04T07:49:05.000Z</time>
      </trkpt>
      <trkpt lat="46.38766" lon="6.87686">
        <ele>376.39999389648</ele>
        <time>2023-04-04T07:49:06.000Z</time>
      </trkpt>
      <trkpt lat="46.38768" lon="6.87682">
        <ele>376.39999389648</ele>
        <time>2023-04-04T07:49:07.000Z</time>
      </trkpt>
      <trkpt lat="46.38768" lon="6.87679">
        <ele>376.39999389648</ele>
        <time>2023-04-04T07:49:08.000Z</time>
      </trkpt>
      <trkpt lat="46.38769" lon="6.87675">
        <ele>376.39999389648</ele>
        <time>2023-04-04T07:49:09.000Z</time>
      </trkpt>
      <trkpt lat="46.38769" lon="6.87672">
        <ele>376.39999389648</ele>
        <time>2023-04-04T07:49:10.000Z</time>
      </trkpt>
      <trkpt lat="46.3877" lon="6.87669">
        <ele>376.39999389648</ele>
        <time>2023-04-04T07:49:11.000Z</time>
      </trkpt>
      <trkpt lat="46.38769" lon="6.87665">
        <ele>376.39999389648</ele>
        <time>2023-04-04T07:49:12.000Z</time>
      </trkpt>
      <trkpt lat="46.38769" lon="6.87661">
        <ele>376.39999389648</ele>
        <time>2023-04-04T07:49:13.000Z</time>
      </trkpt>
      <trkpt lat="46.38768" lon="6.87657">
        <ele>376.39999389648</ele>
        <time>2023-04-04T07:49:14.000Z</time>
      </trkpt>
      <trkpt lat="46.38766" lon="6.87633">
        <ele>376.39999389648</ele>
        <time>2023-04-04T07:49:19.000Z</time>
      </trkpt>
      <trkpt lat="46.38765" lon="6.87628">
        <ele>376.39999389648</ele>
        <time>2023-04-04T07:49:20.000Z</time>
      </trkpt>
      <trkpt lat="46.38766" lon="6.87603">
        <ele>376.20001220703</ele>
        <time>2023-04-04T07:49:25.000Z</time>
      </trkpt>
      <trkpt lat="46.38765" lon="6.8757">
        <ele>376.20001220703</ele>
        <time>2023-04-04T07:49:31.000Z</time>
      </trkpt>
      <trkpt lat="46.38765" lon="6.87566">
        <ele>376.20001220703</ele>
        <time>2023-04-04T07:49:32.000Z</time>
      </trkpt>
      <trkpt lat="46.38764" lon="6.87548">
        <ele>376</ele>
        <time>2023-04-04T07:49:35.000Z</time>
      </trkpt>
      <trkpt lat="46.38765" lon="6.87543">
        <ele>376</ele>
        <time>2023-04-04T07:49:36.000Z</time>
      </trkpt>
      <trkpt lat="46.38764" lon="6.87533">
        <ele>376</ele>
        <time>2023-04-04T07:49:38.000Z</time>
      </trkpt>
      <trkpt lat="46.38763" lon="6.87524">
        <ele>376</ele>
        <time>2023-04-04T07:49:40.000Z</time>
      </trkpt>
      <trkpt lat="46.38763" lon="6.87522">
        <ele>376</ele>
        <time>2023-04-04T07:49:41.000Z</time>
      </trkpt>
      <trkpt lat="46.38762" lon="6.87518">
        <ele>375.79998779297</ele>
        <time>2023-04-04T07:49:42.000Z</time>
      </trkpt>
      <trkpt lat="46.38761" lon="6.87514">
        <ele>375.79998779297</ele>
        <time>2023-04-04T07:49:43.000Z</time>
      </trkpt>
      <trkpt lat="46.38758" lon="6.87507">
        <ele>375.79998779297</ele>
        <time>2023-04-04T07:49:45.000Z</time>
      </trkpt>
      <trkpt lat="46.38756" lon="6.87504">
        <ele>375.79998779297</ele>
        <time>2023-04-04T07:49:46.000Z</time>
      </trkpt>
      <trkpt lat="46.38752" lon="6.87498">
        <ele>375.79998779297</ele>
        <time>2023-04-04T07:49:48.000Z</time>
      </trkpt>
      <trkpt lat="46.38748" lon="6.8749">
        <ele>375.79998779297</ele>
        <time>2023-04-04T07:49:50.000Z</time>
      </trkpt>
      <trkpt lat="46.3874" lon="6.87479">
        <ele>375.79998779297</ele>
        <time>2023-04-04T07:49:54.000Z</time>
      </trkpt>
      <trkpt lat="46.38734" lon="6.87469">
        <ele>376</ele>
        <time>2023-04-04T07:49:57.000Z</time>
      </trkpt>
      <trkpt lat="46.38732" lon="6.87466">
        <ele>376</ele>
        <time>2023-04-04T07:49:58.000Z</time>
      </trkpt>
      <trkpt lat="46.3873" lon="6.87462">
        <ele>376</ele>
        <time>2023-04-04T07:49:59.000Z</time>
      </trkpt>
      <trkpt lat="46.38726" lon="6.87455">
        <ele>376</ele>
        <time>2023-04-04T07:50:01.000Z</time>
      </trkpt>
      <trkpt lat="46.38704" lon="6.87426">
        <ele>376.39999389648</ele>
        <time>2023-04-04T07:50:09.000Z</time>
      </trkpt>
      <trkpt lat="46.3869" lon="6.87405">
        <ele>376.39999389648</ele>
        <time>2023-04-04T07:50:14.000Z</time>
      </trkpt>
      <trkpt lat="46.38688" lon="6.87402">
        <ele>376.39999389648</ele>
        <time>2023-04-04T07:50:15.000Z</time>
      </trkpt>
      <trkpt lat="46.38686" lon="6.87399">
        <ele>376.60000610352</ele>
        <time>2023-04-04T07:50:16.000Z</time>
      </trkpt>
      <trkpt lat="46.38684" lon="6.87395">
        <ele>376.60000610352</ele>
        <time>2023-04-04T07:50:17.000Z</time>
      </trkpt>
      <trkpt lat="46.38682" lon="6.87392">
        <ele>376.60000610352</ele>
        <time>2023-04-04T07:50:18.000Z</time>
      </trkpt>
      <trkpt lat="46.3868" lon="6.87389">
        <ele>376.60000610352</ele>
        <time>2023-04-04T07:50:19.000Z</time>
      </trkpt>
      <trkpt lat="46.38679" lon="6.87386">
        <ele>376.60000610352</ele>
        <time>2023-04-04T07:50:20.000Z</time>
      </trkpt>
      <trkpt lat="46.38678" lon="6.87383">
        <ele>376.60000610352</ele>
        <time>2023-04-04T07:50:21.000Z</time>
      </trkpt>
      <trkpt lat="46.38676" lon="6.8738">
        <ele>376.60000610352</ele>
        <time>2023-04-04T07:50:22.000Z</time>
      </trkpt>
      <trkpt lat="46.38674" lon="6.87377">
        <ele>376.60000610352</ele>
        <time>2023-04-04T07:50:23.000Z</time>
      </trkpt>
      <trkpt lat="46.3867" lon="6.8737">
        <ele>376.39999389648</ele>
        <time>2023-04-04T07:50:25.000Z</time>
      </trkpt>
      <trkpt lat="46.38668" lon="6.87367">
        <ele>376.39999389648</ele>
        <time>2023-04-04T07:50:26.000Z</time>
      </trkpt>
      <trkpt lat="46.38666" lon="6.87364">
        <ele>376.60000610352</ele>
        <time>2023-04-04T07:50:27.000Z</time>
      </trkpt>
      <trkpt lat="46.38664" lon="6.87361">
        <ele>376.39999389648</ele>
        <time>2023-04-04T07:50:28.000Z</time>
      </trkpt>
      <trkpt lat="46.38663" lon="6.87359">
        <ele>376.60000610352</ele>
        <time>2023-04-04T07:50:29.000Z</time>
      </trkpt>
      <trkpt lat="46.38661" lon="6.87357">
        <ele>376.60000610352</ele>
        <time>2023-04-04T07:50:30.000Z</time>
      </trkpt>
      <trkpt lat="46.3866" lon="6.87355">
        <ele>376.60000610352</ele>
        <time>2023-04-04T07:50:31.000Z</time>
      </trkpt>
      <trkpt lat="46.38652" lon="6.87345">
        <ele>376.60000610352</ele>
        <time>2023-04-04T07:50:35.000Z</time>
      </trkpt>
      <trkpt lat="46.3865" lon="6.87343">
        <ele>376.60000610352</ele>
        <time>2023-04-04T07:50:36.000Z</time>
      </trkpt>
      <trkpt lat="46.38648" lon="6.8734">
        <ele>376.60000610352</ele>
        <time>2023-04-04T07:50:37.000Z</time>
      </trkpt>
      <trkpt lat="46.38647" lon="6.87337">
        <ele>376.60000610352</ele>
        <time>2023-04-04T07:50:38.000Z</time>
      </trkpt>
      <trkpt lat="46.38645" lon="6.87335">
        <ele>376.60000610352</ele>
        <time>2023-04-04T07:50:39.000Z</time>
      </trkpt>
      <trkpt lat="46.38642" lon="6.87328">
        <ele>376.79998779297</ele>
        <time>2023-04-04T07:50:41.000Z</time>
      </trkpt>
      <trkpt lat="46.3863" lon="6.87316">
        <ele>376.79998779297</ele>
        <time>2023-04-04T07:50:45.000Z</time>
      </trkpt>
      <trkpt lat="46.38626" lon="6.87312">
        <ele>376.79998779297</ele>
        <time>2023-04-04T07:50:46.000Z</time>
      </trkpt>
      <trkpt lat="46.38622" lon="6.87308">
        <ele>376.79998779297</ele>
        <time>2023-04-04T07:50:47.000Z</time>
      </trkpt>
      <trkpt lat="46.3861" lon="6.87294">
        <ele>377</ele>
        <time>2023-04-04T07:50:51.000Z</time>
      </trkpt>
      <trkpt lat="46.38607" lon="6.8729">
        <ele>377</ele>
        <time>2023-04-04T07:50:52.000Z</time>
      </trkpt>
      <trkpt lat="46.38606" lon="6.87287">
        <ele>377</ele>
        <time>2023-04-04T07:50:53.000Z</time>
      </trkpt>
      <trkpt lat="46.38606" lon="6.87284">
        <ele>376.79998779297</ele>
        <time>2023-04-04T07:50:54.000Z</time>
      </trkpt>
      <trkpt lat="46.38604" lon="6.87281">
        <ele>377</ele>
        <time>2023-04-04T07:50:55.000Z</time>
      </trkpt>
      <trkpt lat="46.38601" lon="6.87277">
        <ele>377</ele>
        <time>2023-04-04T07:50:56.000Z</time>
      </trkpt>
      <trkpt lat="46.38584" lon="6.87259">
        <ele>377</ele>
        <time>2023-04-04T07:51:01.000Z</time>
      </trkpt>
      <trkpt lat="46.38581" lon="6.87255">
        <ele>377</ele>
        <time>2023-04-04T07:51:02.000Z</time>
      </trkpt>
      <trkpt lat="46.38579" lon="6.87253">
        <ele>377.20001220703</ele>
        <time>2023-04-04T07:51:03.000Z</time>
      </trkpt>
      <trkpt lat="46.38572" lon="6.8724">
        <ele>377.39999389648</ele>
        <time>2023-04-04T07:51:07.000Z</time>
      </trkpt>
      <trkpt lat="46.38568" lon="6.87237">
        <ele>377.39999389648</ele>
        <time>2023-04-04T07:51:08.000Z</time>
      </trkpt>
      <trkpt lat="46.38567" lon="6.87233">
        <ele>377.60000610352</ele>
        <time>2023-04-04T07:51:09.000Z</time>
      </trkpt>
      <trkpt lat="46.38564" lon="6.87229">
        <ele>377.60000610352</ele>
        <time>2023-04-04T07:51:10.000Z</time>
      </trkpt>
      <trkpt lat="46.38547" lon="6.872">
        <ele>377.79998779297</ele>
        <time>2023-04-04T07:51:17.000Z</time>
      </trkpt>
      <trkpt lat="46.38539" lon="6.87189">
        <ele>378.20001220703</ele>
        <time>2023-04-04T07:51:22.000Z</time>
      </trkpt>
      <trkpt lat="46.38538" lon="6.87187">
        <ele>378</ele>
        <time>2023-04-04T07:51:23.000Z</time>
      </trkpt>
      <trkpt lat="46.38537" lon="6.87184">
        <ele>378</ele>
        <time>2023-04-04T07:51:24.000Z</time>
      </trkpt>
      <trkpt lat="46.38536" lon="6.87181">
        <ele>378.20001220703</ele>
        <time>2023-04-04T07:51:25.000Z</time>
      </trkpt>
      <trkpt lat="46.38531" lon="6.87177">
        <ele>378.39999389648</ele>
        <time>2023-04-04T07:51:28.000Z</time>
      </trkpt>
      <trkpt lat="46.38529" lon="6.87176">
        <ele>378.39999389648</ele>
        <time>2023-04-04T07:51:29.000Z</time>
      </trkpt>
      <trkpt lat="46.38526" lon="6.87176">
        <ele>378.39999389648</ele>
        <time>2023-04-04T07:51:30.000Z</time>
      </trkpt>
      <trkpt lat="46.38524" lon="6.87177">
        <ele>378.60000610352</ele>
        <time>2023-04-04T07:51:31.000Z</time>
      </trkpt>
      <trkpt lat="46.38521" lon="6.87178">
        <ele>378.60000610352</ele>
        <time>2023-04-04T07:51:32.000Z</time>
      </trkpt>
      <trkpt lat="46.38519" lon="6.8718">
        <ele>378.60000610352</ele>
        <time>2023-04-04T07:51:33.000Z</time>
      </trkpt>
      <trkpt lat="46.38517" lon="6.87182">
        <ele>378.79998779297</ele>
        <time>2023-04-04T07:51:34.000Z</time>
      </trkpt>
      <trkpt lat="46.38515" lon="6.87184">
        <ele>378.79998779297</ele>
        <time>2023-04-04T07:51:35.000Z</time>
      </trkpt>
      <trkpt lat="46.38514" lon="6.87185">
        <ele>378.79998779297</ele>
        <time>2023-04-04T07:51:36.000Z</time>
      </trkpt>
      <trkpt lat="46.38512" lon="6.87187">
        <ele>379</ele>
        <time>2023-04-04T07:51:37.000Z</time>
      </trkpt>
      <trkpt lat="46.38501" lon="6.872">
        <ele>379.39999389648</ele>
        <time>2023-04-04T07:51:42.000Z</time>
      </trkpt>
      <trkpt lat="46.38498" lon="6.87204">
        <ele>379.39999389648</ele>
        <time>2023-04-04T07:51:44.000Z</time>
      </trkpt>
      <trkpt lat="46.38496" lon="6.87206">
        <ele>379.60000610352</ele>
        <time>2023-04-04T07:51:45.000Z</time>
      </trkpt>
      <trkpt lat="46.38495" lon="6.87208">
        <ele>379.60000610352</ele>
        <time>2023-04-04T07:51:46.000Z</time>
      </trkpt>
      <trkpt lat="46.38493" lon="6.87209">
        <ele>379.60000610352</ele>
        <time>2023-04-04T07:51:47.000Z</time>
      </trkpt>
      <trkpt lat="46.38492" lon="6.8721">
        <ele>379.60000610352</ele>
        <time>2023-04-04T07:51:48.000Z</time>
      </trkpt>
      <trkpt lat="46.38491" lon="6.87212">
        <ele>379.60000610352</ele>
        <time>2023-04-04T07:51:49.000Z</time>
      </trkpt>
      <trkpt lat="46.38482" lon="6.8722">
        <ele>379.60000610352</ele>
        <time>2023-04-04T07:51:54.000Z</time>
      </trkpt>
      <trkpt lat="46.38482" lon="6.8722">
        <ele>379.60000610352</ele>
        <time>2023-04-04T07:51:55.000Z</time>
      </trkpt>
      <trkpt lat="46.38482" lon="6.8722">
        <ele>379.39999389648</ele>
        <time>2023-04-04T07:51:56.000Z</time>
      </trkpt>
      <trkpt lat="46.38482" lon="6.8722">
        <ele>379.60000610352</ele>
        <time>2023-04-04T07:51:57.000Z</time>
      </trkpt>
      <trkpt lat="46.38446" lon="6.87163">
        <ele>382.20001220703</ele>
        <time>2023-04-04T07:53:11.000Z</time>
      </trkpt>
      <trkpt lat="46.38443" lon="6.87157">
        <ele>382.20001220703</ele>
        <time>2023-04-04T07:53:14.000Z</time>
      </trkpt>
      <trkpt lat="46.38434" lon="6.87144">
        <ele>382</ele>
        <time>2023-04-04T07:53:21.000Z</time>
      </trkpt>
      <trkpt lat="46.38433" lon="6.87142">
        <ele>382</ele>
        <time>2023-04-04T07:53:22.000Z</time>
      </trkpt>
      <trkpt lat="46.38432" lon="6.87141">
        <ele>382</ele>
        <time>2023-04-04T07:53:23.000Z</time>
      </trkpt>
      <trkpt lat="46.38431" lon="6.8714">
        <ele>381.79998779297</ele>
        <time>2023-04-04T07:53:24.000Z</time>
      </trkpt>
      <trkpt lat="46.38426" lon="6.8713">
        <ele>381.79998779297</ele>
        <time>2023-04-04T07:53:29.000Z</time>
      </trkpt>
      <trkpt lat="46.38425" lon="6.87128">
        <ele>381.79998779297</ele>
        <time>2023-04-04T07:53:30.000Z</time>
      </trkpt>
      <trkpt lat="46.38424" lon="6.87127">
        <ele>381.79998779297</ele>
        <time>2023-04-04T07:53:31.000Z</time>
      </trkpt>
      <trkpt lat="46.38424" lon="6.87126">
        <ele>381.79998779297</ele>
        <time>2023-04-04T07:53:32.000Z</time>
      </trkpt>
      <trkpt lat="46.38423" lon="6.87125">
        <ele>381.79998779297</ele>
        <time>2023-04-04T07:53:33.000Z</time>
      </trkpt>
      <trkpt lat="46.38423" lon="6.87124">
        <ele>381.79998779297</ele>
        <time>2023-04-04T07:53:34.000Z</time>
      </trkpt>
      <trkpt lat="46.38423" lon="6.87123">
        <ele>382</ele>
        <time>2023-04-04T07:53:35.000Z</time>
      </trkpt>
      <trkpt lat="46.38424" lon="6.87122">
        <ele>382</ele>
        <time>2023-04-04T07:53:36.000Z</time>
      </trkpt>
      <trkpt lat="46.38424" lon="6.87121">
        <ele>381.79998779297</ele>
        <time>2023-04-04T07:53:37.000Z</time>
      </trkpt>
      <trkpt lat="46.38424" lon="6.8712">
        <ele>381.79998779297</ele>
        <time>2023-04-04T07:53:38.000Z</time>
      </trkpt>
      <trkpt lat="46.38426" lon="6.87119">
        <ele>382</ele>
        <time>2023-04-04T07:53:39.000Z</time>
      </trkpt>
      <trkpt lat="46.38427" lon="6.87118">
        <ele>381.79998779297</ele>
        <time>2023-04-04T07:53:40.000Z</time>
      </trkpt>
      <trkpt lat="46.38432" lon="6.87113">
        <ele>381.79998779297</ele>
        <time>2023-04-04T07:53:44.000Z</time>
      </trkpt>
      <trkpt lat="46.38435" lon="6.87109">
        <ele>381.60000610352</ele>
        <time>2023-04-04T07:53:48.000Z</time>
      </trkpt>
      <trkpt lat="46.38435" lon="6.87108">
        <ele>381.60000610352</ele>
        <time>2023-04-04T07:53:49.000Z</time>
      </trkpt>
      <trkpt lat="46.38435" lon="6.87106">
        <ele>381.39999389648</ele>
        <time>2023-04-04T07:53:50.000Z</time>
      </trkpt>
      <trkpt lat="46.38435" lon="6.87106">
        <ele>381.39999389648</ele>
        <time>2023-04-04T07:53:51.000Z</time>
      </trkpt>
      <trkpt lat="46.38435" lon="6.87106">
        <ele>381.20001220703</ele>
        <time>2023-04-04T07:53:53.000Z</time>
      </trkpt>
      <trkpt lat="46.38424" lon="6.87114">
        <ele>379.79998779297</ele>
        <time>2023-04-04T07:57:52.000Z</time>
      </trkpt>
      <trkpt lat="46.38422" lon="6.87115">
        <ele>379.79998779297</ele>
        <time>2023-04-04T07:57:53.000Z</time>
      </trkpt>
      <trkpt lat="46.3841" lon="6.87128">
        <ele>379.79998779297</ele>
        <time>2023-04-04T07:57:58.000Z</time>
      </trkpt>
      <trkpt lat="46.38405" lon="6.87133">
        <ele>382.60000610352</ele>
        <time>2023-04-04T07:58:00.000Z</time>
      </trkpt>
      <trkpt lat="46.38402" lon="6.87135">
        <ele>379.79998779297</ele>
        <time>2023-04-04T07:58:01.000Z</time>
      </trkpt>
      <trkpt lat="46.38389" lon="6.87145">
        <ele>380</ele>
        <time>2023-04-04T07:58:05.000Z</time>
      </trkpt>
      <trkpt lat="46.38356" lon="6.8717">
        <ele>381</ele>
        <time>2023-04-04T07:58:15.000Z</time>
      </trkpt>
      <trkpt lat="46.38321" lon="6.87197">
        <ele>381.20001220703</ele>
        <time>2023-04-04T07:58:25.000Z</time>
      </trkpt>
      <trkpt lat="46.38291" lon="6.87222">
        <ele>381</ele>
        <time>2023-04-04T07:58:34.000Z</time>
      </trkpt>
      <trkpt lat="46.38277" lon="6.87233">
        <ele>380.79998779297</ele>
        <time>2023-04-04T07:58:38.000Z</time>
      </trkpt>
      <trkpt lat="46.38274" lon="6.87236">
        <ele>380.79998779297</ele>
        <time>2023-04-04T07:58:39.000Z</time>
      </trkpt>
      <trkpt lat="46.38265" lon="6.87245">
        <ele>380.79998779297</ele>
        <time>2023-04-04T07:58:42.000Z</time>
      </trkpt>
      <trkpt lat="46.38251" lon="6.87256">
        <ele>380.79998779297</ele>
        <time>2023-04-04T07:58:46.000Z</time>
      </trkpt>
      <trkpt lat="46.38242" lon="6.87265">
        <ele>380.79998779297</ele>
        <time>2023-04-04T07:58:49.000Z</time>
      </trkpt>
      <trkpt lat="46.38238" lon="6.87268">
        <ele>381</ele>
        <time>2023-04-04T07:58:50.000Z</time>
      </trkpt>
      <trkpt lat="46.38219" lon="6.87287">
        <ele>381</ele>
        <time>2023-04-04T07:58:56.000Z</time>
      </trkpt>
      <trkpt lat="46.38215" lon="6.8729">
        <ele>381.20001220703</ele>
        <time>2023-04-04T07:58:57.000Z</time>
      </trkpt>
      <trkpt lat="46.38212" lon="6.87294">
        <ele>381.20001220703</ele>
        <time>2023-04-04T07:58:58.000Z</time>
      </trkpt>
      <trkpt lat="46.38186" lon="6.87322">
        <ele>381.39999389648</ele>
        <time>2023-04-04T07:59:06.000Z</time>
      </trkpt>
      <trkpt lat="46.38177" lon="6.87332">
        <ele>381.39999389648</ele>
        <time>2023-04-04T07:59:09.000Z</time>
      </trkpt>
      <trkpt lat="46.38162" lon="6.8735">
        <ele>381.39999389648</ele>
        <time>2023-04-04T07:59:13.000Z</time>
      </trkpt>
      <trkpt lat="46.38158" lon="6.87354">
        <ele>381.39999389648</ele>
        <time>2023-04-04T07:59:14.000Z</time>
      </trkpt>
      <trkpt lat="46.38154" lon="6.87358">
        <ele>381.39999389648</ele>
        <time>2023-04-04T07:59:15.000Z</time>
      </trkpt>
      <trkpt lat="46.38146" lon="6.87366">
        <ele>381.39999389648</ele>
        <time>2023-04-04T07:59:17.000Z</time>
      </trkpt>
      <trkpt lat="46.38129" lon="6.87391">
        <ele>381.20001220703</ele>
        <time>2023-04-04T07:59:22.000Z</time>
      </trkpt>
      <trkpt lat="46.38125" lon="6.87397">
        <ele>381.20001220703</ele>
        <time>2023-04-04T07:59:23.000Z</time>
      </trkpt>
      <trkpt lat="46.38122" lon="6.87402">
        <ele>381</ele>
        <time>2023-04-04T07:59:24.000Z</time>
      </trkpt>
      <trkpt lat="46.38106" lon="6.8743">
        <ele>381</ele>
        <time>2023-04-04T07:59:29.000Z</time>
      </trkpt>
      <trkpt lat="46.38104" lon="6.87435">
        <ele>381</ele>
        <time>2023-04-04T07:59:30.000Z</time>
      </trkpt>
      <trkpt lat="46.38094" lon="6.87453">
        <ele>381.20001220703</ele>
        <time>2023-04-04T07:59:33.000Z</time>
      </trkpt>
      <trkpt lat="46.38091" lon="6.8746">
        <ele>381.20001220703</ele>
        <time>2023-04-04T07:59:34.000Z</time>
      </trkpt>
      <trkpt lat="46.38083" lon="6.87478">
        <ele>381.39999389648</ele>
        <time>2023-04-04T07:59:37.000Z</time>
      </trkpt>
      <trkpt lat="46.38068" lon="6.87512">
        <ele>381.60000610352</ele>
        <time>2023-04-04T07:59:43.000Z</time>
      </trkpt>
      <trkpt lat="46.38064" lon="6.87522">
        <ele>381.60000610352</ele>
        <time>2023-04-04T07:59:45.000Z</time>
      </trkpt>
      <trkpt lat="46.38062" lon="6.87528">
        <ele>381.60000610352</ele>
        <time>2023-04-04T07:59:46.000Z</time>
      </trkpt>
      <trkpt lat="46.38061" lon="6.87533">
        <ele>381.60000610352</ele>
        <time>2023-04-04T07:59:47.000Z</time>
      </trkpt>
      <trkpt lat="46.38046" lon="6.87575">
        <ele>381.39999389648</ele>
        <time>2023-04-04T07:59:54.000Z</time>
      </trkpt>
      <trkpt lat="46.38043" lon="6.87586">
        <ele>381.39999389648</ele>
        <time>2023-04-04T07:59:56.000Z</time>
      </trkpt>
      <trkpt lat="46.38034" lon="6.8761">
        <ele>381.39999389648</ele>
        <time>2023-04-04T08:00:00.000Z</time>
      </trkpt>
      <trkpt lat="46.38031" lon="6.87616">
        <ele>381.39999389648</ele>
        <time>2023-04-04T08:00:01.000Z</time>
      </trkpt>
      <trkpt lat="46.3803" lon="6.87621">
        <ele>381.39999389648</ele>
        <time>2023-04-04T08:00:02.000Z</time>
      </trkpt>
      <trkpt lat="46.38026" lon="6.87633">
        <ele>381.39999389648</ele>
        <time>2023-04-04T08:00:04.000Z</time>
      </trkpt>
      <trkpt lat="46.38018" lon="6.87656">
        <ele>381.39999389648</ele>
        <time>2023-04-04T08:00:08.000Z</time>
      </trkpt>
      <trkpt lat="46.38005" lon="6.87695">
        <ele>381.39999389648</ele>
        <time>2023-04-04T08:00:15.000Z</time>
      </trkpt>
      <trkpt lat="46.38003" lon="6.87701">
        <ele>381.39999389648</ele>
        <time>2023-04-04T08:00:16.000Z</time>
      </trkpt>
      <trkpt lat="46.38001" lon="6.87706">
        <ele>381.39999389648</ele>
        <time>2023-04-04T08:00:17.000Z</time>
      </trkpt>
      <trkpt lat="46.38" lon="6.87711">
        <ele>381.39999389648</ele>
        <time>2023-04-04T08:00:18.000Z</time>
      </trkpt>
      <trkpt lat="46.37999" lon="6.87716">
        <ele>381.39999389648</ele>
        <time>2023-04-04T08:00:19.000Z</time>
      </trkpt>
      <trkpt lat="46.37997" lon="6.87722">
        <ele>381.39999389648</ele>
        <time>2023-04-04T08:00:20.000Z</time>
      </trkpt>
      <trkpt lat="46.37996" lon="6.87727">
        <ele>381.39999389648</ele>
        <time>2023-04-04T08:00:21.000Z</time>
      </trkpt>
      <trkpt lat="46.37995" lon="6.87733">
        <ele>381.39999389648</ele>
        <time>2023-04-04T08:00:22.000Z</time>
      </trkpt>
      <trkpt lat="46.37994" lon="6.87738">
        <ele>381.39999389648</ele>
        <time>2023-04-04T08:00:23.000Z</time>
      </trkpt>
      <trkpt lat="46.37993" lon="6.87742">
        <ele>381.39999389648</ele>
        <time>2023-04-04T08:00:24.000Z</time>
      </trkpt>
      <trkpt lat="46.37991" lon="6.87748">
        <ele>381.39999389648</ele>
        <time>2023-04-04T08:00:25.000Z</time>
      </trkpt>
      <trkpt lat="46.37989" lon="6.87753">
        <ele>381.39999389648</ele>
        <time>2023-04-04T08:00:26.000Z</time>
      </trkpt>
      <trkpt lat="46.37988" lon="6.87757">
        <ele>381.39999389648</ele>
        <time>2023-04-04T08:00:27.000Z</time>
      </trkpt>
      <trkpt lat="46.37986" lon="6.87763">
        <ele>381.39999389648</ele>
        <time>2023-04-04T08:00:28.000Z</time>
      </trkpt>
      <trkpt lat="46.3798" lon="6.87775">
        <ele>381.39999389648</ele>
        <time>2023-04-04T08:00:30.000Z</time>
      </trkpt>
      <trkpt lat="46.37961" lon="6.87821">
        <ele>381.60000610352</ele>
        <time>2023-04-04T08:00:38.000Z</time>
      </trkpt>
      <trkpt lat="46.3794" lon="6.87866">
        <ele>381.60000610352</ele>
        <time>2023-04-04T08:00:46.000Z</time>
      </trkpt>
      <trkpt lat="46.37937" lon="6.87871">
        <ele>381.60000610352</ele>
        <time>2023-04-04T08:00:47.000Z</time>
      </trkpt>
      <trkpt lat="46.37927" lon="6.87894">
        <ele>381.60000610352</ele>
        <time>2023-04-04T08:00:51.000Z</time>
      </trkpt>
      <trkpt lat="46.37922" lon="6.87909">
        <ele>381.60000610352</ele>
        <time>2023-04-04T08:00:54.000Z</time>
      </trkpt>
      <trkpt lat="46.3792" lon="6.87915">
        <ele>381.60000610352</ele>
        <time>2023-04-04T08:00:55.000Z</time>
      </trkpt>
      <trkpt lat="46.37917" lon="6.87921">
        <ele>381.60000610352</ele>
        <time>2023-04-04T08:00:56.000Z</time>
      </trkpt>
      <trkpt lat="46.3791" lon="6.87941">
        <ele>381.60000610352</ele>
        <time>2023-04-04T08:01:00.000Z</time>
      </trkpt>
      <trkpt lat="46.37908" lon="6.87946">
        <ele>381.60000610352</ele>
        <time>2023-04-04T08:01:01.000Z</time>
      </trkpt>
      <trkpt lat="46.37905" lon="6.87951">
        <ele>381.60000610352</ele>
        <time>2023-04-04T08:01:02.000Z</time>
      </trkpt>
      <trkpt lat="46.37903" lon="6.87956">
        <ele>381.60000610352</ele>
        <time>2023-04-04T08:01:03.000Z</time>
      </trkpt>
      <trkpt lat="46.37901" lon="6.87961">
        <ele>381.60000610352</ele>
        <time>2023-04-04T08:01:04.000Z</time>
      </trkpt>
      <trkpt lat="46.37896" lon="6.8797">
        <ele>381.39999389648</ele>
        <time>2023-04-04T08:01:06.000Z</time>
      </trkpt>
      <trkpt lat="46.37895" lon="6.87973">
        <ele>381.39999389648</ele>
        <time>2023-04-04T08:01:07.000Z</time>
      </trkpt>
      <trkpt lat="46.37893" lon="6.87976">
        <ele>381.39999389648</ele>
        <time>2023-04-04T08:01:08.000Z</time>
      </trkpt>
      <trkpt lat="46.37892" lon="6.87979">
        <ele>381.20001220703</ele>
        <time>2023-04-04T08:01:09.000Z</time>
      </trkpt>
      <trkpt lat="46.3789" lon="6.87982">
        <ele>381.20001220703</ele>
        <time>2023-04-04T08:01:10.000Z</time>
      </trkpt>
      <trkpt lat="46.37889" lon="6.87983">
        <ele>381.20001220703</ele>
        <time>2023-04-04T08:01:11.000Z</time>
      </trkpt>
      <trkpt lat="46.37889" lon="6.87985">
        <ele>381.20001220703</ele>
        <time>2023-04-04T08:01:12.000Z</time>
      </trkpt>
      <trkpt lat="46.37887" lon="6.87986">
        <ele>381.20001220703</ele>
        <time>2023-04-04T08:01:13.000Z</time>
      </trkpt>
      <trkpt lat="46.37886" lon="6.87987">
        <ele>381.20001220703</ele>
        <time>2023-04-04T08:01:14.000Z</time>
      </trkpt>
      <trkpt lat="46.37876" lon="6.88003">
        <ele>381</ele>
        <time>2023-04-04T08:01:20.000Z</time>
      </trkpt>
      <trkpt lat="46.37868" lon="6.88018">
        <ele>381</ele>
        <time>2023-04-04T08:01:24.000Z</time>
      </trkpt>
      <trkpt lat="46.3786" lon="6.88031">
        <ele>381</ele>
        <time>2023-04-04T08:01:27.000Z</time>
      </trkpt>
      <trkpt lat="46.37854" lon="6.8804">
        <ele>381</ele>
        <time>2023-04-04T08:01:29.000Z</time>
      </trkpt>
      <trkpt lat="46.37839" lon="6.88062">
        <ele>381</ele>
        <time>2023-04-04T08:01:34.000Z</time>
      </trkpt>
      <trkpt lat="46.37824" lon="6.88085">
        <ele>381.20001220703</ele>
        <time>2023-04-04T08:01:39.000Z</time>
      </trkpt>
      <trkpt lat="46.37811" lon="6.88101">
        <ele>381.20001220703</ele>
        <time>2023-04-04T08:01:43.000Z</time>
      </trkpt>
      <trkpt lat="46.37783" lon="6.88141">
        <ele>381.20001220703</ele>
        <time>2023-04-04T08:01:52.000Z</time>
      </trkpt>
      <trkpt lat="46.37753" lon="6.88181">
        <ele>381.60000610352</ele>
        <time>2023-04-04T08:02:01.000Z</time>
      </trkpt>
      <trkpt lat="46.37747" lon="6.88189">
        <ele>381.79998779297</ele>
        <time>2023-04-04T08:02:03.000Z</time>
      </trkpt>
      <trkpt lat="46.37744" lon="6.88193">
        <ele>381.60000610352</ele>
        <time>2023-04-04T08:02:04.000Z</time>
      </trkpt>
      <trkpt lat="46.37738" lon="6.88201">
        <ele>381.79998779297</ele>
        <time>2023-04-04T08:02:06.000Z</time>
      </trkpt>
      <trkpt lat="46.37728" lon="6.88216">
        <ele>381.60000610352</ele>
        <time>2023-04-04T08:02:09.000Z</time>
      </trkpt>
      <trkpt lat="46.37698" lon="6.88257">
        <ele>381.60000610352</ele>
        <time>2023-04-04T08:02:18.000Z</time>
      </trkpt>
      <trkpt lat="46.37695" lon="6.88261">
        <ele>381.60000610352</ele>
        <time>2023-04-04T08:02:19.000Z</time>
      </trkpt>
      <trkpt lat="46.37688" lon="6.88268">
        <ele>381.60000610352</ele>
        <time>2023-04-04T08:02:21.000Z</time>
      </trkpt>
      <trkpt lat="46.37685" lon="6.88272">
        <ele>381.60000610352</ele>
        <time>2023-04-04T08:02:22.000Z</time>
      </trkpt>
      <trkpt lat="46.37682" lon="6.88277">
        <ele>381.60000610352</ele>
        <time>2023-04-04T08:02:23.000Z</time>
      </trkpt>
      <trkpt lat="46.37678" lon="6.88282">
        <ele>381.60000610352</ele>
        <time>2023-04-04T08:02:24.000Z</time>
      </trkpt>
      <trkpt lat="46.37646" lon="6.88325">
        <ele>381.60000610352</ele>
        <time>2023-04-04T08:02:33.000Z</time>
      </trkpt>
      <trkpt lat="46.37618" lon="6.88359">
        <ele>381.79998779297</ele>
        <time>2023-04-04T08:02:41.000Z</time>
      </trkpt>
      <trkpt lat="46.37615" lon="6.88362">
        <ele>381.79998779297</ele>
        <time>2023-04-04T08:02:42.000Z</time>
      </trkpt>
      <trkpt lat="46.37612" lon="6.88366">
        <ele>381.79998779297</ele>
        <time>2023-04-04T08:02:43.000Z</time>
      </trkpt>
      <trkpt lat="46.37608" lon="6.8837">
        <ele>381.79998779297</ele>
        <time>2023-04-04T08:02:44.000Z</time>
      </trkpt>
      <trkpt lat="46.37605" lon="6.88374">
        <ele>381.79998779297</ele>
        <time>2023-04-04T08:02:45.000Z</time>
      </trkpt>
      <trkpt lat="46.37586" lon="6.88393">
        <ele>381.60000610352</ele>
        <time>2023-04-04T08:02:50.000Z</time>
      </trkpt>
      <trkpt lat="46.37552" lon="6.88423">
        <ele>381.79998779297</ele>
        <time>2023-04-04T08:02:59.000Z</time>
      </trkpt>
      <trkpt lat="46.37548" lon="6.88426">
        <ele>381.79998779297</ele>
        <time>2023-04-04T08:03:00.000Z</time>
      </trkpt>
      <trkpt lat="46.37545" lon="6.88429">
        <ele>381.79998779297</ele>
        <time>2023-04-04T08:03:01.000Z</time>
      </trkpt>
      <trkpt lat="46.37542" lon="6.88432">
        <ele>381.79998779297</ele>
        <time>2023-04-04T08:03:02.000Z</time>
      </trkpt>
      <trkpt lat="46.37539" lon="6.88434">
        <ele>382</ele>
        <time>2023-04-04T08:03:03.000Z</time>
      </trkpt>
      <trkpt lat="46.37536" lon="6.88436">
        <ele>382</ele>
        <time>2023-04-04T08:03:04.000Z</time>
      </trkpt>
      <trkpt lat="46.37528" lon="6.88442">
        <ele>382.20001220703</ele>
        <time>2023-04-04T08:03:06.000Z</time>
      </trkpt>
      <trkpt lat="46.37522" lon="6.88448">
        <ele>382.39999389648</ele>
        <time>2023-04-04T08:03:08.000Z</time>
      </trkpt>
      <trkpt lat="46.37488" lon="6.88468">
        <ele>382.60000610352</ele>
        <time>2023-04-04T08:03:16.000Z</time>
      </trkpt>
      <trkpt lat="46.37439" lon="6.88494">
        <ele>382.60000610352</ele>
        <time>2023-04-04T08:03:27.000Z</time>
      </trkpt>
      <trkpt lat="46.3742" lon="6.88503">
        <ele>382.79998779297</ele>
        <time>2023-04-04T08:03:31.000Z</time>
      </trkpt>
      <trkpt lat="46.37416" lon="6.88504">
        <ele>382.79998779297</ele>
        <time>2023-04-04T08:03:32.000Z</time>
      </trkpt>
      <trkpt lat="46.37384" lon="6.88517">
        <ele>382.79998779297</ele>
        <time>2023-04-04T08:03:39.000Z</time>
      </trkpt>
      <trkpt lat="46.37341" lon="6.88532">
        <ele>382.60000610352</ele>
        <time>2023-04-04T08:03:48.000Z</time>
      </trkpt>
      <trkpt lat="46.37336" lon="6.88533">
        <ele>382.60000610352</ele>
        <time>2023-04-04T08:03:49.000Z</time>
      </trkpt>
      <trkpt lat="46.37302" lon="6.88543">
        <ele>382.60000610352</ele>
        <time>2023-04-04T08:03:56.000Z</time>
      </trkpt>
      <trkpt lat="46.37297" lon="6.88545">
        <ele>382.60000610352</ele>
        <time>2023-04-04T08:03:57.000Z</time>
      </trkpt>
      <trkpt lat="46.37293" lon="6.88546">
        <ele>382.60000610352</ele>
        <time>2023-04-04T08:03:58.000Z</time>
      </trkpt>
      <trkpt lat="46.37288" lon="6.88547">
        <ele>382.60000610352</ele>
        <time>2023-04-04T08:03:59.000Z</time>
      </trkpt>
      <trkpt lat="46.37284" lon="6.88548">
        <ele>382.60000610352</ele>
        <time>2023-04-04T08:04:00.000Z</time>
      </trkpt>
      <trkpt lat="46.37279" lon="6.88549">
        <ele>382.60000610352</ele>
        <time>2023-04-04T08:04:01.000Z</time>
      </trkpt>
      <trkpt lat="46.37275" lon="6.8855">
        <ele>382.60000610352</ele>
        <time>2023-04-04T08:04:02.000Z</time>
      </trkpt>
      <trkpt lat="46.37271" lon="6.88552">
        <ele>382.79998779297</ele>
        <time>2023-04-04T08:04:03.000Z</time>
      </trkpt>
      <trkpt lat="46.37266" lon="6.88553">
        <ele>382.79998779297</ele>
        <time>2023-04-04T08:04:04.000Z</time>
      </trkpt>
      <trkpt lat="46.37262" lon="6.88554">
        <ele>382.79998779297</ele>
        <time>2023-04-04T08:04:05.000Z</time>
      </trkpt>
      <trkpt lat="46.37257" lon="6.88555">
        <ele>382.79998779297</ele>
        <time>2023-04-04T08:04:06.000Z</time>
      </trkpt>
      <trkpt lat="46.37226" lon="6.88562">
        <ele>382.60000610352</ele>
        <time>2023-04-04T08:04:13.000Z</time>
      </trkpt>
      <trkpt lat="46.37185" lon="6.88568">
        <ele>382.60000610352</ele>
        <time>2023-04-04T08:04:22.000Z</time>
      </trkpt>
      <trkpt lat="46.3713" lon="6.88574">
        <ele>382.60000610352</ele>
        <time>2023-04-04T08:04:34.000Z</time>
      </trkpt>
      <trkpt lat="46.37107" lon="6.88576">
        <ele>382.60000610352</ele>
        <time>2023-04-04T08:04:39.000Z</time>
      </trkpt>
      <trkpt lat="46.37102" lon="6.88576">
        <ele>382.60000610352</ele>
        <time>2023-04-04T08:04:40.000Z</time>
      </trkpt>
      <trkpt lat="46.37084" lon="6.88578">
        <ele>382.60000610352</ele>
        <time>2023-04-04T08:04:44.000Z</time>
      </trkpt>
      <trkpt lat="46.37069" lon="6.88579">
        <ele>382.79998779297</ele>
        <time>2023-04-04T08:04:47.000Z</time>
      </trkpt>
      <trkpt lat="46.37037" lon="6.88582">
        <ele>382.79998779297</ele>
        <time>2023-04-04T08:04:54.000Z</time>
      </trkpt>
      <trkpt lat="46.36995" lon="6.88586">
        <ele>382.79998779297</ele>
        <time>2023-04-04T08:05:03.000Z</time>
      </trkpt>
      <trkpt lat="46.36986" lon="6.88586">
        <ele>382.79998779297</ele>
        <time>2023-04-04T08:05:05.000Z</time>
      </trkpt>
      <trkpt lat="46.36934" lon="6.88589">
        <ele>382.79998779297</ele>
        <time>2023-04-04T08:05:16.000Z</time>
      </trkpt>
      <trkpt lat="46.36911" lon="6.88591">
        <ele>382.79998779297</ele>
        <time>2023-04-04T08:05:21.000Z</time>
      </trkpt>
      <trkpt lat="46.36907" lon="6.88591">
        <ele>383</ele>
        <time>2023-04-04T08:05:22.000Z</time>
      </trkpt>
      <trkpt lat="46.36903" lon="6.88592">
        <ele>383</ele>
        <time>2023-04-04T08:05:23.000Z</time>
      </trkpt>
      <trkpt lat="46.36898" lon="6.88592">
        <ele>383</ele>
        <time>2023-04-04T08:05:24.000Z</time>
      </trkpt>
      <trkpt lat="46.36889" lon="6.88593">
        <ele>383.20001220703</ele>
        <time>2023-04-04T08:05:26.000Z</time>
      </trkpt>
      <trkpt lat="46.36857" lon="6.88596">
        <ele>383.39999389648</ele>
        <time>2023-04-04T08:05:33.000Z</time>
      </trkpt>
      <trkpt lat="46.3683" lon="6.88598">
        <ele>383.39999389648</ele>
        <time>2023-04-04T08:05:39.000Z</time>
      </trkpt>
      <trkpt lat="46.36812" lon="6.886">
        <ele>383.39999389648</ele>
        <time>2023-04-04T08:05:43.000Z</time>
      </trkpt>
      <trkpt lat="46.36755" lon="6.8861">
        <ele>383.39999389648</ele>
        <time>2023-04-04T08:05:55.000Z</time>
      </trkpt>
      <trkpt lat="46.36736" lon="6.88615">
        <ele>383.39999389648</ele>
        <time>2023-04-04T08:05:59.000Z</time>
      </trkpt>
      <trkpt lat="46.36732" lon="6.88616">
        <ele>383.39999389648</ele>
        <time>2023-04-04T08:06:00.000Z</time>
      </trkpt>
      <trkpt lat="46.36727" lon="6.88617">
        <ele>383.39999389648</ele>
        <time>2023-04-04T08:06:01.000Z</time>
      </trkpt>
      <trkpt lat="46.36722" lon="6.88618">
        <ele>383.39999389648</ele>
        <time>2023-04-04T08:06:02.000Z</time>
      </trkpt>
      <trkpt lat="46.36718" lon="6.88619">
        <ele>383.39999389648</ele>
        <time>2023-04-04T08:06:03.000Z</time>
      </trkpt>
      <trkpt lat="46.36698" lon="6.88621">
        <ele>383.20001220703</ele>
        <time>2023-04-04T08:06:07.000Z</time>
      </trkpt>
      <trkpt lat="46.36674" lon="6.88624">
        <ele>383.39999389648</ele>
        <time>2023-04-04T08:06:12.000Z</time>
      </trkpt>
      <trkpt lat="46.36651" lon="6.88625">
        <ele>383.60000610352</ele>
        <time>2023-04-04T08:06:17.000Z</time>
      </trkpt>
      <trkpt lat="46.36627" lon="6.88627">
        <ele>383.79998779297</ele>
        <time>2023-04-04T08:06:22.000Z</time>
      </trkpt>
      <trkpt lat="46.36577" lon="6.88626">
        <ele>383.60000610352</ele>
        <time>2023-04-04T08:06:32.000Z</time>
      </trkpt>
      <trkpt lat="46.36563" lon="6.88624">
        <ele>383.60000610352</ele>
        <time>2023-04-04T08:06:35.000Z</time>
      </trkpt>
      <trkpt lat="46.36559" lon="6.88624">
        <ele>383.39999389648</ele>
        <time>2023-04-04T08:06:36.000Z</time>
      </trkpt>
      <trkpt lat="46.36554" lon="6.88623">
        <ele>383.39999389648</ele>
        <time>2023-04-04T08:06:37.000Z</time>
      </trkpt>
      <trkpt lat="46.36549" lon="6.88622">
        <ele>383.39999389648</ele>
        <time>2023-04-04T08:06:38.000Z</time>
      </trkpt>
      <trkpt lat="46.3653" lon="6.88619">
        <ele>383.20001220703</ele>
        <time>2023-04-04T08:06:42.000Z</time>
      </trkpt>
      <trkpt lat="46.36525" lon="6.88618">
        <ele>383.20001220703</ele>
        <time>2023-04-04T08:06:43.000Z</time>
      </trkpt>
      <trkpt lat="46.36484" lon="6.88608">
        <ele>383.20001220703</ele>
        <time>2023-04-04T08:06:52.000Z</time>
      </trkpt>
      <trkpt lat="46.3648" lon="6.88606">
        <ele>383.20001220703</ele>
        <time>2023-04-04T08:06:53.000Z</time>
      </trkpt>
      <trkpt lat="46.36476" lon="6.88605">
        <ele>383.20001220703</ele>
        <time>2023-04-04T08:06:54.000Z</time>
      </trkpt>
      <trkpt lat="46.36472" lon="6.88604">
        <ele>383.39999389648</ele>
        <time>2023-04-04T08:06:55.000Z</time>
      </trkpt>
      <trkpt lat="46.36468" lon="6.88603">
        <ele>383.39999389648</ele>
        <time>2023-04-04T08:06:56.000Z</time>
      </trkpt>
      <trkpt lat="46.36464" lon="6.88601">
        <ele>383.39999389648</ele>
        <time>2023-04-04T08:06:57.000Z</time>
      </trkpt>
      <trkpt lat="46.36461" lon="6.886">
        <ele>383.39999389648</ele>
        <time>2023-04-04T08:06:58.000Z</time>
      </trkpt>
      <trkpt lat="46.36456" lon="6.88599">
        <ele>383.39999389648</ele>
        <time>2023-04-04T08:06:59.000Z</time>
      </trkpt>
      <trkpt lat="46.36452" lon="6.88597">
        <ele>383.39999389648</ele>
        <time>2023-04-04T08:07:00.000Z</time>
      </trkpt>
      <trkpt lat="46.36421" lon="6.88588">
        <ele>383.60000610352</ele>
        <time>2023-04-04T08:07:07.000Z</time>
      </trkpt>
      <trkpt lat="46.36381" lon="6.88574">
        <ele>383.60000610352</ele>
        <time>2023-04-04T08:07:16.000Z</time>
      </trkpt>
      <trkpt lat="46.36364" lon="6.88566">
        <ele>383.60000610352</ele>
        <time>2023-04-04T08:07:20.000Z</time>
      </trkpt>
      <trkpt lat="46.36359" lon="6.88564">
        <ele>383.79998779297</ele>
        <time>2023-04-04T08:07:21.000Z</time>
      </trkpt>
      <trkpt lat="46.3634" lon="6.88554">
        <ele>383.79998779297</ele>
        <time>2023-04-04T08:07:25.000Z</time>
      </trkpt>
      <trkpt lat="46.36319" lon="6.8854">
        <ele>384</ele>
        <time>2023-04-04T08:07:30.000Z</time>
      </trkpt>
      <trkpt lat="46.36308" lon="6.88531">
        <ele>384</ele>
        <time>2023-04-04T08:07:33.000Z</time>
      </trkpt>
      <trkpt lat="46.36304" lon="6.88528">
        <ele>384</ele>
        <time>2023-04-04T08:07:34.000Z</time>
      </trkpt>
      <trkpt lat="46.363" lon="6.88525">
        <ele>384</ele>
        <time>2023-04-04T08:07:35.000Z</time>
      </trkpt>
      <trkpt lat="46.36297" lon="6.88522">
        <ele>384</ele>
        <time>2023-04-04T08:07:36.000Z</time>
      </trkpt>
      <trkpt lat="46.36293" lon="6.88519">
        <ele>384</ele>
        <time>2023-04-04T08:07:37.000Z</time>
      </trkpt>
      <trkpt lat="46.3629" lon="6.88517">
        <ele>384</ele>
        <time>2023-04-04T08:07:38.000Z</time>
      </trkpt>
      <trkpt lat="46.36286" lon="6.88514">
        <ele>384</ele>
        <time>2023-04-04T08:07:39.000Z</time>
      </trkpt>
      <trkpt lat="46.36283" lon="6.88511">
        <ele>384</ele>
        <time>2023-04-04T08:07:40.000Z</time>
      </trkpt>
      <trkpt lat="46.3628" lon="6.88508">
        <ele>384</ele>
        <time>2023-04-04T08:07:41.000Z</time>
      </trkpt>
      <trkpt lat="46.36275" lon="6.88504">
        <ele>384</ele>
        <time>2023-04-04T08:07:42.000Z</time>
      </trkpt>
      <trkpt lat="46.36247" lon="6.88483">
        <ele>384</ele>
        <time>2023-04-04T08:07:49.000Z</time>
      </trkpt>
      <trkpt lat="46.36226" lon="6.88471">
        <ele>383.79998779297</ele>
        <time>2023-04-04T08:07:54.000Z</time>
      </trkpt>
      <trkpt lat="46.36209" lon="6.8846">
        <ele>383.79998779297</ele>
        <time>2023-04-04T08:07:58.000Z</time>
      </trkpt>
      <trkpt lat="46.36192" lon="6.8845">
        <ele>384</ele>
        <time>2023-04-04T08:08:02.000Z</time>
      </trkpt>
      <trkpt lat="46.36188" lon="6.88448">
        <ele>384</ele>
        <time>2023-04-04T08:08:03.000Z</time>
      </trkpt>
      <trkpt lat="46.36175" lon="6.88441">
        <ele>384</ele>
        <time>2023-04-04T08:08:06.000Z</time>
      </trkpt>
      <trkpt lat="46.36171" lon="6.88439">
        <ele>384</ele>
        <time>2023-04-04T08:08:07.000Z</time>
      </trkpt>
      <trkpt lat="46.36166" lon="6.88436">
        <ele>384</ele>
        <time>2023-04-04T08:08:08.000Z</time>
      </trkpt>
      <trkpt lat="46.36162" lon="6.88433">
        <ele>384</ele>
        <time>2023-04-04T08:08:09.000Z</time>
      </trkpt>
      <trkpt lat="46.36159" lon="6.88431">
        <ele>384</ele>
        <time>2023-04-04T08:08:10.000Z</time>
      </trkpt>
      <trkpt lat="46.36157" lon="6.8843">
        <ele>384</ele>
        <time>2023-04-04T08:08:11.000Z</time>
      </trkpt>
      <trkpt lat="46.36155" lon="6.88429">
        <ele>384.20001220703</ele>
        <time>2023-04-04T08:08:12.000Z</time>
      </trkpt>
      <trkpt lat="46.36152" lon="6.88427">
        <ele>384.20001220703</ele>
        <time>2023-04-04T08:08:13.000Z</time>
      </trkpt>
      <trkpt lat="46.3615" lon="6.88426">
        <ele>384.20001220703</ele>
        <time>2023-04-04T08:08:14.000Z</time>
      </trkpt>
      <trkpt lat="46.36148" lon="6.88425">
        <ele>384.20001220703</ele>
        <time>2023-04-04T08:08:15.000Z</time>
      </trkpt>
      <trkpt lat="46.36147" lon="6.88424">
        <ele>384.20001220703</ele>
        <time>2023-04-04T08:08:16.000Z</time>
      </trkpt>
      <trkpt lat="46.36144" lon="6.88422">
        <ele>384.20001220703</ele>
        <time>2023-04-04T08:08:17.000Z</time>
      </trkpt>
      <trkpt lat="46.36142" lon="6.88421">
        <ele>384.20001220703</ele>
        <time>2023-04-04T08:08:18.000Z</time>
      </trkpt>
      <trkpt lat="46.36118" lon="6.88408">
        <ele>384.20001220703</ele>
        <time>2023-04-04T08:08:25.000Z</time>
      </trkpt>
      <trkpt lat="46.36102" lon="6.88399">
        <ele>384.20001220703</ele>
        <time>2023-04-04T08:08:29.000Z</time>
      </trkpt>
      <trkpt lat="46.36093" lon="6.88393">
        <ele>384.20001220703</ele>
        <time>2023-04-04T08:08:31.000Z</time>
      </trkpt>
      <trkpt lat="46.36069" lon="6.88382">
        <ele>384</ele>
        <time>2023-04-04T08:08:36.000Z</time>
      </trkpt>
      <trkpt lat="46.36052" lon="6.88371">
        <ele>384</ele>
        <time>2023-04-04T08:08:40.000Z</time>
      </trkpt>
      <trkpt lat="46.36018" lon="6.88346">
        <ele>384.20001220703</ele>
        <time>2023-04-04T08:08:48.000Z</time>
      </trkpt>
      <trkpt lat="46.36009" lon="6.88341">
        <ele>384.20001220703</ele>
        <time>2023-04-04T08:08:50.000Z</time>
      </trkpt>
      <trkpt lat="46.36006" lon="6.88339">
        <ele>384.20001220703</ele>
        <time>2023-04-04T08:08:51.000Z</time>
      </trkpt>
      <trkpt lat="46.36004" lon="6.88336">
        <ele>384.20001220703</ele>
        <time>2023-04-04T08:08:52.000Z</time>
      </trkpt>
      <trkpt lat="46.36001" lon="6.88333">
        <ele>384.39999389648</ele>
        <time>2023-04-04T08:08:53.000Z</time>
      </trkpt>
      <trkpt lat="46.35998" lon="6.8833">
        <ele>384.39999389648</ele>
        <time>2023-04-04T08:08:54.000Z</time>
      </trkpt>
      <trkpt lat="46.35985" lon="6.88322">
        <ele>384.39999389648</ele>
        <time>2023-04-04T08:08:58.000Z</time>
      </trkpt>
      <trkpt lat="46.35976" lon="6.88317">
        <ele>384.39999389648</ele>
        <time>2023-04-04T08:09:00.000Z</time>
      </trkpt>
      <trkpt lat="46.35962" lon="6.88308">
        <ele>384.39999389648</ele>
        <time>2023-04-04T08:09:03.000Z</time>
      </trkpt>
      <trkpt lat="46.35935" lon="6.88292">
        <ele>384.39999389648</ele>
        <time>2023-04-04T08:09:09.000Z</time>
      </trkpt>
      <trkpt lat="46.35908" lon="6.88275">
        <ele>384.60000610352</ele>
        <time>2023-04-04T08:09:15.000Z</time>
      </trkpt>
      <trkpt lat="46.35904" lon="6.88272">
        <ele>384.79998779297</ele>
        <time>2023-04-04T08:09:16.000Z</time>
      </trkpt>
      <trkpt lat="46.35899" lon="6.8827">
        <ele>384.79998779297</ele>
        <time>2023-04-04T08:09:17.000Z</time>
      </trkpt>
      <trkpt lat="46.35887" lon="6.88264">
        <ele>384.60000610352</ele>
        <time>2023-04-04T08:09:20.000Z</time>
      </trkpt>
      <trkpt lat="46.35856" lon="6.88246">
        <ele>384.39999389648</ele>
        <time>2023-04-04T08:09:27.000Z</time>
      </trkpt>
      <trkpt lat="46.35808" lon="6.88222">
        <ele>384.20001220703</ele>
        <time>2023-04-04T08:09:38.000Z</time>
      </trkpt>
      <trkpt lat="46.35782" lon="6.88208">
        <ele>384.20001220703</ele>
        <time>2023-04-04T08:09:44.000Z</time>
      </trkpt>
      <trkpt lat="46.35778" lon="6.88205">
        <ele>384.20001220703</ele>
        <time>2023-04-04T08:09:45.000Z</time>
      </trkpt>
      <trkpt lat="46.3577" lon="6.88199">
        <ele>384.39999389648</ele>
        <time>2023-04-04T08:09:47.000Z</time>
      </trkpt>
      <trkpt lat="46.35749" lon="6.88175">
        <ele>384.39999389648</ele>
        <time>2023-04-04T08:09:52.000Z</time>
      </trkpt>
      <trkpt lat="46.35738" lon="6.88166">
        <ele>384.20001220703</ele>
        <time>2023-04-04T08:09:54.000Z</time>
      </trkpt>
      <trkpt lat="46.35727" lon="6.88159">
        <ele>383.39999389648</ele>
        <time>2023-04-04T08:09:56.000Z</time>
      </trkpt>
      <trkpt lat="46.35723" lon="6.88156">
        <ele>383.20001220703</ele>
        <time>2023-04-04T08:09:57.000Z</time>
      </trkpt>
      <trkpt lat="46.35719" lon="6.88154">
        <ele>383</ele>
        <time>2023-04-04T08:09:58.000Z</time>
      </trkpt>
      <trkpt lat="46.35715" lon="6.88152">
        <ele>383</ele>
        <time>2023-04-04T08:09:59.000Z</time>
      </trkpt>
      <trkpt lat="46.35711" lon="6.88151">
        <ele>383</ele>
        <time>2023-04-04T08:10:00.000Z</time>
      </trkpt>
      <trkpt lat="46.35708" lon="6.88149">
        <ele>383</ele>
        <time>2023-04-04T08:10:01.000Z</time>
      </trkpt>
      <trkpt lat="46.35705" lon="6.88146">
        <ele>383.20001220703</ele>
        <time>2023-04-04T08:10:02.000Z</time>
      </trkpt>
      <trkpt lat="46.35698" lon="6.88141">
        <ele>383.39999389648</ele>
        <time>2023-04-04T08:10:04.000Z</time>
      </trkpt>
      <trkpt lat="46.35695" lon="6.88138">
        <ele>383.39999389648</ele>
        <time>2023-04-04T08:10:05.000Z</time>
      </trkpt>
      <trkpt lat="46.35691" lon="6.88135">
        <ele>383.79998779297</ele>
        <time>2023-04-04T08:10:06.000Z</time>
      </trkpt>
      <trkpt lat="46.35687" lon="6.88133">
        <ele>383.79998779297</ele>
        <time>2023-04-04T08:10:07.000Z</time>
      </trkpt>
      <trkpt lat="46.35671" lon="6.88124">
        <ele>384.20001220703</ele>
        <time>2023-04-04T08:10:11.000Z</time>
      </trkpt>
      <trkpt lat="46.35651" lon="6.88118">
        <ele>384.20001220703</ele>
        <time>2023-04-04T08:10:16.000Z</time>
      </trkpt>
      <trkpt lat="46.35642" lon="6.88116">
        <ele>384.39999389648</ele>
        <time>2023-04-04T08:10:18.000Z</time>
      </trkpt>
      <trkpt lat="46.35637" lon="6.88114">
        <ele>384.39999389648</ele>
        <time>2023-04-04T08:10:19.000Z</time>
      </trkpt>
      <trkpt lat="46.35604" lon="6.88104">
        <ele>384.39999389648</ele>
        <time>2023-04-04T08:10:26.000Z</time>
      </trkpt>
      <trkpt lat="46.35575" lon="6.88101">
        <ele>384.60000610352</ele>
        <time>2023-04-04T08:10:32.000Z</time>
      </trkpt>
      <trkpt lat="46.35524" lon="6.88097">
        <ele>384.60000610352</ele>
        <time>2023-04-04T08:10:42.000Z</time>
      </trkpt>
      <trkpt lat="46.35487" lon="6.88097">
        <ele>384.60000610352</ele>
        <time>2023-04-04T08:10:49.000Z</time>
      </trkpt>
      <trkpt lat="46.35458" lon="6.88095">
        <ele>384.79998779297</ele>
        <time>2023-04-04T08:10:55.000Z</time>
      </trkpt>
      <trkpt lat="46.35454" lon="6.88093">
        <ele>384.79998779297</ele>
        <time>2023-04-04T08:10:56.000Z</time>
      </trkpt>
      <trkpt lat="46.3545" lon="6.88091">
        <ele>384.60000610352</ele>
        <time>2023-04-04T08:10:57.000Z</time>
      </trkpt>
      <trkpt lat="46.35445" lon="6.88089">
        <ele>384.60000610352</ele>
        <time>2023-04-04T08:10:58.000Z</time>
      </trkpt>
      <trkpt lat="46.35441" lon="6.88087">
        <ele>384.60000610352</ele>
        <time>2023-04-04T08:10:59.000Z</time>
      </trkpt>
      <trkpt lat="46.35436" lon="6.88086">
        <ele>384.60000610352</ele>
        <time>2023-04-04T08:11:00.000Z</time>
      </trkpt>
      <trkpt lat="46.35432" lon="6.88085">
        <ele>384.60000610352</ele>
        <time>2023-04-04T08:11:01.000Z</time>
      </trkpt>
      <trkpt lat="46.35427" lon="6.88085">
        <ele>384.60000610352</ele>
        <time>2023-04-04T08:11:02.000Z</time>
      </trkpt>
      <trkpt lat="46.35423" lon="6.88086">
        <ele>384.60000610352</ele>
        <time>2023-04-04T08:11:03.000Z</time>
      </trkpt>
      <trkpt lat="46.35421" lon="6.88087">
        <ele>384.60000610352</ele>
        <time>2023-04-04T08:11:04.000Z</time>
      </trkpt>
      <trkpt lat="46.35417" lon="6.88089">
        <ele>384.79998779297</ele>
        <time>2023-04-04T08:11:05.000Z</time>
      </trkpt>
      <trkpt lat="46.35413" lon="6.8809">
        <ele>384.79998779297</ele>
        <time>2023-04-04T08:11:06.000Z</time>
      </trkpt>
      <trkpt lat="46.35397" lon="6.88097">
        <ele>385</ele>
        <time>2023-04-04T08:11:10.000Z</time>
      </trkpt>
      <trkpt lat="46.35393" lon="6.88099">
        <ele>385.20001220703</ele>
        <time>2023-04-04T08:11:11.000Z</time>
      </trkpt>
      <trkpt lat="46.35384" lon="6.88105">
        <ele>385.39999389648</ele>
        <time>2023-04-04T08:11:13.000Z</time>
      </trkpt>
      <trkpt lat="46.35375" lon="6.88111">
        <ele>385.39999389648</ele>
        <time>2023-04-04T08:11:15.000Z</time>
      </trkpt>
      <trkpt lat="46.35362" lon="6.88119">
        <ele>385.60000610352</ele>
        <time>2023-04-04T08:11:18.000Z</time>
      </trkpt>
      <trkpt lat="46.35358" lon="6.88122">
        <ele>385.60000610352</ele>
        <time>2023-04-04T08:11:19.000Z</time>
      </trkpt>
      <trkpt lat="46.35353" lon="6.88125">
        <ele>385.60000610352</ele>
        <time>2023-04-04T08:11:20.000Z</time>
      </trkpt>
      <trkpt lat="46.35348" lon="6.88128">
        <ele>385.60000610352</ele>
        <time>2023-04-04T08:11:21.000Z</time>
      </trkpt>
      <trkpt lat="46.35344" lon="6.88131">
        <ele>385.60000610352</ele>
        <time>2023-04-04T08:11:22.000Z</time>
      </trkpt>
      <trkpt lat="46.35339" lon="6.88134">
        <ele>385.60000610352</ele>
        <time>2023-04-04T08:11:23.000Z</time>
      </trkpt>
      <trkpt lat="46.35314" lon="6.88151">
        <ele>385.39999389648</ele>
        <time>2023-04-04T08:11:28.000Z</time>
      </trkpt>
      <trkpt lat="46.3531" lon="6.88154">
        <ele>385.39999389648</ele>
        <time>2023-04-04T08:11:29.000Z</time>
      </trkpt>
      <trkpt lat="46.35305" lon="6.88158">
        <ele>385.39999389648</ele>
        <time>2023-04-04T08:11:30.000Z</time>
      </trkpt>
      <trkpt lat="46.35279" lon="6.88177">
        <ele>385.39999389648</ele>
        <time>2023-04-04T08:11:35.000Z</time>
      </trkpt>
      <trkpt lat="46.35269" lon="6.88187">
        <ele>385.39999389648</ele>
        <time>2023-04-04T08:11:37.000Z</time>
      </trkpt>
      <trkpt lat="46.35261" lon="6.88194">
        <ele>385.39999389648</ele>
        <time>2023-04-04T08:11:39.000Z</time>
      </trkpt>
      <trkpt lat="46.35256" lon="6.88198">
        <ele>385.39999389648</ele>
        <time>2023-04-04T08:11:40.000Z</time>
      </trkpt>
      <trkpt lat="46.3525" lon="6.88203">
        <ele>385.39999389648</ele>
        <time>2023-04-04T08:11:41.000Z</time>
      </trkpt>
      <trkpt lat="46.35231" lon="6.88221">
        <ele>385.39999389648</ele>
        <time>2023-04-04T08:11:45.000Z</time>
      </trkpt>
      <trkpt lat="46.35224" lon="6.88229">
        <ele>385.39999389648</ele>
        <time>2023-04-04T08:11:47.000Z</time>
      </trkpt>
      <trkpt lat="46.35219" lon="6.88237">
        <ele>385.39999389648</ele>
        <time>2023-04-04T08:11:49.000Z</time>
      </trkpt>
      <trkpt lat="46.35212" lon="6.88245">
        <ele>385.39999389648</ele>
        <time>2023-04-04T08:11:51.000Z</time>
      </trkpt>
      <trkpt lat="46.35205" lon="6.88253">
        <ele>385.39999389648</ele>
        <time>2023-04-04T08:11:53.000Z</time>
      </trkpt>
      <trkpt lat="46.3518" lon="6.88284">
        <ele>385.20001220703</ele>
        <time>2023-04-04T08:12:00.000Z</time>
      </trkpt>
      <trkpt lat="46.35177" lon="6.88287">
        <ele>385.20001220703</ele>
        <time>2023-04-04T08:12:01.000Z</time>
      </trkpt>
      <trkpt lat="46.35173" lon="6.88293">
        <ele>385.20001220703</ele>
        <time>2023-04-04T08:12:02.000Z</time>
      </trkpt>
      <trkpt lat="46.3515" lon="6.88327">
        <ele>385</ele>
        <time>2023-04-04T08:12:09.000Z</time>
      </trkpt>
      <trkpt lat="46.35147" lon="6.88332">
        <ele>385</ele>
        <time>2023-04-04T08:12:10.000Z</time>
      </trkpt>
      <trkpt lat="46.35129" lon="6.88362">
        <ele>385</ele>
        <time>2023-04-04T08:12:16.000Z</time>
      </trkpt>
      <trkpt lat="46.35126" lon="6.88367">
        <ele>384.79998779297</ele>
        <time>2023-04-04T08:12:17.000Z</time>
      </trkpt>
      <trkpt lat="46.35123" lon="6.88373">
        <ele>384.79998779297</ele>
        <time>2023-04-04T08:12:18.000Z</time>
      </trkpt>
      <trkpt lat="46.3512" lon="6.88378">
        <ele>384.79998779297</ele>
        <time>2023-04-04T08:12:19.000Z</time>
      </trkpt>
      <trkpt lat="46.35117" lon="6.88383">
        <ele>384.79998779297</ele>
        <time>2023-04-04T08:12:20.000Z</time>
      </trkpt>
      <trkpt lat="46.35107" lon="6.88399">
        <ele>384.79998779297</ele>
        <time>2023-04-04T08:12:23.000Z</time>
      </trkpt>
      <trkpt lat="46.35098" lon="6.88416">
        <ele>384.79998779297</ele>
        <time>2023-04-04T08:12:26.000Z</time>
      </trkpt>
      <trkpt lat="46.35095" lon="6.8842">
        <ele>384.79998779297</ele>
        <time>2023-04-04T08:12:27.000Z</time>
      </trkpt>
      <trkpt lat="46.35092" lon="6.88426">
        <ele>384.79998779297</ele>
        <time>2023-04-04T08:12:28.000Z</time>
      </trkpt>
      <trkpt lat="46.35083" lon="6.88442">
        <ele>384.79998779297</ele>
        <time>2023-04-04T08:12:31.000Z</time>
      </trkpt>
      <trkpt lat="46.3508" lon="6.88448">
        <ele>384.79998779297</ele>
        <time>2023-04-04T08:12:32.000Z</time>
      </trkpt>
      <trkpt lat="46.3507" lon="6.88464">
        <ele>384.79998779297</ele>
        <time>2023-04-04T08:12:35.000Z</time>
      </trkpt>
      <trkpt lat="46.35047" lon="6.8851">
        <ele>384.60000610352</ele>
        <time>2023-04-04T08:12:43.000Z</time>
      </trkpt>
      <trkpt lat="46.35031" lon="6.88544">
        <ele>384.60000610352</ele>
        <time>2023-04-04T08:12:49.000Z</time>
      </trkpt>
      <trkpt lat="46.35028" lon="6.88549">
        <ele>384.60000610352</ele>
        <time>2023-04-04T08:12:50.000Z</time>
      </trkpt>
      <trkpt lat="46.35026" lon="6.88554">
        <ele>384.60000610352</ele>
        <time>2023-04-04T08:12:51.000Z</time>
      </trkpt>
      <trkpt lat="46.35023" lon="6.88558">
        <ele>384.79998779297</ele>
        <time>2023-04-04T08:12:52.000Z</time>
      </trkpt>
      <trkpt lat="46.3502" lon="6.88563">
        <ele>384.79998779297</ele>
        <time>2023-04-04T08:12:53.000Z</time>
      </trkpt>
      <trkpt lat="46.35018" lon="6.88568">
        <ele>384.79998779297</ele>
        <time>2023-04-04T08:12:54.000Z</time>
      </trkpt>
      <trkpt lat="46.35015" lon="6.88573">
        <ele>384.79998779297</ele>
        <time>2023-04-04T08:12:55.000Z</time>
      </trkpt>
      <trkpt lat="46.35011" lon="6.88577">
        <ele>384.79998779297</ele>
        <time>2023-04-04T08:12:56.000Z</time>
      </trkpt>
      <trkpt lat="46.35008" lon="6.88582">
        <ele>384.79998779297</ele>
        <time>2023-04-04T08:12:57.000Z</time>
      </trkpt>
      <trkpt lat="46.35006" lon="6.88587">
        <ele>384.79998779297</ele>
        <time>2023-04-04T08:12:58.000Z</time>
      </trkpt>
      <trkpt lat="46.35003" lon="6.88592">
        <ele>384.79998779297</ele>
        <time>2023-04-04T08:12:59.000Z</time>
      </trkpt>
      <trkpt lat="46.35" lon="6.88598">
        <ele>384.79998779297</ele>
        <time>2023-04-04T08:13:00.000Z</time>
      </trkpt>
      <trkpt lat="46.34997" lon="6.88604">
        <ele>384.79998779297</ele>
        <time>2023-04-04T08:13:01.000Z</time>
      </trkpt>
      <trkpt lat="46.34991" lon="6.88614">
        <ele>385</ele>
        <time>2023-04-04T08:13:03.000Z</time>
      </trkpt>
      <trkpt lat="46.34984" lon="6.88625">
        <ele>385</ele>
        <time>2023-04-04T08:13:05.000Z</time>
      </trkpt>
      <trkpt lat="46.34961" lon="6.8866">
        <ele>385.20001220703</ele>
        <time>2023-04-04T08:13:12.000Z</time>
      </trkpt>
      <trkpt lat="46.34934" lon="6.887">
        <ele>385.20001220703</ele>
        <time>2023-04-04T08:13:20.000Z</time>
      </trkpt>
      <trkpt lat="46.34931" lon="6.88705">
        <ele>385.20001220703</ele>
        <time>2023-04-04T08:13:21.000Z</time>
      </trkpt>
      <trkpt lat="46.34912" lon="6.88725">
        <ele>385.20001220703</ele>
        <time>2023-04-04T08:13:26.000Z</time>
      </trkpt>
      <trkpt lat="46.34909" lon="6.88728">
        <ele>385.39999389648</ele>
        <time>2023-04-04T08:13:27.000Z</time>
      </trkpt>
      <trkpt lat="46.34906" lon="6.88732">
        <ele>385.39999389648</ele>
        <time>2023-04-04T08:13:28.000Z</time>
      </trkpt>
      <trkpt lat="46.34903" lon="6.88735">
        <ele>385.39999389648</ele>
        <time>2023-04-04T08:13:29.000Z</time>
      </trkpt>
      <trkpt lat="46.349" lon="6.88738">
        <ele>385.39999389648</ele>
        <time>2023-04-04T08:13:30.000Z</time>
      </trkpt>
      <trkpt lat="46.34898" lon="6.88741">
        <ele>385.39999389648</ele>
        <time>2023-04-04T08:13:31.000Z</time>
      </trkpt>
      <trkpt lat="46.34896" lon="6.88744">
        <ele>385.39999389648</ele>
        <time>2023-04-04T08:13:32.000Z</time>
      </trkpt>
      <trkpt lat="46.34895" lon="6.88746">
        <ele>385.39999389648</ele>
        <time>2023-04-04T08:13:33.000Z</time>
      </trkpt>
      <trkpt lat="46.34893" lon="6.88748">
        <ele>385.39999389648</ele>
        <time>2023-04-04T08:13:34.000Z</time>
      </trkpt>
      <trkpt lat="46.34893" lon="6.8875">
        <ele>385.39999389648</ele>
        <time>2023-04-04T08:13:35.000Z</time>
      </trkpt>
      <trkpt lat="46.34892" lon="6.88752">
        <ele>385.39999389648</ele>
        <time>2023-04-04T08:13:36.000Z</time>
      </trkpt>
      <trkpt lat="46.34891" lon="6.88754">
        <ele>385.39999389648</ele>
        <time>2023-04-04T08:13:37.000Z</time>
      </trkpt>
      <trkpt lat="46.3489" lon="6.88755">
        <ele>385.39999389648</ele>
        <time>2023-04-04T08:13:38.000Z</time>
      </trkpt>
      <trkpt lat="46.34886" lon="6.88766">
        <ele>385.39999389648</ele>
        <time>2023-04-04T08:13:43.000Z</time>
      </trkpt>
      <trkpt lat="46.34885" lon="6.88768">
        <ele>385.39999389648</ele>
        <time>2023-04-04T08:13:44.000Z</time>
      </trkpt>
      <trkpt lat="46.3488" lon="6.88772">
        <ele>385.39999389648</ele>
        <time>2023-04-04T08:13:46.000Z</time>
      </trkpt>
      <trkpt lat="46.34877" lon="6.88774">
        <ele>385.39999389648</ele>
        <time>2023-04-04T08:13:47.000Z</time>
      </trkpt>
      <trkpt lat="46.34869" lon="6.88781">
        <ele>385.39999389648</ele>
        <time>2023-04-04T08:13:50.000Z</time>
      </trkpt>
      <trkpt lat="46.34866" lon="6.88784">
        <ele>385.39999389648</ele>
        <time>2023-04-04T08:13:51.000Z</time>
      </trkpt>
      <trkpt lat="46.34861" lon="6.88789">
        <ele>385.39999389648</ele>
        <time>2023-04-04T08:13:53.000Z</time>
      </trkpt>
      <trkpt lat="46.34848" lon="6.88804">
        <ele>385.39999389648</ele>
        <time>2023-04-04T08:13:58.000Z</time>
      </trkpt>
      <trkpt lat="46.34847" lon="6.88808">
        <ele>385.39999389648</ele>
        <time>2023-04-04T08:13:59.000Z</time>
      </trkpt>
      <trkpt lat="46.34846" lon="6.88811">
        <ele>385.39999389648</ele>
        <time>2023-04-04T08:14:00.000Z</time>
      </trkpt>
      <trkpt lat="46.34846" lon="6.88815">
        <ele>385.39999389648</ele>
        <time>2023-04-04T08:14:01.000Z</time>
      </trkpt>
      <trkpt lat="46.34848" lon="6.88818">
        <ele>385.39999389648</ele>
        <time>2023-04-04T08:14:02.000Z</time>
      </trkpt>
      <trkpt lat="46.34849" lon="6.88821">
        <ele>385.39999389648</ele>
        <time>2023-04-04T08:14:03.000Z</time>
      </trkpt>
      <trkpt lat="46.3485" lon="6.88823">
        <ele>385.39999389648</ele>
        <time>2023-04-04T08:14:04.000Z</time>
      </trkpt>
      <trkpt lat="46.34851" lon="6.88827">
        <ele>385.60000610352</ele>
        <time>2023-04-04T08:14:05.000Z</time>
      </trkpt>
      <trkpt lat="46.34852" lon="6.88831">
        <ele>385.79998779297</ele>
        <time>2023-04-04T08:14:06.000Z</time>
      </trkpt>
      <trkpt lat="46.34852" lon="6.88834">
        <ele>385.79998779297</ele>
        <time>2023-04-04T08:14:07.000Z</time>
      </trkpt>
      <trkpt lat="46.34851" lon="6.88836">
        <ele>386</ele>
        <time>2023-04-04T08:14:08.000Z</time>
      </trkpt>
      <trkpt lat="46.34849" lon="6.88836">
        <ele>386</ele>
        <time>2023-04-04T08:14:09.000Z</time>
      </trkpt>
      <trkpt lat="46.34836" lon="6.88844">
        <ele>386.20001220703</ele>
        <time>2023-04-04T08:14:13.000Z</time>
      </trkpt>
      <trkpt lat="46.3483" lon="6.88849">
        <ele>386.20001220703</ele>
        <time>2023-04-04T08:14:15.000Z</time>
      </trkpt>
      <trkpt lat="46.34814" lon="6.88864">
        <ele>386</ele>
        <time>2023-04-04T08:14:20.000Z</time>
      </trkpt>
      <trkpt lat="46.34789" lon="6.88887">
        <ele>385.60000610352</ele>
        <time>2023-04-04T08:14:27.000Z</time>
      </trkpt>
      <trkpt lat="46.34752" lon="6.88919">
        <ele>386</ele>
        <time>2023-04-04T08:14:37.000Z</time>
      </trkpt>
      <trkpt lat="46.34716" lon="6.88949">
        <ele>386</ele>
        <time>2023-04-04T08:14:46.000Z</time>
      </trkpt>
      <trkpt lat="46.34676" lon="6.88979">
        <ele>386</ele>
        <time>2023-04-04T08:14:56.000Z</time>
      </trkpt>
      <trkpt lat="46.34641" lon="6.89007">
        <ele>385.79998779297</ele>
        <time>2023-04-04T08:15:05.000Z</time>
      </trkpt>
      <trkpt lat="46.34609" lon="6.89031">
        <ele>385.79998779297</ele>
        <time>2023-04-04T08:15:13.000Z</time>
      </trkpt>
      <trkpt lat="46.34576" lon="6.89054">
        <ele>386</ele>
        <time>2023-04-04T08:15:21.000Z</time>
      </trkpt>
      <trkpt lat="46.34572" lon="6.89058">
        <ele>386</ele>
        <time>2023-04-04T08:15:22.000Z</time>
      </trkpt>
      <trkpt lat="46.34568" lon="6.8906">
        <ele>386.20001220703</ele>
        <time>2023-04-04T08:15:23.000Z</time>
      </trkpt>
      <trkpt lat="46.3456" lon="6.89066">
        <ele>386.20001220703</ele>
        <time>2023-04-04T08:15:25.000Z</time>
      </trkpt>
      <trkpt lat="46.34557" lon="6.89069">
        <ele>386.39999389648</ele>
        <time>2023-04-04T08:15:26.000Z</time>
      </trkpt>
      <trkpt lat="46.34553" lon="6.89072">
        <ele>386.39999389648</ele>
        <time>2023-04-04T08:15:27.000Z</time>
      </trkpt>
      <trkpt lat="46.34549" lon="6.89074">
        <ele>386.60000610352</ele>
        <time>2023-04-04T08:15:28.000Z</time>
      </trkpt>
      <trkpt lat="46.34546" lon="6.89077">
        <ele>386.60000610352</ele>
        <time>2023-04-04T08:15:29.000Z</time>
      </trkpt>
      <trkpt lat="46.34543" lon="6.89079">
        <ele>386.60000610352</ele>
        <time>2023-04-04T08:15:30.000Z</time>
      </trkpt>
      <trkpt lat="46.3454" lon="6.89082">
        <ele>386.79998779297</ele>
        <time>2023-04-04T08:15:31.000Z</time>
      </trkpt>
      <trkpt lat="46.34537" lon="6.89084">
        <ele>386.79998779297</ele>
        <time>2023-04-04T08:15:32.000Z</time>
      </trkpt>
      <trkpt lat="46.34533" lon="6.89087">
        <ele>386.79998779297</ele>
        <time>2023-04-04T08:15:33.000Z</time>
      </trkpt>
      <trkpt lat="46.3453" lon="6.89089">
        <ele>386.79998779297</ele>
        <time>2023-04-04T08:15:34.000Z</time>
      </trkpt>
      <trkpt lat="46.34526" lon="6.89092">
        <ele>387</ele>
        <time>2023-04-04T08:15:35.000Z</time>
      </trkpt>
      <trkpt lat="46.34523" lon="6.89095">
        <ele>387</ele>
        <time>2023-04-04T08:15:36.000Z</time>
      </trkpt>
      <trkpt lat="46.3452" lon="6.89097">
        <ele>387</ele>
        <time>2023-04-04T08:15:37.000Z</time>
      </trkpt>
      <trkpt lat="46.34516" lon="6.89099">
        <ele>387</ele>
        <time>2023-04-04T08:15:38.000Z</time>
      </trkpt>
      <trkpt lat="46.34513" lon="6.89101">
        <ele>387</ele>
        <time>2023-04-04T08:15:39.000Z</time>
      </trkpt>
      <trkpt lat="46.3451" lon="6.89103">
        <ele>387</ele>
        <time>2023-04-04T08:15:40.000Z</time>
      </trkpt>
      <trkpt lat="46.34507" lon="6.89105">
        <ele>387</ele>
        <time>2023-04-04T08:15:41.000Z</time>
      </trkpt>
      <trkpt lat="46.34505" lon="6.89107">
        <ele>387</ele>
        <time>2023-04-04T08:15:42.000Z</time>
      </trkpt>
      <trkpt lat="46.34502" lon="6.8911">
        <ele>387</ele>
        <time>2023-04-04T08:15:43.000Z</time>
      </trkpt>
      <trkpt lat="46.345" lon="6.89111">
        <ele>386.79998779297</ele>
        <time>2023-04-04T08:15:44.000Z</time>
      </trkpt>
      <trkpt lat="46.34498" lon="6.89113">
        <ele>386.79998779297</ele>
        <time>2023-04-04T08:15:45.000Z</time>
      </trkpt>
      <trkpt lat="46.34497" lon="6.89114">
        <ele>386.60000610352</ele>
        <time>2023-04-04T08:15:46.000Z</time>
      </trkpt>
      <trkpt lat="46.34495" lon="6.89115">
        <ele>386.60000610352</ele>
        <time>2023-04-04T08:15:47.000Z</time>
      </trkpt>
      <trkpt lat="46.34494" lon="6.89115">
        <ele>386.39999389648</ele>
        <time>2023-04-04T08:15:48.000Z</time>
      </trkpt>
      <trkpt lat="46.34494" lon="6.89115">
        <ele>386.39999389648</ele>
        <time>2023-04-04T08:15:49.000Z</time>
      </trkpt>
      <trkpt lat="46.34494" lon="6.89115">
        <ele>386.39999389648</ele>
        <time>2023-04-04T08:15:51.000Z</time>
      </trkpt>
      <trkpt lat="46.34489" lon="6.89118">
        <ele>386.20001220703</ele>
        <time>2023-04-04T08:19:40.000Z</time>
      </trkpt>
      <trkpt lat="46.34472" lon="6.89132">
        <ele>386.39999389648</ele>
        <time>2023-04-04T08:19:46.000Z</time>
      </trkpt>
      <trkpt lat="46.34453" lon="6.89146">
        <ele>386.39999389648</ele>
        <time>2023-04-04T08:19:51.000Z</time>
      </trkpt>
      <trkpt lat="46.34449" lon="6.89148">
        <ele>386.39999389648</ele>
        <time>2023-04-04T08:19:52.000Z</time>
      </trkpt>
      <trkpt lat="46.34424" lon="6.89166">
        <ele>386.39999389648</ele>
        <time>2023-04-04T08:19:59.000Z</time>
      </trkpt>
      <trkpt lat="46.34392" lon="6.89187">
        <ele>386</ele>
        <time>2023-04-04T08:20:07.000Z</time>
      </trkpt>
      <trkpt lat="46.34383" lon="6.89194">
        <ele>386</ele>
        <time>2023-04-04T08:20:09.000Z</time>
      </trkpt>
      <trkpt lat="46.34363" lon="6.89209">
        <ele>386.20001220703</ele>
        <time>2023-04-04T08:20:14.000Z</time>
      </trkpt>
      <trkpt lat="46.34341" lon="6.8922">
        <ele>386.20001220703</ele>
        <time>2023-04-04T08:20:19.000Z</time>
      </trkpt>
      <trkpt lat="46.34329" lon="6.89229">
        <ele>386.20001220703</ele>
        <time>2023-04-04T08:20:22.000Z</time>
      </trkpt>
      <trkpt lat="46.3429" lon="6.8926">
        <ele>386.39999389648</ele>
        <time>2023-04-04T08:20:32.000Z</time>
      </trkpt>
      <trkpt lat="46.34267" lon="6.8928">
        <ele>386.39999389648</ele>
        <time>2023-04-04T08:20:38.000Z</time>
      </trkpt>
      <trkpt lat="46.34263" lon="6.89283">
        <ele>386.39999389648</ele>
        <time>2023-04-04T08:20:39.000Z</time>
      </trkpt>
      <trkpt lat="46.34255" lon="6.89289">
        <ele>386.39999389648</ele>
        <time>2023-04-04T08:20:41.000Z</time>
      </trkpt>
      <trkpt lat="46.34247" lon="6.89296">
        <ele>386.39999389648</ele>
        <time>2023-04-04T08:20:43.000Z</time>
      </trkpt>
      <trkpt lat="46.34198" lon="6.89331">
        <ele>386.39999389648</ele>
        <time>2023-04-04T08:20:54.000Z</time>
      </trkpt>
      <trkpt lat="46.3416" lon="6.89366">
        <ele>386.39999389648</ele>
        <time>2023-04-04T08:21:03.000Z</time>
      </trkpt>
      <trkpt lat="46.34125" lon="6.89403">
        <ele>386.39999389648</ele>
        <time>2023-04-04T08:21:12.000Z</time>
      </trkpt>
      <trkpt lat="46.34117" lon="6.89411">
        <ele>386.39999389648</ele>
        <time>2023-04-04T08:21:14.000Z</time>
      </trkpt>
      <trkpt lat="46.3409" lon="6.8944">
        <ele>386.39999389648</ele>
        <time>2023-04-04T08:21:21.000Z</time>
      </trkpt>
      <trkpt lat="46.34086" lon="6.89444">
        <ele>386.39999389648</ele>
        <time>2023-04-04T08:21:22.000Z</time>
      </trkpt>
      <trkpt lat="46.34078" lon="6.89454">
        <ele>386.60000610352</ele>
        <time>2023-04-04T08:21:24.000Z</time>
      </trkpt>
      <trkpt lat="46.34071" lon="6.89464">
        <ele>386.60000610352</ele>
        <time>2023-04-04T08:21:26.000Z</time>
      </trkpt>
      <trkpt lat="46.34065" lon="6.89475">
        <ele>386.79998779297</ele>
        <time>2023-04-04T08:21:28.000Z</time>
      </trkpt>
      <trkpt lat="46.34062" lon="6.89481">
        <ele>386.79998779297</ele>
        <time>2023-04-04T08:21:29.000Z</time>
      </trkpt>
      <trkpt lat="46.34059" lon="6.89486">
        <ele>386.79998779297</ele>
        <time>2023-04-04T08:21:30.000Z</time>
      </trkpt>
      <trkpt lat="46.34053" lon="6.89497">
        <ele>387</ele>
        <time>2023-04-04T08:21:32.000Z</time>
      </trkpt>
      <trkpt lat="46.3405" lon="6.89502">
        <ele>387.20001220703</ele>
        <time>2023-04-04T08:21:33.000Z</time>
      </trkpt>
      <trkpt lat="46.34047" lon="6.89507">
        <ele>387.39999389648</ele>
        <time>2023-04-04T08:21:34.000Z</time>
      </trkpt>
      <trkpt lat="46.34044" lon="6.89512">
        <ele>387.39999389648</ele>
        <time>2023-04-04T08:21:35.000Z</time>
      </trkpt>
      <trkpt lat="46.34041" lon="6.89517">
        <ele>387.60000610352</ele>
        <time>2023-04-04T08:21:36.000Z</time>
      </trkpt>
      <trkpt lat="46.34037" lon="6.89521">
        <ele>387.60000610352</ele>
        <time>2023-04-04T08:21:37.000Z</time>
      </trkpt>
      <trkpt lat="46.34034" lon="6.89526">
        <ele>387.79998779297</ele>
        <time>2023-04-04T08:21:38.000Z</time>
      </trkpt>
      <trkpt lat="46.34031" lon="6.89531">
        <ele>387.79998779297</ele>
        <time>2023-04-04T08:21:39.000Z</time>
      </trkpt>
      <trkpt lat="46.34027" lon="6.89536">
        <ele>388</ele>
        <time>2023-04-04T08:21:40.000Z</time>
      </trkpt>
      <trkpt lat="46.3402" lon="6.89547">
        <ele>388</ele>
        <time>2023-04-04T08:21:42.000Z</time>
      </trkpt>
      <trkpt lat="46.33997" lon="6.89587">
        <ele>388</ele>
        <time>2023-04-04T08:21:49.000Z</time>
      </trkpt>
      <trkpt lat="46.33984" lon="6.8961">
        <ele>387.60000610352</ele>
        <time>2023-04-04T08:21:53.000Z</time>
      </trkpt>
      <trkpt lat="46.33978" lon="6.89622">
        <ele>387.60000610352</ele>
        <time>2023-04-04T08:21:55.000Z</time>
      </trkpt>
      <trkpt lat="46.33965" lon="6.89645">
        <ele>387.60000610352</ele>
        <time>2023-04-04T08:21:59.000Z</time>
      </trkpt>
      <trkpt lat="46.3395" lon="6.89674">
        <ele>387.60000610352</ele>
        <time>2023-04-04T08:22:04.000Z</time>
      </trkpt>
      <trkpt lat="46.33938" lon="6.89696">
        <ele>387.79998779297</ele>
        <time>2023-04-04T08:22:08.000Z</time>
      </trkpt>
      <trkpt lat="46.33935" lon="6.89702">
        <ele>387.79998779297</ele>
        <time>2023-04-04T08:22:09.000Z</time>
      </trkpt>
      <trkpt lat="46.33932" lon="6.89708">
        <ele>387.79998779297</ele>
        <time>2023-04-04T08:22:10.000Z</time>
      </trkpt>
      <trkpt lat="46.33929" lon="6.89714">
        <ele>387.79998779297</ele>
        <time>2023-04-04T08:22:11.000Z</time>
      </trkpt>
      <trkpt lat="46.33914" lon="6.89744">
        <ele>387.79998779297</ele>
        <time>2023-04-04T08:22:16.000Z</time>
      </trkpt>
      <trkpt lat="46.33897" lon="6.89778">
        <ele>387.79998779297</ele>
        <time>2023-04-04T08:22:22.000Z</time>
      </trkpt>
      <trkpt lat="46.33894" lon="6.89784">
        <ele>387.79998779297</ele>
        <time>2023-04-04T08:22:23.000Z</time>
      </trkpt>
      <trkpt lat="46.33891" lon="6.89789">
        <ele>387.79998779297</ele>
        <time>2023-04-04T08:22:24.000Z</time>
      </trkpt>
      <trkpt lat="46.33886" lon="6.89801">
        <ele>387.79998779297</ele>
        <time>2023-04-04T08:22:26.000Z</time>
      </trkpt>
      <trkpt lat="46.33884" lon="6.89808">
        <ele>387.79998779297</ele>
        <time>2023-04-04T08:22:27.000Z</time>
      </trkpt>
      <trkpt lat="46.33876" lon="6.89827">
        <ele>387.79998779297</ele>
        <time>2023-04-04T08:22:30.000Z</time>
      </trkpt>
      <trkpt lat="46.33865" lon="6.89868">
        <ele>387.79998779297</ele>
        <time>2023-04-04T08:22:36.000Z</time>
      </trkpt>
      <trkpt lat="46.33857" lon="6.89909">
        <ele>388</ele>
        <time>2023-04-04T08:22:42.000Z</time>
      </trkpt>
      <trkpt lat="46.33856" lon="6.89916">
        <ele>388</ele>
        <time>2023-04-04T08:22:43.000Z</time>
      </trkpt>
      <trkpt lat="46.33855" lon="6.89924">
        <ele>388</ele>
        <time>2023-04-04T08:22:44.000Z</time>
      </trkpt>
      <trkpt lat="46.33844" lon="6.89981">
        <ele>387.79998779297</ele>
        <time>2023-04-04T08:22:52.000Z</time>
      </trkpt>
      <trkpt lat="46.33827" lon="6.90059">
        <ele>387.79998779297</ele>
        <time>2023-04-04T08:23:03.000Z</time>
      </trkpt>
      <trkpt lat="46.33826" lon="6.90066">
        <ele>387.79998779297</ele>
        <time>2023-04-04T08:23:04.000Z</time>
      </trkpt>
      <trkpt lat="46.33818" lon="6.90107">
        <ele>387.60000610352</ele>
        <time>2023-04-04T08:23:10.000Z</time>
      </trkpt>
      <trkpt lat="46.33817" lon="6.90114">
        <ele>387.60000610352</ele>
        <time>2023-04-04T08:23:11.000Z</time>
      </trkpt>
      <trkpt lat="46.33816" lon="6.9012">
        <ele>387.60000610352</ele>
        <time>2023-04-04T08:23:12.000Z</time>
      </trkpt>
      <trkpt lat="46.33814" lon="6.90127">
        <ele>387.60000610352</ele>
        <time>2023-04-04T08:23:13.000Z</time>
      </trkpt>
      <trkpt lat="46.33812" lon="6.90134">
        <ele>387.60000610352</ele>
        <time>2023-04-04T08:23:14.000Z</time>
      </trkpt>
      <trkpt lat="46.33811" lon="6.90141">
        <ele>387.60000610352</ele>
        <time>2023-04-04T08:23:15.000Z</time>
      </trkpt>
      <trkpt lat="46.3381" lon="6.90147">
        <ele>387.60000610352</ele>
        <time>2023-04-04T08:23:16.000Z</time>
      </trkpt>
      <trkpt lat="46.33808" lon="6.90154">
        <ele>387.60000610352</ele>
        <time>2023-04-04T08:23:17.000Z</time>
      </trkpt>
      <trkpt lat="46.33807" lon="6.9016">
        <ele>387.39999389648</ele>
        <time>2023-04-04T08:23:18.000Z</time>
      </trkpt>
      <trkpt lat="46.33806" lon="6.90166">
        <ele>387.39999389648</ele>
        <time>2023-04-04T08:23:19.000Z</time>
      </trkpt>
      <trkpt lat="46.33805" lon="6.90173">
        <ele>387.39999389648</ele>
        <time>2023-04-04T08:23:20.000Z</time>
      </trkpt>
      <trkpt lat="46.33804" lon="6.90179">
        <ele>387.39999389648</ele>
        <time>2023-04-04T08:23:21.000Z</time>
      </trkpt>
      <trkpt lat="46.33803" lon="6.90186">
        <ele>387.39999389648</ele>
        <time>2023-04-04T08:23:22.000Z</time>
      </trkpt>
      <trkpt lat="46.33802" lon="6.90192">
        <ele>387.39999389648</ele>
        <time>2023-04-04T08:23:23.000Z</time>
      </trkpt>
      <trkpt lat="46.33801" lon="6.90198">
        <ele>387.39999389648</ele>
        <time>2023-04-04T08:23:24.000Z</time>
      </trkpt>
      <trkpt lat="46.338" lon="6.90204">
        <ele>387.39999389648</ele>
        <time>2023-04-04T08:23:25.000Z</time>
      </trkpt>
      <trkpt lat="46.33798" lon="6.90209">
        <ele>387.39999389648</ele>
        <time>2023-04-04T08:23:26.000Z</time>
      </trkpt>
      <trkpt lat="46.33797" lon="6.90214">
        <ele>387.39999389648</ele>
        <time>2023-04-04T08:23:27.000Z</time>
      </trkpt>
      <trkpt lat="46.33796" lon="6.90219">
        <ele>387.39999389648</ele>
        <time>2023-04-04T08:23:28.000Z</time>
      </trkpt>
      <trkpt lat="46.33795" lon="6.90225">
        <ele>387.60000610352</ele>
        <time>2023-04-04T08:23:29.000Z</time>
      </trkpt>
      <trkpt lat="46.33794" lon="6.90229">
        <ele>387.60000610352</ele>
        <time>2023-04-04T08:23:30.000Z</time>
      </trkpt>
      <trkpt lat="46.33793" lon="6.90234">
        <ele>387.60000610352</ele>
        <time>2023-04-04T08:23:31.000Z</time>
      </trkpt>
      <trkpt lat="46.33793" lon="6.90238">
        <ele>387.60000610352</ele>
        <time>2023-04-04T08:23:32.000Z</time>
      </trkpt>
      <trkpt lat="46.33793" lon="6.90241">
        <ele>387.60000610352</ele>
        <time>2023-04-04T08:23:33.000Z</time>
      </trkpt>
      <trkpt lat="46.33793" lon="6.90244">
        <ele>387.79998779297</ele>
        <time>2023-04-04T08:23:34.000Z</time>
      </trkpt>
      <trkpt lat="46.33792" lon="6.90247">
        <ele>387.60000610352</ele>
        <time>2023-04-04T08:23:35.000Z</time>
      </trkpt>
      <trkpt lat="46.33791" lon="6.9025">
        <ele>387.60000610352</ele>
        <time>2023-04-04T08:23:36.000Z</time>
      </trkpt>
      <trkpt lat="46.3379" lon="6.90252">
        <ele>387.60000610352</ele>
        <time>2023-04-04T08:23:37.000Z</time>
      </trkpt>
      <trkpt lat="46.3379" lon="6.90255">
        <ele>387.60000610352</ele>
        <time>2023-04-04T08:23:38.000Z</time>
      </trkpt>
      <trkpt lat="46.33789" lon="6.90285">
        <ele>387.39999389648</ele>
        <time>2023-04-04T08:23:46.000Z</time>
      </trkpt>
      <trkpt lat="46.33792" lon="6.90319">
        <ele>387.60000610352</ele>
        <time>2023-04-04T08:23:52.000Z</time>
      </trkpt>
      <trkpt lat="46.33792" lon="6.90325">
        <ele>387.60000610352</ele>
        <time>2023-04-04T08:23:53.000Z</time>
      </trkpt>
      <trkpt lat="46.33796" lon="6.90381">
        <ele>387.60000610352</ele>
        <time>2023-04-04T08:24:02.000Z</time>
      </trkpt>
      <trkpt lat="46.33799" lon="6.90444">
        <ele>387.79998779297</ele>
        <time>2023-04-04T08:24:12.000Z</time>
      </trkpt>
      <trkpt lat="46.338" lon="6.9045">
        <ele>387.79998779297</ele>
        <time>2023-04-04T08:24:13.000Z</time>
      </trkpt>
      <trkpt lat="46.33801" lon="6.90456">
        <ele>387.79998779297</ele>
        <time>2023-04-04T08:24:14.000Z</time>
      </trkpt>
      <trkpt lat="46.33806" lon="6.90512">
        <ele>388</ele>
        <time>2023-04-04T08:24:23.000Z</time>
      </trkpt>
      <trkpt lat="46.33812" lon="6.90575">
        <ele>387.79998779297</ele>
        <time>2023-04-04T08:24:33.000Z</time>
      </trkpt>
      <trkpt lat="46.33817" lon="6.90633">
        <ele>387.60000610352</ele>
        <time>2023-04-04T08:24:42.000Z</time>
      </trkpt>
      <trkpt lat="46.33818" lon="6.90646">
        <ele>387.79998779297</ele>
        <time>2023-04-04T08:24:44.000Z</time>
      </trkpt>
      <trkpt lat="46.33826" lon="6.90729">
        <ele>387.79998779297</ele>
        <time>2023-04-04T08:24:56.000Z</time>
      </trkpt>
      <trkpt lat="46.33832" lon="6.90783">
        <ele>387.60000610352</ele>
        <time>2023-04-04T08:25:04.000Z</time>
      </trkpt>
      <trkpt lat="46.33832" lon="6.90789">
        <ele>387.79998779297</ele>
        <time>2023-04-04T08:25:05.000Z</time>
      </trkpt>
      <trkpt lat="46.33833" lon="6.90796">
        <ele>387.79998779297</ele>
        <time>2023-04-04T08:25:06.000Z</time>
      </trkpt>
      <trkpt lat="46.33834" lon="6.90803">
        <ele>387.79998779297</ele>
        <time>2023-04-04T08:25:07.000Z</time>
      </trkpt>
      <trkpt lat="46.33837" lon="6.90824">
        <ele>387.79998779297</ele>
        <time>2023-04-04T08:25:10.000Z</time>
      </trkpt>
      <trkpt lat="46.33838" lon="6.90831">
        <ele>387.79998779297</ele>
        <time>2023-04-04T08:25:11.000Z</time>
      </trkpt>
      <trkpt lat="46.33842" lon="6.9087">
        <ele>388</ele>
        <time>2023-04-04T08:25:17.000Z</time>
      </trkpt>
      <trkpt lat="46.33844" lon="6.90889">
        <ele>388</ele>
        <time>2023-04-04T08:25:20.000Z</time>
      </trkpt>
      <trkpt lat="46.33845" lon="6.90895">
        <ele>388.20001220703</ele>
        <time>2023-04-04T08:25:21.000Z</time>
      </trkpt>
      <trkpt lat="46.33846" lon="6.90902">
        <ele>388.20001220703</ele>
        <time>2023-04-04T08:25:22.000Z</time>
      </trkpt>
      <trkpt lat="46.33848" lon="6.90928">
        <ele>388.20001220703</ele>
        <time>2023-04-04T08:25:26.000Z</time>
      </trkpt>
      <trkpt lat="46.33856" lon="6.91009">
        <ele>388</ele>
        <time>2023-04-04T08:25:38.000Z</time>
      </trkpt>
      <trkpt lat="46.33857" lon="6.91023">
        <ele>388</ele>
        <time>2023-04-04T08:25:40.000Z</time>
      </trkpt>
      <trkpt lat="46.3386" lon="6.91055">
        <ele>388</ele>
        <time>2023-04-04T08:25:45.000Z</time>
      </trkpt>
      <trkpt lat="46.3386" lon="6.91062">
        <ele>388</ele>
        <time>2023-04-04T08:25:46.000Z</time>
      </trkpt>
      <trkpt lat="46.33862" lon="6.91075">
        <ele>388</ele>
        <time>2023-04-04T08:25:48.000Z</time>
      </trkpt>
      <trkpt lat="46.33869" lon="6.91142">
        <ele>388.39999389648</ele>
        <time>2023-04-04T08:25:58.000Z</time>
      </trkpt>
      <trkpt lat="46.33873" lon="6.91168">
        <ele>388.60000610352</ele>
        <time>2023-04-04T08:26:02.000Z</time>
      </trkpt>
      <trkpt lat="46.33873" lon="6.91174">
        <ele>388.60000610352</ele>
        <time>2023-04-04T08:26:03.000Z</time>
      </trkpt>
      <trkpt lat="46.33874" lon="6.91181">
        <ele>388.60000610352</ele>
        <time>2023-04-04T08:26:04.000Z</time>
      </trkpt>
      <trkpt lat="46.33876" lon="6.912">
        <ele>388.79998779297</ele>
        <time>2023-04-04T08:26:07.000Z</time>
      </trkpt>
      <trkpt lat="46.33878" lon="6.91219">
        <ele>388.60000610352</ele>
        <time>2023-04-04T08:26:10.000Z</time>
      </trkpt>
      <trkpt lat="46.3388" lon="6.91238">
        <ele>388.39999389648</ele>
        <time>2023-04-04T08:26:13.000Z</time>
      </trkpt>
      <trkpt lat="46.33881" lon="6.91244">
        <ele>388.39999389648</ele>
        <time>2023-04-04T08:26:14.000Z</time>
      </trkpt>
      <trkpt lat="46.33881" lon="6.9125">
        <ele>388.39999389648</ele>
        <time>2023-04-04T08:26:15.000Z</time>
      </trkpt>
      <trkpt lat="46.33882" lon="6.91263">
        <ele>388.20001220703</ele>
        <time>2023-04-04T08:26:17.000Z</time>
      </trkpt>
      <trkpt lat="46.33886" lon="6.91295">
        <ele>388.20001220703</ele>
        <time>2023-04-04T08:26:22.000Z</time>
      </trkpt>
      <trkpt lat="46.33888" lon="6.91314">
        <ele>388.20001220703</ele>
        <time>2023-04-04T08:26:25.000Z</time>
      </trkpt>
      <trkpt lat="46.33889" lon="6.91326">
        <ele>388.20001220703</ele>
        <time>2023-04-04T08:26:27.000Z</time>
      </trkpt>
      <trkpt lat="46.33889" lon="6.91337">
        <ele>388.20001220703</ele>
        <time>2023-04-04T08:26:29.000Z</time>
      </trkpt>
      <trkpt lat="46.33889" lon="6.91343">
        <ele>388.20001220703</ele>
        <time>2023-04-04T08:26:30.000Z</time>
      </trkpt>
      <trkpt lat="46.33889" lon="6.91348">
        <ele>388.20001220703</ele>
        <time>2023-04-04T08:26:31.000Z</time>
      </trkpt>
      <trkpt lat="46.33889" lon="6.91354">
        <ele>388.20001220703</ele>
        <time>2023-04-04T08:26:32.000Z</time>
      </trkpt>
      <trkpt lat="46.33888" lon="6.91358">
        <ele>388.20001220703</ele>
        <time>2023-04-04T08:26:33.000Z</time>
      </trkpt>
      <trkpt lat="46.33888" lon="6.91363">
        <ele>388.20001220703</ele>
        <time>2023-04-04T08:26:34.000Z</time>
      </trkpt>
      <trkpt lat="46.33887" lon="6.91366">
        <ele>388.20001220703</ele>
        <time>2023-04-04T08:26:35.000Z</time>
      </trkpt>
      <trkpt lat="46.33886" lon="6.91371">
        <ele>388.20001220703</ele>
        <time>2023-04-04T08:26:36.000Z</time>
      </trkpt>
      <trkpt lat="46.33887" lon="6.91385">
        <ele>388.39999389648</ele>
        <time>2023-04-04T08:26:39.000Z</time>
      </trkpt>
      <trkpt lat="46.33888" lon="6.9139">
        <ele>388.39999389648</ele>
        <time>2023-04-04T08:26:40.000Z</time>
      </trkpt>
      <trkpt lat="46.33889" lon="6.91395">
        <ele>388.39999389648</ele>
        <time>2023-04-04T08:26:41.000Z</time>
      </trkpt>
      <trkpt lat="46.33892" lon="6.91412">
        <ele>388.60000610352</ele>
        <time>2023-04-04T08:26:44.000Z</time>
      </trkpt>
      <trkpt lat="46.33905" lon="6.91449">
        <ele>388.60000610352</ele>
        <time>2023-04-04T08:26:49.000Z</time>
      </trkpt>
      <trkpt lat="46.33907" lon="6.91465">
        <ele>388.60000610352</ele>
        <time>2023-04-04T08:26:51.000Z</time>
      </trkpt>
      <trkpt lat="46.33909" lon="6.91482">
        <ele>388.60000610352</ele>
        <time>2023-04-04T08:26:53.000Z</time>
      </trkpt>
      <trkpt lat="46.3391" lon="6.91496">
        <ele>388.39999389648</ele>
        <time>2023-04-04T08:26:55.000Z</time>
      </trkpt>
      <trkpt lat="46.33912" lon="6.91509">
        <ele>388.39999389648</ele>
        <time>2023-04-04T08:26:57.000Z</time>
      </trkpt>
      <trkpt lat="46.33913" lon="6.91516">
        <ele>388.39999389648</ele>
        <time>2023-04-04T08:26:58.000Z</time>
      </trkpt>
      <trkpt lat="46.33921" lon="6.91551">
        <ele>388.60000610352</ele>
        <time>2023-04-04T08:27:03.000Z</time>
      </trkpt>
      <trkpt lat="46.33925" lon="6.91572">
        <ele>388.79998779297</ele>
        <time>2023-04-04T08:27:06.000Z</time>
      </trkpt>
      <trkpt lat="46.3393" lon="6.91601">
        <ele>389.20001220703</ele>
        <time>2023-04-04T08:27:10.000Z</time>
      </trkpt>
      <trkpt lat="46.3393" lon="6.91609">
        <ele>389.20001220703</ele>
        <time>2023-04-04T08:27:11.000Z</time>
      </trkpt>
      <trkpt lat="46.33931" lon="6.91623">
        <ele>389.20001220703</ele>
        <time>2023-04-04T08:27:13.000Z</time>
      </trkpt>
      <trkpt lat="46.33923" lon="6.91675">
        <ele>389.20001220703</ele>
        <time>2023-04-04T08:27:20.000Z</time>
      </trkpt>
      <trkpt lat="46.33916" lon="6.91746">
        <ele>389.60000610352</ele>
        <time>2023-04-04T08:27:30.000Z</time>
      </trkpt>
      <trkpt lat="46.33913" lon="6.9176">
        <ele>389.39999389648</ele>
        <time>2023-04-04T08:27:32.000Z</time>
      </trkpt>
      <trkpt lat="46.33911" lon="6.91766">
        <ele>389.39999389648</ele>
        <time>2023-04-04T08:27:33.000Z</time>
      </trkpt>
      <trkpt lat="46.33909" lon="6.91772">
        <ele>389.20001220703</ele>
        <time>2023-04-04T08:27:34.000Z</time>
      </trkpt>
      <trkpt lat="46.33907" lon="6.91777">
        <ele>389.20001220703</ele>
        <time>2023-04-04T08:27:35.000Z</time>
      </trkpt>
      <trkpt lat="46.33906" lon="6.91782">
        <ele>389.20001220703</ele>
        <time>2023-04-04T08:27:36.000Z</time>
      </trkpt>
      <trkpt lat="46.33901" lon="6.91793">
        <ele>389</ele>
        <time>2023-04-04T08:27:38.000Z</time>
      </trkpt>
      <trkpt lat="46.33892" lon="6.91814">
        <ele>388.60000610352</ele>
        <time>2023-04-04T08:27:42.000Z</time>
      </trkpt>
      <trkpt lat="46.33879" lon="6.91848">
        <ele>388.60000610352</ele>
        <time>2023-04-04T08:27:48.000Z</time>
      </trkpt>
      <trkpt lat="46.33857" lon="6.91904">
        <ele>389</ele>
        <time>2023-04-04T08:27:58.000Z</time>
      </trkpt>
      <trkpt lat="46.33855" lon="6.9191">
        <ele>389</ele>
        <time>2023-04-04T08:27:59.000Z</time>
      </trkpt>
      <trkpt lat="46.33853" lon="6.91915">
        <ele>389</ele>
        <time>2023-04-04T08:28:00.000Z</time>
      </trkpt>
      <trkpt lat="46.33851" lon="6.91921">
        <ele>389</ele>
        <time>2023-04-04T08:28:01.000Z</time>
      </trkpt>
      <trkpt lat="46.33837" lon="6.91956">
        <ele>388.79998779297</ele>
        <time>2023-04-04T08:28:07.000Z</time>
      </trkpt>
      <trkpt lat="46.33812" lon="6.92004">
        <ele>388.79998779297</ele>
        <time>2023-04-04T08:28:16.000Z</time>
      </trkpt>
      <trkpt lat="46.33789" lon="6.92036">
        <ele>388.79998779297</ele>
        <time>2023-04-04T08:28:23.000Z</time>
      </trkpt>
      <trkpt lat="46.33785" lon="6.92041">
        <ele>388.79998779297</ele>
        <time>2023-04-04T08:28:24.000Z</time>
      </trkpt>
      <trkpt lat="46.33776" lon="6.9205">
        <ele>388.79998779297</ele>
        <time>2023-04-04T08:28:26.000Z</time>
      </trkpt>
      <trkpt lat="46.33754" lon="6.92076">
        <ele>388.79998779297</ele>
        <time>2023-04-04T08:28:32.000Z</time>
      </trkpt>
      <trkpt lat="46.33743" lon="6.92088">
        <ele>388.79998779297</ele>
        <time>2023-04-04T08:28:35.000Z</time>
      </trkpt>
      <trkpt lat="46.33723" lon="6.92108">
        <ele>388.60000610352</ele>
        <time>2023-04-04T08:28:40.000Z</time>
      </trkpt>
      <trkpt lat="46.33704" lon="6.92127">
        <ele>388.60000610352</ele>
        <time>2023-04-04T08:28:45.000Z</time>
      </trkpt>
      <trkpt lat="46.33701" lon="6.92131">
        <ele>388.60000610352</ele>
        <time>2023-04-04T08:28:46.000Z</time>
      </trkpt>
      <trkpt lat="46.33697" lon="6.92134">
        <ele>388.60000610352</ele>
        <time>2023-04-04T08:28:47.000Z</time>
      </trkpt>
      <trkpt lat="46.33693" lon="6.92138">
        <ele>388.60000610352</ele>
        <time>2023-04-04T08:28:48.000Z</time>
      </trkpt>
      <trkpt lat="46.3369" lon="6.92142">
        <ele>388.60000610352</ele>
        <time>2023-04-04T08:28:49.000Z</time>
      </trkpt>
      <trkpt lat="46.33686" lon="6.92145">
        <ele>388.60000610352</ele>
        <time>2023-04-04T08:28:50.000Z</time>
      </trkpt>
      <trkpt lat="46.3368" lon="6.92151">
        <ele>388.79998779297</ele>
        <time>2023-04-04T08:28:52.000Z</time>
      </trkpt>
      <trkpt lat="46.33672" lon="6.9216">
        <ele>388.79998779297</ele>
        <time>2023-04-04T08:28:54.000Z</time>
      </trkpt>
      <trkpt lat="46.33638" lon="6.92198">
        <ele>389</ele>
        <time>2023-04-04T08:29:03.000Z</time>
      </trkpt>
      <trkpt lat="46.33608" lon="6.92232">
        <ele>389</ele>
        <time>2023-04-04T08:29:11.000Z</time>
      </trkpt>
      <trkpt lat="46.33589" lon="6.92252">
        <ele>388.79998779297</ele>
        <time>2023-04-04T08:29:16.000Z</time>
      </trkpt>
      <trkpt lat="46.33585" lon="6.92256">
        <ele>388.79998779297</ele>
        <time>2023-04-04T08:29:17.000Z</time>
      </trkpt>
      <trkpt lat="46.33582" lon="6.92259">
        <ele>388.79998779297</ele>
        <time>2023-04-04T08:29:18.000Z</time>
      </trkpt>
      <trkpt lat="46.3358" lon="6.92262">
        <ele>388.79998779297</ele>
        <time>2023-04-04T08:29:19.000Z</time>
      </trkpt>
      <trkpt lat="46.33577" lon="6.92265">
        <ele>388.79998779297</ele>
        <time>2023-04-04T08:29:20.000Z</time>
      </trkpt>
      <trkpt lat="46.33573" lon="6.92268">
        <ele>388.79998779297</ele>
        <time>2023-04-04T08:29:21.000Z</time>
      </trkpt>
      <trkpt lat="46.33569" lon="6.92272">
        <ele>388.79998779297</ele>
        <time>2023-04-04T08:29:22.000Z</time>
      </trkpt>
      <trkpt lat="46.33567" lon="6.92275">
        <ele>388.79998779297</ele>
        <time>2023-04-04T08:29:23.000Z</time>
      </trkpt>
      <trkpt lat="46.33563" lon="6.9228">
        <ele>388.79998779297</ele>
        <time>2023-04-04T08:29:24.000Z</time>
      </trkpt>
      <trkpt lat="46.3356" lon="6.92283">
        <ele>388.79998779297</ele>
        <time>2023-04-04T08:29:25.000Z</time>
      </trkpt>
      <trkpt lat="46.33557" lon="6.92286">
        <ele>388.79998779297</ele>
        <time>2023-04-04T08:29:26.000Z</time>
      </trkpt>
      <trkpt lat="46.33525" lon="6.9232">
        <ele>388.79998779297</ele>
        <time>2023-04-04T08:29:36.000Z</time>
      </trkpt>
      <trkpt lat="46.33494" lon="6.92353">
        <ele>388.79998779297</ele>
        <time>2023-04-04T08:29:45.000Z</time>
      </trkpt>
      <trkpt lat="46.3346" lon="6.92391">
        <ele>388.79998779297</ele>
        <time>2023-04-04T08:29:55.000Z</time>
      </trkpt>
      <trkpt lat="46.33432" lon="6.92423">
        <ele>388.79998779297</ele>
        <time>2023-04-04T08:30:03.000Z</time>
      </trkpt>
      <trkpt lat="46.33414" lon="6.92444">
        <ele>388.79998779297</ele>
        <time>2023-04-04T08:30:08.000Z</time>
      </trkpt>
      <trkpt lat="46.33411" lon="6.92448">
        <ele>388.79998779297</ele>
        <time>2023-04-04T08:30:09.000Z</time>
      </trkpt>
      <trkpt lat="46.33395" lon="6.92465">
        <ele>389</ele>
        <time>2023-04-04T08:30:13.000Z</time>
      </trkpt>
      <trkpt lat="46.33355" lon="6.92511">
        <ele>389.39999389648</ele>
        <time>2023-04-04T08:30:24.000Z</time>
      </trkpt>
      <trkpt lat="46.33348" lon="6.92519">
        <ele>389.39999389648</ele>
        <time>2023-04-04T08:30:26.000Z</time>
      </trkpt>
      <trkpt lat="46.33345" lon="6.92523">
        <ele>389.39999389648</ele>
        <time>2023-04-04T08:30:27.000Z</time>
      </trkpt>
      <trkpt lat="46.33342" lon="6.92527">
        <ele>389.39999389648</ele>
        <time>2023-04-04T08:30:28.000Z</time>
      </trkpt>
      <trkpt lat="46.3333" lon="6.9254">
        <ele>389.39999389648</ele>
        <time>2023-04-04T08:30:31.000Z</time>
      </trkpt>
      <trkpt lat="46.33293" lon="6.92583">
        <ele>389.79998779297</ele>
        <time>2023-04-04T08:30:41.000Z</time>
      </trkpt>
      <trkpt lat="46.33282" lon="6.92595">
        <ele>389.79998779297</ele>
        <time>2023-04-04T08:30:44.000Z</time>
      </trkpt>
      <trkpt lat="46.33264" lon="6.92616">
        <ele>389.60000610352</ele>
        <time>2023-04-04T08:30:49.000Z</time>
      </trkpt>
      <trkpt lat="46.33261" lon="6.9262">
        <ele>389.60000610352</ele>
        <time>2023-04-04T08:30:50.000Z</time>
      </trkpt>
      <trkpt lat="46.33254" lon="6.92629">
        <ele>389.60000610352</ele>
        <time>2023-04-04T08:30:52.000Z</time>
      </trkpt>
      <trkpt lat="46.33251" lon="6.92633">
        <ele>389.60000610352</ele>
        <time>2023-04-04T08:30:53.000Z</time>
      </trkpt>
      <trkpt lat="46.33248" lon="6.92637">
        <ele>389.60000610352</ele>
        <time>2023-04-04T08:30:54.000Z</time>
      </trkpt>
      <trkpt lat="46.33245" lon="6.92641">
        <ele>389.60000610352</ele>
        <time>2023-04-04T08:30:55.000Z</time>
      </trkpt>
      <trkpt lat="46.33241" lon="6.92644">
        <ele>389.60000610352</ele>
        <time>2023-04-04T08:30:56.000Z</time>
      </trkpt>
      <trkpt lat="46.33238" lon="6.92647">
        <ele>389.60000610352</ele>
        <time>2023-04-04T08:30:57.000Z</time>
      </trkpt>
      <trkpt lat="46.33236" lon="6.9265">
        <ele>389.60000610352</ele>
        <time>2023-04-04T08:30:58.000Z</time>
      </trkpt>
      <trkpt lat="46.33233" lon="6.92654">
        <ele>389.60000610352</ele>
        <time>2023-04-04T08:30:59.000Z</time>
      </trkpt>
      <trkpt lat="46.3323" lon="6.92657">
        <ele>389.60000610352</ele>
        <time>2023-04-04T08:31:00.000Z</time>
      </trkpt>
      <trkpt lat="46.33228" lon="6.92661">
        <ele>389.60000610352</ele>
        <time>2023-04-04T08:31:01.000Z</time>
      </trkpt>
      <trkpt lat="46.33225" lon="6.92664">
        <ele>389.60000610352</ele>
        <time>2023-04-04T08:31:02.000Z</time>
      </trkpt>
      <trkpt lat="46.33222" lon="6.92669">
        <ele>389.60000610352</ele>
        <time>2023-04-04T08:31:03.000Z</time>
      </trkpt>
      <trkpt lat="46.33199" lon="6.92694">
        <ele>389.79998779297</ele>
        <time>2023-04-04T08:31:09.000Z</time>
      </trkpt>
      <trkpt lat="46.33195" lon="6.92698">
        <ele>389.79998779297</ele>
        <time>2023-04-04T08:31:10.000Z</time>
      </trkpt>
      <trkpt lat="46.33151" lon="6.92746">
        <ele>390</ele>
        <time>2023-04-04T08:31:21.000Z</time>
      </trkpt>
      <trkpt lat="46.3312" lon="6.92779">
        <ele>390</ele>
        <time>2023-04-04T08:31:28.000Z</time>
      </trkpt>
      <trkpt lat="46.3309" lon="6.92812">
        <ele>390</ele>
        <time>2023-04-04T08:31:36.000Z</time>
      </trkpt>
      <trkpt lat="46.33086" lon="6.92816">
        <ele>390</ele>
        <time>2023-04-04T08:31:37.000Z</time>
      </trkpt>
      <trkpt lat="46.33075" lon="6.92828">
        <ele>389.79998779297</ele>
        <time>2023-04-04T08:31:40.000Z</time>
      </trkpt>
      <trkpt lat="46.33071" lon="6.92833">
        <ele>389.79998779297</ele>
        <time>2023-04-04T08:31:41.000Z</time>
      </trkpt>
      <trkpt lat="46.33052" lon="6.92855">
        <ele>390</ele>
        <time>2023-04-04T08:31:46.000Z</time>
      </trkpt>
      <trkpt lat="46.33048" lon="6.92859">
        <ele>390</ele>
        <time>2023-04-04T08:31:47.000Z</time>
      </trkpt>
      <trkpt lat="46.33044" lon="6.92863">
        <ele>390</ele>
        <time>2023-04-04T08:31:48.000Z</time>
      </trkpt>
      <trkpt lat="46.3304" lon="6.92867">
        <ele>390</ele>
        <time>2023-04-04T08:31:49.000Z</time>
      </trkpt>
      <trkpt lat="46.33036" lon="6.92871">
        <ele>390</ele>
        <time>2023-04-04T08:31:50.000Z</time>
      </trkpt>
      <trkpt lat="46.32998" lon="6.92907">
        <ele>390.20001220703</ele>
        <time>2023-04-04T08:31:59.000Z</time>
      </trkpt>
      <trkpt lat="46.32966" lon="6.92938">
        <ele>390.20001220703</ele>
        <time>2023-04-04T08:32:07.000Z</time>
      </trkpt>
      <trkpt lat="46.32962" lon="6.92942">
        <ele>390.20001220703</ele>
        <time>2023-04-04T08:32:08.000Z</time>
      </trkpt>
      <trkpt lat="46.32959" lon="6.92946">
        <ele>390.20001220703</ele>
        <time>2023-04-04T08:32:09.000Z</time>
      </trkpt>
      <trkpt lat="46.32956" lon="6.9295">
        <ele>390.20001220703</ele>
        <time>2023-04-04T08:32:10.000Z</time>
      </trkpt>
      <trkpt lat="46.32952" lon="6.92955">
        <ele>390.20001220703</ele>
        <time>2023-04-04T08:32:11.000Z</time>
      </trkpt>
      <trkpt lat="46.32947" lon="6.92958">
        <ele>390.20001220703</ele>
        <time>2023-04-04T08:32:12.000Z</time>
      </trkpt>
      <trkpt lat="46.32931" lon="6.92972">
        <ele>390.39999389648</ele>
        <time>2023-04-04T08:32:16.000Z</time>
      </trkpt>
      <trkpt lat="46.32914" lon="6.92984">
        <ele>390.60000610352</ele>
        <time>2023-04-04T08:32:20.000Z</time>
      </trkpt>
      <trkpt lat="46.32896" lon="6.92996">
        <ele>390.60000610352</ele>
        <time>2023-04-04T08:32:24.000Z</time>
      </trkpt>
      <trkpt lat="46.3287" lon="6.93013">
        <ele>390.60000610352</ele>
        <time>2023-04-04T08:32:30.000Z</time>
      </trkpt>
      <trkpt lat="46.32825" lon="6.93035">
        <ele>390.60000610352</ele>
        <time>2023-04-04T08:32:40.000Z</time>
      </trkpt>
      <trkpt lat="46.32821" lon="6.93038">
        <ele>390.60000610352</ele>
        <time>2023-04-04T08:32:41.000Z</time>
      </trkpt>
      <trkpt lat="46.32816" lon="6.9304">
        <ele>390.60000610352</ele>
        <time>2023-04-04T08:32:42.000Z</time>
      </trkpt>
      <trkpt lat="46.32784" lon="6.93053">
        <ele>390.60000610352</ele>
        <time>2023-04-04T08:32:49.000Z</time>
      </trkpt>
      <trkpt lat="46.32737" lon="6.9307">
        <ele>390.60000610352</ele>
        <time>2023-04-04T08:32:59.000Z</time>
      </trkpt>
      <trkpt lat="46.32725" lon="6.93076">
        <ele>390.60000610352</ele>
        <time>2023-04-04T08:33:02.000Z</time>
      </trkpt>
      <trkpt lat="46.3272" lon="6.93078">
        <ele>390.60000610352</ele>
        <time>2023-04-04T08:33:03.000Z</time>
      </trkpt>
      <trkpt lat="46.32716" lon="6.9308">
        <ele>390.60000610352</ele>
        <time>2023-04-04T08:33:04.000Z</time>
      </trkpt>
      <trkpt lat="46.32711" lon="6.93081">
        <ele>390.60000610352</ele>
        <time>2023-04-04T08:33:05.000Z</time>
      </trkpt>
      <trkpt lat="46.32707" lon="6.93082">
        <ele>390.60000610352</ele>
        <time>2023-04-04T08:33:06.000Z</time>
      </trkpt>
      <trkpt lat="46.32654" lon="6.93097">
        <ele>390.39999389648</ele>
        <time>2023-04-04T08:33:17.000Z</time>
      </trkpt>
      <trkpt lat="46.32599" lon="6.93109">
        <ele>390.39999389648</ele>
        <time>2023-04-04T08:33:28.000Z</time>
      </trkpt>
      <trkpt lat="46.3255" lon="6.93121">
        <ele>390.20001220703</ele>
        <time>2023-04-04T08:33:38.000Z</time>
      </trkpt>
      <trkpt lat="46.32545" lon="6.93123">
        <ele>390.20001220703</ele>
        <time>2023-04-04T08:33:39.000Z</time>
      </trkpt>
      <trkpt lat="46.3254" lon="6.93124">
        <ele>390.20001220703</ele>
        <time>2023-04-04T08:33:40.000Z</time>
      </trkpt>
      <trkpt lat="46.32535" lon="6.93125">
        <ele>390.20001220703</ele>
        <time>2023-04-04T08:33:41.000Z</time>
      </trkpt>
      <trkpt lat="46.32507" lon="6.93131">
        <ele>390.39999389648</ele>
        <time>2023-04-04T08:33:47.000Z</time>
      </trkpt>
      <trkpt lat="46.32493" lon="6.93134">
        <ele>390.39999389648</ele>
        <time>2023-04-04T08:33:50.000Z</time>
      </trkpt>
      <trkpt lat="46.32455" lon="6.93144">
        <ele>390.39999389648</ele>
        <time>2023-04-04T08:33:58.000Z</time>
      </trkpt>
      <trkpt lat="46.32432" lon="6.93149">
        <ele>390.60000610352</ele>
        <time>2023-04-04T08:34:03.000Z</time>
      </trkpt>
      <trkpt lat="46.32427" lon="6.9315">
        <ele>390.60000610352</ele>
        <time>2023-04-04T08:34:04.000Z</time>
      </trkpt>
      <trkpt lat="46.32422" lon="6.93151">
        <ele>390.39999389648</ele>
        <time>2023-04-04T08:34:05.000Z</time>
      </trkpt>
      <trkpt lat="46.32413" lon="6.93152">
        <ele>390.39999389648</ele>
        <time>2023-04-04T08:34:07.000Z</time>
      </trkpt>
      <trkpt lat="46.32408" lon="6.93152">
        <ele>390.39999389648</ele>
        <time>2023-04-04T08:34:08.000Z</time>
      </trkpt>
      <trkpt lat="46.32404" lon="6.93153">
        <ele>390.39999389648</ele>
        <time>2023-04-04T08:34:09.000Z</time>
      </trkpt>
      <trkpt lat="46.32399" lon="6.93154">
        <ele>390.39999389648</ele>
        <time>2023-04-04T08:34:10.000Z</time>
      </trkpt>
      <trkpt lat="46.32395" lon="6.93154">
        <ele>390.39999389648</ele>
        <time>2023-04-04T08:34:11.000Z</time>
      </trkpt>
      <trkpt lat="46.32391" lon="6.93155">
        <ele>390.39999389648</ele>
        <time>2023-04-04T08:34:12.000Z</time>
      </trkpt>
      <trkpt lat="46.32358" lon="6.93158">
        <ele>390.39999389648</ele>
        <time>2023-04-04T08:34:19.000Z</time>
      </trkpt>
      <trkpt lat="46.32307" lon="6.93162">
        <ele>390.60000610352</ele>
        <time>2023-04-04T08:34:30.000Z</time>
      </trkpt>
      <trkpt lat="46.3227" lon="6.93163">
        <ele>390.60000610352</ele>
        <time>2023-04-04T08:34:38.000Z</time>
      </trkpt>
      <trkpt lat="46.32256" lon="6.93164">
        <ele>390.79998779297</ele>
        <time>2023-04-04T08:34:41.000Z</time>
      </trkpt>
      <trkpt lat="46.32251" lon="6.93164">
        <ele>390.79998779297</ele>
        <time>2023-04-04T08:34:42.000Z</time>
      </trkpt>
      <trkpt lat="46.32246" lon="6.93164">
        <ele>390.79998779297</ele>
        <time>2023-04-04T08:34:43.000Z</time>
      </trkpt>
      <trkpt lat="46.32242" lon="6.93164">
        <ele>390.79998779297</ele>
        <time>2023-04-04T08:34:44.000Z</time>
      </trkpt>
      <trkpt lat="46.32233" lon="6.93165">
        <ele>390.79998779297</ele>
        <time>2023-04-04T08:34:46.000Z</time>
      </trkpt>
      <trkpt lat="46.3221" lon="6.93165">
        <ele>390.60000610352</ele>
        <time>2023-04-04T08:34:51.000Z</time>
      </trkpt>
      <trkpt lat="46.32206" lon="6.93165">
        <ele>390.60000610352</ele>
        <time>2023-04-04T08:34:52.000Z</time>
      </trkpt>
      <trkpt lat="46.32188" lon="6.93164">
        <ele>390.60000610352</ele>
        <time>2023-04-04T08:34:56.000Z</time>
      </trkpt>
      <trkpt lat="46.32184" lon="6.93164">
        <ele>390.60000610352</ele>
        <time>2023-04-04T08:34:57.000Z</time>
      </trkpt>
      <trkpt lat="46.3218" lon="6.93163">
        <ele>390.79998779297</ele>
        <time>2023-04-04T08:34:58.000Z</time>
      </trkpt>
      <trkpt lat="46.32176" lon="6.93163">
        <ele>390.79998779297</ele>
        <time>2023-04-04T08:34:59.000Z</time>
      </trkpt>
      <trkpt lat="46.32171" lon="6.93163">
        <ele>390.79998779297</ele>
        <time>2023-04-04T08:35:00.000Z</time>
      </trkpt>
      <trkpt lat="46.32168" lon="6.93163">
        <ele>390.79998779297</ele>
        <time>2023-04-04T08:35:01.000Z</time>
      </trkpt>
      <trkpt lat="46.32164" lon="6.93163">
        <ele>390.79998779297</ele>
        <time>2023-04-04T08:35:02.000Z</time>
      </trkpt>
      <trkpt lat="46.32151" lon="6.93162">
        <ele>390.79998779297</ele>
        <time>2023-04-04T08:35:05.000Z</time>
      </trkpt>
      <trkpt lat="46.32109" lon="6.93157">
        <ele>391</ele>
        <time>2023-04-04T08:35:14.000Z</time>
      </trkpt>
      <trkpt lat="46.32063" lon="6.93154">
        <ele>391</ele>
        <time>2023-04-04T08:35:23.000Z</time>
      </trkpt>
      <trkpt lat="46.32031" lon="6.93149">
        <ele>391</ele>
        <time>2023-04-04T08:35:30.000Z</time>
      </trkpt>
      <trkpt lat="46.32027" lon="6.93148">
        <ele>391</ele>
        <time>2023-04-04T08:35:31.000Z</time>
      </trkpt>
      <trkpt lat="46.32018" lon="6.93146">
        <ele>391</ele>
        <time>2023-04-04T08:35:33.000Z</time>
      </trkpt>
      <trkpt lat="46.31995" lon="6.93141">
        <ele>391</ele>
        <time>2023-04-04T08:35:38.000Z</time>
      </trkpt>
      <trkpt lat="46.31983" lon="6.93136">
        <ele>391</ele>
        <time>2023-04-04T08:35:41.000Z</time>
      </trkpt>
      <trkpt lat="46.3195" lon="6.93124">
        <ele>390.20001220703</ele>
        <time>2023-04-04T08:35:47.000Z</time>
      </trkpt>
      <trkpt lat="46.31931" lon="6.93119">
        <ele>389.60000610352</ele>
        <time>2023-04-04T08:35:50.000Z</time>
      </trkpt>
      <trkpt lat="46.31925" lon="6.93119">
        <ele>389.39999389648</ele>
        <time>2023-04-04T08:35:51.000Z</time>
      </trkpt>
      <trkpt lat="46.31919" lon="6.9312">
        <ele>389</ele>
        <time>2023-04-04T08:35:52.000Z</time>
      </trkpt>
      <trkpt lat="46.31914" lon="6.9312">
        <ele>389</ele>
        <time>2023-04-04T08:35:53.000Z</time>
      </trkpt>
      <trkpt lat="46.31909" lon="6.9312">
        <ele>388.79998779297</ele>
        <time>2023-04-04T08:35:54.000Z</time>
      </trkpt>
      <trkpt lat="46.31904" lon="6.93121">
        <ele>388.79998779297</ele>
        <time>2023-04-04T08:35:55.000Z</time>
      </trkpt>
      <trkpt lat="46.319" lon="6.93122">
        <ele>388.79998779297</ele>
        <time>2023-04-04T08:35:56.000Z</time>
      </trkpt>
      <trkpt lat="46.31896" lon="6.93123">
        <ele>388.79998779297</ele>
        <time>2023-04-04T08:35:57.000Z</time>
      </trkpt>
      <trkpt lat="46.31892" lon="6.93123">
        <ele>388.79998779297</ele>
        <time>2023-04-04T08:35:58.000Z</time>
      </trkpt>
      <trkpt lat="46.31889" lon="6.93123">
        <ele>388.79998779297</ele>
        <time>2023-04-04T08:35:59.000Z</time>
      </trkpt>
      <trkpt lat="46.31885" lon="6.93123">
        <ele>389.20001220703</ele>
        <time>2023-04-04T08:36:00.000Z</time>
      </trkpt>
      <trkpt lat="46.31882" lon="6.93124">
        <ele>389.39999389648</ele>
        <time>2023-04-04T08:36:01.000Z</time>
      </trkpt>
      <trkpt lat="46.31878" lon="6.93125">
        <ele>389.60000610352</ele>
        <time>2023-04-04T08:36:02.000Z</time>
      </trkpt>
      <trkpt lat="46.31875" lon="6.93125">
        <ele>390</ele>
        <time>2023-04-04T08:36:03.000Z</time>
      </trkpt>
      <trkpt lat="46.31872" lon="6.93125">
        <ele>390.39999389648</ele>
        <time>2023-04-04T08:36:04.000Z</time>
      </trkpt>
      <trkpt lat="46.31869" lon="6.93126">
        <ele>390.60000610352</ele>
        <time>2023-04-04T08:36:05.000Z</time>
      </trkpt>
      <trkpt lat="46.31861" lon="6.93126">
        <ele>391</ele>
        <time>2023-04-04T08:36:07.000Z</time>
      </trkpt>
      <trkpt lat="46.31839" lon="6.93124">
        <ele>391.39999389648</ele>
        <time>2023-04-04T08:36:13.000Z</time>
      </trkpt>
      <trkpt lat="46.31818" lon="6.93122">
        <ele>391.20001220703</ele>
        <time>2023-04-04T08:36:18.000Z</time>
      </trkpt>
      <trkpt lat="46.31797" lon="6.9312">
        <ele>391.20001220703</ele>
        <time>2023-04-04T08:36:23.000Z</time>
      </trkpt>
      <trkpt lat="46.31782" lon="6.93118">
        <ele>391</ele>
        <time>2023-04-04T08:36:27.000Z</time>
      </trkpt>
      <trkpt lat="46.31773" lon="6.93118">
        <ele>391</ele>
        <time>2023-04-04T08:36:29.000Z</time>
      </trkpt>
      <trkpt lat="46.31769" lon="6.93118">
        <ele>391</ele>
        <time>2023-04-04T08:36:30.000Z</time>
      </trkpt>
      <trkpt lat="46.31765" lon="6.93118">
        <ele>391</ele>
        <time>2023-04-04T08:36:31.000Z</time>
      </trkpt>
      <trkpt lat="46.31756" lon="6.93118">
        <ele>391</ele>
        <time>2023-04-04T08:36:33.000Z</time>
      </trkpt>
      <trkpt lat="46.31713" lon="6.93116">
        <ele>391.60000610352</ele>
        <time>2023-04-04T08:36:43.000Z</time>
      </trkpt>
      <trkpt lat="46.31704" lon="6.93116">
        <ele>391.60000610352</ele>
        <time>2023-04-04T08:36:45.000Z</time>
      </trkpt>
      <trkpt lat="46.317" lon="6.93116">
        <ele>391.60000610352</ele>
        <time>2023-04-04T08:36:46.000Z</time>
      </trkpt>
      <trkpt lat="46.31688" lon="6.93117">
        <ele>391.60000610352</ele>
        <time>2023-04-04T08:36:49.000Z</time>
      </trkpt>
      <trkpt lat="46.31684" lon="6.93118">
        <ele>391.60000610352</ele>
        <time>2023-04-04T08:36:50.000Z</time>
      </trkpt>
      <trkpt lat="46.3168" lon="6.93118">
        <ele>391.60000610352</ele>
        <time>2023-04-04T08:36:51.000Z</time>
      </trkpt>
      <trkpt lat="46.31676" lon="6.93118">
        <ele>391.60000610352</ele>
        <time>2023-04-04T08:36:52.000Z</time>
      </trkpt>
      <trkpt lat="46.31672" lon="6.93119">
        <ele>391.60000610352</ele>
        <time>2023-04-04T08:36:53.000Z</time>
      </trkpt>
      <trkpt lat="46.31668" lon="6.93119">
        <ele>391.60000610352</ele>
        <time>2023-04-04T08:36:54.000Z</time>
      </trkpt>
      <trkpt lat="46.3165" lon="6.93124">
        <ele>391.60000610352</ele>
        <time>2023-04-04T08:36:58.000Z</time>
      </trkpt>
      <trkpt lat="46.31632" lon="6.93128">
        <ele>391.79998779297</ele>
        <time>2023-04-04T08:37:02.000Z</time>
      </trkpt>
      <trkpt lat="46.31628" lon="6.9313">
        <ele>391.79998779297</ele>
        <time>2023-04-04T08:37:03.000Z</time>
      </trkpt>
      <trkpt lat="46.31624" lon="6.93131">
        <ele>391.79998779297</ele>
        <time>2023-04-04T08:37:04.000Z</time>
      </trkpt>
      <trkpt lat="46.3162" lon="6.93132">
        <ele>391.79998779297</ele>
        <time>2023-04-04T08:37:05.000Z</time>
      </trkpt>
      <trkpt lat="46.31617" lon="6.93133">
        <ele>391.79998779297</ele>
        <time>2023-04-04T08:37:06.000Z</time>
      </trkpt>
      <trkpt lat="46.31613" lon="6.93133">
        <ele>391.79998779297</ele>
        <time>2023-04-04T08:37:07.000Z</time>
      </trkpt>
      <trkpt lat="46.31595" lon="6.93138">
        <ele>391.79998779297</ele>
        <time>2023-04-04T08:37:11.000Z</time>
      </trkpt>
      <trkpt lat="46.3159" lon="6.93139">
        <ele>391.79998779297</ele>
        <time>2023-04-04T08:37:12.000Z</time>
      </trkpt>
      <trkpt lat="46.31587" lon="6.93141">
        <ele>391.79998779297</ele>
        <time>2023-04-04T08:37:13.000Z</time>
      </trkpt>
      <trkpt lat="46.31584" lon="6.93142">
        <ele>391.79998779297</ele>
        <time>2023-04-04T08:37:14.000Z</time>
      </trkpt>
      <trkpt lat="46.31566" lon="6.93149">
        <ele>391.79998779297</ele>
        <time>2023-04-04T08:37:18.000Z</time>
      </trkpt>
      <trkpt lat="46.31557" lon="6.93152">
        <ele>391.79998779297</ele>
        <time>2023-04-04T08:37:20.000Z</time>
      </trkpt>
      <trkpt lat="46.31533" lon="6.93161">
        <ele>392</ele>
        <time>2023-04-04T08:37:25.000Z</time>
      </trkpt>
      <trkpt lat="46.31529" lon="6.93163">
        <ele>392</ele>
        <time>2023-04-04T08:37:26.000Z</time>
      </trkpt>
      <trkpt lat="46.31524" lon="6.93165">
        <ele>392</ele>
        <time>2023-04-04T08:37:27.000Z</time>
      </trkpt>
      <trkpt lat="46.31511" lon="6.93168">
        <ele>392</ele>
        <time>2023-04-04T08:37:30.000Z</time>
      </trkpt>
      <trkpt lat="46.31508" lon="6.93169">
        <ele>392</ele>
        <time>2023-04-04T08:37:31.000Z</time>
      </trkpt>
      <trkpt lat="46.31504" lon="6.9317">
        <ele>392</ele>
        <time>2023-04-04T08:37:32.000Z</time>
      </trkpt>
      <trkpt lat="46.31499" lon="6.93172">
        <ele>392</ele>
        <time>2023-04-04T08:37:33.000Z</time>
      </trkpt>
      <trkpt lat="46.31484" lon="6.93178">
        <ele>392</ele>
        <time>2023-04-04T08:37:36.000Z</time>
      </trkpt>
      <trkpt lat="46.31452" lon="6.93191">
        <ele>392.20001220703</ele>
        <time>2023-04-04T08:37:42.000Z</time>
      </trkpt>
      <trkpt lat="46.31448" lon="6.93192">
        <ele>392.20001220703</ele>
        <time>2023-04-04T08:37:43.000Z</time>
      </trkpt>
      <trkpt lat="46.3142" lon="6.93204">
        <ele>392.39999389648</ele>
        <time>2023-04-04T08:37:49.000Z</time>
      </trkpt>
      <trkpt lat="46.31397" lon="6.93212">
        <ele>392.20001220703</ele>
        <time>2023-04-04T08:37:54.000Z</time>
      </trkpt>
      <trkpt lat="46.31388" lon="6.93216">
        <ele>392.20001220703</ele>
        <time>2023-04-04T08:37:56.000Z</time>
      </trkpt>
      <trkpt lat="46.31384" lon="6.93217">
        <ele>392.20001220703</ele>
        <time>2023-04-04T08:37:57.000Z</time>
      </trkpt>
      <trkpt lat="46.31375" lon="6.93221">
        <ele>392.20001220703</ele>
        <time>2023-04-04T08:37:59.000Z</time>
      </trkpt>
      <trkpt lat="46.31334" lon="6.93236">
        <ele>392</ele>
        <time>2023-04-04T08:38:08.000Z</time>
      </trkpt>
      <trkpt lat="46.3132" lon="6.93242">
        <ele>392</ele>
        <time>2023-04-04T08:38:11.000Z</time>
      </trkpt>
      <trkpt lat="46.31308" lon="6.93246">
        <ele>392.20001220703</ele>
        <time>2023-04-04T08:38:14.000Z</time>
      </trkpt>
      <trkpt lat="46.31304" lon="6.93248">
        <ele>392.20001220703</ele>
        <time>2023-04-04T08:38:15.000Z</time>
      </trkpt>
      <trkpt lat="46.313" lon="6.93249">
        <ele>392.20001220703</ele>
        <time>2023-04-04T08:38:16.000Z</time>
      </trkpt>
      <trkpt lat="46.31296" lon="6.9325">
        <ele>392.20001220703</ele>
        <time>2023-04-04T08:38:17.000Z</time>
      </trkpt>
      <trkpt lat="46.31293" lon="6.93251">
        <ele>392.20001220703</ele>
        <time>2023-04-04T08:38:18.000Z</time>
      </trkpt>
      <trkpt lat="46.31289" lon="6.93252">
        <ele>392.20001220703</ele>
        <time>2023-04-04T08:38:19.000Z</time>
      </trkpt>
      <trkpt lat="46.31286" lon="6.93254">
        <ele>392.20001220703</ele>
        <time>2023-04-04T08:38:20.000Z</time>
      </trkpt>
      <trkpt lat="46.31283" lon="6.93255">
        <ele>392.20001220703</ele>
        <time>2023-04-04T08:38:21.000Z</time>
      </trkpt>
      <trkpt lat="46.31281" lon="6.93257">
        <ele>392.20001220703</ele>
        <time>2023-04-04T08:38:22.000Z</time>
      </trkpt>
      <trkpt lat="46.31279" lon="6.93258">
        <ele>392.20001220703</ele>
        <time>2023-04-04T08:38:23.000Z</time>
      </trkpt>
      <trkpt lat="46.31278" lon="6.93258">
        <ele>392.20001220703</ele>
        <time>2023-04-04T08:38:24.000Z</time>
      </trkpt>
      <trkpt lat="46.31278" lon="6.93259">
        <ele>392.20001220703</ele>
        <time>2023-04-04T08:38:25.000Z</time>
      </trkpt>
      <trkpt lat="46.31278" lon="6.93259">
        <ele>392.20001220703</ele>
        <time>2023-04-04T08:38:27.000Z</time>
      </trkpt>
      <trkpt lat="46.31274" lon="6.93259">
        <ele>391.79998779297</ele>
        <time>2023-04-04T08:38:54.000Z</time>
      </trkpt>
      <trkpt lat="46.31271" lon="6.93259">
        <ele>391.79998779297</ele>
        <time>2023-04-04T08:38:56.000Z</time>
      </trkpt>
      <trkpt lat="46.3127" lon="6.9326">
        <ele>391.79998779297</ele>
        <time>2023-04-04T08:38:57.000Z</time>
      </trkpt>
      <trkpt lat="46.31268" lon="6.9326">
        <ele>391.79998779297</ele>
        <time>2023-04-04T08:38:58.000Z</time>
      </trkpt>
      <trkpt lat="46.31267" lon="6.9326">
        <ele>391.79998779297</ele>
        <time>2023-04-04T08:38:59.000Z</time>
      </trkpt>
      <trkpt lat="46.31262" lon="6.93261">
        <ele>391.60000610352</ele>
        <time>2023-04-04T08:39:03.000Z</time>
      </trkpt>
      <trkpt lat="46.31262" lon="6.93261">
        <ele>391.60000610352</ele>
        <time>2023-04-04T08:39:04.000Z</time>
      </trkpt>
      <trkpt lat="46.31262" lon="6.93261">
        <ele>391.60000610352</ele>
        <time>2023-04-04T08:39:05.000Z</time>
      </trkpt>
      <trkpt lat="46.31262" lon="6.93261">
        <ele>391.60000610352</ele>
        <time>2023-04-04T08:39:06.000Z</time>
      </trkpt>
      <trkpt lat="46.31258" lon="6.93263">
        <ele>391.60000610352</ele>
        <time>2023-04-04T08:40:52.000Z</time>
      </trkpt>
      <trkpt lat="46.31253" lon="6.93266">
        <ele>391.60000610352</ele>
        <time>2023-04-04T08:40:54.000Z</time>
      </trkpt>
      <trkpt lat="46.31232" lon="6.93273">
        <ele>391.39999389648</ele>
        <time>2023-04-04T08:41:01.000Z</time>
      </trkpt>
      <trkpt lat="46.31225" lon="6.93275">
        <ele>391.20001220703</ele>
        <time>2023-04-04T08:41:03.000Z</time>
      </trkpt>
      <trkpt lat="46.3121" lon="6.93281">
        <ele>391.20001220703</ele>
        <time>2023-04-04T08:41:07.000Z</time>
      </trkpt>
      <trkpt lat="46.31182" lon="6.9329">
        <ele>390.79998779297</ele>
        <time>2023-04-04T08:41:14.000Z</time>
      </trkpt>
      <trkpt lat="46.31145" lon="6.933">
        <ele>390.79998779297</ele>
        <time>2023-04-04T08:41:23.000Z</time>
      </trkpt>
      <trkpt lat="46.31129" lon="6.93304">
        <ele>391</ele>
        <time>2023-04-04T08:41:27.000Z</time>
      </trkpt>
      <trkpt lat="46.31125" lon="6.93305">
        <ele>391.20001220703</ele>
        <time>2023-04-04T08:41:28.000Z</time>
      </trkpt>
      <trkpt lat="46.31115" lon="6.93306">
        <ele>391.39999389648</ele>
        <time>2023-04-04T08:41:30.000Z</time>
      </trkpt>
      <trkpt lat="46.31101" lon="6.93309">
        <ele>391.39999389648</ele>
        <time>2023-04-04T08:41:33.000Z</time>
      </trkpt>
      <trkpt lat="46.31067" lon="6.93312">
        <ele>391.79998779297</ele>
        <time>2023-04-04T08:41:41.000Z</time>
      </trkpt>
      <trkpt lat="46.31058" lon="6.93312">
        <ele>391.60000610352</ele>
        <time>2023-04-04T08:41:43.000Z</time>
      </trkpt>
      <trkpt lat="46.31026" lon="6.93314">
        <ele>391.60000610352</ele>
        <time>2023-04-04T08:41:50.000Z</time>
      </trkpt>
      <trkpt lat="46.30977" lon="6.93319">
        <ele>391.79998779297</ele>
        <time>2023-04-04T08:42:01.000Z</time>
      </trkpt>
      <trkpt lat="46.30958" lon="6.93322">
        <ele>391.79998779297</ele>
        <time>2023-04-04T08:42:05.000Z</time>
      </trkpt>
      <trkpt lat="46.30932" lon="6.93328">
        <ele>392.20001220703</ele>
        <time>2023-04-04T08:42:11.000Z</time>
      </trkpt>
      <trkpt lat="46.30927" lon="6.93329">
        <ele>392.20001220703</ele>
        <time>2023-04-04T08:42:12.000Z</time>
      </trkpt>
      <trkpt lat="46.30923" lon="6.93329">
        <ele>392.39999389648</ele>
        <time>2023-04-04T08:42:13.000Z</time>
      </trkpt>
      <trkpt lat="46.30914" lon="6.93331">
        <ele>392.39999389648</ele>
        <time>2023-04-04T08:42:15.000Z</time>
      </trkpt>
      <trkpt lat="46.30906" lon="6.93333">
        <ele>392.39999389648</ele>
        <time>2023-04-04T08:42:17.000Z</time>
      </trkpt>
      <trkpt lat="46.30875" lon="6.93342">
        <ele>392.60000610352</ele>
        <time>2023-04-04T08:42:24.000Z</time>
      </trkpt>
      <trkpt lat="46.30866" lon="6.93344">
        <ele>392.60000610352</ele>
        <time>2023-04-04T08:42:26.000Z</time>
      </trkpt>
      <trkpt lat="46.3083" lon="6.93357">
        <ele>392.39999389648</ele>
        <time>2023-04-04T08:42:34.000Z</time>
      </trkpt>
      <trkpt lat="46.30825" lon="6.93358">
        <ele>392.60000610352</ele>
        <time>2023-04-04T08:42:35.000Z</time>
      </trkpt>
      <trkpt lat="46.30803" lon="6.93366">
        <ele>392.79998779297</ele>
        <time>2023-04-04T08:42:40.000Z</time>
      </trkpt>
      <trkpt lat="46.30799" lon="6.93367">
        <ele>392.79998779297</ele>
        <time>2023-04-04T08:42:41.000Z</time>
      </trkpt>
      <trkpt lat="46.30781" lon="6.93373">
        <ele>392.60000610352</ele>
        <time>2023-04-04T08:42:45.000Z</time>
      </trkpt>
      <trkpt lat="46.3074" lon="6.93386">
        <ele>392.60000610352</ele>
        <time>2023-04-04T08:42:54.000Z</time>
      </trkpt>
      <trkpt lat="46.30713" lon="6.93395">
        <ele>392.79998779297</ele>
        <time>2023-04-04T08:43:00.000Z</time>
      </trkpt>
      <trkpt lat="46.30709" lon="6.93397">
        <ele>392.79998779297</ele>
        <time>2023-04-04T08:43:01.000Z</time>
      </trkpt>
      <trkpt lat="46.307" lon="6.93401">
        <ele>392.79998779297</ele>
        <time>2023-04-04T08:43:03.000Z</time>
      </trkpt>
      <trkpt lat="46.30695" lon="6.93403">
        <ele>392.79998779297</ele>
        <time>2023-04-04T08:43:04.000Z</time>
      </trkpt>
      <trkpt lat="46.30678" lon="6.93412">
        <ele>392.79998779297</ele>
        <time>2023-04-04T08:43:08.000Z</time>
      </trkpt>
      <trkpt lat="46.30673" lon="6.93414">
        <ele>392.79998779297</ele>
        <time>2023-04-04T08:43:09.000Z</time>
      </trkpt>
      <trkpt lat="46.30639" lon="6.93435">
        <ele>393</ele>
        <time>2023-04-04T08:43:17.000Z</time>
      </trkpt>
      <trkpt lat="46.30617" lon="6.9345">
        <ele>393</ele>
        <time>2023-04-04T08:43:22.000Z</time>
      </trkpt>
      <trkpt lat="46.30604" lon="6.93459">
        <ele>393</ele>
        <time>2023-04-04T08:43:25.000Z</time>
      </trkpt>
      <trkpt lat="46.30587" lon="6.93469">
        <ele>393</ele>
        <time>2023-04-04T08:43:29.000Z</time>
      </trkpt>
      <trkpt lat="46.30574" lon="6.93476">
        <ele>393.20001220703</ele>
        <time>2023-04-04T08:43:32.000Z</time>
      </trkpt>
      <trkpt lat="46.30569" lon="6.93478">
        <ele>393.20001220703</ele>
        <time>2023-04-04T08:43:33.000Z</time>
      </trkpt>
      <trkpt lat="46.30565" lon="6.9348">
        <ele>393.20001220703</ele>
        <time>2023-04-04T08:43:34.000Z</time>
      </trkpt>
      <trkpt lat="46.30561" lon="6.93482">
        <ele>393.20001220703</ele>
        <time>2023-04-04T08:43:35.000Z</time>
      </trkpt>
      <trkpt lat="46.30552" lon="6.93486">
        <ele>393.20001220703</ele>
        <time>2023-04-04T08:43:37.000Z</time>
      </trkpt>
      <trkpt lat="46.30548" lon="6.93488">
        <ele>393.20001220703</ele>
        <time>2023-04-04T08:43:38.000Z</time>
      </trkpt>
      <trkpt lat="46.30544" lon="6.93489">
        <ele>393.20001220703</ele>
        <time>2023-04-04T08:43:39.000Z</time>
      </trkpt>
      <trkpt lat="46.30539" lon="6.93491">
        <ele>393.20001220703</ele>
        <time>2023-04-04T08:43:40.000Z</time>
      </trkpt>
      <trkpt lat="46.30517" lon="6.93499">
        <ele>393.20001220703</ele>
        <time>2023-04-04T08:43:45.000Z</time>
      </trkpt>
      <trkpt lat="46.30508" lon="6.93503">
        <ele>393.20001220703</ele>
        <time>2023-04-04T08:43:47.000Z</time>
      </trkpt>
      <trkpt lat="46.30504" lon="6.93504">
        <ele>393.20001220703</ele>
        <time>2023-04-04T08:43:48.000Z</time>
      </trkpt>
      <trkpt lat="46.30491" lon="6.9351">
        <ele>393.39999389648</ele>
        <time>2023-04-04T08:43:51.000Z</time>
      </trkpt>
      <trkpt lat="46.30486" lon="6.93512">
        <ele>393.39999389648</ele>
        <time>2023-04-04T08:43:52.000Z</time>
      </trkpt>
      <trkpt lat="46.30477" lon="6.93515">
        <ele>393.39999389648</ele>
        <time>2023-04-04T08:43:54.000Z</time>
      </trkpt>
      <trkpt lat="46.30473" lon="6.93517">
        <ele>393.39999389648</ele>
        <time>2023-04-04T08:43:55.000Z</time>
      </trkpt>
      <trkpt lat="46.30468" lon="6.93519">
        <ele>393.39999389648</ele>
        <time>2023-04-04T08:43:56.000Z</time>
      </trkpt>
      <trkpt lat="46.30426" lon="6.93533">
        <ele>393.39999389648</ele>
        <time>2023-04-04T08:44:05.000Z</time>
      </trkpt>
      <trkpt lat="46.30408" lon="6.93538">
        <ele>393.39999389648</ele>
        <time>2023-04-04T08:44:09.000Z</time>
      </trkpt>
      <trkpt lat="46.304" lon="6.93541">
        <ele>393.39999389648</ele>
        <time>2023-04-04T08:44:11.000Z</time>
      </trkpt>
      <trkpt lat="46.30395" lon="6.93542">
        <ele>393.39999389648</ele>
        <time>2023-04-04T08:44:12.000Z</time>
      </trkpt>
      <trkpt lat="46.30391" lon="6.93543">
        <ele>393.60000610352</ele>
        <time>2023-04-04T08:44:13.000Z</time>
      </trkpt>
      <trkpt lat="46.30386" lon="6.93544">
        <ele>393.20001220703</ele>
        <time>2023-04-04T08:44:14.000Z</time>
      </trkpt>
      <trkpt lat="46.30382" lon="6.93545">
        <ele>393.39999389648</ele>
        <time>2023-04-04T08:44:15.000Z</time>
      </trkpt>
      <trkpt lat="46.30377" lon="6.93546">
        <ele>393.39999389648</ele>
        <time>2023-04-04T08:44:16.000Z</time>
      </trkpt>
      <trkpt lat="46.30368" lon="6.93548">
        <ele>393.39999389648</ele>
        <time>2023-04-04T08:44:18.000Z</time>
      </trkpt>
      <trkpt lat="46.30364" lon="6.93549">
        <ele>393.20001220703</ele>
        <time>2023-04-04T08:44:19.000Z</time>
      </trkpt>
      <trkpt lat="46.30349" lon="6.9355">
        <ele>393.60000610352</ele>
        <time>2023-04-04T08:44:22.000Z</time>
      </trkpt>
      <trkpt lat="46.30302" lon="6.93547">
        <ele>393.60000610352</ele>
        <time>2023-04-04T08:44:32.000Z</time>
      </trkpt>
      <trkpt lat="46.30259" lon="6.93544">
        <ele>393.60000610352</ele>
        <time>2023-04-04T08:44:41.000Z</time>
      </trkpt>
      <trkpt lat="46.30216" lon="6.9354">
        <ele>393.60000610352</ele>
        <time>2023-04-04T08:44:50.000Z</time>
      </trkpt>
      <trkpt lat="46.30169" lon="6.93535">
        <ele>393.60000610352</ele>
        <time>2023-04-04T08:45:00.000Z</time>
      </trkpt>
      <trkpt lat="46.30165" lon="6.93534">
        <ele>393.60000610352</ele>
        <time>2023-04-04T08:45:01.000Z</time>
      </trkpt>
      <trkpt lat="46.3016" lon="6.93534">
        <ele>393.60000610352</ele>
        <time>2023-04-04T08:45:02.000Z</time>
      </trkpt>
      <trkpt lat="46.30155" lon="6.93534">
        <ele>393.60000610352</ele>
        <time>2023-04-04T08:45:03.000Z</time>
      </trkpt>
      <trkpt lat="46.30118" lon="6.93533">
        <ele>393.79998779297</ele>
        <time>2023-04-04T08:45:11.000Z</time>
      </trkpt>
      <trkpt lat="46.30108" lon="6.93534">
        <ele>393.79998779297</ele>
        <time>2023-04-04T08:45:13.000Z</time>
      </trkpt>
      <trkpt lat="46.3005" lon="6.9354">
        <ele>393.60000610352</ele>
        <time>2023-04-04T08:45:25.000Z</time>
      </trkpt>
      <trkpt lat="46.30046" lon="6.93541">
        <ele>393.60000610352</ele>
        <time>2023-04-04T08:45:26.000Z</time>
      </trkpt>
      <trkpt lat="46.30036" lon="6.93542">
        <ele>393.60000610352</ele>
        <time>2023-04-04T08:45:28.000Z</time>
      </trkpt>
      <trkpt lat="46.30031" lon="6.93543">
        <ele>393.60000610352</ele>
        <time>2023-04-04T08:45:29.000Z</time>
      </trkpt>
      <trkpt lat="46.30027" lon="6.93543">
        <ele>393.60000610352</ele>
        <time>2023-04-04T08:45:30.000Z</time>
      </trkpt>
      <trkpt lat="46.30004" lon="6.93547">
        <ele>393.60000610352</ele>
        <time>2023-04-04T08:45:35.000Z</time>
      </trkpt>
      <trkpt lat="46.29999" lon="6.93548">
        <ele>393.60000610352</ele>
        <time>2023-04-04T08:45:36.000Z</time>
      </trkpt>
      <trkpt lat="46.29994" lon="6.93548">
        <ele>393.60000610352</ele>
        <time>2023-04-04T08:45:37.000Z</time>
      </trkpt>
      <trkpt lat="46.29989" lon="6.93548">
        <ele>393.60000610352</ele>
        <time>2023-04-04T08:45:38.000Z</time>
      </trkpt>
      <trkpt lat="46.29985" lon="6.93549">
        <ele>393.60000610352</ele>
        <time>2023-04-04T08:45:39.000Z</time>
      </trkpt>
      <trkpt lat="46.29966" lon="6.93551">
        <ele>393.79998779297</ele>
        <time>2023-04-04T08:45:43.000Z</time>
      </trkpt>
      <trkpt lat="46.29914" lon="6.93564">
        <ele>393.79998779297</ele>
        <time>2023-04-04T08:45:54.000Z</time>
      </trkpt>
      <trkpt lat="46.29863" lon="6.93586">
        <ele>393.79998779297</ele>
        <time>2023-04-04T08:46:05.000Z</time>
      </trkpt>
      <trkpt lat="46.29834" lon="6.93599">
        <ele>394</ele>
        <time>2023-04-04T08:46:11.000Z</time>
      </trkpt>
      <trkpt lat="46.2983" lon="6.93601">
        <ele>394</ele>
        <time>2023-04-04T08:46:12.000Z</time>
      </trkpt>
      <trkpt lat="46.29825" lon="6.93603">
        <ele>394</ele>
        <time>2023-04-04T08:46:13.000Z</time>
      </trkpt>
      <trkpt lat="46.29821" lon="6.93605">
        <ele>394</ele>
        <time>2023-04-04T08:46:14.000Z</time>
      </trkpt>
      <trkpt lat="46.29811" lon="6.9361">
        <ele>393.79998779297</ele>
        <time>2023-04-04T08:46:16.000Z</time>
      </trkpt>
      <trkpt lat="46.29807" lon="6.93611">
        <ele>394</ele>
        <time>2023-04-04T08:46:17.000Z</time>
      </trkpt>
      <trkpt lat="46.29802" lon="6.93614">
        <ele>394</ele>
        <time>2023-04-04T08:46:18.000Z</time>
      </trkpt>
      <trkpt lat="46.29798" lon="6.93616">
        <ele>394</ele>
        <time>2023-04-04T08:46:19.000Z</time>
      </trkpt>
      <trkpt lat="46.2978" lon="6.93625">
        <ele>394</ele>
        <time>2023-04-04T08:46:23.000Z</time>
      </trkpt>
      <trkpt lat="46.29776" lon="6.93628">
        <ele>394</ele>
        <time>2023-04-04T08:46:24.000Z</time>
      </trkpt>
      <trkpt lat="46.29737" lon="6.93652">
        <ele>393.79998779297</ele>
        <time>2023-04-04T08:46:33.000Z</time>
      </trkpt>
      <trkpt lat="46.29732" lon="6.93655">
        <ele>393.79998779297</ele>
        <time>2023-04-04T08:46:34.000Z</time>
      </trkpt>
      <trkpt lat="46.29716" lon="6.93669">
        <ele>393.79998779297</ele>
        <time>2023-04-04T08:46:38.000Z</time>
      </trkpt>
      <trkpt lat="46.297" lon="6.93685">
        <ele>394</ele>
        <time>2023-04-04T08:46:42.000Z</time>
      </trkpt>
      <trkpt lat="46.29673" lon="6.93713">
        <ele>394</ele>
        <time>2023-04-04T08:46:49.000Z</time>
      </trkpt>
      <trkpt lat="46.29669" lon="6.93717">
        <ele>394.20001220703</ele>
        <time>2023-04-04T08:46:50.000Z</time>
      </trkpt>
      <trkpt lat="46.29662" lon="6.93725">
        <ele>394.39999389648</ele>
        <time>2023-04-04T08:46:52.000Z</time>
      </trkpt>
      <trkpt lat="46.29658" lon="6.9373">
        <ele>394.39999389648</ele>
        <time>2023-04-04T08:46:53.000Z</time>
      </trkpt>
      <trkpt lat="46.29626" lon="6.9377">
        <ele>394.60000610352</ele>
        <time>2023-04-04T08:47:02.000Z</time>
      </trkpt>
      <trkpt lat="46.29587" lon="6.9382">
        <ele>394.79998779297</ele>
        <time>2023-04-04T08:47:13.000Z</time>
      </trkpt>
      <trkpt lat="46.29555" lon="6.93871">
        <ele>394.79998779297</ele>
        <time>2023-04-04T08:47:23.000Z</time>
      </trkpt>
      <trkpt lat="46.29543" lon="6.93893">
        <ele>394.79998779297</ele>
        <time>2023-04-04T08:47:27.000Z</time>
      </trkpt>
      <trkpt lat="46.2954" lon="6.93899">
        <ele>394.79998779297</ele>
        <time>2023-04-04T08:47:28.000Z</time>
      </trkpt>
      <trkpt lat="46.29532" lon="6.93915">
        <ele>394.79998779297</ele>
        <time>2023-04-04T08:47:31.000Z</time>
      </trkpt>
      <trkpt lat="46.29521" lon="6.93936">
        <ele>395</ele>
        <time>2023-04-04T08:47:35.000Z</time>
      </trkpt>
      <trkpt lat="46.29515" lon="6.93955">
        <ele>394.79998779297</ele>
        <time>2023-04-04T08:47:38.000Z</time>
      </trkpt>
      <trkpt lat="46.29512" lon="6.93961">
        <ele>394.79998779297</ele>
        <time>2023-04-04T08:47:39.000Z</time>
      </trkpt>
      <trkpt lat="46.2949" lon="6.94">
        <ele>394.79998779297</ele>
        <time>2023-04-04T08:47:46.000Z</time>
      </trkpt>
      <trkpt lat="46.29479" lon="6.94022">
        <ele>394.79998779297</ele>
        <time>2023-04-04T08:47:50.000Z</time>
      </trkpt>
      <trkpt lat="46.29476" lon="6.94028">
        <ele>394.79998779297</ele>
        <time>2023-04-04T08:47:51.000Z</time>
      </trkpt>
      <trkpt lat="46.29473" lon="6.94033">
        <ele>394.79998779297</ele>
        <time>2023-04-04T08:47:52.000Z</time>
      </trkpt>
      <trkpt lat="46.2947" lon="6.94038">
        <ele>394.79998779297</ele>
        <time>2023-04-04T08:47:53.000Z</time>
      </trkpt>
      <trkpt lat="46.29467" lon="6.94043">
        <ele>394.79998779297</ele>
        <time>2023-04-04T08:47:54.000Z</time>
      </trkpt>
      <trkpt lat="46.29464" lon="6.94048">
        <ele>394.79998779297</ele>
        <time>2023-04-04T08:47:55.000Z</time>
      </trkpt>
      <trkpt lat="46.29461" lon="6.94053">
        <ele>394.79998779297</ele>
        <time>2023-04-04T08:47:56.000Z</time>
      </trkpt>
      <trkpt lat="46.29458" lon="6.94057">
        <ele>395</ele>
        <time>2023-04-04T08:47:57.000Z</time>
      </trkpt>
      <trkpt lat="46.29455" lon="6.94062">
        <ele>395</ele>
        <time>2023-04-04T08:47:58.000Z</time>
      </trkpt>
      <trkpt lat="46.29452" lon="6.94068">
        <ele>395</ele>
        <time>2023-04-04T08:47:59.000Z</time>
      </trkpt>
      <trkpt lat="46.29449" lon="6.94073">
        <ele>395.20001220703</ele>
        <time>2023-04-04T08:48:00.000Z</time>
      </trkpt>
      <trkpt lat="46.29445" lon="6.94078">
        <ele>395.20001220703</ele>
        <time>2023-04-04T08:48:01.000Z</time>
      </trkpt>
      <trkpt lat="46.29413" lon="6.9413">
        <ele>395.20001220703</ele>
        <time>2023-04-04T08:48:11.000Z</time>
      </trkpt>
      <trkpt lat="46.29392" lon="6.94168">
        <ele>395.20001220703</ele>
        <time>2023-04-04T08:48:18.000Z</time>
      </trkpt>
      <trkpt lat="46.29383" lon="6.94185">
        <ele>395.20001220703</ele>
        <time>2023-04-04T08:48:21.000Z</time>
      </trkpt>
      <trkpt lat="46.2936" lon="6.94238">
        <ele>395.20001220703</ele>
        <time>2023-04-04T08:48:30.000Z</time>
      </trkpt>
      <trkpt lat="46.29353" lon="6.94258">
        <ele>395.20001220703</ele>
        <time>2023-04-04T08:48:33.000Z</time>
      </trkpt>
      <trkpt lat="46.29337" lon="6.94295">
        <ele>395.20001220703</ele>
        <time>2023-04-04T08:48:39.000Z</time>
      </trkpt>
      <trkpt lat="46.29328" lon="6.9432">
        <ele>395.20001220703</ele>
        <time>2023-04-04T08:48:43.000Z</time>
      </trkpt>
      <trkpt lat="46.29326" lon="6.94326">
        <ele>395.20001220703</ele>
        <time>2023-04-04T08:48:44.000Z</time>
      </trkpt>
      <trkpt lat="46.29324" lon="6.94332">
        <ele>395.20001220703</ele>
        <time>2023-04-04T08:48:45.000Z</time>
      </trkpt>
      <trkpt lat="46.29322" lon="6.94338">
        <ele>395.20001220703</ele>
        <time>2023-04-04T08:48:46.000Z</time>
      </trkpt>
      <trkpt lat="46.29318" lon="6.9435">
        <ele>395.20001220703</ele>
        <time>2023-04-04T08:48:48.000Z</time>
      </trkpt>
      <trkpt lat="46.29296" lon="6.94415">
        <ele>395.39999389648</ele>
        <time>2023-04-04T08:48:58.000Z</time>
      </trkpt>
      <trkpt lat="46.29286" lon="6.94439">
        <ele>395.39999389648</ele>
        <time>2023-04-04T08:49:02.000Z</time>
      </trkpt>
      <trkpt lat="46.29284" lon="6.94445">
        <ele>395.39999389648</ele>
        <time>2023-04-04T08:49:03.000Z</time>
      </trkpt>
      <trkpt lat="46.29282" lon="6.94451">
        <ele>395.39999389648</ele>
        <time>2023-04-04T08:49:04.000Z</time>
      </trkpt>
      <trkpt lat="46.2928" lon="6.94457">
        <ele>395.39999389648</ele>
        <time>2023-04-04T08:49:05.000Z</time>
      </trkpt>
      <trkpt lat="46.29273" lon="6.94475">
        <ele>395.39999389648</ele>
        <time>2023-04-04T08:49:08.000Z</time>
      </trkpt>
      <trkpt lat="46.29251" lon="6.94538">
        <ele>395</ele>
        <time>2023-04-04T08:49:18.000Z</time>
      </trkpt>
      <trkpt lat="46.29249" lon="6.94544">
        <ele>395</ele>
        <time>2023-04-04T08:49:19.000Z</time>
      </trkpt>
      <trkpt lat="46.29246" lon="6.9455">
        <ele>395</ele>
        <time>2023-04-04T08:49:20.000Z</time>
      </trkpt>
      <trkpt lat="46.29244" lon="6.94556">
        <ele>395</ele>
        <time>2023-04-04T08:49:21.000Z</time>
      </trkpt>
      <trkpt lat="46.2924" lon="6.94568">
        <ele>395</ele>
        <time>2023-04-04T08:49:23.000Z</time>
      </trkpt>
      <trkpt lat="46.29238" lon="6.94574">
        <ele>395</ele>
        <time>2023-04-04T08:49:24.000Z</time>
      </trkpt>
      <trkpt lat="46.29236" lon="6.9458">
        <ele>395.20001220703</ele>
        <time>2023-04-04T08:49:25.000Z</time>
      </trkpt>
      <trkpt lat="46.2923" lon="6.94596">
        <ele>395.20001220703</ele>
        <time>2023-04-04T08:49:28.000Z</time>
      </trkpt>
      <trkpt lat="46.29228" lon="6.94602">
        <ele>395.20001220703</ele>
        <time>2023-04-04T08:49:29.000Z</time>
      </trkpt>
      <trkpt lat="46.29227" lon="6.94608">
        <ele>395.20001220703</ele>
        <time>2023-04-04T08:49:30.000Z</time>
      </trkpt>
      <trkpt lat="46.29204" lon="6.94675">
        <ele>395.39999389648</ele>
        <time>2023-04-04T08:49:41.000Z</time>
      </trkpt>
      <trkpt lat="46.29189" lon="6.94717">
        <ele>395.20001220703</ele>
        <time>2023-04-04T08:49:48.000Z</time>
      </trkpt>
      <trkpt lat="46.29187" lon="6.94722">
        <ele>395.39999389648</ele>
        <time>2023-04-04T08:49:49.000Z</time>
      </trkpt>
      <trkpt lat="46.29185" lon="6.94728">
        <ele>395.39999389648</ele>
        <time>2023-04-04T08:49:50.000Z</time>
      </trkpt>
      <trkpt lat="46.29168" lon="6.94768">
        <ele>395.39999389648</ele>
        <time>2023-04-04T08:49:57.000Z</time>
      </trkpt>
      <trkpt lat="46.2914" lon="6.94826">
        <ele>395.39999389648</ele>
        <time>2023-04-04T08:50:07.000Z</time>
      </trkpt>
      <trkpt lat="46.29131" lon="6.94842">
        <ele>395.39999389648</ele>
        <time>2023-04-04T08:50:10.000Z</time>
      </trkpt>
      <trkpt lat="46.2911" lon="6.94879">
        <ele>395.60000610352</ele>
        <time>2023-04-04T08:50:17.000Z</time>
      </trkpt>
      <trkpt lat="46.29104" lon="6.94889">
        <ele>395.60000610352</ele>
        <time>2023-04-04T08:50:19.000Z</time>
      </trkpt>
      <trkpt lat="46.29102" lon="6.94895">
        <ele>395.60000610352</ele>
        <time>2023-04-04T08:50:20.000Z</time>
      </trkpt>
      <trkpt lat="46.29099" lon="6.949">
        <ele>395.60000610352</ele>
        <time>2023-04-04T08:50:21.000Z</time>
      </trkpt>
      <trkpt lat="46.29096" lon="6.94905">
        <ele>395.60000610352</ele>
        <time>2023-04-04T08:50:22.000Z</time>
      </trkpt>
      <trkpt lat="46.29087" lon="6.94921">
        <ele>395.60000610352</ele>
        <time>2023-04-04T08:50:25.000Z</time>
      </trkpt>
      <trkpt lat="46.29084" lon="6.94925">
        <ele>395.79998779297</ele>
        <time>2023-04-04T08:50:26.000Z</time>
      </trkpt>
      <trkpt lat="46.29071" lon="6.94945">
        <ele>395.79998779297</ele>
        <time>2023-04-04T08:50:30.000Z</time>
      </trkpt>
      <trkpt lat="46.2905" lon="6.9498">
        <ele>395.79998779297</ele>
        <time>2023-04-04T08:50:37.000Z</time>
      </trkpt>
      <trkpt lat="46.29047" lon="6.94985">
        <ele>395.79998779297</ele>
        <time>2023-04-04T08:50:38.000Z</time>
      </trkpt>
      <trkpt lat="46.29043" lon="6.9499">
        <ele>395.79998779297</ele>
        <time>2023-04-04T08:50:39.000Z</time>
      </trkpt>
      <trkpt lat="46.29034" lon="6.95004">
        <ele>395.79998779297</ele>
        <time>2023-04-04T08:50:42.000Z</time>
      </trkpt>
      <trkpt lat="46.29031" lon="6.95009">
        <ele>395.79998779297</ele>
        <time>2023-04-04T08:50:43.000Z</time>
      </trkpt>
      <trkpt lat="46.29028" lon="6.95015">
        <ele>395.79998779297</ele>
        <time>2023-04-04T08:50:44.000Z</time>
      </trkpt>
      <trkpt lat="46.29025" lon="6.95019">
        <ele>395.79998779297</ele>
        <time>2023-04-04T08:50:45.000Z</time>
      </trkpt>
      <trkpt lat="46.28997" lon="6.95065">
        <ele>395.79998779297</ele>
        <time>2023-04-04T08:50:54.000Z</time>
      </trkpt>
      <trkpt lat="46.28959" lon="6.95127">
        <ele>395.79998779297</ele>
        <time>2023-04-04T08:51:06.000Z</time>
      </trkpt>
      <trkpt lat="46.28931" lon="6.95166">
        <ele>395.79998779297</ele>
        <time>2023-04-04T08:51:14.000Z</time>
      </trkpt>
      <trkpt lat="46.28909" lon="6.95193">
        <ele>396</ele>
        <time>2023-04-04T08:51:20.000Z</time>
      </trkpt>
      <trkpt lat="46.28894" lon="6.95211">
        <ele>396.20001220703</ele>
        <time>2023-04-04T08:51:24.000Z</time>
      </trkpt>
      <trkpt lat="46.28891" lon="6.95215">
        <ele>396.20001220703</ele>
        <time>2023-04-04T08:51:25.000Z</time>
      </trkpt>
      <trkpt lat="46.28888" lon="6.9522">
        <ele>396.20001220703</ele>
        <time>2023-04-04T08:51:26.000Z</time>
      </trkpt>
      <trkpt lat="46.28884" lon="6.95224">
        <ele>396.20001220703</ele>
        <time>2023-04-04T08:51:27.000Z</time>
      </trkpt>
      <trkpt lat="46.28881" lon="6.95228">
        <ele>396.20001220703</ele>
        <time>2023-04-04T08:51:28.000Z</time>
      </trkpt>
      <trkpt lat="46.2888" lon="6.95231">
        <ele>396.20001220703</ele>
        <time>2023-04-04T08:51:29.000Z</time>
      </trkpt>
      <trkpt lat="46.28879" lon="6.95232">
        <ele>396.20001220703</ele>
        <time>2023-04-04T08:51:30.000Z</time>
      </trkpt>
      <trkpt lat="46.28879" lon="6.95232">
        <ele>396.20001220703</ele>
        <time>2023-04-04T08:51:32.000Z</time>
      </trkpt>
      <trkpt lat="46.28876" lon="6.95235">
        <ele>396.39999389648</ele>
        <time>2023-04-04T08:51:45.000Z</time>
      </trkpt>
      <trkpt lat="46.28875" lon="6.95238">
        <ele>396.39999389648</ele>
        <time>2023-04-04T08:51:46.000Z</time>
      </trkpt>
      <trkpt lat="46.28873" lon="6.9524">
        <ele>396.39999389648</ele>
        <time>2023-04-04T08:51:47.000Z</time>
      </trkpt>
      <trkpt lat="46.28866" lon="6.95247">
        <ele>396.39999389648</ele>
        <time>2023-04-04T08:51:50.000Z</time>
      </trkpt>
      <trkpt lat="46.28849" lon="6.95271">
        <ele>396.39999389648</ele>
        <time>2023-04-04T08:51:56.000Z</time>
      </trkpt>
      <trkpt lat="46.28846" lon="6.95275">
        <ele>396.39999389648</ele>
        <time>2023-04-04T08:51:57.000Z</time>
      </trkpt>
      <trkpt lat="46.28829" lon="6.95299">
        <ele>396.20001220703</ele>
        <time>2023-04-04T08:52:02.000Z</time>
      </trkpt>
      <trkpt lat="46.2882" lon="6.95314">
        <ele>396.20001220703</ele>
        <time>2023-04-04T08:52:05.000Z</time>
      </trkpt>
      <trkpt lat="46.2879" lon="6.95358">
        <ele>396.20001220703</ele>
        <time>2023-04-04T08:52:14.000Z</time>
      </trkpt>
      <trkpt lat="46.28752" lon="6.95416">
        <ele>396.39999389648</ele>
        <time>2023-04-04T08:52:25.000Z</time>
      </trkpt>
      <trkpt lat="46.28749" lon="6.95421">
        <ele>396.20001220703</ele>
        <time>2023-04-04T08:52:26.000Z</time>
      </trkpt>
      <trkpt lat="46.28717" lon="6.95468">
        <ele>396.20001220703</ele>
        <time>2023-04-04T08:52:35.000Z</time>
      </trkpt>
      <trkpt lat="46.28686" lon="6.95517">
        <ele>396.20001220703</ele>
        <time>2023-04-04T08:52:44.000Z</time>
      </trkpt>
      <trkpt lat="46.28653" lon="6.95568">
        <ele>396.39999389648</ele>
        <time>2023-04-04T08:52:53.000Z</time>
      </trkpt>
      <trkpt lat="46.28616" lon="6.95625">
        <ele>396.39999389648</ele>
        <time>2023-04-04T08:53:03.000Z</time>
      </trkpt>
      <trkpt lat="46.28578" lon="6.95682">
        <ele>396.39999389648</ele>
        <time>2023-04-04T08:53:13.000Z</time>
      </trkpt>
      <trkpt lat="46.28574" lon="6.95688">
        <ele>396.60000610352</ele>
        <time>2023-04-04T08:53:14.000Z</time>
      </trkpt>
      <trkpt lat="46.28539" lon="6.95737">
        <ele>396.60000610352</ele>
        <time>2023-04-04T08:53:23.000Z</time>
      </trkpt>
      <trkpt lat="46.28507" lon="6.95778">
        <ele>396.60000610352</ele>
        <time>2023-04-04T08:53:31.000Z</time>
      </trkpt>
      <trkpt lat="46.28502" lon="6.95783">
        <ele>396.60000610352</ele>
        <time>2023-04-04T08:53:32.000Z</time>
      </trkpt>
      <trkpt lat="46.28494" lon="6.95793">
        <ele>396.79998779297</ele>
        <time>2023-04-04T08:53:34.000Z</time>
      </trkpt>
      <trkpt lat="46.28486" lon="6.95803">
        <ele>396.79998779297</ele>
        <time>2023-04-04T08:53:36.000Z</time>
      </trkpt>
      <trkpt lat="46.28482" lon="6.95808">
        <ele>396.79998779297</ele>
        <time>2023-04-04T08:53:37.000Z</time>
      </trkpt>
      <trkpt lat="46.28448" lon="6.95848">
        <ele>396.79998779297</ele>
        <time>2023-04-04T08:53:45.000Z</time>
      </trkpt>
      <trkpt lat="46.28423" lon="6.95876">
        <ele>396.79998779297</ele>
        <time>2023-04-04T08:53:51.000Z</time>
      </trkpt>
      <trkpt lat="46.28405" lon="6.95893">
        <ele>396.79998779297</ele>
        <time>2023-04-04T08:53:55.000Z</time>
      </trkpt>
      <trkpt lat="46.28369" lon="6.95922">
        <ele>396.60000610352</ele>
        <time>2023-04-04T08:54:03.000Z</time>
      </trkpt>
      <trkpt lat="46.28364" lon="6.95925">
        <ele>396.60000610352</ele>
        <time>2023-04-04T08:54:04.000Z</time>
      </trkpt>
      <trkpt lat="46.28355" lon="6.95932">
        <ele>396.60000610352</ele>
        <time>2023-04-04T08:54:06.000Z</time>
      </trkpt>
      <trkpt lat="46.28323" lon="6.95956">
        <ele>396.60000610352</ele>
        <time>2023-04-04T08:54:13.000Z</time>
      </trkpt>
      <trkpt lat="46.28314" lon="6.95963">
        <ele>396.79998779297</ele>
        <time>2023-04-04T08:54:15.000Z</time>
      </trkpt>
      <trkpt lat="46.28309" lon="6.95966">
        <ele>396.79998779297</ele>
        <time>2023-04-04T08:54:16.000Z</time>
      </trkpt>
      <trkpt lat="46.28305" lon="6.95969">
        <ele>396.79998779297</ele>
        <time>2023-04-04T08:54:17.000Z</time>
      </trkpt>
      <trkpt lat="46.283" lon="6.95973">
        <ele>396.79998779297</ele>
        <time>2023-04-04T08:54:18.000Z</time>
      </trkpt>
      <trkpt lat="46.28291" lon="6.95979">
        <ele>396.79998779297</ele>
        <time>2023-04-04T08:54:20.000Z</time>
      </trkpt>
      <trkpt lat="46.28243" lon="6.96011">
        <ele>397</ele>
        <time>2023-04-04T08:54:30.000Z</time>
      </trkpt>
      <trkpt lat="46.28213" lon="6.96022">
        <ele>397</ele>
        <time>2023-04-04T08:54:36.000Z</time>
      </trkpt>
      <trkpt lat="46.28199" lon="6.96028">
        <ele>397</ele>
        <time>2023-04-04T08:54:39.000Z</time>
      </trkpt>
      <trkpt lat="46.28189" lon="6.96031">
        <ele>397.20001220703</ele>
        <time>2023-04-04T08:54:41.000Z</time>
      </trkpt>
      <trkpt lat="46.28184" lon="6.96032">
        <ele>397.20001220703</ele>
        <time>2023-04-04T08:54:42.000Z</time>
      </trkpt>
      <trkpt lat="46.28179" lon="6.96034">
        <ele>397.20001220703</ele>
        <time>2023-04-04T08:54:43.000Z</time>
      </trkpt>
      <trkpt lat="46.28174" lon="6.96036">
        <ele>397.20001220703</ele>
        <time>2023-04-04T08:54:44.000Z</time>
      </trkpt>
      <trkpt lat="46.28169" lon="6.96038">
        <ele>397.20001220703</ele>
        <time>2023-04-04T08:54:45.000Z</time>
      </trkpt>
      <trkpt lat="46.28149" lon="6.96043">
        <ele>397.20001220703</ele>
        <time>2023-04-04T08:54:49.000Z</time>
      </trkpt>
      <trkpt lat="46.28119" lon="6.96053">
        <ele>397.20001220703</ele>
        <time>2023-04-04T08:54:55.000Z</time>
      </trkpt>
      <trkpt lat="46.28104" lon="6.96058">
        <ele>397.20001220703</ele>
        <time>2023-04-04T08:54:58.000Z</time>
      </trkpt>
      <trkpt lat="46.28069" lon="6.9607">
        <ele>397.39999389648</ele>
        <time>2023-04-04T08:55:05.000Z</time>
      </trkpt>
      <trkpt lat="46.28059" lon="6.96074">
        <ele>397.39999389648</ele>
        <time>2023-04-04T08:55:07.000Z</time>
      </trkpt>
      <trkpt lat="46.28048" lon="6.96077">
        <ele>397.39999389648</ele>
        <time>2023-04-04T08:55:09.000Z</time>
      </trkpt>
      <trkpt lat="46.28039" lon="6.96081">
        <ele>397.39999389648</ele>
        <time>2023-04-04T08:55:11.000Z</time>
      </trkpt>
      <trkpt lat="46.27999" lon="6.96094">
        <ele>397.20001220703</ele>
        <time>2023-04-04T08:55:19.000Z</time>
      </trkpt>
      <trkpt lat="46.27994" lon="6.96096">
        <ele>397.20001220703</ele>
        <time>2023-04-04T08:55:20.000Z</time>
      </trkpt>
      <trkpt lat="46.27989" lon="6.96098">
        <ele>397.20001220703</ele>
        <time>2023-04-04T08:55:21.000Z</time>
      </trkpt>
      <trkpt lat="46.27969" lon="6.96105">
        <ele>397.20001220703</ele>
        <time>2023-04-04T08:55:25.000Z</time>
      </trkpt>
      <trkpt lat="46.27965" lon="6.96107">
        <ele>397.20001220703</ele>
        <time>2023-04-04T08:55:26.000Z</time>
      </trkpt>
      <trkpt lat="46.2796" lon="6.96108">
        <ele>397.20001220703</ele>
        <time>2023-04-04T08:55:27.000Z</time>
      </trkpt>
      <trkpt lat="46.27955" lon="6.9611">
        <ele>397.20001220703</ele>
        <time>2023-04-04T08:55:28.000Z</time>
      </trkpt>
      <trkpt lat="46.2795" lon="6.96112">
        <ele>397.20001220703</ele>
        <time>2023-04-04T08:55:29.000Z</time>
      </trkpt>
      <trkpt lat="46.27945" lon="6.96113">
        <ele>397.20001220703</ele>
        <time>2023-04-04T08:55:30.000Z</time>
      </trkpt>
      <trkpt lat="46.27915" lon="6.96121">
        <ele>397.20001220703</ele>
        <time>2023-04-04T08:55:36.000Z</time>
      </trkpt>
      <trkpt lat="46.27876" lon="6.96132">
        <ele>397.39999389648</ele>
        <time>2023-04-04T08:55:44.000Z</time>
      </trkpt>
      <trkpt lat="46.27871" lon="6.96133">
        <ele>397.39999389648</ele>
        <time>2023-04-04T08:55:45.000Z</time>
      </trkpt>
      <trkpt lat="46.27867" lon="6.96135">
        <ele>397.39999389648</ele>
        <time>2023-04-04T08:55:46.000Z</time>
      </trkpt>
      <trkpt lat="46.27862" lon="6.96136">
        <ele>397.60000610352</ele>
        <time>2023-04-04T08:55:47.000Z</time>
      </trkpt>
      <trkpt lat="46.27847" lon="6.96141">
        <ele>397.60000610352</ele>
        <time>2023-04-04T08:55:50.000Z</time>
      </trkpt>
      <trkpt lat="46.27842" lon="6.96142">
        <ele>397.60000610352</ele>
        <time>2023-04-04T08:55:51.000Z</time>
      </trkpt>
      <trkpt lat="46.27832" lon="6.96145">
        <ele>397.60000610352</ele>
        <time>2023-04-04T08:55:53.000Z</time>
      </trkpt>
      <trkpt lat="46.27827" lon="6.96147">
        <ele>397.60000610352</ele>
        <time>2023-04-04T08:55:54.000Z</time>
      </trkpt>
      <trkpt lat="46.27823" lon="6.96148">
        <ele>397.60000610352</ele>
        <time>2023-04-04T08:55:55.000Z</time>
      </trkpt>
      <trkpt lat="46.27813" lon="6.96152">
        <ele>397.60000610352</ele>
        <time>2023-04-04T08:55:57.000Z</time>
      </trkpt>
      <trkpt lat="46.27803" lon="6.96154">
        <ele>397.60000610352</ele>
        <time>2023-04-04T08:55:59.000Z</time>
      </trkpt>
      <trkpt lat="46.27793" lon="6.96157">
        <ele>397.60000610352</ele>
        <time>2023-04-04T08:56:01.000Z</time>
      </trkpt>
      <trkpt lat="46.27782" lon="6.9616">
        <ele>397.60000610352</ele>
        <time>2023-04-04T08:56:03.000Z</time>
      </trkpt>
      <trkpt lat="46.27776" lon="6.96161">
        <ele>397.60000610352</ele>
        <time>2023-04-04T08:56:04.000Z</time>
      </trkpt>
      <trkpt lat="46.27771" lon="6.9616">
        <ele>397.60000610352</ele>
        <time>2023-04-04T08:56:05.000Z</time>
      </trkpt>
      <trkpt lat="46.27762" lon="6.96162">
        <ele>397.39999389648</ele>
        <time>2023-04-04T08:56:07.000Z</time>
      </trkpt>
      <trkpt lat="46.27756" lon="6.96164">
        <ele>397.39999389648</ele>
        <time>2023-04-04T08:56:08.000Z</time>
      </trkpt>
      <trkpt lat="46.27751" lon="6.96165">
        <ele>397.39999389648</ele>
        <time>2023-04-04T08:56:09.000Z</time>
      </trkpt>
      <trkpt lat="46.27742" lon="6.96165">
        <ele>397.60000610352</ele>
        <time>2023-04-04T08:56:11.000Z</time>
      </trkpt>
      <trkpt lat="46.27738" lon="6.96166">
        <ele>397.60000610352</ele>
        <time>2023-04-04T08:56:12.000Z</time>
      </trkpt>
      <trkpt lat="46.277" lon="6.9618">
        <ele>397.79998779297</ele>
        <time>2023-04-04T08:56:20.000Z</time>
      </trkpt>
      <trkpt lat="46.27662" lon="6.9619">
        <ele>398</ele>
        <time>2023-04-04T08:56:28.000Z</time>
      </trkpt>
      <trkpt lat="46.27658" lon="6.96191">
        <ele>397.79998779297</ele>
        <time>2023-04-04T08:56:29.000Z</time>
      </trkpt>
      <trkpt lat="46.27654" lon="6.96193">
        <ele>397.79998779297</ele>
        <time>2023-04-04T08:56:30.000Z</time>
      </trkpt>
      <trkpt lat="46.27651" lon="6.96195">
        <ele>397.79998779297</ele>
        <time>2023-04-04T08:56:31.000Z</time>
      </trkpt>
      <trkpt lat="46.27648" lon="6.96198">
        <ele>397.79998779297</ele>
        <time>2023-04-04T08:56:32.000Z</time>
      </trkpt>
      <trkpt lat="46.27647" lon="6.96202">
        <ele>397.79998779297</ele>
        <time>2023-04-04T08:56:33.000Z</time>
      </trkpt>
      <trkpt lat="46.27644" lon="6.96205">
        <ele>397.60000610352</ele>
        <time>2023-04-04T08:56:34.000Z</time>
      </trkpt>
      <trkpt lat="46.27636" lon="6.96213">
        <ele>397.60000610352</ele>
        <time>2023-04-04T08:56:37.000Z</time>
      </trkpt>
      <trkpt lat="46.27632" lon="6.96215">
        <ele>397.39999389648</ele>
        <time>2023-04-04T08:56:38.000Z</time>
      </trkpt>
      <trkpt lat="46.27625" lon="6.96218">
        <ele>397.20001220703</ele>
        <time>2023-04-04T08:56:40.000Z</time>
      </trkpt>
      <trkpt lat="46.27622" lon="6.96216">
        <ele>397.20001220703</ele>
        <time>2023-04-04T08:56:41.000Z</time>
      </trkpt>
      <trkpt lat="46.27621" lon="6.96215">
        <ele>397.20001220703</ele>
        <time>2023-04-04T08:56:42.000Z</time>
      </trkpt>
      <trkpt lat="46.2762" lon="6.96214">
        <ele>397.20001220703</ele>
        <time>2023-04-04T08:56:43.000Z</time>
      </trkpt>
      <trkpt lat="46.27618" lon="6.96214">
        <ele>397.20001220703</ele>
        <time>2023-04-04T08:56:44.000Z</time>
      </trkpt>
      <trkpt lat="46.27618" lon="6.96213">
        <ele>397.20001220703</ele>
        <time>2023-04-04T08:56:45.000Z</time>
      </trkpt>
      <trkpt lat="46.27617" lon="6.96212">
        <ele>397.20001220703</ele>
        <time>2023-04-04T08:56:46.000Z</time>
      </trkpt>
      <trkpt lat="46.27616" lon="6.96211">
        <ele>397.20001220703</ele>
        <time>2023-04-04T08:56:47.000Z</time>
      </trkpt>
      <trkpt lat="46.27615" lon="6.96208">
        <ele>397.20001220703</ele>
        <time>2023-04-04T08:56:48.000Z</time>
      </trkpt>
      <trkpt lat="46.27614" lon="6.96207">
        <ele>397.39999389648</ele>
        <time>2023-04-04T08:56:49.000Z</time>
      </trkpt>
      <trkpt lat="46.27614" lon="6.96206">
        <ele>397.60000610352</ele>
        <time>2023-04-04T08:56:51.000Z</time>
      </trkpt>
      <trkpt lat="46.27612" lon="6.96204">
        <ele>397.20001220703</ele>
        <time>2023-04-04T08:57:11.000Z</time>
      </trkpt>
      <trkpt lat="46.27608" lon="6.96203">
        <ele>397.20001220703</ele>
        <time>2023-04-04T08:57:13.000Z</time>
      </trkpt>
      <trkpt lat="46.27602" lon="6.96204">
        <ele>397.20001220703</ele>
        <time>2023-04-04T08:57:15.000Z</time>
      </trkpt>
      <trkpt lat="46.27599" lon="6.96204">
        <ele>397.20001220703</ele>
        <time>2023-04-04T08:57:16.000Z</time>
      </trkpt>
      <trkpt lat="46.2759" lon="6.96207">
        <ele>397.20001220703</ele>
        <time>2023-04-04T08:57:19.000Z</time>
      </trkpt>
      <trkpt lat="46.27578" lon="6.9621">
        <ele>397.20001220703</ele>
        <time>2023-04-04T08:57:22.000Z</time>
      </trkpt>
      <trkpt lat="46.27574" lon="6.96211">
        <ele>397.20001220703</ele>
        <time>2023-04-04T08:57:23.000Z</time>
      </trkpt>
      <trkpt lat="46.27563" lon="6.96214">
        <ele>397</ele>
        <time>2023-04-04T08:57:26.000Z</time>
      </trkpt>
      <trkpt lat="46.27528" lon="6.96225">
        <ele>397</ele>
        <time>2023-04-04T08:57:35.000Z</time>
      </trkpt>
      <trkpt lat="46.27485" lon="6.96242">
        <ele>397.20001220703</ele>
        <time>2023-04-04T08:57:45.000Z</time>
      </trkpt>
      <trkpt lat="46.27469" lon="6.96248">
        <ele>397.20001220703</ele>
        <time>2023-04-04T08:57:49.000Z</time>
      </trkpt>
      <trkpt lat="46.27464" lon="6.96249">
        <ele>397</ele>
        <time>2023-04-04T08:57:50.000Z</time>
      </trkpt>
      <trkpt lat="46.2746" lon="6.9625">
        <ele>397</ele>
        <time>2023-04-04T08:57:51.000Z</time>
      </trkpt>
      <trkpt lat="46.27455" lon="6.96252">
        <ele>397.20001220703</ele>
        <time>2023-04-04T08:57:52.000Z</time>
      </trkpt>
      <trkpt lat="46.27442" lon="6.96256">
        <ele>397.20001220703</ele>
        <time>2023-04-04T08:57:55.000Z</time>
      </trkpt>
      <trkpt lat="46.27406" lon="6.96265">
        <ele>397.39999389648</ele>
        <time>2023-04-04T08:58:03.000Z</time>
      </trkpt>
      <trkpt lat="46.27369" lon="6.96274">
        <ele>397.60000610352</ele>
        <time>2023-04-04T08:58:11.000Z</time>
      </trkpt>
      <trkpt lat="46.2736" lon="6.96275">
        <ele>397.60000610352</ele>
        <time>2023-04-04T08:58:13.000Z</time>
      </trkpt>
      <trkpt lat="46.27356" lon="6.96276">
        <ele>397.60000610352</ele>
        <time>2023-04-04T08:58:14.000Z</time>
      </trkpt>
      <trkpt lat="46.27351" lon="6.96277">
        <ele>397.60000610352</ele>
        <time>2023-04-04T08:58:15.000Z</time>
      </trkpt>
      <trkpt lat="46.27346" lon="6.96277">
        <ele>397.60000610352</ele>
        <time>2023-04-04T08:58:16.000Z</time>
      </trkpt>
      <trkpt lat="46.27342" lon="6.96278">
        <ele>397.60000610352</ele>
        <time>2023-04-04T08:58:17.000Z</time>
      </trkpt>
      <trkpt lat="46.27338" lon="6.96279">
        <ele>397.60000610352</ele>
        <time>2023-04-04T08:58:18.000Z</time>
      </trkpt>
      <trkpt lat="46.27333" lon="6.96279">
        <ele>397.60000610352</ele>
        <time>2023-04-04T08:58:19.000Z</time>
      </trkpt>
      <trkpt lat="46.27329" lon="6.9628">
        <ele>397.60000610352</ele>
        <time>2023-04-04T08:58:20.000Z</time>
      </trkpt>
      <trkpt lat="46.27315" lon="6.96283">
        <ele>397.79998779297</ele>
        <time>2023-04-04T08:58:23.000Z</time>
      </trkpt>
      <trkpt lat="46.2728" lon="6.96291">
        <ele>397.79998779297</ele>
        <time>2023-04-04T08:58:31.000Z</time>
      </trkpt>
      <trkpt lat="46.27275" lon="6.96292">
        <ele>397.79998779297</ele>
        <time>2023-04-04T08:58:32.000Z</time>
      </trkpt>
      <trkpt lat="46.27271" lon="6.96293">
        <ele>397.79998779297</ele>
        <time>2023-04-04T08:58:33.000Z</time>
      </trkpt>
      <trkpt lat="46.27266" lon="6.96293">
        <ele>397.79998779297</ele>
        <time>2023-04-04T08:58:34.000Z</time>
      </trkpt>
      <trkpt lat="46.27262" lon="6.96294">
        <ele>397.79998779297</ele>
        <time>2023-04-04T08:58:35.000Z</time>
      </trkpt>
      <trkpt lat="46.27244" lon="6.96298">
        <ele>398</ele>
        <time>2023-04-04T08:58:39.000Z</time>
      </trkpt>
      <trkpt lat="46.27222" lon="6.96303">
        <ele>398</ele>
        <time>2023-04-04T08:58:44.000Z</time>
      </trkpt>
      <trkpt lat="46.27173" lon="6.96314">
        <ele>398.20001220703</ele>
        <time>2023-04-04T08:58:55.000Z</time>
      </trkpt>
      <trkpt lat="46.27168" lon="6.96315">
        <ele>398.20001220703</ele>
        <time>2023-04-04T08:58:56.000Z</time>
      </trkpt>
      <trkpt lat="46.27141" lon="6.96321">
        <ele>398.20001220703</ele>
        <time>2023-04-04T08:59:02.000Z</time>
      </trkpt>
      <trkpt lat="46.27131" lon="6.96323">
        <ele>398.20001220703</ele>
        <time>2023-04-04T08:59:04.000Z</time>
      </trkpt>
      <trkpt lat="46.27103" lon="6.9633">
        <ele>398.20001220703</ele>
        <time>2023-04-04T08:59:10.000Z</time>
      </trkpt>
      <trkpt lat="46.27055" lon="6.96341">
        <ele>398.20001220703</ele>
        <time>2023-04-04T08:59:20.000Z</time>
      </trkpt>
      <trkpt lat="46.27018" lon="6.96349">
        <ele>398.39999389648</ele>
        <time>2023-04-04T08:59:28.000Z</time>
      </trkpt>
      <trkpt lat="46.27013" lon="6.9635">
        <ele>398.39999389648</ele>
        <time>2023-04-04T08:59:29.000Z</time>
      </trkpt>
      <trkpt lat="46.27008" lon="6.96352">
        <ele>398.39999389648</ele>
        <time>2023-04-04T08:59:30.000Z</time>
      </trkpt>
      <trkpt lat="46.27004" lon="6.96353">
        <ele>398.39999389648</ele>
        <time>2023-04-04T08:59:31.000Z</time>
      </trkpt>
      <trkpt lat="46.26999" lon="6.96354">
        <ele>398.39999389648</ele>
        <time>2023-04-04T08:59:32.000Z</time>
      </trkpt>
      <trkpt lat="46.26971" lon="6.96364">
        <ele>398.39999389648</ele>
        <time>2023-04-04T08:59:38.000Z</time>
      </trkpt>
      <trkpt lat="46.26928" lon="6.96383">
        <ele>398.39999389648</ele>
        <time>2023-04-04T08:59:47.000Z</time>
      </trkpt>
      <trkpt lat="46.26924" lon="6.96385">
        <ele>398.39999389648</ele>
        <time>2023-04-04T08:59:48.000Z</time>
      </trkpt>
      <trkpt lat="46.26915" lon="6.9639">
        <ele>398.39999389648</ele>
        <time>2023-04-04T08:59:50.000Z</time>
      </trkpt>
      <trkpt lat="46.26907" lon="6.96395">
        <ele>398.39999389648</ele>
        <time>2023-04-04T08:59:52.000Z</time>
      </trkpt>
      <trkpt lat="46.26903" lon="6.96398">
        <ele>398.39999389648</ele>
        <time>2023-04-04T08:59:53.000Z</time>
      </trkpt>
      <trkpt lat="46.26899" lon="6.96401">
        <ele>398.39999389648</ele>
        <time>2023-04-04T08:59:54.000Z</time>
      </trkpt>
      <trkpt lat="46.26895" lon="6.96404">
        <ele>398.39999389648</ele>
        <time>2023-04-04T08:59:55.000Z</time>
      </trkpt>
      <trkpt lat="46.26891" lon="6.96407">
        <ele>398.39999389648</ele>
        <time>2023-04-04T08:59:56.000Z</time>
      </trkpt>
      <trkpt lat="46.26863" lon="6.96431">
        <ele>398.60000610352</ele>
        <time>2023-04-04T09:00:03.000Z</time>
      </trkpt>
      <trkpt lat="46.26827" lon="6.96463">
        <ele>399</ele>
        <time>2023-04-04T09:00:12.000Z</time>
      </trkpt>
      <trkpt lat="46.26811" lon="6.96477">
        <ele>399</ele>
        <time>2023-04-04T09:00:16.000Z</time>
      </trkpt>
      <trkpt lat="46.26807" lon="6.96481">
        <ele>399</ele>
        <time>2023-04-04T09:00:17.000Z</time>
      </trkpt>
      <trkpt lat="46.26791" lon="6.96496">
        <ele>398.79998779297</ele>
        <time>2023-04-04T09:00:21.000Z</time>
      </trkpt>
      <trkpt lat="46.26751" lon="6.96534">
        <ele>398.79998779297</ele>
        <time>2023-04-04T09:00:31.000Z</time>
      </trkpt>
      <trkpt lat="46.26748" lon="6.96538">
        <ele>398.79998779297</ele>
        <time>2023-04-04T09:00:32.000Z</time>
      </trkpt>
      <trkpt lat="46.26744" lon="6.96541">
        <ele>398.79998779297</ele>
        <time>2023-04-04T09:00:33.000Z</time>
      </trkpt>
      <trkpt lat="46.26736" lon="6.96549">
        <ele>398.60000610352</ele>
        <time>2023-04-04T09:00:35.000Z</time>
      </trkpt>
      <trkpt lat="46.26732" lon="6.96553">
        <ele>398.60000610352</ele>
        <time>2023-04-04T09:00:36.000Z</time>
      </trkpt>
      <trkpt lat="46.26728" lon="6.96557">
        <ele>398.60000610352</ele>
        <time>2023-04-04T09:00:37.000Z</time>
      </trkpt>
      <trkpt lat="46.26721" lon="6.96564">
        <ele>398.60000610352</ele>
        <time>2023-04-04T09:00:39.000Z</time>
      </trkpt>
      <trkpt lat="46.26718" lon="6.96567">
        <ele>398.60000610352</ele>
        <time>2023-04-04T09:00:40.000Z</time>
      </trkpt>
      <trkpt lat="46.26715" lon="6.96571">
        <ele>398.79998779297</ele>
        <time>2023-04-04T09:00:41.000Z</time>
      </trkpt>
      <trkpt lat="46.26712" lon="6.96574">
        <ele>398.79998779297</ele>
        <time>2023-04-04T09:00:42.000Z</time>
      </trkpt>
      <trkpt lat="46.26709" lon="6.96578">
        <ele>398.79998779297</ele>
        <time>2023-04-04T09:00:43.000Z</time>
      </trkpt>
      <trkpt lat="46.26706" lon="6.96581">
        <ele>398.60000610352</ele>
        <time>2023-04-04T09:00:44.000Z</time>
      </trkpt>
      <trkpt lat="46.26703" lon="6.96585">
        <ele>398.60000610352</ele>
        <time>2023-04-04T09:00:45.000Z</time>
      </trkpt>
      <trkpt lat="46.26699" lon="6.96589">
        <ele>398.79998779297</ele>
        <time>2023-04-04T09:00:46.000Z</time>
      </trkpt>
      <trkpt lat="46.26696" lon="6.96594">
        <ele>398.79998779297</ele>
        <time>2023-04-04T09:00:47.000Z</time>
      </trkpt>
      <trkpt lat="46.26693" lon="6.96598">
        <ele>398.79998779297</ele>
        <time>2023-04-04T09:00:48.000Z</time>
      </trkpt>
      <trkpt lat="46.2669" lon="6.96602">
        <ele>398.79998779297</ele>
        <time>2023-04-04T09:00:49.000Z</time>
      </trkpt>
      <trkpt lat="46.26679" lon="6.96615">
        <ele>398.79998779297</ele>
        <time>2023-04-04T09:00:52.000Z</time>
      </trkpt>
      <trkpt lat="46.26664" lon="6.9663">
        <ele>398.79998779297</ele>
        <time>2023-04-04T09:00:56.000Z</time>
      </trkpt>
      <trkpt lat="46.26627" lon="6.96673">
        <ele>398.79998779297</ele>
        <time>2023-04-04T09:01:06.000Z</time>
      </trkpt>
      <trkpt lat="46.26593" lon="6.96711">
        <ele>399</ele>
        <time>2023-04-04T09:01:15.000Z</time>
      </trkpt>
      <trkpt lat="46.26589" lon="6.96715">
        <ele>399</ele>
        <time>2023-04-04T09:01:16.000Z</time>
      </trkpt>
      <trkpt lat="46.26586" lon="6.96719">
        <ele>399</ele>
        <time>2023-04-04T09:01:17.000Z</time>
      </trkpt>
      <trkpt lat="46.26582" lon="6.96723">
        <ele>399</ele>
        <time>2023-04-04T09:01:18.000Z</time>
      </trkpt>
      <trkpt lat="46.26579" lon="6.96727">
        <ele>399</ele>
        <time>2023-04-04T09:01:19.000Z</time>
      </trkpt>
      <trkpt lat="46.26575" lon="6.96731">
        <ele>399</ele>
        <time>2023-04-04T09:01:20.000Z</time>
      </trkpt>
      <trkpt lat="46.26571" lon="6.96735">
        <ele>399</ele>
        <time>2023-04-04T09:01:21.000Z</time>
      </trkpt>
      <trkpt lat="46.26564" lon="6.96744">
        <ele>399</ele>
        <time>2023-04-04T09:01:23.000Z</time>
      </trkpt>
      <trkpt lat="46.2656" lon="6.96748">
        <ele>399</ele>
        <time>2023-04-04T09:01:24.000Z</time>
      </trkpt>
      <trkpt lat="46.26556" lon="6.96752">
        <ele>399</ele>
        <time>2023-04-04T09:01:25.000Z</time>
      </trkpt>
      <trkpt lat="46.26553" lon="6.96756">
        <ele>399</ele>
        <time>2023-04-04T09:01:26.000Z</time>
      </trkpt>
      <trkpt lat="46.26549" lon="6.9676">
        <ele>399</ele>
        <time>2023-04-04T09:01:27.000Z</time>
      </trkpt>
      <trkpt lat="46.26534" lon="6.96777">
        <ele>399.20001220703</ele>
        <time>2023-04-04T09:01:31.000Z</time>
      </trkpt>
      <trkpt lat="46.26507" lon="6.9681">
        <ele>399.20001220703</ele>
        <time>2023-04-04T09:01:38.000Z</time>
      </trkpt>
      <trkpt lat="46.26475" lon="6.96847">
        <ele>399.20001220703</ele>
        <time>2023-04-04T09:01:46.000Z</time>
      </trkpt>
      <trkpt lat="46.26464" lon="6.9686">
        <ele>399.20001220703</ele>
        <time>2023-04-04T09:01:49.000Z</time>
      </trkpt>
      <trkpt lat="46.2646" lon="6.96864">
        <ele>399.20001220703</ele>
        <time>2023-04-04T09:01:50.000Z</time>
      </trkpt>
      <trkpt lat="46.26456" lon="6.96868">
        <ele>399.20001220703</ele>
        <time>2023-04-04T09:01:51.000Z</time>
      </trkpt>
      <trkpt lat="46.26453" lon="6.96872">
        <ele>399.20001220703</ele>
        <time>2023-04-04T09:01:52.000Z</time>
      </trkpt>
      <trkpt lat="46.26442" lon="6.96884">
        <ele>399.20001220703</ele>
        <time>2023-04-04T09:01:55.000Z</time>
      </trkpt>
      <trkpt lat="46.26438" lon="6.96889">
        <ele>399.20001220703</ele>
        <time>2023-04-04T09:01:56.000Z</time>
      </trkpt>
      <trkpt lat="46.26427" lon="6.96899">
        <ele>399.39999389648</ele>
        <time>2023-04-04T09:01:59.000Z</time>
      </trkpt>
      <trkpt lat="46.26404" lon="6.96925">
        <ele>399.39999389648</ele>
        <time>2023-04-04T09:02:05.000Z</time>
      </trkpt>
      <trkpt lat="46.26393" lon="6.96938">
        <ele>399.39999389648</ele>
        <time>2023-04-04T09:02:08.000Z</time>
      </trkpt>
      <trkpt lat="46.26383" lon="6.96951">
        <ele>399.39999389648</ele>
        <time>2023-04-04T09:02:11.000Z</time>
      </trkpt>
      <trkpt lat="46.26379" lon="6.96954">
        <ele>399.39999389648</ele>
        <time>2023-04-04T09:02:12.000Z</time>
      </trkpt>
      <trkpt lat="46.26376" lon="6.96958">
        <ele>399.39999389648</ele>
        <time>2023-04-04T09:02:13.000Z</time>
      </trkpt>
      <trkpt lat="46.26372" lon="6.96963">
        <ele>399.39999389648</ele>
        <time>2023-04-04T09:02:14.000Z</time>
      </trkpt>
      <trkpt lat="46.26368" lon="6.96968">
        <ele>399.39999389648</ele>
        <time>2023-04-04T09:02:15.000Z</time>
      </trkpt>
      <trkpt lat="46.26364" lon="6.96972">
        <ele>399.39999389648</ele>
        <time>2023-04-04T09:02:16.000Z</time>
      </trkpt>
      <trkpt lat="46.26361" lon="6.96976">
        <ele>399.39999389648</ele>
        <time>2023-04-04T09:02:17.000Z</time>
      </trkpt>
      <trkpt lat="46.26357" lon="6.96981">
        <ele>399.39999389648</ele>
        <time>2023-04-04T09:02:18.000Z</time>
      </trkpt>
      <trkpt lat="46.26324" lon="6.97026">
        <ele>399.60000610352</ele>
        <time>2023-04-04T09:02:27.000Z</time>
      </trkpt>
      <trkpt lat="46.26311" lon="6.97043">
        <ele>399.60000610352</ele>
        <time>2023-04-04T09:02:31.000Z</time>
      </trkpt>
      <trkpt lat="46.26308" lon="6.97047">
        <ele>399.60000610352</ele>
        <time>2023-04-04T09:02:32.000Z</time>
      </trkpt>
      <trkpt lat="46.26305" lon="6.97052">
        <ele>399.60000610352</ele>
        <time>2023-04-04T09:02:33.000Z</time>
      </trkpt>
      <trkpt lat="46.26302" lon="6.97056">
        <ele>399.60000610352</ele>
        <time>2023-04-04T09:02:34.000Z</time>
      </trkpt>
      <trkpt lat="46.26299" lon="6.9706">
        <ele>399.60000610352</ele>
        <time>2023-04-04T09:02:35.000Z</time>
      </trkpt>
      <trkpt lat="46.26296" lon="6.97064">
        <ele>399.60000610352</ele>
        <time>2023-04-04T09:02:36.000Z</time>
      </trkpt>
      <trkpt lat="46.26292" lon="6.97068">
        <ele>399.60000610352</ele>
        <time>2023-04-04T09:02:37.000Z</time>
      </trkpt>
      <trkpt lat="46.26289" lon="6.97071">
        <ele>399.60000610352</ele>
        <time>2023-04-04T09:02:38.000Z</time>
      </trkpt>
      <trkpt lat="46.26286" lon="6.97075">
        <ele>399.39999389648</ele>
        <time>2023-04-04T09:02:39.000Z</time>
      </trkpt>
      <trkpt lat="46.26282" lon="6.97079">
        <ele>399.39999389648</ele>
        <time>2023-04-04T09:02:40.000Z</time>
      </trkpt>
      <trkpt lat="46.26279" lon="6.97082">
        <ele>399.39999389648</ele>
        <time>2023-04-04T09:02:41.000Z</time>
      </trkpt>
      <trkpt lat="46.26276" lon="6.97086">
        <ele>399.39999389648</ele>
        <time>2023-04-04T09:02:42.000Z</time>
      </trkpt>
      <trkpt lat="46.26272" lon="6.97089">
        <ele>399.39999389648</ele>
        <time>2023-04-04T09:02:43.000Z</time>
      </trkpt>
      <trkpt lat="46.26269" lon="6.97093">
        <ele>399.39999389648</ele>
        <time>2023-04-04T09:02:44.000Z</time>
      </trkpt>
      <trkpt lat="46.26267" lon="6.97097">
        <ele>399.39999389648</ele>
        <time>2023-04-04T09:02:45.000Z</time>
      </trkpt>
      <trkpt lat="46.26264" lon="6.971">
        <ele>399.39999389648</ele>
        <time>2023-04-04T09:02:46.000Z</time>
      </trkpt>
      <trkpt lat="46.26261" lon="6.97103">
        <ele>399.39999389648</ele>
        <time>2023-04-04T09:02:47.000Z</time>
      </trkpt>
      <trkpt lat="46.26258" lon="6.97107">
        <ele>399.60000610352</ele>
        <time>2023-04-04T09:02:48.000Z</time>
      </trkpt>
      <trkpt lat="46.26255" lon="6.9711">
        <ele>399.60000610352</ele>
        <time>2023-04-04T09:02:49.000Z</time>
      </trkpt>
      <trkpt lat="46.26253" lon="6.97113">
        <ele>399.60000610352</ele>
        <time>2023-04-04T09:02:50.000Z</time>
      </trkpt>
      <trkpt lat="46.2625" lon="6.97116">
        <ele>399.79998779297</ele>
        <time>2023-04-04T09:02:51.000Z</time>
      </trkpt>
      <trkpt lat="46.26248" lon="6.97119">
        <ele>399.79998779297</ele>
        <time>2023-04-04T09:02:52.000Z</time>
      </trkpt>
      <trkpt lat="46.26245" lon="6.97122">
        <ele>399.79998779297</ele>
        <time>2023-04-04T09:02:53.000Z</time>
      </trkpt>
      <trkpt lat="46.26242" lon="6.97124">
        <ele>399.79998779297</ele>
        <time>2023-04-04T09:02:54.000Z</time>
      </trkpt>
      <trkpt lat="46.26239" lon="6.97127">
        <ele>399.79998779297</ele>
        <time>2023-04-04T09:02:55.000Z</time>
      </trkpt>
      <trkpt lat="46.26231" lon="6.97138">
        <ele>400</ele>
        <time>2023-04-04T09:02:58.000Z</time>
      </trkpt>
      <trkpt lat="46.26204" lon="6.97167">
        <ele>400</ele>
        <time>2023-04-04T09:03:06.000Z</time>
      </trkpt>
      <trkpt lat="46.26171" lon="6.97206">
        <ele>400.20001220703</ele>
        <time>2023-04-04T09:03:16.000Z</time>
      </trkpt>
      <trkpt lat="46.26145" lon="6.97238">
        <ele>400.39999389648</ele>
        <time>2023-04-04T09:03:24.000Z</time>
      </trkpt>
      <trkpt lat="46.26142" lon="6.97241">
        <ele>400.39999389648</ele>
        <time>2023-04-04T09:03:25.000Z</time>
      </trkpt>
      <trkpt lat="46.26135" lon="6.97249">
        <ele>400.39999389648</ele>
        <time>2023-04-04T09:03:27.000Z</time>
      </trkpt>
      <trkpt lat="46.26096" lon="6.97293">
        <ele>400.39999389648</ele>
        <time>2023-04-04T09:03:37.000Z</time>
      </trkpt>
      <trkpt lat="46.26071" lon="6.9732">
        <ele>400.20001220703</ele>
        <time>2023-04-04T09:03:44.000Z</time>
      </trkpt>
      <trkpt lat="46.26068" lon="6.97324">
        <ele>400.20001220703</ele>
        <time>2023-04-04T09:03:46.000Z</time>
      </trkpt>
      <trkpt lat="46.2606" lon="6.97332">
        <ele>400.20001220703</ele>
        <time>2023-04-04T09:03:47.000Z</time>
      </trkpt>
      <trkpt lat="46.26057" lon="6.97336">
        <ele>400.20001220703</ele>
        <time>2023-04-04T09:03:48.000Z</time>
      </trkpt>
      <trkpt lat="46.26046" lon="6.97347">
        <ele>400.20001220703</ele>
        <time>2023-04-04T09:03:51.000Z</time>
      </trkpt>
      <trkpt lat="46.2604" lon="6.97355">
        <ele>400.20001220703</ele>
        <time>2023-04-04T09:03:53.000Z</time>
      </trkpt>
      <trkpt lat="46.2604" lon="6.97355">
        <ele>400.39999389648</ele>
        <time>2023-04-04T09:03:54.000Z</time>
      </trkpt>
      <trkpt lat="46.26002" lon="6.97402">
        <ele>400.79998779297</ele>
        <time>2023-04-04T09:04:04.000Z</time>
      </trkpt>
      <trkpt lat="46.25995" lon="6.97411">
        <ele>400.79998779297</ele>
        <time>2023-04-04T09:04:06.000Z</time>
      </trkpt>
      <trkpt lat="46.25984" lon="6.97423">
        <ele>400.79998779297</ele>
        <time>2023-04-04T09:04:09.000Z</time>
      </trkpt>
      <trkpt lat="46.25984" lon="6.97423">
        <ele>400.60000610352</ele>
        <time>2023-04-04T09:04:10.000Z</time>
      </trkpt>
      <trkpt lat="46.25978" lon="6.97431">
        <ele>400.60000610352</ele>
        <time>2023-04-04T09:04:11.000Z</time>
      </trkpt>
      <trkpt lat="46.25975" lon="6.97436">
        <ele>400.60000610352</ele>
        <time>2023-04-04T09:04:12.000Z</time>
      </trkpt>
      <trkpt lat="46.25972" lon="6.97441">
        <ele>400.60000610352</ele>
        <time>2023-04-04T09:04:13.000Z</time>
      </trkpt>
      <trkpt lat="46.25951" lon="6.97467">
        <ele>401</ele>
        <time>2023-04-04T09:04:19.000Z</time>
      </trkpt>
      <trkpt lat="46.25945" lon="6.97477">
        <ele>401</ele>
        <time>2023-04-04T09:04:21.000Z</time>
      </trkpt>
      <trkpt lat="46.25907" lon="6.97534">
        <ele>401</ele>
        <time>2023-04-04T09:04:33.000Z</time>
      </trkpt>
      <trkpt lat="46.25876" lon="6.97582">
        <ele>401</ele>
        <time>2023-04-04T09:04:43.000Z</time>
      </trkpt>
      <trkpt lat="46.25861" lon="6.97605">
        <ele>401.39999389648</ele>
        <time>2023-04-04T09:04:49.000Z</time>
      </trkpt>
      <trkpt lat="46.25849" lon="6.97625">
        <ele>401.39999389648</ele>
        <time>2023-04-04T09:04:52.000Z</time>
      </trkpt>
      <trkpt lat="46.25817" lon="6.97674">
        <ele>401.39999389648</ele>
        <time>2023-04-04T09:05:02.000Z</time>
      </trkpt>
      <trkpt lat="46.25811" lon="6.97683">
        <ele>401.39999389648</ele>
        <time>2023-04-04T09:05:04.000Z</time>
      </trkpt>
      <trkpt lat="46.25805" lon="6.97693">
        <ele>401.39999389648</ele>
        <time>2023-04-04T09:05:06.000Z</time>
      </trkpt>
      <trkpt lat="46.25802" lon="6.97697">
        <ele>401.39999389648</ele>
        <time>2023-04-04T09:05:07.000Z</time>
      </trkpt>
      <trkpt lat="46.25802" lon="6.97697">
        <ele>401.39999389648</ele>
        <time>2023-04-04T09:05:08.000Z</time>
      </trkpt>
      <trkpt lat="46.25796" lon="6.97707">
        <ele>401.39999389648</ele>
        <time>2023-04-04T09:05:09.000Z</time>
      </trkpt>
      <trkpt lat="46.25786" lon="6.97721">
        <ele>401.39999389648</ele>
        <time>2023-04-04T09:05:12.000Z</time>
      </trkpt>
      <trkpt lat="46.25783" lon="6.97726">
        <ele>401.39999389648</ele>
        <time>2023-04-04T09:05:13.000Z</time>
      </trkpt>
      <trkpt lat="46.25751" lon="6.97775">
        <ele>401.60000610352</ele>
        <time>2023-04-04T09:05:23.000Z</time>
      </trkpt>
      <trkpt lat="46.25735" lon="6.97798">
        <ele>401.60000610352</ele>
        <time>2023-04-04T09:05:28.000Z</time>
      </trkpt>
      <trkpt lat="46.25729" lon="6.97806">
        <ele>401.60000610352</ele>
        <time>2023-04-04T09:05:30.000Z</time>
      </trkpt>
      <trkpt lat="46.25729" lon="6.97806">
        <ele>401.60000610352</ele>
        <time>2023-04-04T09:05:31.000Z</time>
      </trkpt>
      <trkpt lat="46.25724" lon="6.97814">
        <ele>401.60000610352</ele>
        <time>2023-04-04T09:05:32.000Z</time>
      </trkpt>
      <trkpt lat="46.25722" lon="6.97818">
        <ele>401.60000610352</ele>
        <time>2023-04-04T09:05:33.000Z</time>
      </trkpt>
      <trkpt lat="46.25719" lon="6.97822">
        <ele>401.60000610352</ele>
        <time>2023-04-04T09:05:34.000Z</time>
      </trkpt>
      <trkpt lat="46.25717" lon="6.97826">
        <ele>401.79998779297</ele>
        <time>2023-04-04T09:05:35.000Z</time>
      </trkpt>
      <trkpt lat="46.25714" lon="6.9783">
        <ele>402</ele>
        <time>2023-04-04T09:05:36.000Z</time>
      </trkpt>
      <trkpt lat="46.25687" lon="6.97871">
        <ele>402.39999389648</ele>
        <time>2023-04-04T09:05:45.000Z</time>
      </trkpt>
      <trkpt lat="46.25657" lon="6.97918">
        <ele>402.60000610352</ele>
        <time>2023-04-04T09:05:55.000Z</time>
      </trkpt>
      <trkpt lat="46.25626" lon="6.97964">
        <ele>402.39999389648</ele>
        <time>2023-04-04T09:06:04.000Z</time>
      </trkpt>
      <trkpt lat="46.25623" lon="6.97969">
        <ele>402.20001220703</ele>
        <time>2023-04-04T09:06:05.000Z</time>
      </trkpt>
      <trkpt lat="46.25606" lon="6.97995">
        <ele>401.79998779297</ele>
        <time>2023-04-04T09:06:10.000Z</time>
      </trkpt>
      <trkpt lat="46.25603" lon="6.98">
        <ele>401.79998779297</ele>
        <time>2023-04-04T09:06:12.000Z</time>
      </trkpt>
      <trkpt lat="46.25598" lon="6.98008">
        <ele>401.79998779297</ele>
        <time>2023-04-04T09:06:13.000Z</time>
      </trkpt>
      <trkpt lat="46.25596" lon="6.98012">
        <ele>401.79998779297</ele>
        <time>2023-04-04T09:06:14.000Z</time>
      </trkpt>
      <trkpt lat="46.25594" lon="6.98016">
        <ele>401.79998779297</ele>
        <time>2023-04-04T09:06:15.000Z</time>
      </trkpt>
      <trkpt lat="46.25592" lon="6.98019">
        <ele>401.79998779297</ele>
        <time>2023-04-04T09:06:16.000Z</time>
      </trkpt>
      <trkpt lat="46.2559" lon="6.98023">
        <ele>401.79998779297</ele>
        <time>2023-04-04T09:06:17.000Z</time>
      </trkpt>
      <trkpt lat="46.25587" lon="6.98027">
        <ele>401.79998779297</ele>
        <time>2023-04-04T09:06:18.000Z</time>
      </trkpt>
      <trkpt lat="46.25573" lon="6.98048">
        <ele>401.79998779297</ele>
        <time>2023-04-04T09:06:23.000Z</time>
      </trkpt>
      <trkpt lat="46.25552" lon="6.98079">
        <ele>401.79998779297</ele>
        <time>2023-04-04T09:06:30.000Z</time>
      </trkpt>
      <trkpt lat="46.25539" lon="6.98099">
        <ele>402</ele>
        <time>2023-04-04T09:06:34.000Z</time>
      </trkpt>
      <trkpt lat="46.25531" lon="6.98112">
        <ele>402</ele>
        <time>2023-04-04T09:06:38.000Z</time>
      </trkpt>
      <trkpt lat="46.25501" lon="6.98159">
        <ele>402.20001220703</ele>
        <time>2023-04-04T09:06:46.000Z</time>
      </trkpt>
      <trkpt lat="46.2548" lon="6.98204">
        <ele>402.39999389648</ele>
        <time>2023-04-04T09:06:54.000Z</time>
      </trkpt>
      <trkpt lat="46.25478" lon="6.98209">
        <ele>402.39999389648</ele>
        <time>2023-04-04T09:06:55.000Z</time>
      </trkpt>
      <trkpt lat="46.25476" lon="6.98214">
        <ele>402.39999389648</ele>
        <time>2023-04-04T09:06:56.000Z</time>
      </trkpt>
      <trkpt lat="46.25474" lon="6.98219">
        <ele>402.39999389648</ele>
        <time>2023-04-04T09:06:57.000Z</time>
      </trkpt>
      <trkpt lat="46.25474" lon="6.98219">
        <ele>402.39999389648</ele>
        <time>2023-04-04T09:06:58.000Z</time>
      </trkpt>
      <trkpt lat="46.25468" lon="6.98239">
        <ele>402.39999389648</ele>
        <time>2023-04-04T09:07:00.000Z</time>
      </trkpt>
      <trkpt lat="46.25464" lon="6.98251">
        <ele>402.39999389648</ele>
        <time>2023-04-04T09:07:02.000Z</time>
      </trkpt>
      <trkpt lat="46.25462" lon="6.98257">
        <ele>402.39999389648</ele>
        <time>2023-04-04T09:07:03.000Z</time>
      </trkpt>
      <trkpt lat="46.25457" lon="6.98268">
        <ele>402.39999389648</ele>
        <time>2023-04-04T09:07:05.000Z</time>
      </trkpt>
      <trkpt lat="46.25451" lon="6.98281">
        <ele>402.39999389648</ele>
        <time>2023-04-04T09:07:07.000Z</time>
      </trkpt>
      <trkpt lat="46.25448" lon="6.98287">
        <ele>402.39999389648</ele>
        <time>2023-04-04T09:07:08.000Z</time>
      </trkpt>
      <trkpt lat="46.25436" lon="6.98318">
        <ele>402.39999389648</ele>
        <time>2023-04-04T09:07:13.000Z</time>
      </trkpt>
      <trkpt lat="46.25414" lon="6.98374">
        <ele>402.20001220703</ele>
        <time>2023-04-04T09:07:22.000Z</time>
      </trkpt>
      <trkpt lat="46.25412" lon="6.9838">
        <ele>402.20001220703</ele>
        <time>2023-04-04T09:07:23.000Z</time>
      </trkpt>
      <trkpt lat="46.25389" lon="6.98433">
        <ele>402.20001220703</ele>
        <time>2023-04-04T09:07:32.000Z</time>
      </trkpt>
      <trkpt lat="46.25368" lon="6.98478">
        <ele>402.20001220703</ele>
        <time>2023-04-04T09:07:40.000Z</time>
      </trkpt>
      <trkpt lat="46.25365" lon="6.98483">
        <ele>402.20001220703</ele>
        <time>2023-04-04T09:07:41.000Z</time>
      </trkpt>
      <trkpt lat="46.25362" lon="6.98488">
        <ele>402.20001220703</ele>
        <time>2023-04-04T09:07:42.000Z</time>
      </trkpt>
      <trkpt lat="46.2536" lon="6.98493">
        <ele>402.20001220703</ele>
        <time>2023-04-04T09:07:43.000Z</time>
      </trkpt>
      <trkpt lat="46.25357" lon="6.98498">
        <ele>402.20001220703</ele>
        <time>2023-04-04T09:07:44.000Z</time>
      </trkpt>
      <trkpt lat="46.25354" lon="6.98503">
        <ele>402.39999389648</ele>
        <time>2023-04-04T09:07:45.000Z</time>
      </trkpt>
      <trkpt lat="46.25351" lon="6.98508">
        <ele>402.39999389648</ele>
        <time>2023-04-04T09:07:46.000Z</time>
      </trkpt>
      <trkpt lat="46.2534" lon="6.9853">
        <ele>402.39999389648</ele>
        <time>2023-04-04T09:07:50.000Z</time>
      </trkpt>
      <trkpt lat="46.25335" lon="6.98541">
        <ele>402.39999389648</ele>
        <time>2023-04-04T09:07:52.000Z</time>
      </trkpt>
      <trkpt lat="46.25327" lon="6.98557">
        <ele>402.39999389648</ele>
        <time>2023-04-04T09:07:55.000Z</time>
      </trkpt>
      <trkpt lat="46.25325" lon="6.98562">
        <ele>402.39999389648</ele>
        <time>2023-04-04T09:07:56.000Z</time>
      </trkpt>
      <trkpt lat="46.25322" lon="6.98568">
        <ele>402.39999389648</ele>
        <time>2023-04-04T09:07:57.000Z</time>
      </trkpt>
      <trkpt lat="46.25319" lon="6.98573">
        <ele>402.39999389648</ele>
        <time>2023-04-04T09:07:58.000Z</time>
      </trkpt>
      <trkpt lat="46.25312" lon="6.9859">
        <ele>402.39999389648</ele>
        <time>2023-04-04T09:08:01.000Z</time>
      </trkpt>
      <trkpt lat="46.25285" lon="6.9863">
        <ele>402.60000610352</ele>
        <time>2023-04-04T09:08:09.000Z</time>
      </trkpt>
      <trkpt lat="46.25278" lon="6.98638">
        <ele>402.60000610352</ele>
        <time>2023-04-04T09:08:11.000Z</time>
      </trkpt>
      <trkpt lat="46.25267" lon="6.9865">
        <ele>402.60000610352</ele>
        <time>2023-04-04T09:08:14.000Z</time>
      </trkpt>
      <trkpt lat="46.25255" lon="6.98661">
        <ele>402.60000610352</ele>
        <time>2023-04-04T09:08:17.000Z</time>
      </trkpt>
      <trkpt lat="46.25243" lon="6.98672">
        <ele>402.79998779297</ele>
        <time>2023-04-04T09:08:20.000Z</time>
      </trkpt>
      <trkpt lat="46.2522" lon="6.98695">
        <ele>402.79998779297</ele>
        <time>2023-04-04T09:08:26.000Z</time>
      </trkpt>
      <trkpt lat="46.25209" lon="6.98705">
        <ele>402.79998779297</ele>
        <time>2023-04-04T09:08:29.000Z</time>
      </trkpt>
      <trkpt lat="46.25188" lon="6.98719">
        <ele>402.79998779297</ele>
        <time>2023-04-04T09:08:34.000Z</time>
      </trkpt>
      <trkpt lat="46.25184" lon="6.98721">
        <ele>402.60000610352</ele>
        <time>2023-04-04T09:08:35.000Z</time>
      </trkpt>
      <trkpt lat="46.25161" lon="6.98731">
        <ele>402.79998779297</ele>
        <time>2023-04-04T09:08:40.000Z</time>
      </trkpt>
      <trkpt lat="46.25153" lon="6.98734">
        <ele>402.79998779297</ele>
        <time>2023-04-04T09:08:42.000Z</time>
      </trkpt>
      <trkpt lat="46.25148" lon="6.98736">
        <ele>402.79998779297</ele>
        <time>2023-04-04T09:08:43.000Z</time>
      </trkpt>
      <trkpt lat="46.25113" lon="6.98747">
        <ele>402.79998779297</ele>
        <time>2023-04-04T09:08:51.000Z</time>
      </trkpt>
      <trkpt lat="46.25109" lon="6.98749">
        <ele>402.79998779297</ele>
        <time>2023-04-04T09:08:52.000Z</time>
      </trkpt>
      <trkpt lat="46.25105" lon="6.9875">
        <ele>403</ele>
        <time>2023-04-04T09:08:53.000Z</time>
      </trkpt>
      <trkpt lat="46.251" lon="6.98752">
        <ele>403</ele>
        <time>2023-04-04T09:08:54.000Z</time>
      </trkpt>
      <trkpt lat="46.25095" lon="6.98753">
        <ele>403</ele>
        <time>2023-04-04T09:08:55.000Z</time>
      </trkpt>
      <trkpt lat="46.25091" lon="6.98755">
        <ele>403</ele>
        <time>2023-04-04T09:08:56.000Z</time>
      </trkpt>
      <trkpt lat="46.25072" lon="6.98761">
        <ele>403</ele>
        <time>2023-04-04T09:09:00.000Z</time>
      </trkpt>
      <trkpt lat="46.25044" lon="6.9877">
        <ele>403.20001220703</ele>
        <time>2023-04-04T09:09:06.000Z</time>
      </trkpt>
      <trkpt lat="46.25039" lon="6.98771">
        <ele>403.20001220703</ele>
        <time>2023-04-04T09:09:07.000Z</time>
      </trkpt>
      <trkpt lat="46.25025" lon="6.98777">
        <ele>403.39999389648</ele>
        <time>2023-04-04T09:09:10.000Z</time>
      </trkpt>
      <trkpt lat="46.25001" lon="6.98779">
        <ele>403.39999389648</ele>
        <time>2023-04-04T09:09:15.000Z</time>
      </trkpt>
      <trkpt lat="46.24997" lon="6.98778">
        <ele>403.39999389648</ele>
        <time>2023-04-04T09:09:16.000Z</time>
      </trkpt>
      <trkpt lat="46.24978" lon="6.98775">
        <ele>403.60000610352</ele>
        <time>2023-04-04T09:09:20.000Z</time>
      </trkpt>
      <trkpt lat="46.24974" lon="6.98774">
        <ele>403.60000610352</ele>
        <time>2023-04-04T09:09:21.000Z</time>
      </trkpt>
      <trkpt lat="46.24969" lon="6.98773">
        <ele>403.60000610352</ele>
        <time>2023-04-04T09:09:22.000Z</time>
      </trkpt>
      <trkpt lat="46.24959" lon="6.98772">
        <ele>403.60000610352</ele>
        <time>2023-04-04T09:09:24.000Z</time>
      </trkpt>
      <trkpt lat="46.24914" lon="6.98767">
        <ele>403.60000610352</ele>
        <time>2023-04-04T09:09:34.000Z</time>
      </trkpt>
      <trkpt lat="46.2491" lon="6.98767">
        <ele>403.60000610352</ele>
        <time>2023-04-04T09:09:35.000Z</time>
      </trkpt>
      <trkpt lat="46.24905" lon="6.98767">
        <ele>403.60000610352</ele>
        <time>2023-04-04T09:09:36.000Z</time>
      </trkpt>
      <trkpt lat="46.24901" lon="6.98767">
        <ele>403.60000610352</ele>
        <time>2023-04-04T09:09:37.000Z</time>
      </trkpt>
      <trkpt lat="46.24897" lon="6.98767">
        <ele>403.60000610352</ele>
        <time>2023-04-04T09:09:38.000Z</time>
      </trkpt>
      <trkpt lat="46.24893" lon="6.98767">
        <ele>403.60000610352</ele>
        <time>2023-04-04T09:09:39.000Z</time>
      </trkpt>
      <trkpt lat="46.2489" lon="6.98768">
        <ele>403.60000610352</ele>
        <time>2023-04-04T09:09:40.000Z</time>
      </trkpt>
      <trkpt lat="46.24886" lon="6.98767">
        <ele>403.60000610352</ele>
        <time>2023-04-04T09:09:41.000Z</time>
      </trkpt>
      <trkpt lat="46.24883" lon="6.98768">
        <ele>403.39999389648</ele>
        <time>2023-04-04T09:09:42.000Z</time>
      </trkpt>
      <trkpt lat="46.24879" lon="6.98768">
        <ele>403.39999389648</ele>
        <time>2023-04-04T09:09:43.000Z</time>
      </trkpt>
      <trkpt lat="46.24876" lon="6.98768">
        <ele>403.39999389648</ele>
        <time>2023-04-04T09:09:44.000Z</time>
      </trkpt>
      <trkpt lat="46.24873" lon="6.98768">
        <ele>403.39999389648</ele>
        <time>2023-04-04T09:09:45.000Z</time>
      </trkpt>
      <trkpt lat="46.2487" lon="6.98768">
        <ele>403.39999389648</ele>
        <time>2023-04-04T09:09:46.000Z</time>
      </trkpt>
      <trkpt lat="46.24867" lon="6.98767">
        <ele>403.39999389648</ele>
        <time>2023-04-04T09:09:47.000Z</time>
      </trkpt>
      <trkpt lat="46.24865" lon="6.98767">
        <ele>403.39999389648</ele>
        <time>2023-04-04T09:09:48.000Z</time>
      </trkpt>
      <trkpt lat="46.24862" lon="6.98767">
        <ele>403.39999389648</ele>
        <time>2023-04-04T09:09:49.000Z</time>
      </trkpt>
      <trkpt lat="46.24859" lon="6.98767">
        <ele>403.39999389648</ele>
        <time>2023-04-04T09:09:50.000Z</time>
      </trkpt>
      <trkpt lat="46.24859" lon="6.98767">
        <ele>403.39999389648</ele>
        <time>2023-04-04T09:09:51.000Z</time>
      </trkpt>
      <trkpt lat="46.24852" lon="6.98766">
        <ele>403.39999389648</ele>
        <time>2023-04-04T09:09:52.000Z</time>
      </trkpt>
      <trkpt lat="46.24849" lon="6.98766">
        <ele>403.39999389648</ele>
        <time>2023-04-04T09:09:53.000Z</time>
      </trkpt>
      <trkpt lat="46.24829" lon="6.98763">
        <ele>403</ele>
        <time>2023-04-04T09:09:57.000Z</time>
      </trkpt>
      <trkpt lat="46.24808" lon="6.98764">
        <ele>401.60000610352</ele>
        <time>2023-04-04T09:10:01.000Z</time>
      </trkpt>
      <trkpt lat="46.24802" lon="6.98764">
        <ele>401.60000610352</ele>
        <time>2023-04-04T09:10:02.000Z</time>
      </trkpt>
      <trkpt lat="46.24797" lon="6.98765">
        <ele>401.20001220703</ele>
        <time>2023-04-04T09:10:03.000Z</time>
      </trkpt>
      <trkpt lat="46.24792" lon="6.98766">
        <ele>401.20001220703</ele>
        <time>2023-04-04T09:10:04.000Z</time>
      </trkpt>
      <trkpt lat="46.24774" lon="6.98767">
        <ele>400.79998779297</ele>
        <time>2023-04-04T09:10:08.000Z</time>
      </trkpt>
      <trkpt lat="46.24769" lon="6.98767">
        <ele>400.79998779297</ele>
        <time>2023-04-04T09:10:09.000Z</time>
      </trkpt>
      <trkpt lat="46.24763" lon="6.98768">
        <ele>400.79998779297</ele>
        <time>2023-04-04T09:10:10.000Z</time>
      </trkpt>
      <trkpt lat="46.24752" lon="6.98773">
        <ele>400.79998779297</ele>
        <time>2023-04-04T09:10:13.000Z</time>
      </trkpt>
      <trkpt lat="46.24749" lon="6.98774">
        <ele>401</ele>
        <time>2023-04-04T09:10:14.000Z</time>
      </trkpt>
      <trkpt lat="46.24747" lon="6.98776">
        <ele>401</ele>
        <time>2023-04-04T09:10:15.000Z</time>
      </trkpt>
      <trkpt lat="46.24745" lon="6.98778">
        <ele>401</ele>
        <time>2023-04-04T09:10:16.000Z</time>
      </trkpt>
      <trkpt lat="46.24743" lon="6.98778">
        <ele>401.20001220703</ele>
        <time>2023-04-04T09:10:17.000Z</time>
      </trkpt>
      <trkpt lat="46.2474" lon="6.98779">
        <ele>401.39999389648</ele>
        <time>2023-04-04T09:10:18.000Z</time>
      </trkpt>
      <trkpt lat="46.24738" lon="6.9878">
        <ele>401.79998779297</ele>
        <time>2023-04-04T09:10:19.000Z</time>
      </trkpt>
      <trkpt lat="46.24738" lon="6.9878">
        <ele>402</ele>
        <time>2023-04-04T09:10:20.000Z</time>
      </trkpt>
      <trkpt lat="46.24734" lon="6.98782">
        <ele>402.39999389648</ele>
        <time>2023-04-04T09:10:21.000Z</time>
      </trkpt>
      <trkpt lat="46.24732" lon="6.98782">
        <ele>402.60000610352</ele>
        <time>2023-04-04T09:10:22.000Z</time>
      </trkpt>
      <trkpt lat="46.2473" lon="6.98782">
        <ele>402.79998779297</ele>
        <time>2023-04-04T09:10:23.000Z</time>
      </trkpt>
      <trkpt lat="46.24728" lon="6.98782">
        <ele>402.79998779297</ele>
        <time>2023-04-04T09:10:24.000Z</time>
      </trkpt>
      <trkpt lat="46.24726" lon="6.98782">
        <ele>402.79998779297</ele>
        <time>2023-04-04T09:10:25.000Z</time>
      </trkpt>
      <trkpt lat="46.24724" lon="6.98782">
        <ele>403</ele>
        <time>2023-04-04T09:10:26.000Z</time>
      </trkpt>
      <trkpt lat="46.24722" lon="6.98782">
        <ele>403</ele>
        <time>2023-04-04T09:10:27.000Z</time>
      </trkpt>
      <trkpt lat="46.2472" lon="6.98783">
        <ele>403</ele>
        <time>2023-04-04T09:10:28.000Z</time>
      </trkpt>
      <trkpt lat="46.24718" lon="6.98783">
        <ele>403</ele>
        <time>2023-04-04T09:10:29.000Z</time>
      </trkpt>
      <trkpt lat="46.24715" lon="6.98784">
        <ele>403</ele>
        <time>2023-04-04T09:10:30.000Z</time>
      </trkpt>
      <trkpt lat="46.24703" lon="6.98787">
        <ele>403</ele>
        <time>2023-04-04T09:10:34.000Z</time>
      </trkpt>
      <trkpt lat="46.24697" lon="6.98788">
        <ele>403</ele>
        <time>2023-04-04T09:10:36.000Z</time>
      </trkpt>
      <trkpt lat="46.24694" lon="6.98788">
        <ele>403.20001220703</ele>
        <time>2023-04-04T09:10:37.000Z</time>
      </trkpt>
      <trkpt lat="46.24678" lon="6.98791">
        <ele>403</ele>
        <time>2023-04-04T09:10:42.000Z</time>
      </trkpt>
      <trkpt lat="46.2465" lon="6.98796">
        <ele>403.20001220703</ele>
        <time>2023-04-04T09:10:49.000Z</time>
      </trkpt>
      <trkpt lat="46.24606" lon="6.98803">
        <ele>403.39999389648</ele>
        <time>2023-04-04T09:10:59.000Z</time>
      </trkpt>
      <trkpt lat="46.24553" lon="6.98814">
        <ele>403.79998779297</ele>
        <time>2023-04-04T09:11:11.000Z</time>
      </trkpt>
      <trkpt lat="46.24549" lon="6.98816">
        <ele>403.79998779297</ele>
        <time>2023-04-04T09:11:12.000Z</time>
      </trkpt>
      <trkpt lat="46.24508" lon="6.9883">
        <ele>404</ele>
        <time>2023-04-04T09:11:21.000Z</time>
      </trkpt>
      <trkpt lat="46.24475" lon="6.98846">
        <ele>404</ele>
        <time>2023-04-04T09:11:29.000Z</time>
      </trkpt>
      <trkpt lat="46.2447" lon="6.98849">
        <ele>404.20001220703</ele>
        <time>2023-04-04T09:11:30.000Z</time>
      </trkpt>
      <trkpt lat="46.24445" lon="6.98865">
        <ele>404.20001220703</ele>
        <time>2023-04-04T09:11:36.000Z</time>
      </trkpt>
      <trkpt lat="46.24438" lon="6.9887">
        <ele>404.20001220703</ele>
        <time>2023-04-04T09:11:38.000Z</time>
      </trkpt>
      <trkpt lat="46.24435" lon="6.98873">
        <ele>404.20001220703</ele>
        <time>2023-04-04T09:11:39.000Z</time>
      </trkpt>
      <trkpt lat="46.24424" lon="6.9888">
        <ele>404.39999389648</ele>
        <time>2023-04-04T09:11:42.000Z</time>
      </trkpt>
      <trkpt lat="46.24421" lon="6.98883">
        <ele>404.39999389648</ele>
        <time>2023-04-04T09:11:43.000Z</time>
      </trkpt>
      <trkpt lat="46.24417" lon="6.98886">
        <ele>404.39999389648</ele>
        <time>2023-04-04T09:11:44.000Z</time>
      </trkpt>
      <trkpt lat="46.24413" lon="6.98888">
        <ele>404.39999389648</ele>
        <time>2023-04-04T09:11:45.000Z</time>
      </trkpt>
      <trkpt lat="46.2441" lon="6.98891">
        <ele>404.60000610352</ele>
        <time>2023-04-04T09:11:46.000Z</time>
      </trkpt>
      <trkpt lat="46.24406" lon="6.98894">
        <ele>404.60000610352</ele>
        <time>2023-04-04T09:11:47.000Z</time>
      </trkpt>
      <trkpt lat="46.24399" lon="6.989">
        <ele>404.60000610352</ele>
        <time>2023-04-04T09:11:49.000Z</time>
      </trkpt>
      <trkpt lat="46.24387" lon="6.98909">
        <ele>404.60000610352</ele>
        <time>2023-04-04T09:11:53.000Z</time>
      </trkpt>
      <trkpt lat="46.24387" lon="6.98909">
        <ele>404.60000610352</ele>
        <time>2023-04-04T09:11:54.000Z</time>
      </trkpt>
      <trkpt lat="46.24381" lon="6.98913">
        <ele>404.60000610352</ele>
        <time>2023-04-04T09:11:55.000Z</time>
      </trkpt>
      <trkpt lat="46.24367" lon="6.98919">
        <ele>404.20001220703</ele>
        <time>2023-04-04T09:11:59.000Z</time>
      </trkpt>
      <trkpt lat="46.24342" lon="6.98938">
        <ele>403</ele>
        <time>2023-04-04T09:12:06.000Z</time>
      </trkpt>
      <trkpt lat="46.24339" lon="6.98941">
        <ele>403</ele>
        <time>2023-04-04T09:12:07.000Z</time>
      </trkpt>
      <trkpt lat="46.24336" lon="6.98944">
        <ele>402.79998779297</ele>
        <time>2023-04-04T09:12:08.000Z</time>
      </trkpt>
      <trkpt lat="46.2433" lon="6.98951">
        <ele>402.79998779297</ele>
        <time>2023-04-04T09:12:10.000Z</time>
      </trkpt>
      <trkpt lat="46.24316" lon="6.98961">
        <ele>402.60000610352</ele>
        <time>2023-04-04T09:12:14.000Z</time>
      </trkpt>
      <trkpt lat="46.24292" lon="6.98981">
        <ele>402.60000610352</ele>
        <time>2023-04-04T09:12:21.000Z</time>
      </trkpt>
      <trkpt lat="46.24286" lon="6.98984">
        <ele>402.60000610352</ele>
        <time>2023-04-04T09:12:23.000Z</time>
      </trkpt>
      <trkpt lat="46.24284" lon="6.98986">
        <ele>402.60000610352</ele>
        <time>2023-04-04T09:12:24.000Z</time>
      </trkpt>
      <trkpt lat="46.24281" lon="6.98987">
        <ele>402.60000610352</ele>
        <time>2023-04-04T09:12:25.000Z</time>
      </trkpt>
      <trkpt lat="46.24279" lon="6.98988">
        <ele>402.79998779297</ele>
        <time>2023-04-04T09:12:26.000Z</time>
      </trkpt>
      <trkpt lat="46.24277" lon="6.98989">
        <ele>402.79998779297</ele>
        <time>2023-04-04T09:12:27.000Z</time>
      </trkpt>
      <trkpt lat="46.24276" lon="6.9899">
        <ele>402.79998779297</ele>
        <time>2023-04-04T09:12:28.000Z</time>
      </trkpt>
      <trkpt lat="46.24276" lon="6.98992">
        <ele>403</ele>
        <time>2023-04-04T09:12:29.000Z</time>
      </trkpt>
      <trkpt lat="46.24276" lon="6.98995">
        <ele>403</ele>
        <time>2023-04-04T09:12:30.000Z</time>
      </trkpt>
      <trkpt lat="46.24277" lon="6.98998">
        <ele>403</ele>
        <time>2023-04-04T09:12:31.000Z</time>
      </trkpt>
      <trkpt lat="46.24283" lon="6.99005">
        <ele>403.60000610352</ele>
        <time>2023-04-04T09:12:34.000Z</time>
      </trkpt>
      <trkpt lat="46.24285" lon="6.99009">
        <ele>403.79998779297</ele>
        <time>2023-04-04T09:12:35.000Z</time>
      </trkpt>
      <trkpt lat="46.24286" lon="6.99012">
        <ele>403.79998779297</ele>
        <time>2023-04-04T09:12:36.000Z</time>
      </trkpt>
      <trkpt lat="46.24286" lon="6.99019">
        <ele>404</ele>
        <time>2023-04-04T09:12:38.000Z</time>
      </trkpt>
      <trkpt lat="46.24285" lon="6.99023">
        <ele>404</ele>
        <time>2023-04-04T09:12:39.000Z</time>
      </trkpt>
      <trkpt lat="46.24278" lon="6.99032">
        <ele>404.20001220703</ele>
        <time>2023-04-04T09:12:42.000Z</time>
      </trkpt>
      <trkpt lat="46.24276" lon="6.99035">
        <ele>404.20001220703</ele>
        <time>2023-04-04T09:12:43.000Z</time>
      </trkpt>
      <trkpt lat="46.24273" lon="6.99038">
        <ele>404.20001220703</ele>
        <time>2023-04-04T09:12:44.000Z</time>
      </trkpt>
      <trkpt lat="46.24254" lon="6.99059">
        <ele>404.39999389648</ele>
        <time>2023-04-04T09:12:50.000Z</time>
      </trkpt>
      <trkpt lat="46.24228" lon="6.99092">
        <ele>404.39999389648</ele>
        <time>2023-04-04T09:12:58.000Z</time>
      </trkpt>
      <trkpt lat="46.24195" lon="6.9913">
        <ele>404.20001220703</ele>
        <time>2023-04-04T09:13:08.000Z</time>
      </trkpt>
      <trkpt lat="46.24191" lon="6.99134">
        <ele>404.20001220703</ele>
        <time>2023-04-04T09:13:09.000Z</time>
      </trkpt>
      <trkpt lat="46.24188" lon="6.99137">
        <ele>404.20001220703</ele>
        <time>2023-04-04T09:13:10.000Z</time>
      </trkpt>
      <trkpt lat="46.24184" lon="6.9914">
        <ele>404.39999389648</ele>
        <time>2023-04-04T09:13:11.000Z</time>
      </trkpt>
      <trkpt lat="46.24161" lon="6.99157">
        <ele>404.39999389648</ele>
        <time>2023-04-04T09:13:17.000Z</time>
      </trkpt>
      <trkpt lat="46.24123" lon="6.99191">
        <ele>404.39999389648</ele>
        <time>2023-04-04T09:13:27.000Z</time>
      </trkpt>
      <trkpt lat="46.24087" lon="6.99229">
        <ele>404.39999389648</ele>
        <time>2023-04-04T09:13:37.000Z</time>
      </trkpt>
      <trkpt lat="46.24084" lon="6.99233">
        <ele>404.39999389648</ele>
        <time>2023-04-04T09:13:38.000Z</time>
      </trkpt>
      <trkpt lat="46.24081" lon="6.99236">
        <ele>404.39999389648</ele>
        <time>2023-04-04T09:13:39.000Z</time>
      </trkpt>
      <trkpt lat="46.24078" lon="6.99239">
        <ele>404.39999389648</ele>
        <time>2023-04-04T09:13:40.000Z</time>
      </trkpt>
      <trkpt lat="46.24075" lon="6.99242">
        <ele>404.39999389648</ele>
        <time>2023-04-04T09:13:41.000Z</time>
      </trkpt>
      <trkpt lat="46.24073" lon="6.99245">
        <ele>404.39999389648</ele>
        <time>2023-04-04T09:13:42.000Z</time>
      </trkpt>
      <trkpt lat="46.2407" lon="6.99248">
        <ele>404.39999389648</ele>
        <time>2023-04-04T09:13:43.000Z</time>
      </trkpt>
      <trkpt lat="46.24066" lon="6.99252">
        <ele>404.39999389648</ele>
        <time>2023-04-04T09:13:44.000Z</time>
      </trkpt>
      <trkpt lat="46.24063" lon="6.99255">
        <ele>404.39999389648</ele>
        <time>2023-04-04T09:13:45.000Z</time>
      </trkpt>
      <trkpt lat="46.2406" lon="6.99258">
        <ele>404.39999389648</ele>
        <time>2023-04-04T09:13:46.000Z</time>
      </trkpt>
      <trkpt lat="46.24057" lon="6.99262">
        <ele>404.39999389648</ele>
        <time>2023-04-04T09:13:47.000Z</time>
      </trkpt>
      <trkpt lat="46.24052" lon="6.99268">
        <ele>404.39999389648</ele>
        <time>2023-04-04T09:13:49.000Z</time>
      </trkpt>
      <trkpt lat="46.24042" lon="6.99279">
        <ele>404.39999389648</ele>
        <time>2023-04-04T09:13:52.000Z</time>
      </trkpt>
      <trkpt lat="46.24005" lon="6.99321">
        <ele>404.60000610352</ele>
        <time>2023-04-04T09:14:04.000Z</time>
      </trkpt>
      <trkpt lat="46.24002" lon="6.99324">
        <ele>404.60000610352</ele>
        <time>2023-04-04T09:14:05.000Z</time>
      </trkpt>
      <trkpt lat="46.23999" lon="6.99328">
        <ele>404.60000610352</ele>
        <time>2023-04-04T09:14:06.000Z</time>
      </trkpt>
      <trkpt lat="46.2398" lon="6.99348">
        <ele>404.60000610352</ele>
        <time>2023-04-04T09:14:12.000Z</time>
      </trkpt>
      <trkpt lat="46.23966" lon="6.99359">
        <ele>404.60000610352</ele>
        <time>2023-04-04T09:14:16.000Z</time>
      </trkpt>
      <trkpt lat="46.23932" lon="6.99384">
        <ele>404.60000610352</ele>
        <time>2023-04-04T09:14:25.000Z</time>
      </trkpt>
      <trkpt lat="46.23897" lon="6.99411">
        <ele>404.60000610352</ele>
        <time>2023-04-04T09:14:34.000Z</time>
      </trkpt>
      <trkpt lat="46.23872" lon="6.99428">
        <ele>404.79998779297</ele>
        <time>2023-04-04T09:14:40.000Z</time>
      </trkpt>
      <trkpt lat="46.23855" lon="6.99437">
        <ele>405</ele>
        <time>2023-04-04T09:14:44.000Z</time>
      </trkpt>
      <trkpt lat="46.23803" lon="6.9946">
        <ele>405.39999389648</ele>
        <time>2023-04-04T09:14:56.000Z</time>
      </trkpt>
      <trkpt lat="46.23799" lon="6.99462">
        <ele>405.39999389648</ele>
        <time>2023-04-04T09:14:57.000Z</time>
      </trkpt>
      <trkpt lat="46.23749" lon="6.99478">
        <ele>405.79998779297</ele>
        <time>2023-04-04T09:15:08.000Z</time>
      </trkpt>
      <trkpt lat="46.2374" lon="6.99481">
        <ele>405.79998779297</ele>
        <time>2023-04-04T09:15:10.000Z</time>
      </trkpt>
      <trkpt lat="46.23726" lon="6.99486">
        <ele>406</ele>
        <time>2023-04-04T09:15:13.000Z</time>
      </trkpt>
      <trkpt lat="46.23708" lon="6.99495">
        <ele>406</ele>
        <time>2023-04-04T09:15:17.000Z</time>
      </trkpt>
      <trkpt lat="46.23656" lon="6.99524">
        <ele>406</ele>
        <time>2023-04-04T09:15:28.000Z</time>
      </trkpt>
      <trkpt lat="46.23652" lon="6.99526">
        <ele>406</ele>
        <time>2023-04-04T09:15:29.000Z</time>
      </trkpt>
      <trkpt lat="46.23638" lon="6.99532">
        <ele>406</ele>
        <time>2023-04-04T09:15:32.000Z</time>
      </trkpt>
      <trkpt lat="46.23634" lon="6.99534">
        <ele>406</ele>
        <time>2023-04-04T09:15:33.000Z</time>
      </trkpt>
      <trkpt lat="46.2363" lon="6.99537">
        <ele>406</ele>
        <time>2023-04-04T09:15:34.000Z</time>
      </trkpt>
      <trkpt lat="46.23626" lon="6.9954">
        <ele>406</ele>
        <time>2023-04-04T09:15:35.000Z</time>
      </trkpt>
      <trkpt lat="46.23622" lon="6.99543">
        <ele>406</ele>
        <time>2023-04-04T09:15:36.000Z</time>
      </trkpt>
      <trkpt lat="46.23618" lon="6.99547">
        <ele>406</ele>
        <time>2023-04-04T09:15:37.000Z</time>
      </trkpt>
      <trkpt lat="46.23615" lon="6.99551">
        <ele>406</ele>
        <time>2023-04-04T09:15:38.000Z</time>
      </trkpt>
      <trkpt lat="46.23611" lon="6.99555">
        <ele>406</ele>
        <time>2023-04-04T09:15:39.000Z</time>
      </trkpt>
      <trkpt lat="46.23608" lon="6.99559">
        <ele>406</ele>
        <time>2023-04-04T09:15:40.000Z</time>
      </trkpt>
      <trkpt lat="46.23605" lon="6.99563">
        <ele>406.20001220703</ele>
        <time>2023-04-04T09:15:41.000Z</time>
      </trkpt>
      <trkpt lat="46.23602" lon="6.99567">
        <ele>406.20001220703</ele>
        <time>2023-04-04T09:15:42.000Z</time>
      </trkpt>
      <trkpt lat="46.23599" lon="6.99572">
        <ele>406.20001220703</ele>
        <time>2023-04-04T09:15:43.000Z</time>
      </trkpt>
      <trkpt lat="46.23596" lon="6.99576">
        <ele>406.20001220703</ele>
        <time>2023-04-04T09:15:44.000Z</time>
      </trkpt>
      <trkpt lat="46.23593" lon="6.99581">
        <ele>406.20001220703</ele>
        <time>2023-04-04T09:15:45.000Z</time>
      </trkpt>
      <trkpt lat="46.23591" lon="6.99585">
        <ele>406.20001220703</ele>
        <time>2023-04-04T09:15:46.000Z</time>
      </trkpt>
      <trkpt lat="46.23588" lon="6.9959">
        <ele>406.20001220703</ele>
        <time>2023-04-04T09:15:47.000Z</time>
      </trkpt>
      <trkpt lat="46.23585" lon="6.99595">
        <ele>406</ele>
        <time>2023-04-04T09:15:48.000Z</time>
      </trkpt>
      <trkpt lat="46.23583" lon="6.99599">
        <ele>406</ele>
        <time>2023-04-04T09:15:49.000Z</time>
      </trkpt>
      <trkpt lat="46.2358" lon="6.99603">
        <ele>406</ele>
        <time>2023-04-04T09:15:50.000Z</time>
      </trkpt>
      <trkpt lat="46.23578" lon="6.99607">
        <ele>406</ele>
        <time>2023-04-04T09:15:51.000Z</time>
      </trkpt>
      <trkpt lat="46.23576" lon="6.99611">
        <ele>405.79998779297</ele>
        <time>2023-04-04T09:15:52.000Z</time>
      </trkpt>
      <trkpt lat="46.23573" lon="6.99615">
        <ele>405.79998779297</ele>
        <time>2023-04-04T09:15:53.000Z</time>
      </trkpt>
      <trkpt lat="46.23571" lon="6.99617">
        <ele>405.79998779297</ele>
        <time>2023-04-04T09:15:54.000Z</time>
      </trkpt>
      <trkpt lat="46.23569" lon="6.9962">
        <ele>405.79998779297</ele>
        <time>2023-04-04T09:15:55.000Z</time>
      </trkpt>
      <trkpt lat="46.23566" lon="6.9962">
        <ele>405.79998779297</ele>
        <time>2023-04-04T09:15:56.000Z</time>
      </trkpt>
      <trkpt lat="46.23563" lon="6.99619">
        <ele>405.79998779297</ele>
        <time>2023-04-04T09:15:57.000Z</time>
      </trkpt>
      <trkpt lat="46.23561" lon="6.99617">
        <ele>405.79998779297</ele>
        <time>2023-04-04T09:15:58.000Z</time>
      </trkpt>
      <trkpt lat="46.23559" lon="6.99615">
        <ele>405.79998779297</ele>
        <time>2023-04-04T09:15:59.000Z</time>
      </trkpt>
      <trkpt lat="46.23548" lon="6.99604">
        <ele>406</ele>
        <time>2023-04-04T09:16:03.000Z</time>
      </trkpt>
      <trkpt lat="46.23524" lon="6.99579">
        <ele>406</ele>
        <time>2023-04-04T09:16:12.000Z</time>
      </trkpt>
      <trkpt lat="46.23517" lon="6.99572">
        <ele>406.39999389648</ele>
        <time>2023-04-04T09:16:15.000Z</time>
      </trkpt>
      <trkpt lat="46.23515" lon="6.99569">
        <ele>406.60000610352</ele>
        <time>2023-04-04T09:16:16.000Z</time>
      </trkpt>
      <trkpt lat="46.23512" lon="6.99567">
        <ele>406.60000610352</ele>
        <time>2023-04-04T09:16:17.000Z</time>
      </trkpt>
      <trkpt lat="46.2351" lon="6.99564">
        <ele>406.79998779297</ele>
        <time>2023-04-04T09:16:18.000Z</time>
      </trkpt>
      <trkpt lat="46.23507" lon="6.99562">
        <ele>406.79998779297</ele>
        <time>2023-04-04T09:16:19.000Z</time>
      </trkpt>
      <trkpt lat="46.23505" lon="6.99559">
        <ele>407</ele>
        <time>2023-04-04T09:16:20.000Z</time>
      </trkpt>
      <trkpt lat="46.23502" lon="6.99556">
        <ele>407.20001220703</ele>
        <time>2023-04-04T09:16:21.000Z</time>
      </trkpt>
      <trkpt lat="46.23486" lon="6.99541">
        <ele>408</ele>
        <time>2023-04-04T09:16:28.000Z</time>
      </trkpt>
      <trkpt lat="46.23484" lon="6.99539">
        <ele>408</ele>
        <time>2023-04-04T09:16:29.000Z</time>
      </trkpt>
      <trkpt lat="46.23483" lon="6.99537">
        <ele>408</ele>
        <time>2023-04-04T09:16:30.000Z</time>
      </trkpt>
      <trkpt lat="46.23482" lon="6.99535">
        <ele>408.20001220703</ele>
        <time>2023-04-04T09:16:31.000Z</time>
      </trkpt>
      <trkpt lat="46.23481" lon="6.99535">
        <ele>408.20001220703</ele>
        <time>2023-04-04T09:16:32.000Z</time>
      </trkpt>
      <trkpt lat="46.23481" lon="6.99535">
        <ele>408.20001220703</ele>
        <time>2023-04-04T09:16:33.000Z</time>
      </trkpt>
      <trkpt lat="46.23481" lon="6.99535">
        <ele>408.39999389648</ele>
        <time>2023-04-04T09:16:34.000Z</time>
      </trkpt>
      <trkpt lat="46.23478" lon="6.99529">
        <ele>409.39999389648</ele>
        <time>2023-04-04T09:17:34.000Z</time>
      </trkpt>
      <trkpt lat="46.23471" lon="6.99517">
        <ele>409.20001220703</ele>
        <time>2023-04-04T09:17:39.000Z</time>
      </trkpt>
      <trkpt lat="46.23469" lon="6.99517">
        <ele>409.20001220703</ele>
        <time>2023-04-04T09:17:40.000Z</time>
      </trkpt>
      <trkpt lat="46.23462" lon="6.99521">
        <ele>409.20001220703</ele>
        <time>2023-04-04T09:17:43.000Z</time>
      </trkpt>
      <trkpt lat="46.2346" lon="6.99522">
        <ele>409.20001220703</ele>
        <time>2023-04-04T09:17:44.000Z</time>
      </trkpt>
      <trkpt lat="46.23458" lon="6.99522">
        <ele>409.20001220703</ele>
        <time>2023-04-04T09:17:45.000Z</time>
      </trkpt>
      <trkpt lat="46.23452" lon="6.99522">
        <ele>409.20001220703</ele>
        <time>2023-04-04T09:17:47.000Z</time>
      </trkpt>
      <trkpt lat="46.23449" lon="6.99521">
        <ele>409.20001220703</ele>
        <time>2023-04-04T09:17:48.000Z</time>
      </trkpt>
      <trkpt lat="46.23446" lon="6.99521">
        <ele>409.20001220703</ele>
        <time>2023-04-04T09:17:49.000Z</time>
      </trkpt>
      <trkpt lat="46.2343" lon="6.9952">
        <ele>409.39999389648</ele>
        <time>2023-04-04T09:17:55.000Z</time>
      </trkpt>
      <trkpt lat="46.23428" lon="6.99518">
        <ele>409.39999389648</ele>
        <time>2023-04-04T09:17:56.000Z</time>
      </trkpt>
      <trkpt lat="46.23426" lon="6.99516">
        <ele>409.60000610352</ele>
        <time>2023-04-04T09:17:57.000Z</time>
      </trkpt>
      <trkpt lat="46.23424" lon="6.99513">
        <ele>409.60000610352</ele>
        <time>2023-04-04T09:17:58.000Z</time>
      </trkpt>
      <trkpt lat="46.23422" lon="6.99511">
        <ele>409.60000610352</ele>
        <time>2023-04-04T09:17:59.000Z</time>
      </trkpt>
      <trkpt lat="46.23419" lon="6.9951">
        <ele>409.60000610352</ele>
        <time>2023-04-04T09:18:00.000Z</time>
      </trkpt>
      <trkpt lat="46.23416" lon="6.9951">
        <ele>409.60000610352</ele>
        <time>2023-04-04T09:18:01.000Z</time>
      </trkpt>
      <trkpt lat="46.23414" lon="6.99511">
        <ele>409.79998779297</ele>
        <time>2023-04-04T09:18:02.000Z</time>
      </trkpt>
      <trkpt lat="46.23409" lon="6.99515">
        <ele>409.79998779297</ele>
        <time>2023-04-04T09:18:04.000Z</time>
      </trkpt>
      <trkpt lat="46.23406" lon="6.99517">
        <ele>410</ele>
        <time>2023-04-04T09:18:05.000Z</time>
      </trkpt>
      <trkpt lat="46.23404" lon="6.9952">
        <ele>410</ele>
        <time>2023-04-04T09:18:06.000Z</time>
      </trkpt>
      <trkpt lat="46.23402" lon="6.99523">
        <ele>410</ele>
        <time>2023-04-04T09:18:07.000Z</time>
      </trkpt>
      <trkpt lat="46.23378" lon="6.9955">
        <ele>410.20001220703</ele>
        <time>2023-04-04T09:18:15.000Z</time>
      </trkpt>
      <trkpt lat="46.2336" lon="6.99573">
        <ele>410.39999389648</ele>
        <time>2023-04-04T09:18:21.000Z</time>
      </trkpt>
      <trkpt lat="46.23351" lon="6.99584">
        <ele>410.60000610352</ele>
        <time>2023-04-04T09:18:24.000Z</time>
      </trkpt>
      <trkpt lat="46.23326" lon="6.99614">
        <ele>410.79998779297</ele>
        <time>2023-04-04T09:18:32.000Z</time>
      </trkpt>
      <trkpt lat="46.23323" lon="6.99617">
        <ele>410.79998779297</ele>
        <time>2023-04-04T09:18:33.000Z</time>
      </trkpt>
      <trkpt lat="46.23317" lon="6.99624">
        <ele>411</ele>
        <time>2023-04-04T09:18:35.000Z</time>
      </trkpt>
      <trkpt lat="46.23314" lon="6.99627">
        <ele>411</ele>
        <time>2023-04-04T09:18:36.000Z</time>
      </trkpt>
      <trkpt lat="46.2331" lon="6.99629">
        <ele>411</ele>
        <time>2023-04-04T09:18:37.000Z</time>
      </trkpt>
      <trkpt lat="46.23303" lon="6.99633">
        <ele>411.20001220703</ele>
        <time>2023-04-04T09:18:39.000Z</time>
      </trkpt>
      <trkpt lat="46.23293" lon="6.99638">
        <ele>411.39999389648</ele>
        <time>2023-04-04T09:18:42.000Z</time>
      </trkpt>
      <trkpt lat="46.2329" lon="6.9964">
        <ele>411.39999389648</ele>
        <time>2023-04-04T09:18:43.000Z</time>
      </trkpt>
      <trkpt lat="46.23287" lon="6.99644">
        <ele>411.39999389648</ele>
        <time>2023-04-04T09:18:44.000Z</time>
      </trkpt>
      <trkpt lat="46.23284" lon="6.99647">
        <ele>411.39999389648</ele>
        <time>2023-04-04T09:18:45.000Z</time>
      </trkpt>
      <trkpt lat="46.23282" lon="6.99652">
        <ele>411.60000610352</ele>
        <time>2023-04-04T09:18:46.000Z</time>
      </trkpt>
      <trkpt lat="46.2328" lon="6.99657">
        <ele>411.60000610352</ele>
        <time>2023-04-04T09:18:47.000Z</time>
      </trkpt>
      <trkpt lat="46.23277" lon="6.99662">
        <ele>411.60000610352</ele>
        <time>2023-04-04T09:18:48.000Z</time>
      </trkpt>
      <trkpt lat="46.23267" lon="6.99681">
        <ele>411.79998779297</ele>
        <time>2023-04-04T09:18:52.000Z</time>
      </trkpt>
      <trkpt lat="46.23261" lon="6.9969">
        <ele>411.79998779297</ele>
        <time>2023-04-04T09:18:54.000Z</time>
      </trkpt>
      <trkpt lat="46.23243" lon="6.99711">
        <ele>411.79998779297</ele>
        <time>2023-04-04T09:18:59.000Z</time>
      </trkpt>
      <trkpt lat="46.23211" lon="6.99745">
        <ele>411.39999389648</ele>
        <time>2023-04-04T09:19:07.000Z</time>
      </trkpt>
      <trkpt lat="46.23171" lon="6.99791">
        <ele>411</ele>
        <time>2023-04-04T09:19:17.000Z</time>
      </trkpt>
      <trkpt lat="46.23167" lon="6.99795">
        <ele>411</ele>
        <time>2023-04-04T09:19:18.000Z</time>
      </trkpt>
      <trkpt lat="46.23147" lon="6.99818">
        <ele>411</ele>
        <time>2023-04-04T09:19:23.000Z</time>
      </trkpt>
      <trkpt lat="46.23143" lon="6.99823">
        <ele>411.20001220703</ele>
        <time>2023-04-04T09:19:24.000Z</time>
      </trkpt>
      <trkpt lat="46.23139" lon="6.99827">
        <ele>411.20001220703</ele>
        <time>2023-04-04T09:19:25.000Z</time>
      </trkpt>
      <trkpt lat="46.23135" lon="6.99831">
        <ele>411.20001220703</ele>
        <time>2023-04-04T09:19:26.000Z</time>
      </trkpt>
      <trkpt lat="46.23132" lon="6.99835">
        <ele>411.20001220703</ele>
        <time>2023-04-04T09:19:27.000Z</time>
      </trkpt>
      <trkpt lat="46.23124" lon="6.99844">
        <ele>411.20001220703</ele>
        <time>2023-04-04T09:19:29.000Z</time>
      </trkpt>
      <trkpt lat="46.23117" lon="6.99853">
        <ele>411.39999389648</ele>
        <time>2023-04-04T09:19:31.000Z</time>
      </trkpt>
      <trkpt lat="46.23113" lon="6.99857">
        <ele>411.39999389648</ele>
        <time>2023-04-04T09:19:32.000Z</time>
      </trkpt>
      <trkpt lat="46.2311" lon="6.99861">
        <ele>411.60000610352</ele>
        <time>2023-04-04T09:19:33.000Z</time>
      </trkpt>
      <trkpt lat="46.23106" lon="6.99866">
        <ele>411.60000610352</ele>
        <time>2023-04-04T09:19:34.000Z</time>
      </trkpt>
      <trkpt lat="46.23102" lon="6.9987">
        <ele>411.60000610352</ele>
        <time>2023-04-04T09:19:35.000Z</time>
      </trkpt>
      <trkpt lat="46.23094" lon="6.99878">
        <ele>411.60000610352</ele>
        <time>2023-04-04T09:19:37.000Z</time>
      </trkpt>
      <trkpt lat="46.23091" lon="6.99882">
        <ele>411.60000610352</ele>
        <time>2023-04-04T09:19:38.000Z</time>
      </trkpt>
      <trkpt lat="46.23087" lon="6.99886">
        <ele>411.60000610352</ele>
        <time>2023-04-04T09:19:39.000Z</time>
      </trkpt>
      <trkpt lat="46.23054" lon="6.99923">
        <ele>411.60000610352</ele>
        <time>2023-04-04T09:19:48.000Z</time>
      </trkpt>
      <trkpt lat="46.23031" lon="6.99944">
        <ele>411.79998779297</ele>
        <time>2023-04-04T09:19:54.000Z</time>
      </trkpt>
      <trkpt lat="46.23028" lon="6.99948">
        <ele>411.79998779297</ele>
        <time>2023-04-04T09:19:55.000Z</time>
      </trkpt>
      <trkpt lat="46.23024" lon="6.99951">
        <ele>412</ele>
        <time>2023-04-04T09:19:56.000Z</time>
      </trkpt>
      <trkpt lat="46.2302" lon="6.99954">
        <ele>412</ele>
        <time>2023-04-04T09:19:57.000Z</time>
      </trkpt>
      <trkpt lat="46.23017" lon="6.99958">
        <ele>412.20001220703</ele>
        <time>2023-04-04T09:19:58.000Z</time>
      </trkpt>
      <trkpt lat="46.23013" lon="6.99961">
        <ele>412.20001220703</ele>
        <time>2023-04-04T09:19:59.000Z</time>
      </trkpt>
      <trkpt lat="46.2301" lon="6.99964">
        <ele>412.20001220703</ele>
        <time>2023-04-04T09:20:00.000Z</time>
      </trkpt>
      <trkpt lat="46.23006" lon="6.99968">
        <ele>412.20001220703</ele>
        <time>2023-04-04T09:20:01.000Z</time>
      </trkpt>
      <trkpt lat="46.23003" lon="6.99971">
        <ele>412.20001220703</ele>
        <time>2023-04-04T09:20:02.000Z</time>
      </trkpt>
      <trkpt lat="46.22999" lon="6.99974">
        <ele>412.39999389648</ele>
        <time>2023-04-04T09:20:03.000Z</time>
      </trkpt>
      <trkpt lat="46.22996" lon="6.99977">
        <ele>412.39999389648</ele>
        <time>2023-04-04T09:20:04.000Z</time>
      </trkpt>
      <trkpt lat="46.22993" lon="6.9998">
        <ele>412.39999389648</ele>
        <time>2023-04-04T09:20:05.000Z</time>
      </trkpt>
      <trkpt lat="46.22989" lon="6.99983">
        <ele>412.60000610352</ele>
        <time>2023-04-04T09:20:06.000Z</time>
      </trkpt>
      <trkpt lat="46.22986" lon="6.99986">
        <ele>412.60000610352</ele>
        <time>2023-04-04T09:20:07.000Z</time>
      </trkpt>
      <trkpt lat="46.22983" lon="6.99989">
        <ele>412.60000610352</ele>
        <time>2023-04-04T09:20:08.000Z</time>
      </trkpt>
      <trkpt lat="46.2298" lon="6.99991">
        <ele>412.60000610352</ele>
        <time>2023-04-04T09:20:09.000Z</time>
      </trkpt>
      <trkpt lat="46.22977" lon="6.99994">
        <ele>412.79998779297</ele>
        <time>2023-04-04T09:20:10.000Z</time>
      </trkpt>
      <trkpt lat="46.22974" lon="6.99996">
        <ele>412.79998779297</ele>
        <time>2023-04-04T09:20:11.000Z</time>
      </trkpt>
      <trkpt lat="46.22971" lon="6.99999">
        <ele>413</ele>
        <time>2023-04-04T09:20:12.000Z</time>
      </trkpt>
      <trkpt lat="46.22969" lon="7.00001">
        <ele>413.20001220703</ele>
        <time>2023-04-04T09:20:13.000Z</time>
      </trkpt>
      <trkpt lat="46.22966" lon="7.00003">
        <ele>413.20001220703</ele>
        <time>2023-04-04T09:20:14.000Z</time>
      </trkpt>
      <trkpt lat="46.22963" lon="7.00005">
        <ele>413.39999389648</ele>
        <time>2023-04-04T09:20:15.000Z</time>
      </trkpt>
      <trkpt lat="46.2296" lon="7.00007">
        <ele>413.60000610352</ele>
        <time>2023-04-04T09:20:16.000Z</time>
      </trkpt>
      <trkpt lat="46.22957" lon="7.0001">
        <ele>413.79998779297</ele>
        <time>2023-04-04T09:20:17.000Z</time>
      </trkpt>
      <trkpt lat="46.22954" lon="7.00012">
        <ele>413.79998779297</ele>
        <time>2023-04-04T09:20:18.000Z</time>
      </trkpt>
      <trkpt lat="46.22951" lon="7.00014">
        <ele>414</ele>
        <time>2023-04-04T09:20:19.000Z</time>
      </trkpt>
      <trkpt lat="46.22948" lon="7.00016">
        <ele>414.20001220703</ele>
        <time>2023-04-04T09:20:20.000Z</time>
      </trkpt>
      <trkpt lat="46.22942" lon="7.0002">
        <ele>414.39999389648</ele>
        <time>2023-04-04T09:20:22.000Z</time>
      </trkpt>
      <trkpt lat="46.22915" lon="7.00039">
        <ele>415.20001220703</ele>
        <time>2023-04-04T09:20:31.000Z</time>
      </trkpt>
      <trkpt lat="46.22912" lon="7.00042">
        <ele>415.39999389648</ele>
        <time>2023-04-04T09:20:32.000Z</time>
      </trkpt>
      <trkpt lat="46.2291" lon="7.00044">
        <ele>415.60000610352</ele>
        <time>2023-04-04T09:20:33.000Z</time>
      </trkpt>
      <trkpt lat="46.22907" lon="7.00046">
        <ele>415.79998779297</ele>
        <time>2023-04-04T09:20:34.000Z</time>
      </trkpt>
      <trkpt lat="46.22905" lon="7.00047">
        <ele>415.79998779297</ele>
        <time>2023-04-04T09:20:35.000Z</time>
      </trkpt>
      <trkpt lat="46.22902" lon="7.00049">
        <ele>416</ele>
        <time>2023-04-04T09:20:36.000Z</time>
      </trkpt>
      <trkpt lat="46.22899" lon="7.00051">
        <ele>416.20001220703</ele>
        <time>2023-04-04T09:20:37.000Z</time>
      </trkpt>
      <trkpt lat="46.22897" lon="7.00053">
        <ele>416.39999389648</ele>
        <time>2023-04-04T09:20:38.000Z</time>
      </trkpt>
      <trkpt lat="46.22894" lon="7.00055">
        <ele>416.60000610352</ele>
        <time>2023-04-04T09:20:39.000Z</time>
      </trkpt>
      <trkpt lat="46.22891" lon="7.00057">
        <ele>416.60000610352</ele>
        <time>2023-04-04T09:20:40.000Z</time>
      </trkpt>
      <trkpt lat="46.22887" lon="7.00058">
        <ele>417.20001220703</ele>
        <time>2023-04-04T09:20:41.000Z</time>
      </trkpt>
      <trkpt lat="46.22884" lon="7.0006">
        <ele>417</ele>
        <time>2023-04-04T09:20:42.000Z</time>
      </trkpt>
      <trkpt lat="46.22881" lon="7.00063">
        <ele>417.39999389648</ele>
        <time>2023-04-04T09:20:43.000Z</time>
      </trkpt>
      <trkpt lat="46.22878" lon="7.00065">
        <ele>417.39999389648</ele>
        <time>2023-04-04T09:20:44.000Z</time>
      </trkpt>
      <trkpt lat="46.22875" lon="7.00068">
        <ele>417.60000610352</ele>
        <time>2023-04-04T09:20:45.000Z</time>
      </trkpt>
      <trkpt lat="46.22871" lon="7.0007">
        <ele>417.60000610352</ele>
        <time>2023-04-04T09:20:46.000Z</time>
      </trkpt>
      <trkpt lat="46.22868" lon="7.00071">
        <ele>417.60000610352</ele>
        <time>2023-04-04T09:20:47.000Z</time>
      </trkpt>
      <trkpt lat="46.22865" lon="7.00074">
        <ele>417.79998779297</ele>
        <time>2023-04-04T09:20:48.000Z</time>
      </trkpt>
      <trkpt lat="46.22861" lon="7.00076">
        <ele>417.79998779297</ele>
        <time>2023-04-04T09:20:49.000Z</time>
      </trkpt>
      <trkpt lat="46.22858" lon="7.00079">
        <ele>418</ele>
        <time>2023-04-04T09:20:50.000Z</time>
      </trkpt>
      <trkpt lat="46.22855" lon="7.00081">
        <ele>418.20001220703</ele>
        <time>2023-04-04T09:20:51.000Z</time>
      </trkpt>
      <trkpt lat="46.22852" lon="7.00084">
        <ele>418.20001220703</ele>
        <time>2023-04-04T09:20:52.000Z</time>
      </trkpt>
      <trkpt lat="46.22849" lon="7.00085">
        <ele>418.39999389648</ele>
        <time>2023-04-04T09:20:53.000Z</time>
      </trkpt>
      <trkpt lat="46.22845" lon="7.00086">
        <ele>418.39999389648</ele>
        <time>2023-04-04T09:20:54.000Z</time>
      </trkpt>
      <trkpt lat="46.22841" lon="7.00087">
        <ele>418.39999389648</ele>
        <time>2023-04-04T09:20:55.000Z</time>
      </trkpt>
      <trkpt lat="46.22838" lon="7.00087">
        <ele>418.60000610352</ele>
        <time>2023-04-04T09:20:56.000Z</time>
      </trkpt>
      <trkpt lat="46.22834" lon="7.00088">
        <ele>418.60000610352</ele>
        <time>2023-04-04T09:20:57.000Z</time>
      </trkpt>
      <trkpt lat="46.2283" lon="7.00089">
        <ele>418.79998779297</ele>
        <time>2023-04-04T09:20:58.000Z</time>
      </trkpt>
      <trkpt lat="46.22826" lon="7.00089">
        <ele>418.79998779297</ele>
        <time>2023-04-04T09:20:59.000Z</time>
      </trkpt>
      <trkpt lat="46.22822" lon="7.0009">
        <ele>418.79998779297</ele>
        <time>2023-04-04T09:21:00.000Z</time>
      </trkpt>
      <trkpt lat="46.22818" lon="7.00092">
        <ele>418.79998779297</ele>
        <time>2023-04-04T09:21:01.000Z</time>
      </trkpt>
      <trkpt lat="46.22814" lon="7.00092">
        <ele>419</ele>
        <time>2023-04-04T09:21:02.000Z</time>
      </trkpt>
      <trkpt lat="46.22811" lon="7.00092">
        <ele>419</ele>
        <time>2023-04-04T09:21:03.000Z</time>
      </trkpt>
      <trkpt lat="46.22807" lon="7.00093">
        <ele>419</ele>
        <time>2023-04-04T09:21:04.000Z</time>
      </trkpt>
      <trkpt lat="46.22804" lon="7.00094">
        <ele>419</ele>
        <time>2023-04-04T09:21:05.000Z</time>
      </trkpt>
      <trkpt lat="46.22801" lon="7.00094">
        <ele>419.20001220703</ele>
        <time>2023-04-04T09:21:06.000Z</time>
      </trkpt>
      <trkpt lat="46.22797" lon="7.00095">
        <ele>419.20001220703</ele>
        <time>2023-04-04T09:21:07.000Z</time>
      </trkpt>
      <trkpt lat="46.22794" lon="7.00096">
        <ele>419.39999389648</ele>
        <time>2023-04-04T09:21:08.000Z</time>
      </trkpt>
      <trkpt lat="46.2279" lon="7.00097">
        <ele>419.39999389648</ele>
        <time>2023-04-04T09:21:09.000Z</time>
      </trkpt>
      <trkpt lat="46.22787" lon="7.00098">
        <ele>419.39999389648</ele>
        <time>2023-04-04T09:21:10.000Z</time>
      </trkpt>
      <trkpt lat="46.22784" lon="7.00099">
        <ele>419.79998779297</ele>
        <time>2023-04-04T09:21:11.000Z</time>
      </trkpt>
      <trkpt lat="46.22746" lon="7.00107">
        <ele>420.20001220703</ele>
        <time>2023-04-04T09:21:20.000Z</time>
      </trkpt>
      <trkpt lat="46.22726" lon="7.00111">
        <ele>420.20001220703</ele>
        <time>2023-04-04T09:21:25.000Z</time>
      </trkpt>
      <trkpt lat="46.22723" lon="7.00112">
        <ele>420.20001220703</ele>
        <time>2023-04-04T09:21:26.000Z</time>
      </trkpt>
      <trkpt lat="46.22719" lon="7.00113">
        <ele>420.20001220703</ele>
        <time>2023-04-04T09:21:27.000Z</time>
      </trkpt>
      <trkpt lat="46.22715" lon="7.00114">
        <ele>420.20001220703</ele>
        <time>2023-04-04T09:21:28.000Z</time>
      </trkpt>
      <trkpt lat="46.22711" lon="7.00115">
        <ele>420.39999389648</ele>
        <time>2023-04-04T09:21:29.000Z</time>
      </trkpt>
      <trkpt lat="46.22708" lon="7.00115">
        <ele>420.39999389648</ele>
        <time>2023-04-04T09:21:30.000Z</time>
      </trkpt>
      <trkpt lat="46.22704" lon="7.00116">
        <ele>420.39999389648</ele>
        <time>2023-04-04T09:21:31.000Z</time>
      </trkpt>
      <trkpt lat="46.227" lon="7.00117">
        <ele>420.39999389648</ele>
        <time>2023-04-04T09:21:32.000Z</time>
      </trkpt>
      <trkpt lat="46.22697" lon="7.00117">
        <ele>420.39999389648</ele>
        <time>2023-04-04T09:21:33.000Z</time>
      </trkpt>
      <trkpt lat="46.22693" lon="7.00118">
        <ele>420.39999389648</ele>
        <time>2023-04-04T09:21:34.000Z</time>
      </trkpt>
      <trkpt lat="46.2269" lon="7.00118">
        <ele>420.39999389648</ele>
        <time>2023-04-04T09:21:35.000Z</time>
      </trkpt>
      <trkpt lat="46.22686" lon="7.00119">
        <ele>420.39999389648</ele>
        <time>2023-04-04T09:21:36.000Z</time>
      </trkpt>
      <trkpt lat="46.22682" lon="7.0012">
        <ele>420.39999389648</ele>
        <time>2023-04-04T09:21:37.000Z</time>
      </trkpt>
      <trkpt lat="46.2264" lon="7.00128">
        <ele>420.60000610352</ele>
        <time>2023-04-04T09:21:48.000Z</time>
      </trkpt>
      <trkpt lat="46.22625" lon="7.0013">
        <ele>420.39999389648</ele>
        <time>2023-04-04T09:21:51.000Z</time>
      </trkpt>
      <trkpt lat="46.22615" lon="7.0013">
        <ele>420.39999389648</ele>
        <time>2023-04-04T09:21:53.000Z</time>
      </trkpt>
      <trkpt lat="46.22594" lon="7.0013">
        <ele>419.60000610352</ele>
        <time>2023-04-04T09:21:57.000Z</time>
      </trkpt>
      <trkpt lat="46.22589" lon="7.00129">
        <ele>419.39999389648</ele>
        <time>2023-04-04T09:21:58.000Z</time>
      </trkpt>
      <trkpt lat="46.22584" lon="7.00129">
        <ele>419.20001220703</ele>
        <time>2023-04-04T09:21:59.000Z</time>
      </trkpt>
      <trkpt lat="46.22579" lon="7.00129">
        <ele>419</ele>
        <time>2023-04-04T09:22:00.000Z</time>
      </trkpt>
      <trkpt lat="46.2257" lon="7.00127">
        <ele>418.79998779297</ele>
        <time>2023-04-04T09:22:02.000Z</time>
      </trkpt>
      <trkpt lat="46.22566" lon="7.00126">
        <ele>418.79998779297</ele>
        <time>2023-04-04T09:22:03.000Z</time>
      </trkpt>
      <trkpt lat="46.22562" lon="7.00126">
        <ele>418.60000610352</ele>
        <time>2023-04-04T09:22:04.000Z</time>
      </trkpt>
      <trkpt lat="46.22558" lon="7.00128">
        <ele>418.60000610352</ele>
        <time>2023-04-04T09:22:05.000Z</time>
      </trkpt>
      <trkpt lat="46.22555" lon="7.0013">
        <ele>418.60000610352</ele>
        <time>2023-04-04T09:22:06.000Z</time>
      </trkpt>
      <trkpt lat="46.22551" lon="7.00132">
        <ele>418.60000610352</ele>
        <time>2023-04-04T09:22:07.000Z</time>
      </trkpt>
      <trkpt lat="46.22548" lon="7.00135">
        <ele>418.60000610352</ele>
        <time>2023-04-04T09:22:08.000Z</time>
      </trkpt>
      <trkpt lat="46.22545" lon="7.00137">
        <ele>418.60000610352</ele>
        <time>2023-04-04T09:22:09.000Z</time>
      </trkpt>
      <trkpt lat="46.22542" lon="7.00139">
        <ele>418.60000610352</ele>
        <time>2023-04-04T09:22:10.000Z</time>
      </trkpt>
      <trkpt lat="46.22539" lon="7.0014">
        <ele>418.60000610352</ele>
        <time>2023-04-04T09:22:11.000Z</time>
      </trkpt>
      <trkpt lat="46.22537" lon="7.00142">
        <ele>418.60000610352</ele>
        <time>2023-04-04T09:22:12.000Z</time>
      </trkpt>
      <trkpt lat="46.22535" lon="7.00144">
        <ele>418.60000610352</ele>
        <time>2023-04-04T09:22:13.000Z</time>
      </trkpt>
      <trkpt lat="46.22532" lon="7.00147">
        <ele>418.60000610352</ele>
        <time>2023-04-04T09:22:14.000Z</time>
      </trkpt>
      <trkpt lat="46.2253" lon="7.0015">
        <ele>418.60000610352</ele>
        <time>2023-04-04T09:22:15.000Z</time>
      </trkpt>
      <trkpt lat="46.22528" lon="7.00154">
        <ele>418.60000610352</ele>
        <time>2023-04-04T09:22:16.000Z</time>
      </trkpt>
      <trkpt lat="46.22525" lon="7.0016">
        <ele>418.79998779297</ele>
        <time>2023-04-04T09:22:18.000Z</time>
      </trkpt>
      <trkpt lat="46.22524" lon="7.00163">
        <ele>418.79998779297</ele>
        <time>2023-04-04T09:22:19.000Z</time>
      </trkpt>
      <trkpt lat="46.22525" lon="7.0017">
        <ele>418.79998779297</ele>
        <time>2023-04-04T09:22:20.000Z</time>
      </trkpt>
      <trkpt lat="46.2253" lon="7.00176">
        <ele>418.79998779297</ele>
        <time>2023-04-04T09:22:21.000Z</time>
      </trkpt>
      <trkpt lat="46.22531" lon="7.00179">
        <ele>418.79998779297</ele>
        <time>2023-04-04T09:22:22.000Z</time>
      </trkpt>
      <trkpt lat="46.2253" lon="7.00181">
        <ele>419</ele>
        <time>2023-04-04T09:22:23.000Z</time>
      </trkpt>
      <trkpt lat="46.22529" lon="7.00183">
        <ele>419</ele>
        <time>2023-04-04T09:22:24.000Z</time>
      </trkpt>
      <trkpt lat="46.22528" lon="7.00184">
        <ele>419</ele>
        <time>2023-04-04T09:22:25.000Z</time>
      </trkpt>
      <trkpt lat="46.22526" lon="7.00186">
        <ele>418.79998779297</ele>
        <time>2023-04-04T09:22:26.000Z</time>
      </trkpt>
      <trkpt lat="46.2252" lon="7.00189">
        <ele>419</ele>
        <time>2023-04-04T09:22:28.000Z</time>
      </trkpt>
      <trkpt lat="46.22518" lon="7.00189">
        <ele>419.20001220703</ele>
        <time>2023-04-04T09:22:29.000Z</time>
      </trkpt>
      <trkpt lat="46.22516" lon="7.00189">
        <ele>419.20001220703</ele>
        <time>2023-04-04T09:22:30.000Z</time>
      </trkpt>
      <trkpt lat="46.22516" lon="7.00189">
        <ele>419.20001220703</ele>
        <time>2023-04-04T09:22:31.000Z</time>
      </trkpt>
      <trkpt lat="46.22516" lon="7.00189">
        <ele>419.39999389648</ele>
        <time>2023-04-04T09:22:32.000Z</time>
      </trkpt>
      <trkpt lat="46.22516" lon="7.00189">
        <ele>419.60000610352</ele>
        <time>2023-04-04T09:22:33.000Z</time>
      </trkpt>
      <trkpt lat="46.2251" lon="7.00193">
        <ele>420.60000610352</ele>
        <time>2023-04-04T09:23:03.000Z</time>
      </trkpt>
      <trkpt lat="46.22504" lon="7.00196">
        <ele>420.60000610352</ele>
        <time>2023-04-04T09:23:05.000Z</time>
      </trkpt>
      <trkpt lat="46.22484" lon="7.00206">
        <ele>420.39999389648</ele>
        <time>2023-04-04T09:23:11.000Z</time>
      </trkpt>
      <trkpt lat="46.22481" lon="7.00207">
        <ele>420.39999389648</ele>
        <time>2023-04-04T09:23:12.000Z</time>
      </trkpt>
      <trkpt lat="46.22477" lon="7.00209">
        <ele>420.39999389648</ele>
        <time>2023-04-04T09:23:13.000Z</time>
      </trkpt>
      <trkpt lat="46.22457" lon="7.00217">
        <ele>420.20001220703</ele>
        <time>2023-04-04T09:23:19.000Z</time>
      </trkpt>
      <trkpt lat="46.22429" lon="7.00229">
        <ele>420.79998779297</ele>
        <time>2023-04-04T09:23:27.000Z</time>
      </trkpt>
      <trkpt lat="46.22425" lon="7.00231">
        <ele>420.79998779297</ele>
        <time>2023-04-04T09:23:28.000Z</time>
      </trkpt>
      <trkpt lat="46.22419" lon="7.00234">
        <ele>421</ele>
        <time>2023-04-04T09:23:30.000Z</time>
      </trkpt>
      <trkpt lat="46.22416" lon="7.00236">
        <ele>421</ele>
        <time>2023-04-04T09:23:31.000Z</time>
      </trkpt>
      <trkpt lat="46.22406" lon="7.00243">
        <ele>421.20001220703</ele>
        <time>2023-04-04T09:23:34.000Z</time>
      </trkpt>
      <trkpt lat="46.22403" lon="7.00246">
        <ele>421.39999389648</ele>
        <time>2023-04-04T09:23:35.000Z</time>
      </trkpt>
      <trkpt lat="46.224" lon="7.00248">
        <ele>421.60000610352</ele>
        <time>2023-04-04T09:23:36.000Z</time>
      </trkpt>
      <trkpt lat="46.22397" lon="7.00251">
        <ele>421.60000610352</ele>
        <time>2023-04-04T09:23:37.000Z</time>
      </trkpt>
      <trkpt lat="46.22386" lon="7.00263">
        <ele>421.79998779297</ele>
        <time>2023-04-04T09:23:41.000Z</time>
      </trkpt>
      <trkpt lat="46.22374" lon="7.00275">
        <ele>422.39999389648</ele>
        <time>2023-04-04T09:23:45.000Z</time>
      </trkpt>
      <trkpt lat="46.22365" lon="7.00285">
        <ele>422.60000610352</ele>
        <time>2023-04-04T09:23:48.000Z</time>
      </trkpt>
      <trkpt lat="46.2236" lon="7.00291">
        <ele>422.79998779297</ele>
        <time>2023-04-04T09:23:50.000Z</time>
      </trkpt>
      <trkpt lat="46.22358" lon="7.00294">
        <ele>422.79998779297</ele>
        <time>2023-04-04T09:23:51.000Z</time>
      </trkpt>
      <trkpt lat="46.22352" lon="7.003">
        <ele>423</ele>
        <time>2023-04-04T09:23:53.000Z</time>
      </trkpt>
      <trkpt lat="46.22337" lon="7.00315">
        <ele>423.39999389648</ele>
        <time>2023-04-04T09:23:58.000Z</time>
      </trkpt>
      <trkpt lat="46.22331" lon="7.0032">
        <ele>423.60000610352</ele>
        <time>2023-04-04T09:24:00.000Z</time>
      </trkpt>
      <trkpt lat="46.22297" lon="7.00339">
        <ele>423.79998779297</ele>
        <time>2023-04-04T09:24:09.000Z</time>
      </trkpt>
      <trkpt lat="46.22287" lon="7.00346">
        <ele>423.60000610352</ele>
        <time>2023-04-04T09:24:11.000Z</time>
      </trkpt>
      <trkpt lat="46.22278" lon="7.00353">
        <ele>423.20001220703</ele>
        <time>2023-04-04T09:24:13.000Z</time>
      </trkpt>
      <trkpt lat="46.22266" lon="7.00363">
        <ele>423</ele>
        <time>2023-04-04T09:24:16.000Z</time>
      </trkpt>
      <trkpt lat="46.22263" lon="7.00366">
        <ele>423</ele>
        <time>2023-04-04T09:24:17.000Z</time>
      </trkpt>
      <trkpt lat="46.22259" lon="7.00369">
        <ele>423</ele>
        <time>2023-04-04T09:24:18.000Z</time>
      </trkpt>
      <trkpt lat="46.22255" lon="7.00372">
        <ele>422.79998779297</ele>
        <time>2023-04-04T09:24:19.000Z</time>
      </trkpt>
      <trkpt lat="46.22251" lon="7.00374">
        <ele>422.60000610352</ele>
        <time>2023-04-04T09:24:20.000Z</time>
      </trkpt>
      <trkpt lat="46.22247" lon="7.00377">
        <ele>422.39999389648</ele>
        <time>2023-04-04T09:24:21.000Z</time>
      </trkpt>
      <trkpt lat="46.22244" lon="7.0038">
        <ele>422.20001220703</ele>
        <time>2023-04-04T09:24:22.000Z</time>
      </trkpt>
      <trkpt lat="46.22241" lon="7.00383">
        <ele>422.20001220703</ele>
        <time>2023-04-04T09:24:23.000Z</time>
      </trkpt>
      <trkpt lat="46.22237" lon="7.00386">
        <ele>422</ele>
        <time>2023-04-04T09:24:24.000Z</time>
      </trkpt>
      <trkpt lat="46.22233" lon="7.00389">
        <ele>421.79998779297</ele>
        <time>2023-04-04T09:24:25.000Z</time>
      </trkpt>
      <trkpt lat="46.22229" lon="7.00392">
        <ele>421.60000610352</ele>
        <time>2023-04-04T09:24:26.000Z</time>
      </trkpt>
      <trkpt lat="46.22225" lon="7.00395">
        <ele>421.39999389648</ele>
        <time>2023-04-04T09:24:27.000Z</time>
      </trkpt>
      <trkpt lat="46.22216" lon="7.00402">
        <ele>421</ele>
        <time>2023-04-04T09:24:29.000Z</time>
      </trkpt>
      <trkpt lat="46.222" lon="7.00412">
        <ele>420.39999389648</ele>
        <time>2023-04-04T09:24:32.000Z</time>
      </trkpt>
      <trkpt lat="46.22189" lon="7.00421">
        <ele>420</ele>
        <time>2023-04-04T09:24:34.000Z</time>
      </trkpt>
      <trkpt lat="46.22177" lon="7.00429">
        <ele>420</ele>
        <time>2023-04-04T09:24:36.000Z</time>
      </trkpt>
      <trkpt lat="46.22167" lon="7.00434">
        <ele>419.79998779297</ele>
        <time>2023-04-04T09:24:38.000Z</time>
      </trkpt>
      <trkpt lat="46.2216" lon="7.00437">
        <ele>419.39999389648</ele>
        <time>2023-04-04T09:24:39.000Z</time>
      </trkpt>
      <trkpt lat="46.22143" lon="7.0044">
        <ele>419</ele>
        <time>2023-04-04T09:24:42.000Z</time>
      </trkpt>
      <trkpt lat="46.22138" lon="7.0044">
        <ele>418.79998779297</ele>
        <time>2023-04-04T09:24:43.000Z</time>
      </trkpt>
      <trkpt lat="46.22133" lon="7.00441">
        <ele>418.79998779297</ele>
        <time>2023-04-04T09:24:44.000Z</time>
      </trkpt>
      <trkpt lat="46.22128" lon="7.00442">
        <ele>418.79998779297</ele>
        <time>2023-04-04T09:24:45.000Z</time>
      </trkpt>
      <trkpt lat="46.22123" lon="7.00444">
        <ele>418.60000610352</ele>
        <time>2023-04-04T09:24:46.000Z</time>
      </trkpt>
      <trkpt lat="46.22119" lon="7.00446">
        <ele>418.60000610352</ele>
        <time>2023-04-04T09:24:47.000Z</time>
      </trkpt>
      <trkpt lat="46.22115" lon="7.00446">
        <ele>418.60000610352</ele>
        <time>2023-04-04T09:24:48.000Z</time>
      </trkpt>
      <trkpt lat="46.22111" lon="7.00446">
        <ele>418.60000610352</ele>
        <time>2023-04-04T09:24:49.000Z</time>
      </trkpt>
      <trkpt lat="46.22107" lon="7.00449">
        <ele>418.79998779297</ele>
        <time>2023-04-04T09:24:50.000Z</time>
      </trkpt>
      <trkpt lat="46.22104" lon="7.00451">
        <ele>418.79998779297</ele>
        <time>2023-04-04T09:24:51.000Z</time>
      </trkpt>
      <trkpt lat="46.221" lon="7.00452">
        <ele>418.79998779297</ele>
        <time>2023-04-04T09:24:52.000Z</time>
      </trkpt>
      <trkpt lat="46.22096" lon="7.00453">
        <ele>418.79998779297</ele>
        <time>2023-04-04T09:24:53.000Z</time>
      </trkpt>
      <trkpt lat="46.22092" lon="7.00453">
        <ele>418.79998779297</ele>
        <time>2023-04-04T09:24:54.000Z</time>
      </trkpt>
      <trkpt lat="46.2209" lon="7.00451">
        <ele>419</ele>
        <time>2023-04-04T09:24:55.000Z</time>
      </trkpt>
      <trkpt lat="46.22086" lon="7.0045">
        <ele>419</ele>
        <time>2023-04-04T09:24:56.000Z</time>
      </trkpt>
      <trkpt lat="46.22083" lon="7.00449">
        <ele>419</ele>
        <time>2023-04-04T09:24:57.000Z</time>
      </trkpt>
      <trkpt lat="46.2208" lon="7.00448">
        <ele>419</ele>
        <time>2023-04-04T09:24:58.000Z</time>
      </trkpt>
      <trkpt lat="46.22076" lon="7.00446">
        <ele>419.20001220703</ele>
        <time>2023-04-04T09:24:59.000Z</time>
      </trkpt>
      <trkpt lat="46.22072" lon="7.00446">
        <ele>419.20001220703</ele>
        <time>2023-04-04T09:25:00.000Z</time>
      </trkpt>
      <trkpt lat="46.22069" lon="7.00446">
        <ele>419.39999389648</ele>
        <time>2023-04-04T09:25:01.000Z</time>
      </trkpt>
      <trkpt lat="46.22066" lon="7.00445">
        <ele>419.39999389648</ele>
        <time>2023-04-04T09:25:02.000Z</time>
      </trkpt>
      <trkpt lat="46.2206" lon="7.00443">
        <ele>419.60000610352</ele>
        <time>2023-04-04T09:25:04.000Z</time>
      </trkpt>
      <trkpt lat="46.22049" lon="7.00434">
        <ele>419.79998779297</ele>
        <time>2023-04-04T09:25:08.000Z</time>
      </trkpt>
      <trkpt lat="46.22047" lon="7.00435">
        <ele>420</ele>
        <time>2023-04-04T09:25:09.000Z</time>
      </trkpt>
      <trkpt lat="46.22042" lon="7.00431">
        <ele>420</ele>
        <time>2023-04-04T09:25:11.000Z</time>
      </trkpt>
      <trkpt lat="46.2204" lon="7.0043">
        <ele>420.20001220703</ele>
        <time>2023-04-04T09:25:12.000Z</time>
      </trkpt>
      <trkpt lat="46.22037" lon="7.00429">
        <ele>420.20001220703</ele>
        <time>2023-04-04T09:25:13.000Z</time>
      </trkpt>
      <trkpt lat="46.22035" lon="7.00428">
        <ele>420.39999389648</ele>
        <time>2023-04-04T09:25:14.000Z</time>
      </trkpt>
      <trkpt lat="46.22032" lon="7.00427">
        <ele>420.39999389648</ele>
        <time>2023-04-04T09:25:15.000Z</time>
      </trkpt>
      <trkpt lat="46.2203" lon="7.00424">
        <ele>420.79998779297</ele>
        <time>2023-04-04T09:25:16.000Z</time>
      </trkpt>
      <trkpt lat="46.22027" lon="7.00421">
        <ele>420.79998779297</ele>
        <time>2023-04-04T09:25:17.000Z</time>
      </trkpt>
      <trkpt lat="46.22025" lon="7.0042">
        <ele>421</ele>
        <time>2023-04-04T09:25:18.000Z</time>
      </trkpt>
      <trkpt lat="46.22023" lon="7.00418">
        <ele>421</ele>
        <time>2023-04-04T09:25:19.000Z</time>
      </trkpt>
      <trkpt lat="46.22021" lon="7.00414">
        <ele>421</ele>
        <time>2023-04-04T09:25:20.000Z</time>
      </trkpt>
      <trkpt lat="46.22019" lon="7.00413">
        <ele>421</ele>
        <time>2023-04-04T09:25:21.000Z</time>
      </trkpt>
      <trkpt lat="46.22017" lon="7.00411">
        <ele>421.20001220703</ele>
        <time>2023-04-04T09:25:22.000Z</time>
      </trkpt>
      <trkpt lat="46.22014" lon="7.00408">
        <ele>421.20001220703</ele>
        <time>2023-04-04T09:25:23.000Z</time>
      </trkpt>
      <trkpt lat="46.22012" lon="7.00406">
        <ele>421.20001220703</ele>
        <time>2023-04-04T09:25:24.000Z</time>
      </trkpt>
      <trkpt lat="46.22011" lon="7.00404">
        <ele>421.20001220703</ele>
        <time>2023-04-04T09:25:25.000Z</time>
      </trkpt>
      <trkpt lat="46.2201" lon="7.00403">
        <ele>421.20001220703</ele>
        <time>2023-04-04T09:25:26.000Z</time>
      </trkpt>
      <trkpt lat="46.2201" lon="7.004">
        <ele>421.20001220703</ele>
        <time>2023-04-04T09:25:27.000Z</time>
      </trkpt>
      <trkpt lat="46.22009" lon="7.00399">
        <ele>421.20001220703</ele>
        <time>2023-04-04T09:25:28.000Z</time>
      </trkpt>
      <trkpt lat="46.22009" lon="7.00398">
        <ele>421.39999389648</ele>
        <time>2023-04-04T09:25:29.000Z</time>
      </trkpt>
      <trkpt lat="46.22009" lon="7.00398">
        <ele>421.39999389648</ele>
        <time>2023-04-04T09:25:30.000Z</time>
      </trkpt>
      <trkpt lat="46.22009" lon="7.00398">
        <ele>421.60000610352</ele>
        <time>2023-04-04T09:25:31.000Z</time>
      </trkpt>
      <trkpt lat="46.22006" lon="7.00405">
        <ele>420.60000610352</ele>
        <time>2023-04-04T09:37:08.000Z</time>
      </trkpt>
      <trkpt lat="46.22005" lon="7.00406">
        <ele>420.79998779297</ele>
        <time>2023-04-04T09:37:09.000Z</time>
      </trkpt>
      <trkpt lat="46.22004" lon="7.00406">
        <ele>420.79998779297</ele>
        <time>2023-04-04T09:37:10.000Z</time>
      </trkpt>
      <trkpt lat="46.22004" lon="7.00406">
        <ele>420.79998779297</ele>
        <time>2023-04-04T09:37:11.000Z</time>
      </trkpt>
      <trkpt lat="46.22002" lon="7.00407">
        <ele>420.60000610352</ele>
        <time>2023-04-04T09:37:19.000Z</time>
      </trkpt>
      <trkpt lat="46.22001" lon="7.00408">
        <ele>420.60000610352</ele>
        <time>2023-04-04T09:37:20.000Z</time>
      </trkpt>
      <trkpt lat="46.21998" lon="7.00407">
        <ele>420.60000610352</ele>
        <time>2023-04-04T09:37:22.000Z</time>
      </trkpt>
      <trkpt lat="46.21996" lon="7.00407">
        <ele>420.60000610352</ele>
        <time>2023-04-04T09:37:23.000Z</time>
      </trkpt>
      <trkpt lat="46.21994" lon="7.00407">
        <ele>420.60000610352</ele>
        <time>2023-04-04T09:37:24.000Z</time>
      </trkpt>
      <trkpt lat="46.21988" lon="7.00404">
        <ele>420.39999389648</ele>
        <time>2023-04-04T09:37:27.000Z</time>
      </trkpt>
      <trkpt lat="46.21986" lon="7.00403">
        <ele>420.39999389648</ele>
        <time>2023-04-04T09:37:28.000Z</time>
      </trkpt>
      <trkpt lat="46.21983" lon="7.00403">
        <ele>420.39999389648</ele>
        <time>2023-04-04T09:37:29.000Z</time>
      </trkpt>
      <trkpt lat="46.21977" lon="7.00402">
        <ele>420.39999389648</ele>
        <time>2023-04-04T09:37:31.000Z</time>
      </trkpt>
      <trkpt lat="46.21962" lon="7.00407">
        <ele>420.20001220703</ele>
        <time>2023-04-04T09:37:35.000Z</time>
      </trkpt>
      <trkpt lat="46.21959" lon="7.00406">
        <ele>420</ele>
        <time>2023-04-04T09:37:36.000Z</time>
      </trkpt>
      <trkpt lat="46.21955" lon="7.00406">
        <ele>420</ele>
        <time>2023-04-04T09:37:37.000Z</time>
      </trkpt>
      <trkpt lat="46.21951" lon="7.00406">
        <ele>420</ele>
        <time>2023-04-04T09:37:38.000Z</time>
      </trkpt>
      <trkpt lat="46.21948" lon="7.00404">
        <ele>419.79998779297</ele>
        <time>2023-04-04T09:37:39.000Z</time>
      </trkpt>
      <trkpt lat="46.21944" lon="7.00403">
        <ele>419.79998779297</ele>
        <time>2023-04-04T09:37:40.000Z</time>
      </trkpt>
      <trkpt lat="46.21939" lon="7.00402">
        <ele>419.79998779297</ele>
        <time>2023-04-04T09:37:41.000Z</time>
      </trkpt>
      <trkpt lat="46.21935" lon="7.00401">
        <ele>419.79998779297</ele>
        <time>2023-04-04T09:37:42.000Z</time>
      </trkpt>
      <trkpt lat="46.21927" lon="7.004">
        <ele>419.79998779297</ele>
        <time>2023-04-04T09:37:44.000Z</time>
      </trkpt>
      <trkpt lat="46.21923" lon="7.00401">
        <ele>419.79998779297</ele>
        <time>2023-04-04T09:37:45.000Z</time>
      </trkpt>
      <trkpt lat="46.21913" lon="7.00403">
        <ele>419.60000610352</ele>
        <time>2023-04-04T09:37:47.000Z</time>
      </trkpt>
      <trkpt lat="46.21908" lon="7.00403">
        <ele>419.60000610352</ele>
        <time>2023-04-04T09:37:48.000Z</time>
      </trkpt>
      <trkpt lat="46.21898" lon="7.00403">
        <ele>419.60000610352</ele>
        <time>2023-04-04T09:37:50.000Z</time>
      </trkpt>
      <trkpt lat="46.21893" lon="7.00403">
        <ele>419.60000610352</ele>
        <time>2023-04-04T09:37:51.000Z</time>
      </trkpt>
      <trkpt lat="46.21888" lon="7.00403">
        <ele>419.39999389648</ele>
        <time>2023-04-04T09:37:52.000Z</time>
      </trkpt>
      <trkpt lat="46.2188" lon="7.00404">
        <ele>419.39999389648</ele>
        <time>2023-04-04T09:37:54.000Z</time>
      </trkpt>
      <trkpt lat="46.21875" lon="7.00404">
        <ele>419.39999389648</ele>
        <time>2023-04-04T09:37:55.000Z</time>
      </trkpt>
      <trkpt lat="46.21856" lon="7.00404">
        <ele>419.39999389648</ele>
        <time>2023-04-04T09:37:59.000Z</time>
      </trkpt>
      <trkpt lat="46.21852" lon="7.00402">
        <ele>419.39999389648</ele>
        <time>2023-04-04T09:38:00.000Z</time>
      </trkpt>
      <trkpt lat="46.21848" lon="7.00401">
        <ele>419.39999389648</ele>
        <time>2023-04-04T09:38:01.000Z</time>
      </trkpt>
      <trkpt lat="46.2183" lon="7.00396">
        <ele>419.60000610352</ele>
        <time>2023-04-04T09:38:05.000Z</time>
      </trkpt>
      <trkpt lat="46.21811" lon="7.00392">
        <ele>419.79998779297</ele>
        <time>2023-04-04T09:38:09.000Z</time>
      </trkpt>
      <trkpt lat="46.21797" lon="7.00389">
        <ele>420</ele>
        <time>2023-04-04T09:38:12.000Z</time>
      </trkpt>
      <trkpt lat="46.21789" lon="7.00389">
        <ele>420</ele>
        <time>2023-04-04T09:38:14.000Z</time>
      </trkpt>
      <trkpt lat="46.21776" lon="7.00379">
        <ele>420</ele>
        <time>2023-04-04T09:38:18.000Z</time>
      </trkpt>
      <trkpt lat="46.21772" lon="7.00378">
        <ele>420</ele>
        <time>2023-04-04T09:38:19.000Z</time>
      </trkpt>
      <trkpt lat="46.21764" lon="7.00378">
        <ele>420.20001220703</ele>
        <time>2023-04-04T09:38:21.000Z</time>
      </trkpt>
      <trkpt lat="46.2176" lon="7.00378">
        <ele>420.20001220703</ele>
        <time>2023-04-04T09:38:22.000Z</time>
      </trkpt>
      <trkpt lat="46.21756" lon="7.00378">
        <ele>420.20001220703</ele>
        <time>2023-04-04T09:38:23.000Z</time>
      </trkpt>
      <trkpt lat="46.21752" lon="7.00379">
        <ele>420.39999389648</ele>
        <time>2023-04-04T09:38:24.000Z</time>
      </trkpt>
      <trkpt lat="46.21748" lon="7.00379">
        <ele>420.39999389648</ele>
        <time>2023-04-04T09:38:25.000Z</time>
      </trkpt>
      <trkpt lat="46.21744" lon="7.00379">
        <ele>420.39999389648</ele>
        <time>2023-04-04T09:38:26.000Z</time>
      </trkpt>
      <trkpt lat="46.21735" lon="7.00378">
        <ele>420.39999389648</ele>
        <time>2023-04-04T09:38:28.000Z</time>
      </trkpt>
      <trkpt lat="46.21731" lon="7.00378">
        <ele>420.60000610352</ele>
        <time>2023-04-04T09:38:29.000Z</time>
      </trkpt>
      <trkpt lat="46.21727" lon="7.00379">
        <ele>420.60000610352</ele>
        <time>2023-04-04T09:38:30.000Z</time>
      </trkpt>
      <trkpt lat="46.21724" lon="7.0038">
        <ele>420.60000610352</ele>
        <time>2023-04-04T09:38:31.000Z</time>
      </trkpt>
      <trkpt lat="46.2172" lon="7.00382">
        <ele>420.60000610352</ele>
        <time>2023-04-04T09:38:32.000Z</time>
      </trkpt>
      <trkpt lat="46.21717" lon="7.00386">
        <ele>420.79998779297</ele>
        <time>2023-04-04T09:38:33.000Z</time>
      </trkpt>
      <trkpt lat="46.21714" lon="7.0039">
        <ele>420.79998779297</ele>
        <time>2023-04-04T09:38:34.000Z</time>
      </trkpt>
      <trkpt lat="46.21711" lon="7.00394">
        <ele>420.79998779297</ele>
        <time>2023-04-04T09:38:35.000Z</time>
      </trkpt>
      <trkpt lat="46.21709" lon="7.00399">
        <ele>420.79998779297</ele>
        <time>2023-04-04T09:38:36.000Z</time>
      </trkpt>
      <trkpt lat="46.21708" lon="7.00404">
        <ele>420.79998779297</ele>
        <time>2023-04-04T09:38:37.000Z</time>
      </trkpt>
      <trkpt lat="46.21707" lon="7.0041">
        <ele>420.79998779297</ele>
        <time>2023-04-04T09:38:38.000Z</time>
      </trkpt>
      <trkpt lat="46.21707" lon="7.00416">
        <ele>421</ele>
        <time>2023-04-04T09:38:39.000Z</time>
      </trkpt>
      <trkpt lat="46.21707" lon="7.00422">
        <ele>421</ele>
        <time>2023-04-04T09:38:40.000Z</time>
      </trkpt>
      <trkpt lat="46.21708" lon="7.00426">
        <ele>421</ele>
        <time>2023-04-04T09:38:41.000Z</time>
      </trkpt>
      <trkpt lat="46.21707" lon="7.0043">
        <ele>421</ele>
        <time>2023-04-04T09:38:42.000Z</time>
      </trkpt>
      <trkpt lat="46.21705" lon="7.00433">
        <ele>421</ele>
        <time>2023-04-04T09:38:43.000Z</time>
      </trkpt>
      <trkpt lat="46.21701" lon="7.00435">
        <ele>421</ele>
        <time>2023-04-04T09:38:44.000Z</time>
      </trkpt>
      <trkpt lat="46.21697" lon="7.00437">
        <ele>421</ele>
        <time>2023-04-04T09:38:45.000Z</time>
      </trkpt>
      <trkpt lat="46.21684" lon="7.00439">
        <ele>420.79998779297</ele>
        <time>2023-04-04T09:38:48.000Z</time>
      </trkpt>
      <trkpt lat="46.21644" lon="7.00447">
        <ele>420.39999389648</ele>
        <time>2023-04-04T09:38:57.000Z</time>
      </trkpt>
      <trkpt lat="46.2161" lon="7.00455">
        <ele>420.39999389648</ele>
        <time>2023-04-04T09:39:04.000Z</time>
      </trkpt>
      <trkpt lat="46.21598" lon="7.0046">
        <ele>420.39999389648</ele>
        <time>2023-04-04T09:39:07.000Z</time>
      </trkpt>
      <trkpt lat="46.21596" lon="7.00461">
        <ele>420.39999389648</ele>
        <time>2023-04-04T09:39:08.000Z</time>
      </trkpt>
      <trkpt lat="46.21594" lon="7.00462">
        <ele>420.39999389648</ele>
        <time>2023-04-04T09:39:09.000Z</time>
      </trkpt>
      <trkpt lat="46.21593" lon="7.00462">
        <ele>420.39999389648</ele>
        <time>2023-04-04T09:39:10.000Z</time>
      </trkpt>
      <trkpt lat="46.21591" lon="7.00461">
        <ele>420.20001220703</ele>
        <time>2023-04-04T09:39:12.000Z</time>
      </trkpt>
      <trkpt lat="46.21589" lon="7.00462">
        <ele>420.20001220703</ele>
        <time>2023-04-04T09:39:13.000Z</time>
      </trkpt>
      <trkpt lat="46.21587" lon="7.00462">
        <ele>420.20001220703</ele>
        <time>2023-04-04T09:39:14.000Z</time>
      </trkpt>
      <trkpt lat="46.21572" lon="7.00466">
        <ele>420</ele>
        <time>2023-04-04T09:39:19.000Z</time>
      </trkpt>
      <trkpt lat="46.21553" lon="7.0047">
        <ele>420</ele>
        <time>2023-04-04T09:39:24.000Z</time>
      </trkpt>
      <trkpt lat="46.21549" lon="7.00471">
        <ele>419.79998779297</ele>
        <time>2023-04-04T09:39:25.000Z</time>
      </trkpt>
      <trkpt lat="46.21524" lon="7.00476">
        <ele>419.60000610352</ele>
        <time>2023-04-04T09:39:31.000Z</time>
      </trkpt>
      <trkpt lat="46.21519" lon="7.00476">
        <ele>419.39999389648</ele>
        <time>2023-04-04T09:39:32.000Z</time>
      </trkpt>
      <trkpt lat="46.21489" lon="7.00483">
        <ele>419.39999389648</ele>
        <time>2023-04-04T09:39:39.000Z</time>
      </trkpt>
      <trkpt lat="46.21476" lon="7.00489">
        <ele>419.39999389648</ele>
        <time>2023-04-04T09:39:42.000Z</time>
      </trkpt>
      <trkpt lat="46.21467" lon="7.00491">
        <ele>419.39999389648</ele>
        <time>2023-04-04T09:39:44.000Z</time>
      </trkpt>
      <trkpt lat="46.21463" lon="7.00491">
        <ele>419.39999389648</ele>
        <time>2023-04-04T09:39:45.000Z</time>
      </trkpt>
      <trkpt lat="46.21454" lon="7.00492">
        <ele>419.39999389648</ele>
        <time>2023-04-04T09:39:47.000Z</time>
      </trkpt>
      <trkpt lat="46.21437" lon="7.00498">
        <ele>419.39999389648</ele>
        <time>2023-04-04T09:39:51.000Z</time>
      </trkpt>
      <trkpt lat="46.21428" lon="7.00502">
        <ele>419.39999389648</ele>
        <time>2023-04-04T09:39:53.000Z</time>
      </trkpt>
      <trkpt lat="46.21424" lon="7.00503">
        <ele>419.20001220703</ele>
        <time>2023-04-04T09:39:54.000Z</time>
      </trkpt>
      <trkpt lat="46.21419" lon="7.00503">
        <ele>419.39999389648</ele>
        <time>2023-04-04T09:39:55.000Z</time>
      </trkpt>
      <trkpt lat="46.214" lon="7.00508">
        <ele>419.39999389648</ele>
        <time>2023-04-04T09:39:59.000Z</time>
      </trkpt>
      <trkpt lat="46.21364" lon="7.00518">
        <ele>419.39999389648</ele>
        <time>2023-04-04T09:40:07.000Z</time>
      </trkpt>
      <trkpt lat="46.21351" lon="7.0052">
        <ele>419.60000610352</ele>
        <time>2023-04-04T09:40:10.000Z</time>
      </trkpt>
      <trkpt lat="46.21319" lon="7.00528">
        <ele>419.60000610352</ele>
        <time>2023-04-04T09:40:17.000Z</time>
      </trkpt>
      <trkpt lat="46.21292" lon="7.00534">
        <ele>419.60000610352</ele>
        <time>2023-04-04T09:40:23.000Z</time>
      </trkpt>
      <trkpt lat="46.21288" lon="7.00536">
        <ele>419.79998779297</ele>
        <time>2023-04-04T09:40:24.000Z</time>
      </trkpt>
      <trkpt lat="46.21284" lon="7.00537">
        <ele>419.79998779297</ele>
        <time>2023-04-04T09:40:25.000Z</time>
      </trkpt>
      <trkpt lat="46.21279" lon="7.00538">
        <ele>419.79998779297</ele>
        <time>2023-04-04T09:40:26.000Z</time>
      </trkpt>
      <trkpt lat="46.21275" lon="7.00539">
        <ele>419.79998779297</ele>
        <time>2023-04-04T09:40:27.000Z</time>
      </trkpt>
      <trkpt lat="46.21271" lon="7.0054">
        <ele>419.79998779297</ele>
        <time>2023-04-04T09:40:28.000Z</time>
      </trkpt>
      <trkpt lat="46.21266" lon="7.00541">
        <ele>419.79998779297</ele>
        <time>2023-04-04T09:40:29.000Z</time>
      </trkpt>
      <trkpt lat="46.21262" lon="7.00542">
        <ele>419.79998779297</ele>
        <time>2023-04-04T09:40:30.000Z</time>
      </trkpt>
      <trkpt lat="46.21258" lon="7.00543">
        <ele>419.79998779297</ele>
        <time>2023-04-04T09:40:31.000Z</time>
      </trkpt>
      <trkpt lat="46.21254" lon="7.00544">
        <ele>419.79998779297</ele>
        <time>2023-04-04T09:40:32.000Z</time>
      </trkpt>
      <trkpt lat="46.21246" lon="7.00546">
        <ele>419.79998779297</ele>
        <time>2023-04-04T09:40:34.000Z</time>
      </trkpt>
      <trkpt lat="46.21238" lon="7.00548">
        <ele>419.79998779297</ele>
        <time>2023-04-04T09:40:36.000Z</time>
      </trkpt>
      <trkpt lat="46.21234" lon="7.00549">
        <ele>419.79998779297</ele>
        <time>2023-04-04T09:40:37.000Z</time>
      </trkpt>
      <trkpt lat="46.21227" lon="7.00552">
        <ele>419.79998779297</ele>
        <time>2023-04-04T09:40:39.000Z</time>
      </trkpt>
      <trkpt lat="46.21223" lon="7.00553">
        <ele>419.79998779297</ele>
        <time>2023-04-04T09:40:40.000Z</time>
      </trkpt>
      <trkpt lat="46.21215" lon="7.00555">
        <ele>419.79998779297</ele>
        <time>2023-04-04T09:40:42.000Z</time>
      </trkpt>
      <trkpt lat="46.21212" lon="7.00556">
        <ele>419.79998779297</ele>
        <time>2023-04-04T09:40:43.000Z</time>
      </trkpt>
      <trkpt lat="46.21208" lon="7.00556">
        <ele>419.79998779297</ele>
        <time>2023-04-04T09:40:44.000Z</time>
      </trkpt>
      <trkpt lat="46.21204" lon="7.00558">
        <ele>419.79998779297</ele>
        <time>2023-04-04T09:40:45.000Z</time>
      </trkpt>
      <trkpt lat="46.212" lon="7.0056">
        <ele>419.79998779297</ele>
        <time>2023-04-04T09:40:46.000Z</time>
      </trkpt>
      <trkpt lat="46.21197" lon="7.00562">
        <ele>419.79998779297</ele>
        <time>2023-04-04T09:40:47.000Z</time>
      </trkpt>
      <trkpt lat="46.21195" lon="7.00565">
        <ele>419.79998779297</ele>
        <time>2023-04-04T09:40:48.000Z</time>
      </trkpt>
      <trkpt lat="46.21193" lon="7.00568">
        <ele>419.79998779297</ele>
        <time>2023-04-04T09:40:49.000Z</time>
      </trkpt>
      <trkpt lat="46.21191" lon="7.00572">
        <ele>419.79998779297</ele>
        <time>2023-04-04T09:40:50.000Z</time>
      </trkpt>
      <trkpt lat="46.21188" lon="7.00576">
        <ele>419.79998779297</ele>
        <time>2023-04-04T09:40:51.000Z</time>
      </trkpt>
      <trkpt lat="46.21186" lon="7.00579">
        <ele>420</ele>
        <time>2023-04-04T09:40:52.000Z</time>
      </trkpt>
      <trkpt lat="46.21184" lon="7.00581">
        <ele>420</ele>
        <time>2023-04-04T09:40:53.000Z</time>
      </trkpt>
      <trkpt lat="46.21181" lon="7.00583">
        <ele>420</ele>
        <time>2023-04-04T09:40:54.000Z</time>
      </trkpt>
      <trkpt lat="46.21177" lon="7.00583">
        <ele>420</ele>
        <time>2023-04-04T09:40:55.000Z</time>
      </trkpt>
      <trkpt lat="46.21174" lon="7.00583">
        <ele>420</ele>
        <time>2023-04-04T09:40:56.000Z</time>
      </trkpt>
      <trkpt lat="46.21171" lon="7.00583">
        <ele>420.20001220703</ele>
        <time>2023-04-04T09:40:57.000Z</time>
      </trkpt>
      <trkpt lat="46.21168" lon="7.00582">
        <ele>420.20001220703</ele>
        <time>2023-04-04T09:40:58.000Z</time>
      </trkpt>
      <trkpt lat="46.21164" lon="7.00582">
        <ele>420.20001220703</ele>
        <time>2023-04-04T09:40:59.000Z</time>
      </trkpt>
      <trkpt lat="46.21134" lon="7.00582">
        <ele>420.79998779297</ele>
        <time>2023-04-04T09:41:08.000Z</time>
      </trkpt>
      <trkpt lat="46.21131" lon="7.00582">
        <ele>421</ele>
        <time>2023-04-04T09:41:09.000Z</time>
      </trkpt>
      <trkpt lat="46.21107" lon="7.00586">
        <ele>421.79998779297</ele>
        <time>2023-04-04T09:41:16.000Z</time>
      </trkpt>
      <trkpt lat="46.21087" lon="7.0059">
        <ele>422.39999389648</ele>
        <time>2023-04-04T09:41:22.000Z</time>
      </trkpt>
      <trkpt lat="46.2108" lon="7.00591">
        <ele>422.60000610352</ele>
        <time>2023-04-04T09:41:24.000Z</time>
      </trkpt>
      <trkpt lat="46.21077" lon="7.00592">
        <ele>422.60000610352</ele>
        <time>2023-04-04T09:41:25.000Z</time>
      </trkpt>
      <trkpt lat="46.2107" lon="7.00593">
        <ele>422.79998779297</ele>
        <time>2023-04-04T09:41:27.000Z</time>
      </trkpt>
      <trkpt lat="46.2105" lon="7.00598">
        <ele>423</ele>
        <time>2023-04-04T09:41:33.000Z</time>
      </trkpt>
      <trkpt lat="46.21047" lon="7.00598">
        <ele>423.20001220703</ele>
        <time>2023-04-04T09:41:34.000Z</time>
      </trkpt>
      <trkpt lat="46.21024" lon="7.00605">
        <ele>423.79998779297</ele>
        <time>2023-04-04T09:41:41.000Z</time>
      </trkpt>
      <trkpt lat="46.21015" lon="7.00608">
        <ele>424.20001220703</ele>
        <time>2023-04-04T09:41:44.000Z</time>
      </trkpt>
      <trkpt lat="46.20998" lon="7.00613">
        <ele>424.79998779297</ele>
        <time>2023-04-04T09:41:49.000Z</time>
      </trkpt>
      <trkpt lat="46.20992" lon="7.00615">
        <ele>425</ele>
        <time>2023-04-04T09:41:51.000Z</time>
      </trkpt>
      <trkpt lat="46.20983" lon="7.00618">
        <ele>425.39999389648</ele>
        <time>2023-04-04T09:41:54.000Z</time>
      </trkpt>
      <trkpt lat="46.2098" lon="7.00619">
        <ele>425.60000610352</ele>
        <time>2023-04-04T09:41:55.000Z</time>
      </trkpt>
      <trkpt lat="46.20977" lon="7.0062">
        <ele>425.60000610352</ele>
        <time>2023-04-04T09:41:56.000Z</time>
      </trkpt>
      <trkpt lat="46.20974" lon="7.00621">
        <ele>425.79998779297</ele>
        <time>2023-04-04T09:41:57.000Z</time>
      </trkpt>
      <trkpt lat="46.20971" lon="7.00622">
        <ele>425.79998779297</ele>
        <time>2023-04-04T09:41:58.000Z</time>
      </trkpt>
      <trkpt lat="46.20967" lon="7.00623">
        <ele>426</ele>
        <time>2023-04-04T09:41:59.000Z</time>
      </trkpt>
      <trkpt lat="46.20964" lon="7.00625">
        <ele>426</ele>
        <time>2023-04-04T09:42:00.000Z</time>
      </trkpt>
      <trkpt lat="46.20961" lon="7.00626">
        <ele>426.20001220703</ele>
        <time>2023-04-04T09:42:01.000Z</time>
      </trkpt>
      <trkpt lat="46.20958" lon="7.00627">
        <ele>426.39999389648</ele>
        <time>2023-04-04T09:42:02.000Z</time>
      </trkpt>
      <trkpt lat="46.20955" lon="7.00627">
        <ele>426.39999389648</ele>
        <time>2023-04-04T09:42:03.000Z</time>
      </trkpt>
      <trkpt lat="46.20951" lon="7.00628">
        <ele>426.39999389648</ele>
        <time>2023-04-04T09:42:04.000Z</time>
      </trkpt>
      <trkpt lat="46.20948" lon="7.00629">
        <ele>426.60000610352</ele>
        <time>2023-04-04T09:42:05.000Z</time>
      </trkpt>
      <trkpt lat="46.20944" lon="7.00629">
        <ele>426.60000610352</ele>
        <time>2023-04-04T09:42:06.000Z</time>
      </trkpt>
      <trkpt lat="46.20941" lon="7.00629">
        <ele>426.60000610352</ele>
        <time>2023-04-04T09:42:07.000Z</time>
      </trkpt>
      <trkpt lat="46.20937" lon="7.00629">
        <ele>426.79998779297</ele>
        <time>2023-04-04T09:42:08.000Z</time>
      </trkpt>
      <trkpt lat="46.20933" lon="7.00629">
        <ele>426.79998779297</ele>
        <time>2023-04-04T09:42:09.000Z</time>
      </trkpt>
      <trkpt lat="46.2093" lon="7.0063">
        <ele>427</ele>
        <time>2023-04-04T09:42:10.000Z</time>
      </trkpt>
      <trkpt lat="46.20927" lon="7.0063">
        <ele>427</ele>
        <time>2023-04-04T09:42:11.000Z</time>
      </trkpt>
      <trkpt lat="46.20924" lon="7.00631">
        <ele>427.20001220703</ele>
        <time>2023-04-04T09:42:12.000Z</time>
      </trkpt>
      <trkpt lat="46.20921" lon="7.00631">
        <ele>427.20001220703</ele>
        <time>2023-04-04T09:42:13.000Z</time>
      </trkpt>
      <trkpt lat="46.20918" lon="7.00631">
        <ele>427.20001220703</ele>
        <time>2023-04-04T09:42:14.000Z</time>
      </trkpt>
      <trkpt lat="46.20915" lon="7.00631">
        <ele>427.39999389648</ele>
        <time>2023-04-04T09:42:15.000Z</time>
      </trkpt>
      <trkpt lat="46.20912" lon="7.00631">
        <ele>427.39999389648</ele>
        <time>2023-04-04T09:42:16.000Z</time>
      </trkpt>
      <trkpt lat="46.20893" lon="7.00625">
        <ele>427.79998779297</ele>
        <time>2023-04-04T09:42:22.000Z</time>
      </trkpt>
      <trkpt lat="46.20872" lon="7.00607">
        <ele>427.60000610352</ele>
        <time>2023-04-04T09:42:28.000Z</time>
      </trkpt>
      <trkpt lat="46.20864" lon="7.00599">
        <ele>427.39999389648</ele>
        <time>2023-04-04T09:42:30.000Z</time>
      </trkpt>
      <trkpt lat="46.20861" lon="7.00596">
        <ele>427.39999389648</ele>
        <time>2023-04-04T09:42:31.000Z</time>
      </trkpt>
      <trkpt lat="46.20849" lon="7.00586">
        <ele>426.60000610352</ele>
        <time>2023-04-04T09:42:34.000Z</time>
      </trkpt>
      <trkpt lat="46.20844" lon="7.00583">
        <ele>426.20001220703</ele>
        <time>2023-04-04T09:42:36.000Z</time>
      </trkpt>
      <trkpt lat="46.20842" lon="7.00581">
        <ele>426</ele>
        <time>2023-04-04T09:42:37.000Z</time>
      </trkpt>
      <trkpt lat="46.2084" lon="7.00579">
        <ele>425.79998779297</ele>
        <time>2023-04-04T09:42:38.000Z</time>
      </trkpt>
      <trkpt lat="46.2084" lon="7.00576">
        <ele>425.60000610352</ele>
        <time>2023-04-04T09:42:39.000Z</time>
      </trkpt>
      <trkpt lat="46.20839" lon="7.00574">
        <ele>425.60000610352</ele>
        <time>2023-04-04T09:42:40.000Z</time>
      </trkpt>
      <trkpt lat="46.20839" lon="7.00572">
        <ele>425.60000610352</ele>
        <time>2023-04-04T09:42:41.000Z</time>
      </trkpt>
      <trkpt lat="46.20837" lon="7.00571">
        <ele>425.60000610352</ele>
        <time>2023-04-04T09:42:42.000Z</time>
      </trkpt>
      <trkpt lat="46.20834" lon="7.00569">
        <ele>425.60000610352</ele>
        <time>2023-04-04T09:42:44.000Z</time>
      </trkpt>
      <trkpt lat="46.20832" lon="7.00568">
        <ele>425.79998779297</ele>
        <time>2023-04-04T09:42:45.000Z</time>
      </trkpt>
      <trkpt lat="46.2083" lon="7.00567">
        <ele>425.79998779297</ele>
        <time>2023-04-04T09:42:46.000Z</time>
      </trkpt>
      <trkpt lat="46.20829" lon="7.00567">
        <ele>425.79998779297</ele>
        <time>2023-04-04T09:42:47.000Z</time>
      </trkpt>
      <trkpt lat="46.20827" lon="7.00567">
        <ele>425.79998779297</ele>
        <time>2023-04-04T09:42:48.000Z</time>
      </trkpt>
      <trkpt lat="46.20825" lon="7.00569">
        <ele>425.79998779297</ele>
        <time>2023-04-04T09:42:49.000Z</time>
      </trkpt>
      <trkpt lat="46.20823" lon="7.0057">
        <ele>426</ele>
        <time>2023-04-04T09:42:50.000Z</time>
      </trkpt>
      <trkpt lat="46.20821" lon="7.00572">
        <ele>426.20001220703</ele>
        <time>2023-04-04T09:42:51.000Z</time>
      </trkpt>
      <trkpt lat="46.20809" lon="7.00579">
        <ele>426.39999389648</ele>
        <time>2023-04-04T09:42:55.000Z</time>
      </trkpt>
      <trkpt lat="46.20798" lon="7.0059">
        <ele>426.20001220703</ele>
        <time>2023-04-04T09:42:59.000Z</time>
      </trkpt>
      <trkpt lat="46.20791" lon="7.00598">
        <ele>426.20001220703</ele>
        <time>2023-04-04T09:43:01.000Z</time>
      </trkpt>
      <trkpt lat="46.20764" lon="7.00628">
        <ele>426</ele>
        <time>2023-04-04T09:43:09.000Z</time>
      </trkpt>
      <trkpt lat="46.20729" lon="7.00657">
        <ele>425.60000610352</ele>
        <time>2023-04-04T09:43:18.000Z</time>
      </trkpt>
      <trkpt lat="46.2068" lon="7.00693">
        <ele>425</ele>
        <time>2023-04-04T09:43:29.000Z</time>
      </trkpt>
      <trkpt lat="46.20676" lon="7.00697">
        <ele>424.79998779297</ele>
        <time>2023-04-04T09:43:30.000Z</time>
      </trkpt>
      <trkpt lat="46.20639" lon="7.00724">
        <ele>424.39999389648</ele>
        <time>2023-04-04T09:43:37.000Z</time>
      </trkpt>
      <trkpt lat="46.2063" lon="7.00731">
        <ele>424</ele>
        <time>2023-04-04T09:43:39.000Z</time>
      </trkpt>
      <trkpt lat="46.20611" lon="7.00745">
        <ele>423.39999389648</ele>
        <time>2023-04-04T09:43:43.000Z</time>
      </trkpt>
      <trkpt lat="46.20607" lon="7.00748">
        <ele>423.20001220703</ele>
        <time>2023-04-04T09:43:44.000Z</time>
      </trkpt>
      <trkpt lat="46.20602" lon="7.00751">
        <ele>423.20001220703</ele>
        <time>2023-04-04T09:43:45.000Z</time>
      </trkpt>
      <trkpt lat="46.20598" lon="7.00754">
        <ele>422.79998779297</ele>
        <time>2023-04-04T09:43:46.000Z</time>
      </trkpt>
      <trkpt lat="46.20594" lon="7.00758">
        <ele>422.60000610352</ele>
        <time>2023-04-04T09:43:47.000Z</time>
      </trkpt>
      <trkpt lat="46.2059" lon="7.00761">
        <ele>422.39999389648</ele>
        <time>2023-04-04T09:43:48.000Z</time>
      </trkpt>
      <trkpt lat="46.20585" lon="7.00764">
        <ele>422.20001220703</ele>
        <time>2023-04-04T09:43:49.000Z</time>
      </trkpt>
      <trkpt lat="46.20581" lon="7.00767">
        <ele>422.20001220703</ele>
        <time>2023-04-04T09:43:50.000Z</time>
      </trkpt>
      <trkpt lat="46.20577" lon="7.0077">
        <ele>422</ele>
        <time>2023-04-04T09:43:51.000Z</time>
      </trkpt>
      <trkpt lat="46.20573" lon="7.00773">
        <ele>422</ele>
        <time>2023-04-04T09:43:52.000Z</time>
      </trkpt>
      <trkpt lat="46.2057" lon="7.00776">
        <ele>421.79998779297</ele>
        <time>2023-04-04T09:43:53.000Z</time>
      </trkpt>
      <trkpt lat="46.20566" lon="7.00778">
        <ele>421.60000610352</ele>
        <time>2023-04-04T09:43:54.000Z</time>
      </trkpt>
      <trkpt lat="46.20563" lon="7.00778">
        <ele>421.39999389648</ele>
        <time>2023-04-04T09:43:55.000Z</time>
      </trkpt>
      <trkpt lat="46.2056" lon="7.00778">
        <ele>421.20001220703</ele>
        <time>2023-04-04T09:43:56.000Z</time>
      </trkpt>
      <trkpt lat="46.20557" lon="7.00777">
        <ele>421.20001220703</ele>
        <time>2023-04-04T09:43:57.000Z</time>
      </trkpt>
      <trkpt lat="46.20554" lon="7.00777">
        <ele>421</ele>
        <time>2023-04-04T09:43:58.000Z</time>
      </trkpt>
      <trkpt lat="46.20552" lon="7.00778">
        <ele>421</ele>
        <time>2023-04-04T09:43:59.000Z</time>
      </trkpt>
      <trkpt lat="46.20549" lon="7.0078">
        <ele>421</ele>
        <time>2023-04-04T09:44:00.000Z</time>
      </trkpt>
      <trkpt lat="46.20546" lon="7.00782">
        <ele>420.79998779297</ele>
        <time>2023-04-04T09:44:01.000Z</time>
      </trkpt>
      <trkpt lat="46.20544" lon="7.00784">
        <ele>420.60000610352</ele>
        <time>2023-04-04T09:44:02.000Z</time>
      </trkpt>
      <trkpt lat="46.20541" lon="7.00787">
        <ele>420.39999389648</ele>
        <time>2023-04-04T09:44:03.000Z</time>
      </trkpt>
      <trkpt lat="46.20538" lon="7.00794">
        <ele>420.39999389648</ele>
        <time>2023-04-04T09:44:05.000Z</time>
      </trkpt>
      <trkpt lat="46.20536" lon="7.00798">
        <ele>420.20001220703</ele>
        <time>2023-04-04T09:44:06.000Z</time>
      </trkpt>
      <trkpt lat="46.20534" lon="7.00801">
        <ele>420.20001220703</ele>
        <time>2023-04-04T09:44:07.000Z</time>
      </trkpt>
      <trkpt lat="46.20531" lon="7.00804">
        <ele>420.20001220703</ele>
        <time>2023-04-04T09:44:08.000Z</time>
      </trkpt>
      <trkpt lat="46.20528" lon="7.00806">
        <ele>420.20001220703</ele>
        <time>2023-04-04T09:44:09.000Z</time>
      </trkpt>
      <trkpt lat="46.20525" lon="7.00808">
        <ele>420.20001220703</ele>
        <time>2023-04-04T09:44:10.000Z</time>
      </trkpt>
      <trkpt lat="46.20521" lon="7.00811">
        <ele>420.20001220703</ele>
        <time>2023-04-04T09:44:11.000Z</time>
      </trkpt>
      <trkpt lat="46.205" lon="7.00827">
        <ele>420.20001220703</ele>
        <time>2023-04-04T09:44:17.000Z</time>
      </trkpt>
      <trkpt lat="46.20466" lon="7.00853">
        <ele>420.20001220703</ele>
        <time>2023-04-04T09:44:26.000Z</time>
      </trkpt>
      <trkpt lat="46.20435" lon="7.00878">
        <ele>420.39999389648</ele>
        <time>2023-04-04T09:44:34.000Z</time>
      </trkpt>
      <trkpt lat="46.20398" lon="7.00907">
        <ele>420.79998779297</ele>
        <time>2023-04-04T09:44:43.000Z</time>
      </trkpt>
      <trkpt lat="46.20366" lon="7.00932">
        <ele>421</ele>
        <time>2023-04-04T09:44:51.000Z</time>
      </trkpt>
      <trkpt lat="46.20362" lon="7.00935">
        <ele>421</ele>
        <time>2023-04-04T09:44:52.000Z</time>
      </trkpt>
      <trkpt lat="46.20343" lon="7.00949">
        <ele>421</ele>
        <time>2023-04-04T09:44:57.000Z</time>
      </trkpt>
      <trkpt lat="46.20339" lon="7.00952">
        <ele>421</ele>
        <time>2023-04-04T09:44:58.000Z</time>
      </trkpt>
      <trkpt lat="46.20335" lon="7.00956">
        <ele>421</ele>
        <time>2023-04-04T09:44:59.000Z</time>
      </trkpt>
      <trkpt lat="46.20324" lon="7.00965">
        <ele>421.20001220703</ele>
        <time>2023-04-04T09:45:02.000Z</time>
      </trkpt>
      <trkpt lat="46.20321" lon="7.00968">
        <ele>421.39999389648</ele>
        <time>2023-04-04T09:45:03.000Z</time>
      </trkpt>
      <trkpt lat="46.20317" lon="7.00971">
        <ele>421.39999389648</ele>
        <time>2023-04-04T09:45:04.000Z</time>
      </trkpt>
      <trkpt lat="46.20313" lon="7.00974">
        <ele>421.39999389648</ele>
        <time>2023-04-04T09:45:05.000Z</time>
      </trkpt>
      <trkpt lat="46.2031" lon="7.00977">
        <ele>421.60000610352</ele>
        <time>2023-04-04T09:45:06.000Z</time>
      </trkpt>
      <trkpt lat="46.20306" lon="7.0098">
        <ele>421.79998779297</ele>
        <time>2023-04-04T09:45:07.000Z</time>
      </trkpt>
      <trkpt lat="46.20303" lon="7.00983">
        <ele>421.79998779297</ele>
        <time>2023-04-04T09:45:08.000Z</time>
      </trkpt>
      <trkpt lat="46.20299" lon="7.00986">
        <ele>422</ele>
        <time>2023-04-04T09:45:09.000Z</time>
      </trkpt>
      <trkpt lat="46.20292" lon="7.00993">
        <ele>422</ele>
        <time>2023-04-04T09:45:11.000Z</time>
      </trkpt>
      <trkpt lat="46.20289" lon="7.00996">
        <ele>422.20001220703</ele>
        <time>2023-04-04T09:45:12.000Z</time>
      </trkpt>
      <trkpt lat="46.20286" lon="7.00999">
        <ele>422.20001220703</ele>
        <time>2023-04-04T09:45:13.000Z</time>
      </trkpt>
      <trkpt lat="46.20284" lon="7.01002">
        <ele>422.20001220703</ele>
        <time>2023-04-04T09:45:14.000Z</time>
      </trkpt>
      <trkpt lat="46.20282" lon="7.01005">
        <ele>422.39999389648</ele>
        <time>2023-04-04T09:45:15.000Z</time>
      </trkpt>
      <trkpt lat="46.2028" lon="7.01007">
        <ele>422.39999389648</ele>
        <time>2023-04-04T09:45:16.000Z</time>
      </trkpt>
      <trkpt lat="46.20277" lon="7.0101">
        <ele>422.60000610352</ele>
        <time>2023-04-04T09:45:17.000Z</time>
      </trkpt>
      <trkpt lat="46.20276" lon="7.01013">
        <ele>422.79998779297</ele>
        <time>2023-04-04T09:45:18.000Z</time>
      </trkpt>
      <trkpt lat="46.20273" lon="7.01016">
        <ele>422.79998779297</ele>
        <time>2023-04-04T09:45:19.000Z</time>
      </trkpt>
      <trkpt lat="46.20271" lon="7.01018">
        <ele>423</ele>
        <time>2023-04-04T09:45:20.000Z</time>
      </trkpt>
      <trkpt lat="46.20269" lon="7.01021">
        <ele>423.20001220703</ele>
        <time>2023-04-04T09:45:21.000Z</time>
      </trkpt>
      <trkpt lat="46.20267" lon="7.01023">
        <ele>423.39999389648</ele>
        <time>2023-04-04T09:45:22.000Z</time>
      </trkpt>
      <trkpt lat="46.20265" lon="7.01026">
        <ele>423.39999389648</ele>
        <time>2023-04-04T09:45:23.000Z</time>
      </trkpt>
      <trkpt lat="46.20263" lon="7.01029">
        <ele>423.60000610352</ele>
        <time>2023-04-04T09:45:24.000Z</time>
      </trkpt>
      <trkpt lat="46.20261" lon="7.01031">
        <ele>423.79998779297</ele>
        <time>2023-04-04T09:45:25.000Z</time>
      </trkpt>
      <trkpt lat="46.20259" lon="7.01035">
        <ele>423.79998779297</ele>
        <time>2023-04-04T09:45:26.000Z</time>
      </trkpt>
      <trkpt lat="46.20254" lon="7.01041">
        <ele>424</ele>
        <time>2023-04-04T09:45:28.000Z</time>
      </trkpt>
      <trkpt lat="46.20251" lon="7.01044">
        <ele>424.20001220703</ele>
        <time>2023-04-04T09:45:29.000Z</time>
      </trkpt>
      <trkpt lat="46.20248" lon="7.01047">
        <ele>424.39999389648</ele>
        <time>2023-04-04T09:45:30.000Z</time>
      </trkpt>
      <trkpt lat="46.20245" lon="7.0105">
        <ele>424.39999389648</ele>
        <time>2023-04-04T09:45:31.000Z</time>
      </trkpt>
      <trkpt lat="46.20243" lon="7.01054">
        <ele>424.60000610352</ele>
        <time>2023-04-04T09:45:32.000Z</time>
      </trkpt>
      <trkpt lat="46.20239" lon="7.01057">
        <ele>424.60000610352</ele>
        <time>2023-04-04T09:45:33.000Z</time>
      </trkpt>
      <trkpt lat="46.20236" lon="7.0106">
        <ele>425</ele>
        <time>2023-04-04T09:45:34.000Z</time>
      </trkpt>
      <trkpt lat="46.20233" lon="7.01063">
        <ele>425</ele>
        <time>2023-04-04T09:45:35.000Z</time>
      </trkpt>
      <trkpt lat="46.2023" lon="7.01066">
        <ele>425.20001220703</ele>
        <time>2023-04-04T09:45:36.000Z</time>
      </trkpt>
      <trkpt lat="46.20228" lon="7.01069">
        <ele>425.20001220703</ele>
        <time>2023-04-04T09:45:37.000Z</time>
      </trkpt>
      <trkpt lat="46.20225" lon="7.01072">
        <ele>425.39999389648</ele>
        <time>2023-04-04T09:45:38.000Z</time>
      </trkpt>
      <trkpt lat="46.20222" lon="7.01075">
        <ele>425.39999389648</ele>
        <time>2023-04-04T09:45:39.000Z</time>
      </trkpt>
      <trkpt lat="46.20219" lon="7.01079">
        <ele>425.60000610352</ele>
        <time>2023-04-04T09:45:40.000Z</time>
      </trkpt>
      <trkpt lat="46.20217" lon="7.01082">
        <ele>425.60000610352</ele>
        <time>2023-04-04T09:45:41.000Z</time>
      </trkpt>
      <trkpt lat="46.20214" lon="7.01084">
        <ele>425.79998779297</ele>
        <time>2023-04-04T09:45:42.000Z</time>
      </trkpt>
      <trkpt lat="46.20212" lon="7.01087">
        <ele>425.79998779297</ele>
        <time>2023-04-04T09:45:43.000Z</time>
      </trkpt>
      <trkpt lat="46.2021" lon="7.0109">
        <ele>426</ele>
        <time>2023-04-04T09:45:44.000Z</time>
      </trkpt>
      <trkpt lat="46.20208" lon="7.01092">
        <ele>426.20001220703</ele>
        <time>2023-04-04T09:45:45.000Z</time>
      </trkpt>
      <trkpt lat="46.20206" lon="7.01094">
        <ele>426.20001220703</ele>
        <time>2023-04-04T09:45:46.000Z</time>
      </trkpt>
      <trkpt lat="46.20203" lon="7.01096">
        <ele>426.20001220703</ele>
        <time>2023-04-04T09:45:47.000Z</time>
      </trkpt>
      <trkpt lat="46.20202" lon="7.01098">
        <ele>426.39999389648</ele>
        <time>2023-04-04T09:45:48.000Z</time>
      </trkpt>
      <trkpt lat="46.20199" lon="7.011">
        <ele>426.39999389648</ele>
        <time>2023-04-04T09:45:49.000Z</time>
      </trkpt>
      <trkpt lat="46.20197" lon="7.01102">
        <ele>426.39999389648</ele>
        <time>2023-04-04T09:45:50.000Z</time>
      </trkpt>
      <trkpt lat="46.20195" lon="7.01104">
        <ele>426.60000610352</ele>
        <time>2023-04-04T09:45:51.000Z</time>
      </trkpt>
      <trkpt lat="46.20194" lon="7.01107">
        <ele>426.60000610352</ele>
        <time>2023-04-04T09:45:52.000Z</time>
      </trkpt>
      <trkpt lat="46.20193" lon="7.01109">
        <ele>426.79998779297</ele>
        <time>2023-04-04T09:45:53.000Z</time>
      </trkpt>
      <trkpt lat="46.20192" lon="7.01112">
        <ele>426.79998779297</ele>
        <time>2023-04-04T09:45:54.000Z</time>
      </trkpt>
      <trkpt lat="46.20191" lon="7.01114">
        <ele>427</ele>
        <time>2023-04-04T09:45:55.000Z</time>
      </trkpt>
      <trkpt lat="46.2019" lon="7.01117">
        <ele>427</ele>
        <time>2023-04-04T09:45:56.000Z</time>
      </trkpt>
      <trkpt lat="46.20188" lon="7.01119">
        <ele>427.20001220703</ele>
        <time>2023-04-04T09:45:57.000Z</time>
      </trkpt>
      <trkpt lat="46.20186" lon="7.01122">
        <ele>427.20001220703</ele>
        <time>2023-04-04T09:45:58.000Z</time>
      </trkpt>
      <trkpt lat="46.20184" lon="7.01126">
        <ele>427.39999389648</ele>
        <time>2023-04-04T09:45:59.000Z</time>
      </trkpt>
      <trkpt lat="46.20182" lon="7.01129">
        <ele>427.39999389648</ele>
        <time>2023-04-04T09:46:00.000Z</time>
      </trkpt>
      <trkpt lat="46.20179" lon="7.01132">
        <ele>427.60000610352</ele>
        <time>2023-04-04T09:46:01.000Z</time>
      </trkpt>
      <trkpt lat="46.20177" lon="7.01135">
        <ele>427.60000610352</ele>
        <time>2023-04-04T09:46:02.000Z</time>
      </trkpt>
      <trkpt lat="46.20175" lon="7.01138">
        <ele>427.60000610352</ele>
        <time>2023-04-04T09:46:03.000Z</time>
      </trkpt>
      <trkpt lat="46.20163" lon="7.01157">
        <ele>428</ele>
        <time>2023-04-04T09:46:09.000Z</time>
      </trkpt>
      <trkpt lat="46.20162" lon="7.0116">
        <ele>428</ele>
        <time>2023-04-04T09:46:10.000Z</time>
      </trkpt>
      <trkpt lat="46.2016" lon="7.01162">
        <ele>428.20001220703</ele>
        <time>2023-04-04T09:46:11.000Z</time>
      </trkpt>
      <trkpt lat="46.20158" lon="7.01165">
        <ele>428.20001220703</ele>
        <time>2023-04-04T09:46:12.000Z</time>
      </trkpt>
      <trkpt lat="46.20156" lon="7.01168">
        <ele>428.20001220703</ele>
        <time>2023-04-04T09:46:13.000Z</time>
      </trkpt>
      <trkpt lat="46.20154" lon="7.01171">
        <ele>428.39999389648</ele>
        <time>2023-04-04T09:46:14.000Z</time>
      </trkpt>
      <trkpt lat="46.20153" lon="7.01174">
        <ele>428.39999389648</ele>
        <time>2023-04-04T09:46:15.000Z</time>
      </trkpt>
      <trkpt lat="46.20151" lon="7.01177">
        <ele>428.60000610352</ele>
        <time>2023-04-04T09:46:16.000Z</time>
      </trkpt>
      <trkpt lat="46.20149" lon="7.0118">
        <ele>428.60000610352</ele>
        <time>2023-04-04T09:46:17.000Z</time>
      </trkpt>
      <trkpt lat="46.20146" lon="7.01185">
        <ele>429.20001220703</ele>
        <time>2023-04-04T09:46:19.000Z</time>
      </trkpt>
      <trkpt lat="46.20144" lon="7.01188">
        <ele>429.39999389648</ele>
        <time>2023-04-04T09:46:20.000Z</time>
      </trkpt>
      <trkpt lat="46.20142" lon="7.01191">
        <ele>429.60000610352</ele>
        <time>2023-04-04T09:46:21.000Z</time>
      </trkpt>
      <trkpt lat="46.2014" lon="7.01194">
        <ele>429.60000610352</ele>
        <time>2023-04-04T09:46:22.000Z</time>
      </trkpt>
      <trkpt lat="46.20137" lon="7.012">
        <ele>429.79998779297</ele>
        <time>2023-04-04T09:46:24.000Z</time>
      </trkpt>
      <trkpt lat="46.20133" lon="7.01207">
        <ele>430</ele>
        <time>2023-04-04T09:46:26.000Z</time>
      </trkpt>
      <trkpt lat="46.20132" lon="7.0121">
        <ele>430</ele>
        <time>2023-04-04T09:46:27.000Z</time>
      </trkpt>
      <trkpt lat="46.2013" lon="7.01213">
        <ele>430.20001220703</ele>
        <time>2023-04-04T09:46:28.000Z</time>
      </trkpt>
      <trkpt lat="46.20128" lon="7.01216">
        <ele>430.20001220703</ele>
        <time>2023-04-04T09:46:29.000Z</time>
      </trkpt>
      <trkpt lat="46.20127" lon="7.01219">
        <ele>430.20001220703</ele>
        <time>2023-04-04T09:46:30.000Z</time>
      </trkpt>
      <trkpt lat="46.20125" lon="7.01222">
        <ele>430.39999389648</ele>
        <time>2023-04-04T09:46:31.000Z</time>
      </trkpt>
      <trkpt lat="46.20124" lon="7.01225">
        <ele>430.39999389648</ele>
        <time>2023-04-04T09:46:32.000Z</time>
      </trkpt>
      <trkpt lat="46.20122" lon="7.01229">
        <ele>430.60000610352</ele>
        <time>2023-04-04T09:46:33.000Z</time>
      </trkpt>
      <trkpt lat="46.20121" lon="7.01232">
        <ele>430.60000610352</ele>
        <time>2023-04-04T09:46:34.000Z</time>
      </trkpt>
      <trkpt lat="46.2012" lon="7.01235">
        <ele>430.79998779297</ele>
        <time>2023-04-04T09:46:35.000Z</time>
      </trkpt>
      <trkpt lat="46.20119" lon="7.01238">
        <ele>430.79998779297</ele>
        <time>2023-04-04T09:46:36.000Z</time>
      </trkpt>
      <trkpt lat="46.20118" lon="7.01241">
        <ele>431</ele>
        <time>2023-04-04T09:46:37.000Z</time>
      </trkpt>
      <trkpt lat="46.20116" lon="7.01244">
        <ele>431</ele>
        <time>2023-04-04T09:46:38.000Z</time>
      </trkpt>
      <trkpt lat="46.20115" lon="7.01248">
        <ele>431</ele>
        <time>2023-04-04T09:46:39.000Z</time>
      </trkpt>
      <trkpt lat="46.20113" lon="7.01251">
        <ele>431.20001220703</ele>
        <time>2023-04-04T09:46:40.000Z</time>
      </trkpt>
      <trkpt lat="46.20104" lon="7.01265">
        <ele>431.79998779297</ele>
        <time>2023-04-04T09:46:45.000Z</time>
      </trkpt>
      <trkpt lat="46.20098" lon="7.01278">
        <ele>432.39999389648</ele>
        <time>2023-04-04T09:46:49.000Z</time>
      </trkpt>
      <trkpt lat="46.20096" lon="7.01281">
        <ele>432.39999389648</ele>
        <time>2023-04-04T09:46:50.000Z</time>
      </trkpt>
      <trkpt lat="46.20095" lon="7.01284">
        <ele>432.60000610352</ele>
        <time>2023-04-04T09:46:51.000Z</time>
      </trkpt>
      <trkpt lat="46.20093" lon="7.01287">
        <ele>432.60000610352</ele>
        <time>2023-04-04T09:46:52.000Z</time>
      </trkpt>
      <trkpt lat="46.20092" lon="7.01291">
        <ele>432.79998779297</ele>
        <time>2023-04-04T09:46:53.000Z</time>
      </trkpt>
      <trkpt lat="46.2009" lon="7.01294">
        <ele>433</ele>
        <time>2023-04-04T09:46:54.000Z</time>
      </trkpt>
      <trkpt lat="46.20089" lon="7.01298">
        <ele>433.20001220703</ele>
        <time>2023-04-04T09:46:55.000Z</time>
      </trkpt>
      <trkpt lat="46.20087" lon="7.01302">
        <ele>433.20001220703</ele>
        <time>2023-04-04T09:46:56.000Z</time>
      </trkpt>
      <trkpt lat="46.20085" lon="7.01306">
        <ele>433.20001220703</ele>
        <time>2023-04-04T09:46:57.000Z</time>
      </trkpt>
      <trkpt lat="46.20084" lon="7.01309">
        <ele>433.39999389648</ele>
        <time>2023-04-04T09:46:58.000Z</time>
      </trkpt>
      <trkpt lat="46.20082" lon="7.01313">
        <ele>433.39999389648</ele>
        <time>2023-04-04T09:46:59.000Z</time>
      </trkpt>
      <trkpt lat="46.2008" lon="7.01317">
        <ele>433.39999389648</ele>
        <time>2023-04-04T09:47:00.000Z</time>
      </trkpt>
      <trkpt lat="46.20078" lon="7.01321">
        <ele>433.60000610352</ele>
        <time>2023-04-04T09:47:01.000Z</time>
      </trkpt>
      <trkpt lat="46.20076" lon="7.01325">
        <ele>433.60000610352</ele>
        <time>2023-04-04T09:47:02.000Z</time>
      </trkpt>
      <trkpt lat="46.20075" lon="7.01329">
        <ele>433.60000610352</ele>
        <time>2023-04-04T09:47:03.000Z</time>
      </trkpt>
      <trkpt lat="46.20073" lon="7.01332">
        <ele>433.60000610352</ele>
        <time>2023-04-04T09:47:04.000Z</time>
      </trkpt>
      <trkpt lat="46.20072" lon="7.01336">
        <ele>433.60000610352</ele>
        <time>2023-04-04T09:47:05.000Z</time>
      </trkpt>
      <trkpt lat="46.2007" lon="7.0134">
        <ele>433.79998779297</ele>
        <time>2023-04-04T09:47:06.000Z</time>
      </trkpt>
      <trkpt lat="46.20064" lon="7.01354">
        <ele>434.20001220703</ele>
        <time>2023-04-04T09:47:10.000Z</time>
      </trkpt>
      <trkpt lat="46.20062" lon="7.01358">
        <ele>434.20001220703</ele>
        <time>2023-04-04T09:47:11.000Z</time>
      </trkpt>
      <trkpt lat="46.20058" lon="7.01369">
        <ele>434.39999389648</ele>
        <time>2023-04-04T09:47:14.000Z</time>
      </trkpt>
      <trkpt lat="46.20057" lon="7.01373">
        <ele>434.39999389648</ele>
        <time>2023-04-04T09:47:15.000Z</time>
      </trkpt>
      <trkpt lat="46.20056" lon="7.01377">
        <ele>434.39999389648</ele>
        <time>2023-04-04T09:47:16.000Z</time>
      </trkpt>
      <trkpt lat="46.20043" lon="7.01408">
        <ele>434.79998779297</ele>
        <time>2023-04-04T09:47:24.000Z</time>
      </trkpt>
      <trkpt lat="46.20034" lon="7.01436">
        <ele>435.20001220703</ele>
        <time>2023-04-04T09:47:31.000Z</time>
      </trkpt>
      <trkpt lat="46.2003" lon="7.01449">
        <ele>435.39999389648</ele>
        <time>2023-04-04T09:47:34.000Z</time>
      </trkpt>
      <trkpt lat="46.20022" lon="7.01478">
        <ele>436</ele>
        <time>2023-04-04T09:47:41.000Z</time>
      </trkpt>
      <trkpt lat="46.20014" lon="7.01504">
        <ele>436.20001220703</ele>
        <time>2023-04-04T09:47:47.000Z</time>
      </trkpt>
      <trkpt lat="46.2001" lon="7.01517">
        <ele>436.39999389648</ele>
        <time>2023-04-04T09:47:50.000Z</time>
      </trkpt>
      <trkpt lat="46.2" lon="7.01557">
        <ele>436.79998779297</ele>
        <time>2023-04-04T09:47:59.000Z</time>
      </trkpt>
      <trkpt lat="46.19992" lon="7.01581">
        <ele>437</ele>
        <time>2023-04-04T09:48:05.000Z</time>
      </trkpt>
      <trkpt lat="46.19991" lon="7.01584">
        <ele>437.20001220703</ele>
        <time>2023-04-04T09:48:06.000Z</time>
      </trkpt>
      <trkpt lat="46.19991" lon="7.01587">
        <ele>437.20001220703</ele>
        <time>2023-04-04T09:48:07.000Z</time>
      </trkpt>
      <trkpt lat="46.19991" lon="7.0159">
        <ele>437.39999389648</ele>
        <time>2023-04-04T09:48:08.000Z</time>
      </trkpt>
      <trkpt lat="46.1999" lon="7.01593">
        <ele>437.39999389648</ele>
        <time>2023-04-04T09:48:09.000Z</time>
      </trkpt>
      <trkpt lat="46.1999" lon="7.01596">
        <ele>437.39999389648</ele>
        <time>2023-04-04T09:48:10.000Z</time>
      </trkpt>
      <trkpt lat="46.19992" lon="7.01599">
        <ele>437.39999389648</ele>
        <time>2023-04-04T09:48:11.000Z</time>
      </trkpt>
      <trkpt lat="46.19993" lon="7.0161">
        <ele>437.60000610352</ele>
        <time>2023-04-04T09:48:13.000Z</time>
      </trkpt>
      <trkpt lat="46.19994" lon="7.01615">
        <ele>437.60000610352</ele>
        <time>2023-04-04T09:48:14.000Z</time>
      </trkpt>
      <trkpt lat="46.19994" lon="7.01621">
        <ele>437.79998779297</ele>
        <time>2023-04-04T09:48:15.000Z</time>
      </trkpt>
      <trkpt lat="46.19994" lon="7.01626">
        <ele>437.79998779297</ele>
        <time>2023-04-04T09:48:16.000Z</time>
      </trkpt>
      <trkpt lat="46.19994" lon="7.01632">
        <ele>437.79998779297</ele>
        <time>2023-04-04T09:48:17.000Z</time>
      </trkpt>
      <trkpt lat="46.19994" lon="7.01633">
        <ele>437.79998779297</ele>
        <time>2023-04-04T09:48:18.000Z</time>
      </trkpt>
      <trkpt lat="46.19993" lon="7.01639">
        <ele>438</ele>
        <time>2023-04-04T09:48:19.000Z</time>
      </trkpt>
      <trkpt lat="46.19991" lon="7.01643">
        <ele>438.20001220703</ele>
        <time>2023-04-04T09:48:20.000Z</time>
      </trkpt>
      <trkpt lat="46.1998" lon="7.01658">
        <ele>438.60000610352</ele>
        <time>2023-04-04T09:48:23.000Z</time>
      </trkpt>
      <trkpt lat="46.19978" lon="7.01663">
        <ele>438.60000610352</ele>
        <time>2023-04-04T09:48:24.000Z</time>
      </trkpt>
      <trkpt lat="46.19974" lon="7.01678">
        <ele>438.60000610352</ele>
        <time>2023-04-04T09:48:27.000Z</time>
      </trkpt>
      <trkpt lat="46.19973" lon="7.01683">
        <ele>438.60000610352</ele>
        <time>2023-04-04T09:48:28.000Z</time>
      </trkpt>
      <trkpt lat="46.19962" lon="7.01726">
        <ele>439.20001220703</ele>
        <time>2023-04-04T09:48:37.000Z</time>
      </trkpt>
      <trkpt lat="46.19959" lon="7.01739">
        <ele>439.20001220703</ele>
        <time>2023-04-04T09:48:40.000Z</time>
      </trkpt>
      <trkpt lat="46.19955" lon="7.01752">
        <ele>439.39999389648</ele>
        <time>2023-04-04T09:48:43.000Z</time>
      </trkpt>
      <trkpt lat="46.19954" lon="7.01756">
        <ele>439.39999389648</ele>
        <time>2023-04-04T09:48:44.000Z</time>
      </trkpt>
      <trkpt lat="46.19953" lon="7.0176">
        <ele>439.39999389648</ele>
        <time>2023-04-04T09:48:45.000Z</time>
      </trkpt>
      <trkpt lat="46.19951" lon="7.01764">
        <ele>439.39999389648</ele>
        <time>2023-04-04T09:48:46.000Z</time>
      </trkpt>
      <trkpt lat="46.1995" lon="7.01768">
        <ele>439.39999389648</ele>
        <time>2023-04-04T09:48:47.000Z</time>
      </trkpt>
      <trkpt lat="46.19948" lon="7.01771">
        <ele>439.60000610352</ele>
        <time>2023-04-04T09:48:48.000Z</time>
      </trkpt>
      <trkpt lat="46.19947" lon="7.01775">
        <ele>439.60000610352</ele>
        <time>2023-04-04T09:48:49.000Z</time>
      </trkpt>
      <trkpt lat="46.19945" lon="7.01778">
        <ele>439.60000610352</ele>
        <time>2023-04-04T09:48:50.000Z</time>
      </trkpt>
      <trkpt lat="46.19943" lon="7.01782">
        <ele>439.79998779297</ele>
        <time>2023-04-04T09:48:51.000Z</time>
      </trkpt>
      <trkpt lat="46.1994" lon="7.01788">
        <ele>439.79998779297</ele>
        <time>2023-04-04T09:48:53.000Z</time>
      </trkpt>
      <trkpt lat="46.19938" lon="7.01791">
        <ele>440</ele>
        <time>2023-04-04T09:48:54.000Z</time>
      </trkpt>
      <trkpt lat="46.19931" lon="7.01799">
        <ele>440</ele>
        <time>2023-04-04T09:48:57.000Z</time>
      </trkpt>
      <trkpt lat="46.19929" lon="7.01802">
        <ele>440</ele>
        <time>2023-04-04T09:48:58.000Z</time>
      </trkpt>
      <trkpt lat="46.19927" lon="7.01805">
        <ele>440.20001220703</ele>
        <time>2023-04-04T09:48:59.000Z</time>
      </trkpt>
      <trkpt lat="46.19925" lon="7.01808">
        <ele>440.20001220703</ele>
        <time>2023-04-04T09:49:00.000Z</time>
      </trkpt>
      <trkpt lat="46.19921" lon="7.01813">
        <ele>440.39999389648</ele>
        <time>2023-04-04T09:49:02.000Z</time>
      </trkpt>
      <trkpt lat="46.19917" lon="7.01818">
        <ele>440.60000610352</ele>
        <time>2023-04-04T09:49:04.000Z</time>
      </trkpt>
      <trkpt lat="46.19915" lon="7.0182">
        <ele>440.79998779297</ele>
        <time>2023-04-04T09:49:05.000Z</time>
      </trkpt>
      <trkpt lat="46.19913" lon="7.01823">
        <ele>440.79998779297</ele>
        <time>2023-04-04T09:49:06.000Z</time>
      </trkpt>
      <trkpt lat="46.1991" lon="7.01827">
        <ele>441</ele>
        <time>2023-04-04T09:49:08.000Z</time>
      </trkpt>
      <trkpt lat="46.19908" lon="7.01829">
        <ele>441.20001220703</ele>
        <time>2023-04-04T09:49:09.000Z</time>
      </trkpt>
      <trkpt lat="46.19906" lon="7.01832">
        <ele>441.39999389648</ele>
        <time>2023-04-04T09:49:10.000Z</time>
      </trkpt>
      <trkpt lat="46.19904" lon="7.01834">
        <ele>441.39999389648</ele>
        <time>2023-04-04T09:49:11.000Z</time>
      </trkpt>
      <trkpt lat="46.19903" lon="7.01836">
        <ele>441.60000610352</ele>
        <time>2023-04-04T09:49:12.000Z</time>
      </trkpt>
      <trkpt lat="46.199" lon="7.01839">
        <ele>441.60000610352</ele>
        <time>2023-04-04T09:49:13.000Z</time>
      </trkpt>
      <trkpt lat="46.19899" lon="7.01841">
        <ele>441.79998779297</ele>
        <time>2023-04-04T09:49:14.000Z</time>
      </trkpt>
      <trkpt lat="46.19897" lon="7.01843">
        <ele>441.79998779297</ele>
        <time>2023-04-04T09:49:15.000Z</time>
      </trkpt>
      <trkpt lat="46.19895" lon="7.01846">
        <ele>442</ele>
        <time>2023-04-04T09:49:16.000Z</time>
      </trkpt>
      <trkpt lat="46.19893" lon="7.01848">
        <ele>442.20001220703</ele>
        <time>2023-04-04T09:49:17.000Z</time>
      </trkpt>
      <trkpt lat="46.19892" lon="7.0185">
        <ele>442.39999389648</ele>
        <time>2023-04-04T09:49:18.000Z</time>
      </trkpt>
      <trkpt lat="46.1989" lon="7.01853">
        <ele>442.60000610352</ele>
        <time>2023-04-04T09:49:19.000Z</time>
      </trkpt>
      <trkpt lat="46.19884" lon="7.0186">
        <ele>443</ele>
        <time>2023-04-04T09:49:22.000Z</time>
      </trkpt>
      <trkpt lat="46.19882" lon="7.01862">
        <ele>443</ele>
        <time>2023-04-04T09:49:23.000Z</time>
      </trkpt>
      <trkpt lat="46.1988" lon="7.01864">
        <ele>443.20001220703</ele>
        <time>2023-04-04T09:49:24.000Z</time>
      </trkpt>
      <trkpt lat="46.19878" lon="7.01866">
        <ele>443.20001220703</ele>
        <time>2023-04-04T09:49:25.000Z</time>
      </trkpt>
      <trkpt lat="46.19876" lon="7.01868">
        <ele>443.20001220703</ele>
        <time>2023-04-04T09:49:26.000Z</time>
      </trkpt>
      <trkpt lat="46.19875" lon="7.01871">
        <ele>443.39999389648</ele>
        <time>2023-04-04T09:49:27.000Z</time>
      </trkpt>
      <trkpt lat="46.19873" lon="7.01873">
        <ele>443.79998779297</ele>
        <time>2023-04-04T09:49:28.000Z</time>
      </trkpt>
      <trkpt lat="46.19872" lon="7.01875">
        <ele>444</ele>
        <time>2023-04-04T09:49:29.000Z</time>
      </trkpt>
      <trkpt lat="46.1987" lon="7.01877">
        <ele>444.39999389648</ele>
        <time>2023-04-04T09:49:30.000Z</time>
      </trkpt>
      <trkpt lat="46.19868" lon="7.01879">
        <ele>444.60000610352</ele>
        <time>2023-04-04T09:49:31.000Z</time>
      </trkpt>
      <trkpt lat="46.19867" lon="7.01882">
        <ele>444.79998779297</ele>
        <time>2023-04-04T09:49:32.000Z</time>
      </trkpt>
      <trkpt lat="46.19865" lon="7.01884">
        <ele>445</ele>
        <time>2023-04-04T09:49:33.000Z</time>
      </trkpt>
      <trkpt lat="46.19863" lon="7.01886">
        <ele>445.20001220703</ele>
        <time>2023-04-04T09:49:34.000Z</time>
      </trkpt>
      <trkpt lat="46.19861" lon="7.01887">
        <ele>445.60000610352</ele>
        <time>2023-04-04T09:49:35.000Z</time>
      </trkpt>
      <trkpt lat="46.1986" lon="7.01889">
        <ele>445.60000610352</ele>
        <time>2023-04-04T09:49:36.000Z</time>
      </trkpt>
      <trkpt lat="46.19858" lon="7.01891">
        <ele>446</ele>
        <time>2023-04-04T09:49:37.000Z</time>
      </trkpt>
      <trkpt lat="46.19856" lon="7.01893">
        <ele>446.39999389648</ele>
        <time>2023-04-04T09:49:38.000Z</time>
      </trkpt>
      <trkpt lat="46.19854" lon="7.01895">
        <ele>446.39999389648</ele>
        <time>2023-04-04T09:49:39.000Z</time>
      </trkpt>
      <trkpt lat="46.19853" lon="7.01898">
        <ele>446.60000610352</ele>
        <time>2023-04-04T09:49:40.000Z</time>
      </trkpt>
      <trkpt lat="46.19851" lon="7.019">
        <ele>446.79998779297</ele>
        <time>2023-04-04T09:49:41.000Z</time>
      </trkpt>
      <trkpt lat="46.1985" lon="7.01902">
        <ele>446.79998779297</ele>
        <time>2023-04-04T09:49:42.000Z</time>
      </trkpt>
      <trkpt lat="46.19848" lon="7.01904">
        <ele>447.20001220703</ele>
        <time>2023-04-04T09:49:43.000Z</time>
      </trkpt>
      <trkpt lat="46.19847" lon="7.01906">
        <ele>447.39999389648</ele>
        <time>2023-04-04T09:49:44.000Z</time>
      </trkpt>
      <trkpt lat="46.19845" lon="7.01907">
        <ele>447.79998779297</ele>
        <time>2023-04-04T09:49:45.000Z</time>
      </trkpt>
      <trkpt lat="46.19844" lon="7.01909">
        <ele>448</ele>
        <time>2023-04-04T09:49:46.000Z</time>
      </trkpt>
      <trkpt lat="46.19842" lon="7.01911">
        <ele>448.20001220703</ele>
        <time>2023-04-04T09:49:47.000Z</time>
      </trkpt>
      <trkpt lat="46.1984" lon="7.01913">
        <ele>448.39999389648</ele>
        <time>2023-04-04T09:49:48.000Z</time>
      </trkpt>
      <trkpt lat="46.19838" lon="7.01915">
        <ele>448.60000610352</ele>
        <time>2023-04-04T09:49:49.000Z</time>
      </trkpt>
      <trkpt lat="46.19837" lon="7.01917">
        <ele>448.79998779297</ele>
        <time>2023-04-04T09:49:50.000Z</time>
      </trkpt>
      <trkpt lat="46.19836" lon="7.01919">
        <ele>449</ele>
        <time>2023-04-04T09:49:51.000Z</time>
      </trkpt>
      <trkpt lat="46.19835" lon="7.01921">
        <ele>449.20001220703</ele>
        <time>2023-04-04T09:49:52.000Z</time>
      </trkpt>
      <trkpt lat="46.19833" lon="7.01923">
        <ele>449.39999389648</ele>
        <time>2023-04-04T09:49:53.000Z</time>
      </trkpt>
      <trkpt lat="46.19832" lon="7.01925">
        <ele>449.60000610352</ele>
        <time>2023-04-04T09:49:54.000Z</time>
      </trkpt>
      <trkpt lat="46.1983" lon="7.01927">
        <ele>449.79998779297</ele>
        <time>2023-04-04T09:49:55.000Z</time>
      </trkpt>
      <trkpt lat="46.19829" lon="7.0193">
        <ele>450</ele>
        <time>2023-04-04T09:49:56.000Z</time>
      </trkpt>
      <trkpt lat="46.19828" lon="7.01932">
        <ele>450</ele>
        <time>2023-04-04T09:49:57.000Z</time>
      </trkpt>
      <trkpt lat="46.19827" lon="7.01934">
        <ele>450.20001220703</ele>
        <time>2023-04-04T09:49:58.000Z</time>
      </trkpt>
      <trkpt lat="46.19826" lon="7.01936">
        <ele>450.39999389648</ele>
        <time>2023-04-04T09:49:59.000Z</time>
      </trkpt>
      <trkpt lat="46.19824" lon="7.01938">
        <ele>450.60000610352</ele>
        <time>2023-04-04T09:50:00.000Z</time>
      </trkpt>
      <trkpt lat="46.19823" lon="7.01939">
        <ele>450.79998779297</ele>
        <time>2023-04-04T09:50:01.000Z</time>
      </trkpt>
      <trkpt lat="46.19821" lon="7.01941">
        <ele>451</ele>
        <time>2023-04-04T09:50:02.000Z</time>
      </trkpt>
      <trkpt lat="46.19819" lon="7.01943">
        <ele>451.20001220703</ele>
        <time>2023-04-04T09:50:03.000Z</time>
      </trkpt>
      <trkpt lat="46.19818" lon="7.01945">
        <ele>451.39999389648</ele>
        <time>2023-04-04T09:50:04.000Z</time>
      </trkpt>
      <trkpt lat="46.19816" lon="7.01947">
        <ele>451.60000610352</ele>
        <time>2023-04-04T09:50:05.000Z</time>
      </trkpt>
      <trkpt lat="46.19815" lon="7.01949">
        <ele>452</ele>
        <time>2023-04-04T09:50:06.000Z</time>
      </trkpt>
      <trkpt lat="46.19813" lon="7.01951">
        <ele>452.20001220703</ele>
        <time>2023-04-04T09:50:07.000Z</time>
      </trkpt>
      <trkpt lat="46.19811" lon="7.01954">
        <ele>452.39999389648</ele>
        <time>2023-04-04T09:50:08.000Z</time>
      </trkpt>
      <trkpt lat="46.19809" lon="7.01956">
        <ele>452.60000610352</ele>
        <time>2023-04-04T09:50:09.000Z</time>
      </trkpt>
      <trkpt lat="46.19807" lon="7.01958">
        <ele>452.79998779297</ele>
        <time>2023-04-04T09:50:10.000Z</time>
      </trkpt>
      <trkpt lat="46.19804" lon="7.0196">
        <ele>452.79998779297</ele>
        <time>2023-04-04T09:50:11.000Z</time>
      </trkpt>
      <trkpt lat="46.19803" lon="7.01962">
        <ele>452.79998779297</ele>
        <time>2023-04-04T09:50:12.000Z</time>
      </trkpt>
      <trkpt lat="46.19801" lon="7.01964">
        <ele>453</ele>
        <time>2023-04-04T09:50:13.000Z</time>
      </trkpt>
      <trkpt lat="46.198" lon="7.01966">
        <ele>453</ele>
        <time>2023-04-04T09:50:14.000Z</time>
      </trkpt>
      <trkpt lat="46.19798" lon="7.01968">
        <ele>453.20001220703</ele>
        <time>2023-04-04T09:50:15.000Z</time>
      </trkpt>
      <trkpt lat="46.19796" lon="7.0197">
        <ele>453.39999389648</ele>
        <time>2023-04-04T09:50:16.000Z</time>
      </trkpt>
      <trkpt lat="46.19795" lon="7.01971">
        <ele>453.60000610352</ele>
        <time>2023-04-04T09:50:17.000Z</time>
      </trkpt>
      <trkpt lat="46.19793" lon="7.01973">
        <ele>453.60000610352</ele>
        <time>2023-04-04T09:50:18.000Z</time>
      </trkpt>
      <trkpt lat="46.19792" lon="7.01975">
        <ele>453.79998779297</ele>
        <time>2023-04-04T09:50:19.000Z</time>
      </trkpt>
      <trkpt lat="46.1979" lon="7.01976">
        <ele>453.79998779297</ele>
        <time>2023-04-04T09:50:20.000Z</time>
      </trkpt>
      <trkpt lat="46.19789" lon="7.01978">
        <ele>453.79998779297</ele>
        <time>2023-04-04T09:50:21.000Z</time>
      </trkpt>
      <trkpt lat="46.19786" lon="7.0198">
        <ele>454</ele>
        <time>2023-04-04T09:50:22.000Z</time>
      </trkpt>
      <trkpt lat="46.19784" lon="7.01983">
        <ele>454</ele>
        <time>2023-04-04T09:50:23.000Z</time>
      </trkpt>
      <trkpt lat="46.19782" lon="7.01985">
        <ele>454.20001220703</ele>
        <time>2023-04-04T09:50:24.000Z</time>
      </trkpt>
      <trkpt lat="46.1978" lon="7.01988">
        <ele>454.20001220703</ele>
        <time>2023-04-04T09:50:25.000Z</time>
      </trkpt>
      <trkpt lat="46.19778" lon="7.0199">
        <ele>454.39999389648</ele>
        <time>2023-04-04T09:50:26.000Z</time>
      </trkpt>
      <trkpt lat="46.19776" lon="7.01993">
        <ele>454.60000610352</ele>
        <time>2023-04-04T09:50:27.000Z</time>
      </trkpt>
      <trkpt lat="46.19775" lon="7.01995">
        <ele>454.60000610352</ele>
        <time>2023-04-04T09:50:28.000Z</time>
      </trkpt>
      <trkpt lat="46.19773" lon="7.01997">
        <ele>454.79998779297</ele>
        <time>2023-04-04T09:50:29.000Z</time>
      </trkpt>
      <trkpt lat="46.19771" lon="7.01999">
        <ele>454.79998779297</ele>
        <time>2023-04-04T09:50:30.000Z</time>
      </trkpt>
      <trkpt lat="46.19769" lon="7.02001">
        <ele>455</ele>
        <time>2023-04-04T09:50:31.000Z</time>
      </trkpt>
      <trkpt lat="46.19767" lon="7.02004">
        <ele>455</ele>
        <time>2023-04-04T09:50:32.000Z</time>
      </trkpt>
      <trkpt lat="46.19765" lon="7.02005">
        <ele>455.20001220703</ele>
        <time>2023-04-04T09:50:33.000Z</time>
      </trkpt>
      <trkpt lat="46.19763" lon="7.02008">
        <ele>455.20001220703</ele>
        <time>2023-04-04T09:50:34.000Z</time>
      </trkpt>
      <trkpt lat="46.19761" lon="7.0201">
        <ele>455.20001220703</ele>
        <time>2023-04-04T09:50:35.000Z</time>
      </trkpt>
      <trkpt lat="46.19758" lon="7.02012">
        <ele>455.39999389648</ele>
        <time>2023-04-04T09:50:36.000Z</time>
      </trkpt>
      <trkpt lat="46.19756" lon="7.02014">
        <ele>455.39999389648</ele>
        <time>2023-04-04T09:50:37.000Z</time>
      </trkpt>
      <trkpt lat="46.19754" lon="7.02016">
        <ele>455.39999389648</ele>
        <time>2023-04-04T09:50:38.000Z</time>
      </trkpt>
      <trkpt lat="46.19752" lon="7.02018">
        <ele>455.60000610352</ele>
        <time>2023-04-04T09:50:39.000Z</time>
      </trkpt>
      <trkpt lat="46.1975" lon="7.0202">
        <ele>455.60000610352</ele>
        <time>2023-04-04T09:50:40.000Z</time>
      </trkpt>
      <trkpt lat="46.19748" lon="7.02022">
        <ele>455.79998779297</ele>
        <time>2023-04-04T09:50:41.000Z</time>
      </trkpt>
      <trkpt lat="46.19746" lon="7.02024">
        <ele>455.79998779297</ele>
        <time>2023-04-04T09:50:42.000Z</time>
      </trkpt>
      <trkpt lat="46.19744" lon="7.02026">
        <ele>455.79998779297</ele>
        <time>2023-04-04T09:50:43.000Z</time>
      </trkpt>
      <trkpt lat="46.19742" lon="7.02029">
        <ele>455.79998779297</ele>
        <time>2023-04-04T09:50:44.000Z</time>
      </trkpt>
      <trkpt lat="46.19739" lon="7.02031">
        <ele>456</ele>
        <time>2023-04-04T09:50:45.000Z</time>
      </trkpt>
      <trkpt lat="46.19737" lon="7.02033">
        <ele>456</ele>
        <time>2023-04-04T09:50:46.000Z</time>
      </trkpt>
      <trkpt lat="46.19734" lon="7.02035">
        <ele>456</ele>
        <time>2023-04-04T09:50:47.000Z</time>
      </trkpt>
      <trkpt lat="46.1973" lon="7.02039">
        <ele>456.20001220703</ele>
        <time>2023-04-04T09:50:49.000Z</time>
      </trkpt>
      <trkpt lat="46.19713" lon="7.02055">
        <ele>457.20001220703</ele>
        <time>2023-04-04T09:50:57.000Z</time>
      </trkpt>
      <trkpt lat="46.19711" lon="7.02057">
        <ele>457.20001220703</ele>
        <time>2023-04-04T09:50:58.000Z</time>
      </trkpt>
      <trkpt lat="46.19709" lon="7.02059">
        <ele>457.20001220703</ele>
        <time>2023-04-04T09:50:59.000Z</time>
      </trkpt>
      <trkpt lat="46.19699" lon="7.0207">
        <ele>458</ele>
        <time>2023-04-04T09:51:04.000Z</time>
      </trkpt>
      <trkpt lat="46.19694" lon="7.02073">
        <ele>458.20001220703</ele>
        <time>2023-04-04T09:51:06.000Z</time>
      </trkpt>
      <trkpt lat="46.19689" lon="7.02077">
        <ele>458.39999389648</ele>
        <time>2023-04-04T09:51:08.000Z</time>
      </trkpt>
      <trkpt lat="46.19685" lon="7.02081">
        <ele>458.60000610352</ele>
        <time>2023-04-04T09:51:10.000Z</time>
      </trkpt>
      <trkpt lat="46.19683" lon="7.02083">
        <ele>458.60000610352</ele>
        <time>2023-04-04T09:51:11.000Z</time>
      </trkpt>
      <trkpt lat="46.19681" lon="7.02085">
        <ele>458.79998779297</ele>
        <time>2023-04-04T09:51:12.000Z</time>
      </trkpt>
      <trkpt lat="46.19679" lon="7.02086">
        <ele>458.79998779297</ele>
        <time>2023-04-04T09:51:13.000Z</time>
      </trkpt>
      <trkpt lat="46.19677" lon="7.02088">
        <ele>459</ele>
        <time>2023-04-04T09:51:14.000Z</time>
      </trkpt>
      <trkpt lat="46.19675" lon="7.0209">
        <ele>459</ele>
        <time>2023-04-04T09:51:15.000Z</time>
      </trkpt>
      <trkpt lat="46.19672" lon="7.02092">
        <ele>459.20001220703</ele>
        <time>2023-04-04T09:51:16.000Z</time>
      </trkpt>
      <trkpt lat="46.1967" lon="7.02094">
        <ele>459.20001220703</ele>
        <time>2023-04-04T09:51:17.000Z</time>
      </trkpt>
      <trkpt lat="46.19668" lon="7.02095">
        <ele>459.20001220703</ele>
        <time>2023-04-04T09:51:18.000Z</time>
      </trkpt>
      <trkpt lat="46.19666" lon="7.02097">
        <ele>459.20001220703</ele>
        <time>2023-04-04T09:51:19.000Z</time>
      </trkpt>
      <trkpt lat="46.19665" lon="7.02098">
        <ele>459.39999389648</ele>
        <time>2023-04-04T09:51:20.000Z</time>
      </trkpt>
      <trkpt lat="46.19664" lon="7.02099">
        <ele>459.39999389648</ele>
        <time>2023-04-04T09:51:21.000Z</time>
      </trkpt>
      <trkpt lat="46.19664" lon="7.02099">
        <ele>459.60000610352</ele>
        <time>2023-04-04T09:51:22.000Z</time>
      </trkpt>
      <trkpt lat="46.19664" lon="7.02099">
        <ele>459.60000610352</ele>
        <time>2023-04-04T09:51:23.000Z</time>
      </trkpt>
      <trkpt lat="46.19661" lon="7.02101">
        <ele>461.20001220703</ele>
        <time>2023-04-04T09:54:41.000Z</time>
      </trkpt>
      <trkpt lat="46.1966" lon="7.02103">
        <ele>461.20001220703</ele>
        <time>2023-04-04T09:54:42.000Z</time>
      </trkpt>
      <trkpt lat="46.19657" lon="7.02105">
        <ele>461.20001220703</ele>
        <time>2023-04-04T09:54:44.000Z</time>
      </trkpt>
      <trkpt lat="46.19656" lon="7.02107">
        <ele>461.20001220703</ele>
        <time>2023-04-04T09:54:45.000Z</time>
      </trkpt>
      <trkpt lat="46.19646" lon="7.02115">
        <ele>461.39999389648</ele>
        <time>2023-04-04T09:54:51.000Z</time>
      </trkpt>
      <trkpt lat="46.19632" lon="7.0213">
        <ele>461.39999389648</ele>
        <time>2023-04-04T09:55:00.000Z</time>
      </trkpt>
      <trkpt lat="46.19625" lon="7.02134">
        <ele>461.39999389648</ele>
        <time>2023-04-04T09:55:04.000Z</time>
      </trkpt>
      <trkpt lat="46.19624" lon="7.02136">
        <ele>461.60000610352</ele>
        <time>2023-04-04T09:55:05.000Z</time>
      </trkpt>
      <trkpt lat="46.19614" lon="7.02145">
        <ele>461.79998779297</ele>
        <time>2023-04-04T09:55:10.000Z</time>
      </trkpt>
      <trkpt lat="46.19608" lon="7.02152">
        <ele>461.79998779297</ele>
        <time>2023-04-04T09:55:13.000Z</time>
      </trkpt>
      <trkpt lat="46.19598" lon="7.0216">
        <ele>462.20001220703</ele>
        <time>2023-04-04T09:55:17.000Z</time>
      </trkpt>
      <trkpt lat="46.19578" lon="7.02179">
        <ele>463</ele>
        <time>2023-04-04T09:55:25.000Z</time>
      </trkpt>
      <trkpt lat="46.19571" lon="7.02185">
        <ele>463.20001220703</ele>
        <time>2023-04-04T09:55:28.000Z</time>
      </trkpt>
      <trkpt lat="46.19566" lon="7.0219">
        <ele>463.60000610352</ele>
        <time>2023-04-04T09:55:30.000Z</time>
      </trkpt>
      <trkpt lat="46.19563" lon="7.02193">
        <ele>463.79998779297</ele>
        <time>2023-04-04T09:55:31.000Z</time>
      </trkpt>
      <trkpt lat="46.1956" lon="7.02196">
        <ele>463.79998779297</ele>
        <time>2023-04-04T09:55:32.000Z</time>
      </trkpt>
      <trkpt lat="46.19558" lon="7.02198">
        <ele>464</ele>
        <time>2023-04-04T09:55:33.000Z</time>
      </trkpt>
      <trkpt lat="46.19545" lon="7.02209">
        <ele>464.39999389648</ele>
        <time>2023-04-04T09:55:37.000Z</time>
      </trkpt>
      <trkpt lat="46.19535" lon="7.0222">
        <ele>464.60000610352</ele>
        <time>2023-04-04T09:55:41.000Z</time>
      </trkpt>
      <trkpt lat="46.19513" lon="7.0224">
        <ele>465.39999389648</ele>
        <time>2023-04-04T09:55:49.000Z</time>
      </trkpt>
      <trkpt lat="46.19508" lon="7.02245">
        <ele>465.60000610352</ele>
        <time>2023-04-04T09:55:51.000Z</time>
      </trkpt>
      <trkpt lat="46.19482" lon="7.02268">
        <ele>466.60000610352</ele>
        <time>2023-04-04T09:56:01.000Z</time>
      </trkpt>
      <trkpt lat="46.1948" lon="7.0227">
        <ele>466.60000610352</ele>
        <time>2023-04-04T09:56:02.000Z</time>
      </trkpt>
      <trkpt lat="46.19478" lon="7.02272">
        <ele>466.79998779297</ele>
        <time>2023-04-04T09:56:03.000Z</time>
      </trkpt>
      <trkpt lat="46.19476" lon="7.02275">
        <ele>466.79998779297</ele>
        <time>2023-04-04T09:56:04.000Z</time>
      </trkpt>
      <trkpt lat="46.19473" lon="7.02277">
        <ele>467</ele>
        <time>2023-04-04T09:56:05.000Z</time>
      </trkpt>
      <trkpt lat="46.1947" lon="7.0228">
        <ele>467</ele>
        <time>2023-04-04T09:56:06.000Z</time>
      </trkpt>
      <trkpt lat="46.1946" lon="7.0229">
        <ele>467.39999389648</ele>
        <time>2023-04-04T09:56:10.000Z</time>
      </trkpt>
      <trkpt lat="46.19454" lon="7.02294">
        <ele>467.60000610352</ele>
        <time>2023-04-04T09:56:12.000Z</time>
      </trkpt>
      <trkpt lat="46.1944" lon="7.02308">
        <ele>467.79998779297</ele>
        <time>2023-04-04T09:56:17.000Z</time>
      </trkpt>
      <trkpt lat="46.19414" lon="7.02332">
        <ele>468.60000610352</ele>
        <time>2023-04-04T09:56:26.000Z</time>
      </trkpt>
      <trkpt lat="46.19412" lon="7.02333">
        <ele>468.60000610352</ele>
        <time>2023-04-04T09:56:27.000Z</time>
      </trkpt>
      <trkpt lat="46.19387" lon="7.02351">
        <ele>469.20001220703</ele>
        <time>2023-04-04T09:56:36.000Z</time>
      </trkpt>
      <trkpt lat="46.19376" lon="7.02358">
        <ele>469.60000610352</ele>
        <time>2023-04-04T09:56:40.000Z</time>
      </trkpt>
      <trkpt lat="46.19373" lon="7.0236">
        <ele>469.79998779297</ele>
        <time>2023-04-04T09:56:41.000Z</time>
      </trkpt>
      <trkpt lat="46.19364" lon="7.02365">
        <ele>470</ele>
        <time>2023-04-04T09:56:44.000Z</time>
      </trkpt>
      <trkpt lat="46.19337" lon="7.0238">
        <ele>470.20001220703</ele>
        <time>2023-04-04T09:56:53.000Z</time>
      </trkpt>
      <trkpt lat="46.19316" lon="7.02391">
        <ele>470.60000610352</ele>
        <time>2023-04-04T09:57:00.000Z</time>
      </trkpt>
      <trkpt lat="46.19313" lon="7.02393">
        <ele>470.79998779297</ele>
        <time>2023-04-04T09:57:01.000Z</time>
      </trkpt>
      <trkpt lat="46.1931" lon="7.02394">
        <ele>470.79998779297</ele>
        <time>2023-04-04T09:57:02.000Z</time>
      </trkpt>
      <trkpt lat="46.19307" lon="7.02396">
        <ele>470.79998779297</ele>
        <time>2023-04-04T09:57:03.000Z</time>
      </trkpt>
      <trkpt lat="46.19303" lon="7.02398">
        <ele>470.79998779297</ele>
        <time>2023-04-04T09:57:04.000Z</time>
      </trkpt>
      <trkpt lat="46.19291" lon="7.02405">
        <ele>471</ele>
        <time>2023-04-04T09:57:08.000Z</time>
      </trkpt>
      <trkpt lat="46.19265" lon="7.0242">
        <ele>471.60000610352</ele>
        <time>2023-04-04T09:57:16.000Z</time>
      </trkpt>
      <trkpt lat="46.19262" lon="7.02422">
        <ele>471.79998779297</ele>
        <time>2023-04-04T09:57:17.000Z</time>
      </trkpt>
      <trkpt lat="46.19249" lon="7.02428">
        <ele>472</ele>
        <time>2023-04-04T09:57:21.000Z</time>
      </trkpt>
      <trkpt lat="46.19246" lon="7.0243">
        <ele>472.20001220703</ele>
        <time>2023-04-04T09:57:22.000Z</time>
      </trkpt>
      <trkpt lat="46.19243" lon="7.02431">
        <ele>472.20001220703</ele>
        <time>2023-04-04T09:57:23.000Z</time>
      </trkpt>
      <trkpt lat="46.1924" lon="7.02433">
        <ele>472.20001220703</ele>
        <time>2023-04-04T09:57:24.000Z</time>
      </trkpt>
      <trkpt lat="46.19236" lon="7.02435">
        <ele>472.39999389648</ele>
        <time>2023-04-04T09:57:25.000Z</time>
      </trkpt>
      <trkpt lat="46.1923" lon="7.02439">
        <ele>472.39999389648</ele>
        <time>2023-04-04T09:57:27.000Z</time>
      </trkpt>
      <trkpt lat="46.19226" lon="7.02441">
        <ele>472.39999389648</ele>
        <time>2023-04-04T09:57:28.000Z</time>
      </trkpt>
      <trkpt lat="46.19204" lon="7.02454">
        <ele>472.60000610352</ele>
        <time>2023-04-04T09:57:35.000Z</time>
      </trkpt>
      <trkpt lat="46.192" lon="7.02456">
        <ele>472.79998779297</ele>
        <time>2023-04-04T09:57:36.000Z</time>
      </trkpt>
      <trkpt lat="46.19169" lon="7.0247">
        <ele>473.20001220703</ele>
        <time>2023-04-04T09:57:46.000Z</time>
      </trkpt>
      <trkpt lat="46.19167" lon="7.02472">
        <ele>473.39999389648</ele>
        <time>2023-04-04T09:57:47.000Z</time>
      </trkpt>
      <trkpt lat="46.19138" lon="7.02485">
        <ele>473.79998779297</ele>
        <time>2023-04-04T09:57:56.000Z</time>
      </trkpt>
      <trkpt lat="46.19107" lon="7.02503">
        <ele>474</ele>
        <time>2023-04-04T09:58:06.000Z</time>
      </trkpt>
      <trkpt lat="46.19081" lon="7.02516">
        <ele>474.79998779297</ele>
        <time>2023-04-04T09:58:14.000Z</time>
      </trkpt>
      <trkpt lat="46.19078" lon="7.02518">
        <ele>474.79998779297</ele>
        <time>2023-04-04T09:58:15.000Z</time>
      </trkpt>
      <trkpt lat="46.1905" lon="7.02537">
        <ele>475.39999389648</ele>
        <time>2023-04-04T09:58:24.000Z</time>
      </trkpt>
      <trkpt lat="46.19044" lon="7.02541">
        <ele>475.60000610352</ele>
        <time>2023-04-04T09:58:26.000Z</time>
      </trkpt>
      <trkpt lat="46.19018" lon="7.02559">
        <ele>475.79998779297</ele>
        <time>2023-04-04T09:58:34.000Z</time>
      </trkpt>
      <trkpt lat="46.19006" lon="7.02569">
        <ele>475.79998779297</ele>
        <time>2023-04-04T09:58:38.000Z</time>
      </trkpt>
      <trkpt lat="46.18987" lon="7.02585">
        <ele>475.79998779297</ele>
        <time>2023-04-04T09:58:44.000Z</time>
      </trkpt>
      <trkpt lat="46.18956" lon="7.02614">
        <ele>475.79998779297</ele>
        <time>2023-04-04T09:58:54.000Z</time>
      </trkpt>
      <trkpt lat="46.18926" lon="7.02642">
        <ele>476</ele>
        <time>2023-04-04T09:59:03.000Z</time>
      </trkpt>
      <trkpt lat="46.18889" lon="7.02675">
        <ele>475.79998779297</ele>
        <time>2023-04-04T09:59:14.000Z</time>
      </trkpt>
      <trkpt lat="46.18882" lon="7.0268">
        <ele>475.79998779297</ele>
        <time>2023-04-04T09:59:16.000Z</time>
      </trkpt>
      <trkpt lat="46.18868" lon="7.02692">
        <ele>475.79998779297</ele>
        <time>2023-04-04T09:59:20.000Z</time>
      </trkpt>
      <trkpt lat="46.18857" lon="7.02699">
        <ele>475.79998779297</ele>
        <time>2023-04-04T09:59:23.000Z</time>
      </trkpt>
      <trkpt lat="46.18853" lon="7.02702">
        <ele>475.79998779297</ele>
        <time>2023-04-04T09:59:24.000Z</time>
      </trkpt>
      <trkpt lat="46.18815" lon="7.02725">
        <ele>475.79998779297</ele>
        <time>2023-04-04T09:59:33.000Z</time>
      </trkpt>
      <trkpt lat="46.1877" lon="7.02747">
        <ele>475.39999389648</ele>
        <time>2023-04-04T09:59:43.000Z</time>
      </trkpt>
      <trkpt lat="46.18718" lon="7.02766">
        <ele>475</ele>
        <time>2023-04-04T09:59:54.000Z</time>
      </trkpt>
      <trkpt lat="46.18709" lon="7.02769">
        <ele>475</ele>
        <time>2023-04-04T09:59:56.000Z</time>
      </trkpt>
      <trkpt lat="46.18699" lon="7.02771">
        <ele>475</ele>
        <time>2023-04-04T09:59:58.000Z</time>
      </trkpt>
      <trkpt lat="46.18681" lon="7.02777">
        <ele>475</ele>
        <time>2023-04-04T10:00:02.000Z</time>
      </trkpt>
      <trkpt lat="46.18677" lon="7.02778">
        <ele>475</ele>
        <time>2023-04-04T10:00:03.000Z</time>
      </trkpt>
      <trkpt lat="46.18672" lon="7.0278">
        <ele>475</ele>
        <time>2023-04-04T10:00:04.000Z</time>
      </trkpt>
      <trkpt lat="46.18668" lon="7.02781">
        <ele>475.20001220703</ele>
        <time>2023-04-04T10:00:05.000Z</time>
      </trkpt>
      <trkpt lat="46.18659" lon="7.02783">
        <ele>475.20001220703</ele>
        <time>2023-04-04T10:00:07.000Z</time>
      </trkpt>
      <trkpt lat="46.18654" lon="7.02785">
        <ele>475.20001220703</ele>
        <time>2023-04-04T10:00:08.000Z</time>
      </trkpt>
      <trkpt lat="46.1865" lon="7.02786">
        <ele>475.20001220703</ele>
        <time>2023-04-04T10:00:09.000Z</time>
      </trkpt>
      <trkpt lat="46.18646" lon="7.02787">
        <ele>475.20001220703</ele>
        <time>2023-04-04T10:00:10.000Z</time>
      </trkpt>
      <trkpt lat="46.18641" lon="7.02789">
        <ele>475.20001220703</ele>
        <time>2023-04-04T10:00:11.000Z</time>
      </trkpt>
      <trkpt lat="46.18637" lon="7.0279">
        <ele>475.20001220703</ele>
        <time>2023-04-04T10:00:12.000Z</time>
      </trkpt>
      <trkpt lat="46.18633" lon="7.02791">
        <ele>475.20001220703</ele>
        <time>2023-04-04T10:00:13.000Z</time>
      </trkpt>
      <trkpt lat="46.18628" lon="7.02792">
        <ele>475.20001220703</ele>
        <time>2023-04-04T10:00:14.000Z</time>
      </trkpt>
      <trkpt lat="46.18624" lon="7.02793">
        <ele>475.20001220703</ele>
        <time>2023-04-04T10:00:15.000Z</time>
      </trkpt>
      <trkpt lat="46.1862" lon="7.02795">
        <ele>475.20001220703</ele>
        <time>2023-04-04T10:00:16.000Z</time>
      </trkpt>
      <trkpt lat="46.18615" lon="7.02796">
        <ele>475.20001220703</ele>
        <time>2023-04-04T10:00:17.000Z</time>
      </trkpt>
      <trkpt lat="46.18599" lon="7.02801">
        <ele>475.39999389648</ele>
        <time>2023-04-04T10:00:21.000Z</time>
      </trkpt>
      <trkpt lat="46.18595" lon="7.02802">
        <ele>475.39999389648</ele>
        <time>2023-04-04T10:00:22.000Z</time>
      </trkpt>
      <trkpt lat="46.1859" lon="7.02804">
        <ele>475.39999389648</ele>
        <time>2023-04-04T10:00:23.000Z</time>
      </trkpt>
      <trkpt lat="46.18586" lon="7.02805">
        <ele>475.39999389648</ele>
        <time>2023-04-04T10:00:24.000Z</time>
      </trkpt>
      <trkpt lat="46.18561" lon="7.02815">
        <ele>476</ele>
        <time>2023-04-04T10:00:30.000Z</time>
      </trkpt>
      <trkpt lat="46.18558" lon="7.02816">
        <ele>475.79998779297</ele>
        <time>2023-04-04T10:00:31.000Z</time>
      </trkpt>
      <trkpt lat="46.18554" lon="7.02818">
        <ele>476</ele>
        <time>2023-04-04T10:00:32.000Z</time>
      </trkpt>
      <trkpt lat="46.18551" lon="7.02819">
        <ele>475.79998779297</ele>
        <time>2023-04-04T10:00:33.000Z</time>
      </trkpt>
      <trkpt lat="46.18547" lon="7.0282">
        <ele>475.79998779297</ele>
        <time>2023-04-04T10:00:34.000Z</time>
      </trkpt>
      <trkpt lat="46.18544" lon="7.0282">
        <ele>475.79998779297</ele>
        <time>2023-04-04T10:00:35.000Z</time>
      </trkpt>
      <trkpt lat="46.1854" lon="7.02819">
        <ele>475.79998779297</ele>
        <time>2023-04-04T10:00:36.000Z</time>
      </trkpt>
      <trkpt lat="46.18537" lon="7.02818">
        <ele>476</ele>
        <time>2023-04-04T10:00:37.000Z</time>
      </trkpt>
      <trkpt lat="46.18534" lon="7.02817">
        <ele>476.20001220703</ele>
        <time>2023-04-04T10:00:38.000Z</time>
      </trkpt>
      <trkpt lat="46.18531" lon="7.02816">
        <ele>476.20001220703</ele>
        <time>2023-04-04T10:00:39.000Z</time>
      </trkpt>
      <trkpt lat="46.18527" lon="7.02817">
        <ele>476.20001220703</ele>
        <time>2023-04-04T10:00:40.000Z</time>
      </trkpt>
      <trkpt lat="46.1852" lon="7.02818">
        <ele>476.20001220703</ele>
        <time>2023-04-04T10:00:42.000Z</time>
      </trkpt>
      <trkpt lat="46.18513" lon="7.0282">
        <ele>476.20001220703</ele>
        <time>2023-04-04T10:00:44.000Z</time>
      </trkpt>
      <trkpt lat="46.18477" lon="7.0283">
        <ele>476.20001220703</ele>
        <time>2023-04-04T10:00:53.000Z</time>
      </trkpt>
      <trkpt lat="46.18445" lon="7.02841">
        <ele>476</ele>
        <time>2023-04-04T10:01:01.000Z</time>
      </trkpt>
      <trkpt lat="46.18433" lon="7.02844">
        <ele>476</ele>
        <time>2023-04-04T10:01:04.000Z</time>
      </trkpt>
      <trkpt lat="46.18412" lon="7.02847">
        <ele>476</ele>
        <time>2023-04-04T10:01:09.000Z</time>
      </trkpt>
      <trkpt lat="46.18373" lon="7.02846">
        <ele>476.20001220703</ele>
        <time>2023-04-04T10:01:18.000Z</time>
      </trkpt>
      <trkpt lat="46.18331" lon="7.02842">
        <ele>476.39999389648</ele>
        <time>2023-04-04T10:01:27.000Z</time>
      </trkpt>
      <trkpt lat="46.18309" lon="7.02837">
        <ele>476.39999389648</ele>
        <time>2023-04-04T10:01:32.000Z</time>
      </trkpt>
      <trkpt lat="46.18304" lon="7.02836">
        <ele>476.39999389648</ele>
        <time>2023-04-04T10:01:33.000Z</time>
      </trkpt>
      <trkpt lat="46.18295" lon="7.02832">
        <ele>476.60000610352</ele>
        <time>2023-04-04T10:01:35.000Z</time>
      </trkpt>
      <trkpt lat="46.18262" lon="7.02808">
        <ele>476.60000610352</ele>
        <time>2023-04-04T10:01:43.000Z</time>
      </trkpt>
      <trkpt lat="46.18245" lon="7.0279">
        <ele>476.79998779297</ele>
        <time>2023-04-04T10:01:48.000Z</time>
      </trkpt>
      <trkpt lat="46.18242" lon="7.02786">
        <ele>476.79998779297</ele>
        <time>2023-04-04T10:01:49.000Z</time>
      </trkpt>
      <trkpt lat="46.1824" lon="7.02782">
        <ele>477</ele>
        <time>2023-04-04T10:01:50.000Z</time>
      </trkpt>
      <trkpt lat="46.18237" lon="7.02777">
        <ele>477</ele>
        <time>2023-04-04T10:01:51.000Z</time>
      </trkpt>
      <trkpt lat="46.18234" lon="7.02773">
        <ele>477</ele>
        <time>2023-04-04T10:01:52.000Z</time>
      </trkpt>
      <trkpt lat="46.18231" lon="7.02768">
        <ele>477</ele>
        <time>2023-04-04T10:01:53.000Z</time>
      </trkpt>
      <trkpt lat="46.18228" lon="7.02765">
        <ele>477</ele>
        <time>2023-04-04T10:01:54.000Z</time>
      </trkpt>
      <trkpt lat="46.18226" lon="7.02761">
        <ele>477</ele>
        <time>2023-04-04T10:01:55.000Z</time>
      </trkpt>
      <trkpt lat="46.18224" lon="7.02758">
        <ele>477</ele>
        <time>2023-04-04T10:01:56.000Z</time>
      </trkpt>
      <trkpt lat="46.18221" lon="7.02754">
        <ele>477</ele>
        <time>2023-04-04T10:01:57.000Z</time>
      </trkpt>
      <trkpt lat="46.18219" lon="7.02751">
        <ele>477</ele>
        <time>2023-04-04T10:01:58.000Z</time>
      </trkpt>
      <trkpt lat="46.18217" lon="7.02748">
        <ele>477</ele>
        <time>2023-04-04T10:01:59.000Z</time>
      </trkpt>
      <trkpt lat="46.18215" lon="7.02745">
        <ele>476.79998779297</ele>
        <time>2023-04-04T10:02:00.000Z</time>
      </trkpt>
      <trkpt lat="46.18213" lon="7.02742">
        <ele>476.79998779297</ele>
        <time>2023-04-04T10:02:01.000Z</time>
      </trkpt>
      <trkpt lat="46.18207" lon="7.02733">
        <ele>476.79998779297</ele>
        <time>2023-04-04T10:02:04.000Z</time>
      </trkpt>
      <trkpt lat="46.18206" lon="7.0273">
        <ele>476.79998779297</ele>
        <time>2023-04-04T10:02:05.000Z</time>
      </trkpt>
      <trkpt lat="46.18205" lon="7.02727">
        <ele>476.79998779297</ele>
        <time>2023-04-04T10:02:06.000Z</time>
      </trkpt>
      <trkpt lat="46.18204" lon="7.02725">
        <ele>476.79998779297</ele>
        <time>2023-04-04T10:02:07.000Z</time>
      </trkpt>
      <trkpt lat="46.18203" lon="7.02725">
        <ele>476.79998779297</ele>
        <time>2023-04-04T10:02:08.000Z</time>
      </trkpt>
      <trkpt lat="46.18203" lon="7.02725">
        <ele>476.79998779297</ele>
        <time>2023-04-04T10:02:09.000Z</time>
      </trkpt>
      <trkpt lat="46.18203" lon="7.02725">
        <ele>476.79998779297</ele>
        <time>2023-04-04T10:02:10.000Z</time>
      </trkpt>
      <trkpt lat="46.18199" lon="7.02727">
        <ele>477.20001220703</ele>
        <time>2023-04-04T10:02:20.000Z</time>
      </trkpt>
      <trkpt lat="46.18194" lon="7.02731">
        <ele>477.20001220703</ele>
        <time>2023-04-04T10:02:22.000Z</time>
      </trkpt>
      <trkpt lat="46.18192" lon="7.02735">
        <ele>477.39999389648</ele>
        <time>2023-04-04T10:02:23.000Z</time>
      </trkpt>
      <trkpt lat="46.1819" lon="7.02739">
        <ele>477.20001220703</ele>
        <time>2023-04-04T10:02:24.000Z</time>
      </trkpt>
      <trkpt lat="46.18187" lon="7.02742">
        <ele>477.20001220703</ele>
        <time>2023-04-04T10:02:25.000Z</time>
      </trkpt>
      <trkpt lat="46.18182" lon="7.02751">
        <ele>477.20001220703</ele>
        <time>2023-04-04T10:02:27.000Z</time>
      </trkpt>
      <trkpt lat="46.18162" lon="7.02778">
        <ele>476.20001220703</ele>
        <time>2023-04-04T10:02:32.000Z</time>
      </trkpt>
      <trkpt lat="46.18157" lon="7.02783">
        <ele>475.79998779297</ele>
        <time>2023-04-04T10:02:33.000Z</time>
      </trkpt>
      <trkpt lat="46.18145" lon="7.0279">
        <ele>475.20001220703</ele>
        <time>2023-04-04T10:02:35.000Z</time>
      </trkpt>
      <trkpt lat="46.18138" lon="7.02791">
        <ele>475</ele>
        <time>2023-04-04T10:02:36.000Z</time>
      </trkpt>
      <trkpt lat="46.18132" lon="7.02791">
        <ele>474.60000610352</ele>
        <time>2023-04-04T10:02:37.000Z</time>
      </trkpt>
      <trkpt lat="46.18125" lon="7.0279">
        <ele>474.39999389648</ele>
        <time>2023-04-04T10:02:38.000Z</time>
      </trkpt>
      <trkpt lat="46.18117" lon="7.02788">
        <ele>473.79998779297</ele>
        <time>2023-04-04T10:02:39.000Z</time>
      </trkpt>
      <trkpt lat="46.1811" lon="7.02785">
        <ele>473.60000610352</ele>
        <time>2023-04-04T10:02:40.000Z</time>
      </trkpt>
      <trkpt lat="46.18103" lon="7.02783">
        <ele>473.39999389648</ele>
        <time>2023-04-04T10:02:41.000Z</time>
      </trkpt>
      <trkpt lat="46.18081" lon="7.02775">
        <ele>472.20001220703</ele>
        <time>2023-04-04T10:02:44.000Z</time>
      </trkpt>
      <trkpt lat="46.18054" lon="7.02766">
        <ele>471.39999389648</ele>
        <time>2023-04-04T10:02:48.000Z</time>
      </trkpt>
      <trkpt lat="46.18048" lon="7.02763">
        <ele>471</ele>
        <time>2023-04-04T10:02:49.000Z</time>
      </trkpt>
      <trkpt lat="46.18042" lon="7.02761">
        <ele>471</ele>
        <time>2023-04-04T10:02:50.000Z</time>
      </trkpt>
      <trkpt lat="46.18036" lon="7.02759">
        <ele>470.60000610352</ele>
        <time>2023-04-04T10:02:51.000Z</time>
      </trkpt>
      <trkpt lat="46.18031" lon="7.02757">
        <ele>470.20001220703</ele>
        <time>2023-04-04T10:02:52.000Z</time>
      </trkpt>
      <trkpt lat="46.1802" lon="7.02752">
        <ele>469.79998779297</ele>
        <time>2023-04-04T10:02:54.000Z</time>
      </trkpt>
      <trkpt lat="46.18015" lon="7.0275">
        <ele>469.79998779297</ele>
        <time>2023-04-04T10:02:55.000Z</time>
      </trkpt>
      <trkpt lat="46.18009" lon="7.02749">
        <ele>469.60000610352</ele>
        <time>2023-04-04T10:02:56.000Z</time>
      </trkpt>
      <trkpt lat="46.18004" lon="7.02747">
        <ele>469.39999389648</ele>
        <time>2023-04-04T10:02:57.000Z</time>
      </trkpt>
      <trkpt lat="46.17999" lon="7.02745">
        <ele>469.39999389648</ele>
        <time>2023-04-04T10:02:58.000Z</time>
      </trkpt>
      <trkpt lat="46.17994" lon="7.02743">
        <ele>469.20001220703</ele>
        <time>2023-04-04T10:02:59.000Z</time>
      </trkpt>
      <trkpt lat="46.17989" lon="7.02741">
        <ele>469.20001220703</ele>
        <time>2023-04-04T10:03:00.000Z</time>
      </trkpt>
      <trkpt lat="46.17984" lon="7.0274">
        <ele>469.20001220703</ele>
        <time>2023-04-04T10:03:01.000Z</time>
      </trkpt>
      <trkpt lat="46.17979" lon="7.02738">
        <ele>469.20001220703</ele>
        <time>2023-04-04T10:03:02.000Z</time>
      </trkpt>
      <trkpt lat="46.17975" lon="7.02737">
        <ele>469</ele>
        <time>2023-04-04T10:03:03.000Z</time>
      </trkpt>
      <trkpt lat="46.1797" lon="7.02735">
        <ele>469</ele>
        <time>2023-04-04T10:03:04.000Z</time>
      </trkpt>
      <trkpt lat="46.17965" lon="7.02733">
        <ele>469</ele>
        <time>2023-04-04T10:03:05.000Z</time>
      </trkpt>
      <trkpt lat="46.17961" lon="7.02732">
        <ele>469</ele>
        <time>2023-04-04T10:03:06.000Z</time>
      </trkpt>
      <trkpt lat="46.17956" lon="7.02731">
        <ele>469</ele>
        <time>2023-04-04T10:03:07.000Z</time>
      </trkpt>
      <trkpt lat="46.17951" lon="7.02729">
        <ele>469</ele>
        <time>2023-04-04T10:03:08.000Z</time>
      </trkpt>
      <trkpt lat="46.17946" lon="7.02728">
        <ele>469</ele>
        <time>2023-04-04T10:03:09.000Z</time>
      </trkpt>
      <trkpt lat="46.17941" lon="7.02726">
        <ele>469</ele>
        <time>2023-04-04T10:03:10.000Z</time>
      </trkpt>
      <trkpt lat="46.17931" lon="7.02722">
        <ele>469</ele>
        <time>2023-04-04T10:03:12.000Z</time>
      </trkpt>
      <trkpt lat="46.1789" lon="7.02705">
        <ele>469</ele>
        <time>2023-04-04T10:03:21.000Z</time>
      </trkpt>
      <trkpt lat="46.17867" lon="7.02694">
        <ele>468.79998779297</ele>
        <time>2023-04-04T10:03:26.000Z</time>
      </trkpt>
      <trkpt lat="46.17863" lon="7.02691">
        <ele>468.79998779297</ele>
        <time>2023-04-04T10:03:27.000Z</time>
      </trkpt>
      <trkpt lat="46.17859" lon="7.02689">
        <ele>468.79998779297</ele>
        <time>2023-04-04T10:03:28.000Z</time>
      </trkpt>
      <trkpt lat="46.17856" lon="7.02686">
        <ele>468.79998779297</ele>
        <time>2023-04-04T10:03:29.000Z</time>
      </trkpt>
      <trkpt lat="46.17852" lon="7.02684">
        <ele>468.79998779297</ele>
        <time>2023-04-04T10:03:30.000Z</time>
      </trkpt>
      <trkpt lat="46.17848" lon="7.02681">
        <ele>468.79998779297</ele>
        <time>2023-04-04T10:03:31.000Z</time>
      </trkpt>
      <trkpt lat="46.17845" lon="7.02679">
        <ele>468.79998779297</ele>
        <time>2023-04-04T10:03:32.000Z</time>
      </trkpt>
      <trkpt lat="46.17841" lon="7.02677">
        <ele>468.79998779297</ele>
        <time>2023-04-04T10:03:33.000Z</time>
      </trkpt>
      <trkpt lat="46.17838" lon="7.02674">
        <ele>469</ele>
        <time>2023-04-04T10:03:34.000Z</time>
      </trkpt>
      <trkpt lat="46.17834" lon="7.02672">
        <ele>469</ele>
        <time>2023-04-04T10:03:35.000Z</time>
      </trkpt>
      <trkpt lat="46.17832" lon="7.02669">
        <ele>469.39999389648</ele>
        <time>2023-04-04T10:03:36.000Z</time>
      </trkpt>
      <trkpt lat="46.17829" lon="7.02667">
        <ele>469.39999389648</ele>
        <time>2023-04-04T10:03:37.000Z</time>
      </trkpt>
      <trkpt lat="46.17827" lon="7.02666">
        <ele>469.39999389648</ele>
        <time>2023-04-04T10:03:38.000Z</time>
      </trkpt>
      <trkpt lat="46.17825" lon="7.02666">
        <ele>469.60000610352</ele>
        <time>2023-04-04T10:03:39.000Z</time>
      </trkpt>
      <trkpt lat="46.17822" lon="7.02667">
        <ele>469.39999389648</ele>
        <time>2023-04-04T10:03:40.000Z</time>
      </trkpt>
      <trkpt lat="46.1782" lon="7.02669">
        <ele>469.39999389648</ele>
        <time>2023-04-04T10:03:41.000Z</time>
      </trkpt>
      <trkpt lat="46.17819" lon="7.02671">
        <ele>469.79998779297</ele>
        <time>2023-04-04T10:03:42.000Z</time>
      </trkpt>
      <trkpt lat="46.17817" lon="7.02676">
        <ele>469.79998779297</ele>
        <time>2023-04-04T10:03:44.000Z</time>
      </trkpt>
      <trkpt lat="46.17815" lon="7.02679">
        <ele>469.79998779297</ele>
        <time>2023-04-04T10:03:45.000Z</time>
      </trkpt>
      <trkpt lat="46.17815" lon="7.02683">
        <ele>469.79998779297</ele>
        <time>2023-04-04T10:03:46.000Z</time>
      </trkpt>
      <trkpt lat="46.17814" lon="7.02686">
        <ele>470</ele>
        <time>2023-04-04T10:03:47.000Z</time>
      </trkpt>
      <trkpt lat="46.17813" lon="7.02689">
        <ele>470.20001220703</ele>
        <time>2023-04-04T10:03:48.000Z</time>
      </trkpt>
      <trkpt lat="46.17811" lon="7.02692">
        <ele>470.20001220703</ele>
        <time>2023-04-04T10:03:49.000Z</time>
      </trkpt>
      <trkpt lat="46.17808" lon="7.02702">
        <ele>470.39999389648</ele>
        <time>2023-04-04T10:03:52.000Z</time>
      </trkpt>
      <trkpt lat="46.17798" lon="7.02721">
        <ele>471</ele>
        <time>2023-04-04T10:03:58.000Z</time>
      </trkpt>
      <trkpt lat="46.17794" lon="7.02722">
        <ele>471</ele>
        <time>2023-04-04T10:03:59.000Z</time>
      </trkpt>
      <trkpt lat="46.17789" lon="7.02721">
        <ele>471</ele>
        <time>2023-04-04T10:04:00.000Z</time>
      </trkpt>
      <trkpt lat="46.17773" lon="7.02716">
        <ele>471</ele>
        <time>2023-04-04T10:04:03.000Z</time>
      </trkpt>
      <trkpt lat="46.17735" lon="7.02703">
        <ele>469.39999389648</ele>
        <time>2023-04-04T10:04:09.000Z</time>
      </trkpt>
      <trkpt lat="46.17728" lon="7.02701">
        <ele>468.79998779297</ele>
        <time>2023-04-04T10:04:10.000Z</time>
      </trkpt>
      <trkpt lat="46.17714" lon="7.02697">
        <ele>467.79998779297</ele>
        <time>2023-04-04T10:04:12.000Z</time>
      </trkpt>
      <trkpt lat="46.17693" lon="7.0269">
        <ele>466.79998779297</ele>
        <time>2023-04-04T10:04:15.000Z</time>
      </trkpt>
      <trkpt lat="46.17679" lon="7.02686">
        <ele>465.60000610352</ele>
        <time>2023-04-04T10:04:17.000Z</time>
      </trkpt>
      <trkpt lat="46.17672" lon="7.02684">
        <ele>464.79998779297</ele>
        <time>2023-04-04T10:04:18.000Z</time>
      </trkpt>
      <trkpt lat="46.17665" lon="7.02682">
        <ele>463.60000610352</ele>
        <time>2023-04-04T10:04:19.000Z</time>
      </trkpt>
      <trkpt lat="46.17658" lon="7.02681">
        <ele>463.20001220703</ele>
        <time>2023-04-04T10:04:20.000Z</time>
      </trkpt>
      <trkpt lat="46.17651" lon="7.02681">
        <ele>462.60000610352</ele>
        <time>2023-04-04T10:04:21.000Z</time>
      </trkpt>
      <trkpt lat="46.1763" lon="7.0268">
        <ele>461.60000610352</ele>
        <time>2023-04-04T10:04:24.000Z</time>
      </trkpt>
      <trkpt lat="46.17617" lon="7.02679">
        <ele>460.39999389648</ele>
        <time>2023-04-04T10:04:26.000Z</time>
      </trkpt>
      <trkpt lat="46.17611" lon="7.02678">
        <ele>460.20001220703</ele>
        <time>2023-04-04T10:04:27.000Z</time>
      </trkpt>
      <trkpt lat="46.17605" lon="7.02677">
        <ele>459.79998779297</ele>
        <time>2023-04-04T10:04:28.000Z</time>
      </trkpt>
      <trkpt lat="46.17599" lon="7.02677">
        <ele>459.60000610352</ele>
        <time>2023-04-04T10:04:29.000Z</time>
      </trkpt>
      <trkpt lat="46.17593" lon="7.02676">
        <ele>459.60000610352</ele>
        <time>2023-04-04T10:04:30.000Z</time>
      </trkpt>
      <trkpt lat="46.17588" lon="7.02675">
        <ele>459.39999389648</ele>
        <time>2023-04-04T10:04:31.000Z</time>
      </trkpt>
      <trkpt lat="46.17582" lon="7.02674">
        <ele>459.39999389648</ele>
        <time>2023-04-04T10:04:32.000Z</time>
      </trkpt>
      <trkpt lat="46.17566" lon="7.02672">
        <ele>459.20001220703</ele>
        <time>2023-04-04T10:04:35.000Z</time>
      </trkpt>
      <trkpt lat="46.17556" lon="7.0267">
        <ele>459.20001220703</ele>
        <time>2023-04-04T10:04:37.000Z</time>
      </trkpt>
      <trkpt lat="46.17551" lon="7.0267">
        <ele>459.20001220703</ele>
        <time>2023-04-04T10:04:38.000Z</time>
      </trkpt>
      <trkpt lat="46.17546" lon="7.02669">
        <ele>459.20001220703</ele>
        <time>2023-04-04T10:04:39.000Z</time>
      </trkpt>
      <trkpt lat="46.17541" lon="7.02669">
        <ele>459.20001220703</ele>
        <time>2023-04-04T10:04:40.000Z</time>
      </trkpt>
      <trkpt lat="46.17536" lon="7.02668">
        <ele>459.20001220703</ele>
        <time>2023-04-04T10:04:41.000Z</time>
      </trkpt>
      <trkpt lat="46.17531" lon="7.02667">
        <ele>459.20001220703</ele>
        <time>2023-04-04T10:04:42.000Z</time>
      </trkpt>
      <trkpt lat="46.17526" lon="7.02667">
        <ele>459.20001220703</ele>
        <time>2023-04-04T10:04:43.000Z</time>
      </trkpt>
      <trkpt lat="46.17521" lon="7.02668">
        <ele>459.39999389648</ele>
        <time>2023-04-04T10:04:44.000Z</time>
      </trkpt>
      <trkpt lat="46.17516" lon="7.02668">
        <ele>459.39999389648</ele>
        <time>2023-04-04T10:04:45.000Z</time>
      </trkpt>
      <trkpt lat="46.17467" lon="7.02676">
        <ele>459.39999389648</ele>
        <time>2023-04-04T10:04:54.000Z</time>
      </trkpt>
      <trkpt lat="46.17411" lon="7.02689">
        <ele>458.79998779297</ele>
        <time>2023-04-04T10:05:04.000Z</time>
      </trkpt>
      <trkpt lat="46.17405" lon="7.02691">
        <ele>458.79998779297</ele>
        <time>2023-04-04T10:05:05.000Z</time>
      </trkpt>
      <trkpt lat="46.17394" lon="7.02694">
        <ele>458.79998779297</ele>
        <time>2023-04-04T10:05:07.000Z</time>
      </trkpt>
      <trkpt lat="46.17389" lon="7.02696">
        <ele>458.79998779297</ele>
        <time>2023-04-04T10:05:08.000Z</time>
      </trkpt>
      <trkpt lat="46.17384" lon="7.02698">
        <ele>458.79998779297</ele>
        <time>2023-04-04T10:05:09.000Z</time>
      </trkpt>
      <trkpt lat="46.17378" lon="7.027">
        <ele>458.79998779297</ele>
        <time>2023-04-04T10:05:10.000Z</time>
      </trkpt>
      <trkpt lat="46.17367" lon="7.02704">
        <ele>459</ele>
        <time>2023-04-04T10:05:12.000Z</time>
      </trkpt>
      <trkpt lat="46.17362" lon="7.02706">
        <ele>459</ele>
        <time>2023-04-04T10:05:13.000Z</time>
      </trkpt>
      <trkpt lat="46.17314" lon="7.02727">
        <ele>458.79998779297</ele>
        <time>2023-04-04T10:05:22.000Z</time>
      </trkpt>
      <trkpt lat="46.17298" lon="7.02734">
        <ele>458.79998779297</ele>
        <time>2023-04-04T10:05:25.000Z</time>
      </trkpt>
      <trkpt lat="46.17261" lon="7.02752">
        <ele>458.79998779297</ele>
        <time>2023-04-04T10:05:32.000Z</time>
      </trkpt>
      <trkpt lat="46.17229" lon="7.02766">
        <ele>458.79998779297</ele>
        <time>2023-04-04T10:05:38.000Z</time>
      </trkpt>
      <trkpt lat="46.17219" lon="7.02771">
        <ele>458.79998779297</ele>
        <time>2023-04-04T10:05:40.000Z</time>
      </trkpt>
      <trkpt lat="46.17209" lon="7.02776">
        <ele>459</ele>
        <time>2023-04-04T10:05:42.000Z</time>
      </trkpt>
      <trkpt lat="46.17199" lon="7.02781">
        <ele>459</ele>
        <time>2023-04-04T10:05:44.000Z</time>
      </trkpt>
      <trkpt lat="46.17194" lon="7.02783">
        <ele>459</ele>
        <time>2023-04-04T10:05:45.000Z</time>
      </trkpt>
      <trkpt lat="46.17189" lon="7.02785">
        <ele>459</ele>
        <time>2023-04-04T10:05:46.000Z</time>
      </trkpt>
      <trkpt lat="46.17184" lon="7.02788">
        <ele>459</ele>
        <time>2023-04-04T10:05:47.000Z</time>
      </trkpt>
      <trkpt lat="46.17179" lon="7.0279">
        <ele>459</ele>
        <time>2023-04-04T10:05:48.000Z</time>
      </trkpt>
      <trkpt lat="46.17173" lon="7.02793">
        <ele>459</ele>
        <time>2023-04-04T10:05:49.000Z</time>
      </trkpt>
      <trkpt lat="46.17134" lon="7.02811">
        <ele>459</ele>
        <time>2023-04-04T10:05:57.000Z</time>
      </trkpt>
      <trkpt lat="46.17129" lon="7.02814">
        <ele>459</ele>
        <time>2023-04-04T10:05:58.000Z</time>
      </trkpt>
      <trkpt lat="46.17124" lon="7.02816">
        <ele>459</ele>
        <time>2023-04-04T10:05:59.000Z</time>
      </trkpt>
      <trkpt lat="46.17095" lon="7.02829">
        <ele>459</ele>
        <time>2023-04-04T10:06:05.000Z</time>
      </trkpt>
      <trkpt lat="46.1709" lon="7.02831">
        <ele>459</ele>
        <time>2023-04-04T10:06:06.000Z</time>
      </trkpt>
      <trkpt lat="46.1708" lon="7.02836">
        <ele>459.20001220703</ele>
        <time>2023-04-04T10:06:08.000Z</time>
      </trkpt>
      <trkpt lat="46.17075" lon="7.02838">
        <ele>459.20001220703</ele>
        <time>2023-04-04T10:06:09.000Z</time>
      </trkpt>
      <trkpt lat="46.1707" lon="7.0284">
        <ele>459.20001220703</ele>
        <time>2023-04-04T10:06:10.000Z</time>
      </trkpt>
      <trkpt lat="46.17027" lon="7.02861">
        <ele>459.39999389648</ele>
        <time>2023-04-04T10:06:19.000Z</time>
      </trkpt>
      <trkpt lat="46.17023" lon="7.02863">
        <ele>459.39999389648</ele>
        <time>2023-04-04T10:06:20.000Z</time>
      </trkpt>
      <trkpt lat="46.16969" lon="7.02887">
        <ele>459.39999389648</ele>
        <time>2023-04-04T10:06:31.000Z</time>
      </trkpt>
      <trkpt lat="46.16961" lon="7.02889">
        <ele>459.39999389648</ele>
        <time>2023-04-04T10:06:33.000Z</time>
      </trkpt>
      <trkpt lat="46.16957" lon="7.02891">
        <ele>459.39999389648</ele>
        <time>2023-04-04T10:06:34.000Z</time>
      </trkpt>
      <trkpt lat="46.16953" lon="7.02892">
        <ele>459.39999389648</ele>
        <time>2023-04-04T10:06:35.000Z</time>
      </trkpt>
      <trkpt lat="46.16949" lon="7.02893">
        <ele>459.39999389648</ele>
        <time>2023-04-04T10:06:36.000Z</time>
      </trkpt>
      <trkpt lat="46.16946" lon="7.02894">
        <ele>459.39999389648</ele>
        <time>2023-04-04T10:06:37.000Z</time>
      </trkpt>
      <trkpt lat="46.16942" lon="7.02895">
        <ele>459.39999389648</ele>
        <time>2023-04-04T10:06:38.000Z</time>
      </trkpt>
      <trkpt lat="46.16939" lon="7.02896">
        <ele>459.60000610352</ele>
        <time>2023-04-04T10:06:39.000Z</time>
      </trkpt>
      <trkpt lat="46.16933" lon="7.02897">
        <ele>459.79998779297</ele>
        <time>2023-04-04T10:06:41.000Z</time>
      </trkpt>
      <trkpt lat="46.16929" lon="7.02898">
        <ele>459.79998779297</ele>
        <time>2023-04-04T10:06:42.000Z</time>
      </trkpt>
      <trkpt lat="46.16926" lon="7.02899">
        <ele>460</ele>
        <time>2023-04-04T10:06:43.000Z</time>
      </trkpt>
      <trkpt lat="46.16923" lon="7.029">
        <ele>460.20001220703</ele>
        <time>2023-04-04T10:06:44.000Z</time>
      </trkpt>
      <trkpt lat="46.1692" lon="7.029">
        <ele>460.20001220703</ele>
        <time>2023-04-04T10:06:45.000Z</time>
      </trkpt>
      <trkpt lat="46.16917" lon="7.02901">
        <ele>460.39999389648</ele>
        <time>2023-04-04T10:06:46.000Z</time>
      </trkpt>
      <trkpt lat="46.16914" lon="7.02901">
        <ele>460.60000610352</ele>
        <time>2023-04-04T10:06:47.000Z</time>
      </trkpt>
      <trkpt lat="46.16912" lon="7.02902">
        <ele>460.79998779297</ele>
        <time>2023-04-04T10:06:48.000Z</time>
      </trkpt>
      <trkpt lat="46.16909" lon="7.02902">
        <ele>460.79998779297</ele>
        <time>2023-04-04T10:06:49.000Z</time>
      </trkpt>
      <trkpt lat="46.16907" lon="7.02902">
        <ele>460.79998779297</ele>
        <time>2023-04-04T10:06:50.000Z</time>
      </trkpt>
      <trkpt lat="46.16904" lon="7.02902">
        <ele>460.79998779297</ele>
        <time>2023-04-04T10:06:51.000Z</time>
      </trkpt>
      <trkpt lat="46.16903" lon="7.02903">
        <ele>461</ele>
        <time>2023-04-04T10:06:52.000Z</time>
      </trkpt>
      <trkpt lat="46.16901" lon="7.02904">
        <ele>461</ele>
        <time>2023-04-04T10:06:53.000Z</time>
      </trkpt>
      <trkpt lat="46.16901" lon="7.02905">
        <ele>461</ele>
        <time>2023-04-04T10:06:54.000Z</time>
      </trkpt>
      <trkpt lat="46.16901" lon="7.02905">
        <ele>461</ele>
        <time>2023-04-04T10:06:55.000Z</time>
      </trkpt>
      <trkpt lat="46.16897" lon="7.02908">
        <ele>461</ele>
        <time>2023-04-04T10:07:03.000Z</time>
      </trkpt>
      <trkpt lat="46.16884" lon="7.02915">
        <ele>461.20001220703</ele>
        <time>2023-04-04T10:07:08.000Z</time>
      </trkpt>
      <trkpt lat="46.16874" lon="7.02922">
        <ele>461.20001220703</ele>
        <time>2023-04-04T10:07:11.000Z</time>
      </trkpt>
      <trkpt lat="46.16865" lon="7.02926">
        <ele>461</ele>
        <time>2023-04-04T10:07:13.000Z</time>
      </trkpt>
      <trkpt lat="46.16843" lon="7.02938">
        <ele>460.39999389648</ele>
        <time>2023-04-04T10:07:18.000Z</time>
      </trkpt>
      <trkpt lat="46.16839" lon="7.0294">
        <ele>460.20001220703</ele>
        <time>2023-04-04T10:07:19.000Z</time>
      </trkpt>
      <trkpt lat="46.16835" lon="7.02942">
        <ele>460.20001220703</ele>
        <time>2023-04-04T10:07:20.000Z</time>
      </trkpt>
      <trkpt lat="46.16826" lon="7.02945">
        <ele>460</ele>
        <time>2023-04-04T10:07:22.000Z</time>
      </trkpt>
      <trkpt lat="46.16813" lon="7.0295">
        <ele>459.79998779297</ele>
        <time>2023-04-04T10:07:25.000Z</time>
      </trkpt>
      <trkpt lat="46.16809" lon="7.02951">
        <ele>459.60000610352</ele>
        <time>2023-04-04T10:07:26.000Z</time>
      </trkpt>
      <trkpt lat="46.16796" lon="7.02957">
        <ele>459.39999389648</ele>
        <time>2023-04-04T10:07:29.000Z</time>
      </trkpt>
      <trkpt lat="46.16792" lon="7.02959">
        <ele>459.39999389648</ele>
        <time>2023-04-04T10:07:30.000Z</time>
      </trkpt>
      <trkpt lat="46.16788" lon="7.02961">
        <ele>459.39999389648</ele>
        <time>2023-04-04T10:07:31.000Z</time>
      </trkpt>
      <trkpt lat="46.16784" lon="7.02962">
        <ele>459.39999389648</ele>
        <time>2023-04-04T10:07:32.000Z</time>
      </trkpt>
      <trkpt lat="46.1678" lon="7.02964">
        <ele>459.39999389648</ele>
        <time>2023-04-04T10:07:33.000Z</time>
      </trkpt>
      <trkpt lat="46.16777" lon="7.02966">
        <ele>459.39999389648</ele>
        <time>2023-04-04T10:07:34.000Z</time>
      </trkpt>
      <trkpt lat="46.16773" lon="7.02968">
        <ele>459.39999389648</ele>
        <time>2023-04-04T10:07:35.000Z</time>
      </trkpt>
      <trkpt lat="46.16769" lon="7.0297">
        <ele>459.39999389648</ele>
        <time>2023-04-04T10:07:36.000Z</time>
      </trkpt>
      <trkpt lat="46.16766" lon="7.02973">
        <ele>459.39999389648</ele>
        <time>2023-04-04T10:07:37.000Z</time>
      </trkpt>
      <trkpt lat="46.16762" lon="7.02975">
        <ele>459.60000610352</ele>
        <time>2023-04-04T10:07:38.000Z</time>
      </trkpt>
      <trkpt lat="46.16758" lon="7.02977">
        <ele>459.60000610352</ele>
        <time>2023-04-04T10:07:39.000Z</time>
      </trkpt>
      <trkpt lat="46.16754" lon="7.02979">
        <ele>459.79998779297</ele>
        <time>2023-04-04T10:07:40.000Z</time>
      </trkpt>
      <trkpt lat="46.1675" lon="7.0298">
        <ele>459.79998779297</ele>
        <time>2023-04-04T10:07:41.000Z</time>
      </trkpt>
      <trkpt lat="46.16747" lon="7.02982">
        <ele>459.79998779297</ele>
        <time>2023-04-04T10:07:42.000Z</time>
      </trkpt>
      <trkpt lat="46.16743" lon="7.02983">
        <ele>459.79998779297</ele>
        <time>2023-04-04T10:07:43.000Z</time>
      </trkpt>
      <trkpt lat="46.16719" lon="7.02992">
        <ele>459.79998779297</ele>
        <time>2023-04-04T10:07:49.000Z</time>
      </trkpt>
      <trkpt lat="46.16715" lon="7.02994">
        <ele>459.79998779297</ele>
        <time>2023-04-04T10:07:50.000Z</time>
      </trkpt>
      <trkpt lat="46.16708" lon="7.02997">
        <ele>459.79998779297</ele>
        <time>2023-04-04T10:07:52.000Z</time>
      </trkpt>
      <trkpt lat="46.16704" lon="7.02998">
        <ele>459.79998779297</ele>
        <time>2023-04-04T10:07:53.000Z</time>
      </trkpt>
      <trkpt lat="46.16701" lon="7.02999">
        <ele>459.79998779297</ele>
        <time>2023-04-04T10:07:54.000Z</time>
      </trkpt>
      <trkpt lat="46.16698" lon="7.03001">
        <ele>459.79998779297</ele>
        <time>2023-04-04T10:07:55.000Z</time>
      </trkpt>
      <trkpt lat="46.16694" lon="7.03002">
        <ele>459.79998779297</ele>
        <time>2023-04-04T10:07:56.000Z</time>
      </trkpt>
      <trkpt lat="46.16691" lon="7.03003">
        <ele>459.79998779297</ele>
        <time>2023-04-04T10:07:57.000Z</time>
      </trkpt>
      <trkpt lat="46.16688" lon="7.03004">
        <ele>459.79998779297</ele>
        <time>2023-04-04T10:07:58.000Z</time>
      </trkpt>
      <trkpt lat="46.16684" lon="7.03005">
        <ele>460.20001220703</ele>
        <time>2023-04-04T10:07:59.000Z</time>
      </trkpt>
      <trkpt lat="46.16681" lon="7.03007">
        <ele>460.20001220703</ele>
        <time>2023-04-04T10:08:00.000Z</time>
      </trkpt>
      <trkpt lat="46.16678" lon="7.03007">
        <ele>460.39999389648</ele>
        <time>2023-04-04T10:08:01.000Z</time>
      </trkpt>
      <trkpt lat="46.16674" lon="7.03008">
        <ele>460.39999389648</ele>
        <time>2023-04-04T10:08:02.000Z</time>
      </trkpt>
      <trkpt lat="46.16669" lon="7.03009">
        <ele>460.60000610352</ele>
        <time>2023-04-04T10:08:03.000Z</time>
      </trkpt>
      <trkpt lat="46.16651" lon="7.03015">
        <ele>460.79998779297</ele>
        <time>2023-04-04T10:08:07.000Z</time>
      </trkpt>
      <trkpt lat="46.16646" lon="7.03017">
        <ele>460.79998779297</ele>
        <time>2023-04-04T10:08:08.000Z</time>
      </trkpt>
      <trkpt lat="46.16613" lon="7.03029">
        <ele>460.60000610352</ele>
        <time>2023-04-04T10:08:15.000Z</time>
      </trkpt>
      <trkpt lat="46.16604" lon="7.03033">
        <ele>460.79998779297</ele>
        <time>2023-04-04T10:08:17.000Z</time>
      </trkpt>
      <trkpt lat="46.1659" lon="7.03042">
        <ele>460.60000610352</ele>
        <time>2023-04-04T10:08:20.000Z</time>
      </trkpt>
      <trkpt lat="46.16563" lon="7.03057">
        <ele>460.39999389648</ele>
        <time>2023-04-04T10:08:26.000Z</time>
      </trkpt>
      <trkpt lat="46.16559" lon="7.03059">
        <ele>460.39999389648</ele>
        <time>2023-04-04T10:08:27.000Z</time>
      </trkpt>
      <trkpt lat="46.16555" lon="7.03061">
        <ele>460.39999389648</ele>
        <time>2023-04-04T10:08:28.000Z</time>
      </trkpt>
      <trkpt lat="46.16551" lon="7.03063">
        <ele>460.39999389648</ele>
        <time>2023-04-04T10:08:29.000Z</time>
      </trkpt>
      <trkpt lat="46.16547" lon="7.03066">
        <ele>460.39999389648</ele>
        <time>2023-04-04T10:08:30.000Z</time>
      </trkpt>
      <trkpt lat="46.16542" lon="7.03069">
        <ele>460.39999389648</ele>
        <time>2023-04-04T10:08:31.000Z</time>
      </trkpt>
      <trkpt lat="46.16508" lon="7.03089">
        <ele>460.60000610352</ele>
        <time>2023-04-04T10:08:39.000Z</time>
      </trkpt>
      <trkpt lat="46.16499" lon="7.03095">
        <ele>460.39999389648</ele>
        <time>2023-04-04T10:08:41.000Z</time>
      </trkpt>
      <trkpt lat="46.16446" lon="7.03129">
        <ele>460.79998779297</ele>
        <time>2023-04-04T10:08:53.000Z</time>
      </trkpt>
      <trkpt lat="46.16428" lon="7.03138">
        <ele>460.79998779297</ele>
        <time>2023-04-04T10:08:57.000Z</time>
      </trkpt>
      <trkpt lat="46.16424" lon="7.03141">
        <ele>460.60000610352</ele>
        <time>2023-04-04T10:08:58.000Z</time>
      </trkpt>
      <trkpt lat="46.16411" lon="7.03148">
        <ele>460.79998779297</ele>
        <time>2023-04-04T10:09:01.000Z</time>
      </trkpt>
      <trkpt lat="46.16402" lon="7.03151">
        <ele>460.60000610352</ele>
        <time>2023-04-04T10:09:03.000Z</time>
      </trkpt>
      <trkpt lat="46.16394" lon="7.03155">
        <ele>460.60000610352</ele>
        <time>2023-04-04T10:09:05.000Z</time>
      </trkpt>
      <trkpt lat="46.16389" lon="7.03157">
        <ele>460.60000610352</ele>
        <time>2023-04-04T10:09:06.000Z</time>
      </trkpt>
      <trkpt lat="46.16385" lon="7.03159">
        <ele>460.79998779297</ele>
        <time>2023-04-04T10:09:07.000Z</time>
      </trkpt>
      <trkpt lat="46.16381" lon="7.03161">
        <ele>460.79998779297</ele>
        <time>2023-04-04T10:09:08.000Z</time>
      </trkpt>
      <trkpt lat="46.16354" lon="7.03173">
        <ele>461.20001220703</ele>
        <time>2023-04-04T10:09:14.000Z</time>
      </trkpt>
      <trkpt lat="46.16311" lon="7.03188">
        <ele>460.79998779297</ele>
        <time>2023-04-04T10:09:23.000Z</time>
      </trkpt>
      <trkpt lat="46.16291" lon="7.03196">
        <ele>461</ele>
        <time>2023-04-04T10:09:27.000Z</time>
      </trkpt>
      <trkpt lat="46.16273" lon="7.03203">
        <ele>461</ele>
        <time>2023-04-04T10:09:31.000Z</time>
      </trkpt>
      <trkpt lat="46.16263" lon="7.03206">
        <ele>461</ele>
        <time>2023-04-04T10:09:33.000Z</time>
      </trkpt>
      <trkpt lat="46.16224" lon="7.03219">
        <ele>461</ele>
        <time>2023-04-04T10:09:41.000Z</time>
      </trkpt>
      <trkpt lat="46.16169" lon="7.03235">
        <ele>460.60000610352</ele>
        <time>2023-04-04T10:09:52.000Z</time>
      </trkpt>
      <trkpt lat="46.1615" lon="7.03239">
        <ele>460.79998779297</ele>
        <time>2023-04-04T10:09:56.000Z</time>
      </trkpt>
      <trkpt lat="46.16145" lon="7.0324">
        <ele>460.79998779297</ele>
        <time>2023-04-04T10:09:57.000Z</time>
      </trkpt>
      <trkpt lat="46.1614" lon="7.03242">
        <ele>461</ele>
        <time>2023-04-04T10:09:58.000Z</time>
      </trkpt>
      <trkpt lat="46.16136" lon="7.03243">
        <ele>461.20001220703</ele>
        <time>2023-04-04T10:09:59.000Z</time>
      </trkpt>
      <trkpt lat="46.16131" lon="7.03244">
        <ele>461.20001220703</ele>
        <time>2023-04-04T10:10:00.000Z</time>
      </trkpt>
      <trkpt lat="46.16126" lon="7.03244">
        <ele>461.20001220703</ele>
        <time>2023-04-04T10:10:01.000Z</time>
      </trkpt>
      <trkpt lat="46.16121" lon="7.03245">
        <ele>461.20001220703</ele>
        <time>2023-04-04T10:10:02.000Z</time>
      </trkpt>
      <trkpt lat="46.16116" lon="7.03246">
        <ele>461.20001220703</ele>
        <time>2023-04-04T10:10:03.000Z</time>
      </trkpt>
      <trkpt lat="46.16112" lon="7.03247">
        <ele>461.20001220703</ele>
        <time>2023-04-04T10:10:04.000Z</time>
      </trkpt>
      <trkpt lat="46.16106" lon="7.03248">
        <ele>461.20001220703</ele>
        <time>2023-04-04T10:10:05.000Z</time>
      </trkpt>
      <trkpt lat="46.16101" lon="7.03249">
        <ele>461.20001220703</ele>
        <time>2023-04-04T10:10:06.000Z</time>
      </trkpt>
      <trkpt lat="46.16096" lon="7.0325">
        <ele>461.20001220703</ele>
        <time>2023-04-04T10:10:07.000Z</time>
      </trkpt>
      <trkpt lat="46.16092" lon="7.03251">
        <ele>461.39999389648</ele>
        <time>2023-04-04T10:10:08.000Z</time>
      </trkpt>
      <trkpt lat="46.16087" lon="7.03252">
        <ele>461.39999389648</ele>
        <time>2023-04-04T10:10:09.000Z</time>
      </trkpt>
      <trkpt lat="46.16072" lon="7.03254">
        <ele>461.20001220703</ele>
        <time>2023-04-04T10:10:12.000Z</time>
      </trkpt>
      <trkpt lat="46.16058" lon="7.03255">
        <ele>461.20001220703</ele>
        <time>2023-04-04T10:10:15.000Z</time>
      </trkpt>
      <trkpt lat="46.16034" lon="7.03255">
        <ele>461.20001220703</ele>
        <time>2023-04-04T10:10:20.000Z</time>
      </trkpt>
      <trkpt lat="46.16029" lon="7.03254">
        <ele>461.20001220703</ele>
        <time>2023-04-04T10:10:21.000Z</time>
      </trkpt>
      <trkpt lat="46.16024" lon="7.03253">
        <ele>461.20001220703</ele>
        <time>2023-04-04T10:10:22.000Z</time>
      </trkpt>
      <trkpt lat="46.15998" lon="7.0325">
        <ele>461.20001220703</ele>
        <time>2023-04-04T10:10:27.000Z</time>
      </trkpt>
      <trkpt lat="46.15993" lon="7.03249">
        <ele>461.20001220703</ele>
        <time>2023-04-04T10:10:28.000Z</time>
      </trkpt>
      <trkpt lat="46.15968" lon="7.03247">
        <ele>461.20001220703</ele>
        <time>2023-04-04T10:10:33.000Z</time>
      </trkpt>
      <trkpt lat="46.15954" lon="7.03243">
        <ele>461.20001220703</ele>
        <time>2023-04-04T10:10:36.000Z</time>
      </trkpt>
      <trkpt lat="46.15921" lon="7.03234">
        <ele>461.39999389648</ele>
        <time>2023-04-04T10:10:43.000Z</time>
      </trkpt>
      <trkpt lat="46.15872" lon="7.03223">
        <ele>461.39999389648</ele>
        <time>2023-04-04T10:10:53.000Z</time>
      </trkpt>
      <trkpt lat="46.15843" lon="7.03216">
        <ele>461.39999389648</ele>
        <time>2023-04-04T10:10:59.000Z</time>
      </trkpt>
      <trkpt lat="46.15839" lon="7.03215">
        <ele>461.39999389648</ele>
        <time>2023-04-04T10:11:00.000Z</time>
      </trkpt>
      <trkpt lat="46.15834" lon="7.03214">
        <ele>461.39999389648</ele>
        <time>2023-04-04T10:11:01.000Z</time>
      </trkpt>
      <trkpt lat="46.15826" lon="7.03212">
        <ele>461.60000610352</ele>
        <time>2023-04-04T10:11:03.000Z</time>
      </trkpt>
      <trkpt lat="46.15822" lon="7.03211">
        <ele>461.60000610352</ele>
        <time>2023-04-04T10:11:04.000Z</time>
      </trkpt>
      <trkpt lat="46.15818" lon="7.0321">
        <ele>461.60000610352</ele>
        <time>2023-04-04T10:11:05.000Z</time>
      </trkpt>
      <trkpt lat="46.15815" lon="7.03208">
        <ele>461.60000610352</ele>
        <time>2023-04-04T10:11:06.000Z</time>
      </trkpt>
      <trkpt lat="46.15811" lon="7.03206">
        <ele>461.79998779297</ele>
        <time>2023-04-04T10:11:07.000Z</time>
      </trkpt>
      <trkpt lat="46.15808" lon="7.03205">
        <ele>461.60000610352</ele>
        <time>2023-04-04T10:11:08.000Z</time>
      </trkpt>
      <trkpt lat="46.15804" lon="7.03204">
        <ele>461.60000610352</ele>
        <time>2023-04-04T10:11:09.000Z</time>
      </trkpt>
      <trkpt lat="46.15801" lon="7.03205">
        <ele>461.60000610352</ele>
        <time>2023-04-04T10:11:10.000Z</time>
      </trkpt>
      <trkpt lat="46.15799" lon="7.03207">
        <ele>461.60000610352</ele>
        <time>2023-04-04T10:11:11.000Z</time>
      </trkpt>
      <trkpt lat="46.15798" lon="7.03209">
        <ele>461.79998779297</ele>
        <time>2023-04-04T10:11:12.000Z</time>
      </trkpt>
      <trkpt lat="46.15797" lon="7.03213">
        <ele>461.79998779297</ele>
        <time>2023-04-04T10:11:13.000Z</time>
      </trkpt>
      <trkpt lat="46.15796" lon="7.03217">
        <ele>461.79998779297</ele>
        <time>2023-04-04T10:11:14.000Z</time>
      </trkpt>
      <trkpt lat="46.15796" lon="7.0322">
        <ele>461.79998779297</ele>
        <time>2023-04-04T10:11:15.000Z</time>
      </trkpt>
      <trkpt lat="46.15793" lon="7.03234">
        <ele>462</ele>
        <time>2023-04-04T10:11:19.000Z</time>
      </trkpt>
      <trkpt lat="46.15791" lon="7.03235">
        <ele>462</ele>
        <time>2023-04-04T10:11:20.000Z</time>
      </trkpt>
      <trkpt lat="46.15788" lon="7.03235">
        <ele>462</ele>
        <time>2023-04-04T10:11:21.000Z</time>
      </trkpt>
      <trkpt lat="46.15778" lon="7.03232">
        <ele>462.20001220703</ele>
        <time>2023-04-04T10:11:24.000Z</time>
      </trkpt>
      <trkpt lat="46.15775" lon="7.03232">
        <ele>462.20001220703</ele>
        <time>2023-04-04T10:11:25.000Z</time>
      </trkpt>
      <trkpt lat="46.15771" lon="7.03231">
        <ele>462.20001220703</ele>
        <time>2023-04-04T10:11:26.000Z</time>
      </trkpt>
      <trkpt lat="46.15763" lon="7.03229">
        <ele>462.20001220703</ele>
        <time>2023-04-04T10:11:28.000Z</time>
      </trkpt>
      <trkpt lat="46.15759" lon="7.03229">
        <ele>462.20001220703</ele>
        <time>2023-04-04T10:11:29.000Z</time>
      </trkpt>
      <trkpt lat="46.15746" lon="7.03227">
        <ele>462.20001220703</ele>
        <time>2023-04-04T10:11:32.000Z</time>
      </trkpt>
      <trkpt lat="46.15711" lon="7.03225">
        <ele>462.20001220703</ele>
        <time>2023-04-04T10:11:40.000Z</time>
      </trkpt>
      <trkpt lat="46.15698" lon="7.03224">
        <ele>462.39999389648</ele>
        <time>2023-04-04T10:11:43.000Z</time>
      </trkpt>
      <trkpt lat="46.1568" lon="7.03223">
        <ele>462.20001220703</ele>
        <time>2023-04-04T10:11:47.000Z</time>
      </trkpt>
      <trkpt lat="46.15644" lon="7.03218">
        <ele>462.39999389648</ele>
        <time>2023-04-04T10:11:55.000Z</time>
      </trkpt>
      <trkpt lat="46.15639" lon="7.03218">
        <ele>462.39999389648</ele>
        <time>2023-04-04T10:11:56.000Z</time>
      </trkpt>
      <trkpt lat="46.15621" lon="7.03215">
        <ele>462.39999389648</ele>
        <time>2023-04-04T10:12:00.000Z</time>
      </trkpt>
      <trkpt lat="46.15612" lon="7.03214">
        <ele>462.60000610352</ele>
        <time>2023-04-04T10:12:02.000Z</time>
      </trkpt>
      <trkpt lat="46.15574" lon="7.03212">
        <ele>462.79998779297</ele>
        <time>2023-04-04T10:12:10.000Z</time>
      </trkpt>
      <trkpt lat="46.1556" lon="7.03211">
        <ele>463</ele>
        <time>2023-04-04T10:12:13.000Z</time>
      </trkpt>
      <trkpt lat="46.15541" lon="7.03209">
        <ele>463.20001220703</ele>
        <time>2023-04-04T10:12:17.000Z</time>
      </trkpt>
      <trkpt lat="46.15497" lon="7.03207">
        <ele>463.39999389648</ele>
        <time>2023-04-04T10:12:26.000Z</time>
      </trkpt>
      <trkpt lat="46.15455" lon="7.03204">
        <ele>463.20001220703</ele>
        <time>2023-04-04T10:12:34.000Z</time>
      </trkpt>
      <trkpt lat="46.15409" lon="7.03201">
        <ele>463.20001220703</ele>
        <time>2023-04-04T10:12:43.000Z</time>
      </trkpt>
      <trkpt lat="46.15368" lon="7.03199">
        <ele>463.20001220703</ele>
        <time>2023-04-04T10:12:51.000Z</time>
      </trkpt>
      <trkpt lat="46.15352" lon="7.03198">
        <ele>463.20001220703</ele>
        <time>2023-04-04T10:12:54.000Z</time>
      </trkpt>
      <trkpt lat="46.15322" lon="7.032">
        <ele>463.20001220703</ele>
        <time>2023-04-04T10:13:00.000Z</time>
      </trkpt>
      <trkpt lat="46.15302" lon="7.03203">
        <ele>463.20001220703</ele>
        <time>2023-04-04T10:13:04.000Z</time>
      </trkpt>
      <trkpt lat="46.15297" lon="7.03203">
        <ele>463.20001220703</ele>
        <time>2023-04-04T10:13:05.000Z</time>
      </trkpt>
      <trkpt lat="46.15271" lon="7.03206">
        <ele>463.20001220703</ele>
        <time>2023-04-04T10:13:10.000Z</time>
      </trkpt>
      <trkpt lat="46.15227" lon="7.03214">
        <ele>463.60000610352</ele>
        <time>2023-04-04T10:13:19.000Z</time>
      </trkpt>
      <trkpt lat="46.15222" lon="7.03215">
        <ele>463.60000610352</ele>
        <time>2023-04-04T10:13:20.000Z</time>
      </trkpt>
      <trkpt lat="46.15217" lon="7.03216">
        <ele>463.60000610352</ele>
        <time>2023-04-04T10:13:21.000Z</time>
      </trkpt>
      <trkpt lat="46.15208" lon="7.03219">
        <ele>463.39999389648</ele>
        <time>2023-04-04T10:13:23.000Z</time>
      </trkpt>
      <trkpt lat="46.15203" lon="7.0322">
        <ele>463.39999389648</ele>
        <time>2023-04-04T10:13:24.000Z</time>
      </trkpt>
      <trkpt lat="46.15198" lon="7.0322">
        <ele>463.60000610352</ele>
        <time>2023-04-04T10:13:25.000Z</time>
      </trkpt>
      <trkpt lat="46.15194" lon="7.03221">
        <ele>463.60000610352</ele>
        <time>2023-04-04T10:13:26.000Z</time>
      </trkpt>
      <trkpt lat="46.15179" lon="7.03223">
        <ele>463.39999389648</ele>
        <time>2023-04-04T10:13:29.000Z</time>
      </trkpt>
      <trkpt lat="46.1517" lon="7.03225">
        <ele>463.39999389648</ele>
        <time>2023-04-04T10:13:31.000Z</time>
      </trkpt>
      <trkpt lat="46.15165" lon="7.03226">
        <ele>463.60000610352</ele>
        <time>2023-04-04T10:13:32.000Z</time>
      </trkpt>
      <trkpt lat="46.15161" lon="7.03227">
        <ele>463.60000610352</ele>
        <time>2023-04-04T10:13:33.000Z</time>
      </trkpt>
      <trkpt lat="46.15142" lon="7.03232">
        <ele>463.60000610352</ele>
        <time>2023-04-04T10:13:37.000Z</time>
      </trkpt>
      <trkpt lat="46.15088" lon="7.03246">
        <ele>463.60000610352</ele>
        <time>2023-04-04T10:13:48.000Z</time>
      </trkpt>
      <trkpt lat="46.15084" lon="7.03248">
        <ele>463.60000610352</ele>
        <time>2023-04-04T10:13:49.000Z</time>
      </trkpt>
      <trkpt lat="46.1504" lon="7.03261">
        <ele>464</ele>
        <time>2023-04-04T10:13:58.000Z</time>
      </trkpt>
      <trkpt lat="46.15031" lon="7.03264">
        <ele>464</ele>
        <time>2023-04-04T10:14:00.000Z</time>
      </trkpt>
      <trkpt lat="46.15022" lon="7.03267">
        <ele>464</ele>
        <time>2023-04-04T10:14:02.000Z</time>
      </trkpt>
      <trkpt lat="46.15013" lon="7.0327">
        <ele>464</ele>
        <time>2023-04-04T10:14:04.000Z</time>
      </trkpt>
      <trkpt lat="46.14994" lon="7.03276">
        <ele>464</ele>
        <time>2023-04-04T10:14:08.000Z</time>
      </trkpt>
      <trkpt lat="46.1497" lon="7.03286">
        <ele>464</ele>
        <time>2023-04-04T10:14:13.000Z</time>
      </trkpt>
      <trkpt lat="46.14934" lon="7.03301">
        <ele>464.20001220703</ele>
        <time>2023-04-04T10:14:21.000Z</time>
      </trkpt>
      <trkpt lat="46.14921" lon="7.03308">
        <ele>464.20001220703</ele>
        <time>2023-04-04T10:14:24.000Z</time>
      </trkpt>
      <trkpt lat="46.14916" lon="7.0331">
        <ele>464.20001220703</ele>
        <time>2023-04-04T10:14:25.000Z</time>
      </trkpt>
      <trkpt lat="46.14912" lon="7.03313">
        <ele>464.20001220703</ele>
        <time>2023-04-04T10:14:26.000Z</time>
      </trkpt>
      <trkpt lat="46.14908" lon="7.03316">
        <ele>464.39999389648</ele>
        <time>2023-04-04T10:14:27.000Z</time>
      </trkpt>
      <trkpt lat="46.14898" lon="7.03322">
        <ele>464.39999389648</ele>
        <time>2023-04-04T10:14:29.000Z</time>
      </trkpt>
      <trkpt lat="46.14878" lon="7.0334">
        <ele>464.60000610352</ele>
        <time>2023-04-04T10:14:34.000Z</time>
      </trkpt>
      <trkpt lat="46.14868" lon="7.0335">
        <ele>464.79998779297</ele>
        <time>2023-04-04T10:14:37.000Z</time>
      </trkpt>
      <trkpt lat="46.14865" lon="7.03353">
        <ele>464.79998779297</ele>
        <time>2023-04-04T10:14:38.000Z</time>
      </trkpt>
      <trkpt lat="46.14862" lon="7.03357">
        <ele>464.79998779297</ele>
        <time>2023-04-04T10:14:39.000Z</time>
      </trkpt>
      <trkpt lat="46.1486" lon="7.0336">
        <ele>464.79998779297</ele>
        <time>2023-04-04T10:14:40.000Z</time>
      </trkpt>
      <trkpt lat="46.14857" lon="7.03363">
        <ele>464.79998779297</ele>
        <time>2023-04-04T10:14:41.000Z</time>
      </trkpt>
      <trkpt lat="46.14855" lon="7.03366">
        <ele>464.79998779297</ele>
        <time>2023-04-04T10:14:42.000Z</time>
      </trkpt>
      <trkpt lat="46.14841" lon="7.03378">
        <ele>465</ele>
        <time>2023-04-04T10:14:46.000Z</time>
      </trkpt>
      <trkpt lat="46.14838" lon="7.0338">
        <ele>465</ele>
        <time>2023-04-04T10:14:47.000Z</time>
      </trkpt>
      <trkpt lat="46.14835" lon="7.03383">
        <ele>465</ele>
        <time>2023-04-04T10:14:48.000Z</time>
      </trkpt>
      <trkpt lat="46.14832" lon="7.03385">
        <ele>465</ele>
        <time>2023-04-04T10:14:49.000Z</time>
      </trkpt>
      <trkpt lat="46.14821" lon="7.03395">
        <ele>465</ele>
        <time>2023-04-04T10:14:52.000Z</time>
      </trkpt>
      <trkpt lat="46.14789" lon="7.03427">
        <ele>465.20001220703</ele>
        <time>2023-04-04T10:15:02.000Z</time>
      </trkpt>
      <trkpt lat="46.14786" lon="7.0343">
        <ele>465.20001220703</ele>
        <time>2023-04-04T10:15:03.000Z</time>
      </trkpt>
      <trkpt lat="46.14783" lon="7.03433">
        <ele>465.20001220703</ele>
        <time>2023-04-04T10:15:04.000Z</time>
      </trkpt>
      <trkpt lat="46.14777" lon="7.0344">
        <ele>465.20001220703</ele>
        <time>2023-04-04T10:15:06.000Z</time>
      </trkpt>
      <trkpt lat="46.14774" lon="7.03444">
        <ele>465.20001220703</ele>
        <time>2023-04-04T10:15:07.000Z</time>
      </trkpt>
      <trkpt lat="46.14755" lon="7.03465">
        <ele>465.20001220703</ele>
        <time>2023-04-04T10:15:13.000Z</time>
      </trkpt>
      <trkpt lat="46.14731" lon="7.03492">
        <ele>465.39999389648</ele>
        <time>2023-04-04T10:15:21.000Z</time>
      </trkpt>
      <trkpt lat="46.14729" lon="7.03495">
        <ele>465.39999389648</ele>
        <time>2023-04-04T10:15:22.000Z</time>
      </trkpt>
      <trkpt lat="46.14727" lon="7.03498">
        <ele>465.60000610352</ele>
        <time>2023-04-04T10:15:23.000Z</time>
      </trkpt>
      <trkpt lat="46.14725" lon="7.03501">
        <ele>465.60000610352</ele>
        <time>2023-04-04T10:15:24.000Z</time>
      </trkpt>
      <trkpt lat="46.14723" lon="7.03503">
        <ele>465.60000610352</ele>
        <time>2023-04-04T10:15:25.000Z</time>
      </trkpt>
      <trkpt lat="46.14721" lon="7.03506">
        <ele>465.60000610352</ele>
        <time>2023-04-04T10:15:26.000Z</time>
      </trkpt>
      <trkpt lat="46.14719" lon="7.03509">
        <ele>465.60000610352</ele>
        <time>2023-04-04T10:15:27.000Z</time>
      </trkpt>
      <trkpt lat="46.14716" lon="7.03512">
        <ele>465.60000610352</ele>
        <time>2023-04-04T10:15:28.000Z</time>
      </trkpt>
      <trkpt lat="46.14706" lon="7.03525">
        <ele>465.79998779297</ele>
        <time>2023-04-04T10:15:32.000Z</time>
      </trkpt>
      <trkpt lat="46.14689" lon="7.03547">
        <ele>466.20001220703</ele>
        <time>2023-04-04T10:15:38.000Z</time>
      </trkpt>
      <trkpt lat="46.14661" lon="7.03589">
        <ele>466.39999389648</ele>
        <time>2023-04-04T10:15:48.000Z</time>
      </trkpt>
      <trkpt lat="46.14648" lon="7.03611">
        <ele>466.39999389648</ele>
        <time>2023-04-04T10:15:53.000Z</time>
      </trkpt>
      <trkpt lat="46.14646" lon="7.03615">
        <ele>466.20001220703</ele>
        <time>2023-04-04T10:15:54.000Z</time>
      </trkpt>
      <trkpt lat="46.14643" lon="7.0362">
        <ele>466.20001220703</ele>
        <time>2023-04-04T10:15:55.000Z</time>
      </trkpt>
      <trkpt lat="46.14641" lon="7.03624">
        <ele>466.20001220703</ele>
        <time>2023-04-04T10:15:56.000Z</time>
      </trkpt>
      <trkpt lat="46.14639" lon="7.03628">
        <ele>466.20001220703</ele>
        <time>2023-04-04T10:15:57.000Z</time>
      </trkpt>
      <trkpt lat="46.14635" lon="7.03637">
        <ele>466.20001220703</ele>
        <time>2023-04-04T10:15:59.000Z</time>
      </trkpt>
      <trkpt lat="46.14633" lon="7.03642">
        <ele>466.20001220703</ele>
        <time>2023-04-04T10:16:00.000Z</time>
      </trkpt>
      <trkpt lat="46.1463" lon="7.03646">
        <ele>466.20001220703</ele>
        <time>2023-04-04T10:16:01.000Z</time>
      </trkpt>
      <trkpt lat="46.14628" lon="7.0365">
        <ele>466.20001220703</ele>
        <time>2023-04-04T10:16:02.000Z</time>
      </trkpt>
      <trkpt lat="46.14625" lon="7.03655">
        <ele>466.20001220703</ele>
        <time>2023-04-04T10:16:03.000Z</time>
      </trkpt>
      <trkpt lat="46.14623" lon="7.0366">
        <ele>466.20001220703</ele>
        <time>2023-04-04T10:16:04.000Z</time>
      </trkpt>
      <trkpt lat="46.14621" lon="7.03664">
        <ele>466.20001220703</ele>
        <time>2023-04-04T10:16:05.000Z</time>
      </trkpt>
      <trkpt lat="46.14616" lon="7.03673">
        <ele>466.20001220703</ele>
        <time>2023-04-04T10:16:07.000Z</time>
      </trkpt>
      <trkpt lat="46.14599" lon="7.03708">
        <ele>466.20001220703</ele>
        <time>2023-04-04T10:16:14.000Z</time>
      </trkpt>
      <trkpt lat="46.14578" lon="7.03754">
        <ele>466.20001220703</ele>
        <time>2023-04-04T10:16:23.000Z</time>
      </trkpt>
      <trkpt lat="46.14576" lon="7.03759">
        <ele>466.20001220703</ele>
        <time>2023-04-04T10:16:24.000Z</time>
      </trkpt>
      <trkpt lat="46.14573" lon="7.03764">
        <ele>466.20001220703</ele>
        <time>2023-04-04T10:16:25.000Z</time>
      </trkpt>
      <trkpt lat="46.14569" lon="7.03775">
        <ele>466.20001220703</ele>
        <time>2023-04-04T10:16:27.000Z</time>
      </trkpt>
      <trkpt lat="46.1455" lon="7.03816">
        <ele>466.39999389648</ele>
        <time>2023-04-04T10:16:35.000Z</time>
      </trkpt>
      <trkpt lat="46.14548" lon="7.03821">
        <ele>466.39999389648</ele>
        <time>2023-04-04T10:16:36.000Z</time>
      </trkpt>
      <trkpt lat="46.14544" lon="7.0383">
        <ele>466.60000610352</ele>
        <time>2023-04-04T10:16:38.000Z</time>
      </trkpt>
      <trkpt lat="46.14542" lon="7.03834">
        <ele>466.60000610352</ele>
        <time>2023-04-04T10:16:39.000Z</time>
      </trkpt>
      <trkpt lat="46.1454" lon="7.03839">
        <ele>466.60000610352</ele>
        <time>2023-04-04T10:16:40.000Z</time>
      </trkpt>
      <trkpt lat="46.14537" lon="7.03844">
        <ele>466.60000610352</ele>
        <time>2023-04-04T10:16:41.000Z</time>
      </trkpt>
      <trkpt lat="46.14535" lon="7.03849">
        <ele>466.60000610352</ele>
        <time>2023-04-04T10:16:42.000Z</time>
      </trkpt>
      <trkpt lat="46.14532" lon="7.03855">
        <ele>466.79998779297</ele>
        <time>2023-04-04T10:16:43.000Z</time>
      </trkpt>
      <trkpt lat="46.14511" lon="7.03898">
        <ele>466.79998779297</ele>
        <time>2023-04-04T10:16:51.000Z</time>
      </trkpt>
      <trkpt lat="46.1449" lon="7.03944">
        <ele>466.79998779297</ele>
        <time>2023-04-04T10:17:00.000Z</time>
      </trkpt>
      <trkpt lat="46.14471" lon="7.03984">
        <ele>466.79998779297</ele>
        <time>2023-04-04T10:17:08.000Z</time>
      </trkpt>
      <trkpt lat="46.14469" lon="7.03989">
        <ele>466.79998779297</ele>
        <time>2023-04-04T10:17:09.000Z</time>
      </trkpt>
      <trkpt lat="46.14467" lon="7.03994">
        <ele>466.79998779297</ele>
        <time>2023-04-04T10:17:10.000Z</time>
      </trkpt>
      <trkpt lat="46.14465" lon="7.03998">
        <ele>466.79998779297</ele>
        <time>2023-04-04T10:17:11.000Z</time>
      </trkpt>
      <trkpt lat="46.14457" lon="7.04017">
        <ele>467</ele>
        <time>2023-04-04T10:17:15.000Z</time>
      </trkpt>
      <trkpt lat="46.14454" lon="7.04022">
        <ele>467</ele>
        <time>2023-04-04T10:17:16.000Z</time>
      </trkpt>
      <trkpt lat="46.14452" lon="7.04026">
        <ele>467</ele>
        <time>2023-04-04T10:17:17.000Z</time>
      </trkpt>
      <trkpt lat="46.1445" lon="7.04031">
        <ele>467</ele>
        <time>2023-04-04T10:17:18.000Z</time>
      </trkpt>
      <trkpt lat="46.14447" lon="7.04037">
        <ele>467</ele>
        <time>2023-04-04T10:17:19.000Z</time>
      </trkpt>
      <trkpt lat="46.14431" lon="7.04066">
        <ele>467</ele>
        <time>2023-04-04T10:17:25.000Z</time>
      </trkpt>
      <trkpt lat="46.14414" lon="7.04104">
        <ele>467.39999389648</ele>
        <time>2023-04-04T10:17:33.000Z</time>
      </trkpt>
      <trkpt lat="46.14412" lon="7.04108">
        <ele>467.60000610352</ele>
        <time>2023-04-04T10:17:34.000Z</time>
      </trkpt>
      <trkpt lat="46.14408" lon="7.04113">
        <ele>467.60000610352</ele>
        <time>2023-04-04T10:17:35.000Z</time>
      </trkpt>
      <trkpt lat="46.14405" lon="7.04118">
        <ele>467.60000610352</ele>
        <time>2023-04-04T10:17:36.000Z</time>
      </trkpt>
      <trkpt lat="46.14396" lon="7.04137">
        <ele>467.60000610352</ele>
        <time>2023-04-04T10:17:40.000Z</time>
      </trkpt>
      <trkpt lat="46.14377" lon="7.04179">
        <ele>467.79998779297</ele>
        <time>2023-04-04T10:17:48.000Z</time>
      </trkpt>
      <trkpt lat="46.14361" lon="7.04216">
        <ele>467.60000610352</ele>
        <time>2023-04-04T10:17:55.000Z</time>
      </trkpt>
      <trkpt lat="46.14357" lon="7.04225">
        <ele>467.60000610352</ele>
        <time>2023-04-04T10:17:57.000Z</time>
      </trkpt>
      <trkpt lat="46.14354" lon="7.0423">
        <ele>467.60000610352</ele>
        <time>2023-04-04T10:17:58.000Z</time>
      </trkpt>
      <trkpt lat="46.14352" lon="7.04234">
        <ele>467.60000610352</ele>
        <time>2023-04-04T10:17:59.000Z</time>
      </trkpt>
      <trkpt lat="46.14349" lon="7.04239">
        <ele>467.79998779297</ele>
        <time>2023-04-04T10:18:00.000Z</time>
      </trkpt>
      <trkpt lat="46.14339" lon="7.04259">
        <ele>467.60000610352</ele>
        <time>2023-04-04T10:18:04.000Z</time>
      </trkpt>
      <trkpt lat="46.14335" lon="7.04268">
        <ele>467.60000610352</ele>
        <time>2023-04-04T10:18:06.000Z</time>
      </trkpt>
      <trkpt lat="46.14333" lon="7.04273">
        <ele>467.60000610352</ele>
        <time>2023-04-04T10:18:07.000Z</time>
      </trkpt>
      <trkpt lat="46.14316" lon="7.04312">
        <ele>467.60000610352</ele>
        <time>2023-04-04T10:18:15.000Z</time>
      </trkpt>
      <trkpt lat="46.14314" lon="7.04316">
        <ele>467.60000610352</ele>
        <time>2023-04-04T10:18:16.000Z</time>
      </trkpt>
      <trkpt lat="46.14313" lon="7.0432">
        <ele>467.60000610352</ele>
        <time>2023-04-04T10:18:17.000Z</time>
      </trkpt>
      <trkpt lat="46.14311" lon="7.04324">
        <ele>467.60000610352</ele>
        <time>2023-04-04T10:18:18.000Z</time>
      </trkpt>
      <trkpt lat="46.14309" lon="7.04329">
        <ele>467.60000610352</ele>
        <time>2023-04-04T10:18:19.000Z</time>
      </trkpt>
      <trkpt lat="46.14307" lon="7.04334">
        <ele>467.60000610352</ele>
        <time>2023-04-04T10:18:20.000Z</time>
      </trkpt>
      <trkpt lat="46.14286" lon="7.04374">
        <ele>468</ele>
        <time>2023-04-04T10:18:28.000Z</time>
      </trkpt>
      <trkpt lat="46.14272" lon="7.04401">
        <ele>467.79998779297</ele>
        <time>2023-04-04T10:18:33.000Z</time>
      </trkpt>
      <trkpt lat="46.14265" lon="7.04412">
        <ele>467.79998779297</ele>
        <time>2023-04-04T10:18:36.000Z</time>
      </trkpt>
      <trkpt lat="46.14261" lon="7.04415">
        <ele>467.60000610352</ele>
        <time>2023-04-04T10:18:37.000Z</time>
      </trkpt>
      <trkpt lat="46.14257" lon="7.04415">
        <ele>467.79998779297</ele>
        <time>2023-04-04T10:18:38.000Z</time>
      </trkpt>
      <trkpt lat="46.14252" lon="7.04415">
        <ele>467.60000610352</ele>
        <time>2023-04-04T10:18:39.000Z</time>
      </trkpt>
      <trkpt lat="46.14246" lon="7.04415">
        <ele>467.39999389648</ele>
        <time>2023-04-04T10:18:40.000Z</time>
      </trkpt>
      <trkpt lat="46.14242" lon="7.04416">
        <ele>467.39999389648</ele>
        <time>2023-04-04T10:18:41.000Z</time>
      </trkpt>
      <trkpt lat="46.14238" lon="7.04419">
        <ele>467.39999389648</ele>
        <time>2023-04-04T10:18:42.000Z</time>
      </trkpt>
      <trkpt lat="46.14235" lon="7.04422">
        <ele>467.20001220703</ele>
        <time>2023-04-04T10:18:43.000Z</time>
      </trkpt>
      <trkpt lat="46.14233" lon="7.04425">
        <ele>467.20001220703</ele>
        <time>2023-04-04T10:18:44.000Z</time>
      </trkpt>
      <trkpt lat="46.1423" lon="7.04428">
        <ele>467.20001220703</ele>
        <time>2023-04-04T10:18:45.000Z</time>
      </trkpt>
      <trkpt lat="46.14228" lon="7.04432">
        <ele>467.20001220703</ele>
        <time>2023-04-04T10:18:46.000Z</time>
      </trkpt>
      <trkpt lat="46.14225" lon="7.04435">
        <ele>467.20001220703</ele>
        <time>2023-04-04T10:18:47.000Z</time>
      </trkpt>
      <trkpt lat="46.14223" lon="7.04437">
        <ele>467.20001220703</ele>
        <time>2023-04-04T10:18:48.000Z</time>
      </trkpt>
      <trkpt lat="46.14221" lon="7.0444">
        <ele>467.20001220703</ele>
        <time>2023-04-04T10:18:49.000Z</time>
      </trkpt>
      <trkpt lat="46.14219" lon="7.04443">
        <ele>467.20001220703</ele>
        <time>2023-04-04T10:18:50.000Z</time>
      </trkpt>
      <trkpt lat="46.14217" lon="7.04445">
        <ele>467.39999389648</ele>
        <time>2023-04-04T10:18:51.000Z</time>
      </trkpt>
      <trkpt lat="46.14215" lon="7.04447">
        <ele>467.60000610352</ele>
        <time>2023-04-04T10:18:52.000Z</time>
      </trkpt>
      <trkpt lat="46.14214" lon="7.04448">
        <ele>467.60000610352</ele>
        <time>2023-04-04T10:18:53.000Z</time>
      </trkpt>
      <trkpt lat="46.14212" lon="7.0445">
        <ele>467.60000610352</ele>
        <time>2023-04-04T10:18:54.000Z</time>
      </trkpt>
      <trkpt lat="46.14211" lon="7.04452">
        <ele>467.79998779297</ele>
        <time>2023-04-04T10:18:55.000Z</time>
      </trkpt>
      <trkpt lat="46.1421" lon="7.04454">
        <ele>468</ele>
        <time>2023-04-04T10:18:56.000Z</time>
      </trkpt>
      <trkpt lat="46.14209" lon="7.04457">
        <ele>468</ele>
        <time>2023-04-04T10:18:57.000Z</time>
      </trkpt>
      <trkpt lat="46.1421" lon="7.04459">
        <ele>468</ele>
        <time>2023-04-04T10:18:58.000Z</time>
      </trkpt>
      <trkpt lat="46.14211" lon="7.04462">
        <ele>468.20001220703</ele>
        <time>2023-04-04T10:18:59.000Z</time>
      </trkpt>
      <trkpt lat="46.14215" lon="7.04468">
        <ele>468.39999389648</ele>
        <time>2023-04-04T10:19:01.000Z</time>
      </trkpt>
      <trkpt lat="46.14217" lon="7.04471">
        <ele>468.39999389648</ele>
        <time>2023-04-04T10:19:02.000Z</time>
      </trkpt>
      <trkpt lat="46.1422" lon="7.04477">
        <ele>468.60000610352</ele>
        <time>2023-04-04T10:19:04.000Z</time>
      </trkpt>
      <trkpt lat="46.14221" lon="7.04481">
        <ele>468.60000610352</ele>
        <time>2023-04-04T10:19:05.000Z</time>
      </trkpt>
      <trkpt lat="46.14222" lon="7.04485">
        <ele>468.60000610352</ele>
        <time>2023-04-04T10:19:06.000Z</time>
      </trkpt>
      <trkpt lat="46.14221" lon="7.0449">
        <ele>468.60000610352</ele>
        <time>2023-04-04T10:19:07.000Z</time>
      </trkpt>
      <trkpt lat="46.1422" lon="7.04495">
        <ele>468.60000610352</ele>
        <time>2023-04-04T10:19:08.000Z</time>
      </trkpt>
      <trkpt lat="46.14217" lon="7.045">
        <ele>468.60000610352</ele>
        <time>2023-04-04T10:19:09.000Z</time>
      </trkpt>
      <trkpt lat="46.14216" lon="7.04505">
        <ele>468.60000610352</ele>
        <time>2023-04-04T10:19:10.000Z</time>
      </trkpt>
      <trkpt lat="46.14211" lon="7.04516">
        <ele>468.60000610352</ele>
        <time>2023-04-04T10:19:12.000Z</time>
      </trkpt>
      <trkpt lat="46.14203" lon="7.0453">
        <ele>468.39999389648</ele>
        <time>2023-04-04T10:19:15.000Z</time>
      </trkpt>
      <trkpt lat="46.14201" lon="7.04534">
        <ele>468.39999389648</ele>
        <time>2023-04-04T10:19:16.000Z</time>
      </trkpt>
      <trkpt lat="46.14198" lon="7.04538">
        <ele>468.39999389648</ele>
        <time>2023-04-04T10:19:17.000Z</time>
      </trkpt>
      <trkpt lat="46.14196" lon="7.04542">
        <ele>468.39999389648</ele>
        <time>2023-04-04T10:19:18.000Z</time>
      </trkpt>
      <trkpt lat="46.14194" lon="7.04546">
        <ele>468.39999389648</ele>
        <time>2023-04-04T10:19:19.000Z</time>
      </trkpt>
      <trkpt lat="46.14191" lon="7.0455">
        <ele>468.39999389648</ele>
        <time>2023-04-04T10:19:20.000Z</time>
      </trkpt>
      <trkpt lat="46.14189" lon="7.04553">
        <ele>468.39999389648</ele>
        <time>2023-04-04T10:19:21.000Z</time>
      </trkpt>
      <trkpt lat="46.14187" lon="7.04558">
        <ele>468.39999389648</ele>
        <time>2023-04-04T10:19:22.000Z</time>
      </trkpt>
      <trkpt lat="46.14183" lon="7.04568">
        <ele>468.20001220703</ele>
        <time>2023-04-04T10:19:24.000Z</time>
      </trkpt>
      <trkpt lat="46.14179" lon="7.04573">
        <ele>468.20001220703</ele>
        <time>2023-04-04T10:19:25.000Z</time>
      </trkpt>
      <trkpt lat="46.14163" lon="7.04597">
        <ele>468.20001220703</ele>
        <time>2023-04-04T10:19:30.000Z</time>
      </trkpt>
      <trkpt lat="46.1416" lon="7.04601">
        <ele>468.20001220703</ele>
        <time>2023-04-04T10:19:31.000Z</time>
      </trkpt>
      <trkpt lat="46.14158" lon="7.04604">
        <ele>468.20001220703</ele>
        <time>2023-04-04T10:19:32.000Z</time>
      </trkpt>
      <trkpt lat="46.14156" lon="7.04608">
        <ele>468.20001220703</ele>
        <time>2023-04-04T10:19:33.000Z</time>
      </trkpt>
      <trkpt lat="46.14153" lon="7.04612">
        <ele>468.20001220703</ele>
        <time>2023-04-04T10:19:34.000Z</time>
      </trkpt>
      <trkpt lat="46.14149" lon="7.04616">
        <ele>468.20001220703</ele>
        <time>2023-04-04T10:19:35.000Z</time>
      </trkpt>
      <trkpt lat="46.14146" lon="7.04621">
        <ele>468.20001220703</ele>
        <time>2023-04-04T10:19:36.000Z</time>
      </trkpt>
      <trkpt lat="46.14141" lon="7.04626">
        <ele>468.20001220703</ele>
        <time>2023-04-04T10:19:37.000Z</time>
      </trkpt>
      <trkpt lat="46.14139" lon="7.04632">
        <ele>468.20001220703</ele>
        <time>2023-04-04T10:19:38.000Z</time>
      </trkpt>
      <trkpt lat="46.14138" lon="7.04637">
        <ele>468.20001220703</ele>
        <time>2023-04-04T10:19:39.000Z</time>
      </trkpt>
      <trkpt lat="46.14135" lon="7.04641">
        <ele>468.20001220703</ele>
        <time>2023-04-04T10:19:40.000Z</time>
      </trkpt>
      <trkpt lat="46.14125" lon="7.04658">
        <ele>468.20001220703</ele>
        <time>2023-04-04T10:19:43.000Z</time>
      </trkpt>
      <trkpt lat="46.14119" lon="7.04666">
        <ele>468.20001220703</ele>
        <time>2023-04-04T10:19:45.000Z</time>
      </trkpt>
      <trkpt lat="46.14114" lon="7.04673">
        <ele>468.20001220703</ele>
        <time>2023-04-04T10:19:46.000Z</time>
      </trkpt>
      <trkpt lat="46.14098" lon="7.04694">
        <ele>468.20001220703</ele>
        <time>2023-04-04T10:19:49.000Z</time>
      </trkpt>
      <trkpt lat="46.14082" lon="7.04714">
        <ele>468</ele>
        <time>2023-04-04T10:19:54.000Z</time>
      </trkpt>
      <trkpt lat="46.1408" lon="7.04718">
        <ele>468</ele>
        <time>2023-04-04T10:19:55.000Z</time>
      </trkpt>
      <trkpt lat="46.14078" lon="7.04721">
        <ele>468</ele>
        <time>2023-04-04T10:19:56.000Z</time>
      </trkpt>
      <trkpt lat="46.14063" lon="7.04741">
        <ele>467.79998779297</ele>
        <time>2023-04-04T10:20:01.000Z</time>
      </trkpt>
      <trkpt lat="46.14061" lon="7.04745">
        <ele>467.79998779297</ele>
        <time>2023-04-04T10:20:02.000Z</time>
      </trkpt>
      <trkpt lat="46.14057" lon="7.0475">
        <ele>467.79998779297</ele>
        <time>2023-04-04T10:20:03.000Z</time>
      </trkpt>
      <trkpt lat="46.14055" lon="7.04754">
        <ele>467.79998779297</ele>
        <time>2023-04-04T10:20:04.000Z</time>
      </trkpt>
      <trkpt lat="46.14054" lon="7.04758">
        <ele>467.79998779297</ele>
        <time>2023-04-04T10:20:05.000Z</time>
      </trkpt>
      <trkpt lat="46.14053" lon="7.04761">
        <ele>467.79998779297</ele>
        <time>2023-04-04T10:20:06.000Z</time>
      </trkpt>
      <trkpt lat="46.14052" lon="7.04764">
        <ele>467.79998779297</ele>
        <time>2023-04-04T10:20:07.000Z</time>
      </trkpt>
      <trkpt lat="46.14049" lon="7.04768">
        <ele>467.79998779297</ele>
        <time>2023-04-04T10:20:08.000Z</time>
      </trkpt>
      <trkpt lat="46.14045" lon="7.04772">
        <ele>467.79998779297</ele>
        <time>2023-04-04T10:20:09.000Z</time>
      </trkpt>
      <trkpt lat="46.1404" lon="7.04776">
        <ele>467.79998779297</ele>
        <time>2023-04-04T10:20:10.000Z</time>
      </trkpt>
      <trkpt lat="46.14036" lon="7.04779">
        <ele>467.79998779297</ele>
        <time>2023-04-04T10:20:11.000Z</time>
      </trkpt>
      <trkpt lat="46.14007" lon="7.04809">
        <ele>468.20001220703</ele>
        <time>2023-04-04T10:20:17.000Z</time>
      </trkpt>
      <trkpt lat="46.13995" lon="7.04824">
        <ele>468.60000610352</ele>
        <time>2023-04-04T10:20:20.000Z</time>
      </trkpt>
      <trkpt lat="46.13987" lon="7.04835">
        <ele>468.60000610352</ele>
        <time>2023-04-04T10:20:22.000Z</time>
      </trkpt>
      <trkpt lat="46.1397" lon="7.04855">
        <ele>468.79998779297</ele>
        <time>2023-04-04T10:20:26.000Z</time>
      </trkpt>
      <trkpt lat="46.13966" lon="7.04861">
        <ele>468.79998779297</ele>
        <time>2023-04-04T10:20:27.000Z</time>
      </trkpt>
      <trkpt lat="46.1396" lon="7.04868">
        <ele>468.79998779297</ele>
        <time>2023-04-04T10:20:29.000Z</time>
      </trkpt>
      <trkpt lat="46.13948" lon="7.04885">
        <ele>468.60000610352</ele>
        <time>2023-04-04T10:20:33.000Z</time>
      </trkpt>
      <trkpt lat="46.13945" lon="7.04889">
        <ele>468.60000610352</ele>
        <time>2023-04-04T10:20:34.000Z</time>
      </trkpt>
      <trkpt lat="46.13942" lon="7.04893">
        <ele>468.39999389648</ele>
        <time>2023-04-04T10:20:35.000Z</time>
      </trkpt>
      <trkpt lat="46.13939" lon="7.04898">
        <ele>468.39999389648</ele>
        <time>2023-04-04T10:20:36.000Z</time>
      </trkpt>
      <trkpt lat="46.13936" lon="7.04902">
        <ele>468.20001220703</ele>
        <time>2023-04-04T10:20:37.000Z</time>
      </trkpt>
      <trkpt lat="46.13929" lon="7.04911">
        <ele>468.20001220703</ele>
        <time>2023-04-04T10:20:39.000Z</time>
      </trkpt>
      <trkpt lat="46.13926" lon="7.04915">
        <ele>468.20001220703</ele>
        <time>2023-04-04T10:20:40.000Z</time>
      </trkpt>
      <trkpt lat="46.13922" lon="7.04919">
        <ele>468.20001220703</ele>
        <time>2023-04-04T10:20:41.000Z</time>
      </trkpt>
      <trkpt lat="46.13919" lon="7.04924">
        <ele>468</ele>
        <time>2023-04-04T10:20:42.000Z</time>
      </trkpt>
      <trkpt lat="46.13905" lon="7.0494">
        <ele>468</ele>
        <time>2023-04-04T10:20:46.000Z</time>
      </trkpt>
      <trkpt lat="46.13881" lon="7.04967">
        <ele>468.20001220703</ele>
        <time>2023-04-04T10:20:53.000Z</time>
      </trkpt>
      <trkpt lat="46.13878" lon="7.04972">
        <ele>468.20001220703</ele>
        <time>2023-04-04T10:20:54.000Z</time>
      </trkpt>
      <trkpt lat="46.13874" lon="7.04976">
        <ele>468.20001220703</ele>
        <time>2023-04-04T10:20:55.000Z</time>
      </trkpt>
      <trkpt lat="46.13871" lon="7.0498">
        <ele>468.20001220703</ele>
        <time>2023-04-04T10:20:56.000Z</time>
      </trkpt>
      <trkpt lat="46.13868" lon="7.04984">
        <ele>468.39999389648</ele>
        <time>2023-04-04T10:20:57.000Z</time>
      </trkpt>
      <trkpt lat="46.13864" lon="7.04987">
        <ele>468.39999389648</ele>
        <time>2023-04-04T10:20:58.000Z</time>
      </trkpt>
      <trkpt lat="46.1384" lon="7.05016">
        <ele>468.60000610352</ele>
        <time>2023-04-04T10:21:05.000Z</time>
      </trkpt>
      <trkpt lat="46.13837" lon="7.0502">
        <ele>468.60000610352</ele>
        <time>2023-04-04T10:21:06.000Z</time>
      </trkpt>
      <trkpt lat="46.13816" lon="7.05044">
        <ele>468.60000610352</ele>
        <time>2023-04-04T10:21:12.000Z</time>
      </trkpt>
      <trkpt lat="46.13813" lon="7.05048">
        <ele>468.60000610352</ele>
        <time>2023-04-04T10:21:13.000Z</time>
      </trkpt>
      <trkpt lat="46.13809" lon="7.05052">
        <ele>468.60000610352</ele>
        <time>2023-04-04T10:21:14.000Z</time>
      </trkpt>
      <trkpt lat="46.13806" lon="7.05056">
        <ele>468.60000610352</ele>
        <time>2023-04-04T10:21:15.000Z</time>
      </trkpt>
      <trkpt lat="46.13803" lon="7.05059">
        <ele>468.60000610352</ele>
        <time>2023-04-04T10:21:16.000Z</time>
      </trkpt>
      <trkpt lat="46.138" lon="7.05063">
        <ele>468.60000610352</ele>
        <time>2023-04-04T10:21:17.000Z</time>
      </trkpt>
      <trkpt lat="46.13796" lon="7.05067">
        <ele>468.60000610352</ele>
        <time>2023-04-04T10:21:18.000Z</time>
      </trkpt>
      <trkpt lat="46.13793" lon="7.05071">
        <ele>468.60000610352</ele>
        <time>2023-04-04T10:21:19.000Z</time>
      </trkpt>
      <trkpt lat="46.13788" lon="7.05075">
        <ele>468.60000610352</ele>
        <time>2023-04-04T10:21:20.000Z</time>
      </trkpt>
      <trkpt lat="46.13774" lon="7.05095">
        <ele>468.39999389648</ele>
        <time>2023-04-04T10:21:25.000Z</time>
      </trkpt>
      <trkpt lat="46.13771" lon="7.05098">
        <ele>468.39999389648</ele>
        <time>2023-04-04T10:21:26.000Z</time>
      </trkpt>
      <trkpt lat="46.13765" lon="7.05106">
        <ele>468.39999389648</ele>
        <time>2023-04-04T10:21:28.000Z</time>
      </trkpt>
      <trkpt lat="46.13763" lon="7.05109">
        <ele>468.39999389648</ele>
        <time>2023-04-04T10:21:29.000Z</time>
      </trkpt>
      <trkpt lat="46.1376" lon="7.05113">
        <ele>468.39999389648</ele>
        <time>2023-04-04T10:21:30.000Z</time>
      </trkpt>
      <trkpt lat="46.13757" lon="7.05115">
        <ele>468.39999389648</ele>
        <time>2023-04-04T10:21:31.000Z</time>
      </trkpt>
      <trkpt lat="46.13754" lon="7.05117">
        <ele>468.39999389648</ele>
        <time>2023-04-04T10:21:32.000Z</time>
      </trkpt>
      <trkpt lat="46.13751" lon="7.05119">
        <ele>468.39999389648</ele>
        <time>2023-04-04T10:21:33.000Z</time>
      </trkpt>
      <trkpt lat="46.13748" lon="7.05121">
        <ele>468.39999389648</ele>
        <time>2023-04-04T10:21:34.000Z</time>
      </trkpt>
      <trkpt lat="46.13745" lon="7.05122">
        <ele>468.39999389648</ele>
        <time>2023-04-04T10:21:35.000Z</time>
      </trkpt>
      <trkpt lat="46.13742" lon="7.05121">
        <ele>468.39999389648</ele>
        <time>2023-04-04T10:21:36.000Z</time>
      </trkpt>
      <trkpt lat="46.1374" lon="7.0512">
        <ele>468.39999389648</ele>
        <time>2023-04-04T10:21:37.000Z</time>
      </trkpt>
      <trkpt lat="46.13738" lon="7.05119">
        <ele>468.39999389648</ele>
        <time>2023-04-04T10:21:38.000Z</time>
      </trkpt>
      <trkpt lat="46.13737" lon="7.05119">
        <ele>468.39999389648</ele>
        <time>2023-04-04T10:21:39.000Z</time>
      </trkpt>
      <trkpt lat="46.13735" lon="7.05119">
        <ele>468.39999389648</ele>
        <time>2023-04-04T10:21:40.000Z</time>
      </trkpt>
      <trkpt lat="46.13735" lon="7.05119">
        <ele>468.39999389648</ele>
        <time>2023-04-04T10:21:41.000Z</time>
      </trkpt>
      <trkpt lat="46.13734" lon="7.0512">
        <ele>468.39999389648</ele>
        <time>2023-04-04T10:21:42.000Z</time>
      </trkpt>
      <trkpt lat="46.13734" lon="7.0512">
        <ele>468.39999389648</ele>
        <time>2023-04-04T10:21:43.000Z</time>
      </trkpt>
      <trkpt lat="46.13734" lon="7.05121">
        <ele>468.39999389648</ele>
        <time>2023-04-04T10:21:44.000Z</time>
      </trkpt>
      <trkpt lat="46.13733" lon="7.05122">
        <ele>468.39999389648</ele>
        <time>2023-04-04T10:21:45.000Z</time>
      </trkpt>
      <trkpt lat="46.13731" lon="7.05127">
        <ele>468.60000610352</ele>
        <time>2023-04-04T10:21:48.000Z</time>
      </trkpt>
      <trkpt lat="46.13729" lon="7.0513">
        <ele>468.79998779297</ele>
        <time>2023-04-04T10:21:50.000Z</time>
      </trkpt>
      <trkpt lat="46.13725" lon="7.05137">
        <ele>469.60000610352</ele>
        <time>2023-04-04T10:21:54.000Z</time>
      </trkpt>
      <trkpt lat="46.13723" lon="7.05141">
        <ele>470</ele>
        <time>2023-04-04T10:21:57.000Z</time>
      </trkpt>
      <trkpt lat="46.13723" lon="7.05142">
        <ele>470</ele>
        <time>2023-04-04T10:21:58.000Z</time>
      </trkpt>
      <trkpt lat="46.13722" lon="7.05142">
        <ele>470.20001220703</ele>
        <time>2023-04-04T10:21:59.000Z</time>
      </trkpt>
      <trkpt lat="46.13722" lon="7.05142">
        <ele>470.20001220703</ele>
        <time>2023-04-04T10:22:00.000Z</time>
      </trkpt>
      <trkpt lat="46.13721" lon="7.05142">
        <ele>470.20001220703</ele>
        <time>2023-04-04T10:22:01.000Z</time>
      </trkpt>
      <trkpt lat="46.13719" lon="7.05141">
        <ele>470.20001220703</ele>
        <time>2023-04-04T10:22:02.000Z</time>
      </trkpt>
      <trkpt lat="46.13707" lon="7.05136">
        <ele>470</ele>
        <time>2023-04-04T10:22:07.000Z</time>
      </trkpt>
      <trkpt lat="46.13706" lon="7.05136">
        <ele>470</ele>
        <time>2023-04-04T10:22:08.000Z</time>
      </trkpt>
      <trkpt lat="46.13698" lon="7.05133">
        <ele>469.60000610352</ele>
        <time>2023-04-04T10:22:13.000Z</time>
      </trkpt>
      <trkpt lat="46.13696" lon="7.05132">
        <ele>469.60000610352</ele>
        <time>2023-04-04T10:22:14.000Z</time>
      </trkpt>
      <trkpt lat="46.13695" lon="7.05132">
        <ele>469.39999389648</ele>
        <time>2023-04-04T10:22:15.000Z</time>
      </trkpt>
      <trkpt lat="46.13693" lon="7.05132">
        <ele>469.39999389648</ele>
        <time>2023-04-04T10:22:16.000Z</time>
      </trkpt>
      <trkpt lat="46.13691" lon="7.05133">
        <ele>469.20001220703</ele>
        <time>2023-04-04T10:22:17.000Z</time>
      </trkpt>
      <trkpt lat="46.13689" lon="7.05133">
        <ele>469.20001220703</ele>
        <time>2023-04-04T10:22:18.000Z</time>
      </trkpt>
      <trkpt lat="46.13687" lon="7.05134">
        <ele>469.20001220703</ele>
        <time>2023-04-04T10:22:19.000Z</time>
      </trkpt>
      <trkpt lat="46.13686" lon="7.05134">
        <ele>469</ele>
        <time>2023-04-04T10:22:20.000Z</time>
      </trkpt>
      <trkpt lat="46.13686" lon="7.05136">
        <ele>469</ele>
        <time>2023-04-04T10:22:21.000Z</time>
      </trkpt>
      <trkpt lat="46.13686" lon="7.05137">
        <ele>469</ele>
        <time>2023-04-04T10:22:22.000Z</time>
      </trkpt>
      <trkpt lat="46.13685" lon="7.05139">
        <ele>469</ele>
        <time>2023-04-04T10:22:23.000Z</time>
      </trkpt>
      <trkpt lat="46.13684" lon="7.05141">
        <ele>469</ele>
        <time>2023-04-04T10:22:24.000Z</time>
      </trkpt>
      <trkpt lat="46.13683" lon="7.05143">
        <ele>469</ele>
        <time>2023-04-04T10:22:25.000Z</time>
      </trkpt>
      <trkpt lat="46.13676" lon="7.05152">
        <ele>469</ele>
        <time>2023-04-04T10:22:29.000Z</time>
      </trkpt>
      <trkpt lat="46.13675" lon="7.05155">
        <ele>469</ele>
        <time>2023-04-04T10:22:30.000Z</time>
      </trkpt>
      <trkpt lat="46.13663" lon="7.0517">
        <ele>469.20001220703</ele>
        <time>2023-04-04T10:22:38.000Z</time>
      </trkpt>
      <trkpt lat="46.1366" lon="7.05172">
        <ele>469.20001220703</ele>
        <time>2023-04-04T10:22:39.000Z</time>
      </trkpt>
      <trkpt lat="46.13657" lon="7.05173">
        <ele>469.39999389648</ele>
        <time>2023-04-04T10:22:40.000Z</time>
      </trkpt>
      <trkpt lat="46.13655" lon="7.05174">
        <ele>469.39999389648</ele>
        <time>2023-04-04T10:22:41.000Z</time>
      </trkpt>
      <trkpt lat="46.13655" lon="7.05174">
        <ele>469.60000610352</ele>
        <time>2023-04-04T10:22:42.000Z</time>
      </trkpt>
      <trkpt lat="46.13655" lon="7.05174">
        <ele>469.60000610352</ele>
        <time>2023-04-04T10:22:43.000Z</time>
      </trkpt>
      <trkpt lat="46.13648" lon="7.05184">
        <ele>470</ele>
        <time>2023-04-04T10:22:53.000Z</time>
      </trkpt>
      <trkpt lat="46.13644" lon="7.05194">
        <ele>470.20001220703</ele>
        <time>2023-04-04T10:22:56.000Z</time>
      </trkpt>
      <trkpt lat="46.13643" lon="7.05197">
        <ele>470.20001220703</ele>
        <time>2023-04-04T10:22:57.000Z</time>
      </trkpt>
      <trkpt lat="46.1363" lon="7.05209">
        <ele>470</ele>
        <time>2023-04-04T10:23:00.000Z</time>
      </trkpt>
      <trkpt lat="46.13627" lon="7.05212">
        <ele>470</ele>
        <time>2023-04-04T10:23:01.000Z</time>
      </trkpt>
      <trkpt lat="46.13626" lon="7.05215">
        <ele>470</ele>
        <time>2023-04-04T10:23:02.000Z</time>
      </trkpt>
      <trkpt lat="46.13624" lon="7.05223">
        <ele>469.60000610352</ele>
        <time>2023-04-04T10:23:05.000Z</time>
      </trkpt>
      <trkpt lat="46.13621" lon="7.05227">
        <ele>469.60000610352</ele>
        <time>2023-04-04T10:23:06.000Z</time>
      </trkpt>
      <trkpt lat="46.13616" lon="7.05231">
        <ele>469.39999389648</ele>
        <time>2023-04-04T10:23:07.000Z</time>
      </trkpt>
      <trkpt lat="46.13608" lon="7.05239">
        <ele>469.20001220703</ele>
        <time>2023-04-04T10:23:09.000Z</time>
      </trkpt>
      <trkpt lat="46.13605" lon="7.05242">
        <ele>469.20001220703</ele>
        <time>2023-04-04T10:23:10.000Z</time>
      </trkpt>
      <trkpt lat="46.13587" lon="7.05259">
        <ele>469.39999389648</ele>
        <time>2023-04-04T10:23:14.000Z</time>
      </trkpt>
      <trkpt lat="46.13577" lon="7.05265">
        <ele>469.39999389648</ele>
        <time>2023-04-04T10:23:16.000Z</time>
      </trkpt>
      <trkpt lat="46.13566" lon="7.05274">
        <ele>469.60000610352</ele>
        <time>2023-04-04T10:23:19.000Z</time>
      </trkpt>
      <trkpt lat="46.13548" lon="7.05293">
        <ele>469.79998779297</ele>
        <time>2023-04-04T10:23:26.000Z</time>
      </trkpt>
      <trkpt lat="46.13537" lon="7.05307">
        <ele>469.79998779297</ele>
        <time>2023-04-04T10:23:30.000Z</time>
      </trkpt>
      <trkpt lat="46.13535" lon="7.0531">
        <ele>469.79998779297</ele>
        <time>2023-04-04T10:23:31.000Z</time>
      </trkpt>
      <trkpt lat="46.13532" lon="7.05313">
        <ele>469.79998779297</ele>
        <time>2023-04-04T10:23:32.000Z</time>
      </trkpt>
      <trkpt lat="46.13526" lon="7.0532">
        <ele>470</ele>
        <time>2023-04-04T10:23:34.000Z</time>
      </trkpt>
      <trkpt lat="46.13521" lon="7.05327">
        <ele>470</ele>
        <time>2023-04-04T10:23:36.000Z</time>
      </trkpt>
      <trkpt lat="46.13514" lon="7.05334">
        <ele>470.20001220703</ele>
        <time>2023-04-04T10:23:38.000Z</time>
      </trkpt>
      <trkpt lat="46.13504" lon="7.05348">
        <ele>470.39999389648</ele>
        <time>2023-04-04T10:23:42.000Z</time>
      </trkpt>
      <trkpt lat="46.13499" lon="7.05353">
        <ele>470.39999389648</ele>
        <time>2023-04-04T10:23:44.000Z</time>
      </trkpt>
      <trkpt lat="46.13491" lon="7.05363">
        <ele>470.39999389648</ele>
        <time>2023-04-04T10:23:47.000Z</time>
      </trkpt>
      <trkpt lat="46.13488" lon="7.05366">
        <ele>470.60000610352</ele>
        <time>2023-04-04T10:23:48.000Z</time>
      </trkpt>
      <trkpt lat="46.13486" lon="7.05369">
        <ele>470.60000610352</ele>
        <time>2023-04-04T10:23:49.000Z</time>
      </trkpt>
      <trkpt lat="46.13483" lon="7.05372">
        <ele>470.60000610352</ele>
        <time>2023-04-04T10:23:50.000Z</time>
      </trkpt>
      <trkpt lat="46.1348" lon="7.05375">
        <ele>470.60000610352</ele>
        <time>2023-04-04T10:23:51.000Z</time>
      </trkpt>
      <trkpt lat="46.13478" lon="7.05377">
        <ele>470.60000610352</ele>
        <time>2023-04-04T10:23:52.000Z</time>
      </trkpt>
      <trkpt lat="46.13476" lon="7.05379">
        <ele>470.60000610352</ele>
        <time>2023-04-04T10:23:53.000Z</time>
      </trkpt>
      <trkpt lat="46.13472" lon="7.05383">
        <ele>470.60000610352</ele>
        <time>2023-04-04T10:23:54.000Z</time>
      </trkpt>
      <trkpt lat="46.13461" lon="7.05396">
        <ele>470.79998779297</ele>
        <time>2023-04-04T10:23:57.000Z</time>
      </trkpt>
      <trkpt lat="46.13458" lon="7.054">
        <ele>470.79998779297</ele>
        <time>2023-04-04T10:23:58.000Z</time>
      </trkpt>
      <trkpt lat="46.13455" lon="7.05403">
        <ele>470.79998779297</ele>
        <time>2023-04-04T10:23:59.000Z</time>
      </trkpt>
      <trkpt lat="46.13452" lon="7.05406">
        <ele>470.79998779297</ele>
        <time>2023-04-04T10:24:00.000Z</time>
      </trkpt>
      <trkpt lat="46.13435" lon="7.05429">
        <ele>471</ele>
        <time>2023-04-04T10:24:05.000Z</time>
      </trkpt>
      <trkpt lat="46.13432" lon="7.05433">
        <ele>471</ele>
        <time>2023-04-04T10:24:06.000Z</time>
      </trkpt>
      <trkpt lat="46.13412" lon="7.05455">
        <ele>471</ele>
        <time>2023-04-04T10:24:11.000Z</time>
      </trkpt>
      <trkpt lat="46.13386" lon="7.05482">
        <ele>471</ele>
        <time>2023-04-04T10:24:17.000Z</time>
      </trkpt>
      <trkpt lat="46.13379" lon="7.05492">
        <ele>471</ele>
        <time>2023-04-04T10:24:19.000Z</time>
      </trkpt>
      <trkpt lat="46.1335" lon="7.05524">
        <ele>471.39999389648</ele>
        <time>2023-04-04T10:24:27.000Z</time>
      </trkpt>
      <trkpt lat="46.13346" lon="7.05528">
        <ele>471.39999389648</ele>
        <time>2023-04-04T10:24:28.000Z</time>
      </trkpt>
      <trkpt lat="46.13342" lon="7.05532">
        <ele>471.39999389648</ele>
        <time>2023-04-04T10:24:29.000Z</time>
      </trkpt>
      <trkpt lat="46.13319" lon="7.05557">
        <ele>471.39999389648</ele>
        <time>2023-04-04T10:24:35.000Z</time>
      </trkpt>
      <trkpt lat="46.13289" lon="7.05592">
        <ele>471.20001220703</ele>
        <time>2023-04-04T10:24:43.000Z</time>
      </trkpt>
      <trkpt lat="46.13278" lon="7.05604">
        <ele>471.20001220703</ele>
        <time>2023-04-04T10:24:46.000Z</time>
      </trkpt>
      <trkpt lat="46.13259" lon="7.05624">
        <ele>471.39999389648</ele>
        <time>2023-04-04T10:24:51.000Z</time>
      </trkpt>
      <trkpt lat="46.13251" lon="7.05633">
        <ele>471.39999389648</ele>
        <time>2023-04-04T10:24:53.000Z</time>
      </trkpt>
      <trkpt lat="46.13248" lon="7.05637">
        <ele>471.39999389648</ele>
        <time>2023-04-04T10:24:54.000Z</time>
      </trkpt>
      <trkpt lat="46.13244" lon="7.05642">
        <ele>471.39999389648</ele>
        <time>2023-04-04T10:24:55.000Z</time>
      </trkpt>
      <trkpt lat="46.13231" lon="7.0566">
        <ele>471.39999389648</ele>
        <time>2023-04-04T10:24:59.000Z</time>
      </trkpt>
      <trkpt lat="46.13223" lon="7.05668">
        <ele>471.39999389648</ele>
        <time>2023-04-04T10:25:01.000Z</time>
      </trkpt>
      <trkpt lat="46.13206" lon="7.0569">
        <ele>471.39999389648</ele>
        <time>2023-04-04T10:25:06.000Z</time>
      </trkpt>
      <trkpt lat="46.13195" lon="7.05704">
        <ele>471.39999389648</ele>
        <time>2023-04-04T10:25:09.000Z</time>
      </trkpt>
      <trkpt lat="46.1318" lon="7.05721">
        <ele>471.39999389648</ele>
        <time>2023-04-04T10:25:13.000Z</time>
      </trkpt>
      <trkpt lat="46.13162" lon="7.05742">
        <ele>471.60000610352</ele>
        <time>2023-04-04T10:25:18.000Z</time>
      </trkpt>
      <trkpt lat="46.13158" lon="7.05746">
        <ele>471.60000610352</ele>
        <time>2023-04-04T10:25:19.000Z</time>
      </trkpt>
      <trkpt lat="46.13155" lon="7.05751">
        <ele>471.60000610352</ele>
        <time>2023-04-04T10:25:20.000Z</time>
      </trkpt>
      <trkpt lat="46.13151" lon="7.05756">
        <ele>471.60000610352</ele>
        <time>2023-04-04T10:25:21.000Z</time>
      </trkpt>
      <trkpt lat="46.13126" lon="7.05786">
        <ele>472</ele>
        <time>2023-04-04T10:25:28.000Z</time>
      </trkpt>
      <trkpt lat="46.13123" lon="7.05791">
        <ele>472.20001220703</ele>
        <time>2023-04-04T10:25:29.000Z</time>
      </trkpt>
      <trkpt lat="46.13119" lon="7.05795">
        <ele>472.20001220703</ele>
        <time>2023-04-04T10:25:30.000Z</time>
      </trkpt>
      <trkpt lat="46.13102" lon="7.05816">
        <ele>472.39999389648</ele>
        <time>2023-04-04T10:25:35.000Z</time>
      </trkpt>
      <trkpt lat="46.13098" lon="7.0582">
        <ele>472.39999389648</ele>
        <time>2023-04-04T10:25:36.000Z</time>
      </trkpt>
      <trkpt lat="46.13087" lon="7.05833">
        <ele>472.39999389648</ele>
        <time>2023-04-04T10:25:39.000Z</time>
      </trkpt>
      <trkpt lat="46.13059" lon="7.05868">
        <ele>472.60000610352</ele>
        <time>2023-04-04T10:25:47.000Z</time>
      </trkpt>
      <trkpt lat="46.13034" lon="7.05898">
        <ele>472.60000610352</ele>
        <time>2023-04-04T10:25:54.000Z</time>
      </trkpt>
      <trkpt lat="46.13027" lon="7.05907">
        <ele>472.60000610352</ele>
        <time>2023-04-04T10:25:56.000Z</time>
      </trkpt>
      <trkpt lat="46.13005" lon="7.05932">
        <ele>472.79998779297</ele>
        <time>2023-04-04T10:26:02.000Z</time>
      </trkpt>
      <trkpt lat="46.13002" lon="7.05936">
        <ele>472.79998779297</ele>
        <time>2023-04-04T10:26:03.000Z</time>
      </trkpt>
      <trkpt lat="46.12996" lon="7.05944">
        <ele>473</ele>
        <time>2023-04-04T10:26:05.000Z</time>
      </trkpt>
      <trkpt lat="46.12982" lon="7.0596">
        <ele>473</ele>
        <time>2023-04-04T10:26:09.000Z</time>
      </trkpt>
      <trkpt lat="46.12978" lon="7.05964">
        <ele>473</ele>
        <time>2023-04-04T10:26:10.000Z</time>
      </trkpt>
      <trkpt lat="46.12942" lon="7.06007">
        <ele>472.20001220703</ele>
        <time>2023-04-04T10:26:20.000Z</time>
      </trkpt>
      <trkpt lat="46.12915" lon="7.06041">
        <ele>472.20001220703</ele>
        <time>2023-04-04T10:26:28.000Z</time>
      </trkpt>
      <trkpt lat="46.12905" lon="7.06053">
        <ele>472.20001220703</ele>
        <time>2023-04-04T10:26:31.000Z</time>
      </trkpt>
      <trkpt lat="46.12887" lon="7.06073">
        <ele>472.60000610352</ele>
        <time>2023-04-04T10:26:36.000Z</time>
      </trkpt>
      <trkpt lat="46.12883" lon="7.06078">
        <ele>472.60000610352</ele>
        <time>2023-04-04T10:26:37.000Z</time>
      </trkpt>
      <trkpt lat="46.12879" lon="7.06082">
        <ele>472.79998779297</ele>
        <time>2023-04-04T10:26:38.000Z</time>
      </trkpt>
      <trkpt lat="46.12875" lon="7.06086">
        <ele>472.79998779297</ele>
        <time>2023-04-04T10:26:39.000Z</time>
      </trkpt>
      <trkpt lat="46.12854" lon="7.06113">
        <ele>472.79998779297</ele>
        <time>2023-04-04T10:26:45.000Z</time>
      </trkpt>
      <trkpt lat="46.12851" lon="7.06117">
        <ele>472.79998779297</ele>
        <time>2023-04-04T10:26:46.000Z</time>
      </trkpt>
      <trkpt lat="46.12849" lon="7.06122">
        <ele>472.79998779297</ele>
        <time>2023-04-04T10:26:47.000Z</time>
      </trkpt>
      <trkpt lat="46.12846" lon="7.06126">
        <ele>473</ele>
        <time>2023-04-04T10:26:48.000Z</time>
      </trkpt>
      <trkpt lat="46.12841" lon="7.06133">
        <ele>473</ele>
        <time>2023-04-04T10:26:50.000Z</time>
      </trkpt>
      <trkpt lat="46.12838" lon="7.06137">
        <ele>473</ele>
        <time>2023-04-04T10:26:51.000Z</time>
      </trkpt>
      <trkpt lat="46.12834" lon="7.06141">
        <ele>473</ele>
        <time>2023-04-04T10:26:52.000Z</time>
      </trkpt>
      <trkpt lat="46.1283" lon="7.06146">
        <ele>473</ele>
        <time>2023-04-04T10:26:53.000Z</time>
      </trkpt>
      <trkpt lat="46.12828" lon="7.06149">
        <ele>473</ele>
        <time>2023-04-04T10:26:54.000Z</time>
      </trkpt>
      <trkpt lat="46.12825" lon="7.06153">
        <ele>473</ele>
        <time>2023-04-04T10:26:55.000Z</time>
      </trkpt>
      <trkpt lat="46.12822" lon="7.06157">
        <ele>473</ele>
        <time>2023-04-04T10:26:56.000Z</time>
      </trkpt>
      <trkpt lat="46.12819" lon="7.0616">
        <ele>473</ele>
        <time>2023-04-04T10:26:57.000Z</time>
      </trkpt>
      <trkpt lat="46.12816" lon="7.06164">
        <ele>473</ele>
        <time>2023-04-04T10:26:58.000Z</time>
      </trkpt>
      <trkpt lat="46.12814" lon="7.06167">
        <ele>473</ele>
        <time>2023-04-04T10:26:59.000Z</time>
      </trkpt>
      <trkpt lat="46.12812" lon="7.0617">
        <ele>473</ele>
        <time>2023-04-04T10:27:00.000Z</time>
      </trkpt>
      <trkpt lat="46.12811" lon="7.06173">
        <ele>473</ele>
        <time>2023-04-04T10:27:01.000Z</time>
      </trkpt>
      <trkpt lat="46.12809" lon="7.06177">
        <ele>473</ele>
        <time>2023-04-04T10:27:02.000Z</time>
      </trkpt>
      <trkpt lat="46.12792" lon="7.06192">
        <ele>473.20001220703</ele>
        <time>2023-04-04T10:27:06.000Z</time>
      </trkpt>
      <trkpt lat="46.12787" lon="7.06196">
        <ele>473.20001220703</ele>
        <time>2023-04-04T10:27:07.000Z</time>
      </trkpt>
      <trkpt lat="46.12781" lon="7.06204">
        <ele>473.20001220703</ele>
        <time>2023-04-04T10:27:09.000Z</time>
      </trkpt>
      <trkpt lat="46.12778" lon="7.06208">
        <ele>473.20001220703</ele>
        <time>2023-04-04T10:27:10.000Z</time>
      </trkpt>
      <trkpt lat="46.12774" lon="7.06217">
        <ele>473.20001220703</ele>
        <time>2023-04-04T10:27:12.000Z</time>
      </trkpt>
      <trkpt lat="46.12767" lon="7.06226">
        <ele>473.20001220703</ele>
        <time>2023-04-04T10:27:14.000Z</time>
      </trkpt>
      <trkpt lat="46.12762" lon="7.0623">
        <ele>473.20001220703</ele>
        <time>2023-04-04T10:27:15.000Z</time>
      </trkpt>
      <trkpt lat="46.12758" lon="7.06233">
        <ele>473.20001220703</ele>
        <time>2023-04-04T10:27:16.000Z</time>
      </trkpt>
      <trkpt lat="46.12754" lon="7.06237">
        <ele>473.39999389648</ele>
        <time>2023-04-04T10:27:17.000Z</time>
      </trkpt>
      <trkpt lat="46.12749" lon="7.06242">
        <ele>473.39999389648</ele>
        <time>2023-04-04T10:27:18.000Z</time>
      </trkpt>
      <trkpt lat="46.12724" lon="7.06271">
        <ele>473.60000610352</ele>
        <time>2023-04-04T10:27:23.000Z</time>
      </trkpt>
      <trkpt lat="46.12715" lon="7.0628">
        <ele>473.79998779297</ele>
        <time>2023-04-04T10:27:26.000Z</time>
      </trkpt>
      <trkpt lat="46.12712" lon="7.06285">
        <ele>473.79998779297</ele>
        <time>2023-04-04T10:27:27.000Z</time>
      </trkpt>
      <trkpt lat="46.12697" lon="7.06303">
        <ele>473.79998779297</ele>
        <time>2023-04-04T10:27:31.000Z</time>
      </trkpt>
      <trkpt lat="46.12678" lon="7.06325">
        <ele>474.20001220703</ele>
        <time>2023-04-04T10:27:37.000Z</time>
      </trkpt>
      <trkpt lat="46.12676" lon="7.06329">
        <ele>474.20001220703</ele>
        <time>2023-04-04T10:27:38.000Z</time>
      </trkpt>
      <trkpt lat="46.12673" lon="7.06333">
        <ele>474.20001220703</ele>
        <time>2023-04-04T10:27:39.000Z</time>
      </trkpt>
      <trkpt lat="46.12671" lon="7.06336">
        <ele>474.39999389648</ele>
        <time>2023-04-04T10:27:40.000Z</time>
      </trkpt>
      <trkpt lat="46.12668" lon="7.06339">
        <ele>474.39999389648</ele>
        <time>2023-04-04T10:27:41.000Z</time>
      </trkpt>
      <trkpt lat="46.12665" lon="7.06342">
        <ele>474.39999389648</ele>
        <time>2023-04-04T10:27:42.000Z</time>
      </trkpt>
      <trkpt lat="46.12653" lon="7.06352">
        <ele>474.39999389648</ele>
        <time>2023-04-04T10:27:45.000Z</time>
      </trkpt>
      <trkpt lat="46.12618" lon="7.06391">
        <ele>474.39999389648</ele>
        <time>2023-04-04T10:27:54.000Z</time>
      </trkpt>
      <trkpt lat="46.12596" lon="7.0641">
        <ele>474.20001220703</ele>
        <time>2023-04-04T10:27:59.000Z</time>
      </trkpt>
      <trkpt lat="46.12589" lon="7.06419">
        <ele>474.20001220703</ele>
        <time>2023-04-04T10:28:01.000Z</time>
      </trkpt>
      <trkpt lat="46.12578" lon="7.06431">
        <ele>474.20001220703</ele>
        <time>2023-04-04T10:28:04.000Z</time>
      </trkpt>
      <trkpt lat="46.12567" lon="7.06445">
        <ele>474.39999389648</ele>
        <time>2023-04-04T10:28:07.000Z</time>
      </trkpt>
      <trkpt lat="46.12563" lon="7.06447">
        <ele>474.60000610352</ele>
        <time>2023-04-04T10:28:08.000Z</time>
      </trkpt>
      <trkpt lat="46.1256" lon="7.06451">
        <ele>474.60000610352</ele>
        <time>2023-04-04T10:28:09.000Z</time>
      </trkpt>
      <trkpt lat="46.12556" lon="7.06455">
        <ele>474.60000610352</ele>
        <time>2023-04-04T10:28:10.000Z</time>
      </trkpt>
      <trkpt lat="46.12553" lon="7.06459">
        <ele>474.60000610352</ele>
        <time>2023-04-04T10:28:11.000Z</time>
      </trkpt>
      <trkpt lat="46.1254" lon="7.06474">
        <ele>474.60000610352</ele>
        <time>2023-04-04T10:28:15.000Z</time>
      </trkpt>
      <trkpt lat="46.12538" lon="7.06479">
        <ele>474.60000610352</ele>
        <time>2023-04-04T10:28:16.000Z</time>
      </trkpt>
      <trkpt lat="46.12535" lon="7.06483">
        <ele>474.60000610352</ele>
        <time>2023-04-04T10:28:17.000Z</time>
      </trkpt>
      <trkpt lat="46.12533" lon="7.06487">
        <ele>474.60000610352</ele>
        <time>2023-04-04T10:28:18.000Z</time>
      </trkpt>
      <trkpt lat="46.1253" lon="7.0649">
        <ele>474.60000610352</ele>
        <time>2023-04-04T10:28:19.000Z</time>
      </trkpt>
      <trkpt lat="46.12527" lon="7.06493">
        <ele>474.60000610352</ele>
        <time>2023-04-04T10:28:20.000Z</time>
      </trkpt>
      <trkpt lat="46.12503" lon="7.0651">
        <ele>474.79998779297</ele>
        <time>2023-04-04T10:28:26.000Z</time>
      </trkpt>
      <trkpt lat="46.12481" lon="7.06524">
        <ele>474.79998779297</ele>
        <time>2023-04-04T10:28:31.000Z</time>
      </trkpt>
      <trkpt lat="46.12476" lon="7.06526">
        <ele>474.79998779297</ele>
        <time>2023-04-04T10:28:32.000Z</time>
      </trkpt>
      <trkpt lat="46.12462" lon="7.06533">
        <ele>474.79998779297</ele>
        <time>2023-04-04T10:28:35.000Z</time>
      </trkpt>
      <trkpt lat="46.12448" lon="7.06536">
        <ele>475</ele>
        <time>2023-04-04T10:28:38.000Z</time>
      </trkpt>
      <trkpt lat="46.12444" lon="7.06537">
        <ele>475</ele>
        <time>2023-04-04T10:28:39.000Z</time>
      </trkpt>
      <trkpt lat="46.12427" lon="7.0654">
        <ele>475.20001220703</ele>
        <time>2023-04-04T10:28:43.000Z</time>
      </trkpt>
      <trkpt lat="46.12422" lon="7.0654">
        <ele>475.20001220703</ele>
        <time>2023-04-04T10:28:44.000Z</time>
      </trkpt>
      <trkpt lat="46.12419" lon="7.0654">
        <ele>475.20001220703</ele>
        <time>2023-04-04T10:28:45.000Z</time>
      </trkpt>
      <trkpt lat="46.12415" lon="7.0654">
        <ele>475.20001220703</ele>
        <time>2023-04-04T10:28:46.000Z</time>
      </trkpt>
      <trkpt lat="46.12412" lon="7.0654">
        <ele>475.20001220703</ele>
        <time>2023-04-04T10:28:47.000Z</time>
      </trkpt>
      <trkpt lat="46.12408" lon="7.0654">
        <ele>475.20001220703</ele>
        <time>2023-04-04T10:28:48.000Z</time>
      </trkpt>
      <trkpt lat="46.12406" lon="7.06538">
        <ele>475.20001220703</ele>
        <time>2023-04-04T10:28:49.000Z</time>
      </trkpt>
      <trkpt lat="46.12405" lon="7.06536">
        <ele>475.20001220703</ele>
        <time>2023-04-04T10:28:50.000Z</time>
      </trkpt>
      <trkpt lat="46.12404" lon="7.06532">
        <ele>475.20001220703</ele>
        <time>2023-04-04T10:28:51.000Z</time>
      </trkpt>
      <trkpt lat="46.12403" lon="7.06529">
        <ele>475.20001220703</ele>
        <time>2023-04-04T10:28:52.000Z</time>
      </trkpt>
      <trkpt lat="46.12403" lon="7.0652">
        <ele>475.20001220703</ele>
        <time>2023-04-04T10:28:54.000Z</time>
      </trkpt>
      <trkpt lat="46.12403" lon="7.06516">
        <ele>475.20001220703</ele>
        <time>2023-04-04T10:28:55.000Z</time>
      </trkpt>
      <trkpt lat="46.12402" lon="7.06503">
        <ele>475</ele>
        <time>2023-04-04T10:28:58.000Z</time>
      </trkpt>
      <trkpt lat="46.12398" lon="7.06482">
        <ele>475</ele>
        <time>2023-04-04T10:29:03.000Z</time>
      </trkpt>
      <trkpt lat="46.12392" lon="7.06465">
        <ele>474.60000610352</ele>
        <time>2023-04-04T10:29:07.000Z</time>
      </trkpt>
      <trkpt lat="46.12389" lon="7.06454">
        <ele>474.60000610352</ele>
        <time>2023-04-04T10:29:10.000Z</time>
      </trkpt>
      <trkpt lat="46.12366" lon="7.06407">
        <ele>474.39999389648</ele>
        <time>2023-04-04T10:29:17.000Z</time>
      </trkpt>
      <trkpt lat="46.12363" lon="7.06402">
        <ele>474.39999389648</ele>
        <time>2023-04-04T10:29:19.000Z</time>
      </trkpt>
      <trkpt lat="46.12361" lon="7.06397">
        <ele>474.39999389648</ele>
        <time>2023-04-04T10:29:20.000Z</time>
      </trkpt>
      <trkpt lat="46.12356" lon="7.06388">
        <ele>474.39999389648</ele>
        <time>2023-04-04T10:29:22.000Z</time>
      </trkpt>
      <trkpt lat="46.12355" lon="7.06383">
        <ele>474.20001220703</ele>
        <time>2023-04-04T10:29:23.000Z</time>
      </trkpt>
      <trkpt lat="46.1235" lon="7.06371">
        <ele>474.20001220703</ele>
        <time>2023-04-04T10:29:25.000Z</time>
      </trkpt>
      <trkpt lat="46.12348" lon="7.06366">
        <ele>474.20001220703</ele>
        <time>2023-04-04T10:29:26.000Z</time>
      </trkpt>
      <trkpt lat="46.12343" lon="7.06357">
        <ele>473.79998779297</ele>
        <time>2023-04-04T10:29:28.000Z</time>
      </trkpt>
      <trkpt lat="46.12342" lon="7.06354">
        <ele>474</ele>
        <time>2023-04-04T10:29:29.000Z</time>
      </trkpt>
      <trkpt lat="46.1234" lon="7.0635">
        <ele>473.79998779297</ele>
        <time>2023-04-04T10:29:30.000Z</time>
      </trkpt>
      <trkpt lat="46.12338" lon="7.06347">
        <ele>474</ele>
        <time>2023-04-04T10:29:31.000Z</time>
      </trkpt>
      <trkpt lat="46.12336" lon="7.06344">
        <ele>473.79998779297</ele>
        <time>2023-04-04T10:29:32.000Z</time>
      </trkpt>
      <trkpt lat="46.12334" lon="7.06342">
        <ele>473.79998779297</ele>
        <time>2023-04-04T10:29:33.000Z</time>
      </trkpt>
      <trkpt lat="46.12329" lon="7.06339">
        <ele>473.79998779297</ele>
        <time>2023-04-04T10:29:35.000Z</time>
      </trkpt>
      <trkpt lat="46.12326" lon="7.06339">
        <ele>473.79998779297</ele>
        <time>2023-04-04T10:29:36.000Z</time>
      </trkpt>
      <trkpt lat="46.12323" lon="7.0634">
        <ele>473.79998779297</ele>
        <time>2023-04-04T10:29:37.000Z</time>
      </trkpt>
      <trkpt lat="46.12318" lon="7.06345">
        <ele>473.79998779297</ele>
        <time>2023-04-04T10:29:39.000Z</time>
      </trkpt>
      <trkpt lat="46.12315" lon="7.06347">
        <ele>473.79998779297</ele>
        <time>2023-04-04T10:29:40.000Z</time>
      </trkpt>
      <trkpt lat="46.12312" lon="7.0635">
        <ele>473.79998779297</ele>
        <time>2023-04-04T10:29:41.000Z</time>
      </trkpt>
      <trkpt lat="46.12289" lon="7.06372">
        <ele>474</ele>
        <time>2023-04-04T10:29:48.000Z</time>
      </trkpt>
      <trkpt lat="46.12262" lon="7.06396">
        <ele>473.79998779297</ele>
        <time>2023-04-04T10:29:56.000Z</time>
      </trkpt>
      <trkpt lat="46.12251" lon="7.06406">
        <ele>473.79998779297</ele>
        <time>2023-04-04T10:29:59.000Z</time>
      </trkpt>
      <trkpt lat="46.12233" lon="7.0642">
        <ele>474</ele>
        <time>2023-04-04T10:30:04.000Z</time>
      </trkpt>
      <trkpt lat="46.122" lon="7.06447">
        <ele>474.20001220703</ele>
        <time>2023-04-04T10:30:13.000Z</time>
      </trkpt>
      <trkpt lat="46.12193" lon="7.06453">
        <ele>474.20001220703</ele>
        <time>2023-04-04T10:30:15.000Z</time>
      </trkpt>
      <trkpt lat="46.12182" lon="7.06462">
        <ele>474.20001220703</ele>
        <time>2023-04-04T10:30:18.000Z</time>
      </trkpt>
      <trkpt lat="46.12179" lon="7.06466">
        <ele>474.39999389648</ele>
        <time>2023-04-04T10:30:19.000Z</time>
      </trkpt>
      <trkpt lat="46.12172" lon="7.06472">
        <ele>474.20001220703</ele>
        <time>2023-04-04T10:30:21.000Z</time>
      </trkpt>
      <trkpt lat="46.12169" lon="7.06475">
        <ele>474.20001220703</ele>
        <time>2023-04-04T10:30:22.000Z</time>
      </trkpt>
      <trkpt lat="46.12165" lon="7.06478">
        <ele>474.20001220703</ele>
        <time>2023-04-04T10:30:23.000Z</time>
      </trkpt>
      <trkpt lat="46.12161" lon="7.06481">
        <ele>474.20001220703</ele>
        <time>2023-04-04T10:30:24.000Z</time>
      </trkpt>
      <trkpt lat="46.12158" lon="7.06484">
        <ele>474.20001220703</ele>
        <time>2023-04-04T10:30:25.000Z</time>
      </trkpt>
      <trkpt lat="46.12143" lon="7.06496">
        <ele>474.20001220703</ele>
        <time>2023-04-04T10:30:29.000Z</time>
      </trkpt>
      <trkpt lat="46.12112" lon="7.06524">
        <ele>474.60000610352</ele>
        <time>2023-04-04T10:30:38.000Z</time>
      </trkpt>
      <trkpt lat="46.12109" lon="7.06526">
        <ele>474.60000610352</ele>
        <time>2023-04-04T10:30:39.000Z</time>
      </trkpt>
      <trkpt lat="46.12096" lon="7.0654">
        <ele>474.60000610352</ele>
        <time>2023-04-04T10:30:43.000Z</time>
      </trkpt>
      <trkpt lat="46.12092" lon="7.06542">
        <ele>474.60000610352</ele>
        <time>2023-04-04T10:30:44.000Z</time>
      </trkpt>
      <trkpt lat="46.12089" lon="7.06546">
        <ele>474.60000610352</ele>
        <time>2023-04-04T10:30:45.000Z</time>
      </trkpt>
      <trkpt lat="46.12085" lon="7.06549">
        <ele>474.60000610352</ele>
        <time>2023-04-04T10:30:46.000Z</time>
      </trkpt>
      <trkpt lat="46.12048" lon="7.06584">
        <ele>475</ele>
        <time>2023-04-04T10:30:56.000Z</time>
      </trkpt>
      <trkpt lat="46.12034" lon="7.06597">
        <ele>475</ele>
        <time>2023-04-04T10:31:00.000Z</time>
      </trkpt>
      <trkpt lat="46.1203" lon="7.066">
        <ele>475.20001220703</ele>
        <time>2023-04-04T10:31:01.000Z</time>
      </trkpt>
      <trkpt lat="46.12026" lon="7.06603">
        <ele>475.20001220703</ele>
        <time>2023-04-04T10:31:02.000Z</time>
      </trkpt>
      <trkpt lat="46.12023" lon="7.06606">
        <ele>475.20001220703</ele>
        <time>2023-04-04T10:31:03.000Z</time>
      </trkpt>
      <trkpt lat="46.12016" lon="7.06612">
        <ele>475.39999389648</ele>
        <time>2023-04-04T10:31:05.000Z</time>
      </trkpt>
      <trkpt lat="46.12012" lon="7.06615">
        <ele>475.39999389648</ele>
        <time>2023-04-04T10:31:06.000Z</time>
      </trkpt>
      <trkpt lat="46.12005" lon="7.06621">
        <ele>475.60000610352</ele>
        <time>2023-04-04T10:31:08.000Z</time>
      </trkpt>
      <trkpt lat="46.12002" lon="7.06625">
        <ele>475.60000610352</ele>
        <time>2023-04-04T10:31:09.000Z</time>
      </trkpt>
      <trkpt lat="46.11998" lon="7.06628">
        <ele>475.60000610352</ele>
        <time>2023-04-04T10:31:10.000Z</time>
      </trkpt>
      <trkpt lat="46.11994" lon="7.06631">
        <ele>475.60000610352</ele>
        <time>2023-04-04T10:31:11.000Z</time>
      </trkpt>
      <trkpt lat="46.11988" lon="7.06637">
        <ele>475.60000610352</ele>
        <time>2023-04-04T10:31:13.000Z</time>
      </trkpt>
      <trkpt lat="46.11985" lon="7.06639">
        <ele>475.79998779297</ele>
        <time>2023-04-04T10:31:14.000Z</time>
      </trkpt>
      <trkpt lat="46.11975" lon="7.06649">
        <ele>476</ele>
        <time>2023-04-04T10:31:17.000Z</time>
      </trkpt>
      <trkpt lat="46.11954" lon="7.06668">
        <ele>476</ele>
        <time>2023-04-04T10:31:23.000Z</time>
      </trkpt>
      <trkpt lat="46.11918" lon="7.067">
        <ele>475.79998779297</ele>
        <time>2023-04-04T10:31:33.000Z</time>
      </trkpt>
      <trkpt lat="46.11903" lon="7.06718">
        <ele>476</ele>
        <time>2023-04-04T10:31:38.000Z</time>
      </trkpt>
      <trkpt lat="46.11901" lon="7.0672">
        <ele>476</ele>
        <time>2023-04-04T10:31:39.000Z</time>
      </trkpt>
      <trkpt lat="46.11898" lon="7.06722">
        <ele>476</ele>
        <time>2023-04-04T10:31:40.000Z</time>
      </trkpt>
      <trkpt lat="46.11896" lon="7.06724">
        <ele>476.20001220703</ele>
        <time>2023-04-04T10:31:41.000Z</time>
      </trkpt>
      <trkpt lat="46.11893" lon="7.06726">
        <ele>476.20001220703</ele>
        <time>2023-04-04T10:31:42.000Z</time>
      </trkpt>
      <trkpt lat="46.11891" lon="7.06728">
        <ele>476.39999389648</ele>
        <time>2023-04-04T10:31:43.000Z</time>
      </trkpt>
      <trkpt lat="46.11889" lon="7.06729">
        <ele>476.39999389648</ele>
        <time>2023-04-04T10:31:44.000Z</time>
      </trkpt>
      <trkpt lat="46.11886" lon="7.0673">
        <ele>476.60000610352</ele>
        <time>2023-04-04T10:31:45.000Z</time>
      </trkpt>
      <trkpt lat="46.11884" lon="7.06731">
        <ele>476.79998779297</ele>
        <time>2023-04-04T10:31:46.000Z</time>
      </trkpt>
      <trkpt lat="46.11879" lon="7.06734">
        <ele>478</ele>
        <time>2023-04-04T10:31:49.000Z</time>
      </trkpt>
      <trkpt lat="46.11878" lon="7.06736">
        <ele>478.20001220703</ele>
        <time>2023-04-04T10:31:50.000Z</time>
      </trkpt>
      <trkpt lat="46.11876" lon="7.06737">
        <ele>478.39999389648</ele>
        <time>2023-04-04T10:31:51.000Z</time>
      </trkpt>
      <trkpt lat="46.11875" lon="7.06739">
        <ele>478.79998779297</ele>
        <time>2023-04-04T10:31:52.000Z</time>
      </trkpt>
      <trkpt lat="46.11874" lon="7.06742">
        <ele>479</ele>
        <time>2023-04-04T10:31:53.000Z</time>
      </trkpt>
      <trkpt lat="46.11873" lon="7.06745">
        <ele>479.39999389648</ele>
        <time>2023-04-04T10:31:54.000Z</time>
      </trkpt>
      <trkpt lat="46.11873" lon="7.06748">
        <ele>479.39999389648</ele>
        <time>2023-04-04T10:31:55.000Z</time>
      </trkpt>
      <trkpt lat="46.11873" lon="7.06751">
        <ele>479.60000610352</ele>
        <time>2023-04-04T10:31:56.000Z</time>
      </trkpt>
      <trkpt lat="46.11873" lon="7.06754">
        <ele>479.79998779297</ele>
        <time>2023-04-04T10:31:57.000Z</time>
      </trkpt>
      <trkpt lat="46.11874" lon="7.06758">
        <ele>480</ele>
        <time>2023-04-04T10:31:58.000Z</time>
      </trkpt>
      <trkpt lat="46.11875" lon="7.06761">
        <ele>480</ele>
        <time>2023-04-04T10:31:59.000Z</time>
      </trkpt>
      <trkpt lat="46.11876" lon="7.06764">
        <ele>480</ele>
        <time>2023-04-04T10:32:00.000Z</time>
      </trkpt>
      <trkpt lat="46.11877" lon="7.06767">
        <ele>480.20001220703</ele>
        <time>2023-04-04T10:32:01.000Z</time>
      </trkpt>
      <trkpt lat="46.11879" lon="7.06769">
        <ele>480.20001220703</ele>
        <time>2023-04-04T10:32:02.000Z</time>
      </trkpt>
      <trkpt lat="46.1188" lon="7.06771">
        <ele>480.20001220703</ele>
        <time>2023-04-04T10:32:03.000Z</time>
      </trkpt>
      <trkpt lat="46.11881" lon="7.06774">
        <ele>480.20001220703</ele>
        <time>2023-04-04T10:32:04.000Z</time>
      </trkpt>
      <trkpt lat="46.11882" lon="7.06776">
        <ele>480.20001220703</ele>
        <time>2023-04-04T10:32:05.000Z</time>
      </trkpt>
      <trkpt lat="46.11883" lon="7.06779">
        <ele>480.20001220703</ele>
        <time>2023-04-04T10:32:06.000Z</time>
      </trkpt>
      <trkpt lat="46.11884" lon="7.06782">
        <ele>480.20001220703</ele>
        <time>2023-04-04T10:32:07.000Z</time>
      </trkpt>
      <trkpt lat="46.11885" lon="7.06784">
        <ele>480.20001220703</ele>
        <time>2023-04-04T10:32:08.000Z</time>
      </trkpt>
      <trkpt lat="46.11887" lon="7.06787">
        <ele>480.39999389648</ele>
        <time>2023-04-04T10:32:09.000Z</time>
      </trkpt>
      <trkpt lat="46.11889" lon="7.0679">
        <ele>480.39999389648</ele>
        <time>2023-04-04T10:32:10.000Z</time>
      </trkpt>
      <trkpt lat="46.11891" lon="7.06794">
        <ele>480.39999389648</ele>
        <time>2023-04-04T10:32:11.000Z</time>
      </trkpt>
      <trkpt lat="46.11893" lon="7.06797">
        <ele>480.60000610352</ele>
        <time>2023-04-04T10:32:12.000Z</time>
      </trkpt>
      <trkpt lat="46.11895" lon="7.06801">
        <ele>480.60000610352</ele>
        <time>2023-04-04T10:32:13.000Z</time>
      </trkpt>
      <trkpt lat="46.11897" lon="7.06805">
        <ele>480.60000610352</ele>
        <time>2023-04-04T10:32:14.000Z</time>
      </trkpt>
      <trkpt lat="46.119" lon="7.0681">
        <ele>480.60000610352</ele>
        <time>2023-04-04T10:32:15.000Z</time>
      </trkpt>
      <trkpt lat="46.11902" lon="7.06815">
        <ele>480.60000610352</ele>
        <time>2023-04-04T10:32:16.000Z</time>
      </trkpt>
      <trkpt lat="46.11905" lon="7.06821">
        <ele>480.39999389648</ele>
        <time>2023-04-04T10:32:17.000Z</time>
      </trkpt>
      <trkpt lat="46.11919" lon="7.06849">
        <ele>480.20001220703</ele>
        <time>2023-04-04T10:32:21.000Z</time>
      </trkpt>
      <trkpt lat="46.11934" lon="7.06871">
        <ele>479.20001220703</ele>
        <time>2023-04-04T10:32:24.000Z</time>
      </trkpt>
      <trkpt lat="46.11941" lon="7.0688">
        <ele>478.39999389648</ele>
        <time>2023-04-04T10:32:26.000Z</time>
      </trkpt>
      <trkpt lat="46.11947" lon="7.06885">
        <ele>478</ele>
        <time>2023-04-04T10:32:27.000Z</time>
      </trkpt>
      <trkpt lat="46.11957" lon="7.06895">
        <ele>477.39999389648</ele>
        <time>2023-04-04T10:32:28.000Z</time>
      </trkpt>
      <trkpt lat="46.11963" lon="7.06901">
        <ele>477</ele>
        <time>2023-04-04T10:32:29.000Z</time>
      </trkpt>
      <trkpt lat="46.11967" lon="7.06906">
        <ele>476.79998779297</ele>
        <time>2023-04-04T10:32:30.000Z</time>
      </trkpt>
      <trkpt lat="46.11971" lon="7.0691">
        <ele>476.39999389648</ele>
        <time>2023-04-04T10:32:31.000Z</time>
      </trkpt>
      <trkpt lat="46.11974" lon="7.06914">
        <ele>476.20001220703</ele>
        <time>2023-04-04T10:32:32.000Z</time>
      </trkpt>
      <trkpt lat="46.11977" lon="7.06918">
        <ele>476.20001220703</ele>
        <time>2023-04-04T10:32:33.000Z</time>
      </trkpt>
      <trkpt lat="46.11979" lon="7.06921">
        <ele>476</ele>
        <time>2023-04-04T10:32:34.000Z</time>
      </trkpt>
      <trkpt lat="46.1198" lon="7.06925">
        <ele>476</ele>
        <time>2023-04-04T10:32:35.000Z</time>
      </trkpt>
      <trkpt lat="46.11981" lon="7.06927">
        <ele>476</ele>
        <time>2023-04-04T10:32:36.000Z</time>
      </trkpt>
      <trkpt lat="46.11981" lon="7.06928">
        <ele>476.20001220703</ele>
        <time>2023-04-04T10:32:38.000Z</time>
      </trkpt>
      <trkpt lat="46.11979" lon="7.06936">
        <ele>478.60000610352</ele>
        <time>2023-04-04T10:33:26.000Z</time>
      </trkpt>
      <trkpt lat="46.11978" lon="7.06963">
        <ele>478.39999389648</ele>
        <time>2023-04-04T10:33:32.000Z</time>
      </trkpt>
      <trkpt lat="46.11979" lon="7.06983">
        <ele>478</ele>
        <time>2023-04-04T10:33:36.000Z</time>
      </trkpt>
      <trkpt lat="46.1198" lon="7.06993">
        <ele>477.60000610352</ele>
        <time>2023-04-04T10:33:38.000Z</time>
      </trkpt>
      <trkpt lat="46.11981" lon="7.07004">
        <ele>477.39999389648</ele>
        <time>2023-04-04T10:33:40.000Z</time>
      </trkpt>
      <trkpt lat="46.11986" lon="7.07048">
        <ele>477</ele>
        <time>2023-04-04T10:33:48.000Z</time>
      </trkpt>
      <trkpt lat="46.1199" lon="7.07102">
        <ele>477.20001220703</ele>
        <time>2023-04-04T10:33:57.000Z</time>
      </trkpt>
      <trkpt lat="46.11992" lon="7.07126">
        <ele>477.20001220703</ele>
        <time>2023-04-04T10:34:01.000Z</time>
      </trkpt>
      <trkpt lat="46.11992" lon="7.07132">
        <ele>477.20001220703</ele>
        <time>2023-04-04T10:34:02.000Z</time>
      </trkpt>
      <trkpt lat="46.11993" lon="7.07143">
        <ele>477.20001220703</ele>
        <time>2023-04-04T10:34:04.000Z</time>
      </trkpt>
      <trkpt lat="46.11994" lon="7.07149">
        <ele>477.20001220703</ele>
        <time>2023-04-04T10:34:05.000Z</time>
      </trkpt>
      <trkpt lat="46.11995" lon="7.07154">
        <ele>477.39999389648</ele>
        <time>2023-04-04T10:34:06.000Z</time>
      </trkpt>
      <trkpt lat="46.11995" lon="7.0716">
        <ele>477.39999389648</ele>
        <time>2023-04-04T10:34:07.000Z</time>
      </trkpt>
      <trkpt lat="46.11996" lon="7.07166">
        <ele>477.39999389648</ele>
        <time>2023-04-04T10:34:08.000Z</time>
      </trkpt>
      <trkpt lat="46.11996" lon="7.07171">
        <ele>477.39999389648</ele>
        <time>2023-04-04T10:34:09.000Z</time>
      </trkpt>
      <trkpt lat="46.11997" lon="7.07183">
        <ele>477.60000610352</ele>
        <time>2023-04-04T10:34:11.000Z</time>
      </trkpt>
      <trkpt lat="46.11997" lon="7.07188">
        <ele>477.79998779297</ele>
        <time>2023-04-04T10:34:12.000Z</time>
      </trkpt>
      <trkpt lat="46.11998" lon="7.07194">
        <ele>478</ele>
        <time>2023-04-04T10:34:13.000Z</time>
      </trkpt>
      <trkpt lat="46.11999" lon="7.07205">
        <ele>478.20001220703</ele>
        <time>2023-04-04T10:34:15.000Z</time>
      </trkpt>
      <trkpt lat="46.12005" lon="7.07262">
        <ele>478.20001220703</ele>
        <time>2023-04-04T10:34:24.000Z</time>
      </trkpt>
      <trkpt lat="46.12006" lon="7.07279">
        <ele>478</ele>
        <time>2023-04-04T10:34:27.000Z</time>
      </trkpt>
      <trkpt lat="46.12007" lon="7.07285">
        <ele>478</ele>
        <time>2023-04-04T10:34:28.000Z</time>
      </trkpt>
      <trkpt lat="46.12008" lon="7.07291">
        <ele>478</ele>
        <time>2023-04-04T10:34:29.000Z</time>
      </trkpt>
      <trkpt lat="46.12009" lon="7.07297">
        <ele>478</ele>
        <time>2023-04-04T10:34:30.000Z</time>
      </trkpt>
      <trkpt lat="46.12009" lon="7.07303">
        <ele>477.79998779297</ele>
        <time>2023-04-04T10:34:31.000Z</time>
      </trkpt>
      <trkpt lat="46.12011" lon="7.0732">
        <ele>477.79998779297</ele>
        <time>2023-04-04T10:34:34.000Z</time>
      </trkpt>
      <trkpt lat="46.12017" lon="7.07375">
        <ele>477</ele>
        <time>2023-04-04T10:34:43.000Z</time>
      </trkpt>
      <trkpt lat="46.12017" lon="7.07387">
        <ele>476.79998779297</ele>
        <time>2023-04-04T10:34:45.000Z</time>
      </trkpt>
      <trkpt lat="46.12018" lon="7.07399">
        <ele>476.60000610352</ele>
        <time>2023-04-04T10:34:47.000Z</time>
      </trkpt>
      <trkpt lat="46.12019" lon="7.07405">
        <ele>476.60000610352</ele>
        <time>2023-04-04T10:34:48.000Z</time>
      </trkpt>
      <trkpt lat="46.1202" lon="7.07417">
        <ele>476.60000610352</ele>
        <time>2023-04-04T10:34:50.000Z</time>
      </trkpt>
      <trkpt lat="46.1202" lon="7.07429">
        <ele>476.60000610352</ele>
        <time>2023-04-04T10:34:52.000Z</time>
      </trkpt>
      <trkpt lat="46.1202" lon="7.07435">
        <ele>476.79998779297</ele>
        <time>2023-04-04T10:34:53.000Z</time>
      </trkpt>
      <trkpt lat="46.12023" lon="7.07476">
        <ele>476.79998779297</ele>
        <time>2023-04-04T10:35:00.000Z</time>
      </trkpt>
      <trkpt lat="46.12026" lon="7.07505">
        <ele>476.39999389648</ele>
        <time>2023-04-04T10:35:05.000Z</time>
      </trkpt>
      <trkpt lat="46.12026" lon="7.07511">
        <ele>476.20001220703</ele>
        <time>2023-04-04T10:35:06.000Z</time>
      </trkpt>
      <trkpt lat="46.12027" lon="7.07522">
        <ele>476.20001220703</ele>
        <time>2023-04-04T10:35:08.000Z</time>
      </trkpt>
      <trkpt lat="46.12027" lon="7.07526">
        <ele>476.20001220703</ele>
        <time>2023-04-04T10:35:09.000Z</time>
      </trkpt>
      <trkpt lat="46.12028" lon="7.07532">
        <ele>476.20001220703</ele>
        <time>2023-04-04T10:35:10.000Z</time>
      </trkpt>
      <trkpt lat="46.12029" lon="7.07555">
        <ele>476</ele>
        <time>2023-04-04T10:35:14.000Z</time>
      </trkpt>
      <trkpt lat="46.1203" lon="7.07561">
        <ele>476</ele>
        <time>2023-04-04T10:35:15.000Z</time>
      </trkpt>
      <trkpt lat="46.12032" lon="7.07585">
        <ele>476</ele>
        <time>2023-04-04T10:35:19.000Z</time>
      </trkpt>
      <trkpt lat="46.12033" lon="7.0761">
        <ele>476</ele>
        <time>2023-04-04T10:35:23.000Z</time>
      </trkpt>
      <trkpt lat="46.12036" lon="7.07685">
        <ele>475.60000610352</ele>
        <time>2023-04-04T10:35:35.000Z</time>
      </trkpt>
      <trkpt lat="46.12037" lon="7.07698">
        <ele>475.79998779297</ele>
        <time>2023-04-04T10:35:37.000Z</time>
      </trkpt>
      <trkpt lat="46.12038" lon="7.0771">
        <ele>476</ele>
        <time>2023-04-04T10:35:39.000Z</time>
      </trkpt>
      <trkpt lat="46.12038" lon="7.07716">
        <ele>476</ele>
        <time>2023-04-04T10:35:40.000Z</time>
      </trkpt>
      <trkpt lat="46.12039" lon="7.07722">
        <ele>476</ele>
        <time>2023-04-04T10:35:41.000Z</time>
      </trkpt>
      <trkpt lat="46.12041" lon="7.07735">
        <ele>476.39999389648</ele>
        <time>2023-04-04T10:35:43.000Z</time>
      </trkpt>
      <trkpt lat="46.12044" lon="7.0776">
        <ele>476.79998779297</ele>
        <time>2023-04-04T10:35:47.000Z</time>
      </trkpt>
      <trkpt lat="46.12046" lon="7.07778">
        <ele>476.79998779297</ele>
        <time>2023-04-04T10:35:50.000Z</time>
      </trkpt>
      <trkpt lat="46.12047" lon="7.07784">
        <ele>477</ele>
        <time>2023-04-04T10:35:51.000Z</time>
      </trkpt>
      <trkpt lat="46.12049" lon="7.07796">
        <ele>477</ele>
        <time>2023-04-04T10:35:53.000Z</time>
      </trkpt>
      <trkpt lat="46.1205" lon="7.07802">
        <ele>477</ele>
        <time>2023-04-04T10:35:54.000Z</time>
      </trkpt>
      <trkpt lat="46.1205" lon="7.07809">
        <ele>477</ele>
        <time>2023-04-04T10:35:55.000Z</time>
      </trkpt>
      <trkpt lat="46.12051" lon="7.07815">
        <ele>477</ele>
        <time>2023-04-04T10:35:56.000Z</time>
      </trkpt>
      <trkpt lat="46.12052" lon="7.07821">
        <ele>477</ele>
        <time>2023-04-04T10:35:57.000Z</time>
      </trkpt>
      <trkpt lat="46.12052" lon="7.07826">
        <ele>477</ele>
        <time>2023-04-04T10:35:58.000Z</time>
      </trkpt>
      <trkpt lat="46.12053" lon="7.07833">
        <ele>476.79998779297</ele>
        <time>2023-04-04T10:35:59.000Z</time>
      </trkpt>
      <trkpt lat="46.12056" lon="7.07857">
        <ele>476</ele>
        <time>2023-04-04T10:36:03.000Z</time>
      </trkpt>
      <trkpt lat="46.12063" lon="7.07906">
        <ele>476.39999389648</ele>
        <time>2023-04-04T10:36:11.000Z</time>
      </trkpt>
      <trkpt lat="46.12075" lon="7.07982">
        <ele>476.60000610352</ele>
        <time>2023-04-04T10:36:23.000Z</time>
      </trkpt>
      <trkpt lat="46.12083" lon="7.08027">
        <ele>476.60000610352</ele>
        <time>2023-04-04T10:36:30.000Z</time>
      </trkpt>
      <trkpt lat="46.1209" lon="7.08067">
        <ele>476.60000610352</ele>
        <time>2023-04-04T10:36:36.000Z</time>
      </trkpt>
      <trkpt lat="46.12093" lon="7.08079">
        <ele>476.60000610352</ele>
        <time>2023-04-04T10:36:38.000Z</time>
      </trkpt>
      <trkpt lat="46.12095" lon="7.08085">
        <ele>476.60000610352</ele>
        <time>2023-04-04T10:36:39.000Z</time>
      </trkpt>
      <trkpt lat="46.12097" lon="7.08096">
        <ele>476.60000610352</ele>
        <time>2023-04-04T10:36:41.000Z</time>
      </trkpt>
      <trkpt lat="46.12098" lon="7.08102">
        <ele>476.60000610352</ele>
        <time>2023-04-04T10:36:42.000Z</time>
      </trkpt>
      <trkpt lat="46.12099" lon="7.08114">
        <ele>476.60000610352</ele>
        <time>2023-04-04T10:36:44.000Z</time>
      </trkpt>
      <trkpt lat="46.12108" lon="7.08174">
        <ele>477.39999389648</ele>
        <time>2023-04-04T10:36:53.000Z</time>
      </trkpt>
      <trkpt lat="46.12116" lon="7.08229">
        <ele>477.60000610352</ele>
        <time>2023-04-04T10:37:01.000Z</time>
      </trkpt>
      <trkpt lat="46.12122" lon="7.08264">
        <ele>477.79998779297</ele>
        <time>2023-04-04T10:37:06.000Z</time>
      </trkpt>
      <trkpt lat="46.12126" lon="7.08291">
        <ele>478.20001220703</ele>
        <time>2023-04-04T10:37:10.000Z</time>
      </trkpt>
      <trkpt lat="46.12135" lon="7.08359">
        <ele>478.39999389648</ele>
        <time>2023-04-04T10:37:20.000Z</time>
      </trkpt>
      <trkpt lat="46.12138" lon="7.08379">
        <ele>478.39999389648</ele>
        <time>2023-04-04T10:37:23.000Z</time>
      </trkpt>
      <trkpt lat="46.1214" lon="7.08385">
        <ele>478.39999389648</ele>
        <time>2023-04-04T10:37:24.000Z</time>
      </trkpt>
      <trkpt lat="46.12141" lon="7.08391">
        <ele>478.20001220703</ele>
        <time>2023-04-04T10:37:25.000Z</time>
      </trkpt>
      <trkpt lat="46.12143" lon="7.08397">
        <ele>478.20001220703</ele>
        <time>2023-04-04T10:37:26.000Z</time>
      </trkpt>
      <trkpt lat="46.12144" lon="7.08403">
        <ele>478.20001220703</ele>
        <time>2023-04-04T10:37:27.000Z</time>
      </trkpt>
      <trkpt lat="46.12145" lon="7.08409">
        <ele>478</ele>
        <time>2023-04-04T10:37:28.000Z</time>
      </trkpt>
      <trkpt lat="46.12145" lon="7.08414">
        <ele>478.20001220703</ele>
        <time>2023-04-04T10:37:30.000Z</time>
      </trkpt>
      <trkpt lat="46.12145" lon="7.08418">
        <ele>478</ele>
        <time>2023-04-04T10:37:31.000Z</time>
      </trkpt>
      <trkpt lat="46.12145" lon="7.08422">
        <ele>478</ele>
        <time>2023-04-04T10:37:32.000Z</time>
      </trkpt>
      <trkpt lat="46.12144" lon="7.08425">
        <ele>478</ele>
        <time>2023-04-04T10:37:33.000Z</time>
      </trkpt>
      <trkpt lat="46.12144" lon="7.08427">
        <ele>478</ele>
        <time>2023-04-04T10:37:34.000Z</time>
      </trkpt>
      <trkpt lat="46.12144" lon="7.08428">
        <ele>478</ele>
        <time>2023-04-04T10:37:36.000Z</time>
      </trkpt>
      <trkpt lat="46.12147" lon="7.08438">
        <ele>479.20001220703</ele>
        <time>2023-04-04T10:37:47.000Z</time>
      </trkpt>
      <trkpt lat="46.12148" lon="7.0844">
        <ele>479.20001220703</ele>
        <time>2023-04-04T10:37:48.000Z</time>
      </trkpt>
      <trkpt lat="46.1215" lon="7.08442">
        <ele>479.20001220703</ele>
        <time>2023-04-04T10:37:49.000Z</time>
      </trkpt>
      <trkpt lat="46.12152" lon="7.08443">
        <ele>479.39999389648</ele>
        <time>2023-04-04T10:37:50.000Z</time>
      </trkpt>
      <trkpt lat="46.12154" lon="7.08445">
        <ele>479.39999389648</ele>
        <time>2023-04-04T10:37:51.000Z</time>
      </trkpt>
      <trkpt lat="46.12159" lon="7.0845">
        <ele>479.39999389648</ele>
        <time>2023-04-04T10:37:53.000Z</time>
      </trkpt>
      <trkpt lat="46.12176" lon="7.08466">
        <ele>479.39999389648</ele>
        <time>2023-04-04T10:38:00.000Z</time>
      </trkpt>
      <trkpt lat="46.12197" lon="7.08487">
        <ele>479.20001220703</ele>
        <time>2023-04-04T10:38:08.000Z</time>
      </trkpt>
      <trkpt lat="46.12202" lon="7.08492">
        <ele>479.20001220703</ele>
        <time>2023-04-04T10:38:10.000Z</time>
      </trkpt>
      <trkpt lat="46.12204" lon="7.08494">
        <ele>479.20001220703</ele>
        <time>2023-04-04T10:38:11.000Z</time>
      </trkpt>
      <trkpt lat="46.12206" lon="7.08497">
        <ele>479.20001220703</ele>
        <time>2023-04-04T10:38:12.000Z</time>
      </trkpt>
      <trkpt lat="46.12208" lon="7.08499">
        <ele>479</ele>
        <time>2023-04-04T10:38:13.000Z</time>
      </trkpt>
      <trkpt lat="46.12211" lon="7.08501">
        <ele>479</ele>
        <time>2023-04-04T10:38:14.000Z</time>
      </trkpt>
      <trkpt lat="46.12213" lon="7.08503">
        <ele>479</ele>
        <time>2023-04-04T10:38:15.000Z</time>
      </trkpt>
      <trkpt lat="46.12215" lon="7.08505">
        <ele>478.79998779297</ele>
        <time>2023-04-04T10:38:16.000Z</time>
      </trkpt>
      <trkpt lat="46.12217" lon="7.08507">
        <ele>478.79998779297</ele>
        <time>2023-04-04T10:38:17.000Z</time>
      </trkpt>
      <trkpt lat="46.1222" lon="7.08509">
        <ele>478.79998779297</ele>
        <time>2023-04-04T10:38:18.000Z</time>
      </trkpt>
      <trkpt lat="46.12222" lon="7.08511">
        <ele>478.60000610352</ele>
        <time>2023-04-04T10:38:19.000Z</time>
      </trkpt>
      <trkpt lat="46.12224" lon="7.08513">
        <ele>478.60000610352</ele>
        <time>2023-04-04T10:38:20.000Z</time>
      </trkpt>
      <trkpt lat="46.12225" lon="7.08515">
        <ele>478.60000610352</ele>
        <time>2023-04-04T10:38:21.000Z</time>
      </trkpt>
      <trkpt lat="46.12227" lon="7.08517">
        <ele>478.60000610352</ele>
        <time>2023-04-04T10:38:22.000Z</time>
      </trkpt>
      <trkpt lat="46.12229" lon="7.08519">
        <ele>478.60000610352</ele>
        <time>2023-04-04T10:38:23.000Z</time>
      </trkpt>
      <trkpt lat="46.1223" lon="7.08521">
        <ele>478.60000610352</ele>
        <time>2023-04-04T10:38:24.000Z</time>
      </trkpt>
      <trkpt lat="46.12232" lon="7.08523">
        <ele>478.60000610352</ele>
        <time>2023-04-04T10:38:25.000Z</time>
      </trkpt>
      <trkpt lat="46.12234" lon="7.08524">
        <ele>478.60000610352</ele>
        <time>2023-04-04T10:38:26.000Z</time>
      </trkpt>
      <trkpt lat="46.12236" lon="7.08526">
        <ele>478.39999389648</ele>
        <time>2023-04-04T10:38:27.000Z</time>
      </trkpt>
      <trkpt lat="46.12238" lon="7.08528">
        <ele>478.39999389648</ele>
        <time>2023-04-04T10:38:28.000Z</time>
      </trkpt>
      <trkpt lat="46.1224" lon="7.08529">
        <ele>478.39999389648</ele>
        <time>2023-04-04T10:38:29.000Z</time>
      </trkpt>
      <trkpt lat="46.12242" lon="7.08531">
        <ele>478.39999389648</ele>
        <time>2023-04-04T10:38:30.000Z</time>
      </trkpt>
      <trkpt lat="46.12259" lon="7.0855">
        <ele>478.79998779297</ele>
        <time>2023-04-04T10:38:38.000Z</time>
      </trkpt>
      <trkpt lat="46.12279" lon="7.08572">
        <ele>479.39999389648</ele>
        <time>2023-04-04T10:38:46.000Z</time>
      </trkpt>
      <trkpt lat="46.12291" lon="7.08586">
        <ele>480</ele>
        <time>2023-04-04T10:38:51.000Z</time>
      </trkpt>
      <trkpt lat="46.12293" lon="7.08589">
        <ele>480</ele>
        <time>2023-04-04T10:38:52.000Z</time>
      </trkpt>
      <trkpt lat="46.12296" lon="7.08591">
        <ele>480</ele>
        <time>2023-04-04T10:38:53.000Z</time>
      </trkpt>
      <trkpt lat="46.12298" lon="7.08594">
        <ele>480.20001220703</ele>
        <time>2023-04-04T10:38:54.000Z</time>
      </trkpt>
      <trkpt lat="46.12299" lon="7.08597">
        <ele>480.20001220703</ele>
        <time>2023-04-04T10:38:55.000Z</time>
      </trkpt>
      <trkpt lat="46.12302" lon="7.086">
        <ele>480.39999389648</ele>
        <time>2023-04-04T10:38:56.000Z</time>
      </trkpt>
      <trkpt lat="46.12304" lon="7.08602">
        <ele>480.60000610352</ele>
        <time>2023-04-04T10:38:57.000Z</time>
      </trkpt>
      <trkpt lat="46.12306" lon="7.08604">
        <ele>480.79998779297</ele>
        <time>2023-04-04T10:38:58.000Z</time>
      </trkpt>
      <trkpt lat="46.12309" lon="7.08607">
        <ele>481</ele>
        <time>2023-04-04T10:38:59.000Z</time>
      </trkpt>
      <trkpt lat="46.12311" lon="7.08609">
        <ele>481</ele>
        <time>2023-04-04T10:39:00.000Z</time>
      </trkpt>
      <trkpt lat="46.12313" lon="7.08612">
        <ele>481.39999389648</ele>
        <time>2023-04-04T10:39:01.000Z</time>
      </trkpt>
      <trkpt lat="46.12316" lon="7.08614">
        <ele>481.39999389648</ele>
        <time>2023-04-04T10:39:02.000Z</time>
      </trkpt>
      <trkpt lat="46.1232" lon="7.08619">
        <ele>482</ele>
        <time>2023-04-04T10:39:04.000Z</time>
      </trkpt>
      <trkpt lat="46.12323" lon="7.08621">
        <ele>482</ele>
        <time>2023-04-04T10:39:05.000Z</time>
      </trkpt>
      <trkpt lat="46.12331" lon="7.08627">
        <ele>482.60000610352</ele>
        <time>2023-04-04T10:39:08.000Z</time>
      </trkpt>
      <trkpt lat="46.12333" lon="7.08629">
        <ele>482.60000610352</ele>
        <time>2023-04-04T10:39:09.000Z</time>
      </trkpt>
      <trkpt lat="46.12336" lon="7.0863">
        <ele>483</ele>
        <time>2023-04-04T10:39:10.000Z</time>
      </trkpt>
      <trkpt lat="46.12338" lon="7.08632">
        <ele>483</ele>
        <time>2023-04-04T10:39:11.000Z</time>
      </trkpt>
      <trkpt lat="46.1234" lon="7.08633">
        <ele>483.20001220703</ele>
        <time>2023-04-04T10:39:12.000Z</time>
      </trkpt>
      <trkpt lat="46.12343" lon="7.08634">
        <ele>483.20001220703</ele>
        <time>2023-04-04T10:39:13.000Z</time>
      </trkpt>
      <trkpt lat="46.12346" lon="7.08635">
        <ele>483.39999389648</ele>
        <time>2023-04-04T10:39:14.000Z</time>
      </trkpt>
      <trkpt lat="46.12349" lon="7.08636">
        <ele>483.60000610352</ele>
        <time>2023-04-04T10:39:15.000Z</time>
      </trkpt>
      <trkpt lat="46.12352" lon="7.08637">
        <ele>483.60000610352</ele>
        <time>2023-04-04T10:39:16.000Z</time>
      </trkpt>
      <trkpt lat="46.12355" lon="7.08638">
        <ele>483.79998779297</ele>
        <time>2023-04-04T10:39:17.000Z</time>
      </trkpt>
      <trkpt lat="46.12358" lon="7.08638">
        <ele>484</ele>
        <time>2023-04-04T10:39:18.000Z</time>
      </trkpt>
      <trkpt lat="46.12361" lon="7.08639">
        <ele>484.20001220703</ele>
        <time>2023-04-04T10:39:19.000Z</time>
      </trkpt>
      <trkpt lat="46.12364" lon="7.08639">
        <ele>484.39999389648</ele>
        <time>2023-04-04T10:39:20.000Z</time>
      </trkpt>
      <trkpt lat="46.12367" lon="7.08639">
        <ele>484.39999389648</ele>
        <time>2023-04-04T10:39:21.000Z</time>
      </trkpt>
      <trkpt lat="46.1237" lon="7.08639">
        <ele>484.60000610352</ele>
        <time>2023-04-04T10:39:22.000Z</time>
      </trkpt>
      <trkpt lat="46.12373" lon="7.08639">
        <ele>484.79998779297</ele>
        <time>2023-04-04T10:39:23.000Z</time>
      </trkpt>
      <trkpt lat="46.12377" lon="7.08639">
        <ele>485</ele>
        <time>2023-04-04T10:39:24.000Z</time>
      </trkpt>
      <trkpt lat="46.1238" lon="7.08638">
        <ele>485.20001220703</ele>
        <time>2023-04-04T10:39:25.000Z</time>
      </trkpt>
      <trkpt lat="46.12383" lon="7.08638">
        <ele>485.39999389648</ele>
        <time>2023-04-04T10:39:26.000Z</time>
      </trkpt>
      <trkpt lat="46.12386" lon="7.08637">
        <ele>485.60000610352</ele>
        <time>2023-04-04T10:39:27.000Z</time>
      </trkpt>
      <trkpt lat="46.12389" lon="7.08637">
        <ele>485.79998779297</ele>
        <time>2023-04-04T10:39:28.000Z</time>
      </trkpt>
      <trkpt lat="46.12392" lon="7.08636">
        <ele>486</ele>
        <time>2023-04-04T10:39:29.000Z</time>
      </trkpt>
      <trkpt lat="46.12396" lon="7.08636">
        <ele>486.39999389648</ele>
        <time>2023-04-04T10:39:30.000Z</time>
      </trkpt>
      <trkpt lat="46.12399" lon="7.08635">
        <ele>486.39999389648</ele>
        <time>2023-04-04T10:39:31.000Z</time>
      </trkpt>
      <trkpt lat="46.12402" lon="7.08635">
        <ele>486.60000610352</ele>
        <time>2023-04-04T10:39:32.000Z</time>
      </trkpt>
      <trkpt lat="46.12406" lon="7.08634">
        <ele>486.60000610352</ele>
        <time>2023-04-04T10:39:33.000Z</time>
      </trkpt>
      <trkpt lat="46.12409" lon="7.08634">
        <ele>486.39999389648</ele>
        <time>2023-04-04T10:39:34.000Z</time>
      </trkpt>
      <trkpt lat="46.12413" lon="7.08633">
        <ele>486.79998779297</ele>
        <time>2023-04-04T10:39:35.000Z</time>
      </trkpt>
      <trkpt lat="46.12416" lon="7.08633">
        <ele>487</ele>
        <time>2023-04-04T10:39:36.000Z</time>
      </trkpt>
      <trkpt lat="46.1242" lon="7.08632">
        <ele>487.39999389648</ele>
        <time>2023-04-04T10:39:37.000Z</time>
      </trkpt>
      <trkpt lat="46.12423" lon="7.08631">
        <ele>487.60000610352</ele>
        <time>2023-04-04T10:39:38.000Z</time>
      </trkpt>
      <trkpt lat="46.12427" lon="7.08631">
        <ele>487.79998779297</ele>
        <time>2023-04-04T10:39:39.000Z</time>
      </trkpt>
      <trkpt lat="46.12432" lon="7.0863">
        <ele>487.79998779297</ele>
        <time>2023-04-04T10:39:40.000Z</time>
      </trkpt>
      <trkpt lat="46.12436" lon="7.08629">
        <ele>487.79998779297</ele>
        <time>2023-04-04T10:39:41.000Z</time>
      </trkpt>
      <trkpt lat="46.1244" lon="7.08628">
        <ele>488</ele>
        <time>2023-04-04T10:39:42.000Z</time>
      </trkpt>
      <trkpt lat="46.12445" lon="7.08627">
        <ele>488</ele>
        <time>2023-04-04T10:39:43.000Z</time>
      </trkpt>
      <trkpt lat="46.12448" lon="7.08625">
        <ele>488</ele>
        <time>2023-04-04T10:39:44.000Z</time>
      </trkpt>
      <trkpt lat="46.12452" lon="7.08623">
        <ele>488</ele>
        <time>2023-04-04T10:39:45.000Z</time>
      </trkpt>
      <trkpt lat="46.12456" lon="7.08621">
        <ele>487.79998779297</ele>
        <time>2023-04-04T10:39:46.000Z</time>
      </trkpt>
      <trkpt lat="46.1246" lon="7.0862">
        <ele>487.79998779297</ele>
        <time>2023-04-04T10:39:47.000Z</time>
      </trkpt>
      <trkpt lat="46.12463" lon="7.08618">
        <ele>487.79998779297</ele>
        <time>2023-04-04T10:39:48.000Z</time>
      </trkpt>
      <trkpt lat="46.12467" lon="7.08616">
        <ele>487.60000610352</ele>
        <time>2023-04-04T10:39:49.000Z</time>
      </trkpt>
      <trkpt lat="46.1247" lon="7.08613">
        <ele>487.39999389648</ele>
        <time>2023-04-04T10:39:50.000Z</time>
      </trkpt>
      <trkpt lat="46.12473" lon="7.0861">
        <ele>487</ele>
        <time>2023-04-04T10:39:51.000Z</time>
      </trkpt>
      <trkpt lat="46.12475" lon="7.08607">
        <ele>486.79998779297</ele>
        <time>2023-04-04T10:39:52.000Z</time>
      </trkpt>
      <trkpt lat="46.12477" lon="7.08603">
        <ele>486.60000610352</ele>
        <time>2023-04-04T10:39:53.000Z</time>
      </trkpt>
      <trkpt lat="46.12479" lon="7.08598">
        <ele>486.39999389648</ele>
        <time>2023-04-04T10:39:54.000Z</time>
      </trkpt>
      <trkpt lat="46.12481" lon="7.08594">
        <ele>486.20001220703</ele>
        <time>2023-04-04T10:39:55.000Z</time>
      </trkpt>
      <trkpt lat="46.12482" lon="7.08589">
        <ele>486</ele>
        <time>2023-04-04T10:39:56.000Z</time>
      </trkpt>
      <trkpt lat="46.12483" lon="7.08585">
        <ele>486</ele>
        <time>2023-04-04T10:39:57.000Z</time>
      </trkpt>
      <trkpt lat="46.12482" lon="7.08581">
        <ele>485.60000610352</ele>
        <time>2023-04-04T10:39:58.000Z</time>
      </trkpt>
      <trkpt lat="46.12482" lon="7.08577">
        <ele>485.39999389648</ele>
        <time>2023-04-04T10:39:59.000Z</time>
      </trkpt>
      <trkpt lat="46.12481" lon="7.08575">
        <ele>485.20001220703</ele>
        <time>2023-04-04T10:40:00.000Z</time>
      </trkpt>
      <trkpt lat="46.12479" lon="7.08572">
        <ele>485</ele>
        <time>2023-04-04T10:40:01.000Z</time>
      </trkpt>
      <trkpt lat="46.12478" lon="7.0857">
        <ele>484.79998779297</ele>
        <time>2023-04-04T10:40:02.000Z</time>
      </trkpt>
      <trkpt lat="46.12476" lon="7.08568">
        <ele>484.60000610352</ele>
        <time>2023-04-04T10:40:03.000Z</time>
      </trkpt>
      <trkpt lat="46.12474" lon="7.08567">
        <ele>484.39999389648</ele>
        <time>2023-04-04T10:40:04.000Z</time>
      </trkpt>
      <trkpt lat="46.12472" lon="7.08566">
        <ele>484.39999389648</ele>
        <time>2023-04-04T10:40:05.000Z</time>
      </trkpt>
      <trkpt lat="46.12469" lon="7.08565">
        <ele>484.20001220703</ele>
        <time>2023-04-04T10:40:06.000Z</time>
      </trkpt>
      <trkpt lat="46.12463" lon="7.08563">
        <ele>484.20001220703</ele>
        <time>2023-04-04T10:40:08.000Z</time>
      </trkpt>
      <trkpt lat="46.12451" lon="7.08565">
        <ele>484</ele>
        <time>2023-04-04T10:40:13.000Z</time>
      </trkpt>
      <trkpt lat="46.12447" lon="7.08566">
        <ele>484</ele>
        <time>2023-04-04T10:40:15.000Z</time>
      </trkpt>
      <trkpt lat="46.12445" lon="7.08569">
        <ele>484</ele>
        <time>2023-04-04T10:40:16.000Z</time>
      </trkpt>
      <trkpt lat="46.12444" lon="7.08571">
        <ele>484</ele>
        <time>2023-04-04T10:40:17.000Z</time>
      </trkpt>
      <trkpt lat="46.12444" lon="7.08574">
        <ele>483.79998779297</ele>
        <time>2023-04-04T10:40:18.000Z</time>
      </trkpt>
      <trkpt lat="46.12444" lon="7.08577">
        <ele>484</ele>
        <time>2023-04-04T10:40:19.000Z</time>
      </trkpt>
      <trkpt lat="46.12444" lon="7.08581">
        <ele>483.79998779297</ele>
        <time>2023-04-04T10:40:20.000Z</time>
      </trkpt>
      <trkpt lat="46.12445" lon="7.08585">
        <ele>483.60000610352</ele>
        <time>2023-04-04T10:40:21.000Z</time>
      </trkpt>
      <trkpt lat="46.12446" lon="7.08589">
        <ele>483.39999389648</ele>
        <time>2023-04-04T10:40:22.000Z</time>
      </trkpt>
      <trkpt lat="46.12447" lon="7.08593">
        <ele>483.39999389648</ele>
        <time>2023-04-04T10:40:23.000Z</time>
      </trkpt>
      <trkpt lat="46.12452" lon="7.08607">
        <ele>483.20001220703</ele>
        <time>2023-04-04T10:40:26.000Z</time>
      </trkpt>
      <trkpt lat="46.12455" lon="7.08624">
        <ele>482.79998779297</ele>
        <time>2023-04-04T10:40:30.000Z</time>
      </trkpt>
      <trkpt lat="46.12456" lon="7.08629">
        <ele>482.60000610352</ele>
        <time>2023-04-04T10:40:31.000Z</time>
      </trkpt>
      <trkpt lat="46.12457" lon="7.08634">
        <ele>482.39999389648</ele>
        <time>2023-04-04T10:40:32.000Z</time>
      </trkpt>
      <trkpt lat="46.12458" lon="7.08638">
        <ele>482.39999389648</ele>
        <time>2023-04-04T10:40:33.000Z</time>
      </trkpt>
      <trkpt lat="46.1246" lon="7.08642">
        <ele>482.39999389648</ele>
        <time>2023-04-04T10:40:34.000Z</time>
      </trkpt>
      <trkpt lat="46.12463" lon="7.08651">
        <ele>482.20001220703</ele>
        <time>2023-04-04T10:40:36.000Z</time>
      </trkpt>
      <trkpt lat="46.12475" lon="7.087">
        <ele>482.20001220703</ele>
        <time>2023-04-04T10:40:46.000Z</time>
      </trkpt>
      <trkpt lat="46.12483" lon="7.08732">
        <ele>482.39999389648</ele>
        <time>2023-04-04T10:40:52.000Z</time>
      </trkpt>
      <trkpt lat="46.12493" lon="7.0877">
        <ele>482.60000610352</ele>
        <time>2023-04-04T10:40:59.000Z</time>
      </trkpt>
      <trkpt lat="46.12504" lon="7.08823">
        <ele>482.79998779297</ele>
        <time>2023-04-04T10:41:08.000Z</time>
      </trkpt>
      <trkpt lat="46.12516" lon="7.08875">
        <ele>483</ele>
        <time>2023-04-04T10:41:17.000Z</time>
      </trkpt>
      <trkpt lat="46.12529" lon="7.0893">
        <ele>483.20001220703</ele>
        <time>2023-04-04T10:41:26.000Z</time>
      </trkpt>
      <trkpt lat="46.12538" lon="7.08967">
        <ele>483</ele>
        <time>2023-04-04T10:41:32.000Z</time>
      </trkpt>
      <trkpt lat="46.12539" lon="7.08973">
        <ele>483</ele>
        <time>2023-04-04T10:41:33.000Z</time>
      </trkpt>
      <trkpt lat="46.12546" lon="7.09002">
        <ele>483</ele>
        <time>2023-04-04T10:41:38.000Z</time>
      </trkpt>
      <trkpt lat="46.12548" lon="7.09009">
        <ele>483</ele>
        <time>2023-04-04T10:41:39.000Z</time>
      </trkpt>
      <trkpt lat="46.12551" lon="7.09021">
        <ele>483</ele>
        <time>2023-04-04T10:41:41.000Z</time>
      </trkpt>
      <trkpt lat="46.12553" lon="7.0904">
        <ele>483</ele>
        <time>2023-04-04T10:41:44.000Z</time>
      </trkpt>
      <trkpt lat="46.12562" lon="7.09077">
        <ele>483</ele>
        <time>2023-04-04T10:41:50.000Z</time>
      </trkpt>
      <trkpt lat="46.12567" lon="7.09094">
        <ele>483</ele>
        <time>2023-04-04T10:41:53.000Z</time>
      </trkpt>
      <trkpt lat="46.12569" lon="7.09099">
        <ele>483</ele>
        <time>2023-04-04T10:41:54.000Z</time>
      </trkpt>
      <trkpt lat="46.1257" lon="7.09104">
        <ele>483</ele>
        <time>2023-04-04T10:41:55.000Z</time>
      </trkpt>
      <trkpt lat="46.12571" lon="7.09107">
        <ele>483</ele>
        <time>2023-04-04T10:41:56.000Z</time>
      </trkpt>
      <trkpt lat="46.12572" lon="7.09111">
        <ele>483</ele>
        <time>2023-04-04T10:41:57.000Z</time>
      </trkpt>
      <trkpt lat="46.12573" lon="7.09114">
        <ele>483</ele>
        <time>2023-04-04T10:41:58.000Z</time>
      </trkpt>
      <trkpt lat="46.12573" lon="7.09117">
        <ele>483</ele>
        <time>2023-04-04T10:41:59.000Z</time>
      </trkpt>
      <trkpt lat="46.12573" lon="7.09119">
        <ele>483</ele>
        <time>2023-04-04T10:42:00.000Z</time>
      </trkpt>
      <trkpt lat="46.12573" lon="7.09119">
        <ele>483.20001220703</ele>
        <time>2023-04-04T10:42:01.000Z</time>
      </trkpt>
      <trkpt lat="46.12573" lon="7.09119">
        <ele>483.20001220703</ele>
        <time>2023-04-04T10:42:02.000Z</time>
      </trkpt>
      <trkpt lat="46.12574" lon="7.09123">
        <ele>490.39999389648</ele>
        <time>2023-04-04T11:32:39.000Z</time>
      </trkpt>
      <trkpt lat="46.12576" lon="7.09133">
        <ele>490.39999389648</ele>
        <time>2023-04-04T11:32:42.000Z</time>
      </trkpt>
      <trkpt lat="46.12579" lon="7.09147">
        <ele>490.39999389648</ele>
        <time>2023-04-04T11:32:46.000Z</time>
      </trkpt>
      <trkpt lat="46.12581" lon="7.09159">
        <ele>490.20001220703</ele>
        <time>2023-04-04T11:32:49.000Z</time>
      </trkpt>
      <trkpt lat="46.12588" lon="7.09192">
        <ele>489.20001220703</ele>
        <time>2023-04-04T11:32:57.000Z</time>
      </trkpt>
      <trkpt lat="46.12595" lon="7.09228">
        <ele>489</ele>
        <time>2023-04-04T11:33:05.000Z</time>
      </trkpt>
      <trkpt lat="46.126" lon="7.09251">
        <ele>489</ele>
        <time>2023-04-04T11:33:09.000Z</time>
      </trkpt>
      <trkpt lat="46.12603" lon="7.09262">
        <ele>489.20001220703</ele>
        <time>2023-04-04T11:33:11.000Z</time>
      </trkpt>
      <trkpt lat="46.12612" lon="7.09311">
        <ele>489.39999389648</ele>
        <time>2023-04-04T11:33:19.000Z</time>
      </trkpt>
      <trkpt lat="46.1263" lon="7.0939">
        <ele>489.39999389648</ele>
        <time>2023-04-04T11:33:32.000Z</time>
      </trkpt>
      <trkpt lat="46.12633" lon="7.09402">
        <ele>489.39999389648</ele>
        <time>2023-04-04T11:33:34.000Z</time>
      </trkpt>
      <trkpt lat="46.12641" lon="7.09441">
        <ele>489.20001220703</ele>
        <time>2023-04-04T11:33:40.000Z</time>
      </trkpt>
      <trkpt lat="46.12647" lon="7.09468">
        <ele>489.20001220703</ele>
        <time>2023-04-04T11:33:44.000Z</time>
      </trkpt>
      <trkpt lat="46.12653" lon="7.09495">
        <ele>489.39999389648</ele>
        <time>2023-04-04T11:33:48.000Z</time>
      </trkpt>
      <trkpt lat="46.12657" lon="7.09514">
        <ele>489.79998779297</ele>
        <time>2023-04-04T11:33:51.000Z</time>
      </trkpt>
      <trkpt lat="46.12659" lon="7.09527">
        <ele>489.79998779297</ele>
        <time>2023-04-04T11:33:53.000Z</time>
      </trkpt>
      <trkpt lat="46.12661" lon="7.09533">
        <ele>489.79998779297</ele>
        <time>2023-04-04T11:33:54.000Z</time>
      </trkpt>
      <trkpt lat="46.12664" lon="7.09546">
        <ele>490</ele>
        <time>2023-04-04T11:33:56.000Z</time>
      </trkpt>
      <trkpt lat="46.12672" lon="7.09577">
        <ele>490</ele>
        <time>2023-04-04T11:34:01.000Z</time>
      </trkpt>
      <trkpt lat="46.1268" lon="7.09615">
        <ele>490.20001220703</ele>
        <time>2023-04-04T11:34:07.000Z</time>
      </trkpt>
      <trkpt lat="46.12683" lon="7.09627">
        <ele>490.39999389648</ele>
        <time>2023-04-04T11:34:09.000Z</time>
      </trkpt>
      <trkpt lat="46.12685" lon="7.09633">
        <ele>490.39999389648</ele>
        <time>2023-04-04T11:34:10.000Z</time>
      </trkpt>
      <trkpt lat="46.12695" lon="7.09672">
        <ele>490.60000610352</ele>
        <time>2023-04-04T11:34:16.000Z</time>
      </trkpt>
      <trkpt lat="46.1271" lon="7.09726">
        <ele>490.60000610352</ele>
        <time>2023-04-04T11:34:24.000Z</time>
      </trkpt>
      <trkpt lat="46.12719" lon="7.09758">
        <ele>490.20001220703</ele>
        <time>2023-04-04T11:34:29.000Z</time>
      </trkpt>
      <trkpt lat="46.12721" lon="7.09764">
        <ele>490.20001220703</ele>
        <time>2023-04-04T11:34:30.000Z</time>
      </trkpt>
      <trkpt lat="46.12723" lon="7.0977">
        <ele>490.20001220703</ele>
        <time>2023-04-04T11:34:31.000Z</time>
      </trkpt>
      <trkpt lat="46.12725" lon="7.09776">
        <ele>490.20001220703</ele>
        <time>2023-04-04T11:34:32.000Z</time>
      </trkpt>
      <trkpt lat="46.12727" lon="7.09782">
        <ele>490.20001220703</ele>
        <time>2023-04-04T11:34:33.000Z</time>
      </trkpt>
      <trkpt lat="46.12728" lon="7.09789">
        <ele>490.20001220703</ele>
        <time>2023-04-04T11:34:34.000Z</time>
      </trkpt>
      <trkpt lat="46.1273" lon="7.09795">
        <ele>490</ele>
        <time>2023-04-04T11:34:35.000Z</time>
      </trkpt>
      <trkpt lat="46.12732" lon="7.09801">
        <ele>490</ele>
        <time>2023-04-04T11:34:36.000Z</time>
      </trkpt>
      <trkpt lat="46.12736" lon="7.09814">
        <ele>490</ele>
        <time>2023-04-04T11:34:38.000Z</time>
      </trkpt>
      <trkpt lat="46.12751" lon="7.09857">
        <ele>490.20001220703</ele>
        <time>2023-04-04T11:34:45.000Z</time>
      </trkpt>
      <trkpt lat="46.12771" lon="7.09913">
        <ele>490.60000610352</ele>
        <time>2023-04-04T11:34:54.000Z</time>
      </trkpt>
      <trkpt lat="46.12788" lon="7.09961">
        <ele>490.79998779297</ele>
        <time>2023-04-04T11:35:02.000Z</time>
      </trkpt>
      <trkpt lat="46.1279" lon="7.09967">
        <ele>490.79998779297</ele>
        <time>2023-04-04T11:35:03.000Z</time>
      </trkpt>
      <trkpt lat="46.12802" lon="7.09998">
        <ele>490.60000610352</ele>
        <time>2023-04-04T11:35:08.000Z</time>
      </trkpt>
      <trkpt lat="46.12808" lon="7.10017">
        <ele>490.39999389648</ele>
        <time>2023-04-04T11:35:11.000Z</time>
      </trkpt>
      <trkpt lat="46.1281" lon="7.10023">
        <ele>490.39999389648</ele>
        <time>2023-04-04T11:35:12.000Z</time>
      </trkpt>
      <trkpt lat="46.12813" lon="7.10028">
        <ele>490.39999389648</ele>
        <time>2023-04-04T11:35:13.000Z</time>
      </trkpt>
      <trkpt lat="46.12815" lon="7.10034">
        <ele>490.39999389648</ele>
        <time>2023-04-04T11:35:14.000Z</time>
      </trkpt>
      <trkpt lat="46.12836" lon="7.10089">
        <ele>490.39999389648</ele>
        <time>2023-04-04T11:35:23.000Z</time>
      </trkpt>
      <trkpt lat="46.12864" lon="7.10162">
        <ele>491</ele>
        <time>2023-04-04T11:35:35.000Z</time>
      </trkpt>
      <trkpt lat="46.12867" lon="7.10168">
        <ele>491</ele>
        <time>2023-04-04T11:35:36.000Z</time>
      </trkpt>
      <trkpt lat="46.12869" lon="7.10174">
        <ele>491</ele>
        <time>2023-04-04T11:35:37.000Z</time>
      </trkpt>
      <trkpt lat="46.12875" lon="7.10192">
        <ele>491</ele>
        <time>2023-04-04T11:35:40.000Z</time>
      </trkpt>
      <trkpt lat="46.12882" lon="7.1021">
        <ele>491</ele>
        <time>2023-04-04T11:35:43.000Z</time>
      </trkpt>
      <trkpt lat="46.12884" lon="7.10216">
        <ele>491</ele>
        <time>2023-04-04T11:35:44.000Z</time>
      </trkpt>
      <trkpt lat="46.12887" lon="7.10222">
        <ele>491</ele>
        <time>2023-04-04T11:35:45.000Z</time>
      </trkpt>
      <trkpt lat="46.129" lon="7.10258">
        <ele>490.79998779297</ele>
        <time>2023-04-04T11:35:51.000Z</time>
      </trkpt>
      <trkpt lat="46.12905" lon="7.10269">
        <ele>490.79998779297</ele>
        <time>2023-04-04T11:35:53.000Z</time>
      </trkpt>
      <trkpt lat="46.12907" lon="7.10275">
        <ele>490.79998779297</ele>
        <time>2023-04-04T11:35:54.000Z</time>
      </trkpt>
      <trkpt lat="46.12916" lon="7.10298">
        <ele>491</ele>
        <time>2023-04-04T11:35:58.000Z</time>
      </trkpt>
      <trkpt lat="46.12918" lon="7.10304">
        <ele>491</ele>
        <time>2023-04-04T11:35:59.000Z</time>
      </trkpt>
      <trkpt lat="46.1292" lon="7.1031">
        <ele>491</ele>
        <time>2023-04-04T11:36:00.000Z</time>
      </trkpt>
      <trkpt lat="46.12923" lon="7.10316">
        <ele>491</ele>
        <time>2023-04-04T11:36:01.000Z</time>
      </trkpt>
      <trkpt lat="46.12925" lon="7.10321">
        <ele>491</ele>
        <time>2023-04-04T11:36:02.000Z</time>
      </trkpt>
      <trkpt lat="46.12943" lon="7.1037">
        <ele>491</ele>
        <time>2023-04-04T11:36:10.000Z</time>
      </trkpt>
      <trkpt lat="46.12952" lon="7.10393">
        <ele>491</ele>
        <time>2023-04-04T11:36:14.000Z</time>
      </trkpt>
      <trkpt lat="46.12966" lon="7.10429">
        <ele>491.20001220703</ele>
        <time>2023-04-04T11:36:20.000Z</time>
      </trkpt>
      <trkpt lat="46.12993" lon="7.10502">
        <ele>491.20001220703</ele>
        <time>2023-04-04T11:36:32.000Z</time>
      </trkpt>
      <trkpt lat="46.12995" lon="7.10509">
        <ele>491</ele>
        <time>2023-04-04T11:36:33.000Z</time>
      </trkpt>
      <trkpt lat="46.13016" lon="7.10563">
        <ele>491.20001220703</ele>
        <time>2023-04-04T11:36:42.000Z</time>
      </trkpt>
      <trkpt lat="46.13041" lon="7.10624">
        <ele>491.79998779297</ele>
        <time>2023-04-04T11:36:52.000Z</time>
      </trkpt>
      <trkpt lat="46.13046" lon="7.10637">
        <ele>492</ele>
        <time>2023-04-04T11:36:54.000Z</time>
      </trkpt>
      <trkpt lat="46.13048" lon="7.10643">
        <ele>492</ele>
        <time>2023-04-04T11:36:55.000Z</time>
      </trkpt>
      <trkpt lat="46.13051" lon="7.1065">
        <ele>492.20001220703</ele>
        <time>2023-04-04T11:36:56.000Z</time>
      </trkpt>
      <trkpt lat="46.13053" lon="7.10655">
        <ele>492.20001220703</ele>
        <time>2023-04-04T11:36:57.000Z</time>
      </trkpt>
      <trkpt lat="46.13055" lon="7.10661">
        <ele>492.20001220703</ele>
        <time>2023-04-04T11:36:58.000Z</time>
      </trkpt>
      <trkpt lat="46.13057" lon="7.10667">
        <ele>492.20001220703</ele>
        <time>2023-04-04T11:36:59.000Z</time>
      </trkpt>
      <trkpt lat="46.13059" lon="7.10673">
        <ele>492.20001220703</ele>
        <time>2023-04-04T11:37:00.000Z</time>
      </trkpt>
      <trkpt lat="46.13061" lon="7.10679">
        <ele>492.20001220703</ele>
        <time>2023-04-04T11:37:01.000Z</time>
      </trkpt>
      <trkpt lat="46.13064" lon="7.10685">
        <ele>492.20001220703</ele>
        <time>2023-04-04T11:37:02.000Z</time>
      </trkpt>
      <trkpt lat="46.13073" lon="7.10708">
        <ele>492.20001220703</ele>
        <time>2023-04-04T11:37:06.000Z</time>
      </trkpt>
      <trkpt lat="46.13075" lon="7.10714">
        <ele>492.39999389648</ele>
        <time>2023-04-04T11:37:07.000Z</time>
      </trkpt>
      <trkpt lat="46.13079" lon="7.10727">
        <ele>492.20001220703</ele>
        <time>2023-04-04T11:37:09.000Z</time>
      </trkpt>
      <trkpt lat="46.13097" lon="7.10773">
        <ele>492.20001220703</ele>
        <time>2023-04-04T11:37:17.000Z</time>
      </trkpt>
      <trkpt lat="46.13124" lon="7.10846">
        <ele>492</ele>
        <time>2023-04-04T11:37:29.000Z</time>
      </trkpt>
      <trkpt lat="46.13128" lon="7.10857">
        <ele>492</ele>
        <time>2023-04-04T11:37:31.000Z</time>
      </trkpt>
      <trkpt lat="46.1313" lon="7.10863">
        <ele>492.20001220703</ele>
        <time>2023-04-04T11:37:32.000Z</time>
      </trkpt>
      <trkpt lat="46.13146" lon="7.10906">
        <ele>492.39999389648</ele>
        <time>2023-04-04T11:37:39.000Z</time>
      </trkpt>
      <trkpt lat="46.13153" lon="7.10925">
        <ele>492.39999389648</ele>
        <time>2023-04-04T11:37:42.000Z</time>
      </trkpt>
      <trkpt lat="46.13177" lon="7.10986">
        <ele>492.60000610352</ele>
        <time>2023-04-04T11:37:52.000Z</time>
      </trkpt>
      <trkpt lat="46.13182" lon="7.10998">
        <ele>492.79998779297</ele>
        <time>2023-04-04T11:37:54.000Z</time>
      </trkpt>
      <trkpt lat="46.13185" lon="7.11004">
        <ele>492.79998779297</ele>
        <time>2023-04-04T11:37:55.000Z</time>
      </trkpt>
      <trkpt lat="46.13187" lon="7.1101">
        <ele>492.79998779297</ele>
        <time>2023-04-04T11:37:56.000Z</time>
      </trkpt>
      <trkpt lat="46.13189" lon="7.11016">
        <ele>492.79998779297</ele>
        <time>2023-04-04T11:37:57.000Z</time>
      </trkpt>
      <trkpt lat="46.13192" lon="7.11021">
        <ele>493</ele>
        <time>2023-04-04T11:37:58.000Z</time>
      </trkpt>
      <trkpt lat="46.13194" lon="7.11027">
        <ele>493</ele>
        <time>2023-04-04T11:37:59.000Z</time>
      </trkpt>
      <trkpt lat="46.13196" lon="7.11033">
        <ele>493</ele>
        <time>2023-04-04T11:38:00.000Z</time>
      </trkpt>
      <trkpt lat="46.13217" lon="7.11089">
        <ele>493</ele>
        <time>2023-04-04T11:38:09.000Z</time>
      </trkpt>
      <trkpt lat="46.13243" lon="7.11155">
        <ele>492.39999389648</ele>
        <time>2023-04-04T11:38:20.000Z</time>
      </trkpt>
      <trkpt lat="46.13254" lon="7.11186">
        <ele>492.60000610352</ele>
        <time>2023-04-04T11:38:25.000Z</time>
      </trkpt>
      <trkpt lat="46.13259" lon="7.11199">
        <ele>492.79998779297</ele>
        <time>2023-04-04T11:38:27.000Z</time>
      </trkpt>
      <trkpt lat="46.13268" lon="7.11223">
        <ele>492.60000610352</ele>
        <time>2023-04-04T11:38:31.000Z</time>
      </trkpt>
      <trkpt lat="46.13282" lon="7.11259">
        <ele>492.79998779297</ele>
        <time>2023-04-04T11:38:37.000Z</time>
      </trkpt>
      <trkpt lat="46.1329" lon="7.11283">
        <ele>492.79998779297</ele>
        <time>2023-04-04T11:38:41.000Z</time>
      </trkpt>
      <trkpt lat="46.13295" lon="7.11294">
        <ele>492.79998779297</ele>
        <time>2023-04-04T11:38:43.000Z</time>
      </trkpt>
      <trkpt lat="46.13308" lon="7.1133">
        <ele>492.79998779297</ele>
        <time>2023-04-04T11:38:49.000Z</time>
      </trkpt>
      <trkpt lat="46.1331" lon="7.11335">
        <ele>492.79998779297</ele>
        <time>2023-04-04T11:38:50.000Z</time>
      </trkpt>
      <trkpt lat="46.13313" lon="7.11341">
        <ele>492.79998779297</ele>
        <time>2023-04-04T11:38:51.000Z</time>
      </trkpt>
      <trkpt lat="46.13331" lon="7.11392">
        <ele>493.20001220703</ele>
        <time>2023-04-04T11:38:59.000Z</time>
      </trkpt>
      <trkpt lat="46.13341" lon="7.11417">
        <ele>493.20001220703</ele>
        <time>2023-04-04T11:39:03.000Z</time>
      </trkpt>
      <trkpt lat="46.13351" lon="7.11443">
        <ele>493</ele>
        <time>2023-04-04T11:39:07.000Z</time>
      </trkpt>
      <trkpt lat="46.13366" lon="7.11482">
        <ele>493</ele>
        <time>2023-04-04T11:39:13.000Z</time>
      </trkpt>
      <trkpt lat="46.1337" lon="7.11494">
        <ele>493</ele>
        <time>2023-04-04T11:39:15.000Z</time>
      </trkpt>
      <trkpt lat="46.13372" lon="7.115">
        <ele>493</ele>
        <time>2023-04-04T11:39:16.000Z</time>
      </trkpt>
      <trkpt lat="46.13374" lon="7.11506">
        <ele>493</ele>
        <time>2023-04-04T11:39:17.000Z</time>
      </trkpt>
      <trkpt lat="46.13376" lon="7.11512">
        <ele>493.20001220703</ele>
        <time>2023-04-04T11:39:18.000Z</time>
      </trkpt>
      <trkpt lat="46.13378" lon="7.11518">
        <ele>493.20001220703</ele>
        <time>2023-04-04T11:39:19.000Z</time>
      </trkpt>
      <trkpt lat="46.13381" lon="7.11524">
        <ele>493.20001220703</ele>
        <time>2023-04-04T11:39:20.000Z</time>
      </trkpt>
      <trkpt lat="46.13383" lon="7.1153">
        <ele>493.20001220703</ele>
        <time>2023-04-04T11:39:21.000Z</time>
      </trkpt>
      <trkpt lat="46.13385" lon="7.11536">
        <ele>493.39999389648</ele>
        <time>2023-04-04T11:39:22.000Z</time>
      </trkpt>
      <trkpt lat="46.13388" lon="7.11548">
        <ele>493.39999389648</ele>
        <time>2023-04-04T11:39:24.000Z</time>
      </trkpt>
      <trkpt lat="46.13397" lon="7.11572">
        <ele>493.60000610352</ele>
        <time>2023-04-04T11:39:28.000Z</time>
      </trkpt>
      <trkpt lat="46.13406" lon="7.11603">
        <ele>493.60000610352</ele>
        <time>2023-04-04T11:39:33.000Z</time>
      </trkpt>
      <trkpt lat="46.13427" lon="7.11666">
        <ele>493.60000610352</ele>
        <time>2023-04-04T11:39:43.000Z</time>
      </trkpt>
      <trkpt lat="46.13433" lon="7.11684">
        <ele>493.39999389648</ele>
        <time>2023-04-04T11:39:46.000Z</time>
      </trkpt>
      <trkpt lat="46.13435" lon="7.1169">
        <ele>493.39999389648</ele>
        <time>2023-04-04T11:39:47.000Z</time>
      </trkpt>
      <trkpt lat="46.13437" lon="7.11696">
        <ele>493.39999389648</ele>
        <time>2023-04-04T11:39:48.000Z</time>
      </trkpt>
      <trkpt lat="46.13444" lon="7.11721">
        <ele>493.39999389648</ele>
        <time>2023-04-04T11:39:52.000Z</time>
      </trkpt>
      <trkpt lat="46.13448" lon="7.11734">
        <ele>493.39999389648</ele>
        <time>2023-04-04T11:39:54.000Z</time>
      </trkpt>
      <trkpt lat="46.1346" lon="7.11771">
        <ele>493.39999389648</ele>
        <time>2023-04-04T11:40:00.000Z</time>
      </trkpt>
      <trkpt lat="46.13462" lon="7.11778">
        <ele>493.39999389648</ele>
        <time>2023-04-04T11:40:01.000Z</time>
      </trkpt>
      <trkpt lat="46.13463" lon="7.11784">
        <ele>493.39999389648</ele>
        <time>2023-04-04T11:40:02.000Z</time>
      </trkpt>
      <trkpt lat="46.13465" lon="7.1179">
        <ele>493.39999389648</ele>
        <time>2023-04-04T11:40:03.000Z</time>
      </trkpt>
      <trkpt lat="46.13467" lon="7.11797">
        <ele>493.60000610352</ele>
        <time>2023-04-04T11:40:04.000Z</time>
      </trkpt>
      <trkpt lat="46.13473" lon="7.11815">
        <ele>493.60000610352</ele>
        <time>2023-04-04T11:40:07.000Z</time>
      </trkpt>
      <trkpt lat="46.13479" lon="7.11833">
        <ele>493.79998779297</ele>
        <time>2023-04-04T11:40:10.000Z</time>
      </trkpt>
      <trkpt lat="46.13485" lon="7.11851">
        <ele>494</ele>
        <time>2023-04-04T11:40:13.000Z</time>
      </trkpt>
      <trkpt lat="46.13497" lon="7.11888">
        <ele>494</ele>
        <time>2023-04-04T11:40:19.000Z</time>
      </trkpt>
      <trkpt lat="46.13499" lon="7.11894">
        <ele>494</ele>
        <time>2023-04-04T11:40:20.000Z</time>
      </trkpt>
      <trkpt lat="46.135" lon="7.119">
        <ele>494</ele>
        <time>2023-04-04T11:40:21.000Z</time>
      </trkpt>
      <trkpt lat="46.13504" lon="7.11912">
        <ele>493.79998779297</ele>
        <time>2023-04-04T11:40:23.000Z</time>
      </trkpt>
      <trkpt lat="46.13507" lon="7.11924">
        <ele>493.79998779297</ele>
        <time>2023-04-04T11:40:25.000Z</time>
      </trkpt>
      <trkpt lat="46.13509" lon="7.1193">
        <ele>493.79998779297</ele>
        <time>2023-04-04T11:40:26.000Z</time>
      </trkpt>
      <trkpt lat="46.13511" lon="7.11936">
        <ele>493.60000610352</ele>
        <time>2023-04-04T11:40:27.000Z</time>
      </trkpt>
      <trkpt lat="46.13512" lon="7.11942">
        <ele>493.60000610352</ele>
        <time>2023-04-04T11:40:28.000Z</time>
      </trkpt>
      <trkpt lat="46.13526" lon="7.11991">
        <ele>493.60000610352</ele>
        <time>2023-04-04T11:40:36.000Z</time>
      </trkpt>
      <trkpt lat="46.13537" lon="7.12028">
        <ele>493.60000610352</ele>
        <time>2023-04-04T11:40:42.000Z</time>
      </trkpt>
      <trkpt lat="46.13538" lon="7.12034">
        <ele>493.60000610352</ele>
        <time>2023-04-04T11:40:43.000Z</time>
      </trkpt>
      <trkpt lat="46.13542" lon="7.12046">
        <ele>493.39999389648</ele>
        <time>2023-04-04T11:40:45.000Z</time>
      </trkpt>
      <trkpt lat="46.1355" lon="7.12069">
        <ele>493.39999389648</ele>
        <time>2023-04-04T11:40:49.000Z</time>
      </trkpt>
      <trkpt lat="46.13555" lon="7.12085">
        <ele>493.39999389648</ele>
        <time>2023-04-04T11:40:52.000Z</time>
      </trkpt>
      <trkpt lat="46.13556" lon="7.1209">
        <ele>493.39999389648</ele>
        <time>2023-04-04T11:40:53.000Z</time>
      </trkpt>
      <trkpt lat="46.13557" lon="7.12094">
        <ele>493.39999389648</ele>
        <time>2023-04-04T11:40:54.000Z</time>
      </trkpt>
      <trkpt lat="46.13559" lon="7.12099">
        <ele>493.39999389648</ele>
        <time>2023-04-04T11:40:55.000Z</time>
      </trkpt>
      <trkpt lat="46.1356" lon="7.12102">
        <ele>493.39999389648</ele>
        <time>2023-04-04T11:40:56.000Z</time>
      </trkpt>
      <trkpt lat="46.13562" lon="7.12106">
        <ele>493.60000610352</ele>
        <time>2023-04-04T11:40:57.000Z</time>
      </trkpt>
      <trkpt lat="46.13563" lon="7.12109">
        <ele>493.60000610352</ele>
        <time>2023-04-04T11:40:58.000Z</time>
      </trkpt>
      <trkpt lat="46.13564" lon="7.12111">
        <ele>493.60000610352</ele>
        <time>2023-04-04T11:40:59.000Z</time>
      </trkpt>
      <trkpt lat="46.13565" lon="7.12114">
        <ele>493.79998779297</ele>
        <time>2023-04-04T11:41:00.000Z</time>
      </trkpt>
      <trkpt lat="46.13566" lon="7.12116">
        <ele>494</ele>
        <time>2023-04-04T11:41:01.000Z</time>
      </trkpt>
      <trkpt lat="46.13566" lon="7.12118">
        <ele>494.20001220703</ele>
        <time>2023-04-04T11:41:02.000Z</time>
      </trkpt>
      <trkpt lat="46.13567" lon="7.12119">
        <ele>494.20001220703</ele>
        <time>2023-04-04T11:41:04.000Z</time>
      </trkpt>
      <trkpt lat="46.13569" lon="7.12127">
        <ele>494.60000610352</ele>
        <time>2023-04-04T11:41:16.000Z</time>
      </trkpt>
      <trkpt lat="46.13571" lon="7.12135">
        <ele>494.79998779297</ele>
        <time>2023-04-04T11:41:18.000Z</time>
      </trkpt>
      <trkpt lat="46.13576" lon="7.12162">
        <ele>494.60000610352</ele>
        <time>2023-04-04T11:41:23.000Z</time>
      </trkpt>
      <trkpt lat="46.13581" lon="7.12181">
        <ele>494.79998779297</ele>
        <time>2023-04-04T11:41:26.000Z</time>
      </trkpt>
      <trkpt lat="46.13587" lon="7.12205">
        <ele>494.79998779297</ele>
        <time>2023-04-04T11:41:30.000Z</time>
      </trkpt>
      <trkpt lat="46.13602" lon="7.1226">
        <ele>494.79998779297</ele>
        <time>2023-04-04T11:41:39.000Z</time>
      </trkpt>
      <trkpt lat="46.13621" lon="7.12328">
        <ele>494.60000610352</ele>
        <time>2023-04-04T11:41:50.000Z</time>
      </trkpt>
      <trkpt lat="46.13628" lon="7.12352">
        <ele>494.60000610352</ele>
        <time>2023-04-04T11:41:54.000Z</time>
      </trkpt>
      <trkpt lat="46.13629" lon="7.12358">
        <ele>494.60000610352</ele>
        <time>2023-04-04T11:41:55.000Z</time>
      </trkpt>
      <trkpt lat="46.13631" lon="7.12364">
        <ele>494.60000610352</ele>
        <time>2023-04-04T11:41:56.000Z</time>
      </trkpt>
      <trkpt lat="46.13632" lon="7.1237">
        <ele>494.79998779297</ele>
        <time>2023-04-04T11:41:57.000Z</time>
      </trkpt>
      <trkpt lat="46.13637" lon="7.12388">
        <ele>495</ele>
        <time>2023-04-04T11:42:00.000Z</time>
      </trkpt>
      <trkpt lat="46.13645" lon="7.12419">
        <ele>495.20001220703</ele>
        <time>2023-04-04T11:42:05.000Z</time>
      </trkpt>
      <trkpt lat="46.13647" lon="7.12424">
        <ele>495</ele>
        <time>2023-04-04T11:42:06.000Z</time>
      </trkpt>
      <trkpt lat="46.13651" lon="7.12436">
        <ele>495</ele>
        <time>2023-04-04T11:42:08.000Z</time>
      </trkpt>
      <trkpt lat="46.13652" lon="7.12442">
        <ele>494.79998779297</ele>
        <time>2023-04-04T11:42:09.000Z</time>
      </trkpt>
      <trkpt lat="46.13666" lon="7.12497">
        <ele>495</ele>
        <time>2023-04-04T11:42:18.000Z</time>
      </trkpt>
      <trkpt lat="46.13681" lon="7.12553">
        <ele>495.39999389648</ele>
        <time>2023-04-04T11:42:27.000Z</time>
      </trkpt>
      <trkpt lat="46.13684" lon="7.12565">
        <ele>495.39999389648</ele>
        <time>2023-04-04T11:42:29.000Z</time>
      </trkpt>
      <trkpt lat="46.1369" lon="7.12589">
        <ele>495.39999389648</ele>
        <time>2023-04-04T11:42:33.000Z</time>
      </trkpt>
      <trkpt lat="46.13696" lon="7.12608">
        <ele>495.20001220703</ele>
        <time>2023-04-04T11:42:36.000Z</time>
      </trkpt>
      <trkpt lat="46.13711" lon="7.12664">
        <ele>495.20001220703</ele>
        <time>2023-04-04T11:42:45.000Z</time>
      </trkpt>
      <trkpt lat="46.13713" lon="7.1267">
        <ele>495.20001220703</ele>
        <time>2023-04-04T11:42:46.000Z</time>
      </trkpt>
      <trkpt lat="46.13715" lon="7.12676">
        <ele>495.20001220703</ele>
        <time>2023-04-04T11:42:47.000Z</time>
      </trkpt>
      <trkpt lat="46.13716" lon="7.12682">
        <ele>495.20001220703</ele>
        <time>2023-04-04T11:42:48.000Z</time>
      </trkpt>
      <trkpt lat="46.13718" lon="7.12688">
        <ele>495.20001220703</ele>
        <time>2023-04-04T11:42:49.000Z</time>
      </trkpt>
      <trkpt lat="46.1372" lon="7.12694">
        <ele>495.20001220703</ele>
        <time>2023-04-04T11:42:50.000Z</time>
      </trkpt>
      <trkpt lat="46.13721" lon="7.127">
        <ele>495.20001220703</ele>
        <time>2023-04-04T11:42:51.000Z</time>
      </trkpt>
      <trkpt lat="46.13723" lon="7.12707">
        <ele>495</ele>
        <time>2023-04-04T11:42:52.000Z</time>
      </trkpt>
      <trkpt lat="46.13727" lon="7.12719">
        <ele>495</ele>
        <time>2023-04-04T11:42:54.000Z</time>
      </trkpt>
      <trkpt lat="46.13732" lon="7.12737">
        <ele>495</ele>
        <time>2023-04-04T11:42:57.000Z</time>
      </trkpt>
      <trkpt lat="46.13748" lon="7.12791">
        <ele>495.79998779297</ele>
        <time>2023-04-04T11:43:06.000Z</time>
      </trkpt>
      <trkpt lat="46.13769" lon="7.12852">
        <ele>495.79998779297</ele>
        <time>2023-04-04T11:43:16.000Z</time>
      </trkpt>
      <trkpt lat="46.13773" lon="7.12864">
        <ele>495.79998779297</ele>
        <time>2023-04-04T11:43:18.000Z</time>
      </trkpt>
      <trkpt lat="46.13783" lon="7.12893">
        <ele>495.79998779297</ele>
        <time>2023-04-04T11:43:23.000Z</time>
      </trkpt>
      <trkpt lat="46.13793" lon="7.12917">
        <ele>496</ele>
        <time>2023-04-04T11:43:27.000Z</time>
      </trkpt>
      <trkpt lat="46.13798" lon="7.12928">
        <ele>496</ele>
        <time>2023-04-04T11:43:29.000Z</time>
      </trkpt>
      <trkpt lat="46.13809" lon="7.12956">
        <ele>496.20001220703</ele>
        <time>2023-04-04T11:43:34.000Z</time>
      </trkpt>
      <trkpt lat="46.13814" lon="7.12967">
        <ele>496.39999389648</ele>
        <time>2023-04-04T11:43:36.000Z</time>
      </trkpt>
      <trkpt lat="46.13817" lon="7.12972">
        <ele>496.60000610352</ele>
        <time>2023-04-04T11:43:37.000Z</time>
      </trkpt>
      <trkpt lat="46.13819" lon="7.12978">
        <ele>496.60000610352</ele>
        <time>2023-04-04T11:43:38.000Z</time>
      </trkpt>
      <trkpt lat="46.13832" lon="7.13005">
        <ele>496.20001220703</ele>
        <time>2023-04-04T11:43:43.000Z</time>
      </trkpt>
      <trkpt lat="46.1384" lon="7.13021">
        <ele>496</ele>
        <time>2023-04-04T11:43:46.000Z</time>
      </trkpt>
      <trkpt lat="46.13842" lon="7.13026">
        <ele>496</ele>
        <time>2023-04-04T11:43:47.000Z</time>
      </trkpt>
      <trkpt lat="46.13845" lon="7.13031">
        <ele>495.79998779297</ele>
        <time>2023-04-04T11:43:48.000Z</time>
      </trkpt>
      <trkpt lat="46.1385" lon="7.13042">
        <ele>495.79998779297</ele>
        <time>2023-04-04T11:43:50.000Z</time>
      </trkpt>
      <trkpt lat="46.13878" lon="7.13093">
        <ele>494.79998779297</ele>
        <time>2023-04-04T11:44:00.000Z</time>
      </trkpt>
      <trkpt lat="46.13881" lon="7.13098">
        <ele>494.60000610352</ele>
        <time>2023-04-04T11:44:01.000Z</time>
      </trkpt>
      <trkpt lat="46.13905" lon="7.13138">
        <ele>494.39999389648</ele>
        <time>2023-04-04T11:44:09.000Z</time>
      </trkpt>
      <trkpt lat="46.1394" lon="7.13195">
        <ele>494</ele>
        <time>2023-04-04T11:44:21.000Z</time>
      </trkpt>
      <trkpt lat="46.1397" lon="7.13243">
        <ele>494.39999389648</ele>
        <time>2023-04-04T11:44:31.000Z</time>
      </trkpt>
      <trkpt lat="46.13973" lon="7.13248">
        <ele>494.39999389648</ele>
        <time>2023-04-04T11:44:32.000Z</time>
      </trkpt>
      <trkpt lat="46.13976" lon="7.13253">
        <ele>494.39999389648</ele>
        <time>2023-04-04T11:44:33.000Z</time>
      </trkpt>
      <trkpt lat="46.13979" lon="7.13258">
        <ele>494.60000610352</ele>
        <time>2023-04-04T11:44:34.000Z</time>
      </trkpt>
      <trkpt lat="46.13988" lon="7.13272">
        <ele>495</ele>
        <time>2023-04-04T11:44:37.000Z</time>
      </trkpt>
      <trkpt lat="46.13994" lon="7.13281">
        <ele>495</ele>
        <time>2023-04-04T11:44:39.000Z</time>
      </trkpt>
      <trkpt lat="46.14012" lon="7.13311">
        <ele>495.20001220703</ele>
        <time>2023-04-04T11:44:45.000Z</time>
      </trkpt>
      <trkpt lat="46.14015" lon="7.13316">
        <ele>495.20001220703</ele>
        <time>2023-04-04T11:44:46.000Z</time>
      </trkpt>
      <trkpt lat="46.14045" lon="7.13365">
        <ele>494.20001220703</ele>
        <time>2023-04-04T11:44:56.000Z</time>
      </trkpt>
      <trkpt lat="46.14048" lon="7.1337">
        <ele>494.20001220703</ele>
        <time>2023-04-04T11:44:57.000Z</time>
      </trkpt>
      <trkpt lat="46.14084" lon="7.13429">
        <ele>494.39999389648</ele>
        <time>2023-04-04T11:45:09.000Z</time>
      </trkpt>
      <trkpt lat="46.14105" lon="7.13464">
        <ele>493.79998779297</ele>
        <time>2023-04-04T11:45:16.000Z</time>
      </trkpt>
      <trkpt lat="46.14123" lon="7.13496">
        <ele>493.79998779297</ele>
        <time>2023-04-04T11:45:22.000Z</time>
      </trkpt>
      <trkpt lat="46.14139" lon="7.1352">
        <ele>494.20001220703</ele>
        <time>2023-04-04T11:45:27.000Z</time>
      </trkpt>
      <trkpt lat="46.14142" lon="7.13525">
        <ele>494.20001220703</ele>
        <time>2023-04-04T11:45:28.000Z</time>
      </trkpt>
      <trkpt lat="46.14148" lon="7.13535">
        <ele>494.39999389648</ele>
        <time>2023-04-04T11:45:30.000Z</time>
      </trkpt>
      <trkpt lat="46.14157" lon="7.1355">
        <ele>494.39999389648</ele>
        <time>2023-04-04T11:45:33.000Z</time>
      </trkpt>
      <trkpt lat="46.1416" lon="7.13555">
        <ele>494.39999389648</ele>
        <time>2023-04-04T11:45:34.000Z</time>
      </trkpt>
      <trkpt lat="46.14176" lon="7.1358">
        <ele>494.39999389648</ele>
        <time>2023-04-04T11:45:39.000Z</time>
      </trkpt>
      <trkpt lat="46.14197" lon="7.13613">
        <ele>494.39999389648</ele>
        <time>2023-04-04T11:45:46.000Z</time>
      </trkpt>
      <trkpt lat="46.142" lon="7.13617">
        <ele>494.39999389648</ele>
        <time>2023-04-04T11:45:47.000Z</time>
      </trkpt>
      <trkpt lat="46.14202" lon="7.13621">
        <ele>494.39999389648</ele>
        <time>2023-04-04T11:45:48.000Z</time>
      </trkpt>
      <trkpt lat="46.14205" lon="7.13626">
        <ele>494.60000610352</ele>
        <time>2023-04-04T11:45:49.000Z</time>
      </trkpt>
      <trkpt lat="46.14207" lon="7.13631">
        <ele>494.60000610352</ele>
        <time>2023-04-04T11:45:50.000Z</time>
      </trkpt>
      <trkpt lat="46.1421" lon="7.13635">
        <ele>494.60000610352</ele>
        <time>2023-04-04T11:45:51.000Z</time>
      </trkpt>
      <trkpt lat="46.14213" lon="7.1364">
        <ele>494.60000610352</ele>
        <time>2023-04-04T11:45:52.000Z</time>
      </trkpt>
      <trkpt lat="46.14215" lon="7.13644">
        <ele>494.60000610352</ele>
        <time>2023-04-04T11:45:53.000Z</time>
      </trkpt>
      <trkpt lat="46.14218" lon="7.13649">
        <ele>494.60000610352</ele>
        <time>2023-04-04T11:45:54.000Z</time>
      </trkpt>
      <trkpt lat="46.14225" lon="7.13663">
        <ele>494.79998779297</ele>
        <time>2023-04-04T11:45:57.000Z</time>
      </trkpt>
      <trkpt lat="46.14236" lon="7.1368">
        <ele>495</ele>
        <time>2023-04-04T11:46:01.000Z</time>
      </trkpt>
      <trkpt lat="46.14239" lon="7.13684">
        <ele>495</ele>
        <time>2023-04-04T11:46:02.000Z</time>
      </trkpt>
      <trkpt lat="46.14242" lon="7.13688">
        <ele>495</ele>
        <time>2023-04-04T11:46:03.000Z</time>
      </trkpt>
      <trkpt lat="46.14244" lon="7.13692">
        <ele>495.20001220703</ele>
        <time>2023-04-04T11:46:04.000Z</time>
      </trkpt>
      <trkpt lat="46.14247" lon="7.13696">
        <ele>495.20001220703</ele>
        <time>2023-04-04T11:46:05.000Z</time>
      </trkpt>
      <trkpt lat="46.14249" lon="7.137">
        <ele>495.39999389648</ele>
        <time>2023-04-04T11:46:06.000Z</time>
      </trkpt>
      <trkpt lat="46.14251" lon="7.13704">
        <ele>495.39999389648</ele>
        <time>2023-04-04T11:46:07.000Z</time>
      </trkpt>
      <trkpt lat="46.14254" lon="7.13709">
        <ele>495.79998779297</ele>
        <time>2023-04-04T11:46:08.000Z</time>
      </trkpt>
      <trkpt lat="46.14257" lon="7.13713">
        <ele>496.20001220703</ele>
        <time>2023-04-04T11:46:09.000Z</time>
      </trkpt>
      <trkpt lat="46.14259" lon="7.13716">
        <ele>496.20001220703</ele>
        <time>2023-04-04T11:46:10.000Z</time>
      </trkpt>
      <trkpt lat="46.14262" lon="7.13719">
        <ele>496.39999389648</ele>
        <time>2023-04-04T11:46:11.000Z</time>
      </trkpt>
      <trkpt lat="46.14264" lon="7.13722">
        <ele>496.39999389648</ele>
        <time>2023-04-04T11:46:12.000Z</time>
      </trkpt>
      <trkpt lat="46.14266" lon="7.13725">
        <ele>496.60000610352</ele>
        <time>2023-04-04T11:46:13.000Z</time>
      </trkpt>
      <trkpt lat="46.14268" lon="7.13728">
        <ele>496.60000610352</ele>
        <time>2023-04-04T11:46:14.000Z</time>
      </trkpt>
      <trkpt lat="46.14277" lon="7.13743">
        <ele>496.60000610352</ele>
        <time>2023-04-04T11:46:18.000Z</time>
      </trkpt>
      <trkpt lat="46.14287" lon="7.13762">
        <ele>496.39999389648</ele>
        <time>2023-04-04T11:46:22.000Z</time>
      </trkpt>
      <trkpt lat="46.14297" lon="7.1378">
        <ele>495.79998779297</ele>
        <time>2023-04-04T11:46:26.000Z</time>
      </trkpt>
      <trkpt lat="46.14304" lon="7.13793">
        <ele>495.60000610352</ele>
        <time>2023-04-04T11:46:29.000Z</time>
      </trkpt>
      <trkpt lat="46.14307" lon="7.13799">
        <ele>495.60000610352</ele>
        <time>2023-04-04T11:46:30.000Z</time>
      </trkpt>
      <trkpt lat="46.14317" lon="7.13817">
        <ele>495.60000610352</ele>
        <time>2023-04-04T11:46:34.000Z</time>
      </trkpt>
      <trkpt lat="46.1432" lon="7.13821">
        <ele>495.79998779297</ele>
        <time>2023-04-04T11:46:35.000Z</time>
      </trkpt>
      <trkpt lat="46.14322" lon="7.13824">
        <ele>495.79998779297</ele>
        <time>2023-04-04T11:46:36.000Z</time>
      </trkpt>
      <trkpt lat="46.14336" lon="7.13848">
        <ele>496.39999389648</ele>
        <time>2023-04-04T11:46:41.000Z</time>
      </trkpt>
      <trkpt lat="46.14362" lon="7.13897">
        <ele>496.39999389648</ele>
        <time>2023-04-04T11:46:51.000Z</time>
      </trkpt>
      <trkpt lat="46.14384" lon="7.13939">
        <ele>496</ele>
        <time>2023-04-04T11:46:59.000Z</time>
      </trkpt>
      <trkpt lat="46.14395" lon="7.13959">
        <ele>495.79998779297</ele>
        <time>2023-04-04T11:47:03.000Z</time>
      </trkpt>
      <trkpt lat="46.14405" lon="7.13978">
        <ele>495.39999389648</ele>
        <time>2023-04-04T11:47:07.000Z</time>
      </trkpt>
      <trkpt lat="46.1441" lon="7.13987">
        <ele>495.20001220703</ele>
        <time>2023-04-04T11:47:09.000Z</time>
      </trkpt>
      <trkpt lat="46.14427" lon="7.14021">
        <ele>495</ele>
        <time>2023-04-04T11:47:15.000Z</time>
      </trkpt>
      <trkpt lat="46.14445" lon="7.14058">
        <ele>495.20001220703</ele>
        <time>2023-04-04T11:47:22.000Z</time>
      </trkpt>
      <trkpt lat="46.1445" lon="7.14069">
        <ele>495.20001220703</ele>
        <time>2023-04-04T11:47:24.000Z</time>
      </trkpt>
      <trkpt lat="46.14453" lon="7.14074">
        <ele>495.39999389648</ele>
        <time>2023-04-04T11:47:25.000Z</time>
      </trkpt>
      <trkpt lat="46.14455" lon="7.14079">
        <ele>495.60000610352</ele>
        <time>2023-04-04T11:47:26.000Z</time>
      </trkpt>
      <trkpt lat="46.14476" lon="7.14122">
        <ele>495.60000610352</ele>
        <time>2023-04-04T11:47:34.000Z</time>
      </trkpt>
      <trkpt lat="46.14501" lon="7.14177">
        <ele>495.60000610352</ele>
        <time>2023-04-04T11:47:44.000Z</time>
      </trkpt>
      <trkpt lat="46.14503" lon="7.14183">
        <ele>495.79998779297</ele>
        <time>2023-04-04T11:47:45.000Z</time>
      </trkpt>
      <trkpt lat="46.14506" lon="7.14189">
        <ele>495.79998779297</ele>
        <time>2023-04-04T11:47:46.000Z</time>
      </trkpt>
      <trkpt lat="46.14523" lon="7.14227">
        <ele>495.60000610352</ele>
        <time>2023-04-04T11:47:53.000Z</time>
      </trkpt>
      <trkpt lat="46.14552" lon="7.1429">
        <ele>495.60000610352</ele>
        <time>2023-04-04T11:48:04.000Z</time>
      </trkpt>
      <trkpt lat="46.14566" lon="7.14318">
        <ele>496.39999389648</ele>
        <time>2023-04-04T11:48:09.000Z</time>
      </trkpt>
      <trkpt lat="46.14577" lon="7.14343">
        <ele>496.79998779297</ele>
        <time>2023-04-04T11:48:13.000Z</time>
      </trkpt>
      <trkpt lat="46.14604" lon="7.14402">
        <ele>495.60000610352</ele>
        <time>2023-04-04T11:48:23.000Z</time>
      </trkpt>
      <trkpt lat="46.14612" lon="7.1442">
        <ele>495.39999389648</ele>
        <time>2023-04-04T11:48:26.000Z</time>
      </trkpt>
      <trkpt lat="46.14617" lon="7.14432">
        <ele>495.39999389648</ele>
        <time>2023-04-04T11:48:28.000Z</time>
      </trkpt>
      <trkpt lat="46.1462" lon="7.14438">
        <ele>495.20001220703</ele>
        <time>2023-04-04T11:48:29.000Z</time>
      </trkpt>
      <trkpt lat="46.14622" lon="7.14444">
        <ele>495.20001220703</ele>
        <time>2023-04-04T11:48:30.000Z</time>
      </trkpt>
      <trkpt lat="46.14625" lon="7.14449">
        <ele>495.20001220703</ele>
        <time>2023-04-04T11:48:31.000Z</time>
      </trkpt>
      <trkpt lat="46.14628" lon="7.14455">
        <ele>495.20001220703</ele>
        <time>2023-04-04T11:48:32.000Z</time>
      </trkpt>
      <trkpt lat="46.1463" lon="7.14461">
        <ele>495.20001220703</ele>
        <time>2023-04-04T11:48:33.000Z</time>
      </trkpt>
      <trkpt lat="46.14633" lon="7.14466">
        <ele>495.20001220703</ele>
        <time>2023-04-04T11:48:34.000Z</time>
      </trkpt>
      <trkpt lat="46.14638" lon="7.14478">
        <ele>495.20001220703</ele>
        <time>2023-04-04T11:48:36.000Z</time>
      </trkpt>
      <trkpt lat="46.14646" lon="7.14495">
        <ele>495.20001220703</ele>
        <time>2023-04-04T11:48:39.000Z</time>
      </trkpt>
      <trkpt lat="46.14649" lon="7.145">
        <ele>495.39999389648</ele>
        <time>2023-04-04T11:48:40.000Z</time>
      </trkpt>
      <trkpt lat="46.14651" lon="7.14506">
        <ele>495.39999389648</ele>
        <time>2023-04-04T11:48:41.000Z</time>
      </trkpt>
      <trkpt lat="46.14654" lon="7.14512">
        <ele>495.39999389648</ele>
        <time>2023-04-04T11:48:42.000Z</time>
      </trkpt>
      <trkpt lat="46.14656" lon="7.14516">
        <ele>495.39999389648</ele>
        <time>2023-04-04T11:48:43.000Z</time>
      </trkpt>
      <trkpt lat="46.14659" lon="7.14523">
        <ele>495.39999389648</ele>
        <time>2023-04-04T11:48:44.000Z</time>
      </trkpt>
      <trkpt lat="46.14682" lon="7.14573">
        <ele>495.79998779297</ele>
        <time>2023-04-04T11:48:53.000Z</time>
      </trkpt>
      <trkpt lat="46.14703" lon="7.14616">
        <ele>496.39999389648</ele>
        <time>2023-04-04T11:49:01.000Z</time>
      </trkpt>
      <trkpt lat="46.14732" lon="7.14678">
        <ele>495.20001220703</ele>
        <time>2023-04-04T11:49:12.000Z</time>
      </trkpt>
      <trkpt lat="46.14737" lon="7.14688">
        <ele>495</ele>
        <time>2023-04-04T11:49:14.000Z</time>
      </trkpt>
      <trkpt lat="46.14739" lon="7.14692">
        <ele>495.20001220703</ele>
        <time>2023-04-04T11:49:15.000Z</time>
      </trkpt>
      <trkpt lat="46.14741" lon="7.14697">
        <ele>495.20001220703</ele>
        <time>2023-04-04T11:49:16.000Z</time>
      </trkpt>
      <trkpt lat="46.14743" lon="7.14702">
        <ele>495.39999389648</ele>
        <time>2023-04-04T11:49:17.000Z</time>
      </trkpt>
      <trkpt lat="46.14746" lon="7.14707">
        <ele>495.39999389648</ele>
        <time>2023-04-04T11:49:18.000Z</time>
      </trkpt>
      <trkpt lat="46.14748" lon="7.14713">
        <ele>495.20001220703</ele>
        <time>2023-04-04T11:49:19.000Z</time>
      </trkpt>
      <trkpt lat="46.14751" lon="7.14718">
        <ele>495.60000610352</ele>
        <time>2023-04-04T11:49:20.000Z</time>
      </trkpt>
      <trkpt lat="46.14769" lon="7.1476">
        <ele>496</ele>
        <time>2023-04-04T11:49:28.000Z</time>
      </trkpt>
      <trkpt lat="46.1478" lon="7.14786">
        <ele>495.79998779297</ele>
        <time>2023-04-04T11:49:33.000Z</time>
      </trkpt>
      <trkpt lat="46.14783" lon="7.14791">
        <ele>495.79998779297</ele>
        <time>2023-04-04T11:49:34.000Z</time>
      </trkpt>
      <trkpt lat="46.14788" lon="7.14801">
        <ele>495.60000610352</ele>
        <time>2023-04-04T11:49:36.000Z</time>
      </trkpt>
      <trkpt lat="46.1479" lon="7.14806">
        <ele>495.39999389648</ele>
        <time>2023-04-04T11:49:37.000Z</time>
      </trkpt>
      <trkpt lat="46.14793" lon="7.14811">
        <ele>495.39999389648</ele>
        <time>2023-04-04T11:49:38.000Z</time>
      </trkpt>
      <trkpt lat="46.14804" lon="7.14829">
        <ele>495</ele>
        <time>2023-04-04T11:49:42.000Z</time>
      </trkpt>
      <trkpt lat="46.14824" lon="7.14863">
        <ele>494.60000610352</ele>
        <time>2023-04-04T11:49:48.000Z</time>
      </trkpt>
      <trkpt lat="46.14828" lon="7.14871">
        <ele>494.60000610352</ele>
        <time>2023-04-04T11:49:49.000Z</time>
      </trkpt>
      <trkpt lat="46.14843" lon="7.14898">
        <ele>493.79998779297</ele>
        <time>2023-04-04T11:49:52.000Z</time>
      </trkpt>
      <trkpt lat="46.14847" lon="7.14908">
        <ele>493.39999389648</ele>
        <time>2023-04-04T11:49:53.000Z</time>
      </trkpt>
      <trkpt lat="46.14856" lon="7.14927">
        <ele>492.60000610352</ele>
        <time>2023-04-04T11:49:55.000Z</time>
      </trkpt>
      <trkpt lat="46.1486" lon="7.14937">
        <ele>492.20001220703</ele>
        <time>2023-04-04T11:49:56.000Z</time>
      </trkpt>
      <trkpt lat="46.14867" lon="7.14956">
        <ele>491.60000610352</ele>
        <time>2023-04-04T11:49:58.000Z</time>
      </trkpt>
      <trkpt lat="46.1487" lon="7.14964">
        <ele>491.39999389648</ele>
        <time>2023-04-04T11:49:59.000Z</time>
      </trkpt>
      <trkpt lat="46.14872" lon="7.14971">
        <ele>491.20001220703</ele>
        <time>2023-04-04T11:50:00.000Z</time>
      </trkpt>
      <trkpt lat="46.14874" lon="7.14978">
        <ele>491.20001220703</ele>
        <time>2023-04-04T11:50:01.000Z</time>
      </trkpt>
      <trkpt lat="46.14876" lon="7.14983">
        <ele>491.20001220703</ele>
        <time>2023-04-04T11:50:02.000Z</time>
      </trkpt>
      <trkpt lat="46.14878" lon="7.14987">
        <ele>491.20001220703</ele>
        <time>2023-04-04T11:50:03.000Z</time>
      </trkpt>
      <trkpt lat="46.14879" lon="7.14992">
        <ele>491.20001220703</ele>
        <time>2023-04-04T11:50:04.000Z</time>
      </trkpt>
      <trkpt lat="46.14881" lon="7.14996">
        <ele>491.39999389648</ele>
        <time>2023-04-04T11:50:05.000Z</time>
      </trkpt>
      <trkpt lat="46.14882" lon="7.15">
        <ele>491.39999389648</ele>
        <time>2023-04-04T11:50:06.000Z</time>
      </trkpt>
      <trkpt lat="46.14884" lon="7.15003">
        <ele>491.79998779297</ele>
        <time>2023-04-04T11:50:07.000Z</time>
      </trkpt>
      <trkpt lat="46.14887" lon="7.15011">
        <ele>492.60000610352</ele>
        <time>2023-04-04T11:50:09.000Z</time>
      </trkpt>
      <trkpt lat="46.14888" lon="7.15014">
        <ele>492.79998779297</ele>
        <time>2023-04-04T11:50:10.000Z</time>
      </trkpt>
      <trkpt lat="46.14889" lon="7.15018">
        <ele>493</ele>
        <time>2023-04-04T11:50:11.000Z</time>
      </trkpt>
      <trkpt lat="46.1489" lon="7.15021">
        <ele>493.39999389648</ele>
        <time>2023-04-04T11:50:12.000Z</time>
      </trkpt>
      <trkpt lat="46.14891" lon="7.15025">
        <ele>493.39999389648</ele>
        <time>2023-04-04T11:50:13.000Z</time>
      </trkpt>
      <trkpt lat="46.14892" lon="7.15029">
        <ele>493.79998779297</ele>
        <time>2023-04-04T11:50:14.000Z</time>
      </trkpt>
      <trkpt lat="46.14893" lon="7.15034">
        <ele>494</ele>
        <time>2023-04-04T11:50:15.000Z</time>
      </trkpt>
      <trkpt lat="46.14896" lon="7.15042">
        <ele>494.20001220703</ele>
        <time>2023-04-04T11:50:17.000Z</time>
      </trkpt>
      <trkpt lat="46.149" lon="7.15051">
        <ele>494.60000610352</ele>
        <time>2023-04-04T11:50:19.000Z</time>
      </trkpt>
      <trkpt lat="46.14913" lon="7.15078">
        <ele>495</ele>
        <time>2023-04-04T11:50:25.000Z</time>
      </trkpt>
      <trkpt lat="46.1492" lon="7.15093">
        <ele>495</ele>
        <time>2023-04-04T11:50:28.000Z</time>
      </trkpt>
      <trkpt lat="46.14922" lon="7.15098">
        <ele>495</ele>
        <time>2023-04-04T11:50:29.000Z</time>
      </trkpt>
      <trkpt lat="46.14925" lon="7.15104">
        <ele>495</ele>
        <time>2023-04-04T11:50:30.000Z</time>
      </trkpt>
      <trkpt lat="46.14928" lon="7.15109">
        <ele>494.79998779297</ele>
        <time>2023-04-04T11:50:31.000Z</time>
      </trkpt>
      <trkpt lat="46.14932" lon="7.1512">
        <ele>494.60000610352</ele>
        <time>2023-04-04T11:50:33.000Z</time>
      </trkpt>
      <trkpt lat="46.14955" lon="7.1517">
        <ele>494.60000610352</ele>
        <time>2023-04-04T11:50:42.000Z</time>
      </trkpt>
      <trkpt lat="46.14962" lon="7.15186">
        <ele>494.79998779297</ele>
        <time>2023-04-04T11:50:45.000Z</time>
      </trkpt>
      <trkpt lat="46.14969" lon="7.15201">
        <ele>494.60000610352</ele>
        <time>2023-04-04T11:50:48.000Z</time>
      </trkpt>
      <trkpt lat="46.14972" lon="7.15207">
        <ele>494.60000610352</ele>
        <time>2023-04-04T11:50:49.000Z</time>
      </trkpt>
      <trkpt lat="46.14974" lon="7.15212">
        <ele>494.79998779297</ele>
        <time>2023-04-04T11:50:50.000Z</time>
      </trkpt>
      <trkpt lat="46.14977" lon="7.15217">
        <ele>494.60000610352</ele>
        <time>2023-04-04T11:50:51.000Z</time>
      </trkpt>
      <trkpt lat="46.14979" lon="7.15222">
        <ele>494.60000610352</ele>
        <time>2023-04-04T11:50:52.000Z</time>
      </trkpt>
      <trkpt lat="46.14982" lon="7.15227">
        <ele>494.60000610352</ele>
        <time>2023-04-04T11:50:53.000Z</time>
      </trkpt>
      <trkpt lat="46.14989" lon="7.15244">
        <ele>494.79998779297</ele>
        <time>2023-04-04T11:50:56.000Z</time>
      </trkpt>
      <trkpt lat="46.14996" lon="7.1526">
        <ele>495</ele>
        <time>2023-04-04T11:50:59.000Z</time>
      </trkpt>
      <trkpt lat="46.15017" lon="7.15303">
        <ele>495.20001220703</ele>
        <time>2023-04-04T11:51:07.000Z</time>
      </trkpt>
      <trkpt lat="46.15031" lon="7.15336">
        <ele>495</ele>
        <time>2023-04-04T11:51:13.000Z</time>
      </trkpt>
      <trkpt lat="46.15036" lon="7.15347">
        <ele>495.20001220703</ele>
        <time>2023-04-04T11:51:15.000Z</time>
      </trkpt>
      <trkpt lat="46.15039" lon="7.15352">
        <ele>495.20001220703</ele>
        <time>2023-04-04T11:51:16.000Z</time>
      </trkpt>
      <trkpt lat="46.15041" lon="7.15357">
        <ele>495.20001220703</ele>
        <time>2023-04-04T11:51:17.000Z</time>
      </trkpt>
      <trkpt lat="46.15064" lon="7.15407">
        <ele>495.39999389648</ele>
        <time>2023-04-04T11:51:26.000Z</time>
      </trkpt>
      <trkpt lat="46.15082" lon="7.15446">
        <ele>495.39999389648</ele>
        <time>2023-04-04T11:51:33.000Z</time>
      </trkpt>
      <trkpt lat="46.15089" lon="7.15462">
        <ele>495.39999389648</ele>
        <time>2023-04-04T11:51:36.000Z</time>
      </trkpt>
      <trkpt lat="46.15092" lon="7.15467">
        <ele>495.39999389648</ele>
        <time>2023-04-04T11:51:37.000Z</time>
      </trkpt>
      <trkpt lat="46.15094" lon="7.15472">
        <ele>495.39999389648</ele>
        <time>2023-04-04T11:51:38.000Z</time>
      </trkpt>
      <trkpt lat="46.15097" lon="7.15477">
        <ele>495.60000610352</ele>
        <time>2023-04-04T11:51:39.000Z</time>
      </trkpt>
      <trkpt lat="46.15099" lon="7.15482">
        <ele>495.60000610352</ele>
        <time>2023-04-04T11:51:40.000Z</time>
      </trkpt>
      <trkpt lat="46.15101" lon="7.15487">
        <ele>495.79998779297</ele>
        <time>2023-04-04T11:51:41.000Z</time>
      </trkpt>
      <trkpt lat="46.15103" lon="7.15492">
        <ele>495.79998779297</ele>
        <time>2023-04-04T11:51:42.000Z</time>
      </trkpt>
      <trkpt lat="46.15106" lon="7.15497">
        <ele>495.79998779297</ele>
        <time>2023-04-04T11:51:43.000Z</time>
      </trkpt>
      <trkpt lat="46.15108" lon="7.15502">
        <ele>495.79998779297</ele>
        <time>2023-04-04T11:51:44.000Z</time>
      </trkpt>
      <trkpt lat="46.1511" lon="7.15507">
        <ele>495.79998779297</ele>
        <time>2023-04-04T11:51:45.000Z</time>
      </trkpt>
      <trkpt lat="46.15127" lon="7.15544">
        <ele>496</ele>
        <time>2023-04-04T11:51:51.000Z</time>
      </trkpt>
      <trkpt lat="46.1513" lon="7.1555">
        <ele>496</ele>
        <time>2023-04-04T11:51:52.000Z</time>
      </trkpt>
      <trkpt lat="46.15132" lon="7.15556">
        <ele>496</ele>
        <time>2023-04-04T11:51:53.000Z</time>
      </trkpt>
      <trkpt lat="46.15148" lon="7.1559">
        <ele>495.60000610352</ele>
        <time>2023-04-04T11:51:59.000Z</time>
      </trkpt>
      <trkpt lat="46.15151" lon="7.15596">
        <ele>495.60000610352</ele>
        <time>2023-04-04T11:52:00.000Z</time>
      </trkpt>
      <trkpt lat="46.15154" lon="7.15602">
        <ele>495.60000610352</ele>
        <time>2023-04-04T11:52:01.000Z</time>
      </trkpt>
      <trkpt lat="46.15157" lon="7.15608">
        <ele>495.60000610352</ele>
        <time>2023-04-04T11:52:02.000Z</time>
      </trkpt>
      <trkpt lat="46.15159" lon="7.15614">
        <ele>495.60000610352</ele>
        <time>2023-04-04T11:52:03.000Z</time>
      </trkpt>
      <trkpt lat="46.15167" lon="7.15632">
        <ele>495.39999389648</ele>
        <time>2023-04-04T11:52:06.000Z</time>
      </trkpt>
      <trkpt lat="46.15169" lon="7.15637">
        <ele>495.39999389648</ele>
        <time>2023-04-04T11:52:07.000Z</time>
      </trkpt>
      <trkpt lat="46.15172" lon="7.15642">
        <ele>495.39999389648</ele>
        <time>2023-04-04T11:52:08.000Z</time>
      </trkpt>
      <trkpt lat="46.15195" lon="7.15696">
        <ele>495.60000610352</ele>
        <time>2023-04-04T11:52:17.000Z</time>
      </trkpt>
      <trkpt lat="46.1521" lon="7.15731">
        <ele>495.79998779297</ele>
        <time>2023-04-04T11:52:23.000Z</time>
      </trkpt>
      <trkpt lat="46.15213" lon="7.15736">
        <ele>495.79998779297</ele>
        <time>2023-04-04T11:52:24.000Z</time>
      </trkpt>
      <trkpt lat="46.15215" lon="7.15741">
        <ele>495.79998779297</ele>
        <time>2023-04-04T11:52:25.000Z</time>
      </trkpt>
      <trkpt lat="46.15218" lon="7.15747">
        <ele>495.79998779297</ele>
        <time>2023-04-04T11:52:26.000Z</time>
      </trkpt>
      <trkpt lat="46.15221" lon="7.15752">
        <ele>496</ele>
        <time>2023-04-04T11:52:27.000Z</time>
      </trkpt>
      <trkpt lat="46.15237" lon="7.15787">
        <ele>496.20001220703</ele>
        <time>2023-04-04T11:52:33.000Z</time>
      </trkpt>
      <trkpt lat="46.15257" lon="7.15832">
        <ele>497</ele>
        <time>2023-04-04T11:52:41.000Z</time>
      </trkpt>
      <trkpt lat="46.1526" lon="7.15837">
        <ele>497.20001220703</ele>
        <time>2023-04-04T11:52:42.000Z</time>
      </trkpt>
      <trkpt lat="46.15271" lon="7.1586">
        <ele>498.20001220703</ele>
        <time>2023-04-04T11:52:46.000Z</time>
      </trkpt>
      <trkpt lat="46.15296" lon="7.15914">
        <ele>497.79998779297</ele>
        <time>2023-04-04T11:52:55.000Z</time>
      </trkpt>
      <trkpt lat="46.15306" lon="7.15935">
        <ele>497.20001220703</ele>
        <time>2023-04-04T11:52:59.000Z</time>
      </trkpt>
      <trkpt lat="46.15309" lon="7.15942">
        <ele>497.20001220703</ele>
        <time>2023-04-04T11:53:00.000Z</time>
      </trkpt>
      <trkpt lat="46.15312" lon="7.15948">
        <ele>497</ele>
        <time>2023-04-04T11:53:01.000Z</time>
      </trkpt>
      <trkpt lat="46.15315" lon="7.15953">
        <ele>497</ele>
        <time>2023-04-04T11:53:02.000Z</time>
      </trkpt>
      <trkpt lat="46.15317" lon="7.15959">
        <ele>496.79998779297</ele>
        <time>2023-04-04T11:53:03.000Z</time>
      </trkpt>
      <trkpt lat="46.15328" lon="7.15983">
        <ele>496.39999389648</ele>
        <time>2023-04-04T11:53:07.000Z</time>
      </trkpt>
      <trkpt lat="46.15333" lon="7.15995">
        <ele>496.20001220703</ele>
        <time>2023-04-04T11:53:09.000Z</time>
      </trkpt>
      <trkpt lat="46.15346" lon="7.16022">
        <ele>496.20001220703</ele>
        <time>2023-04-04T11:53:14.000Z</time>
      </trkpt>
      <trkpt lat="46.15349" lon="7.16029">
        <ele>496.39999389648</ele>
        <time>2023-04-04T11:53:15.000Z</time>
      </trkpt>
      <trkpt lat="46.15357" lon="7.16047">
        <ele>496.60000610352</ele>
        <time>2023-04-04T11:53:18.000Z</time>
      </trkpt>
      <trkpt lat="46.15363" lon="7.1606">
        <ele>496.79998779297</ele>
        <time>2023-04-04T11:53:20.000Z</time>
      </trkpt>
      <trkpt lat="46.15387" lon="7.16116">
        <ele>496.60000610352</ele>
        <time>2023-04-04T11:53:29.000Z</time>
      </trkpt>
      <trkpt lat="46.15417" lon="7.16181">
        <ele>496.39999389648</ele>
        <time>2023-04-04T11:53:40.000Z</time>
      </trkpt>
      <trkpt lat="46.15423" lon="7.16193">
        <ele>496.60000610352</ele>
        <time>2023-04-04T11:53:42.000Z</time>
      </trkpt>
      <trkpt lat="46.15445" lon="7.16242">
        <ele>497.39999389648</ele>
        <time>2023-04-04T11:53:50.000Z</time>
      </trkpt>
      <trkpt lat="46.15453" lon="7.16261">
        <ele>498</ele>
        <time>2023-04-04T11:53:53.000Z</time>
      </trkpt>
      <trkpt lat="46.15458" lon="7.16272">
        <ele>498.39999389648</ele>
        <time>2023-04-04T11:53:55.000Z</time>
      </trkpt>
      <trkpt lat="46.15461" lon="7.16278">
        <ele>498.39999389648</ele>
        <time>2023-04-04T11:53:56.000Z</time>
      </trkpt>
      <trkpt lat="46.15464" lon="7.16283">
        <ele>498.39999389648</ele>
        <time>2023-04-04T11:53:57.000Z</time>
      </trkpt>
      <trkpt lat="46.15476" lon="7.16314">
        <ele>498.60000610352</ele>
        <time>2023-04-04T11:54:02.000Z</time>
      </trkpt>
      <trkpt lat="46.155" lon="7.16371">
        <ele>498.20001220703</ele>
        <time>2023-04-04T11:54:11.000Z</time>
      </trkpt>
      <trkpt lat="46.15525" lon="7.16435">
        <ele>497.79998779297</ele>
        <time>2023-04-04T11:54:21.000Z</time>
      </trkpt>
      <trkpt lat="46.15535" lon="7.16461">
        <ele>498.20001220703</ele>
        <time>2023-04-04T11:54:25.000Z</time>
      </trkpt>
      <trkpt lat="46.15548" lon="7.16492">
        <ele>498.39999389648</ele>
        <time>2023-04-04T11:54:30.000Z</time>
      </trkpt>
      <trkpt lat="46.15552" lon="7.16505">
        <ele>498.39999389648</ele>
        <time>2023-04-04T11:54:32.000Z</time>
      </trkpt>
      <trkpt lat="46.15555" lon="7.16511">
        <ele>498.20001220703</ele>
        <time>2023-04-04T11:54:33.000Z</time>
      </trkpt>
      <trkpt lat="46.15557" lon="7.16517">
        <ele>498</ele>
        <time>2023-04-04T11:54:34.000Z</time>
      </trkpt>
      <trkpt lat="46.15566" lon="7.16544">
        <ele>498</ele>
        <time>2023-04-04T11:54:38.000Z</time>
      </trkpt>
      <trkpt lat="46.15575" lon="7.16571">
        <ele>497.60000610352</ele>
        <time>2023-04-04T11:54:42.000Z</time>
      </trkpt>
      <trkpt lat="46.15591" lon="7.16618">
        <ele>496.60000610352</ele>
        <time>2023-04-04T11:54:49.000Z</time>
      </trkpt>
      <trkpt lat="46.15594" lon="7.16624">
        <ele>496.60000610352</ele>
        <time>2023-04-04T11:54:50.000Z</time>
      </trkpt>
      <trkpt lat="46.156" lon="7.16644">
        <ele>496.60000610352</ele>
        <time>2023-04-04T11:54:53.000Z</time>
      </trkpt>
      <trkpt lat="46.15602" lon="7.16651">
        <ele>496.60000610352</ele>
        <time>2023-04-04T11:54:54.000Z</time>
      </trkpt>
      <trkpt lat="46.15605" lon="7.16657">
        <ele>496.60000610352</ele>
        <time>2023-04-04T11:54:55.000Z</time>
      </trkpt>
      <trkpt lat="46.15607" lon="7.16663">
        <ele>496.60000610352</ele>
        <time>2023-04-04T11:54:56.000Z</time>
      </trkpt>
      <trkpt lat="46.15613" lon="7.16683">
        <ele>497</ele>
        <time>2023-04-04T11:54:59.000Z</time>
      </trkpt>
      <trkpt lat="46.15617" lon="7.16696">
        <ele>497.60000610352</ele>
        <time>2023-04-04T11:55:01.000Z</time>
      </trkpt>
      <trkpt lat="46.15635" lon="7.16747">
        <ele>498.20001220703</ele>
        <time>2023-04-04T11:55:09.000Z</time>
      </trkpt>
      <trkpt lat="46.15653" lon="7.16806">
        <ele>498.60000610352</ele>
        <time>2023-04-04T11:55:18.000Z</time>
      </trkpt>
      <trkpt lat="46.15668" lon="7.16861">
        <ele>498.60000610352</ele>
        <time>2023-04-04T11:55:26.000Z</time>
      </trkpt>
      <trkpt lat="46.15685" lon="7.16922">
        <ele>498</ele>
        <time>2023-04-04T11:55:35.000Z</time>
      </trkpt>
      <trkpt lat="46.15689" lon="7.16935">
        <ele>497.79998779297</ele>
        <time>2023-04-04T11:55:37.000Z</time>
      </trkpt>
      <trkpt lat="46.15702" lon="7.16983">
        <ele>497.60000610352</ele>
        <time>2023-04-04T11:55:44.000Z</time>
      </trkpt>
      <trkpt lat="46.15709" lon="7.1701">
        <ele>497.60000610352</ele>
        <time>2023-04-04T11:55:48.000Z</time>
      </trkpt>
      <trkpt lat="46.15711" lon="7.17017">
        <ele>497.60000610352</ele>
        <time>2023-04-04T11:55:49.000Z</time>
      </trkpt>
      <trkpt lat="46.15713" lon="7.17024">
        <ele>497.60000610352</ele>
        <time>2023-04-04T11:55:50.000Z</time>
      </trkpt>
      <trkpt lat="46.15717" lon="7.17038">
        <ele>497.39999389648</ele>
        <time>2023-04-04T11:55:52.000Z</time>
      </trkpt>
      <trkpt lat="46.15735" lon="7.17107">
        <ele>497.20001220703</ele>
        <time>2023-04-04T11:56:02.000Z</time>
      </trkpt>
      <trkpt lat="46.15752" lon="7.17169">
        <ele>497.39999389648</ele>
        <time>2023-04-04T11:56:11.000Z</time>
      </trkpt>
      <trkpt lat="46.1577" lon="7.17244">
        <ele>497.39999389648</ele>
        <time>2023-04-04T11:56:22.000Z</time>
      </trkpt>
      <trkpt lat="46.15773" lon="7.17258">
        <ele>497.39999389648</ele>
        <time>2023-04-04T11:56:24.000Z</time>
      </trkpt>
      <trkpt lat="46.15778" lon="7.17279">
        <ele>497.39999389648</ele>
        <time>2023-04-04T11:56:27.000Z</time>
      </trkpt>
      <trkpt lat="46.15783" lon="7.173">
        <ele>497.60000610352</ele>
        <time>2023-04-04T11:56:30.000Z</time>
      </trkpt>
      <trkpt lat="46.15797" lon="7.17374">
        <ele>497.79998779297</ele>
        <time>2023-04-04T11:56:40.000Z</time>
      </trkpt>
      <trkpt lat="46.15805" lon="7.17425">
        <ele>498</ele>
        <time>2023-04-04T11:56:47.000Z</time>
      </trkpt>
      <trkpt lat="46.15807" lon="7.1744">
        <ele>498.39999389648</ele>
        <time>2023-04-04T11:56:49.000Z</time>
      </trkpt>
      <trkpt lat="46.1582" lon="7.17516">
        <ele>498</ele>
        <time>2023-04-04T11:56:59.000Z</time>
      </trkpt>
      <trkpt lat="46.15822" lon="7.17532">
        <ele>497.79998779297</ele>
        <time>2023-04-04T11:57:01.000Z</time>
      </trkpt>
      <trkpt lat="46.1583" lon="7.17586">
        <ele>497.79998779297</ele>
        <time>2023-04-04T11:57:08.000Z</time>
      </trkpt>
      <trkpt lat="46.15832" lon="7.17601">
        <ele>498</ele>
        <time>2023-04-04T11:57:10.000Z</time>
      </trkpt>
      <trkpt lat="46.1584" lon="7.17657">
        <ele>499</ele>
        <time>2023-04-04T11:57:17.000Z</time>
      </trkpt>
      <trkpt lat="46.15843" lon="7.17681">
        <ele>499.20001220703</ele>
        <time>2023-04-04T11:57:20.000Z</time>
      </trkpt>
      <trkpt lat="46.15847" lon="7.17711">
        <ele>499</ele>
        <time>2023-04-04T11:57:24.000Z</time>
      </trkpt>
      <trkpt lat="46.15849" lon="7.17719">
        <ele>499</ele>
        <time>2023-04-04T11:57:25.000Z</time>
      </trkpt>
      <trkpt lat="46.1585" lon="7.17728">
        <ele>499</ele>
        <time>2023-04-04T11:57:26.000Z</time>
      </trkpt>
      <trkpt lat="46.15851" lon="7.17736">
        <ele>498.79998779297</ele>
        <time>2023-04-04T11:57:27.000Z</time>
      </trkpt>
      <trkpt lat="46.15853" lon="7.17751">
        <ele>498.60000610352</ele>
        <time>2023-04-04T11:57:29.000Z</time>
      </trkpt>
      <trkpt lat="46.15854" lon="7.17759">
        <ele>498.60000610352</ele>
        <time>2023-04-04T11:57:30.000Z</time>
      </trkpt>
      <trkpt lat="46.15855" lon="7.17766">
        <ele>498.60000610352</ele>
        <time>2023-04-04T11:57:31.000Z</time>
      </trkpt>
      <trkpt lat="46.1586" lon="7.17797">
        <ele>499</ele>
        <time>2023-04-04T11:57:35.000Z</time>
      </trkpt>
      <trkpt lat="46.15862" lon="7.17812">
        <ele>499</ele>
        <time>2023-04-04T11:57:37.000Z</time>
      </trkpt>
      <trkpt lat="46.15864" lon="7.1782">
        <ele>499</ele>
        <time>2023-04-04T11:57:38.000Z</time>
      </trkpt>
      <trkpt lat="46.15865" lon="7.17828">
        <ele>499</ele>
        <time>2023-04-04T11:57:39.000Z</time>
      </trkpt>
      <trkpt lat="46.15871" lon="7.17873">
        <ele>499.20001220703</ele>
        <time>2023-04-04T11:57:45.000Z</time>
      </trkpt>
      <trkpt lat="46.15875" lon="7.17895">
        <ele>499.20001220703</ele>
        <time>2023-04-04T11:57:48.000Z</time>
      </trkpt>
      <trkpt lat="46.15882" lon="7.17941">
        <ele>499.79998779297</ele>
        <time>2023-04-04T11:57:54.000Z</time>
      </trkpt>
      <trkpt lat="46.15883" lon="7.17948">
        <ele>499.79998779297</ele>
        <time>2023-04-04T11:57:55.000Z</time>
      </trkpt>
      <trkpt lat="46.15884" lon="7.17955">
        <ele>499.79998779297</ele>
        <time>2023-04-04T11:57:56.000Z</time>
      </trkpt>
      <trkpt lat="46.15885" lon="7.17961">
        <ele>499.79998779297</ele>
        <time>2023-04-04T11:57:57.000Z</time>
      </trkpt>
      <trkpt lat="46.15886" lon="7.17968">
        <ele>500</ele>
        <time>2023-04-04T11:57:58.000Z</time>
      </trkpt>
      <trkpt lat="46.15887" lon="7.17975">
        <ele>500</ele>
        <time>2023-04-04T11:57:59.000Z</time>
      </trkpt>
      <trkpt lat="46.15887" lon="7.17982">
        <ele>500</ele>
        <time>2023-04-04T11:58:00.000Z</time>
      </trkpt>
      <trkpt lat="46.15888" lon="7.17989">
        <ele>500.20001220703</ele>
        <time>2023-04-04T11:58:01.000Z</time>
      </trkpt>
      <trkpt lat="46.15889" lon="7.17996">
        <ele>500.20001220703</ele>
        <time>2023-04-04T11:58:02.000Z</time>
      </trkpt>
      <trkpt lat="46.15892" lon="7.18016">
        <ele>500.39999389648</ele>
        <time>2023-04-04T11:58:05.000Z</time>
      </trkpt>
      <trkpt lat="46.15897" lon="7.18047">
        <ele>500.20001220703</ele>
        <time>2023-04-04T11:58:09.000Z</time>
      </trkpt>
      <trkpt lat="46.15904" lon="7.18097">
        <ele>499.39999389648</ele>
        <time>2023-04-04T11:58:16.000Z</time>
      </trkpt>
      <trkpt lat="46.15907" lon="7.18118">
        <ele>499.20001220703</ele>
        <time>2023-04-04T11:58:19.000Z</time>
      </trkpt>
      <trkpt lat="46.15912" lon="7.18153">
        <ele>499.39999389648</ele>
        <time>2023-04-04T11:58:24.000Z</time>
      </trkpt>
      <trkpt lat="46.15914" lon="7.18167">
        <ele>499.60000610352</ele>
        <time>2023-04-04T11:58:26.000Z</time>
      </trkpt>
      <trkpt lat="46.15915" lon="7.18174">
        <ele>499.60000610352</ele>
        <time>2023-04-04T11:58:27.000Z</time>
      </trkpt>
      <trkpt lat="46.15915" lon="7.18181">
        <ele>499.60000610352</ele>
        <time>2023-04-04T11:58:28.000Z</time>
      </trkpt>
      <trkpt lat="46.15922" lon="7.18224">
        <ele>499.60000610352</ele>
        <time>2023-04-04T11:58:34.000Z</time>
      </trkpt>
      <trkpt lat="46.15922" lon="7.18231">
        <ele>499.60000610352</ele>
        <time>2023-04-04T11:58:35.000Z</time>
      </trkpt>
      <trkpt lat="46.15935" lon="7.18302">
        <ele>499.39999389648</ele>
        <time>2023-04-04T11:58:45.000Z</time>
      </trkpt>
      <trkpt lat="46.15944" lon="7.18359">
        <ele>499.39999389648</ele>
        <time>2023-04-04T11:58:53.000Z</time>
      </trkpt>
      <trkpt lat="46.15954" lon="7.18418">
        <ele>499</ele>
        <time>2023-04-04T11:59:01.000Z</time>
      </trkpt>
      <trkpt lat="46.15964" lon="7.18468">
        <ele>499.39999389648</ele>
        <time>2023-04-04T11:59:08.000Z</time>
      </trkpt>
      <trkpt lat="46.15965" lon="7.18475">
        <ele>499.39999389648</ele>
        <time>2023-04-04T11:59:09.000Z</time>
      </trkpt>
      <trkpt lat="46.15967" lon="7.18482">
        <ele>499.39999389648</ele>
        <time>2023-04-04T11:59:10.000Z</time>
      </trkpt>
      <trkpt lat="46.15968" lon="7.18489">
        <ele>499.39999389648</ele>
        <time>2023-04-04T11:59:11.000Z</time>
      </trkpt>
      <trkpt lat="46.1597" lon="7.18496">
        <ele>499.39999389648</ele>
        <time>2023-04-04T11:59:12.000Z</time>
      </trkpt>
      <trkpt lat="46.15971" lon="7.18503">
        <ele>499.39999389648</ele>
        <time>2023-04-04T11:59:13.000Z</time>
      </trkpt>
      <trkpt lat="46.15973" lon="7.1851">
        <ele>499.39999389648</ele>
        <time>2023-04-04T11:59:14.000Z</time>
      </trkpt>
      <trkpt lat="46.15974" lon="7.18517">
        <ele>499.60000610352</ele>
        <time>2023-04-04T11:59:15.000Z</time>
      </trkpt>
      <trkpt lat="46.15976" lon="7.18524">
        <ele>499.60000610352</ele>
        <time>2023-04-04T11:59:16.000Z</time>
      </trkpt>
      <trkpt lat="46.15977" lon="7.1853">
        <ele>499.60000610352</ele>
        <time>2023-04-04T11:59:17.000Z</time>
      </trkpt>
      <trkpt lat="46.15979" lon="7.18537">
        <ele>499.60000610352</ele>
        <time>2023-04-04T11:59:18.000Z</time>
      </trkpt>
      <trkpt lat="46.1598" lon="7.18544">
        <ele>499.79998779297</ele>
        <time>2023-04-04T11:59:19.000Z</time>
      </trkpt>
      <trkpt lat="46.15982" lon="7.1855">
        <ele>499.79998779297</ele>
        <time>2023-04-04T11:59:20.000Z</time>
      </trkpt>
      <trkpt lat="46.15983" lon="7.18557">
        <ele>499.79998779297</ele>
        <time>2023-04-04T11:59:21.000Z</time>
      </trkpt>
      <trkpt lat="46.15985" lon="7.18563">
        <ele>499.79998779297</ele>
        <time>2023-04-04T11:59:22.000Z</time>
      </trkpt>
      <trkpt lat="46.15986" lon="7.1857">
        <ele>499.79998779297</ele>
        <time>2023-04-04T11:59:23.000Z</time>
      </trkpt>
      <trkpt lat="46.15988" lon="7.18577">
        <ele>499.79998779297</ele>
        <time>2023-04-04T11:59:24.000Z</time>
      </trkpt>
      <trkpt lat="46.15989" lon="7.18584">
        <ele>499.79998779297</ele>
        <time>2023-04-04T11:59:25.000Z</time>
      </trkpt>
      <trkpt lat="46.15992" lon="7.18597">
        <ele>499.79998779297</ele>
        <time>2023-04-04T11:59:27.000Z</time>
      </trkpt>
      <trkpt lat="46.16003" lon="7.18645">
        <ele>499.79998779297</ele>
        <time>2023-04-04T11:59:34.000Z</time>
      </trkpt>
      <trkpt lat="46.16008" lon="7.18666">
        <ele>499.79998779297</ele>
        <time>2023-04-04T11:59:37.000Z</time>
      </trkpt>
      <trkpt lat="46.16014" lon="7.18694">
        <ele>499.79998779297</ele>
        <time>2023-04-04T11:59:41.000Z</time>
      </trkpt>
      <trkpt lat="46.1603" lon="7.1876">
        <ele>500</ele>
        <time>2023-04-04T11:59:51.000Z</time>
      </trkpt>
      <trkpt lat="46.16032" lon="7.18767">
        <ele>500.20001220703</ele>
        <time>2023-04-04T11:59:52.000Z</time>
      </trkpt>
      <trkpt lat="46.16033" lon="7.18774">
        <ele>500.20001220703</ele>
        <time>2023-04-04T11:59:53.000Z</time>
      </trkpt>
      <trkpt lat="46.16051" lon="7.18848">
        <ele>500.79998779297</ele>
        <time>2023-04-04T12:00:04.000Z</time>
      </trkpt>
      <trkpt lat="46.16052" lon="7.18854">
        <ele>500.79998779297</ele>
        <time>2023-04-04T12:00:05.000Z</time>
      </trkpt>
      <trkpt lat="46.16054" lon="7.18861">
        <ele>500.79998779297</ele>
        <time>2023-04-04T12:00:06.000Z</time>
      </trkpt>
      <trkpt lat="46.16055" lon="7.18867">
        <ele>500.79998779297</ele>
        <time>2023-04-04T12:00:07.000Z</time>
      </trkpt>
      <trkpt lat="46.16057" lon="7.18873">
        <ele>500.79998779297</ele>
        <time>2023-04-04T12:00:08.000Z</time>
      </trkpt>
      <trkpt lat="46.16058" lon="7.18879">
        <ele>500.79998779297</ele>
        <time>2023-04-04T12:00:09.000Z</time>
      </trkpt>
      <trkpt lat="46.1606" lon="7.18885">
        <ele>500.79998779297</ele>
        <time>2023-04-04T12:00:10.000Z</time>
      </trkpt>
      <trkpt lat="46.16061" lon="7.18891">
        <ele>500.60000610352</ele>
        <time>2023-04-04T12:00:11.000Z</time>
      </trkpt>
      <trkpt lat="46.16063" lon="7.18897">
        <ele>500.60000610352</ele>
        <time>2023-04-04T12:00:12.000Z</time>
      </trkpt>
      <trkpt lat="46.16064" lon="7.18903">
        <ele>500.60000610352</ele>
        <time>2023-04-04T12:00:13.000Z</time>
      </trkpt>
      <trkpt lat="46.16065" lon="7.18908">
        <ele>500.60000610352</ele>
        <time>2023-04-04T12:00:14.000Z</time>
      </trkpt>
      <trkpt lat="46.16066" lon="7.18912">
        <ele>500.60000610352</ele>
        <time>2023-04-04T12:00:15.000Z</time>
      </trkpt>
      <trkpt lat="46.16067" lon="7.18917">
        <ele>500.79998779297</ele>
        <time>2023-04-04T12:00:16.000Z</time>
      </trkpt>
      <trkpt lat="46.16068" lon="7.1892">
        <ele>500.79998779297</ele>
        <time>2023-04-04T12:00:17.000Z</time>
      </trkpt>
      <trkpt lat="46.16069" lon="7.18924">
        <ele>500.79998779297</ele>
        <time>2023-04-04T12:00:18.000Z</time>
      </trkpt>
      <trkpt lat="46.16069" lon="7.18927">
        <ele>500.79998779297</ele>
        <time>2023-04-04T12:00:19.000Z</time>
      </trkpt>
      <trkpt lat="46.1607" lon="7.18931">
        <ele>501</ele>
        <time>2023-04-04T12:00:20.000Z</time>
      </trkpt>
      <trkpt lat="46.16071" lon="7.18934">
        <ele>501</ele>
        <time>2023-04-04T12:00:21.000Z</time>
      </trkpt>
      <trkpt lat="46.16072" lon="7.18938">
        <ele>501.39999389648</ele>
        <time>2023-04-04T12:00:23.000Z</time>
      </trkpt>
      <trkpt lat="46.16072" lon="7.1894">
        <ele>501.39999389648</ele>
        <time>2023-04-04T12:00:24.000Z</time>
      </trkpt>
      <trkpt lat="46.16072" lon="7.1894">
        <ele>501.60000610352</ele>
        <time>2023-04-04T12:00:25.000Z</time>
      </trkpt>
      <trkpt lat="46.16072" lon="7.1894">
        <ele>501.79998779297</ele>
        <time>2023-04-04T12:00:26.000Z</time>
      </trkpt>
      <trkpt lat="46.16073" lon="7.18944">
        <ele>503</ele>
        <time>2023-04-04T12:00:41.000Z</time>
      </trkpt>
      <trkpt lat="46.16077" lon="7.18968">
        <ele>503.39999389648</ele>
        <time>2023-04-04T12:00:47.000Z</time>
      </trkpt>
      <trkpt lat="46.16084" lon="7.18999">
        <ele>502.79998779297</ele>
        <time>2023-04-04T12:00:52.000Z</time>
      </trkpt>
      <trkpt lat="46.16093" lon="7.19039">
        <ele>501.79998779297</ele>
        <time>2023-04-04T12:00:57.000Z</time>
      </trkpt>
      <trkpt lat="46.16094" lon="7.19047">
        <ele>501.60000610352</ele>
        <time>2023-04-04T12:00:58.000Z</time>
      </trkpt>
      <trkpt lat="46.16096" lon="7.19055">
        <ele>501.20001220703</ele>
        <time>2023-04-04T12:00:59.000Z</time>
      </trkpt>
      <trkpt lat="46.16098" lon="7.19063">
        <ele>500.79998779297</ele>
        <time>2023-04-04T12:01:00.000Z</time>
      </trkpt>
      <trkpt lat="46.161" lon="7.1907">
        <ele>500.60000610352</ele>
        <time>2023-04-04T12:01:01.000Z</time>
      </trkpt>
      <trkpt lat="46.16107" lon="7.191">
        <ele>500.20001220703</ele>
        <time>2023-04-04T12:01:05.000Z</time>
      </trkpt>
      <trkpt lat="46.16108" lon="7.19108">
        <ele>500.20001220703</ele>
        <time>2023-04-04T12:01:06.000Z</time>
      </trkpt>
      <trkpt lat="46.1611" lon="7.19115">
        <ele>500.20001220703</ele>
        <time>2023-04-04T12:01:07.000Z</time>
      </trkpt>
      <trkpt lat="46.16114" lon="7.1913">
        <ele>500.20001220703</ele>
        <time>2023-04-04T12:01:09.000Z</time>
      </trkpt>
      <trkpt lat="46.16122" lon="7.19165">
        <ele>500.20001220703</ele>
        <time>2023-04-04T12:01:14.000Z</time>
      </trkpt>
      <trkpt lat="46.16123" lon="7.19172">
        <ele>500.20001220703</ele>
        <time>2023-04-04T12:01:15.000Z</time>
      </trkpt>
      <trkpt lat="46.16125" lon="7.19178">
        <ele>500.39999389648</ele>
        <time>2023-04-04T12:01:16.000Z</time>
      </trkpt>
      <trkpt lat="46.16127" lon="7.19185">
        <ele>500.39999389648</ele>
        <time>2023-04-04T12:01:17.000Z</time>
      </trkpt>
      <trkpt lat="46.16129" lon="7.19191">
        <ele>500.39999389648</ele>
        <time>2023-04-04T12:01:18.000Z</time>
      </trkpt>
      <trkpt lat="46.16131" lon="7.19198">
        <ele>500.39999389648</ele>
        <time>2023-04-04T12:01:19.000Z</time>
      </trkpt>
      <trkpt lat="46.16132" lon="7.19205">
        <ele>500.39999389648</ele>
        <time>2023-04-04T12:01:20.000Z</time>
      </trkpt>
      <trkpt lat="46.16134" lon="7.19211">
        <ele>500.39999389648</ele>
        <time>2023-04-04T12:01:21.000Z</time>
      </trkpt>
      <trkpt lat="46.16135" lon="7.19218">
        <ele>500.39999389648</ele>
        <time>2023-04-04T12:01:22.000Z</time>
      </trkpt>
      <trkpt lat="46.16143" lon="7.1925">
        <ele>500.39999389648</ele>
        <time>2023-04-04T12:01:27.000Z</time>
      </trkpt>
      <trkpt lat="46.16145" lon="7.19256">
        <ele>500.39999389648</ele>
        <time>2023-04-04T12:01:28.000Z</time>
      </trkpt>
      <trkpt lat="46.16147" lon="7.19263">
        <ele>500.39999389648</ele>
        <time>2023-04-04T12:01:29.000Z</time>
      </trkpt>
      <trkpt lat="46.16151" lon="7.19276">
        <ele>500.39999389648</ele>
        <time>2023-04-04T12:01:31.000Z</time>
      </trkpt>
      <trkpt lat="46.16158" lon="7.19309">
        <ele>500.39999389648</ele>
        <time>2023-04-04T12:01:36.000Z</time>
      </trkpt>
      <trkpt lat="46.16175" lon="7.19367">
        <ele>500.39999389648</ele>
        <time>2023-04-04T12:01:45.000Z</time>
      </trkpt>
      <trkpt lat="46.16177" lon="7.19373">
        <ele>500.39999389648</ele>
        <time>2023-04-04T12:01:46.000Z</time>
      </trkpt>
      <trkpt lat="46.16179" lon="7.19379">
        <ele>500.60000610352</ele>
        <time>2023-04-04T12:01:47.000Z</time>
      </trkpt>
      <trkpt lat="46.16181" lon="7.19385">
        <ele>500.60000610352</ele>
        <time>2023-04-04T12:01:48.000Z</time>
      </trkpt>
      <trkpt lat="46.16199" lon="7.19433">
        <ele>501</ele>
        <time>2023-04-04T12:01:56.000Z</time>
      </trkpt>
      <trkpt lat="46.16228" lon="7.1949">
        <ele>501.60000610352</ele>
        <time>2023-04-04T12:02:06.000Z</time>
      </trkpt>
      <trkpt lat="46.16231" lon="7.19495">
        <ele>501.79998779297</ele>
        <time>2023-04-04T12:02:07.000Z</time>
      </trkpt>
      <trkpt lat="46.16234" lon="7.195">
        <ele>502</ele>
        <time>2023-04-04T12:02:08.000Z</time>
      </trkpt>
      <trkpt lat="46.16244" lon="7.19516">
        <ele>502</ele>
        <time>2023-04-04T12:02:11.000Z</time>
      </trkpt>
      <trkpt lat="46.16247" lon="7.19521">
        <ele>502</ele>
        <time>2023-04-04T12:02:12.000Z</time>
      </trkpt>
      <trkpt lat="46.16253" lon="7.19532">
        <ele>502</ele>
        <time>2023-04-04T12:02:14.000Z</time>
      </trkpt>
      <trkpt lat="46.16256" lon="7.19537">
        <ele>502</ele>
        <time>2023-04-04T12:02:15.000Z</time>
      </trkpt>
      <trkpt lat="46.1626" lon="7.19541">
        <ele>502</ele>
        <time>2023-04-04T12:02:16.000Z</time>
      </trkpt>
      <trkpt lat="46.16282" lon="7.1957">
        <ele>501.60000610352</ele>
        <time>2023-04-04T12:02:22.000Z</time>
      </trkpt>
      <trkpt lat="46.16285" lon="7.19574">
        <ele>501.60000610352</ele>
        <time>2023-04-04T12:02:23.000Z</time>
      </trkpt>
      <trkpt lat="46.16289" lon="7.19579">
        <ele>501.60000610352</ele>
        <time>2023-04-04T12:02:24.000Z</time>
      </trkpt>
      <trkpt lat="46.16296" lon="7.19587">
        <ele>501.60000610352</ele>
        <time>2023-04-04T12:02:26.000Z</time>
      </trkpt>
      <trkpt lat="46.163" lon="7.1959">
        <ele>501.39999389648</ele>
        <time>2023-04-04T12:02:27.000Z</time>
      </trkpt>
      <trkpt lat="46.16304" lon="7.19594">
        <ele>501.39999389648</ele>
        <time>2023-04-04T12:02:28.000Z</time>
      </trkpt>
      <trkpt lat="46.16308" lon="7.19598">
        <ele>501.39999389648</ele>
        <time>2023-04-04T12:02:29.000Z</time>
      </trkpt>
      <trkpt lat="46.16312" lon="7.19602">
        <ele>501.60000610352</ele>
        <time>2023-04-04T12:02:30.000Z</time>
      </trkpt>
      <trkpt lat="46.16316" lon="7.19607">
        <ele>501.60000610352</ele>
        <time>2023-04-04T12:02:31.000Z</time>
      </trkpt>
      <trkpt lat="46.16319" lon="7.19611">
        <ele>501.60000610352</ele>
        <time>2023-04-04T12:02:32.000Z</time>
      </trkpt>
      <trkpt lat="46.16323" lon="7.19616">
        <ele>501.60000610352</ele>
        <time>2023-04-04T12:02:33.000Z</time>
      </trkpt>
      <trkpt lat="46.16327" lon="7.19621">
        <ele>501.79998779297</ele>
        <time>2023-04-04T12:02:34.000Z</time>
      </trkpt>
      <trkpt lat="46.16331" lon="7.19625">
        <ele>501.79998779297</ele>
        <time>2023-04-04T12:02:35.000Z</time>
      </trkpt>
      <trkpt lat="46.16341" lon="7.19636">
        <ele>502</ele>
        <time>2023-04-04T12:02:38.000Z</time>
      </trkpt>
      <trkpt lat="46.16358" lon="7.19652">
        <ele>502.39999389648</ele>
        <time>2023-04-04T12:02:42.000Z</time>
      </trkpt>
      <trkpt lat="46.16365" lon="7.1966">
        <ele>502.39999389648</ele>
        <time>2023-04-04T12:02:44.000Z</time>
      </trkpt>
      <trkpt lat="46.16374" lon="7.19669">
        <ele>502.39999389648</ele>
        <time>2023-04-04T12:02:46.000Z</time>
      </trkpt>
      <trkpt lat="46.164" lon="7.19692">
        <ele>502.39999389648</ele>
        <time>2023-04-04T12:02:52.000Z</time>
      </trkpt>
      <trkpt lat="46.16409" lon="7.19699">
        <ele>502.39999389648</ele>
        <time>2023-04-04T12:02:54.000Z</time>
      </trkpt>
      <trkpt lat="46.16417" lon="7.19704">
        <ele>502.39999389648</ele>
        <time>2023-04-04T12:02:56.000Z</time>
      </trkpt>
      <trkpt lat="46.16421" lon="7.19707">
        <ele>502.39999389648</ele>
        <time>2023-04-04T12:02:57.000Z</time>
      </trkpt>
      <trkpt lat="46.16425" lon="7.19711">
        <ele>502.39999389648</ele>
        <time>2023-04-04T12:02:58.000Z</time>
      </trkpt>
      <trkpt lat="46.16429" lon="7.19714">
        <ele>502.60000610352</ele>
        <time>2023-04-04T12:02:59.000Z</time>
      </trkpt>
      <trkpt lat="46.16456" lon="7.19734">
        <ele>502.79998779297</ele>
        <time>2023-04-04T12:03:05.000Z</time>
      </trkpt>
      <trkpt lat="46.16483" lon="7.19752">
        <ele>503</ele>
        <time>2023-04-04T12:03:11.000Z</time>
      </trkpt>
      <trkpt lat="46.16488" lon="7.19755">
        <ele>503</ele>
        <time>2023-04-04T12:03:12.000Z</time>
      </trkpt>
      <trkpt lat="46.16501" lon="7.19763">
        <ele>503.20001220703</ele>
        <time>2023-04-04T12:03:15.000Z</time>
      </trkpt>
      <trkpt lat="46.16506" lon="7.19766">
        <ele>503.20001220703</ele>
        <time>2023-04-04T12:03:16.000Z</time>
      </trkpt>
      <trkpt lat="46.16511" lon="7.19768">
        <ele>503.20001220703</ele>
        <time>2023-04-04T12:03:17.000Z</time>
      </trkpt>
      <trkpt lat="46.16515" lon="7.1977">
        <ele>503.20001220703</ele>
        <time>2023-04-04T12:03:18.000Z</time>
      </trkpt>
      <trkpt lat="46.1652" lon="7.19773">
        <ele>503.20001220703</ele>
        <time>2023-04-04T12:03:19.000Z</time>
      </trkpt>
      <trkpt lat="46.16524" lon="7.19775">
        <ele>503.20001220703</ele>
        <time>2023-04-04T12:03:20.000Z</time>
      </trkpt>
      <trkpt lat="46.16529" lon="7.19777">
        <ele>503.20001220703</ele>
        <time>2023-04-04T12:03:21.000Z</time>
      </trkpt>
      <trkpt lat="46.16533" lon="7.1978">
        <ele>503.20001220703</ele>
        <time>2023-04-04T12:03:22.000Z</time>
      </trkpt>
      <trkpt lat="46.16537" lon="7.19782">
        <ele>503.20001220703</ele>
        <time>2023-04-04T12:03:23.000Z</time>
      </trkpt>
      <trkpt lat="46.16542" lon="7.19784">
        <ele>503.20001220703</ele>
        <time>2023-04-04T12:03:24.000Z</time>
      </trkpt>
      <trkpt lat="46.16546" lon="7.19787">
        <ele>503.20001220703</ele>
        <time>2023-04-04T12:03:25.000Z</time>
      </trkpt>
      <trkpt lat="46.16551" lon="7.19789">
        <ele>503.20001220703</ele>
        <time>2023-04-04T12:03:26.000Z</time>
      </trkpt>
      <trkpt lat="46.16555" lon="7.19791">
        <ele>503.20001220703</ele>
        <time>2023-04-04T12:03:27.000Z</time>
      </trkpt>
      <trkpt lat="46.16583" lon="7.19806">
        <ele>503.79998779297</ele>
        <time>2023-04-04T12:03:33.000Z</time>
      </trkpt>
      <trkpt lat="46.16611" lon="7.1982">
        <ele>503.79998779297</ele>
        <time>2023-04-04T12:03:39.000Z</time>
      </trkpt>
      <trkpt lat="46.16616" lon="7.19822">
        <ele>503.79998779297</ele>
        <time>2023-04-04T12:03:40.000Z</time>
      </trkpt>
      <trkpt lat="46.16629" lon="7.1983">
        <ele>503.79998779297</ele>
        <time>2023-04-04T12:03:43.000Z</time>
      </trkpt>
      <trkpt lat="46.16633" lon="7.19832">
        <ele>503.79998779297</ele>
        <time>2023-04-04T12:03:44.000Z</time>
      </trkpt>
      <trkpt lat="46.16641" lon="7.19837">
        <ele>504.20001220703</ele>
        <time>2023-04-04T12:03:46.000Z</time>
      </trkpt>
      <trkpt lat="46.16645" lon="7.19839">
        <ele>504.20001220703</ele>
        <time>2023-04-04T12:03:47.000Z</time>
      </trkpt>
      <trkpt lat="46.16649" lon="7.19841">
        <ele>504.39999389648</ele>
        <time>2023-04-04T12:03:48.000Z</time>
      </trkpt>
      <trkpt lat="46.16653" lon="7.19843">
        <ele>504.39999389648</ele>
        <time>2023-04-04T12:03:49.000Z</time>
      </trkpt>
      <trkpt lat="46.16657" lon="7.19845">
        <ele>504.60000610352</ele>
        <time>2023-04-04T12:03:50.000Z</time>
      </trkpt>
      <trkpt lat="46.16661" lon="7.19848">
        <ele>504.60000610352</ele>
        <time>2023-04-04T12:03:51.000Z</time>
      </trkpt>
      <trkpt lat="46.16666" lon="7.1985">
        <ele>504.60000610352</ele>
        <time>2023-04-04T12:03:52.000Z</time>
      </trkpt>
      <trkpt lat="46.16675" lon="7.19854">
        <ele>504.79998779297</ele>
        <time>2023-04-04T12:03:54.000Z</time>
      </trkpt>
      <trkpt lat="46.16693" lon="7.19862">
        <ele>505.20001220703</ele>
        <time>2023-04-04T12:03:58.000Z</time>
      </trkpt>
      <trkpt lat="46.16697" lon="7.19864">
        <ele>505.20001220703</ele>
        <time>2023-04-04T12:03:59.000Z</time>
      </trkpt>
      <trkpt lat="46.16706" lon="7.19868">
        <ele>505.20001220703</ele>
        <time>2023-04-04T12:04:01.000Z</time>
      </trkpt>
      <trkpt lat="46.1673" lon="7.19878">
        <ele>505</ele>
        <time>2023-04-04T12:04:06.000Z</time>
      </trkpt>
      <trkpt lat="46.16735" lon="7.1988">
        <ele>504.79998779297</ele>
        <time>2023-04-04T12:04:07.000Z</time>
      </trkpt>
      <trkpt lat="46.1674" lon="7.19882">
        <ele>504.79998779297</ele>
        <time>2023-04-04T12:04:08.000Z</time>
      </trkpt>
      <trkpt lat="46.16775" lon="7.19896">
        <ele>504.60000610352</ele>
        <time>2023-04-04T12:04:15.000Z</time>
      </trkpt>
      <trkpt lat="46.168" lon="7.19905">
        <ele>504.60000610352</ele>
        <time>2023-04-04T12:04:20.000Z</time>
      </trkpt>
      <trkpt lat="46.16819" lon="7.1991">
        <ele>504.60000610352</ele>
        <time>2023-04-04T12:04:24.000Z</time>
      </trkpt>
      <trkpt lat="46.16824" lon="7.19911">
        <ele>504.79998779297</ele>
        <time>2023-04-04T12:04:25.000Z</time>
      </trkpt>
      <trkpt lat="46.16873" lon="7.19922">
        <ele>504.60000610352</ele>
        <time>2023-04-04T12:04:35.000Z</time>
      </trkpt>
      <trkpt lat="46.16917" lon="7.1993">
        <ele>504.60000610352</ele>
        <time>2023-04-04T12:04:44.000Z</time>
      </trkpt>
      <trkpt lat="46.16921" lon="7.1993">
        <ele>504.60000610352</ele>
        <time>2023-04-04T12:04:45.000Z</time>
      </trkpt>
      <trkpt lat="46.16926" lon="7.19931">
        <ele>504.60000610352</ele>
        <time>2023-04-04T12:04:46.000Z</time>
      </trkpt>
      <trkpt lat="46.16935" lon="7.19932">
        <ele>504.60000610352</ele>
        <time>2023-04-04T12:04:48.000Z</time>
      </trkpt>
      <trkpt lat="46.1694" lon="7.19933">
        <ele>504.39999389648</ele>
        <time>2023-04-04T12:04:49.000Z</time>
      </trkpt>
      <trkpt lat="46.16945" lon="7.19934">
        <ele>504.79998779297</ele>
        <time>2023-04-04T12:04:50.000Z</time>
      </trkpt>
      <trkpt lat="46.1695" lon="7.19934">
        <ele>504.60000610352</ele>
        <time>2023-04-04T12:04:51.000Z</time>
      </trkpt>
      <trkpt lat="46.16954" lon="7.19935">
        <ele>504.60000610352</ele>
        <time>2023-04-04T12:04:52.000Z</time>
      </trkpt>
      <trkpt lat="46.16959" lon="7.19935">
        <ele>504.60000610352</ele>
        <time>2023-04-04T12:04:53.000Z</time>
      </trkpt>
      <trkpt lat="46.16963" lon="7.19936">
        <ele>504.39999389648</ele>
        <time>2023-04-04T12:04:54.000Z</time>
      </trkpt>
      <trkpt lat="46.16968" lon="7.19937">
        <ele>504.39999389648</ele>
        <time>2023-04-04T12:04:55.000Z</time>
      </trkpt>
      <trkpt lat="46.16972" lon="7.19938">
        <ele>504.39999389648</ele>
        <time>2023-04-04T12:04:56.000Z</time>
      </trkpt>
      <trkpt lat="46.16976" lon="7.19938">
        <ele>504.60000610352</ele>
        <time>2023-04-04T12:04:57.000Z</time>
      </trkpt>
      <trkpt lat="46.16981" lon="7.19939">
        <ele>504.79998779297</ele>
        <time>2023-04-04T12:04:58.000Z</time>
      </trkpt>
      <trkpt lat="46.16986" lon="7.1994">
        <ele>504.79998779297</ele>
        <time>2023-04-04T12:04:59.000Z</time>
      </trkpt>
      <trkpt lat="46.1699" lon="7.1994">
        <ele>504.79998779297</ele>
        <time>2023-04-04T12:05:00.000Z</time>
      </trkpt>
      <trkpt lat="46.17005" lon="7.19942">
        <ele>505</ele>
        <time>2023-04-04T12:05:03.000Z</time>
      </trkpt>
      <trkpt lat="46.1701" lon="7.19943">
        <ele>505</ele>
        <time>2023-04-04T12:05:04.000Z</time>
      </trkpt>
      <trkpt lat="46.17048" lon="7.19949">
        <ele>504.79998779297</ele>
        <time>2023-04-04T12:05:12.000Z</time>
      </trkpt>
      <trkpt lat="46.17067" lon="7.19952">
        <ele>504.60000610352</ele>
        <time>2023-04-04T12:05:16.000Z</time>
      </trkpt>
      <trkpt lat="46.17072" lon="7.19952">
        <ele>504.60000610352</ele>
        <time>2023-04-04T12:05:17.000Z</time>
      </trkpt>
      <trkpt lat="46.17077" lon="7.19953">
        <ele>504.60000610352</ele>
        <time>2023-04-04T12:05:18.000Z</time>
      </trkpt>
      <trkpt lat="46.17089" lon="7.19955">
        <ele>504.60000610352</ele>
        <time>2023-04-04T12:05:21.000Z</time>
      </trkpt>
      <trkpt lat="46.17093" lon="7.19956">
        <ele>504.60000610352</ele>
        <time>2023-04-04T12:05:22.000Z</time>
      </trkpt>
      <trkpt lat="46.17097" lon="7.19956">
        <ele>504.60000610352</ele>
        <time>2023-04-04T12:05:23.000Z</time>
      </trkpt>
      <trkpt lat="46.17104" lon="7.19957">
        <ele>504.39999389648</ele>
        <time>2023-04-04T12:05:25.000Z</time>
      </trkpt>
      <trkpt lat="46.17108" lon="7.19957">
        <ele>504.20001220703</ele>
        <time>2023-04-04T12:05:26.000Z</time>
      </trkpt>
      <trkpt lat="46.17111" lon="7.19958">
        <ele>504.20001220703</ele>
        <time>2023-04-04T12:05:27.000Z</time>
      </trkpt>
      <trkpt lat="46.17115" lon="7.19959">
        <ele>504</ele>
        <time>2023-04-04T12:05:28.000Z</time>
      </trkpt>
      <trkpt lat="46.17119" lon="7.1996">
        <ele>504</ele>
        <time>2023-04-04T12:05:29.000Z</time>
      </trkpt>
      <trkpt lat="46.17122" lon="7.1996">
        <ele>504</ele>
        <time>2023-04-04T12:05:30.000Z</time>
      </trkpt>
      <trkpt lat="46.17126" lon="7.19961">
        <ele>504.20001220703</ele>
        <time>2023-04-04T12:05:31.000Z</time>
      </trkpt>
      <trkpt lat="46.1713" lon="7.19961">
        <ele>504.20001220703</ele>
        <time>2023-04-04T12:05:32.000Z</time>
      </trkpt>
      <trkpt lat="46.17153" lon="7.19964">
        <ele>504.39999389648</ele>
        <time>2023-04-04T12:05:38.000Z</time>
      </trkpt>
      <trkpt lat="46.17177" lon="7.19968">
        <ele>504.39999389648</ele>
        <time>2023-04-04T12:05:44.000Z</time>
      </trkpt>
      <trkpt lat="46.17185" lon="7.19969">
        <ele>504.60000610352</ele>
        <time>2023-04-04T12:05:46.000Z</time>
      </trkpt>
      <trkpt lat="46.17196" lon="7.1997">
        <ele>504.79998779297</ele>
        <time>2023-04-04T12:05:49.000Z</time>
      </trkpt>
      <trkpt lat="46.17232" lon="7.19974">
        <ele>504.60000610352</ele>
        <time>2023-04-04T12:05:58.000Z</time>
      </trkpt>
      <trkpt lat="46.1724" lon="7.19977">
        <ele>504.60000610352</ele>
        <time>2023-04-04T12:06:00.000Z</time>
      </trkpt>
      <trkpt lat="46.17263" lon="7.19981">
        <ele>504.60000610352</ele>
        <time>2023-04-04T12:06:06.000Z</time>
      </trkpt>
      <trkpt lat="46.17283" lon="7.19986">
        <ele>504.20001220703</ele>
        <time>2023-04-04T12:06:11.000Z</time>
      </trkpt>
      <trkpt lat="46.17299" lon="7.19991">
        <ele>504.20001220703</ele>
        <time>2023-04-04T12:06:15.000Z</time>
      </trkpt>
      <trkpt lat="46.17303" lon="7.19992">
        <ele>504.20001220703</ele>
        <time>2023-04-04T12:06:16.000Z</time>
      </trkpt>
      <trkpt lat="46.17326" lon="7.19999">
        <ele>504.20001220703</ele>
        <time>2023-04-04T12:06:22.000Z</time>
      </trkpt>
      <trkpt lat="46.17349" lon="7.20009">
        <ele>504.20001220703</ele>
        <time>2023-04-04T12:06:28.000Z</time>
      </trkpt>
      <trkpt lat="46.17353" lon="7.20011">
        <ele>504.39999389648</ele>
        <time>2023-04-04T12:06:29.000Z</time>
      </trkpt>
      <trkpt lat="46.17388" lon="7.20033">
        <ele>505.39999389648</ele>
        <time>2023-04-04T12:06:38.000Z</time>
      </trkpt>
      <trkpt lat="46.174" lon="7.20041">
        <ele>505.20001220703</ele>
        <time>2023-04-04T12:06:41.000Z</time>
      </trkpt>
      <trkpt lat="46.17431" lon="7.2006">
        <ele>504.79998779297</ele>
        <time>2023-04-04T12:06:49.000Z</time>
      </trkpt>
      <trkpt lat="46.17451" lon="7.20073">
        <ele>504.60000610352</ele>
        <time>2023-04-04T12:06:54.000Z</time>
      </trkpt>
      <trkpt lat="46.17462" lon="7.20083">
        <ele>504.60000610352</ele>
        <time>2023-04-04T12:06:57.000Z</time>
      </trkpt>
      <trkpt lat="46.1749" lon="7.20111">
        <ele>504</ele>
        <time>2023-04-04T12:07:05.000Z</time>
      </trkpt>
      <trkpt lat="46.17493" lon="7.20115">
        <ele>504</ele>
        <time>2023-04-04T12:07:06.000Z</time>
      </trkpt>
      <trkpt lat="46.17497" lon="7.20119">
        <ele>504</ele>
        <time>2023-04-04T12:07:07.000Z</time>
      </trkpt>
      <trkpt lat="46.175" lon="7.20122">
        <ele>504</ele>
        <time>2023-04-04T12:07:08.000Z</time>
      </trkpt>
      <trkpt lat="46.17516" lon="7.20142">
        <ele>504</ele>
        <time>2023-04-04T12:07:13.000Z</time>
      </trkpt>
      <trkpt lat="46.17519" lon="7.20145">
        <ele>504</ele>
        <time>2023-04-04T12:07:14.000Z</time>
      </trkpt>
      <trkpt lat="46.17522" lon="7.20149">
        <ele>503.79998779297</ele>
        <time>2023-04-04T12:07:15.000Z</time>
      </trkpt>
      <trkpt lat="46.17525" lon="7.20153">
        <ele>503.79998779297</ele>
        <time>2023-04-04T12:07:16.000Z</time>
      </trkpt>
      <trkpt lat="46.17528" lon="7.20158">
        <ele>503.60000610352</ele>
        <time>2023-04-04T12:07:17.000Z</time>
      </trkpt>
      <trkpt lat="46.17551" lon="7.20192">
        <ele>503.20001220703</ele>
        <time>2023-04-04T12:07:25.000Z</time>
      </trkpt>
      <trkpt lat="46.17564" lon="7.20214">
        <ele>503</ele>
        <time>2023-04-04T12:07:30.000Z</time>
      </trkpt>
      <trkpt lat="46.17569" lon="7.20223">
        <ele>503</ele>
        <time>2023-04-04T12:07:32.000Z</time>
      </trkpt>
      <trkpt lat="46.17572" lon="7.20227">
        <ele>502.79998779297</ele>
        <time>2023-04-04T12:07:33.000Z</time>
      </trkpt>
      <trkpt lat="46.17575" lon="7.20231">
        <ele>502.79998779297</ele>
        <time>2023-04-04T12:07:34.000Z</time>
      </trkpt>
      <trkpt lat="46.1759" lon="7.20256">
        <ele>503.39999389648</ele>
        <time>2023-04-04T12:07:39.000Z</time>
      </trkpt>
      <trkpt lat="46.17615" lon="7.20294">
        <ele>503.39999389648</ele>
        <time>2023-04-04T12:07:47.000Z</time>
      </trkpt>
      <trkpt lat="46.17639" lon="7.20333">
        <ele>503.39999389648</ele>
        <time>2023-04-04T12:07:55.000Z</time>
      </trkpt>
      <trkpt lat="46.1767" lon="7.20383">
        <ele>503.39999389648</ele>
        <time>2023-04-04T12:08:05.000Z</time>
      </trkpt>
      <trkpt lat="46.17673" lon="7.20388">
        <ele>503.39999389648</ele>
        <time>2023-04-04T12:08:06.000Z</time>
      </trkpt>
      <trkpt lat="46.17688" lon="7.20415">
        <ele>503.39999389648</ele>
        <time>2023-04-04T12:08:11.000Z</time>
      </trkpt>
      <trkpt lat="46.17696" lon="7.2043">
        <ele>503.39999389648</ele>
        <time>2023-04-04T12:08:14.000Z</time>
      </trkpt>
      <trkpt lat="46.17699" lon="7.20435">
        <ele>503.39999389648</ele>
        <time>2023-04-04T12:08:15.000Z</time>
      </trkpt>
      <trkpt lat="46.17705" lon="7.20446">
        <ele>503.60000610352</ele>
        <time>2023-04-04T12:08:17.000Z</time>
      </trkpt>
      <trkpt lat="46.1771" lon="7.20456">
        <ele>503.60000610352</ele>
        <time>2023-04-04T12:08:19.000Z</time>
      </trkpt>
      <trkpt lat="46.17734" lon="7.20508">
        <ele>503.39999389648</ele>
        <time>2023-04-04T12:08:28.000Z</time>
      </trkpt>
      <trkpt lat="46.17739" lon="7.2052">
        <ele>503.39999389648</ele>
        <time>2023-04-04T12:08:30.000Z</time>
      </trkpt>
      <trkpt lat="46.17743" lon="7.20532">
        <ele>503.39999389648</ele>
        <time>2023-04-04T12:08:32.000Z</time>
      </trkpt>
      <trkpt lat="46.17747" lon="7.20544">
        <ele>503.39999389648</ele>
        <time>2023-04-04T12:08:34.000Z</time>
      </trkpt>
      <trkpt lat="46.17749" lon="7.20549">
        <ele>503.39999389648</ele>
        <time>2023-04-04T12:08:35.000Z</time>
      </trkpt>
      <trkpt lat="46.17751" lon="7.20555">
        <ele>503.39999389648</ele>
        <time>2023-04-04T12:08:36.000Z</time>
      </trkpt>
      <trkpt lat="46.17754" lon="7.20561">
        <ele>503.39999389648</ele>
        <time>2023-04-04T12:08:37.000Z</time>
      </trkpt>
      <trkpt lat="46.17762" lon="7.20585">
        <ele>503.39999389648</ele>
        <time>2023-04-04T12:08:41.000Z</time>
      </trkpt>
      <trkpt lat="46.17773" lon="7.20615">
        <ele>503.60000610352</ele>
        <time>2023-04-04T12:08:46.000Z</time>
      </trkpt>
      <trkpt lat="46.17774" lon="7.2062">
        <ele>503.60000610352</ele>
        <time>2023-04-04T12:08:47.000Z</time>
      </trkpt>
      <trkpt lat="46.17776" lon="7.20625">
        <ele>503.60000610352</ele>
        <time>2023-04-04T12:08:48.000Z</time>
      </trkpt>
      <trkpt lat="46.17778" lon="7.2063">
        <ele>503.60000610352</ele>
        <time>2023-04-04T12:08:49.000Z</time>
      </trkpt>
      <trkpt lat="46.17781" lon="7.2064">
        <ele>503.60000610352</ele>
        <time>2023-04-04T12:08:51.000Z</time>
      </trkpt>
      <trkpt lat="46.17785" lon="7.20658">
        <ele>503.60000610352</ele>
        <time>2023-04-04T12:08:54.000Z</time>
      </trkpt>
      <trkpt lat="46.17804" lon="7.2073">
        <ele>503.39999389648</ele>
        <time>2023-04-04T12:09:06.000Z</time>
      </trkpt>
      <trkpt lat="46.17805" lon="7.20735">
        <ele>503.39999389648</ele>
        <time>2023-04-04T12:09:07.000Z</time>
      </trkpt>
      <trkpt lat="46.17816" lon="7.2079">
        <ele>503.39999389648</ele>
        <time>2023-04-04T12:09:16.000Z</time>
      </trkpt>
      <trkpt lat="46.17821" lon="7.20827">
        <ele>503.39999389648</ele>
        <time>2023-04-04T12:09:22.000Z</time>
      </trkpt>
      <trkpt lat="46.17822" lon="7.20833">
        <ele>503.39999389648</ele>
        <time>2023-04-04T12:09:23.000Z</time>
      </trkpt>
      <trkpt lat="46.17825" lon="7.20851">
        <ele>503.39999389648</ele>
        <time>2023-04-04T12:09:26.000Z</time>
      </trkpt>
      <trkpt lat="46.17826" lon="7.20857">
        <ele>503.39999389648</ele>
        <time>2023-04-04T12:09:27.000Z</time>
      </trkpt>
      <trkpt lat="46.17827" lon="7.20863">
        <ele>503.60000610352</ele>
        <time>2023-04-04T12:09:28.000Z</time>
      </trkpt>
      <trkpt lat="46.17828" lon="7.20869">
        <ele>503.60000610352</ele>
        <time>2023-04-04T12:09:29.000Z</time>
      </trkpt>
      <trkpt lat="46.17829" lon="7.20875">
        <ele>503.60000610352</ele>
        <time>2023-04-04T12:09:30.000Z</time>
      </trkpt>
      <trkpt lat="46.17829" lon="7.20881">
        <ele>503.60000610352</ele>
        <time>2023-04-04T12:09:31.000Z</time>
      </trkpt>
      <trkpt lat="46.1783" lon="7.20887">
        <ele>503.60000610352</ele>
        <time>2023-04-04T12:09:32.000Z</time>
      </trkpt>
      <trkpt lat="46.17831" lon="7.20893">
        <ele>503.60000610352</ele>
        <time>2023-04-04T12:09:33.000Z</time>
      </trkpt>
      <trkpt lat="46.17833" lon="7.20911">
        <ele>503.60000610352</ele>
        <time>2023-04-04T12:09:36.000Z</time>
      </trkpt>
      <trkpt lat="46.17835" lon="7.20937">
        <ele>503.60000610352</ele>
        <time>2023-04-04T12:09:40.000Z</time>
      </trkpt>
      <trkpt lat="46.17839" lon="7.20969">
        <ele>503.79998779297</ele>
        <time>2023-04-04T12:09:45.000Z</time>
      </trkpt>
      <trkpt lat="46.1784" lon="7.20975">
        <ele>503.79998779297</ele>
        <time>2023-04-04T12:09:46.000Z</time>
      </trkpt>
      <trkpt lat="46.1784" lon="7.20982">
        <ele>503.79998779297</ele>
        <time>2023-04-04T12:09:47.000Z</time>
      </trkpt>
      <trkpt lat="46.17843" lon="7.21022">
        <ele>504</ele>
        <time>2023-04-04T12:09:53.000Z</time>
      </trkpt>
      <trkpt lat="46.17845" lon="7.21075">
        <ele>504.20001220703</ele>
        <time>2023-04-04T12:10:01.000Z</time>
      </trkpt>
      <trkpt lat="46.17847" lon="7.21116">
        <ele>504</ele>
        <time>2023-04-04T12:10:07.000Z</time>
      </trkpt>
      <trkpt lat="46.17848" lon="7.21157">
        <ele>504</ele>
        <time>2023-04-04T12:10:13.000Z</time>
      </trkpt>
      <trkpt lat="46.17848" lon="7.21164">
        <ele>504</ele>
        <time>2023-04-04T12:10:14.000Z</time>
      </trkpt>
      <trkpt lat="46.17851" lon="7.21226">
        <ele>504.20001220703</ele>
        <time>2023-04-04T12:10:23.000Z</time>
      </trkpt>
      <trkpt lat="46.17853" lon="7.21274">
        <ele>504</ele>
        <time>2023-04-04T12:10:30.000Z</time>
      </trkpt>
      <trkpt lat="46.17854" lon="7.2133">
        <ele>504</ele>
        <time>2023-04-04T12:10:38.000Z</time>
      </trkpt>
      <trkpt lat="46.17855" lon="7.21343">
        <ele>504</ele>
        <time>2023-04-04T12:10:40.000Z</time>
      </trkpt>
      <trkpt lat="46.17855" lon="7.2135">
        <ele>503.79998779297</ele>
        <time>2023-04-04T12:10:41.000Z</time>
      </trkpt>
      <trkpt lat="46.17857" lon="7.21364">
        <ele>504.20001220703</ele>
        <time>2023-04-04T12:10:43.000Z</time>
      </trkpt>
      <trkpt lat="46.17858" lon="7.21371">
        <ele>504.20001220703</ele>
        <time>2023-04-04T12:10:44.000Z</time>
      </trkpt>
      <trkpt lat="46.17863" lon="7.21415">
        <ele>503.39999389648</ele>
        <time>2023-04-04T12:10:49.000Z</time>
      </trkpt>
      <trkpt lat="46.1787" lon="7.21463">
        <ele>502.60000610352</ele>
        <time>2023-04-04T12:10:54.000Z</time>
      </trkpt>
      <trkpt lat="46.1787" lon="7.21472">
        <ele>502.39999389648</ele>
        <time>2023-04-04T12:10:55.000Z</time>
      </trkpt>
      <trkpt lat="46.1787" lon="7.21481">
        <ele>502</ele>
        <time>2023-04-04T12:10:56.000Z</time>
      </trkpt>
      <trkpt lat="46.17869" lon="7.21498">
        <ele>501.79998779297</ele>
        <time>2023-04-04T12:10:58.000Z</time>
      </trkpt>
      <trkpt lat="46.17869" lon="7.21504">
        <ele>501.39999389648</ele>
        <time>2023-04-04T12:10:59.000Z</time>
      </trkpt>
      <trkpt lat="46.17869" lon="7.2151">
        <ele>501.39999389648</ele>
        <time>2023-04-04T12:11:00.000Z</time>
      </trkpt>
      <trkpt lat="46.17869" lon="7.21516">
        <ele>501.60000610352</ele>
        <time>2023-04-04T12:11:01.000Z</time>
      </trkpt>
      <trkpt lat="46.17869" lon="7.2152">
        <ele>501.60000610352</ele>
        <time>2023-04-04T12:11:02.000Z</time>
      </trkpt>
      <trkpt lat="46.17869" lon="7.21525">
        <ele>501.60000610352</ele>
        <time>2023-04-04T12:11:03.000Z</time>
      </trkpt>
      <trkpt lat="46.17868" lon="7.21529">
        <ele>501.79998779297</ele>
        <time>2023-04-04T12:11:04.000Z</time>
      </trkpt>
      <trkpt lat="46.17868" lon="7.21533">
        <ele>501.79998779297</ele>
        <time>2023-04-04T12:11:05.000Z</time>
      </trkpt>
      <trkpt lat="46.17868" lon="7.21537">
        <ele>502</ele>
        <time>2023-04-04T12:11:06.000Z</time>
      </trkpt>
      <trkpt lat="46.17866" lon="7.2156">
        <ele>503.20001220703</ele>
        <time>2023-04-04T12:11:11.000Z</time>
      </trkpt>
      <trkpt lat="46.17866" lon="7.21564">
        <ele>503.39999389648</ele>
        <time>2023-04-04T12:11:12.000Z</time>
      </trkpt>
      <trkpt lat="46.17866" lon="7.21569">
        <ele>503.60000610352</ele>
        <time>2023-04-04T12:11:13.000Z</time>
      </trkpt>
      <trkpt lat="46.17865" lon="7.21605">
        <ele>504.39999389648</ele>
        <time>2023-04-04T12:11:20.000Z</time>
      </trkpt>
      <trkpt lat="46.17868" lon="7.21646">
        <ele>504.60000610352</ele>
        <time>2023-04-04T12:11:27.000Z</time>
      </trkpt>
      <trkpt lat="46.17869" lon="7.21683">
        <ele>504.79998779297</ele>
        <time>2023-04-04T12:11:33.000Z</time>
      </trkpt>
      <trkpt lat="46.17869" lon="7.21696">
        <ele>504.79998779297</ele>
        <time>2023-04-04T12:11:35.000Z</time>
      </trkpt>
      <trkpt lat="46.1787" lon="7.21721">
        <ele>504.79998779297</ele>
        <time>2023-04-04T12:11:39.000Z</time>
      </trkpt>
      <trkpt lat="46.17872" lon="7.2174">
        <ele>504.79998779297</ele>
        <time>2023-04-04T12:11:42.000Z</time>
      </trkpt>
      <trkpt lat="46.17872" lon="7.21745">
        <ele>504.79998779297</ele>
        <time>2023-04-04T12:11:43.000Z</time>
      </trkpt>
      <trkpt lat="46.17872" lon="7.21751">
        <ele>505</ele>
        <time>2023-04-04T12:11:44.000Z</time>
      </trkpt>
      <trkpt lat="46.17873" lon="7.21756">
        <ele>505</ele>
        <time>2023-04-04T12:11:45.000Z</time>
      </trkpt>
      <trkpt lat="46.17873" lon="7.21761">
        <ele>505</ele>
        <time>2023-04-04T12:11:46.000Z</time>
      </trkpt>
      <trkpt lat="46.17873" lon="7.21766">
        <ele>505</ele>
        <time>2023-04-04T12:11:47.000Z</time>
      </trkpt>
      <trkpt lat="46.17874" lon="7.21769">
        <ele>505</ele>
        <time>2023-04-04T12:11:48.000Z</time>
      </trkpt>
      <trkpt lat="46.17876" lon="7.21773">
        <ele>505</ele>
        <time>2023-04-04T12:11:49.000Z</time>
      </trkpt>
      <trkpt lat="46.17877" lon="7.21777">
        <ele>505.20001220703</ele>
        <time>2023-04-04T12:11:50.000Z</time>
      </trkpt>
      <trkpt lat="46.17877" lon="7.2178">
        <ele>505.20001220703</ele>
        <time>2023-04-04T12:11:51.000Z</time>
      </trkpt>
      <trkpt lat="46.17877" lon="7.21783">
        <ele>505.20001220703</ele>
        <time>2023-04-04T12:11:52.000Z</time>
      </trkpt>
      <trkpt lat="46.17878" lon="7.21785">
        <ele>505.20001220703</ele>
        <time>2023-04-04T12:11:53.000Z</time>
      </trkpt>
      <trkpt lat="46.17878" lon="7.21786">
        <ele>505.39999389648</ele>
        <time>2023-04-04T12:11:54.000Z</time>
      </trkpt>
      <trkpt lat="46.17878" lon="7.21786">
        <ele>505.39999389648</ele>
        <time>2023-04-04T12:11:55.000Z</time>
      </trkpt>
      <trkpt lat="46.17878" lon="7.21786">
        <ele>505.39999389648</ele>
        <time>2023-04-04T12:11:56.000Z</time>
      </trkpt>
      <trkpt lat="46.17878" lon="7.21792">
        <ele>506.20001220703</ele>
        <time>2023-04-04T12:12:14.000Z</time>
      </trkpt>
      <trkpt lat="46.17877" lon="7.21817">
        <ele>506</ele>
        <time>2023-04-04T12:12:20.000Z</time>
      </trkpt>
      <trkpt lat="46.17875" lon="7.21845">
        <ele>505.20001220703</ele>
        <time>2023-04-04T12:12:25.000Z</time>
      </trkpt>
      <trkpt lat="46.17875" lon="7.21857">
        <ele>505</ele>
        <time>2023-04-04T12:12:27.000Z</time>
      </trkpt>
      <trkpt lat="46.17877" lon="7.21904">
        <ele>504.79998779297</ele>
        <time>2023-04-04T12:12:35.000Z</time>
      </trkpt>
      <trkpt lat="46.1788" lon="7.21959">
        <ele>505</ele>
        <time>2023-04-04T12:12:44.000Z</time>
      </trkpt>
      <trkpt lat="46.17881" lon="7.21965">
        <ele>505</ele>
        <time>2023-04-04T12:12:45.000Z</time>
      </trkpt>
      <trkpt lat="46.17883" lon="7.22023">
        <ele>504.60000610352</ele>
        <time>2023-04-04T12:12:54.000Z</time>
      </trkpt>
      <trkpt lat="46.17885" lon="7.2207">
        <ele>504.79998779297</ele>
        <time>2023-04-04T12:13:01.000Z</time>
      </trkpt>
      <trkpt lat="46.17886" lon="7.22084">
        <ele>504.79998779297</ele>
        <time>2023-04-04T12:13:03.000Z</time>
      </trkpt>
      <trkpt lat="46.17888" lon="7.22138">
        <ele>505</ele>
        <time>2023-04-04T12:13:11.000Z</time>
      </trkpt>
      <trkpt lat="46.17889" lon="7.22152">
        <ele>505</ele>
        <time>2023-04-04T12:13:13.000Z</time>
      </trkpt>
      <trkpt lat="46.17892" lon="7.22193">
        <ele>505.20001220703</ele>
        <time>2023-04-04T12:13:19.000Z</time>
      </trkpt>
      <trkpt lat="46.17895" lon="7.22261">
        <ele>505.79998779297</ele>
        <time>2023-04-04T12:13:29.000Z</time>
      </trkpt>
      <trkpt lat="46.17895" lon="7.22314">
        <ele>506</ele>
        <time>2023-04-04T12:13:36.000Z</time>
      </trkpt>
      <trkpt lat="46.17894" lon="7.22339">
        <ele>505.79998779297</ele>
        <time>2023-04-04T12:13:39.000Z</time>
      </trkpt>
      <trkpt lat="46.17893" lon="7.22347">
        <ele>505.60000610352</ele>
        <time>2023-04-04T12:13:40.000Z</time>
      </trkpt>
      <trkpt lat="46.17891" lon="7.22371">
        <ele>505.20001220703</ele>
        <time>2023-04-04T12:13:43.000Z</time>
      </trkpt>
      <trkpt lat="46.17891" lon="7.22378">
        <ele>505.20001220703</ele>
        <time>2023-04-04T12:13:44.000Z</time>
      </trkpt>
      <trkpt lat="46.17891" lon="7.22385">
        <ele>505</ele>
        <time>2023-04-04T12:13:45.000Z</time>
      </trkpt>
      <trkpt lat="46.1789" lon="7.2239">
        <ele>505</ele>
        <time>2023-04-04T12:13:46.000Z</time>
      </trkpt>
      <trkpt lat="46.1789" lon="7.22396">
        <ele>505</ele>
        <time>2023-04-04T12:13:47.000Z</time>
      </trkpt>
      <trkpt lat="46.17889" lon="7.22402">
        <ele>505</ele>
        <time>2023-04-04T12:13:48.000Z</time>
      </trkpt>
      <trkpt lat="46.17884" lon="7.22425">
        <ele>505.20001220703</ele>
        <time>2023-04-04T12:13:51.000Z</time>
      </trkpt>
      <trkpt lat="46.17885" lon="7.22431">
        <ele>505.20001220703</ele>
        <time>2023-04-04T12:13:52.000Z</time>
      </trkpt>
      <trkpt lat="46.17885" lon="7.22437">
        <ele>505.20001220703</ele>
        <time>2023-04-04T12:13:53.000Z</time>
      </trkpt>
      <trkpt lat="46.17885" lon="7.22443">
        <ele>505.39999389648</ele>
        <time>2023-04-04T12:13:54.000Z</time>
      </trkpt>
      <trkpt lat="46.17885" lon="7.22448">
        <ele>505.39999389648</ele>
        <time>2023-04-04T12:13:55.000Z</time>
      </trkpt>
      <trkpt lat="46.17885" lon="7.22454">
        <ele>505.39999389648</ele>
        <time>2023-04-04T12:13:56.000Z</time>
      </trkpt>
      <trkpt lat="46.17886" lon="7.22459">
        <ele>505.39999389648</ele>
        <time>2023-04-04T12:13:57.000Z</time>
      </trkpt>
      <trkpt lat="46.17886" lon="7.22464">
        <ele>505.60000610352</ele>
        <time>2023-04-04T12:13:58.000Z</time>
      </trkpt>
      <trkpt lat="46.17886" lon="7.2247">
        <ele>505.60000610352</ele>
        <time>2023-04-04T12:13:59.000Z</time>
      </trkpt>
      <trkpt lat="46.17885" lon="7.22475">
        <ele>505.60000610352</ele>
        <time>2023-04-04T12:14:00.000Z</time>
      </trkpt>
      <trkpt lat="46.17883" lon="7.22481">
        <ele>505.60000610352</ele>
        <time>2023-04-04T12:14:01.000Z</time>
      </trkpt>
      <trkpt lat="46.17881" lon="7.22485">
        <ele>505.79998779297</ele>
        <time>2023-04-04T12:14:02.000Z</time>
      </trkpt>
      <trkpt lat="46.17879" lon="7.2249">
        <ele>506</ele>
        <time>2023-04-04T12:14:03.000Z</time>
      </trkpt>
      <trkpt lat="46.17877" lon="7.22495">
        <ele>506.20001220703</ele>
        <time>2023-04-04T12:14:04.000Z</time>
      </trkpt>
      <trkpt lat="46.17876" lon="7.225">
        <ele>506.39999389648</ele>
        <time>2023-04-04T12:14:05.000Z</time>
      </trkpt>
      <trkpt lat="46.17873" lon="7.22505">
        <ele>506.60000610352</ele>
        <time>2023-04-04T12:14:06.000Z</time>
      </trkpt>
      <trkpt lat="46.17861" lon="7.22535">
        <ele>507</ele>
        <time>2023-04-04T12:14:12.000Z</time>
      </trkpt>
      <trkpt lat="46.17859" lon="7.22539">
        <ele>507</ele>
        <time>2023-04-04T12:14:13.000Z</time>
      </trkpt>
      <trkpt lat="46.17857" lon="7.22543">
        <ele>507</ele>
        <time>2023-04-04T12:14:14.000Z</time>
      </trkpt>
      <trkpt lat="46.17855" lon="7.22546">
        <ele>507</ele>
        <time>2023-04-04T12:14:15.000Z</time>
      </trkpt>
      <trkpt lat="46.17847" lon="7.22559">
        <ele>506.79998779297</ele>
        <time>2023-04-04T12:14:18.000Z</time>
      </trkpt>
      <trkpt lat="46.17844" lon="7.22565">
        <ele>506.60000610352</ele>
        <time>2023-04-04T12:14:19.000Z</time>
      </trkpt>
      <trkpt lat="46.17839" lon="7.22578">
        <ele>506.20001220703</ele>
        <time>2023-04-04T12:14:21.000Z</time>
      </trkpt>
      <trkpt lat="46.17836" lon="7.22586">
        <ele>506.20001220703</ele>
        <time>2023-04-04T12:14:22.000Z</time>
      </trkpt>
      <trkpt lat="46.17835" lon="7.22592">
        <ele>506</ele>
        <time>2023-04-04T12:14:23.000Z</time>
      </trkpt>
      <trkpt lat="46.17835" lon="7.22599">
        <ele>505.60000610352</ele>
        <time>2023-04-04T12:14:24.000Z</time>
      </trkpt>
      <trkpt lat="46.17834" lon="7.22605">
        <ele>505.39999389648</ele>
        <time>2023-04-04T12:14:25.000Z</time>
      </trkpt>
      <trkpt lat="46.17834" lon="7.2261">
        <ele>505.20001220703</ele>
        <time>2023-04-04T12:14:26.000Z</time>
      </trkpt>
      <trkpt lat="46.17834" lon="7.22615">
        <ele>505.20001220703</ele>
        <time>2023-04-04T12:14:27.000Z</time>
      </trkpt>
      <trkpt lat="46.17834" lon="7.22619">
        <ele>505.20001220703</ele>
        <time>2023-04-04T12:14:28.000Z</time>
      </trkpt>
      <trkpt lat="46.17834" lon="7.22622">
        <ele>505.20001220703</ele>
        <time>2023-04-04T12:14:29.000Z</time>
      </trkpt>
      <trkpt lat="46.17834" lon="7.22625">
        <ele>505.20001220703</ele>
        <time>2023-04-04T12:14:30.000Z</time>
      </trkpt>
      <trkpt lat="46.17834" lon="7.22627">
        <ele>505.39999389648</ele>
        <time>2023-04-04T12:14:31.000Z</time>
      </trkpt>
      <trkpt lat="46.17834" lon="7.2263">
        <ele>505.39999389648</ele>
        <time>2023-04-04T12:14:32.000Z</time>
      </trkpt>
      <trkpt lat="46.17833" lon="7.22633">
        <ele>505.79998779297</ele>
        <time>2023-04-04T12:14:33.000Z</time>
      </trkpt>
      <trkpt lat="46.17831" lon="7.2264">
        <ele>506.20001220703</ele>
        <time>2023-04-04T12:14:35.000Z</time>
      </trkpt>
      <trkpt lat="46.17829" lon="7.22644">
        <ele>506.39999389648</ele>
        <time>2023-04-04T12:14:36.000Z</time>
      </trkpt>
      <trkpt lat="46.17828" lon="7.22648">
        <ele>506.60000610352</ele>
        <time>2023-04-04T12:14:37.000Z</time>
      </trkpt>
      <trkpt lat="46.1782" lon="7.22669">
        <ele>507.39999389648</ele>
        <time>2023-04-04T12:14:42.000Z</time>
      </trkpt>
      <trkpt lat="46.17813" lon="7.22688">
        <ele>507.79998779297</ele>
        <time>2023-04-04T12:14:46.000Z</time>
      </trkpt>
      <trkpt lat="46.17805" lon="7.22712">
        <ele>508</ele>
        <time>2023-04-04T12:14:51.000Z</time>
      </trkpt>
      <trkpt lat="46.17795" lon="7.22739">
        <ele>508.20001220703</ele>
        <time>2023-04-04T12:14:57.000Z</time>
      </trkpt>
      <trkpt lat="46.17792" lon="7.22748">
        <ele>508.39999389648</ele>
        <time>2023-04-04T12:14:59.000Z</time>
      </trkpt>
      <trkpt lat="46.1779" lon="7.22753">
        <ele>508.39999389648</ele>
        <time>2023-04-04T12:15:00.000Z</time>
      </trkpt>
      <trkpt lat="46.17785" lon="7.22766">
        <ele>508.39999389648</ele>
        <time>2023-04-04T12:15:03.000Z</time>
      </trkpt>
      <trkpt lat="46.17783" lon="7.22774">
        <ele>508.39999389648</ele>
        <time>2023-04-04T12:15:05.000Z</time>
      </trkpt>
      <trkpt lat="46.17782" lon="7.22778">
        <ele>508.20001220703</ele>
        <time>2023-04-04T12:15:06.000Z</time>
      </trkpt>
      <trkpt lat="46.1778" lon="7.22782">
        <ele>508.20001220703</ele>
        <time>2023-04-04T12:15:07.000Z</time>
      </trkpt>
      <trkpt lat="46.17779" lon="7.22785">
        <ele>508.20001220703</ele>
        <time>2023-04-04T12:15:08.000Z</time>
      </trkpt>
      <trkpt lat="46.17778" lon="7.22788">
        <ele>508.20001220703</ele>
        <time>2023-04-04T12:15:09.000Z</time>
      </trkpt>
      <trkpt lat="46.17777" lon="7.22791">
        <ele>508</ele>
        <time>2023-04-04T12:15:10.000Z</time>
      </trkpt>
      <trkpt lat="46.17777" lon="7.22793">
        <ele>508</ele>
        <time>2023-04-04T12:15:11.000Z</time>
      </trkpt>
      <trkpt lat="46.17776" lon="7.22796">
        <ele>508</ele>
        <time>2023-04-04T12:15:12.000Z</time>
      </trkpt>
      <trkpt lat="46.17775" lon="7.22798">
        <ele>508</ele>
        <time>2023-04-04T12:15:13.000Z</time>
      </trkpt>
      <trkpt lat="46.17775" lon="7.228">
        <ele>508</ele>
        <time>2023-04-04T12:15:14.000Z</time>
      </trkpt>
      <trkpt lat="46.17775" lon="7.22801">
        <ele>508</ele>
        <time>2023-04-04T12:15:15.000Z</time>
      </trkpt>
      <trkpt lat="46.17773" lon="7.22809">
        <ele>508.39999389648</ele>
        <time>2023-04-04T12:15:19.000Z</time>
      </trkpt>
      <trkpt lat="46.17772" lon="7.2281">
        <ele>508.79998779297</ele>
        <time>2023-04-04T12:15:20.000Z</time>
      </trkpt>
      <trkpt lat="46.17772" lon="7.2281">
        <ele>508.79998779297</ele>
        <time>2023-04-04T12:15:22.000Z</time>
      </trkpt>
      <trkpt lat="46.17775" lon="7.2282">
        <ele>508.79998779297</ele>
        <time>2023-04-04T12:15:36.000Z</time>
      </trkpt>
      <trkpt lat="46.17777" lon="7.22822">
        <ele>508.79998779297</ele>
        <time>2023-04-04T12:15:37.000Z</time>
      </trkpt>
      <trkpt lat="46.17779" lon="7.22825">
        <ele>508.79998779297</ele>
        <time>2023-04-04T12:15:38.000Z</time>
      </trkpt>
      <trkpt lat="46.17782" lon="7.22828">
        <ele>509</ele>
        <time>2023-04-04T12:15:39.000Z</time>
      </trkpt>
      <trkpt lat="46.17785" lon="7.22831">
        <ele>509</ele>
        <time>2023-04-04T12:15:40.000Z</time>
      </trkpt>
      <trkpt lat="46.17796" lon="7.22839">
        <ele>509</ele>
        <time>2023-04-04T12:15:43.000Z</time>
      </trkpt>
      <trkpt lat="46.17804" lon="7.22844">
        <ele>508.79998779297</ele>
        <time>2023-04-04T12:15:45.000Z</time>
      </trkpt>
      <trkpt lat="46.17808" lon="7.22846">
        <ele>508.60000610352</ele>
        <time>2023-04-04T12:15:46.000Z</time>
      </trkpt>
      <trkpt lat="46.17812" lon="7.22848">
        <ele>508.60000610352</ele>
        <time>2023-04-04T12:15:47.000Z</time>
      </trkpt>
      <trkpt lat="46.17826" lon="7.22857">
        <ele>508.20001220703</ele>
        <time>2023-04-04T12:15:51.000Z</time>
      </trkpt>
      <trkpt lat="46.17833" lon="7.22861">
        <ele>508.20001220703</ele>
        <time>2023-04-04T12:15:53.000Z</time>
      </trkpt>
      <trkpt lat="46.17836" lon="7.22863">
        <ele>508</ele>
        <time>2023-04-04T12:15:54.000Z</time>
      </trkpt>
      <trkpt lat="46.17838" lon="7.22865">
        <ele>508</ele>
        <time>2023-04-04T12:15:55.000Z</time>
      </trkpt>
      <trkpt lat="46.17839" lon="7.22868">
        <ele>508</ele>
        <time>2023-04-04T12:15:56.000Z</time>
      </trkpt>
      <trkpt lat="46.17839" lon="7.22872">
        <ele>508</ele>
        <time>2023-04-04T12:15:57.000Z</time>
      </trkpt>
      <trkpt lat="46.17838" lon="7.22875">
        <ele>507.79998779297</ele>
        <time>2023-04-04T12:15:58.000Z</time>
      </trkpt>
      <trkpt lat="46.17835" lon="7.22882">
        <ele>507.60000610352</ele>
        <time>2023-04-04T12:16:00.000Z</time>
      </trkpt>
      <trkpt lat="46.17833" lon="7.22886">
        <ele>507.60000610352</ele>
        <time>2023-04-04T12:16:01.000Z</time>
      </trkpt>
      <trkpt lat="46.1783" lon="7.22906">
        <ele>507</ele>
        <time>2023-04-04T12:16:05.000Z</time>
      </trkpt>
      <trkpt lat="46.17829" lon="7.22923">
        <ele>506.79998779297</ele>
        <time>2023-04-04T12:16:08.000Z</time>
      </trkpt>
      <trkpt lat="46.17829" lon="7.22946">
        <ele>506.39999389648</ele>
        <time>2023-04-04T12:16:12.000Z</time>
      </trkpt>
      <trkpt lat="46.17833" lon="7.2297">
        <ele>506</ele>
        <time>2023-04-04T12:16:16.000Z</time>
      </trkpt>
      <trkpt lat="46.17839" lon="7.22987">
        <ele>505.60000610352</ele>
        <time>2023-04-04T12:16:19.000Z</time>
      </trkpt>
      <trkpt lat="46.17858" lon="7.23023">
        <ele>505.39999389648</ele>
        <time>2023-04-04T12:16:26.000Z</time>
      </trkpt>
      <trkpt lat="46.1787" lon="7.23043">
        <ele>505.60000610352</ele>
        <time>2023-04-04T12:16:30.000Z</time>
      </trkpt>
      <trkpt lat="46.17884" lon="7.23071">
        <ele>505.39999389648</ele>
        <time>2023-04-04T12:16:35.000Z</time>
      </trkpt>
      <trkpt lat="46.17917" lon="7.23136">
        <ele>505</ele>
        <time>2023-04-04T12:16:47.000Z</time>
      </trkpt>
      <trkpt lat="46.17942" lon="7.23185">
        <ele>505.39999389648</ele>
        <time>2023-04-04T12:16:56.000Z</time>
      </trkpt>
      <trkpt lat="46.17973" lon="7.23226">
        <ele>505.20001220703</ele>
        <time>2023-04-04T12:17:05.000Z</time>
      </trkpt>
      <trkpt lat="46.18004" lon="7.23257">
        <ele>505.20001220703</ele>
        <time>2023-04-04T12:17:12.000Z</time>
      </trkpt>
      <trkpt lat="46.18013" lon="7.23267">
        <ele>505</ele>
        <time>2023-04-04T12:17:14.000Z</time>
      </trkpt>
      <trkpt lat="46.18051" lon="7.23307">
        <ele>505</ele>
        <time>2023-04-04T12:17:23.000Z</time>
      </trkpt>
      <trkpt lat="46.18056" lon="7.23312">
        <ele>505</ele>
        <time>2023-04-04T12:17:24.000Z</time>
      </trkpt>
      <trkpt lat="46.18073" lon="7.2333">
        <ele>504.79998779297</ele>
        <time>2023-04-04T12:17:28.000Z</time>
      </trkpt>
      <trkpt lat="46.18077" lon="7.23335">
        <ele>504.79998779297</ele>
        <time>2023-04-04T12:17:29.000Z</time>
      </trkpt>
      <trkpt lat="46.18081" lon="7.23339">
        <ele>504.79998779297</ele>
        <time>2023-04-04T12:17:30.000Z</time>
      </trkpt>
      <trkpt lat="46.18093" lon="7.23354">
        <ele>504.79998779297</ele>
        <time>2023-04-04T12:17:33.000Z</time>
      </trkpt>
      <trkpt lat="46.181" lon="7.23364">
        <ele>504.79998779297</ele>
        <time>2023-04-04T12:17:35.000Z</time>
      </trkpt>
      <trkpt lat="46.18104" lon="7.23369">
        <ele>505</ele>
        <time>2023-04-04T12:17:36.000Z</time>
      </trkpt>
      <trkpt lat="46.18108" lon="7.23374">
        <ele>505</ele>
        <time>2023-04-04T12:17:37.000Z</time>
      </trkpt>
      <trkpt lat="46.18111" lon="7.23379">
        <ele>505</ele>
        <time>2023-04-04T12:17:38.000Z</time>
      </trkpt>
      <trkpt lat="46.18115" lon="7.23384">
        <ele>505.20001220703</ele>
        <time>2023-04-04T12:17:39.000Z</time>
      </trkpt>
      <trkpt lat="46.18118" lon="7.23388">
        <ele>505.20001220703</ele>
        <time>2023-04-04T12:17:40.000Z</time>
      </trkpt>
      <trkpt lat="46.18121" lon="7.23393">
        <ele>505.20001220703</ele>
        <time>2023-04-04T12:17:41.000Z</time>
      </trkpt>
      <trkpt lat="46.18124" lon="7.23398">
        <ele>505.20001220703</ele>
        <time>2023-04-04T12:17:42.000Z</time>
      </trkpt>
      <trkpt lat="46.18127" lon="7.23403">
        <ele>505.20001220703</ele>
        <time>2023-04-04T12:17:43.000Z</time>
      </trkpt>
      <trkpt lat="46.1813" lon="7.23408">
        <ele>505.20001220703</ele>
        <time>2023-04-04T12:17:44.000Z</time>
      </trkpt>
      <trkpt lat="46.18133" lon="7.23412">
        <ele>505.20001220703</ele>
        <time>2023-04-04T12:17:45.000Z</time>
      </trkpt>
      <trkpt lat="46.18136" lon="7.23417">
        <ele>505.20001220703</ele>
        <time>2023-04-04T12:17:46.000Z</time>
      </trkpt>
      <trkpt lat="46.18138" lon="7.23422">
        <ele>505.39999389648</ele>
        <time>2023-04-04T12:17:47.000Z</time>
      </trkpt>
      <trkpt lat="46.18141" lon="7.23426">
        <ele>505.39999389648</ele>
        <time>2023-04-04T12:17:48.000Z</time>
      </trkpt>
      <trkpt lat="46.18143" lon="7.23431">
        <ele>505.60000610352</ele>
        <time>2023-04-04T12:17:49.000Z</time>
      </trkpt>
      <trkpt lat="46.18146" lon="7.23435">
        <ele>505.60000610352</ele>
        <time>2023-04-04T12:17:50.000Z</time>
      </trkpt>
      <trkpt lat="46.18148" lon="7.2344">
        <ele>505.79998779297</ele>
        <time>2023-04-04T12:17:51.000Z</time>
      </trkpt>
      <trkpt lat="46.1815" lon="7.23444">
        <ele>505.79998779297</ele>
        <time>2023-04-04T12:17:52.000Z</time>
      </trkpt>
      <trkpt lat="46.18153" lon="7.23449">
        <ele>505.79998779297</ele>
        <time>2023-04-04T12:17:53.000Z</time>
      </trkpt>
      <trkpt lat="46.18155" lon="7.23454">
        <ele>506</ele>
        <time>2023-04-04T12:17:54.000Z</time>
      </trkpt>
      <trkpt lat="46.18157" lon="7.23458">
        <ele>506</ele>
        <time>2023-04-04T12:17:55.000Z</time>
      </trkpt>
      <trkpt lat="46.18158" lon="7.23463">
        <ele>506.20001220703</ele>
        <time>2023-04-04T12:17:56.000Z</time>
      </trkpt>
      <trkpt lat="46.1816" lon="7.23467">
        <ele>506.20001220703</ele>
        <time>2023-04-04T12:17:57.000Z</time>
      </trkpt>
      <trkpt lat="46.18162" lon="7.23472">
        <ele>506.20001220703</ele>
        <time>2023-04-04T12:17:58.000Z</time>
      </trkpt>
      <trkpt lat="46.18166" lon="7.23482">
        <ele>506.39999389648</ele>
        <time>2023-04-04T12:17:59.000Z</time>
      </trkpt>
      <trkpt lat="46.18168" lon="7.23487">
        <ele>506.39999389648</ele>
        <time>2023-04-04T12:18:00.000Z</time>
      </trkpt>
      <trkpt lat="46.1817" lon="7.23492">
        <ele>506.60000610352</ele>
        <time>2023-04-04T12:18:01.000Z</time>
      </trkpt>
      <trkpt lat="46.18175" lon="7.23506">
        <ele>507</ele>
        <time>2023-04-04T12:18:04.000Z</time>
      </trkpt>
      <trkpt lat="46.18189" lon="7.23563">
        <ele>507.39999389648</ele>
        <time>2023-04-04T12:18:14.000Z</time>
      </trkpt>
      <trkpt lat="46.18204" lon="7.23623">
        <ele>507.39999389648</ele>
        <time>2023-04-04T12:18:24.000Z</time>
      </trkpt>
      <trkpt lat="46.18219" lon="7.23694">
        <ele>506.79998779297</ele>
        <time>2023-04-04T12:18:33.000Z</time>
      </trkpt>
      <trkpt lat="46.18236" lon="7.23757">
        <ele>506.20001220703</ele>
        <time>2023-04-04T12:18:41.000Z</time>
      </trkpt>
      <trkpt lat="46.18238" lon="7.23765">
        <ele>506</ele>
        <time>2023-04-04T12:18:42.000Z</time>
      </trkpt>
      <trkpt lat="46.18243" lon="7.2378">
        <ele>506</ele>
        <time>2023-04-04T12:18:43.000Z</time>
      </trkpt>
      <trkpt lat="46.18248" lon="7.23794">
        <ele>506</ele>
        <time>2023-04-04T12:18:46.000Z</time>
      </trkpt>
      <trkpt lat="46.18253" lon="7.23809">
        <ele>505.79998779297</ele>
        <time>2023-04-04T12:18:47.000Z</time>
      </trkpt>
      <trkpt lat="46.18259" lon="7.23823">
        <ele>505.60000610352</ele>
        <time>2023-04-04T12:18:49.000Z</time>
      </trkpt>
      <trkpt lat="46.18291" lon="7.23892">
        <ele>505.60000610352</ele>
        <time>2023-04-04T12:18:59.000Z</time>
      </trkpt>
      <trkpt lat="46.183" lon="7.23913">
        <ele>505.39999389648</ele>
        <time>2023-04-04T12:19:03.000Z</time>
      </trkpt>
      <trkpt lat="46.18321" lon="7.2396">
        <ele>505</ele>
        <time>2023-04-04T12:19:10.000Z</time>
      </trkpt>
      <trkpt lat="46.18331" lon="7.2398">
        <ele>505</ele>
        <time>2023-04-04T12:19:13.000Z</time>
      </trkpt>
      <trkpt lat="46.18345" lon="7.24013">
        <ele>504.79998779297</ele>
        <time>2023-04-04T12:19:18.000Z</time>
      </trkpt>
      <trkpt lat="46.18351" lon="7.24026">
        <ele>504.79998779297</ele>
        <time>2023-04-04T12:19:19.000Z</time>
      </trkpt>
      <trkpt lat="46.18354" lon="7.24032">
        <ele>504.79998779297</ele>
        <time>2023-04-04T12:19:20.000Z</time>
      </trkpt>
      <trkpt lat="46.18357" lon="7.24039">
        <ele>504.79998779297</ele>
        <time>2023-04-04T12:19:21.000Z</time>
      </trkpt>
      <trkpt lat="46.18359" lon="7.24045">
        <ele>504.79998779297</ele>
        <time>2023-04-04T12:19:22.000Z</time>
      </trkpt>
      <trkpt lat="46.18359" lon="7.24045">
        <ele>505</ele>
        <time>2023-04-04T12:19:23.000Z</time>
      </trkpt>
      <trkpt lat="46.18365" lon="7.24057">
        <ele>505</ele>
        <time>2023-04-04T12:19:24.000Z</time>
      </trkpt>
      <trkpt lat="46.18368" lon="7.24064">
        <ele>505</ele>
        <time>2023-04-04T12:19:25.000Z</time>
      </trkpt>
      <trkpt lat="46.18371" lon="7.2407">
        <ele>505</ele>
        <time>2023-04-04T12:19:26.000Z</time>
      </trkpt>
      <trkpt lat="46.18403" lon="7.24141">
        <ele>505.20001220703</ele>
        <time>2023-04-04T12:19:37.000Z</time>
      </trkpt>
      <trkpt lat="46.18407" lon="7.24147">
        <ele>505.20001220703</ele>
        <time>2023-04-04T12:19:38.000Z</time>
      </trkpt>
      <trkpt lat="46.18431" lon="7.24198">
        <ele>505</ele>
        <time>2023-04-04T12:19:46.000Z</time>
      </trkpt>
      <trkpt lat="46.18442" lon="7.24222">
        <ele>505</ele>
        <time>2023-04-04T12:19:50.000Z</time>
      </trkpt>
      <trkpt lat="46.18445" lon="7.24227">
        <ele>505</ele>
        <time>2023-04-04T12:19:51.000Z</time>
      </trkpt>
      <trkpt lat="46.18447" lon="7.24232">
        <ele>505</ele>
        <time>2023-04-04T12:19:52.000Z</time>
      </trkpt>
      <trkpt lat="46.1845" lon="7.24237">
        <ele>505</ele>
        <time>2023-04-04T12:19:53.000Z</time>
      </trkpt>
      <trkpt lat="46.18452" lon="7.24242">
        <ele>504.79998779297</ele>
        <time>2023-04-04T12:19:54.000Z</time>
      </trkpt>
      <trkpt lat="46.18454" lon="7.24246">
        <ele>504.79998779297</ele>
        <time>2023-04-04T12:19:55.000Z</time>
      </trkpt>
      <trkpt lat="46.18456" lon="7.2425">
        <ele>504.79998779297</ele>
        <time>2023-04-04T12:19:56.000Z</time>
      </trkpt>
      <trkpt lat="46.18458" lon="7.24254">
        <ele>504.79998779297</ele>
        <time>2023-04-04T12:19:57.000Z</time>
      </trkpt>
      <trkpt lat="46.1846" lon="7.24258">
        <ele>504.79998779297</ele>
        <time>2023-04-04T12:19:58.000Z</time>
      </trkpt>
      <trkpt lat="46.18462" lon="7.24262">
        <ele>504.79998779297</ele>
        <time>2023-04-04T12:19:59.000Z</time>
      </trkpt>
      <trkpt lat="46.18463" lon="7.24267">
        <ele>504.79998779297</ele>
        <time>2023-04-04T12:20:00.000Z</time>
      </trkpt>
      <trkpt lat="46.18465" lon="7.24271">
        <ele>504.79998779297</ele>
        <time>2023-04-04T12:20:01.000Z</time>
      </trkpt>
      <trkpt lat="46.18473" lon="7.24289">
        <ele>505.20001220703</ele>
        <time>2023-04-04T12:20:05.000Z</time>
      </trkpt>
      <trkpt lat="46.18488" lon="7.2432">
        <ele>505.60000610352</ele>
        <time>2023-04-04T12:20:13.000Z</time>
      </trkpt>
      <trkpt lat="46.1849" lon="7.24324">
        <ele>505.60000610352</ele>
        <time>2023-04-04T12:20:14.000Z</time>
      </trkpt>
      <trkpt lat="46.18491" lon="7.24328">
        <ele>505.60000610352</ele>
        <time>2023-04-04T12:20:15.000Z</time>
      </trkpt>
      <trkpt lat="46.18493" lon="7.24332">
        <ele>505.60000610352</ele>
        <time>2023-04-04T12:20:16.000Z</time>
      </trkpt>
      <trkpt lat="46.18495" lon="7.24336">
        <ele>505.60000610352</ele>
        <time>2023-04-04T12:20:17.000Z</time>
      </trkpt>
      <trkpt lat="46.18497" lon="7.24339">
        <ele>505.39999389648</ele>
        <time>2023-04-04T12:20:18.000Z</time>
      </trkpt>
      <trkpt lat="46.18499" lon="7.24343">
        <ele>505.39999389648</ele>
        <time>2023-04-04T12:20:19.000Z</time>
      </trkpt>
      <trkpt lat="46.18501" lon="7.24347">
        <ele>505.60000610352</ele>
        <time>2023-04-04T12:20:20.000Z</time>
      </trkpt>
      <trkpt lat="46.18503" lon="7.2435">
        <ele>505.60000610352</ele>
        <time>2023-04-04T12:20:21.000Z</time>
      </trkpt>
      <trkpt lat="46.18508" lon="7.24362">
        <ele>505.39999389648</ele>
        <time>2023-04-04T12:20:24.000Z</time>
      </trkpt>
      <trkpt lat="46.1851" lon="7.24366">
        <ele>505.39999389648</ele>
        <time>2023-04-04T12:20:25.000Z</time>
      </trkpt>
      <trkpt lat="46.18514" lon="7.24373">
        <ele>505.39999389648</ele>
        <time>2023-04-04T12:20:27.000Z</time>
      </trkpt>
      <trkpt lat="46.18518" lon="7.24381">
        <ele>505.60000610352</ele>
        <time>2023-04-04T12:20:29.000Z</time>
      </trkpt>
      <trkpt lat="46.18519" lon="7.24385">
        <ele>505.60000610352</ele>
        <time>2023-04-04T12:20:30.000Z</time>
      </trkpt>
      <trkpt lat="46.18519" lon="7.24385">
        <ele>505.60000610352</ele>
        <time>2023-04-04T12:20:31.000Z</time>
      </trkpt>
      <trkpt lat="46.18537" lon="7.24424">
        <ele>506</ele>
        <time>2023-04-04T12:20:39.000Z</time>
      </trkpt>
      <trkpt lat="46.18557" lon="7.24468">
        <ele>506</ele>
        <time>2023-04-04T12:20:50.000Z</time>
      </trkpt>
      <trkpt lat="46.18558" lon="7.24471">
        <ele>506.20001220703</ele>
        <time>2023-04-04T12:20:51.000Z</time>
      </trkpt>
      <trkpt lat="46.1856" lon="7.24474">
        <ele>506.20001220703</ele>
        <time>2023-04-04T12:20:52.000Z</time>
      </trkpt>
      <trkpt lat="46.18561" lon="7.24477">
        <ele>506.39999389648</ele>
        <time>2023-04-04T12:20:53.000Z</time>
      </trkpt>
      <trkpt lat="46.18562" lon="7.2448">
        <ele>506.39999389648</ele>
        <time>2023-04-04T12:20:54.000Z</time>
      </trkpt>
      <trkpt lat="46.18564" lon="7.24484">
        <ele>506.39999389648</ele>
        <time>2023-04-04T12:20:55.000Z</time>
      </trkpt>
      <trkpt lat="46.18567" lon="7.2449">
        <ele>506.39999389648</ele>
        <time>2023-04-04T12:20:57.000Z</time>
      </trkpt>
      <trkpt lat="46.18569" lon="7.24493">
        <ele>506.39999389648</ele>
        <time>2023-04-04T12:20:58.000Z</time>
      </trkpt>
      <trkpt lat="46.1857" lon="7.24497">
        <ele>506.39999389648</ele>
        <time>2023-04-04T12:20:59.000Z</time>
      </trkpt>
      <trkpt lat="46.18579" lon="7.24516">
        <ele>506.20001220703</ele>
        <time>2023-04-04T12:21:04.000Z</time>
      </trkpt>
      <trkpt lat="46.18589" lon="7.24541">
        <ele>506.60000610352</ele>
        <time>2023-04-04T12:21:12.000Z</time>
      </trkpt>
      <trkpt lat="46.18589" lon="7.24541">
        <ele>506.60000610352</ele>
        <time>2023-04-04T12:21:13.000Z</time>
      </trkpt>
      <trkpt lat="46.18587" lon="7.24545">
        <ele>506.79998779297</ele>
        <time>2023-04-04T12:21:14.000Z</time>
      </trkpt>
      <trkpt lat="46.18586" lon="7.24546">
        <ele>506.79998779297</ele>
        <time>2023-04-04T12:21:15.000Z</time>
      </trkpt>
      <trkpt lat="46.18585" lon="7.24548">
        <ele>506.79998779297</ele>
        <time>2023-04-04T12:21:16.000Z</time>
      </trkpt>
      <trkpt lat="46.18584" lon="7.2455">
        <ele>507</ele>
        <time>2023-04-04T12:21:17.000Z</time>
      </trkpt>
      <trkpt lat="46.18583" lon="7.24551">
        <ele>507</ele>
        <time>2023-04-04T12:21:18.000Z</time>
      </trkpt>
      <trkpt lat="46.18582" lon="7.24552">
        <ele>507.20001220703</ele>
        <time>2023-04-04T12:21:19.000Z</time>
      </trkpt>
      <trkpt lat="46.18582" lon="7.24552">
        <ele>507.60000610352</ele>
        <time>2023-04-04T12:21:20.000Z</time>
      </trkpt>
      <trkpt lat="46.18582" lon="7.24552">
        <ele>508</ele>
        <time>2023-04-04T12:21:21.000Z</time>
      </trkpt>
      <trkpt lat="46.18579" lon="7.24558">
        <ele>509.39999389648</ele>
        <time>2023-04-04T12:22:33.000Z</time>
      </trkpt>
      <trkpt lat="46.18579" lon="7.24561">
        <ele>509.39999389648</ele>
        <time>2023-04-04T12:22:34.000Z</time>
      </trkpt>
      <trkpt lat="46.18579" lon="7.24564">
        <ele>509.20001220703</ele>
        <time>2023-04-04T12:22:35.000Z</time>
      </trkpt>
      <trkpt lat="46.1858" lon="7.24566">
        <ele>509.20001220703</ele>
        <time>2023-04-04T12:22:36.000Z</time>
      </trkpt>
      <trkpt lat="46.18582" lon="7.24572">
        <ele>509.39999389648</ele>
        <time>2023-04-04T12:22:38.000Z</time>
      </trkpt>
      <trkpt lat="46.18583" lon="7.24575">
        <ele>509.20001220703</ele>
        <time>2023-04-04T12:22:39.000Z</time>
      </trkpt>
      <trkpt lat="46.18585" lon="7.24578">
        <ele>509.20001220703</ele>
        <time>2023-04-04T12:22:40.000Z</time>
      </trkpt>
      <trkpt lat="46.18591" lon="7.24588">
        <ele>508.39999389648</ele>
        <time>2023-04-04T12:22:43.000Z</time>
      </trkpt>
      <trkpt lat="46.18597" lon="7.24598">
        <ele>508</ele>
        <time>2023-04-04T12:22:46.000Z</time>
      </trkpt>
      <trkpt lat="46.18614" lon="7.24633">
        <ele>507.39999389648</ele>
        <time>2023-04-04T12:22:55.000Z</time>
      </trkpt>
      <trkpt lat="46.18635" lon="7.24683">
        <ele>507.60000610352</ele>
        <time>2023-04-04T12:23:06.000Z</time>
      </trkpt>
      <trkpt lat="46.18658" lon="7.24729">
        <ele>507</ele>
        <time>2023-04-04T12:23:15.000Z</time>
      </trkpt>
      <trkpt lat="46.18683" lon="7.24784">
        <ele>506.60000610352</ele>
        <time>2023-04-04T12:23:25.000Z</time>
      </trkpt>
      <trkpt lat="46.18708" lon="7.24839">
        <ele>506.60000610352</ele>
        <time>2023-04-04T12:23:35.000Z</time>
      </trkpt>
      <trkpt lat="46.18711" lon="7.24844">
        <ele>506.60000610352</ele>
        <time>2023-04-04T12:23:36.000Z</time>
      </trkpt>
      <trkpt lat="46.18736" lon="7.24891">
        <ele>506.60000610352</ele>
        <time>2023-04-04T12:23:45.000Z</time>
      </trkpt>
      <trkpt lat="46.18745" lon="7.24905">
        <ele>506.39999389648</ele>
        <time>2023-04-04T12:23:48.000Z</time>
      </trkpt>
      <trkpt lat="46.18748" lon="7.24909">
        <ele>506.39999389648</ele>
        <time>2023-04-04T12:23:49.000Z</time>
      </trkpt>
      <trkpt lat="46.18751" lon="7.24913">
        <ele>506.39999389648</ele>
        <time>2023-04-04T12:23:50.000Z</time>
      </trkpt>
      <trkpt lat="46.18754" lon="7.24918">
        <ele>506.39999389648</ele>
        <time>2023-04-04T12:23:51.000Z</time>
      </trkpt>
      <trkpt lat="46.18757" lon="7.24922">
        <ele>506.39999389648</ele>
        <time>2023-04-04T12:23:52.000Z</time>
      </trkpt>
      <trkpt lat="46.1876" lon="7.24926">
        <ele>506.39999389648</ele>
        <time>2023-04-04T12:23:53.000Z</time>
      </trkpt>
      <trkpt lat="46.18763" lon="7.2493">
        <ele>506.60000610352</ele>
        <time>2023-04-04T12:23:54.000Z</time>
      </trkpt>
      <trkpt lat="46.18766" lon="7.24934">
        <ele>506.60000610352</ele>
        <time>2023-04-04T12:23:55.000Z</time>
      </trkpt>
      <trkpt lat="46.18769" lon="7.24938">
        <ele>506.60000610352</ele>
        <time>2023-04-04T12:23:56.000Z</time>
      </trkpt>
      <trkpt lat="46.18772" lon="7.24942">
        <ele>506.60000610352</ele>
        <time>2023-04-04T12:23:57.000Z</time>
      </trkpt>
      <trkpt lat="46.18775" lon="7.24946">
        <ele>506.79998779297</ele>
        <time>2023-04-04T12:23:58.000Z</time>
      </trkpt>
      <trkpt lat="46.18806" lon="7.24988">
        <ele>507.39999389648</ele>
        <time>2023-04-04T12:24:08.000Z</time>
      </trkpt>
      <trkpt lat="46.18838" lon="7.25032">
        <ele>507.20001220703</ele>
        <time>2023-04-04T12:24:18.000Z</time>
      </trkpt>
      <trkpt lat="46.1888" lon="7.25088">
        <ele>507.20001220703</ele>
        <time>2023-04-04T12:24:30.000Z</time>
      </trkpt>
      <trkpt lat="46.18914" lon="7.25132">
        <ele>506.79998779297</ele>
        <time>2023-04-04T12:24:39.000Z</time>
      </trkpt>
      <trkpt lat="46.18935" lon="7.2516">
        <ele>507</ele>
        <time>2023-04-04T12:24:45.000Z</time>
      </trkpt>
      <trkpt lat="46.18939" lon="7.25164">
        <ele>507</ele>
        <time>2023-04-04T12:24:46.000Z</time>
      </trkpt>
      <trkpt lat="46.18942" lon="7.25169">
        <ele>507</ele>
        <time>2023-04-04T12:24:47.000Z</time>
      </trkpt>
      <trkpt lat="46.18946" lon="7.25173">
        <ele>507</ele>
        <time>2023-04-04T12:24:48.000Z</time>
      </trkpt>
      <trkpt lat="46.18946" lon="7.25173">
        <ele>507</ele>
        <time>2023-04-04T12:24:49.000Z</time>
      </trkpt>
      <trkpt lat="46.18952" lon="7.25182">
        <ele>507</ele>
        <time>2023-04-04T12:24:50.000Z</time>
      </trkpt>
      <trkpt lat="46.18956" lon="7.25187">
        <ele>507</ele>
        <time>2023-04-04T12:24:51.000Z</time>
      </trkpt>
      <trkpt lat="46.18956" lon="7.25187">
        <ele>507</ele>
        <time>2023-04-04T12:24:52.000Z</time>
      </trkpt>
      <trkpt lat="46.18962" lon="7.25195">
        <ele>507</ele>
        <time>2023-04-04T12:24:53.000Z</time>
      </trkpt>
      <trkpt lat="46.1899" lon="7.25235">
        <ele>507.39999389648</ele>
        <time>2023-04-04T12:25:02.000Z</time>
      </trkpt>
      <trkpt lat="46.18996" lon="7.25243">
        <ele>507.39999389648</ele>
        <time>2023-04-04T12:25:04.000Z</time>
      </trkpt>
      <trkpt lat="46.1903" lon="7.25288">
        <ele>508</ele>
        <time>2023-04-04T12:25:14.000Z</time>
      </trkpt>
      <trkpt lat="46.19047" lon="7.25311">
        <ele>508.20001220703</ele>
        <time>2023-04-04T12:25:19.000Z</time>
      </trkpt>
      <trkpt lat="46.19061" lon="7.2533">
        <ele>508</ele>
        <time>2023-04-04T12:25:23.000Z</time>
      </trkpt>
      <trkpt lat="46.19081" lon="7.25358">
        <ele>508</ele>
        <time>2023-04-04T12:25:29.000Z</time>
      </trkpt>
      <trkpt lat="46.19091" lon="7.25371">
        <ele>508.60000610352</ele>
        <time>2023-04-04T12:25:32.000Z</time>
      </trkpt>
      <trkpt lat="46.19097" lon="7.2538">
        <ele>508.60000610352</ele>
        <time>2023-04-04T12:25:34.000Z</time>
      </trkpt>
      <trkpt lat="46.191" lon="7.25384">
        <ele>508.60000610352</ele>
        <time>2023-04-04T12:25:35.000Z</time>
      </trkpt>
      <trkpt lat="46.19103" lon="7.25389">
        <ele>508.39999389648</ele>
        <time>2023-04-04T12:25:36.000Z</time>
      </trkpt>
      <trkpt lat="46.19107" lon="7.25393">
        <ele>508.20001220703</ele>
        <time>2023-04-04T12:25:37.000Z</time>
      </trkpt>
      <trkpt lat="46.1911" lon="7.25397">
        <ele>508.20001220703</ele>
        <time>2023-04-04T12:25:38.000Z</time>
      </trkpt>
      <trkpt lat="46.19113" lon="7.25402">
        <ele>508.20001220703</ele>
        <time>2023-04-04T12:25:39.000Z</time>
      </trkpt>
      <trkpt lat="46.19116" lon="7.25407">
        <ele>508.20001220703</ele>
        <time>2023-04-04T12:25:40.000Z</time>
      </trkpt>
      <trkpt lat="46.19143" lon="7.25443">
        <ele>508.39999389648</ele>
        <time>2023-04-04T12:25:48.000Z</time>
      </trkpt>
      <trkpt lat="46.19156" lon="7.2546">
        <ele>508.39999389648</ele>
        <time>2023-04-04T12:25:52.000Z</time>
      </trkpt>
      <trkpt lat="46.19166" lon="7.25473">
        <ele>508.39999389648</ele>
        <time>2023-04-04T12:25:55.000Z</time>
      </trkpt>
      <trkpt lat="46.19172" lon="7.25483">
        <ele>508.60000610352</ele>
        <time>2023-04-04T12:25:57.000Z</time>
      </trkpt>
      <trkpt lat="46.19176" lon="7.25487">
        <ele>508.60000610352</ele>
        <time>2023-04-04T12:25:58.000Z</time>
      </trkpt>
      <trkpt lat="46.19204" lon="7.25527">
        <ele>508.79998779297</ele>
        <time>2023-04-04T12:26:07.000Z</time>
      </trkpt>
      <trkpt lat="46.19207" lon="7.25531">
        <ele>509</ele>
        <time>2023-04-04T12:26:08.000Z</time>
      </trkpt>
      <trkpt lat="46.19234" lon="7.25568">
        <ele>509.20001220703</ele>
        <time>2023-04-04T12:26:16.000Z</time>
      </trkpt>
      <trkpt lat="46.19268" lon="7.25615">
        <ele>509.20001220703</ele>
        <time>2023-04-04T12:26:26.000Z</time>
      </trkpt>
      <trkpt lat="46.19306" lon="7.25667">
        <ele>509.60000610352</ele>
        <time>2023-04-04T12:26:37.000Z</time>
      </trkpt>
      <trkpt lat="46.19339" lon="7.25712">
        <ele>510</ele>
        <time>2023-04-04T12:26:46.000Z</time>
      </trkpt>
      <trkpt lat="46.19342" lon="7.25716">
        <ele>510</ele>
        <time>2023-04-04T12:26:47.000Z</time>
      </trkpt>
      <trkpt lat="46.1936" lon="7.25741">
        <ele>510</ele>
        <time>2023-04-04T12:26:52.000Z</time>
      </trkpt>
      <trkpt lat="46.19364" lon="7.25746">
        <ele>510</ele>
        <time>2023-04-04T12:26:53.000Z</time>
      </trkpt>
      <trkpt lat="46.19367" lon="7.25751">
        <ele>510</ele>
        <time>2023-04-04T12:26:54.000Z</time>
      </trkpt>
      <trkpt lat="46.19371" lon="7.25756">
        <ele>510</ele>
        <time>2023-04-04T12:26:55.000Z</time>
      </trkpt>
      <trkpt lat="46.19374" lon="7.2576">
        <ele>510</ele>
        <time>2023-04-04T12:26:56.000Z</time>
      </trkpt>
      <trkpt lat="46.19377" lon="7.25765">
        <ele>510</ele>
        <time>2023-04-04T12:26:57.000Z</time>
      </trkpt>
      <trkpt lat="46.19381" lon="7.25769">
        <ele>510</ele>
        <time>2023-04-04T12:26:58.000Z</time>
      </trkpt>
      <trkpt lat="46.19384" lon="7.25774">
        <ele>510</ele>
        <time>2023-04-04T12:26:59.000Z</time>
      </trkpt>
      <trkpt lat="46.19387" lon="7.25779">
        <ele>510</ele>
        <time>2023-04-04T12:27:00.000Z</time>
      </trkpt>
      <trkpt lat="46.19391" lon="7.25783">
        <ele>510</ele>
        <time>2023-04-04T12:27:01.000Z</time>
      </trkpt>
      <trkpt lat="46.19394" lon="7.25788">
        <ele>510</ele>
        <time>2023-04-04T12:27:02.000Z</time>
      </trkpt>
      <trkpt lat="46.19398" lon="7.25793">
        <ele>510</ele>
        <time>2023-04-04T12:27:03.000Z</time>
      </trkpt>
      <trkpt lat="46.19401" lon="7.25798">
        <ele>510</ele>
        <time>2023-04-04T12:27:04.000Z</time>
      </trkpt>
      <trkpt lat="46.19407" lon="7.25807">
        <ele>510</ele>
        <time>2023-04-04T12:27:06.000Z</time>
      </trkpt>
      <trkpt lat="46.19411" lon="7.25812">
        <ele>510</ele>
        <time>2023-04-04T12:27:07.000Z</time>
      </trkpt>
      <trkpt lat="46.19432" lon="7.25839">
        <ele>509.79998779297</ele>
        <time>2023-04-04T12:27:14.000Z</time>
      </trkpt>
      <trkpt lat="46.19438" lon="7.25848">
        <ele>509.79998779297</ele>
        <time>2023-04-04T12:27:15.000Z</time>
      </trkpt>
      <trkpt lat="46.19442" lon="7.25853">
        <ele>509.79998779297</ele>
        <time>2023-04-04T12:27:16.000Z</time>
      </trkpt>
      <trkpt lat="46.19445" lon="7.25857">
        <ele>509.79998779297</ele>
        <time>2023-04-04T12:27:17.000Z</time>
      </trkpt>
      <trkpt lat="46.19472" lon="7.25895">
        <ele>509.79998779297</ele>
        <time>2023-04-04T12:27:25.000Z</time>
      </trkpt>
      <trkpt lat="46.19485" lon="7.25911">
        <ele>509.60000610352</ele>
        <time>2023-04-04T12:27:29.000Z</time>
      </trkpt>
      <trkpt lat="46.19488" lon="7.25915">
        <ele>509.60000610352</ele>
        <time>2023-04-04T12:27:30.000Z</time>
      </trkpt>
      <trkpt lat="46.19491" lon="7.25919">
        <ele>509.39999389648</ele>
        <time>2023-04-04T12:27:31.000Z</time>
      </trkpt>
      <trkpt lat="46.19494" lon="7.25924">
        <ele>509.39999389648</ele>
        <time>2023-04-04T12:27:32.000Z</time>
      </trkpt>
      <trkpt lat="46.19497" lon="7.25928">
        <ele>509.39999389648</ele>
        <time>2023-04-04T12:27:33.000Z</time>
      </trkpt>
      <trkpt lat="46.19504" lon="7.25937">
        <ele>509.39999389648</ele>
        <time>2023-04-04T12:27:35.000Z</time>
      </trkpt>
      <trkpt lat="46.19507" lon="7.25941">
        <ele>509.39999389648</ele>
        <time>2023-04-04T12:27:36.000Z</time>
      </trkpt>
      <trkpt lat="46.1951" lon="7.25946">
        <ele>509.39999389648</ele>
        <time>2023-04-04T12:27:37.000Z</time>
      </trkpt>
      <trkpt lat="46.19531" lon="7.25975">
        <ele>509.39999389648</ele>
        <time>2023-04-04T12:27:43.000Z</time>
      </trkpt>
      <trkpt lat="46.19551" lon="7.26002">
        <ele>509.20001220703</ele>
        <time>2023-04-04T12:27:49.000Z</time>
      </trkpt>
      <trkpt lat="46.19555" lon="7.26007">
        <ele>509.20001220703</ele>
        <time>2023-04-04T12:27:50.000Z</time>
      </trkpt>
      <trkpt lat="46.19558" lon="7.26012">
        <ele>509.20001220703</ele>
        <time>2023-04-04T12:27:51.000Z</time>
      </trkpt>
      <trkpt lat="46.19561" lon="7.26016">
        <ele>509.20001220703</ele>
        <time>2023-04-04T12:27:52.000Z</time>
      </trkpt>
      <trkpt lat="46.19564" lon="7.26021">
        <ele>509.20001220703</ele>
        <time>2023-04-04T12:27:53.000Z</time>
      </trkpt>
      <trkpt lat="46.19567" lon="7.26025">
        <ele>509.20001220703</ele>
        <time>2023-04-04T12:27:54.000Z</time>
      </trkpt>
      <trkpt lat="46.19571" lon="7.2603">
        <ele>509.20001220703</ele>
        <time>2023-04-04T12:27:55.000Z</time>
      </trkpt>
      <trkpt lat="46.19574" lon="7.26035">
        <ele>509.39999389648</ele>
        <time>2023-04-04T12:27:56.000Z</time>
      </trkpt>
      <trkpt lat="46.19584" lon="7.26048">
        <ele>509.60000610352</ele>
        <time>2023-04-04T12:27:59.000Z</time>
      </trkpt>
      <trkpt lat="46.19584" lon="7.26048">
        <ele>509.79998779297</ele>
        <time>2023-04-04T12:28:00.000Z</time>
      </trkpt>
      <trkpt lat="46.19594" lon="7.26061">
        <ele>509.79998779297</ele>
        <time>2023-04-04T12:28:02.000Z</time>
      </trkpt>
      <trkpt lat="46.19597" lon="7.26065">
        <ele>509.79998779297</ele>
        <time>2023-04-04T12:28:03.000Z</time>
      </trkpt>
      <trkpt lat="46.19607" lon="7.26077">
        <ele>509.60000610352</ele>
        <time>2023-04-04T12:28:06.000Z</time>
      </trkpt>
      <trkpt lat="46.1961" lon="7.26081">
        <ele>509.60000610352</ele>
        <time>2023-04-04T12:28:07.000Z</time>
      </trkpt>
      <trkpt lat="46.19613" lon="7.26086">
        <ele>509.60000610352</ele>
        <time>2023-04-04T12:28:08.000Z</time>
      </trkpt>
      <trkpt lat="46.19616" lon="7.2609">
        <ele>509.60000610352</ele>
        <time>2023-04-04T12:28:09.000Z</time>
      </trkpt>
      <trkpt lat="46.19619" lon="7.26095">
        <ele>509.60000610352</ele>
        <time>2023-04-04T12:28:10.000Z</time>
      </trkpt>
      <trkpt lat="46.19648" lon="7.26142">
        <ele>509.60000610352</ele>
        <time>2023-04-04T12:28:19.000Z</time>
      </trkpt>
      <trkpt lat="46.19682" lon="7.26204">
        <ele>509</ele>
        <time>2023-04-04T12:28:30.000Z</time>
      </trkpt>
      <trkpt lat="46.19688" lon="7.26215">
        <ele>509</ele>
        <time>2023-04-04T12:28:32.000Z</time>
      </trkpt>
      <trkpt lat="46.19691" lon="7.26221">
        <ele>509</ele>
        <time>2023-04-04T12:28:33.000Z</time>
      </trkpt>
      <trkpt lat="46.19694" lon="7.26226">
        <ele>509</ele>
        <time>2023-04-04T12:28:34.000Z</time>
      </trkpt>
      <trkpt lat="46.19697" lon="7.26231">
        <ele>509</ele>
        <time>2023-04-04T12:28:35.000Z</time>
      </trkpt>
      <trkpt lat="46.19699" lon="7.26237">
        <ele>509</ele>
        <time>2023-04-04T12:28:36.000Z</time>
      </trkpt>
      <trkpt lat="46.19702" lon="7.26242">
        <ele>509</ele>
        <time>2023-04-04T12:28:37.000Z</time>
      </trkpt>
      <trkpt lat="46.19705" lon="7.26248">
        <ele>509</ele>
        <time>2023-04-04T12:28:38.000Z</time>
      </trkpt>
      <trkpt lat="46.19711" lon="7.26259">
        <ele>508.79998779297</ele>
        <time>2023-04-04T12:28:40.000Z</time>
      </trkpt>
      <trkpt lat="46.19717" lon="7.2627">
        <ele>508.79998779297</ele>
        <time>2023-04-04T12:28:42.000Z</time>
      </trkpt>
      <trkpt lat="46.19735" lon="7.26304">
        <ele>508.79998779297</ele>
        <time>2023-04-04T12:28:48.000Z</time>
      </trkpt>
      <trkpt lat="46.19764" lon="7.26357">
        <ele>509</ele>
        <time>2023-04-04T12:28:57.000Z</time>
      </trkpt>
      <trkpt lat="46.1979" lon="7.26404">
        <ele>509.39999389648</ele>
        <time>2023-04-04T12:29:05.000Z</time>
      </trkpt>
      <trkpt lat="46.19816" lon="7.26451">
        <ele>509.60000610352</ele>
        <time>2023-04-04T12:29:13.000Z</time>
      </trkpt>
      <trkpt lat="46.19831" lon="7.26479">
        <ele>509.39999389648</ele>
        <time>2023-04-04T12:29:18.000Z</time>
      </trkpt>
      <trkpt lat="46.19834" lon="7.26485">
        <ele>509.39999389648</ele>
        <time>2023-04-04T12:29:19.000Z</time>
      </trkpt>
      <trkpt lat="46.19837" lon="7.26491">
        <ele>509.39999389648</ele>
        <time>2023-04-04T12:29:20.000Z</time>
      </trkpt>
      <trkpt lat="46.19844" lon="7.26502">
        <ele>509.39999389648</ele>
        <time>2023-04-04T12:29:22.000Z</time>
      </trkpt>
      <trkpt lat="46.19873" lon="7.26563">
        <ele>509.60000610352</ele>
        <time>2023-04-04T12:29:32.000Z</time>
      </trkpt>
      <trkpt lat="46.19894" lon="7.26624">
        <ele>509.20001220703</ele>
        <time>2023-04-04T12:29:41.000Z</time>
      </trkpt>
      <trkpt lat="46.19898" lon="7.26643">
        <ele>509</ele>
        <time>2023-04-04T12:29:44.000Z</time>
      </trkpt>
      <trkpt lat="46.19899" lon="7.26649">
        <ele>509</ele>
        <time>2023-04-04T12:29:45.000Z</time>
      </trkpt>
      <trkpt lat="46.19899" lon="7.26655">
        <ele>509</ele>
        <time>2023-04-04T12:29:46.000Z</time>
      </trkpt>
      <trkpt lat="46.199" lon="7.26661">
        <ele>509</ele>
        <time>2023-04-04T12:29:47.000Z</time>
      </trkpt>
      <trkpt lat="46.19901" lon="7.26667">
        <ele>509</ele>
        <time>2023-04-04T12:29:48.000Z</time>
      </trkpt>
      <trkpt lat="46.19902" lon="7.26673">
        <ele>509</ele>
        <time>2023-04-04T12:29:49.000Z</time>
      </trkpt>
      <trkpt lat="46.19902" lon="7.26673">
        <ele>509</ele>
        <time>2023-04-04T12:29:50.000Z</time>
      </trkpt>
      <trkpt lat="46.19903" lon="7.26682">
        <ele>509</ele>
        <time>2023-04-04T12:29:51.000Z</time>
      </trkpt>
      <trkpt lat="46.19903" lon="7.26686">
        <ele>509</ele>
        <time>2023-04-04T12:29:52.000Z</time>
      </trkpt>
      <trkpt lat="46.19904" lon="7.26689">
        <ele>509</ele>
        <time>2023-04-04T12:29:53.000Z</time>
      </trkpt>
      <trkpt lat="46.19904" lon="7.26691">
        <ele>509.20001220703</ele>
        <time>2023-04-04T12:29:54.000Z</time>
      </trkpt>
      <trkpt lat="46.19905" lon="7.26691">
        <ele>509.20001220703</ele>
        <time>2023-04-04T12:29:55.000Z</time>
      </trkpt>
      <trkpt lat="46.19905" lon="7.26691">
        <ele>509.20001220703</ele>
        <time>2023-04-04T12:29:56.000Z</time>
      </trkpt>
      <trkpt lat="46.19906" lon="7.26698">
        <ele>510.79998779297</ele>
        <time>2023-04-04T12:30:22.000Z</time>
      </trkpt>
      <trkpt lat="46.19911" lon="7.26722">
        <ele>510.20001220703</ele>
        <time>2023-04-04T12:30:28.000Z</time>
      </trkpt>
      <trkpt lat="46.19915" lon="7.26747">
        <ele>509.60000610352</ele>
        <time>2023-04-04T12:30:33.000Z</time>
      </trkpt>
      <trkpt lat="46.19916" lon="7.26752">
        <ele>509.60000610352</ele>
        <time>2023-04-04T12:30:34.000Z</time>
      </trkpt>
      <trkpt lat="46.19918" lon="7.26761">
        <ele>509.60000610352</ele>
        <time>2023-04-04T12:30:36.000Z</time>
      </trkpt>
      <trkpt lat="46.19924" lon="7.26796">
        <ele>509.60000610352</ele>
        <time>2023-04-04T12:30:43.000Z</time>
      </trkpt>
      <trkpt lat="46.19933" lon="7.26848">
        <ele>509.20001220703</ele>
        <time>2023-04-04T12:30:52.000Z</time>
      </trkpt>
      <trkpt lat="46.19944" lon="7.26912">
        <ele>509.20001220703</ele>
        <time>2023-04-04T12:31:02.000Z</time>
      </trkpt>
      <trkpt lat="46.19955" lon="7.26972">
        <ele>509.20001220703</ele>
        <time>2023-04-04T12:31:11.000Z</time>
      </trkpt>
      <trkpt lat="46.19967" lon="7.27041">
        <ele>509.39999389648</ele>
        <time>2023-04-04T12:31:21.000Z</time>
      </trkpt>
      <trkpt lat="46.1998" lon="7.27109">
        <ele>509.39999389648</ele>
        <time>2023-04-04T12:31:31.000Z</time>
      </trkpt>
      <trkpt lat="46.19981" lon="7.27115">
        <ele>509.39999389648</ele>
        <time>2023-04-04T12:31:32.000Z</time>
      </trkpt>
      <trkpt lat="46.19982" lon="7.27121">
        <ele>509.39999389648</ele>
        <time>2023-04-04T12:31:33.000Z</time>
      </trkpt>
      <trkpt lat="46.19982" lon="7.27126">
        <ele>509.39999389648</ele>
        <time>2023-04-04T12:31:34.000Z</time>
      </trkpt>
      <trkpt lat="46.19983" lon="7.27132">
        <ele>509.39999389648</ele>
        <time>2023-04-04T12:31:35.000Z</time>
      </trkpt>
      <trkpt lat="46.19984" lon="7.27137">
        <ele>509.39999389648</ele>
        <time>2023-04-04T12:31:36.000Z</time>
      </trkpt>
      <trkpt lat="46.19985" lon="7.27142">
        <ele>509.39999389648</ele>
        <time>2023-04-04T12:31:37.000Z</time>
      </trkpt>
      <trkpt lat="46.19986" lon="7.27147">
        <ele>509.39999389648</ele>
        <time>2023-04-04T12:31:38.000Z</time>
      </trkpt>
      <trkpt lat="46.19987" lon="7.27152">
        <ele>509.39999389648</ele>
        <time>2023-04-04T12:31:39.000Z</time>
      </trkpt>
      <trkpt lat="46.19987" lon="7.27157">
        <ele>509.39999389648</ele>
        <time>2023-04-04T12:31:40.000Z</time>
      </trkpt>
      <trkpt lat="46.19988" lon="7.27161">
        <ele>509.39999389648</ele>
        <time>2023-04-04T12:31:41.000Z</time>
      </trkpt>
      <trkpt lat="46.19989" lon="7.27166">
        <ele>509.39999389648</ele>
        <time>2023-04-04T12:31:42.000Z</time>
      </trkpt>
      <trkpt lat="46.19989" lon="7.27171">
        <ele>509.39999389648</ele>
        <time>2023-04-04T12:31:43.000Z</time>
      </trkpt>
      <trkpt lat="46.19988" lon="7.27175">
        <ele>509.39999389648</ele>
        <time>2023-04-04T12:31:44.000Z</time>
      </trkpt>
      <trkpt lat="46.19988" lon="7.2718">
        <ele>509.39999389648</ele>
        <time>2023-04-04T12:31:45.000Z</time>
      </trkpt>
      <trkpt lat="46.19986" lon="7.27183">
        <ele>509.60000610352</ele>
        <time>2023-04-04T12:31:46.000Z</time>
      </trkpt>
      <trkpt lat="46.19984" lon="7.27186">
        <ele>509.39999389648</ele>
        <time>2023-04-04T12:31:47.000Z</time>
      </trkpt>
      <trkpt lat="46.19981" lon="7.27188">
        <ele>509.39999389648</ele>
        <time>2023-04-04T12:31:48.000Z</time>
      </trkpt>
      <trkpt lat="46.19978" lon="7.27191">
        <ele>509.39999389648</ele>
        <time>2023-04-04T12:31:49.000Z</time>
      </trkpt>
      <trkpt lat="46.19974" lon="7.27194">
        <ele>509.39999389648</ele>
        <time>2023-04-04T12:31:50.000Z</time>
      </trkpt>
      <trkpt lat="46.19971" lon="7.27197">
        <ele>509.39999389648</ele>
        <time>2023-04-04T12:31:51.000Z</time>
      </trkpt>
      <trkpt lat="46.19956" lon="7.27209">
        <ele>510</ele>
        <time>2023-04-04T12:31:55.000Z</time>
      </trkpt>
      <trkpt lat="46.19949" lon="7.27214">
        <ele>510</ele>
        <time>2023-04-04T12:31:57.000Z</time>
      </trkpt>
      <trkpt lat="46.19928" lon="7.27232">
        <ele>510.39999389648</ele>
        <time>2023-04-04T12:32:03.000Z</time>
      </trkpt>
      <trkpt lat="46.19924" lon="7.27235">
        <ele>510.60000610352</ele>
        <time>2023-04-04T12:32:04.000Z</time>
      </trkpt>
      <trkpt lat="46.19913" lon="7.27244">
        <ele>510.60000610352</ele>
        <time>2023-04-04T12:32:07.000Z</time>
      </trkpt>
      <trkpt lat="46.19898" lon="7.27256">
        <ele>510.79998779297</ele>
        <time>2023-04-04T12:32:11.000Z</time>
      </trkpt>
      <trkpt lat="46.19891" lon="7.27262">
        <ele>511.20001220703</ele>
        <time>2023-04-04T12:32:13.000Z</time>
      </trkpt>
      <trkpt lat="46.19861" lon="7.27288">
        <ele>511.39999389648</ele>
        <time>2023-04-04T12:32:21.000Z</time>
      </trkpt>
      <trkpt lat="46.19854" lon="7.27293">
        <ele>511.39999389648</ele>
        <time>2023-04-04T12:32:23.000Z</time>
      </trkpt>
      <trkpt lat="46.19837" lon="7.27308">
        <ele>511.39999389648</ele>
        <time>2023-04-04T12:32:28.000Z</time>
      </trkpt>
      <trkpt lat="46.19833" lon="7.27311">
        <ele>511.39999389648</ele>
        <time>2023-04-04T12:32:29.000Z</time>
      </trkpt>
      <trkpt lat="46.19829" lon="7.27314">
        <ele>511.39999389648</ele>
        <time>2023-04-04T12:32:30.000Z</time>
      </trkpt>
      <trkpt lat="46.19826" lon="7.27317">
        <ele>511.39999389648</ele>
        <time>2023-04-04T12:32:31.000Z</time>
      </trkpt>
      <trkpt lat="46.19822" lon="7.27319">
        <ele>511.39999389648</ele>
        <time>2023-04-04T12:32:32.000Z</time>
      </trkpt>
      <trkpt lat="46.19789" lon="7.27347">
        <ele>511.39999389648</ele>
        <time>2023-04-04T12:32:41.000Z</time>
      </trkpt>
      <trkpt lat="46.19775" lon="7.27358">
        <ele>511.20001220703</ele>
        <time>2023-04-04T12:32:45.000Z</time>
      </trkpt>
      <trkpt lat="46.19775" lon="7.27358">
        <ele>511.20001220703</ele>
        <time>2023-04-04T12:32:46.000Z</time>
      </trkpt>
      <trkpt lat="46.19768" lon="7.27363">
        <ele>511.20001220703</ele>
        <time>2023-04-04T12:32:47.000Z</time>
      </trkpt>
      <trkpt lat="46.19764" lon="7.27366">
        <ele>511.20001220703</ele>
        <time>2023-04-04T12:32:48.000Z</time>
      </trkpt>
      <trkpt lat="46.19761" lon="7.27369">
        <ele>511.20001220703</ele>
        <time>2023-04-04T12:32:49.000Z</time>
      </trkpt>
      <trkpt lat="46.19757" lon="7.27372">
        <ele>511.20001220703</ele>
        <time>2023-04-04T12:32:50.000Z</time>
      </trkpt>
      <trkpt lat="46.19754" lon="7.27375">
        <ele>511.20001220703</ele>
        <time>2023-04-04T12:32:51.000Z</time>
      </trkpt>
      <trkpt lat="46.19751" lon="7.27377">
        <ele>511.20001220703</ele>
        <time>2023-04-04T12:32:52.000Z</time>
      </trkpt>
      <trkpt lat="46.19748" lon="7.2738">
        <ele>511.20001220703</ele>
        <time>2023-04-04T12:32:53.000Z</time>
      </trkpt>
      <trkpt lat="46.19746" lon="7.27382">
        <ele>511.20001220703</ele>
        <time>2023-04-04T12:32:54.000Z</time>
      </trkpt>
      <trkpt lat="46.19743" lon="7.27385">
        <ele>511.20001220703</ele>
        <time>2023-04-04T12:32:55.000Z</time>
      </trkpt>
      <trkpt lat="46.1974" lon="7.27388">
        <ele>511.20001220703</ele>
        <time>2023-04-04T12:32:56.000Z</time>
      </trkpt>
      <trkpt lat="46.19719" lon="7.27405">
        <ele>511.39999389648</ele>
        <time>2023-04-04T12:33:02.000Z</time>
      </trkpt>
      <trkpt lat="46.19687" lon="7.27433">
        <ele>511.39999389648</ele>
        <time>2023-04-04T12:33:11.000Z</time>
      </trkpt>
      <trkpt lat="46.19673" lon="7.27446">
        <ele>511.60000610352</ele>
        <time>2023-04-04T12:33:16.000Z</time>
      </trkpt>
      <trkpt lat="46.19671" lon="7.27449">
        <ele>511.79998779297</ele>
        <time>2023-04-04T12:33:17.000Z</time>
      </trkpt>
      <trkpt lat="46.1967" lon="7.27452">
        <ele>511.79998779297</ele>
        <time>2023-04-04T12:33:18.000Z</time>
      </trkpt>
      <trkpt lat="46.19668" lon="7.27456">
        <ele>511.79998779297</ele>
        <time>2023-04-04T12:33:19.000Z</time>
      </trkpt>
      <trkpt lat="46.19668" lon="7.2746">
        <ele>511.79998779297</ele>
        <time>2023-04-04T12:33:20.000Z</time>
      </trkpt>
      <trkpt lat="46.19667" lon="7.27463">
        <ele>512</ele>
        <time>2023-04-04T12:33:21.000Z</time>
      </trkpt>
      <trkpt lat="46.19668" lon="7.27466">
        <ele>512.20001220703</ele>
        <time>2023-04-04T12:33:22.000Z</time>
      </trkpt>
      <trkpt lat="46.19669" lon="7.2747">
        <ele>512.20001220703</ele>
        <time>2023-04-04T12:33:23.000Z</time>
      </trkpt>
      <trkpt lat="46.1967" lon="7.27473">
        <ele>512.40002441406</ele>
        <time>2023-04-04T12:33:24.000Z</time>
      </trkpt>
      <trkpt lat="46.19671" lon="7.27476">
        <ele>512.59997558594</ele>
        <time>2023-04-04T12:33:25.000Z</time>
      </trkpt>
      <trkpt lat="46.19672" lon="7.27479">
        <ele>512.59997558594</ele>
        <time>2023-04-04T12:33:26.000Z</time>
      </trkpt>
      <trkpt lat="46.19672" lon="7.27483">
        <ele>512.59997558594</ele>
        <time>2023-04-04T12:33:27.000Z</time>
      </trkpt>
      <trkpt lat="46.19673" lon="7.27486">
        <ele>512.79998779297</ele>
        <time>2023-04-04T12:33:28.000Z</time>
      </trkpt>
      <trkpt lat="46.19674" lon="7.27489">
        <ele>512.79998779297</ele>
        <time>2023-04-04T12:33:29.000Z</time>
      </trkpt>
      <trkpt lat="46.19674" lon="7.27492">
        <ele>513</ele>
        <time>2023-04-04T12:33:30.000Z</time>
      </trkpt>
      <trkpt lat="46.19674" lon="7.27495">
        <ele>513.20001220703</ele>
        <time>2023-04-04T12:33:31.000Z</time>
      </trkpt>
      <trkpt lat="46.19674" lon="7.27498">
        <ele>513.20001220703</ele>
        <time>2023-04-04T12:33:32.000Z</time>
      </trkpt>
      <trkpt lat="46.19674" lon="7.27501">
        <ele>513.40002441406</ele>
        <time>2023-04-04T12:33:33.000Z</time>
      </trkpt>
      <trkpt lat="46.19674" lon="7.27503">
        <ele>513.59997558594</ele>
        <time>2023-04-04T12:33:34.000Z</time>
      </trkpt>
      <trkpt lat="46.19675" lon="7.27505">
        <ele>514</ele>
        <time>2023-04-04T12:33:35.000Z</time>
      </trkpt>
      <trkpt lat="46.19676" lon="7.27507">
        <ele>514</ele>
        <time>2023-04-04T12:33:36.000Z</time>
      </trkpt>
      <trkpt lat="46.19676" lon="7.2751">
        <ele>514.20001220703</ele>
        <time>2023-04-04T12:33:37.000Z</time>
      </trkpt>
      <trkpt lat="46.19677" lon="7.27514">
        <ele>514.40002441406</ele>
        <time>2023-04-04T12:33:38.000Z</time>
      </trkpt>
      <trkpt lat="46.19678" lon="7.27518">
        <ele>514.59997558594</ele>
        <time>2023-04-04T12:33:39.000Z</time>
      </trkpt>
      <trkpt lat="46.1968" lon="7.27525">
        <ele>515.20001220703</ele>
        <time>2023-04-04T12:33:41.000Z</time>
      </trkpt>
      <trkpt lat="46.19681" lon="7.27529">
        <ele>515.40002441406</ele>
        <time>2023-04-04T12:33:42.000Z</time>
      </trkpt>
      <trkpt lat="46.19683" lon="7.27532">
        <ele>515.40002441406</ele>
        <time>2023-04-04T12:33:43.000Z</time>
      </trkpt>
      <trkpt lat="46.19684" lon="7.27535">
        <ele>515.40002441406</ele>
        <time>2023-04-04T12:33:44.000Z</time>
      </trkpt>
      <trkpt lat="46.19686" lon="7.27538">
        <ele>515.20001220703</ele>
        <time>2023-04-04T12:33:45.000Z</time>
      </trkpt>
      <trkpt lat="46.19687" lon="7.27541">
        <ele>515.20001220703</ele>
        <time>2023-04-04T12:33:46.000Z</time>
      </trkpt>
      <trkpt lat="46.19688" lon="7.27544">
        <ele>515.20001220703</ele>
        <time>2023-04-04T12:33:47.000Z</time>
      </trkpt>
      <trkpt lat="46.19689" lon="7.27547">
        <ele>515.20001220703</ele>
        <time>2023-04-04T12:33:48.000Z</time>
      </trkpt>
      <trkpt lat="46.19691" lon="7.2755">
        <ele>515.20001220703</ele>
        <time>2023-04-04T12:33:49.000Z</time>
      </trkpt>
      <trkpt lat="46.19692" lon="7.27553">
        <ele>515.20001220703</ele>
        <time>2023-04-04T12:33:50.000Z</time>
      </trkpt>
      <trkpt lat="46.19693" lon="7.27556">
        <ele>515.20001220703</ele>
        <time>2023-04-04T12:33:51.000Z</time>
      </trkpt>
      <trkpt lat="46.19694" lon="7.2756">
        <ele>515.20001220703</ele>
        <time>2023-04-04T12:33:52.000Z</time>
      </trkpt>
      <trkpt lat="46.19696" lon="7.27563">
        <ele>515.59997558594</ele>
        <time>2023-04-04T12:33:53.000Z</time>
      </trkpt>
      <trkpt lat="46.19696" lon="7.27566">
        <ele>515.59997558594</ele>
        <time>2023-04-04T12:33:54.000Z</time>
      </trkpt>
      <trkpt lat="46.19697" lon="7.27567">
        <ele>515.59997558594</ele>
        <time>2023-04-04T12:33:55.000Z</time>
      </trkpt>
      <trkpt lat="46.19697" lon="7.27568">
        <ele>515.59997558594</ele>
        <time>2023-04-04T12:33:56.000Z</time>
      </trkpt>
      <trkpt lat="46.19697" lon="7.27568">
        <ele>515.59997558594</ele>
        <time>2023-04-04T12:33:57.000Z</time>
      </trkpt>
      <trkpt lat="46.19699" lon="7.27572">
        <ele>516</ele>
        <time>2023-04-04T12:34:41.000Z</time>
      </trkpt>
      <trkpt lat="46.19701" lon="7.27579">
        <ele>516</ele>
        <time>2023-04-04T12:34:43.000Z</time>
      </trkpt>
      <trkpt lat="46.1971" lon="7.27603">
        <ele>516</ele>
        <time>2023-04-04T12:34:49.000Z</time>
      </trkpt>
      <trkpt lat="46.19713" lon="7.27612">
        <ele>515.79998779297</ele>
        <time>2023-04-04T12:34:51.000Z</time>
      </trkpt>
      <trkpt lat="46.19722" lon="7.2763">
        <ele>515.59997558594</ele>
        <time>2023-04-04T12:34:55.000Z</time>
      </trkpt>
      <trkpt lat="46.1974" lon="7.27676">
        <ele>515.59997558594</ele>
        <time>2023-04-04T12:35:04.000Z</time>
      </trkpt>
      <trkpt lat="46.19749" lon="7.27698">
        <ele>515.79998779297</ele>
        <time>2023-04-04T12:35:08.000Z</time>
      </trkpt>
      <trkpt lat="46.19755" lon="7.27714">
        <ele>515.79998779297</ele>
        <time>2023-04-04T12:35:11.000Z</time>
      </trkpt>
      <trkpt lat="46.19777" lon="7.27764">
        <ele>515.59997558594</ele>
        <time>2023-04-04T12:35:20.000Z</time>
      </trkpt>
      <trkpt lat="46.19798" lon="7.27816">
        <ele>515.59997558594</ele>
        <time>2023-04-04T12:35:29.000Z</time>
      </trkpt>
      <trkpt lat="46.19808" lon="7.27839">
        <ele>515.59997558594</ele>
        <time>2023-04-04T12:35:33.000Z</time>
      </trkpt>
      <trkpt lat="46.19814" lon="7.27856">
        <ele>515.79998779297</ele>
        <time>2023-04-04T12:35:36.000Z</time>
      </trkpt>
      <trkpt lat="46.19817" lon="7.27862">
        <ele>515.79998779297</ele>
        <time>2023-04-04T12:35:37.000Z</time>
      </trkpt>
      <trkpt lat="46.19824" lon="7.27879">
        <ele>515.79998779297</ele>
        <time>2023-04-04T12:35:40.000Z</time>
      </trkpt>
      <trkpt lat="46.19831" lon="7.27896">
        <ele>516</ele>
        <time>2023-04-04T12:35:43.000Z</time>
      </trkpt>
      <trkpt lat="46.19833" lon="7.27901">
        <ele>516</ele>
        <time>2023-04-04T12:35:44.000Z</time>
      </trkpt>
      <trkpt lat="46.19843" lon="7.27925">
        <ele>516</ele>
        <time>2023-04-04T12:35:48.000Z</time>
      </trkpt>
      <trkpt lat="46.19853" lon="7.27948">
        <ele>516</ele>
        <time>2023-04-04T12:35:52.000Z</time>
      </trkpt>
      <trkpt lat="46.19869" lon="7.27984">
        <ele>515.59997558594</ele>
        <time>2023-04-04T12:35:58.000Z</time>
      </trkpt>
      <trkpt lat="46.1989" lon="7.28031">
        <ele>515.59997558594</ele>
        <time>2023-04-04T12:36:06.000Z</time>
      </trkpt>
      <trkpt lat="46.19896" lon="7.28042">
        <ele>515.59997558594</ele>
        <time>2023-04-04T12:36:08.000Z</time>
      </trkpt>
      <trkpt lat="46.19901" lon="7.28054">
        <ele>515.79998779297</ele>
        <time>2023-04-04T12:36:10.000Z</time>
      </trkpt>
      <trkpt lat="46.19903" lon="7.2806">
        <ele>516</ele>
        <time>2023-04-04T12:36:11.000Z</time>
      </trkpt>
      <trkpt lat="46.19907" lon="7.28071">
        <ele>516.40002441406</ele>
        <time>2023-04-04T12:36:13.000Z</time>
      </trkpt>
      <trkpt lat="46.19909" lon="7.28076">
        <ele>516.40002441406</ele>
        <time>2023-04-04T12:36:14.000Z</time>
      </trkpt>
      <trkpt lat="46.19911" lon="7.28082">
        <ele>516.59997558594</ele>
        <time>2023-04-04T12:36:15.000Z</time>
      </trkpt>
      <trkpt lat="46.19913" lon="7.28088">
        <ele>516.59997558594</ele>
        <time>2023-04-04T12:36:16.000Z</time>
      </trkpt>
      <trkpt lat="46.19934" lon="7.28141">
        <ele>516.40002441406</ele>
        <time>2023-04-04T12:36:25.000Z</time>
      </trkpt>
      <trkpt lat="46.19957" lon="7.2821">
        <ele>516</ele>
        <time>2023-04-04T12:36:36.000Z</time>
      </trkpt>
      <trkpt lat="46.19961" lon="7.28222">
        <ele>516</ele>
        <time>2023-04-04T12:36:38.000Z</time>
      </trkpt>
      <trkpt lat="46.19962" lon="7.28229">
        <ele>516.20001220703</ele>
        <time>2023-04-04T12:36:39.000Z</time>
      </trkpt>
      <trkpt lat="46.1997" lon="7.28257">
        <ele>516.20001220703</ele>
        <time>2023-04-04T12:36:44.000Z</time>
      </trkpt>
      <trkpt lat="46.19972" lon="7.28263">
        <ele>516.40002441406</ele>
        <time>2023-04-04T12:36:45.000Z</time>
      </trkpt>
      <trkpt lat="46.19973" lon="7.28269">
        <ele>516.40002441406</ele>
        <time>2023-04-04T12:36:46.000Z</time>
      </trkpt>
      <trkpt lat="46.19974" lon="7.28275">
        <ele>516.40002441406</ele>
        <time>2023-04-04T12:36:47.000Z</time>
      </trkpt>
      <trkpt lat="46.19975" lon="7.28281">
        <ele>516.59997558594</ele>
        <time>2023-04-04T12:36:48.000Z</time>
      </trkpt>
      <trkpt lat="46.19977" lon="7.28287">
        <ele>517</ele>
        <time>2023-04-04T12:36:49.000Z</time>
      </trkpt>
      <trkpt lat="46.19978" lon="7.28293">
        <ele>517</ele>
        <time>2023-04-04T12:36:50.000Z</time>
      </trkpt>
      <trkpt lat="46.19982" lon="7.28318">
        <ele>517.40002441406</ele>
        <time>2023-04-04T12:36:54.000Z</time>
      </trkpt>
      <trkpt lat="46.19982" lon="7.28324">
        <ele>517.59997558594</ele>
        <time>2023-04-04T12:36:55.000Z</time>
      </trkpt>
      <trkpt lat="46.19984" lon="7.2833">
        <ele>517.59997558594</ele>
        <time>2023-04-04T12:36:56.000Z</time>
      </trkpt>
      <trkpt lat="46.19989" lon="7.28362">
        <ele>517.59997558594</ele>
        <time>2023-04-04T12:37:01.000Z</time>
      </trkpt>
      <trkpt lat="46.1999" lon="7.28375">
        <ele>517.59997558594</ele>
        <time>2023-04-04T12:37:03.000Z</time>
      </trkpt>
      <trkpt lat="46.19996" lon="7.28407">
        <ele>517.59997558594</ele>
        <time>2023-04-04T12:37:08.000Z</time>
      </trkpt>
      <trkpt lat="46.19998" lon="7.2842">
        <ele>517.40002441406</ele>
        <time>2023-04-04T12:37:10.000Z</time>
      </trkpt>
      <trkpt lat="46.2" lon="7.28433">
        <ele>517.40002441406</ele>
        <time>2023-04-04T12:37:12.000Z</time>
      </trkpt>
      <trkpt lat="46.20005" lon="7.28466">
        <ele>517.20001220703</ele>
        <time>2023-04-04T12:37:17.000Z</time>
      </trkpt>
      <trkpt lat="46.20012" lon="7.28507">
        <ele>517.79998779297</ele>
        <time>2023-04-04T12:37:23.000Z</time>
      </trkpt>
      <trkpt lat="46.20024" lon="7.2858">
        <ele>518.20001220703</ele>
        <time>2023-04-04T12:37:34.000Z</time>
      </trkpt>
      <trkpt lat="46.20034" lon="7.28641">
        <ele>518.20001220703</ele>
        <time>2023-04-04T12:37:43.000Z</time>
      </trkpt>
      <trkpt lat="46.20039" lon="7.28674">
        <ele>518.20001220703</ele>
        <time>2023-04-04T12:37:48.000Z</time>
      </trkpt>
      <trkpt lat="46.2004" lon="7.2868">
        <ele>518.20001220703</ele>
        <time>2023-04-04T12:37:49.000Z</time>
      </trkpt>
      <trkpt lat="46.20041" lon="7.28685">
        <ele>518</ele>
        <time>2023-04-04T12:37:50.000Z</time>
      </trkpt>
      <trkpt lat="46.20042" lon="7.28691">
        <ele>518</ele>
        <time>2023-04-04T12:37:51.000Z</time>
      </trkpt>
      <trkpt lat="46.20044" lon="7.28697">
        <ele>517.79998779297</ele>
        <time>2023-04-04T12:37:52.000Z</time>
      </trkpt>
      <trkpt lat="46.20045" lon="7.28702">
        <ele>517.79998779297</ele>
        <time>2023-04-04T12:37:53.000Z</time>
      </trkpt>
      <trkpt lat="46.20046" lon="7.28708">
        <ele>517.79998779297</ele>
        <time>2023-04-04T12:37:54.000Z</time>
      </trkpt>
      <trkpt lat="46.20047" lon="7.28714">
        <ele>517.79998779297</ele>
        <time>2023-04-04T12:37:55.000Z</time>
      </trkpt>
      <trkpt lat="46.20048" lon="7.28719">
        <ele>517.79998779297</ele>
        <time>2023-04-04T12:37:56.000Z</time>
      </trkpt>
      <trkpt lat="46.20049" lon="7.28725">
        <ele>517.59997558594</ele>
        <time>2023-04-04T12:37:57.000Z</time>
      </trkpt>
      <trkpt lat="46.2005" lon="7.2873">
        <ele>517.59997558594</ele>
        <time>2023-04-04T12:37:58.000Z</time>
      </trkpt>
      <trkpt lat="46.20051" lon="7.28735">
        <ele>517.59997558594</ele>
        <time>2023-04-04T12:37:59.000Z</time>
      </trkpt>
      <trkpt lat="46.20052" lon="7.28739">
        <ele>517.59997558594</ele>
        <time>2023-04-04T12:38:00.000Z</time>
      </trkpt>
      <trkpt lat="46.20053" lon="7.28744">
        <ele>517.59997558594</ele>
        <time>2023-04-04T12:38:01.000Z</time>
      </trkpt>
      <trkpt lat="46.20054" lon="7.28748">
        <ele>517.79998779297</ele>
        <time>2023-04-04T12:38:02.000Z</time>
      </trkpt>
      <trkpt lat="46.20055" lon="7.28752">
        <ele>517.79998779297</ele>
        <time>2023-04-04T12:38:03.000Z</time>
      </trkpt>
      <trkpt lat="46.20056" lon="7.28756">
        <ele>518</ele>
        <time>2023-04-04T12:38:04.000Z</time>
      </trkpt>
      <trkpt lat="46.20057" lon="7.28765">
        <ele>518.20001220703</ele>
        <time>2023-04-04T12:38:06.000Z</time>
      </trkpt>
      <trkpt lat="46.20057" lon="7.28776">
        <ele>518.40002441406</ele>
        <time>2023-04-04T12:38:08.000Z</time>
      </trkpt>
      <trkpt lat="46.20057" lon="7.28782">
        <ele>518.40002441406</ele>
        <time>2023-04-04T12:38:09.000Z</time>
      </trkpt>
      <trkpt lat="46.20061" lon="7.28807">
        <ele>518.59997558594</ele>
        <time>2023-04-04T12:38:13.000Z</time>
      </trkpt>
      <trkpt lat="46.20062" lon="7.28813">
        <ele>518.59997558594</ele>
        <time>2023-04-04T12:38:14.000Z</time>
      </trkpt>
      <trkpt lat="46.2007" lon="7.28858">
        <ele>518.20001220703</ele>
        <time>2023-04-04T12:38:21.000Z</time>
      </trkpt>
      <trkpt lat="46.20073" lon="7.28879">
        <ele>518.20001220703</ele>
        <time>2023-04-04T12:38:24.000Z</time>
      </trkpt>
      <trkpt lat="46.20079" lon="7.2892">
        <ele>518.20001220703</ele>
        <time>2023-04-04T12:38:30.000Z</time>
      </trkpt>
      <trkpt lat="46.20091" lon="7.28988">
        <ele>518.20001220703</ele>
        <time>2023-04-04T12:38:40.000Z</time>
      </trkpt>
      <trkpt lat="46.20098" lon="7.29029">
        <ele>518.20001220703</ele>
        <time>2023-04-04T12:38:46.000Z</time>
      </trkpt>
      <trkpt lat="46.20101" lon="7.2905">
        <ele>518</ele>
        <time>2023-04-04T12:38:49.000Z</time>
      </trkpt>
      <trkpt lat="46.20111" lon="7.29112">
        <ele>518</ele>
        <time>2023-04-04T12:38:58.000Z</time>
      </trkpt>
      <trkpt lat="46.20122" lon="7.29183">
        <ele>518.20001220703</ele>
        <time>2023-04-04T12:39:08.000Z</time>
      </trkpt>
      <trkpt lat="46.20132" lon="7.29247">
        <ele>518.20001220703</ele>
        <time>2023-04-04T12:39:17.000Z</time>
      </trkpt>
      <trkpt lat="46.20143" lon="7.29312">
        <ele>518</ele>
        <time>2023-04-04T12:39:26.000Z</time>
      </trkpt>
      <trkpt lat="46.20145" lon="7.29334">
        <ele>518</ele>
        <time>2023-04-04T12:39:29.000Z</time>
      </trkpt>
      <trkpt lat="46.20146" lon="7.29341">
        <ele>518</ele>
        <time>2023-04-04T12:39:30.000Z</time>
      </trkpt>
      <trkpt lat="46.20153" lon="7.29386">
        <ele>518.40002441406</ele>
        <time>2023-04-04T12:39:36.000Z</time>
      </trkpt>
      <trkpt lat="46.20159" lon="7.29415">
        <ele>518.59997558594</ele>
        <time>2023-04-04T12:39:40.000Z</time>
      </trkpt>
      <trkpt lat="46.20164" lon="7.29437">
        <ele>518.59997558594</ele>
        <time>2023-04-04T12:39:43.000Z</time>
      </trkpt>
      <trkpt lat="46.20169" lon="7.29459">
        <ele>518.40002441406</ele>
        <time>2023-04-04T12:39:46.000Z</time>
      </trkpt>
      <trkpt lat="46.20177" lon="7.29488">
        <ele>518.59997558594</ele>
        <time>2023-04-04T12:39:50.000Z</time>
      </trkpt>
      <trkpt lat="46.20183" lon="7.29509">
        <ele>518.40002441406</ele>
        <time>2023-04-04T12:39:53.000Z</time>
      </trkpt>
      <trkpt lat="46.20185" lon="7.29515">
        <ele>518.40002441406</ele>
        <time>2023-04-04T12:39:54.000Z</time>
      </trkpt>
      <trkpt lat="46.20186" lon="7.29522">
        <ele>518.59997558594</ele>
        <time>2023-04-04T12:39:55.000Z</time>
      </trkpt>
      <trkpt lat="46.20187" lon="7.29528">
        <ele>518.59997558594</ele>
        <time>2023-04-04T12:39:56.000Z</time>
      </trkpt>
      <trkpt lat="46.20189" lon="7.29535">
        <ele>518.79998779297</ele>
        <time>2023-04-04T12:39:57.000Z</time>
      </trkpt>
      <trkpt lat="46.20191" lon="7.29542">
        <ele>518.79998779297</ele>
        <time>2023-04-04T12:39:58.000Z</time>
      </trkpt>
      <trkpt lat="46.20193" lon="7.2955">
        <ele>518.79998779297</ele>
        <time>2023-04-04T12:39:59.000Z</time>
      </trkpt>
      <trkpt lat="46.20199" lon="7.2957">
        <ele>519</ele>
        <time>2023-04-04T12:40:02.000Z</time>
      </trkpt>
      <trkpt lat="46.20201" lon="7.29577">
        <ele>519.20001220703</ele>
        <time>2023-04-04T12:40:03.000Z</time>
      </trkpt>
      <trkpt lat="46.20203" lon="7.29584">
        <ele>519.20001220703</ele>
        <time>2023-04-04T12:40:04.000Z</time>
      </trkpt>
      <trkpt lat="46.20205" lon="7.2959">
        <ele>519.20001220703</ele>
        <time>2023-04-04T12:40:05.000Z</time>
      </trkpt>
      <trkpt lat="46.20208" lon="7.29597">
        <ele>519.20001220703</ele>
        <time>2023-04-04T12:40:06.000Z</time>
      </trkpt>
      <trkpt lat="46.2021" lon="7.29604">
        <ele>519.40002441406</ele>
        <time>2023-04-04T12:40:07.000Z</time>
      </trkpt>
      <trkpt lat="46.20214" lon="7.29617">
        <ele>519.40002441406</ele>
        <time>2023-04-04T12:40:09.000Z</time>
      </trkpt>
      <trkpt lat="46.20218" lon="7.2963">
        <ele>519.40002441406</ele>
        <time>2023-04-04T12:40:11.000Z</time>
      </trkpt>
      <trkpt lat="46.20222" lon="7.29644">
        <ele>519.40002441406</ele>
        <time>2023-04-04T12:40:13.000Z</time>
      </trkpt>
      <trkpt lat="46.20238" lon="7.29688">
        <ele>519.79998779297</ele>
        <time>2023-04-04T12:40:20.000Z</time>
      </trkpt>
      <trkpt lat="46.20242" lon="7.29699">
        <ele>519.79998779297</ele>
        <time>2023-04-04T12:40:22.000Z</time>
      </trkpt>
      <trkpt lat="46.20245" lon="7.29704">
        <ele>519.79998779297</ele>
        <time>2023-04-04T12:40:23.000Z</time>
      </trkpt>
      <trkpt lat="46.20248" lon="7.29709">
        <ele>519.79998779297</ele>
        <time>2023-04-04T12:40:24.000Z</time>
      </trkpt>
      <trkpt lat="46.2025" lon="7.29714">
        <ele>519.79998779297</ele>
        <time>2023-04-04T12:40:25.000Z</time>
      </trkpt>
      <trkpt lat="46.20253" lon="7.2972">
        <ele>519.79998779297</ele>
        <time>2023-04-04T12:40:26.000Z</time>
      </trkpt>
      <trkpt lat="46.20255" lon="7.29726">
        <ele>519.79998779297</ele>
        <time>2023-04-04T12:40:27.000Z</time>
      </trkpt>
      <trkpt lat="46.20257" lon="7.29733">
        <ele>519.79998779297</ele>
        <time>2023-04-04T12:40:28.000Z</time>
      </trkpt>
      <trkpt lat="46.2026" lon="7.2974">
        <ele>519.79998779297</ele>
        <time>2023-04-04T12:40:29.000Z</time>
      </trkpt>
      <trkpt lat="46.20265" lon="7.29753">
        <ele>519.79998779297</ele>
        <time>2023-04-04T12:40:31.000Z</time>
      </trkpt>
      <trkpt lat="46.20288" lon="7.29811">
        <ele>520.20001220703</ele>
        <time>2023-04-04T12:40:40.000Z</time>
      </trkpt>
      <trkpt lat="46.2031" lon="7.29863">
        <ele>520.40002441406</ele>
        <time>2023-04-04T12:40:48.000Z</time>
      </trkpt>
      <trkpt lat="46.20317" lon="7.2988">
        <ele>520.40002441406</ele>
        <time>2023-04-04T12:40:51.000Z</time>
      </trkpt>
      <trkpt lat="46.2032" lon="7.29885">
        <ele>520.40002441406</ele>
        <time>2023-04-04T12:40:52.000Z</time>
      </trkpt>
      <trkpt lat="46.20322" lon="7.29891">
        <ele>520.40002441406</ele>
        <time>2023-04-04T12:40:53.000Z</time>
      </trkpt>
      <trkpt lat="46.20324" lon="7.29897">
        <ele>520.40002441406</ele>
        <time>2023-04-04T12:40:54.000Z</time>
      </trkpt>
      <trkpt lat="46.20327" lon="7.29903">
        <ele>520.40002441406</ele>
        <time>2023-04-04T12:40:55.000Z</time>
      </trkpt>
      <trkpt lat="46.20329" lon="7.29909">
        <ele>520.40002441406</ele>
        <time>2023-04-04T12:40:56.000Z</time>
      </trkpt>
      <trkpt lat="46.20331" lon="7.29915">
        <ele>520.40002441406</ele>
        <time>2023-04-04T12:40:57.000Z</time>
      </trkpt>
      <trkpt lat="46.2036" lon="7.29983">
        <ele>519.79998779297</ele>
        <time>2023-04-04T12:41:08.000Z</time>
      </trkpt>
      <trkpt lat="46.20381" lon="7.30033">
        <ele>519.79998779297</ele>
        <time>2023-04-04T12:41:16.000Z</time>
      </trkpt>
      <trkpt lat="46.2041" lon="7.30095">
        <ele>520.20001220703</ele>
        <time>2023-04-04T12:41:26.000Z</time>
      </trkpt>
      <trkpt lat="46.20428" lon="7.3013">
        <ele>520.40002441406</ele>
        <time>2023-04-04T12:41:32.000Z</time>
      </trkpt>
      <trkpt lat="46.20431" lon="7.30135">
        <ele>520.40002441406</ele>
        <time>2023-04-04T12:41:33.000Z</time>
      </trkpt>
      <trkpt lat="46.20434" lon="7.30141">
        <ele>520.40002441406</ele>
        <time>2023-04-04T12:41:34.000Z</time>
      </trkpt>
      <trkpt lat="46.20437" lon="7.30147">
        <ele>520.59997558594</ele>
        <time>2023-04-04T12:41:35.000Z</time>
      </trkpt>
      <trkpt lat="46.2044" lon="7.30152">
        <ele>520.59997558594</ele>
        <time>2023-04-04T12:41:36.000Z</time>
      </trkpt>
      <trkpt lat="46.20443" lon="7.30158">
        <ele>520.79998779297</ele>
        <time>2023-04-04T12:41:37.000Z</time>
      </trkpt>
      <trkpt lat="46.20446" lon="7.30163">
        <ele>520.79998779297</ele>
        <time>2023-04-04T12:41:38.000Z</time>
      </trkpt>
      <trkpt lat="46.20449" lon="7.30168">
        <ele>520.79998779297</ele>
        <time>2023-04-04T12:41:39.000Z</time>
      </trkpt>
      <trkpt lat="46.20452" lon="7.30174">
        <ele>521</ele>
        <time>2023-04-04T12:41:40.000Z</time>
      </trkpt>
      <trkpt lat="46.20455" lon="7.30179">
        <ele>521</ele>
        <time>2023-04-04T12:41:41.000Z</time>
      </trkpt>
      <trkpt lat="46.20458" lon="7.30184">
        <ele>521</ele>
        <time>2023-04-04T12:41:42.000Z</time>
      </trkpt>
      <trkpt lat="46.2046" lon="7.3019">
        <ele>521</ele>
        <time>2023-04-04T12:41:43.000Z</time>
      </trkpt>
      <trkpt lat="46.20463" lon="7.30195">
        <ele>521</ele>
        <time>2023-04-04T12:41:44.000Z</time>
      </trkpt>
      <trkpt lat="46.20466" lon="7.302">
        <ele>521.20001220703</ele>
        <time>2023-04-04T12:41:45.000Z</time>
      </trkpt>
      <trkpt lat="46.20469" lon="7.30204">
        <ele>521.20001220703</ele>
        <time>2023-04-04T12:41:46.000Z</time>
      </trkpt>
      <trkpt lat="46.20474" lon="7.30214">
        <ele>521.20001220703</ele>
        <time>2023-04-04T12:41:48.000Z</time>
      </trkpt>
      <trkpt lat="46.20477" lon="7.30218">
        <ele>521.20001220703</ele>
        <time>2023-04-04T12:41:49.000Z</time>
      </trkpt>
      <trkpt lat="46.2048" lon="7.30224">
        <ele>521.40002441406</ele>
        <time>2023-04-04T12:41:50.000Z</time>
      </trkpt>
      <trkpt lat="46.20486" lon="7.30235">
        <ele>521.59997558594</ele>
        <time>2023-04-04T12:41:52.000Z</time>
      </trkpt>
      <trkpt lat="46.20489" lon="7.3024">
        <ele>521.79998779297</ele>
        <time>2023-04-04T12:41:53.000Z</time>
      </trkpt>
      <trkpt lat="46.20492" lon="7.30246">
        <ele>521.79998779297</ele>
        <time>2023-04-04T12:41:54.000Z</time>
      </trkpt>
      <trkpt lat="46.20494" lon="7.30251">
        <ele>522</ele>
        <time>2023-04-04T12:41:55.000Z</time>
      </trkpt>
      <trkpt lat="46.20498" lon="7.30257">
        <ele>522</ele>
        <time>2023-04-04T12:41:56.000Z</time>
      </trkpt>
      <trkpt lat="46.20501" lon="7.30263">
        <ele>522</ele>
        <time>2023-04-04T12:41:57.000Z</time>
      </trkpt>
      <trkpt lat="46.20521" lon="7.30299">
        <ele>522.20001220703</ele>
        <time>2023-04-04T12:42:04.000Z</time>
      </trkpt>
      <trkpt lat="46.20526" lon="7.30307">
        <ele>522.40002441406</ele>
        <time>2023-04-04T12:42:06.000Z</time>
      </trkpt>
      <trkpt lat="46.2053" lon="7.30318">
        <ele>522.40002441406</ele>
        <time>2023-04-04T12:42:08.000Z</time>
      </trkpt>
      <trkpt lat="46.20534" lon="7.30323">
        <ele>522.40002441406</ele>
        <time>2023-04-04T12:42:09.000Z</time>
      </trkpt>
      <trkpt lat="46.20537" lon="7.30328">
        <ele>522.40002441406</ele>
        <time>2023-04-04T12:42:10.000Z</time>
      </trkpt>
      <trkpt lat="46.20541" lon="7.30334">
        <ele>522.40002441406</ele>
        <time>2023-04-04T12:42:11.000Z</time>
      </trkpt>
      <trkpt lat="46.20563" lon="7.30375">
        <ele>522.40002441406</ele>
        <time>2023-04-04T12:42:19.000Z</time>
      </trkpt>
      <trkpt lat="46.20579" lon="7.30403">
        <ele>522.40002441406</ele>
        <time>2023-04-04T12:42:25.000Z</time>
      </trkpt>
      <trkpt lat="46.20584" lon="7.30412">
        <ele>522.40002441406</ele>
        <time>2023-04-04T12:42:27.000Z</time>
      </trkpt>
      <trkpt lat="46.20586" lon="7.30417">
        <ele>522.59997558594</ele>
        <time>2023-04-04T12:42:28.000Z</time>
      </trkpt>
      <trkpt lat="46.20589" lon="7.30422">
        <ele>522.59997558594</ele>
        <time>2023-04-04T12:42:29.000Z</time>
      </trkpt>
      <trkpt lat="46.20591" lon="7.30426">
        <ele>522.59997558594</ele>
        <time>2023-04-04T12:42:30.000Z</time>
      </trkpt>
      <trkpt lat="46.20594" lon="7.3043">
        <ele>522.40002441406</ele>
        <time>2023-04-04T12:42:31.000Z</time>
      </trkpt>
      <trkpt lat="46.20597" lon="7.30434">
        <ele>522.40002441406</ele>
        <time>2023-04-04T12:42:32.000Z</time>
      </trkpt>
      <trkpt lat="46.206" lon="7.30438">
        <ele>522.59997558594</ele>
        <time>2023-04-04T12:42:33.000Z</time>
      </trkpt>
      <trkpt lat="46.20604" lon="7.30443">
        <ele>522.59997558594</ele>
        <time>2023-04-04T12:42:34.000Z</time>
      </trkpt>
      <trkpt lat="46.20618" lon="7.30467">
        <ele>522.59997558594</ele>
        <time>2023-04-04T12:42:39.000Z</time>
      </trkpt>
      <trkpt lat="46.20621" lon="7.30472">
        <ele>522.59997558594</ele>
        <time>2023-04-04T12:42:40.000Z</time>
      </trkpt>
      <trkpt lat="46.20624" lon="7.30478">
        <ele>522.59997558594</ele>
        <time>2023-04-04T12:42:41.000Z</time>
      </trkpt>
      <trkpt lat="46.2063" lon="7.30487">
        <ele>522.59997558594</ele>
        <time>2023-04-04T12:42:43.000Z</time>
      </trkpt>
      <trkpt lat="46.2064" lon="7.30502">
        <ele>522.59997558594</ele>
        <time>2023-04-04T12:42:46.000Z</time>
      </trkpt>
      <trkpt lat="46.20644" lon="7.30506">
        <ele>522.59997558594</ele>
        <time>2023-04-04T12:42:47.000Z</time>
      </trkpt>
      <trkpt lat="46.20671" lon="7.30544">
        <ele>522.59997558594</ele>
        <time>2023-04-04T12:42:55.000Z</time>
      </trkpt>
      <trkpt lat="46.20683" lon="7.30562">
        <ele>522.40002441406</ele>
        <time>2023-04-04T12:42:59.000Z</time>
      </trkpt>
      <trkpt lat="46.20686" lon="7.30566">
        <ele>522.40002441406</ele>
        <time>2023-04-04T12:43:00.000Z</time>
      </trkpt>
      <trkpt lat="46.20688" lon="7.30571">
        <ele>522.40002441406</ele>
        <time>2023-04-04T12:43:01.000Z</time>
      </trkpt>
      <trkpt lat="46.20691" lon="7.30575">
        <ele>522.20001220703</ele>
        <time>2023-04-04T12:43:02.000Z</time>
      </trkpt>
      <trkpt lat="46.20694" lon="7.3058">
        <ele>522.20001220703</ele>
        <time>2023-04-04T12:43:03.000Z</time>
      </trkpt>
      <trkpt lat="46.20697" lon="7.30584">
        <ele>522.20001220703</ele>
        <time>2023-04-04T12:43:04.000Z</time>
      </trkpt>
      <trkpt lat="46.207" lon="7.30589">
        <ele>522.20001220703</ele>
        <time>2023-04-04T12:43:05.000Z</time>
      </trkpt>
      <trkpt lat="46.20702" lon="7.30593">
        <ele>522.20001220703</ele>
        <time>2023-04-04T12:43:06.000Z</time>
      </trkpt>
      <trkpt lat="46.20705" lon="7.30598">
        <ele>522.20001220703</ele>
        <time>2023-04-04T12:43:07.000Z</time>
      </trkpt>
      <trkpt lat="46.20708" lon="7.30603">
        <ele>522.20001220703</ele>
        <time>2023-04-04T12:43:08.000Z</time>
      </trkpt>
      <trkpt lat="46.20711" lon="7.30608">
        <ele>522.20001220703</ele>
        <time>2023-04-04T12:43:09.000Z</time>
      </trkpt>
      <trkpt lat="46.20722" lon="7.30627">
        <ele>522.40002441406</ele>
        <time>2023-04-04T12:43:13.000Z</time>
      </trkpt>
      <trkpt lat="46.20734" lon="7.30646">
        <ele>522.79998779297</ele>
        <time>2023-04-04T12:43:17.000Z</time>
      </trkpt>
      <trkpt lat="46.20752" lon="7.30674">
        <ele>522.79998779297</ele>
        <time>2023-04-04T12:43:23.000Z</time>
      </trkpt>
      <trkpt lat="46.20754" lon="7.30678">
        <ele>522.79998779297</ele>
        <time>2023-04-04T12:43:24.000Z</time>
      </trkpt>
      <trkpt lat="46.20757" lon="7.30682">
        <ele>522.79998779297</ele>
        <time>2023-04-04T12:43:25.000Z</time>
      </trkpt>
      <trkpt lat="46.20763" lon="7.30691">
        <ele>522.79998779297</ele>
        <time>2023-04-04T12:43:27.000Z</time>
      </trkpt>
      <trkpt lat="46.20769" lon="7.30701">
        <ele>522.79998779297</ele>
        <time>2023-04-04T12:43:29.000Z</time>
      </trkpt>
      <trkpt lat="46.20795" lon="7.3074">
        <ele>523</ele>
        <time>2023-04-04T12:43:37.000Z</time>
      </trkpt>
      <trkpt lat="46.20798" lon="7.30745">
        <ele>523</ele>
        <time>2023-04-04T12:43:38.000Z</time>
      </trkpt>
      <trkpt lat="46.20801" lon="7.30748">
        <ele>523.20001220703</ele>
        <time>2023-04-04T12:43:39.000Z</time>
      </trkpt>
      <trkpt lat="46.20808" lon="7.30757">
        <ele>523.20001220703</ele>
        <time>2023-04-04T12:43:41.000Z</time>
      </trkpt>
      <trkpt lat="46.20814" lon="7.30768">
        <ele>523.20001220703</ele>
        <time>2023-04-04T12:43:43.000Z</time>
      </trkpt>
      <trkpt lat="46.20817" lon="7.30773">
        <ele>523.20001220703</ele>
        <time>2023-04-04T12:43:44.000Z</time>
      </trkpt>
      <trkpt lat="46.2082" lon="7.30777">
        <ele>523.20001220703</ele>
        <time>2023-04-04T12:43:45.000Z</time>
      </trkpt>
      <trkpt lat="46.20822" lon="7.30781">
        <ele>523.20001220703</ele>
        <time>2023-04-04T12:43:46.000Z</time>
      </trkpt>
      <trkpt lat="46.20825" lon="7.30785">
        <ele>523.20001220703</ele>
        <time>2023-04-04T12:43:47.000Z</time>
      </trkpt>
      <trkpt lat="46.20828" lon="7.30789">
        <ele>523.20001220703</ele>
        <time>2023-04-04T12:43:48.000Z</time>
      </trkpt>
      <trkpt lat="46.20831" lon="7.30793">
        <ele>523.20001220703</ele>
        <time>2023-04-04T12:43:49.000Z</time>
      </trkpt>
      <trkpt lat="46.2084" lon="7.30807">
        <ele>523.40002441406</ele>
        <time>2023-04-04T12:43:52.000Z</time>
      </trkpt>
      <trkpt lat="46.20843" lon="7.30812">
        <ele>523.40002441406</ele>
        <time>2023-04-04T12:43:53.000Z</time>
      </trkpt>
      <trkpt lat="46.20867" lon="7.3085">
        <ele>523.40002441406</ele>
        <time>2023-04-04T12:44:01.000Z</time>
      </trkpt>
      <trkpt lat="46.2087" lon="7.30853">
        <ele>523.40002441406</ele>
        <time>2023-04-04T12:44:02.000Z</time>
      </trkpt>
      <trkpt lat="46.20873" lon="7.30855">
        <ele>523.40002441406</ele>
        <time>2023-04-04T12:44:03.000Z</time>
      </trkpt>
      <trkpt lat="46.2088" lon="7.30859">
        <ele>523.40002441406</ele>
        <time>2023-04-04T12:44:05.000Z</time>
      </trkpt>
      <trkpt lat="46.20883" lon="7.30861">
        <ele>523.40002441406</ele>
        <time>2023-04-04T12:44:06.000Z</time>
      </trkpt>
      <trkpt lat="46.20886" lon="7.30863">
        <ele>523.59997558594</ele>
        <time>2023-04-04T12:44:07.000Z</time>
      </trkpt>
      <trkpt lat="46.20896" lon="7.30869">
        <ele>523.59997558594</ele>
        <time>2023-04-04T12:44:10.000Z</time>
      </trkpt>
      <trkpt lat="46.20899" lon="7.30872">
        <ele>523.59997558594</ele>
        <time>2023-04-04T12:44:11.000Z</time>
      </trkpt>
      <trkpt lat="46.20902" lon="7.30875">
        <ele>523.59997558594</ele>
        <time>2023-04-04T12:44:12.000Z</time>
      </trkpt>
      <trkpt lat="46.20904" lon="7.30877">
        <ele>523.59997558594</ele>
        <time>2023-04-04T12:44:13.000Z</time>
      </trkpt>
      <trkpt lat="46.20905" lon="7.3088">
        <ele>523.59997558594</ele>
        <time>2023-04-04T12:44:14.000Z</time>
      </trkpt>
      <trkpt lat="46.20906" lon="7.30883">
        <ele>523.59997558594</ele>
        <time>2023-04-04T12:44:15.000Z</time>
      </trkpt>
      <trkpt lat="46.20906" lon="7.30886">
        <ele>523.59997558594</ele>
        <time>2023-04-04T12:44:16.000Z</time>
      </trkpt>
      <trkpt lat="46.20906" lon="7.30888">
        <ele>523.59997558594</ele>
        <time>2023-04-04T12:44:17.000Z</time>
      </trkpt>
      <trkpt lat="46.20906" lon="7.30888">
        <ele>523.59997558594</ele>
        <time>2023-04-04T12:44:18.000Z</time>
      </trkpt>
      <trkpt lat="46.20906" lon="7.30888">
        <ele>523.59997558594</ele>
        <time>2023-04-04T12:44:19.000Z</time>
      </trkpt>
      <trkpt lat="46.20906" lon="7.30891">
        <ele>521.79998779297</ele>
        <time>2023-04-04T12:46:09.000Z</time>
      </trkpt>
      <trkpt lat="46.20906" lon="7.30893">
        <ele>521.79998779297</ele>
        <time>2023-04-04T12:46:10.000Z</time>
      </trkpt>
      <trkpt lat="46.20906" lon="7.30913">
        <ele>521.40002441406</ele>
        <time>2023-04-04T12:46:15.000Z</time>
      </trkpt>
      <trkpt lat="46.20908" lon="7.30917">
        <ele>521.20001220703</ele>
        <time>2023-04-04T12:46:16.000Z</time>
      </trkpt>
      <trkpt lat="46.20909" lon="7.30922">
        <ele>521.20001220703</ele>
        <time>2023-04-04T12:46:17.000Z</time>
      </trkpt>
      <trkpt lat="46.20911" lon="7.30926">
        <ele>521.20001220703</ele>
        <time>2023-04-04T12:46:18.000Z</time>
      </trkpt>
      <trkpt lat="46.20918" lon="7.3094">
        <ele>521</ele>
        <time>2023-04-04T12:46:21.000Z</time>
      </trkpt>
      <trkpt lat="46.20921" lon="7.30944">
        <ele>521</ele>
        <time>2023-04-04T12:46:22.000Z</time>
      </trkpt>
      <trkpt lat="46.20939" lon="7.30978">
        <ele>521</ele>
        <time>2023-04-04T12:46:29.000Z</time>
      </trkpt>
      <trkpt lat="46.20968" lon="7.31034">
        <ele>521.40002441406</ele>
        <time>2023-04-04T12:46:40.000Z</time>
      </trkpt>
      <trkpt lat="46.2098" lon="7.3106">
        <ele>521.20001220703</ele>
        <time>2023-04-04T12:46:45.000Z</time>
      </trkpt>
      <trkpt lat="46.20982" lon="7.31065">
        <ele>521.20001220703</ele>
        <time>2023-04-04T12:46:46.000Z</time>
      </trkpt>
      <trkpt lat="46.20985" lon="7.3107">
        <ele>521.20001220703</ele>
        <time>2023-04-04T12:46:47.000Z</time>
      </trkpt>
      <trkpt lat="46.20987" lon="7.31075">
        <ele>521.20001220703</ele>
        <time>2023-04-04T12:46:48.000Z</time>
      </trkpt>
      <trkpt lat="46.20989" lon="7.31081">
        <ele>521.20001220703</ele>
        <time>2023-04-04T12:46:49.000Z</time>
      </trkpt>
      <trkpt lat="46.2099" lon="7.31086">
        <ele>521.40002441406</ele>
        <time>2023-04-04T12:46:50.000Z</time>
      </trkpt>
      <trkpt lat="46.20997" lon="7.31108">
        <ele>521.40002441406</ele>
        <time>2023-04-04T12:46:54.000Z</time>
      </trkpt>
      <trkpt lat="46.20999" lon="7.31113">
        <ele>521.40002441406</ele>
        <time>2023-04-04T12:46:55.000Z</time>
      </trkpt>
      <trkpt lat="46.21001" lon="7.31118">
        <ele>521.40002441406</ele>
        <time>2023-04-04T12:46:56.000Z</time>
      </trkpt>
      <trkpt lat="46.21021" lon="7.31172">
        <ele>521.59997558594</ele>
        <time>2023-04-04T12:47:06.000Z</time>
      </trkpt>
      <trkpt lat="46.21035" lon="7.31217">
        <ele>521.40002441406</ele>
        <time>2023-04-04T12:47:14.000Z</time>
      </trkpt>
      <trkpt lat="46.21043" lon="7.31252">
        <ele>521.59997558594</ele>
        <time>2023-04-04T12:47:20.000Z</time>
      </trkpt>
      <trkpt lat="46.21046" lon="7.3127">
        <ele>521.79998779297</ele>
        <time>2023-04-04T12:47:23.000Z</time>
      </trkpt>
      <trkpt lat="46.21047" lon="7.31276">
        <ele>521.79998779297</ele>
        <time>2023-04-04T12:47:24.000Z</time>
      </trkpt>
      <trkpt lat="46.21048" lon="7.31282">
        <ele>521.79998779297</ele>
        <time>2023-04-04T12:47:25.000Z</time>
      </trkpt>
      <trkpt lat="46.21049" lon="7.31288">
        <ele>521.59997558594</ele>
        <time>2023-04-04T12:47:26.000Z</time>
      </trkpt>
      <trkpt lat="46.21049" lon="7.31294">
        <ele>522</ele>
        <time>2023-04-04T12:47:27.000Z</time>
      </trkpt>
      <trkpt lat="46.2105" lon="7.31299">
        <ele>522</ele>
        <time>2023-04-04T12:47:28.000Z</time>
      </trkpt>
      <trkpt lat="46.2105" lon="7.31305">
        <ele>522</ele>
        <time>2023-04-04T12:47:29.000Z</time>
      </trkpt>
      <trkpt lat="46.21051" lon="7.31311">
        <ele>522.20001220703</ele>
        <time>2023-04-04T12:47:30.000Z</time>
      </trkpt>
      <trkpt lat="46.21051" lon="7.31317">
        <ele>522.20001220703</ele>
        <time>2023-04-04T12:47:31.000Z</time>
      </trkpt>
      <trkpt lat="46.21051" lon="7.31322">
        <ele>522.40002441406</ele>
        <time>2023-04-04T12:47:32.000Z</time>
      </trkpt>
      <trkpt lat="46.21052" lon="7.31328">
        <ele>522.40002441406</ele>
        <time>2023-04-04T12:47:33.000Z</time>
      </trkpt>
      <trkpt lat="46.21054" lon="7.31339">
        <ele>522.59997558594</ele>
        <time>2023-04-04T12:47:35.000Z</time>
      </trkpt>
      <trkpt lat="46.21054" lon="7.31344">
        <ele>522.59997558594</ele>
        <time>2023-04-04T12:47:36.000Z</time>
      </trkpt>
      <trkpt lat="46.21055" lon="7.31349">
        <ele>522.59997558594</ele>
        <time>2023-04-04T12:47:37.000Z</time>
      </trkpt>
      <trkpt lat="46.21056" lon="7.31354">
        <ele>522.79998779297</ele>
        <time>2023-04-04T12:47:38.000Z</time>
      </trkpt>
      <trkpt lat="46.21056" lon="7.31359">
        <ele>522.79998779297</ele>
        <time>2023-04-04T12:47:39.000Z</time>
      </trkpt>
      <trkpt lat="46.21057" lon="7.31363">
        <ele>522.79998779297</ele>
        <time>2023-04-04T12:47:40.000Z</time>
      </trkpt>
      <trkpt lat="46.21057" lon="7.31367">
        <ele>522.79998779297</ele>
        <time>2023-04-04T12:47:41.000Z</time>
      </trkpt>
      <trkpt lat="46.21058" lon="7.3137">
        <ele>523</ele>
        <time>2023-04-04T12:47:42.000Z</time>
      </trkpt>
      <trkpt lat="46.21058" lon="7.31374">
        <ele>523</ele>
        <time>2023-04-04T12:47:43.000Z</time>
      </trkpt>
      <trkpt lat="46.21059" lon="7.31377">
        <ele>523</ele>
        <time>2023-04-04T12:47:44.000Z</time>
      </trkpt>
      <trkpt lat="46.2106" lon="7.31379">
        <ele>523</ele>
        <time>2023-04-04T12:47:45.000Z</time>
      </trkpt>
      <trkpt lat="46.2106" lon="7.31382">
        <ele>523.20001220703</ele>
        <time>2023-04-04T12:47:46.000Z</time>
      </trkpt>
      <trkpt lat="46.2106" lon="7.31382">
        <ele>523.40002441406</ele>
        <time>2023-04-04T12:47:47.000Z</time>
      </trkpt>
      <trkpt lat="46.2106" lon="7.31382">
        <ele>523.59997558594</ele>
        <time>2023-04-04T12:47:48.000Z</time>
      </trkpt>
      <trkpt lat="46.21061" lon="7.31385">
        <ele>525</ele>
        <time>2023-04-04T12:48:08.000Z</time>
      </trkpt>
      <trkpt lat="46.21062" lon="7.31412">
        <ele>524.79998779297</ele>
        <time>2023-04-04T12:48:15.000Z</time>
      </trkpt>
      <trkpt lat="46.2106" lon="7.31447">
        <ele>524</ele>
        <time>2023-04-04T12:48:21.000Z</time>
      </trkpt>
      <trkpt lat="46.2106" lon="7.31452">
        <ele>523.59997558594</ele>
        <time>2023-04-04T12:48:22.000Z</time>
      </trkpt>
      <trkpt lat="46.2106" lon="7.31497">
        <ele>522.79998779297</ele>
        <time>2023-04-04T12:48:29.000Z</time>
      </trkpt>
      <trkpt lat="46.21059" lon="7.31529">
        <ele>522.59997558594</ele>
        <time>2023-04-04T12:48:34.000Z</time>
      </trkpt>
      <trkpt lat="46.2106" lon="7.31555">
        <ele>522.59997558594</ele>
        <time>2023-04-04T12:48:38.000Z</time>
      </trkpt>
      <trkpt lat="46.21063" lon="7.31616">
        <ele>522.59997558594</ele>
        <time>2023-04-04T12:48:47.000Z</time>
      </trkpt>
      <trkpt lat="46.21064" lon="7.31642">
        <ele>522.79998779297</ele>
        <time>2023-04-04T12:48:51.000Z</time>
      </trkpt>
      <trkpt lat="46.21065" lon="7.31648">
        <ele>522.79998779297</ele>
        <time>2023-04-04T12:48:52.000Z</time>
      </trkpt>
      <trkpt lat="46.21065" lon="7.31655">
        <ele>522.79998779297</ele>
        <time>2023-04-04T12:48:53.000Z</time>
      </trkpt>
      <trkpt lat="46.21066" lon="7.31674">
        <ele>523</ele>
        <time>2023-04-04T12:48:56.000Z</time>
      </trkpt>
      <trkpt lat="46.21066" lon="7.3168">
        <ele>523</ele>
        <time>2023-04-04T12:48:57.000Z</time>
      </trkpt>
      <trkpt lat="46.21066" lon="7.31687">
        <ele>523.20001220703</ele>
        <time>2023-04-04T12:48:58.000Z</time>
      </trkpt>
      <trkpt lat="46.21066" lon="7.31693">
        <ele>523.20001220703</ele>
        <time>2023-04-04T12:48:59.000Z</time>
      </trkpt>
      <trkpt lat="46.21068" lon="7.31719">
        <ele>523</ele>
        <time>2023-04-04T12:49:03.000Z</time>
      </trkpt>
      <trkpt lat="46.21068" lon="7.31732">
        <ele>523</ele>
        <time>2023-04-04T12:49:05.000Z</time>
      </trkpt>
      <trkpt lat="46.21069" lon="7.31757">
        <ele>523</ele>
        <time>2023-04-04T12:49:09.000Z</time>
      </trkpt>
      <trkpt lat="46.2107" lon="7.31783">
        <ele>522.79998779297</ele>
        <time>2023-04-04T12:49:13.000Z</time>
      </trkpt>
      <trkpt lat="46.21071" lon="7.31809">
        <ele>523.20001220703</ele>
        <time>2023-04-04T12:49:17.000Z</time>
      </trkpt>
      <trkpt lat="46.21072" lon="7.31842">
        <ele>523.20001220703</ele>
        <time>2023-04-04T12:49:22.000Z</time>
      </trkpt>
      <trkpt lat="46.21072" lon="7.31902">
        <ele>523</ele>
        <time>2023-04-04T12:49:31.000Z</time>
      </trkpt>
      <trkpt lat="46.21073" lon="7.31935">
        <ele>523</ele>
        <time>2023-04-04T12:49:36.000Z</time>
      </trkpt>
      <trkpt lat="46.21074" lon="7.31961">
        <ele>523</ele>
        <time>2023-04-04T12:49:40.000Z</time>
      </trkpt>
      <trkpt lat="46.21075" lon="7.3198">
        <ele>523</ele>
        <time>2023-04-04T12:49:43.000Z</time>
      </trkpt>
      <trkpt lat="46.21075" lon="7.31986">
        <ele>523</ele>
        <time>2023-04-04T12:49:44.000Z</time>
      </trkpt>
      <trkpt lat="46.21076" lon="7.31992">
        <ele>523.20001220703</ele>
        <time>2023-04-04T12:49:45.000Z</time>
      </trkpt>
      <trkpt lat="46.21076" lon="7.31999">
        <ele>523.20001220703</ele>
        <time>2023-04-04T12:49:46.000Z</time>
      </trkpt>
      <trkpt lat="46.21076" lon="7.32005">
        <ele>523.20001220703</ele>
        <time>2023-04-04T12:49:47.000Z</time>
      </trkpt>
      <trkpt lat="46.21077" lon="7.32012">
        <ele>523.40002441406</ele>
        <time>2023-04-04T12:49:48.000Z</time>
      </trkpt>
      <trkpt lat="46.21082" lon="7.32065">
        <ele>523.40002441406</ele>
        <time>2023-04-04T12:49:56.000Z</time>
      </trkpt>
      <trkpt lat="46.21082" lon="7.32138">
        <ele>522.40002441406</ele>
        <time>2023-04-04T12:50:06.000Z</time>
      </trkpt>
      <trkpt lat="46.21079" lon="7.322">
        <ele>522</ele>
        <time>2023-04-04T12:50:14.000Z</time>
      </trkpt>
      <trkpt lat="46.2108" lon="7.32224">
        <ele>521.79998779297</ele>
        <time>2023-04-04T12:50:17.000Z</time>
      </trkpt>
      <trkpt lat="46.21083" lon="7.3226">
        <ele>521.20001220703</ele>
        <time>2023-04-04T12:50:22.000Z</time>
      </trkpt>
      <trkpt lat="46.21083" lon="7.32266">
        <ele>521</ele>
        <time>2023-04-04T12:50:23.000Z</time>
      </trkpt>
      <trkpt lat="46.21083" lon="7.32272">
        <ele>521</ele>
        <time>2023-04-04T12:50:24.000Z</time>
      </trkpt>
      <trkpt lat="46.21084" lon="7.32276">
        <ele>521</ele>
        <time>2023-04-04T12:50:25.000Z</time>
      </trkpt>
      <trkpt lat="46.21084" lon="7.32281">
        <ele>520.79998779297</ele>
        <time>2023-04-04T12:50:26.000Z</time>
      </trkpt>
      <trkpt lat="46.21084" lon="7.32285">
        <ele>520.79998779297</ele>
        <time>2023-04-04T12:50:27.000Z</time>
      </trkpt>
      <trkpt lat="46.21083" lon="7.32288">
        <ele>520.79998779297</ele>
        <time>2023-04-04T12:50:28.000Z</time>
      </trkpt>
      <trkpt lat="46.21083" lon="7.32292">
        <ele>520.59997558594</ele>
        <time>2023-04-04T12:50:29.000Z</time>
      </trkpt>
      <trkpt lat="46.21082" lon="7.32294">
        <ele>520.59997558594</ele>
        <time>2023-04-04T12:50:30.000Z</time>
      </trkpt>
      <trkpt lat="46.21082" lon="7.32295">
        <ele>520.40002441406</ele>
        <time>2023-04-04T12:50:31.000Z</time>
      </trkpt>
      <trkpt lat="46.21082" lon="7.32295">
        <ele>520.20001220703</ele>
        <time>2023-04-04T12:50:32.000Z</time>
      </trkpt>
      <trkpt lat="46.21082" lon="7.32295">
        <ele>520.20001220703</ele>
        <time>2023-04-04T12:50:33.000Z</time>
      </trkpt>
      <trkpt lat="46.21087" lon="7.32291">
        <ele>520.20001220703</ele>
        <time>2023-04-04T12:50:45.000Z</time>
      </trkpt>
      <trkpt lat="46.21086" lon="7.32286">
        <ele>520.20001220703</ele>
        <time>2023-04-04T12:50:47.000Z</time>
      </trkpt>
      <trkpt lat="46.21085" lon="7.3228">
        <ele>520.20001220703</ele>
        <time>2023-04-04T12:50:49.000Z</time>
      </trkpt>
      <trkpt lat="46.21084" lon="7.32277">
        <ele>520.20001220703</ele>
        <time>2023-04-04T12:50:50.000Z</time>
      </trkpt>
      <trkpt lat="46.21084" lon="7.32272">
        <ele>520.40002441406</ele>
        <time>2023-04-04T12:50:52.000Z</time>
      </trkpt>
      <trkpt lat="46.21083" lon="7.32269">
        <ele>520.40002441406</ele>
        <time>2023-04-04T12:50:53.000Z</time>
      </trkpt>
      <trkpt lat="46.21083" lon="7.32267">
        <ele>520.59997558594</ele>
        <time>2023-04-04T12:50:54.000Z</time>
      </trkpt>
      <trkpt lat="46.21081" lon="7.32263">
        <ele>520.59997558594</ele>
        <time>2023-04-04T12:50:56.000Z</time>
      </trkpt>
      <trkpt lat="46.2108" lon="7.32262">
        <ele>520.79998779297</ele>
        <time>2023-04-04T12:50:57.000Z</time>
      </trkpt>
      <trkpt lat="46.21079" lon="7.32261">
        <ele>520.79998779297</ele>
        <time>2023-04-04T12:50:58.000Z</time>
      </trkpt>
      <trkpt lat="46.21079" lon="7.32261">
        <ele>521</ele>
        <time>2023-04-04T12:50:59.000Z</time>
      </trkpt>
      <trkpt lat="46.21079" lon="7.32261">
        <ele>520.79998779297</ele>
        <time>2023-04-04T12:51:00.000Z</time>
      </trkpt>
      <trkpt lat="46.21064" lon="7.32283">
        <ele>524</ele>
        <time>2023-04-04T12:52:11.000Z</time>
      </trkpt>
      <trkpt lat="46.21062" lon="7.32303">
        <ele>524</ele>
        <time>2023-04-04T12:52:17.000Z</time>
      </trkpt>
      <trkpt lat="46.21061" lon="7.32307">
        <ele>524</ele>
        <time>2023-04-04T12:52:18.000Z</time>
      </trkpt>
      <trkpt lat="46.2106" lon="7.32311">
        <ele>524</ele>
        <time>2023-04-04T12:52:19.000Z</time>
      </trkpt>
      <trkpt lat="46.21057" lon="7.32335">
        <ele>524</ele>
        <time>2023-04-04T12:52:25.000Z</time>
      </trkpt>
      <trkpt lat="46.21053" lon="7.3237">
        <ele>524.20001220703</ele>
        <time>2023-04-04T12:52:34.000Z</time>
      </trkpt>
      <trkpt lat="46.21049" lon="7.32396">
        <ele>524.20001220703</ele>
        <time>2023-04-04T12:52:40.000Z</time>
      </trkpt>
      <trkpt lat="46.21045" lon="7.32433">
        <ele>524.20001220703</ele>
        <time>2023-04-04T12:52:48.000Z</time>
      </trkpt>
      <trkpt lat="46.21041" lon="7.32465">
        <ele>524</ele>
        <time>2023-04-04T12:52:55.000Z</time>
      </trkpt>
      <trkpt lat="46.2104" lon="7.32477">
        <ele>524</ele>
        <time>2023-04-04T12:52:58.000Z</time>
      </trkpt>
      <trkpt lat="46.21039" lon="7.32488">
        <ele>524.20001220703</ele>
        <time>2023-04-04T12:53:01.000Z</time>
      </trkpt>
      <trkpt lat="46.21039" lon="7.32489">
        <ele>524.20001220703</ele>
        <time>2023-04-04T12:53:02.000Z</time>
      </trkpt>
      <trkpt lat="46.21039" lon="7.32489">
        <ele>524.40002441406</ele>
        <time>2023-04-04T12:53:03.000Z</time>
      </trkpt>
      <trkpt lat="46.21037" lon="7.32498">
        <ele>524.79998779297</ele>
        <time>2023-04-04T12:53:07.000Z</time>
      </trkpt>
      <trkpt lat="46.21036" lon="7.32509">
        <ele>524.79998779297</ele>
        <time>2023-04-04T12:53:10.000Z</time>
      </trkpt>
      <trkpt lat="46.21035" lon="7.32525">
        <ele>525</ele>
        <time>2023-04-04T12:53:14.000Z</time>
      </trkpt>
      <trkpt lat="46.21033" lon="7.32539">
        <ele>524.79998779297</ele>
        <time>2023-04-04T12:53:17.000Z</time>
      </trkpt>
      <trkpt lat="46.21031" lon="7.32571">
        <ele>524.40002441406</ele>
        <time>2023-04-04T12:53:24.000Z</time>
      </trkpt>
      <trkpt lat="46.21029" lon="7.326">
        <ele>524</ele>
        <time>2023-04-04T12:53:30.000Z</time>
      </trkpt>
      <trkpt lat="46.21025" lon="7.32629">
        <ele>524</ele>
        <time>2023-04-04T12:53:36.000Z</time>
      </trkpt>
      <trkpt lat="46.21024" lon="7.32657">
        <ele>524.20001220703</ele>
        <time>2023-04-04T12:53:42.000Z</time>
      </trkpt>
      <trkpt lat="46.21024" lon="7.32662">
        <ele>524.20001220703</ele>
        <time>2023-04-04T12:53:43.000Z</time>
      </trkpt>
      <trkpt lat="46.21024" lon="7.32671">
        <ele>524.20001220703</ele>
        <time>2023-04-04T12:53:45.000Z</time>
      </trkpt>
      <trkpt lat="46.21024" lon="7.32675">
        <ele>524.40002441406</ele>
        <time>2023-04-04T12:53:46.000Z</time>
      </trkpt>
      <trkpt lat="46.21024" lon="7.32679">
        <ele>524.40002441406</ele>
        <time>2023-04-04T12:53:47.000Z</time>
      </trkpt>
      <trkpt lat="46.21024" lon="7.32683">
        <ele>524.40002441406</ele>
        <time>2023-04-04T12:53:48.000Z</time>
      </trkpt>
      <trkpt lat="46.21024" lon="7.32687">
        <ele>524.40002441406</ele>
        <time>2023-04-04T12:53:49.000Z</time>
      </trkpt>
      <trkpt lat="46.21024" lon="7.3269">
        <ele>524.40002441406</ele>
        <time>2023-04-04T12:53:50.000Z</time>
      </trkpt>
      <trkpt lat="46.21024" lon="7.32693">
        <ele>524.40002441406</ele>
        <time>2023-04-04T12:53:51.000Z</time>
      </trkpt>
      <trkpt lat="46.21024" lon="7.32696">
        <ele>524.40002441406</ele>
        <time>2023-04-04T12:53:52.000Z</time>
      </trkpt>
      <trkpt lat="46.21025" lon="7.327">
        <ele>524.40002441406</ele>
        <time>2023-04-04T12:53:53.000Z</time>
      </trkpt>
      <trkpt lat="46.21024" lon="7.32708">
        <ele>524.20001220703</ele>
        <time>2023-04-04T12:53:55.000Z</time>
      </trkpt>
      <trkpt lat="46.21027" lon="7.32738">
        <ele>524</ele>
        <time>2023-04-04T12:54:02.000Z</time>
      </trkpt>
      <trkpt lat="46.2103" lon="7.32774">
        <ele>524</ele>
        <time>2023-04-04T12:54:10.000Z</time>
      </trkpt>
      <trkpt lat="46.21031" lon="7.32792">
        <ele>524.59997558594</ele>
        <time>2023-04-04T12:54:14.000Z</time>
      </trkpt>
      <trkpt lat="46.21031" lon="7.32808">
        <ele>524.79998779297</ele>
        <time>2023-04-04T12:54:17.000Z</time>
      </trkpt>
      <trkpt lat="46.21032" lon="7.32844">
        <ele>525</ele>
        <time>2023-04-04T12:54:24.000Z</time>
      </trkpt>
      <trkpt lat="46.21034" lon="7.32869">
        <ele>525.20001220703</ele>
        <time>2023-04-04T12:54:29.000Z</time>
      </trkpt>
      <trkpt lat="46.21035" lon="7.32874">
        <ele>525.20001220703</ele>
        <time>2023-04-04T12:54:30.000Z</time>
      </trkpt>
      <trkpt lat="46.21035" lon="7.32878">
        <ele>525.20001220703</ele>
        <time>2023-04-04T12:54:31.000Z</time>
      </trkpt>
      <trkpt lat="46.21035" lon="7.32884">
        <ele>525.20001220703</ele>
        <time>2023-04-04T12:54:32.000Z</time>
      </trkpt>
      <trkpt lat="46.21035" lon="7.32889">
        <ele>525.20001220703</ele>
        <time>2023-04-04T12:54:33.000Z</time>
      </trkpt>
      <trkpt lat="46.21035" lon="7.32894">
        <ele>525.20001220703</ele>
        <time>2023-04-04T12:54:34.000Z</time>
      </trkpt>
      <trkpt lat="46.21035" lon="7.32899">
        <ele>525.20001220703</ele>
        <time>2023-04-04T12:54:35.000Z</time>
      </trkpt>
      <trkpt lat="46.21036" lon="7.32911">
        <ele>525</ele>
        <time>2023-04-04T12:54:38.000Z</time>
      </trkpt>
      <trkpt lat="46.21036" lon="7.32911">
        <ele>525.20001220703</ele>
        <time>2023-04-04T12:54:39.000Z</time>
      </trkpt>
      <trkpt lat="46.21036" lon="7.32911">
        <ele>525.20001220703</ele>
        <time>2023-04-04T12:54:40.000Z</time>
      </trkpt>
      <trkpt lat="46.21037" lon="7.32916">
        <ele>525.20001220703</ele>
        <time>2023-04-04T12:54:43.000Z</time>
      </trkpt>
      <trkpt lat="46.21039" lon="7.32922">
        <ele>525.20001220703</ele>
        <time>2023-04-04T12:54:45.000Z</time>
      </trkpt>
      <trkpt lat="46.2104" lon="7.32925">
        <ele>525.40002441406</ele>
        <time>2023-04-04T12:54:46.000Z</time>
      </trkpt>
      <trkpt lat="46.21041" lon="7.32934">
        <ele>525.40002441406</ele>
        <time>2023-04-04T12:54:48.000Z</time>
      </trkpt>
      <trkpt lat="46.21042" lon="7.32948">
        <ele>525.59997558594</ele>
        <time>2023-04-04T12:54:51.000Z</time>
      </trkpt>
      <trkpt lat="46.21046" lon="7.32981">
        <ele>525.40002441406</ele>
        <time>2023-04-04T12:54:58.000Z</time>
      </trkpt>
      <trkpt lat="46.21052" lon="7.33007">
        <ele>525.40002441406</ele>
        <time>2023-04-04T12:55:04.000Z</time>
      </trkpt>
      <trkpt lat="46.21052" lon="7.33012">
        <ele>525.40002441406</ele>
        <time>2023-04-04T12:55:05.000Z</time>
      </trkpt>
      <trkpt lat="46.21056" lon="7.33046">
        <ele>525.40002441406</ele>
        <time>2023-04-04T12:55:12.000Z</time>
      </trkpt>
      <trkpt lat="46.2106" lon="7.33072">
        <ele>525.40002441406</ele>
        <time>2023-04-04T12:55:18.000Z</time>
      </trkpt>
      <trkpt lat="46.2106" lon="7.33077">
        <ele>525.40002441406</ele>
        <time>2023-04-04T12:55:19.000Z</time>
      </trkpt>
      <trkpt lat="46.21061" lon="7.33081">
        <ele>525.40002441406</ele>
        <time>2023-04-04T12:55:20.000Z</time>
      </trkpt>
      <trkpt lat="46.21063" lon="7.3309">
        <ele>525.40002441406</ele>
        <time>2023-04-04T12:55:22.000Z</time>
      </trkpt>
      <trkpt lat="46.21067" lon="7.33103">
        <ele>525.40002441406</ele>
        <time>2023-04-04T12:55:25.000Z</time>
      </trkpt>
      <trkpt lat="46.21074" lon="7.33135">
        <ele>525.40002441406</ele>
        <time>2023-04-04T12:55:32.000Z</time>
      </trkpt>
      <trkpt lat="46.21079" lon="7.33156">
        <ele>525.59997558594</ele>
        <time>2023-04-04T12:55:37.000Z</time>
      </trkpt>
      <trkpt lat="46.21082" lon="7.33164">
        <ele>525.59997558594</ele>
        <time>2023-04-04T12:55:39.000Z</time>
      </trkpt>
      <trkpt lat="46.21083" lon="7.33168">
        <ele>525.59997558594</ele>
        <time>2023-04-04T12:55:40.000Z</time>
      </trkpt>
      <trkpt lat="46.21084" lon="7.33172">
        <ele>525.79998779297</ele>
        <time>2023-04-04T12:55:41.000Z</time>
      </trkpt>
      <trkpt lat="46.21085" lon="7.33176">
        <ele>525.79998779297</ele>
        <time>2023-04-04T12:55:42.000Z</time>
      </trkpt>
      <trkpt lat="46.21086" lon="7.3318">
        <ele>525.79998779297</ele>
        <time>2023-04-04T12:55:43.000Z</time>
      </trkpt>
      <trkpt lat="46.21088" lon="7.33184">
        <ele>526</ele>
        <time>2023-04-04T12:55:44.000Z</time>
      </trkpt>
      <trkpt lat="46.21089" lon="7.33189">
        <ele>526</ele>
        <time>2023-04-04T12:55:45.000Z</time>
      </trkpt>
      <trkpt lat="46.2109" lon="7.33194">
        <ele>526</ele>
        <time>2023-04-04T12:55:46.000Z</time>
      </trkpt>
      <trkpt lat="46.21096" lon="7.33211">
        <ele>526.20001220703</ele>
        <time>2023-04-04T12:55:50.000Z</time>
      </trkpt>
      <trkpt lat="46.21097" lon="7.33215">
        <ele>526.20001220703</ele>
        <time>2023-04-04T12:55:51.000Z</time>
      </trkpt>
      <trkpt lat="46.21099" lon="7.33224">
        <ele>526</ele>
        <time>2023-04-04T12:55:53.000Z</time>
      </trkpt>
      <trkpt lat="46.21104" lon="7.33243">
        <ele>525.79998779297</ele>
        <time>2023-04-04T12:55:57.000Z</time>
      </trkpt>
      <trkpt lat="46.21105" lon="7.33247">
        <ele>525.79998779297</ele>
        <time>2023-04-04T12:55:58.000Z</time>
      </trkpt>
      <trkpt lat="46.21107" lon="7.33252">
        <ele>525.79998779297</ele>
        <time>2023-04-04T12:55:59.000Z</time>
      </trkpt>
      <trkpt lat="46.21108" lon="7.33256">
        <ele>525.79998779297</ele>
        <time>2023-04-04T12:56:00.000Z</time>
      </trkpt>
      <trkpt lat="46.21117" lon="7.33285">
        <ele>525.79998779297</ele>
        <time>2023-04-04T12:56:06.000Z</time>
      </trkpt>
      <trkpt lat="46.21122" lon="7.33311">
        <ele>525.59997558594</ele>
        <time>2023-04-04T12:56:11.000Z</time>
      </trkpt>
      <trkpt lat="46.21129" lon="7.33335">
        <ele>525.79998779297</ele>
        <time>2023-04-04T12:56:16.000Z</time>
      </trkpt>
      <trkpt lat="46.21138" lon="7.33363">
        <ele>525.79998779297</ele>
        <time>2023-04-04T12:56:22.000Z</time>
      </trkpt>
      <trkpt lat="46.21139" lon="7.33366">
        <ele>525.79998779297</ele>
        <time>2023-04-04T12:56:23.000Z</time>
      </trkpt>
      <trkpt lat="46.2114" lon="7.33371">
        <ele>525.79998779297</ele>
        <time>2023-04-04T12:56:24.000Z</time>
      </trkpt>
      <trkpt lat="46.21141" lon="7.33376">
        <ele>525.79998779297</ele>
        <time>2023-04-04T12:56:25.000Z</time>
      </trkpt>
      <trkpt lat="46.21142" lon="7.33381">
        <ele>525.79998779297</ele>
        <time>2023-04-04T12:56:26.000Z</time>
      </trkpt>
      <trkpt lat="46.21143" lon="7.33386">
        <ele>525.79998779297</ele>
        <time>2023-04-04T12:56:27.000Z</time>
      </trkpt>
      <trkpt lat="46.21144" lon="7.3339">
        <ele>525.79998779297</ele>
        <time>2023-04-04T12:56:28.000Z</time>
      </trkpt>
      <trkpt lat="46.21145" lon="7.33395">
        <ele>525.79998779297</ele>
        <time>2023-04-04T12:56:29.000Z</time>
      </trkpt>
      <trkpt lat="46.21154" lon="7.33421">
        <ele>526</ele>
        <time>2023-04-04T12:56:35.000Z</time>
      </trkpt>
      <trkpt lat="46.21155" lon="7.33426">
        <ele>526</ele>
        <time>2023-04-04T12:56:36.000Z</time>
      </trkpt>
      <trkpt lat="46.21156" lon="7.33431">
        <ele>526</ele>
        <time>2023-04-04T12:56:37.000Z</time>
      </trkpt>
      <trkpt lat="46.21166" lon="7.33457">
        <ele>526.40002441406</ele>
        <time>2023-04-04T12:56:43.000Z</time>
      </trkpt>
      <trkpt lat="46.21175" lon="7.33482">
        <ele>526.40002441406</ele>
        <time>2023-04-04T12:56:49.000Z</time>
      </trkpt>
      <trkpt lat="46.21176" lon="7.33486">
        <ele>526.40002441406</ele>
        <time>2023-04-04T12:56:50.000Z</time>
      </trkpt>
      <trkpt lat="46.21177" lon="7.33491">
        <ele>526.40002441406</ele>
        <time>2023-04-04T12:56:51.000Z</time>
      </trkpt>
      <trkpt lat="46.21184" lon="7.33508">
        <ele>526.40002441406</ele>
        <time>2023-04-04T12:56:55.000Z</time>
      </trkpt>
      <trkpt lat="46.21185" lon="7.33513">
        <ele>526.40002441406</ele>
        <time>2023-04-04T12:56:56.000Z</time>
      </trkpt>
      <trkpt lat="46.21195" lon="7.33538">
        <ele>526.79998779297</ele>
        <time>2023-04-04T12:57:02.000Z</time>
      </trkpt>
      <trkpt lat="46.212" lon="7.33551">
        <ele>526.79998779297</ele>
        <time>2023-04-04T12:57:05.000Z</time>
      </trkpt>
      <trkpt lat="46.21202" lon="7.33554">
        <ele>527</ele>
        <time>2023-04-04T12:57:06.000Z</time>
      </trkpt>
      <trkpt lat="46.21205" lon="7.33561">
        <ele>527</ele>
        <time>2023-04-04T12:57:08.000Z</time>
      </trkpt>
      <trkpt lat="46.21207" lon="7.33565">
        <ele>527</ele>
        <time>2023-04-04T12:57:09.000Z</time>
      </trkpt>
      <trkpt lat="46.21208" lon="7.33568">
        <ele>527.20001220703</ele>
        <time>2023-04-04T12:57:10.000Z</time>
      </trkpt>
      <trkpt lat="46.2121" lon="7.33572">
        <ele>527.20001220703</ele>
        <time>2023-04-04T12:57:11.000Z</time>
      </trkpt>
      <trkpt lat="46.21212" lon="7.33576">
        <ele>527.20001220703</ele>
        <time>2023-04-04T12:57:12.000Z</time>
      </trkpt>
      <trkpt lat="46.21213" lon="7.33579">
        <ele>527.40002441406</ele>
        <time>2023-04-04T12:57:13.000Z</time>
      </trkpt>
      <trkpt lat="46.21215" lon="7.33583">
        <ele>527.40002441406</ele>
        <time>2023-04-04T12:57:14.000Z</time>
      </trkpt>
      <trkpt lat="46.21215" lon="7.33588">
        <ele>527.40002441406</ele>
        <time>2023-04-04T12:57:15.000Z</time>
      </trkpt>
      <trkpt lat="46.21216" lon="7.33592">
        <ele>527.40002441406</ele>
        <time>2023-04-04T12:57:16.000Z</time>
      </trkpt>
      <trkpt lat="46.21221" lon="7.33605">
        <ele>527.40002441406</ele>
        <time>2023-04-04T12:57:19.000Z</time>
      </trkpt>
      <trkpt lat="46.21222" lon="7.3361">
        <ele>527.40002441406</ele>
        <time>2023-04-04T12:57:20.000Z</time>
      </trkpt>
      <trkpt lat="46.21223" lon="7.33614">
        <ele>527.40002441406</ele>
        <time>2023-04-04T12:57:21.000Z</time>
      </trkpt>
      <trkpt lat="46.21225" lon="7.33618">
        <ele>527.40002441406</ele>
        <time>2023-04-04T12:57:22.000Z</time>
      </trkpt>
      <trkpt lat="46.21233" lon="7.33636">
        <ele>527</ele>
        <time>2023-04-04T12:57:26.000Z</time>
      </trkpt>
      <trkpt lat="46.21243" lon="7.33661">
        <ele>526.79998779297</ele>
        <time>2023-04-04T12:57:32.000Z</time>
      </trkpt>
      <trkpt lat="46.2125" lon="7.33672">
        <ele>526.59997558594</ele>
        <time>2023-04-04T12:57:35.000Z</time>
      </trkpt>
      <trkpt lat="46.21251" lon="7.33676">
        <ele>526.59997558594</ele>
        <time>2023-04-04T12:57:36.000Z</time>
      </trkpt>
      <trkpt lat="46.21253" lon="7.3368">
        <ele>526.59997558594</ele>
        <time>2023-04-04T12:57:37.000Z</time>
      </trkpt>
      <trkpt lat="46.21257" lon="7.33688">
        <ele>526.59997558594</ele>
        <time>2023-04-04T12:57:39.000Z</time>
      </trkpt>
      <trkpt lat="46.21262" lon="7.33703">
        <ele>526.59997558594</ele>
        <time>2023-04-04T12:57:43.000Z</time>
      </trkpt>
      <trkpt lat="46.21264" lon="7.33706">
        <ele>526.79998779297</ele>
        <time>2023-04-04T12:57:44.000Z</time>
      </trkpt>
      <trkpt lat="46.21265" lon="7.3371">
        <ele>526.79998779297</ele>
        <time>2023-04-04T12:57:45.000Z</time>
      </trkpt>
      <trkpt lat="46.21267" lon="7.33714">
        <ele>526.79998779297</ele>
        <time>2023-04-04T12:57:46.000Z</time>
      </trkpt>
      <trkpt lat="46.21279" lon="7.33744">
        <ele>526.79998779297</ele>
        <time>2023-04-04T12:57:54.000Z</time>
      </trkpt>
      <trkpt lat="46.21292" lon="7.33773">
        <ele>526.40002441406</ele>
        <time>2023-04-04T12:58:01.000Z</time>
      </trkpt>
      <trkpt lat="46.21299" lon="7.3379">
        <ele>526.20001220703</ele>
        <time>2023-04-04T12:58:05.000Z</time>
      </trkpt>
      <trkpt lat="46.21304" lon="7.33803">
        <ele>526.20001220703</ele>
        <time>2023-04-04T12:58:08.000Z</time>
      </trkpt>
      <trkpt lat="46.21309" lon="7.33814">
        <ele>526</ele>
        <time>2023-04-04T12:58:11.000Z</time>
      </trkpt>
      <trkpt lat="46.2131" lon="7.33818">
        <ele>526</ele>
        <time>2023-04-04T12:58:12.000Z</time>
      </trkpt>
      <trkpt lat="46.21311" lon="7.33822">
        <ele>525.79998779297</ele>
        <time>2023-04-04T12:58:13.000Z</time>
      </trkpt>
      <trkpt lat="46.21313" lon="7.33825">
        <ele>525.79998779297</ele>
        <time>2023-04-04T12:58:14.000Z</time>
      </trkpt>
      <trkpt lat="46.21315" lon="7.33828">
        <ele>525.79998779297</ele>
        <time>2023-04-04T12:58:15.000Z</time>
      </trkpt>
      <trkpt lat="46.21317" lon="7.33831">
        <ele>525.79998779297</ele>
        <time>2023-04-04T12:58:16.000Z</time>
      </trkpt>
      <trkpt lat="46.21318" lon="7.33834">
        <ele>525.79998779297</ele>
        <time>2023-04-04T12:58:17.000Z</time>
      </trkpt>
      <trkpt lat="46.2132" lon="7.33838">
        <ele>525.79998779297</ele>
        <time>2023-04-04T12:58:18.000Z</time>
      </trkpt>
      <trkpt lat="46.21321" lon="7.33841">
        <ele>525.79998779297</ele>
        <time>2023-04-04T12:58:19.000Z</time>
      </trkpt>
      <trkpt lat="46.21323" lon="7.33845">
        <ele>525.79998779297</ele>
        <time>2023-04-04T12:58:20.000Z</time>
      </trkpt>
      <trkpt lat="46.21324" lon="7.33849">
        <ele>526</ele>
        <time>2023-04-04T12:58:21.000Z</time>
      </trkpt>
      <trkpt lat="46.21339" lon="7.3389">
        <ele>525.79998779297</ele>
        <time>2023-04-04T12:58:31.000Z</time>
      </trkpt>
      <trkpt lat="46.21342" lon="7.339">
        <ele>525.79998779297</ele>
        <time>2023-04-04T12:58:34.000Z</time>
      </trkpt>
      <trkpt lat="46.21344" lon="7.33904">
        <ele>525.79998779297</ele>
        <time>2023-04-04T12:58:35.000Z</time>
      </trkpt>
      <trkpt lat="46.21345" lon="7.33908">
        <ele>525.79998779297</ele>
        <time>2023-04-04T12:58:36.000Z</time>
      </trkpt>
      <trkpt lat="46.21347" lon="7.33912">
        <ele>525.79998779297</ele>
        <time>2023-04-04T12:58:37.000Z</time>
      </trkpt>
      <trkpt lat="46.2135" lon="7.33919">
        <ele>525.79998779297</ele>
        <time>2023-04-04T12:58:39.000Z</time>
      </trkpt>
      <trkpt lat="46.21351" lon="7.33923">
        <ele>525.79998779297</ele>
        <time>2023-04-04T12:58:40.000Z</time>
      </trkpt>
      <trkpt lat="46.21352" lon="7.33927">
        <ele>525.79998779297</ele>
        <time>2023-04-04T12:58:41.000Z</time>
      </trkpt>
      <trkpt lat="46.21354" lon="7.33931">
        <ele>525.59997558594</ele>
        <time>2023-04-04T12:58:42.000Z</time>
      </trkpt>
      <trkpt lat="46.21362" lon="7.33949">
        <ele>526</ele>
        <time>2023-04-04T12:58:47.000Z</time>
      </trkpt>
      <trkpt lat="46.21369" lon="7.33968">
        <ele>526</ele>
        <time>2023-04-04T12:58:52.000Z</time>
      </trkpt>
      <trkpt lat="46.21371" lon="7.33971">
        <ele>526</ele>
        <time>2023-04-04T12:58:53.000Z</time>
      </trkpt>
      <trkpt lat="46.21377" lon="7.33985">
        <ele>526</ele>
        <time>2023-04-04T12:58:57.000Z</time>
      </trkpt>
      <trkpt lat="46.21378" lon="7.33989">
        <ele>526.20001220703</ele>
        <time>2023-04-04T12:58:58.000Z</time>
      </trkpt>
      <trkpt lat="46.21379" lon="7.33993">
        <ele>526.20001220703</ele>
        <time>2023-04-04T12:58:59.000Z</time>
      </trkpt>
      <trkpt lat="46.21381" lon="7.34">
        <ele>526.20001220703</ele>
        <time>2023-04-04T12:59:01.000Z</time>
      </trkpt>
      <trkpt lat="46.21382" lon="7.34004">
        <ele>526.20001220703</ele>
        <time>2023-04-04T12:59:02.000Z</time>
      </trkpt>
      <trkpt lat="46.21383" lon="7.34008">
        <ele>526.40002441406</ele>
        <time>2023-04-04T12:59:03.000Z</time>
      </trkpt>
      <trkpt lat="46.21384" lon="7.34012">
        <ele>526.40002441406</ele>
        <time>2023-04-04T12:59:04.000Z</time>
      </trkpt>
      <trkpt lat="46.21386" lon="7.34014">
        <ele>526.40002441406</ele>
        <time>2023-04-04T12:59:05.000Z</time>
      </trkpt>
      <trkpt lat="46.21388" lon="7.34018">
        <ele>526.40002441406</ele>
        <time>2023-04-04T12:59:06.000Z</time>
      </trkpt>
      <trkpt lat="46.2139" lon="7.34021">
        <ele>526.40002441406</ele>
        <time>2023-04-04T12:59:07.000Z</time>
      </trkpt>
      <trkpt lat="46.21391" lon="7.34025">
        <ele>526.40002441406</ele>
        <time>2023-04-04T12:59:08.000Z</time>
      </trkpt>
      <trkpt lat="46.21393" lon="7.34028">
        <ele>526.59997558594</ele>
        <time>2023-04-04T12:59:09.000Z</time>
      </trkpt>
      <trkpt lat="46.21395" lon="7.34032">
        <ele>526.59997558594</ele>
        <time>2023-04-04T12:59:10.000Z</time>
      </trkpt>
      <trkpt lat="46.21398" lon="7.34036">
        <ele>526.59997558594</ele>
        <time>2023-04-04T12:59:11.000Z</time>
      </trkpt>
      <trkpt lat="46.21403" lon="7.34046">
        <ele>526.59997558594</ele>
        <time>2023-04-04T12:59:13.000Z</time>
      </trkpt>
      <trkpt lat="46.21407" lon="7.34054">
        <ele>526.59997558594</ele>
        <time>2023-04-04T12:59:15.000Z</time>
      </trkpt>
      <trkpt lat="46.21411" lon="7.34063">
        <ele>526.79998779297</ele>
        <time>2023-04-04T12:59:17.000Z</time>
      </trkpt>
      <trkpt lat="46.21413" lon="7.34068">
        <ele>526.79998779297</ele>
        <time>2023-04-04T12:59:18.000Z</time>
      </trkpt>
      <trkpt lat="46.21416" lon="7.34072">
        <ele>526.79998779297</ele>
        <time>2023-04-04T12:59:19.000Z</time>
      </trkpt>
      <trkpt lat="46.2142" lon="7.3408">
        <ele>526.79998779297</ele>
        <time>2023-04-04T12:59:21.000Z</time>
      </trkpt>
      <trkpt lat="46.21427" lon="7.34096">
        <ele>526.79998779297</ele>
        <time>2023-04-04T12:59:25.000Z</time>
      </trkpt>
      <trkpt lat="46.21429" lon="7.341">
        <ele>526.79998779297</ele>
        <time>2023-04-04T12:59:26.000Z</time>
      </trkpt>
      <trkpt lat="46.2143" lon="7.34107">
        <ele>526.59997558594</ele>
        <time>2023-04-04T12:59:27.000Z</time>
      </trkpt>
      <trkpt lat="46.21432" lon="7.34112">
        <ele>526.59997558594</ele>
        <time>2023-04-04T12:59:28.000Z</time>
      </trkpt>
      <trkpt lat="46.21434" lon="7.34117">
        <ele>526.59997558594</ele>
        <time>2023-04-04T12:59:29.000Z</time>
      </trkpt>
      <trkpt lat="46.21435" lon="7.34121">
        <ele>526.59997558594</ele>
        <time>2023-04-04T12:59:30.000Z</time>
      </trkpt>
      <trkpt lat="46.21441" lon="7.34141">
        <ele>526.40002441406</ele>
        <time>2023-04-04T12:59:34.000Z</time>
      </trkpt>
      <trkpt lat="46.21449" lon="7.34161">
        <ele>526.40002441406</ele>
        <time>2023-04-04T12:59:39.000Z</time>
      </trkpt>
      <trkpt lat="46.21451" lon="7.34165">
        <ele>526.40002441406</ele>
        <time>2023-04-04T12:59:40.000Z</time>
      </trkpt>
      <trkpt lat="46.21452" lon="7.34169">
        <ele>526.59997558594</ele>
        <time>2023-04-04T12:59:41.000Z</time>
      </trkpt>
      <trkpt lat="46.21461" lon="7.34195">
        <ele>526.59997558594</ele>
        <time>2023-04-04T12:59:47.000Z</time>
      </trkpt>
      <trkpt lat="46.21462" lon="7.34199">
        <ele>526.59997558594</ele>
        <time>2023-04-04T12:59:48.000Z</time>
      </trkpt>
      <trkpt lat="46.21463" lon="7.34202">
        <ele>526.59997558594</ele>
        <time>2023-04-04T12:59:49.000Z</time>
      </trkpt>
      <trkpt lat="46.21466" lon="7.34208">
        <ele>526.59997558594</ele>
        <time>2023-04-04T12:59:51.000Z</time>
      </trkpt>
      <trkpt lat="46.21467" lon="7.34211">
        <ele>526.59997558594</ele>
        <time>2023-04-04T12:59:52.000Z</time>
      </trkpt>
      <trkpt lat="46.21467" lon="7.34215">
        <ele>526.40002441406</ele>
        <time>2023-04-04T12:59:53.000Z</time>
      </trkpt>
      <trkpt lat="46.21469" lon="7.34218">
        <ele>526.40002441406</ele>
        <time>2023-04-04T12:59:54.000Z</time>
      </trkpt>
      <trkpt lat="46.2147" lon="7.34221">
        <ele>526.40002441406</ele>
        <time>2023-04-04T12:59:55.000Z</time>
      </trkpt>
      <trkpt lat="46.21471" lon="7.34224">
        <ele>526.40002441406</ele>
        <time>2023-04-04T12:59:56.000Z</time>
      </trkpt>
      <trkpt lat="46.21472" lon="7.34227">
        <ele>526.59997558594</ele>
        <time>2023-04-04T12:59:57.000Z</time>
      </trkpt>
      <trkpt lat="46.21474" lon="7.34231">
        <ele>526.59997558594</ele>
        <time>2023-04-04T12:59:58.000Z</time>
      </trkpt>
      <trkpt lat="46.21476" lon="7.34236">
        <ele>526.79998779297</ele>
        <time>2023-04-04T12:59:59.000Z</time>
      </trkpt>
      <trkpt lat="46.21481" lon="7.34251">
        <ele>526.79998779297</ele>
        <time>2023-04-04T13:00:03.000Z</time>
      </trkpt>
      <trkpt lat="46.21483" lon="7.34254">
        <ele>526.79998779297</ele>
        <time>2023-04-04T13:00:04.000Z</time>
      </trkpt>
      <trkpt lat="46.21484" lon="7.34257">
        <ele>526.79998779297</ele>
        <time>2023-04-04T13:00:05.000Z</time>
      </trkpt>
      <trkpt lat="46.21494" lon="7.34283">
        <ele>527.20001220703</ele>
        <time>2023-04-04T13:00:11.000Z</time>
      </trkpt>
      <trkpt lat="46.21497" lon="7.34288">
        <ele>527.20001220703</ele>
        <time>2023-04-04T13:00:12.000Z</time>
      </trkpt>
      <trkpt lat="46.21505" lon="7.34306">
        <ele>527.20001220703</ele>
        <time>2023-04-04T13:00:16.000Z</time>
      </trkpt>
      <trkpt lat="46.21507" lon="7.3431">
        <ele>527.20001220703</ele>
        <time>2023-04-04T13:00:17.000Z</time>
      </trkpt>
      <trkpt lat="46.21517" lon="7.34331">
        <ele>527.20001220703</ele>
        <time>2023-04-04T13:00:22.000Z</time>
      </trkpt>
      <trkpt lat="46.21523" lon="7.34342">
        <ele>527.40002441406</ele>
        <time>2023-04-04T13:00:25.000Z</time>
      </trkpt>
      <trkpt lat="46.21525" lon="7.34345">
        <ele>527.40002441406</ele>
        <time>2023-04-04T13:00:26.000Z</time>
      </trkpt>
      <trkpt lat="46.21527" lon="7.3435">
        <ele>527.40002441406</ele>
        <time>2023-04-04T13:00:27.000Z</time>
      </trkpt>
      <trkpt lat="46.21529" lon="7.34355">
        <ele>527.40002441406</ele>
        <time>2023-04-04T13:00:28.000Z</time>
      </trkpt>
      <trkpt lat="46.2154" lon="7.34376">
        <ele>527.40002441406</ele>
        <time>2023-04-04T13:00:33.000Z</time>
      </trkpt>
      <trkpt lat="46.2154" lon="7.34383">
        <ele>527.40002441406</ele>
        <time>2023-04-04T13:00:34.000Z</time>
      </trkpt>
      <trkpt lat="46.21542" lon="7.34388">
        <ele>527.40002441406</ele>
        <time>2023-04-04T13:00:35.000Z</time>
      </trkpt>
      <trkpt lat="46.21545" lon="7.34393">
        <ele>527.59997558594</ele>
        <time>2023-04-04T13:00:36.000Z</time>
      </trkpt>
      <trkpt lat="46.21549" lon="7.34415">
        <ele>527.79998779297</ele>
        <time>2023-04-04T13:00:41.000Z</time>
      </trkpt>
      <trkpt lat="46.21549" lon="7.34419">
        <ele>527.79998779297</ele>
        <time>2023-04-04T13:00:42.000Z</time>
      </trkpt>
      <trkpt lat="46.2155" lon="7.34424">
        <ele>528</ele>
        <time>2023-04-04T13:00:43.000Z</time>
      </trkpt>
      <trkpt lat="46.21551" lon="7.34428">
        <ele>528</ele>
        <time>2023-04-04T13:00:44.000Z</time>
      </trkpt>
      <trkpt lat="46.21554" lon="7.34433">
        <ele>528</ele>
        <time>2023-04-04T13:00:45.000Z</time>
      </trkpt>
      <trkpt lat="46.21556" lon="7.34437">
        <ele>528</ele>
        <time>2023-04-04T13:00:46.000Z</time>
      </trkpt>
      <trkpt lat="46.21558" lon="7.34441">
        <ele>528</ele>
        <time>2023-04-04T13:00:47.000Z</time>
      </trkpt>
      <trkpt lat="46.2156" lon="7.34445">
        <ele>528</ele>
        <time>2023-04-04T13:00:48.000Z</time>
      </trkpt>
      <trkpt lat="46.21561" lon="7.34449">
        <ele>528</ele>
        <time>2023-04-04T13:00:49.000Z</time>
      </trkpt>
      <trkpt lat="46.21563" lon="7.34452">
        <ele>528</ele>
        <time>2023-04-04T13:00:50.000Z</time>
      </trkpt>
      <trkpt lat="46.21567" lon="7.34458">
        <ele>528.20001220703</ele>
        <time>2023-04-04T13:00:52.000Z</time>
      </trkpt>
      <trkpt lat="46.21572" lon="7.34466">
        <ele>528.40002441406</ele>
        <time>2023-04-04T13:00:55.000Z</time>
      </trkpt>
      <trkpt lat="46.21572" lon="7.3447">
        <ele>528.40002441406</ele>
        <time>2023-04-04T13:00:56.000Z</time>
      </trkpt>
      <trkpt lat="46.21573" lon="7.34474">
        <ele>528.59997558594</ele>
        <time>2023-04-04T13:00:57.000Z</time>
      </trkpt>
      <trkpt lat="46.21574" lon="7.34478">
        <ele>528.59997558594</ele>
        <time>2023-04-04T13:00:58.000Z</time>
      </trkpt>
      <trkpt lat="46.21575" lon="7.34482">
        <ele>528.79998779297</ele>
        <time>2023-04-04T13:00:59.000Z</time>
      </trkpt>
      <trkpt lat="46.21577" lon="7.34486">
        <ele>528.79998779297</ele>
        <time>2023-04-04T13:01:00.000Z</time>
      </trkpt>
      <trkpt lat="46.21579" lon="7.34493">
        <ele>528.59997558594</ele>
        <time>2023-04-04T13:01:02.000Z</time>
      </trkpt>
      <trkpt lat="46.2158" lon="7.34497">
        <ele>528.59997558594</ele>
        <time>2023-04-04T13:01:03.000Z</time>
      </trkpt>
      <trkpt lat="46.21589" lon="7.34524">
        <ele>528</ele>
        <time>2023-04-04T13:01:09.000Z</time>
      </trkpt>
      <trkpt lat="46.21597" lon="7.34554">
        <ele>527.40002441406</ele>
        <time>2023-04-04T13:01:16.000Z</time>
      </trkpt>
      <trkpt lat="46.21601" lon="7.34566">
        <ele>527.40002441406</ele>
        <time>2023-04-04T13:01:19.000Z</time>
      </trkpt>
      <trkpt lat="46.21604" lon="7.3457">
        <ele>527.40002441406</ele>
        <time>2023-04-04T13:01:21.000Z</time>
      </trkpt>
      <trkpt lat="46.21606" lon="7.34573">
        <ele>527.40002441406</ele>
        <time>2023-04-04T13:01:22.000Z</time>
      </trkpt>
      <trkpt lat="46.21608" lon="7.34575">
        <ele>527.59997558594</ele>
        <time>2023-04-04T13:01:23.000Z</time>
      </trkpt>
      <trkpt lat="46.21611" lon="7.34578">
        <ele>527.59997558594</ele>
        <time>2023-04-04T13:01:24.000Z</time>
      </trkpt>
      <trkpt lat="46.21613" lon="7.34579">
        <ele>527.59997558594</ele>
        <time>2023-04-04T13:01:25.000Z</time>
      </trkpt>
      <trkpt lat="46.21615" lon="7.3458">
        <ele>527.59997558594</ele>
        <time>2023-04-04T13:01:26.000Z</time>
      </trkpt>
      <trkpt lat="46.21617" lon="7.3458">
        <ele>527.59997558594</ele>
        <time>2023-04-04T13:01:27.000Z</time>
      </trkpt>
      <trkpt lat="46.21619" lon="7.34579">
        <ele>527.79998779297</ele>
        <time>2023-04-04T13:01:28.000Z</time>
      </trkpt>
      <trkpt lat="46.21622" lon="7.34579">
        <ele>527.79998779297</ele>
        <time>2023-04-04T13:01:29.000Z</time>
      </trkpt>
      <trkpt lat="46.21625" lon="7.34578">
        <ele>527.79998779297</ele>
        <time>2023-04-04T13:01:30.000Z</time>
      </trkpt>
      <trkpt lat="46.21627" lon="7.3458">
        <ele>527.79998779297</ele>
        <time>2023-04-04T13:01:31.000Z</time>
      </trkpt>
      <trkpt lat="46.21629" lon="7.34583">
        <ele>527.79998779297</ele>
        <time>2023-04-04T13:01:32.000Z</time>
      </trkpt>
      <trkpt lat="46.21631" lon="7.34585">
        <ele>527.79998779297</ele>
        <time>2023-04-04T13:01:33.000Z</time>
      </trkpt>
      <trkpt lat="46.21633" lon="7.34586">
        <ele>527.79998779297</ele>
        <time>2023-04-04T13:01:34.000Z</time>
      </trkpt>
      <trkpt lat="46.21634" lon="7.34588">
        <ele>527.79998779297</ele>
        <time>2023-04-04T13:01:35.000Z</time>
      </trkpt>
      <trkpt lat="46.21635" lon="7.34591">
        <ele>527.59997558594</ele>
        <time>2023-04-04T13:01:36.000Z</time>
      </trkpt>
      <trkpt lat="46.21638" lon="7.34596">
        <ele>527.59997558594</ele>
        <time>2023-04-04T13:01:37.000Z</time>
      </trkpt>
      <trkpt lat="46.21641" lon="7.34604">
        <ele>527.59997558594</ele>
        <time>2023-04-04T13:01:39.000Z</time>
      </trkpt>
      <trkpt lat="46.21643" lon="7.34608">
        <ele>527.59997558594</ele>
        <time>2023-04-04T13:01:40.000Z</time>
      </trkpt>
      <trkpt lat="46.21645" lon="7.34615">
        <ele>527.40002441406</ele>
        <time>2023-04-04T13:01:42.000Z</time>
      </trkpt>
      <trkpt lat="46.21646" lon="7.34621">
        <ele>527.40002441406</ele>
        <time>2023-04-04T13:01:43.000Z</time>
      </trkpt>
      <trkpt lat="46.21646" lon="7.34625">
        <ele>527.40002441406</ele>
        <time>2023-04-04T13:01:44.000Z</time>
      </trkpt>
      <trkpt lat="46.21646" lon="7.34629">
        <ele>527.40002441406</ele>
        <time>2023-04-04T13:01:45.000Z</time>
      </trkpt>
      <trkpt lat="46.21645" lon="7.34633">
        <ele>527.40002441406</ele>
        <time>2023-04-04T13:01:46.000Z</time>
      </trkpt>
      <trkpt lat="46.21645" lon="7.34636">
        <ele>527.20001220703</ele>
        <time>2023-04-04T13:01:47.000Z</time>
      </trkpt>
      <trkpt lat="46.21643" lon="7.34639">
        <ele>527.20001220703</ele>
        <time>2023-04-04T13:01:48.000Z</time>
      </trkpt>
      <trkpt lat="46.21642" lon="7.34642">
        <ele>527</ele>
        <time>2023-04-04T13:01:49.000Z</time>
      </trkpt>
      <trkpt lat="46.21641" lon="7.34645">
        <ele>527</ele>
        <time>2023-04-04T13:01:50.000Z</time>
      </trkpt>
      <trkpt lat="46.21639" lon="7.34646">
        <ele>527</ele>
        <time>2023-04-04T13:01:51.000Z</time>
      </trkpt>
      <trkpt lat="46.21637" lon="7.3465">
        <ele>526.79998779297</ele>
        <time>2023-04-04T13:01:52.000Z</time>
      </trkpt>
      <trkpt lat="46.21637" lon="7.34653">
        <ele>526.79998779297</ele>
        <time>2023-04-04T13:01:53.000Z</time>
      </trkpt>
      <trkpt lat="46.21637" lon="7.34657">
        <ele>526.79998779297</ele>
        <time>2023-04-04T13:01:54.000Z</time>
      </trkpt>
      <trkpt lat="46.21638" lon="7.3466">
        <ele>526.79998779297</ele>
        <time>2023-04-04T13:01:55.000Z</time>
      </trkpt>
      <trkpt lat="46.21639" lon="7.34663">
        <ele>527</ele>
        <time>2023-04-04T13:01:56.000Z</time>
      </trkpt>
      <trkpt lat="46.21641" lon="7.34674">
        <ele>527.40002441406</ele>
        <time>2023-04-04T13:01:59.000Z</time>
      </trkpt>
      <trkpt lat="46.21641" lon="7.34679">
        <ele>527.40002441406</ele>
        <time>2023-04-04T13:02:01.000Z</time>
      </trkpt>
      <trkpt lat="46.21642" lon="7.34681">
        <ele>527.40002441406</ele>
        <time>2023-04-04T13:02:02.000Z</time>
      </trkpt>
      <trkpt lat="46.21643" lon="7.34684">
        <ele>527.40002441406</ele>
        <time>2023-04-04T13:02:03.000Z</time>
      </trkpt>
      <trkpt lat="46.21644" lon="7.34689">
        <ele>527.40002441406</ele>
        <time>2023-04-04T13:02:04.000Z</time>
      </trkpt>
      <trkpt lat="46.21645" lon="7.34692">
        <ele>527.40002441406</ele>
        <time>2023-04-04T13:02:05.000Z</time>
      </trkpt>
      <trkpt lat="46.21655" lon="7.34729">
        <ele>527.79998779297</ele>
        <time>2023-04-04T13:02:13.000Z</time>
      </trkpt>
      <trkpt lat="46.21665" lon="7.34759">
        <ele>527.79998779297</ele>
        <time>2023-04-04T13:02:20.000Z</time>
      </trkpt>
      <trkpt lat="46.21667" lon="7.34764">
        <ele>527.79998779297</ele>
        <time>2023-04-04T13:02:21.000Z</time>
      </trkpt>
      <trkpt lat="46.21667" lon="7.34774">
        <ele>528.20001220703</ele>
        <time>2023-04-04T13:02:23.000Z</time>
      </trkpt>
      <trkpt lat="46.21669" lon="7.34783">
        <ele>528.40002441406</ele>
        <time>2023-04-04T13:02:25.000Z</time>
      </trkpt>
      <trkpt lat="46.21671" lon="7.34787">
        <ele>528.40002441406</ele>
        <time>2023-04-04T13:02:26.000Z</time>
      </trkpt>
      <trkpt lat="46.21677" lon="7.34806">
        <ele>528.40002441406</ele>
        <time>2023-04-04T13:02:30.000Z</time>
      </trkpt>
      <trkpt lat="46.21693" lon="7.34853">
        <ele>527.79998779297</ele>
        <time>2023-04-04T13:02:40.000Z</time>
      </trkpt>
      <trkpt lat="46.217" lon="7.34871">
        <ele>527.59997558594</ele>
        <time>2023-04-04T13:02:44.000Z</time>
      </trkpt>
      <trkpt lat="46.21705" lon="7.34883">
        <ele>527.59997558594</ele>
        <time>2023-04-04T13:02:47.000Z</time>
      </trkpt>
      <trkpt lat="46.21706" lon="7.34887">
        <ele>527.59997558594</ele>
        <time>2023-04-04T13:02:48.000Z</time>
      </trkpt>
      <trkpt lat="46.21707" lon="7.3489">
        <ele>527.79998779297</ele>
        <time>2023-04-04T13:02:49.000Z</time>
      </trkpt>
      <trkpt lat="46.21707" lon="7.34893">
        <ele>527.79998779297</ele>
        <time>2023-04-04T13:02:50.000Z</time>
      </trkpt>
      <trkpt lat="46.21707" lon="7.34897">
        <ele>527.79998779297</ele>
        <time>2023-04-04T13:02:51.000Z</time>
      </trkpt>
      <trkpt lat="46.21708" lon="7.34901">
        <ele>527.79998779297</ele>
        <time>2023-04-04T13:02:52.000Z</time>
      </trkpt>
      <trkpt lat="46.21709" lon="7.34905">
        <ele>527.79998779297</ele>
        <time>2023-04-04T13:02:53.000Z</time>
      </trkpt>
      <trkpt lat="46.21711" lon="7.34915">
        <ele>527.79998779297</ele>
        <time>2023-04-04T13:02:55.000Z</time>
      </trkpt>
      <trkpt lat="46.21715" lon="7.34932">
        <ele>527.79998779297</ele>
        <time>2023-04-04T13:02:58.000Z</time>
      </trkpt>
      <trkpt lat="46.2172" lon="7.34948">
        <ele>527.79998779297</ele>
        <time>2023-04-04T13:03:01.000Z</time>
      </trkpt>
      <trkpt lat="46.2173" lon="7.34981">
        <ele>527.79998779297</ele>
        <time>2023-04-04T13:03:07.000Z</time>
      </trkpt>
      <trkpt lat="46.21734" lon="7.34992">
        <ele>527.79998779297</ele>
        <time>2023-04-04T13:03:09.000Z</time>
      </trkpt>
      <trkpt lat="46.21736" lon="7.34998">
        <ele>527.79998779297</ele>
        <time>2023-04-04T13:03:10.000Z</time>
      </trkpt>
      <trkpt lat="46.21745" lon="7.35028">
        <ele>527.79998779297</ele>
        <time>2023-04-04T13:03:15.000Z</time>
      </trkpt>
      <trkpt lat="46.21746" lon="7.35034">
        <ele>527.79998779297</ele>
        <time>2023-04-04T13:03:16.000Z</time>
      </trkpt>
      <trkpt lat="46.21755" lon="7.35056">
        <ele>527.79998779297</ele>
        <time>2023-04-04T13:03:20.000Z</time>
      </trkpt>
      <trkpt lat="46.21761" lon="7.35073">
        <ele>527.79998779297</ele>
        <time>2023-04-04T13:03:23.000Z</time>
      </trkpt>
      <trkpt lat="46.21764" lon="7.35084">
        <ele>527.79998779297</ele>
        <time>2023-04-04T13:03:25.000Z</time>
      </trkpt>
      <trkpt lat="46.21766" lon="7.35089">
        <ele>527.79998779297</ele>
        <time>2023-04-04T13:03:26.000Z</time>
      </trkpt>
      <trkpt lat="46.21768" lon="7.35094">
        <ele>527.79998779297</ele>
        <time>2023-04-04T13:03:27.000Z</time>
      </trkpt>
      <trkpt lat="46.2177" lon="7.351">
        <ele>527.79998779297</ele>
        <time>2023-04-04T13:03:28.000Z</time>
      </trkpt>
      <trkpt lat="46.21771" lon="7.35106">
        <ele>527.59997558594</ele>
        <time>2023-04-04T13:03:29.000Z</time>
      </trkpt>
      <trkpt lat="46.21771" lon="7.35112">
        <ele>527.59997558594</ele>
        <time>2023-04-04T13:03:30.000Z</time>
      </trkpt>
      <trkpt lat="46.21771" lon="7.3512">
        <ele>527.59997558594</ele>
        <time>2023-04-04T13:03:31.000Z</time>
      </trkpt>
      <trkpt lat="46.21772" lon="7.35127">
        <ele>527.59997558594</ele>
        <time>2023-04-04T13:03:32.000Z</time>
      </trkpt>
      <trkpt lat="46.21775" lon="7.35134">
        <ele>527.40002441406</ele>
        <time>2023-04-04T13:03:33.000Z</time>
      </trkpt>
      <trkpt lat="46.21779" lon="7.35148">
        <ele>527.20001220703</ele>
        <time>2023-04-04T13:03:35.000Z</time>
      </trkpt>
      <trkpt lat="46.21782" lon="7.35153">
        <ele>527.20001220703</ele>
        <time>2023-04-04T13:03:36.000Z</time>
      </trkpt>
      <trkpt lat="46.21785" lon="7.35158">
        <ele>527.20001220703</ele>
        <time>2023-04-04T13:03:37.000Z</time>
      </trkpt>
      <trkpt lat="46.21787" lon="7.35162">
        <ele>527.20001220703</ele>
        <time>2023-04-04T13:03:38.000Z</time>
      </trkpt>
      <trkpt lat="46.21788" lon="7.35167">
        <ele>527.20001220703</ele>
        <time>2023-04-04T13:03:39.000Z</time>
      </trkpt>
      <trkpt lat="46.2179" lon="7.35171">
        <ele>527</ele>
        <time>2023-04-04T13:03:40.000Z</time>
      </trkpt>
      <trkpt lat="46.21792" lon="7.35176">
        <ele>527.20001220703</ele>
        <time>2023-04-04T13:03:41.000Z</time>
      </trkpt>
      <trkpt lat="46.21793" lon="7.35181">
        <ele>527.20001220703</ele>
        <time>2023-04-04T13:03:42.000Z</time>
      </trkpt>
      <trkpt lat="46.21801" lon="7.35202">
        <ele>527.79998779297</ele>
        <time>2023-04-04T13:03:46.000Z</time>
      </trkpt>
      <trkpt lat="46.21811" lon="7.35236">
        <ele>528.40002441406</ele>
        <time>2023-04-04T13:03:52.000Z</time>
      </trkpt>
      <trkpt lat="46.21822" lon="7.35263">
        <ele>528.59997558594</ele>
        <time>2023-04-04T13:03:57.000Z</time>
      </trkpt>
      <trkpt lat="46.21826" lon="7.35274">
        <ele>528.59997558594</ele>
        <time>2023-04-04T13:03:59.000Z</time>
      </trkpt>
      <trkpt lat="46.2183" lon="7.35285">
        <ele>528.79998779297</ele>
        <time>2023-04-04T13:04:01.000Z</time>
      </trkpt>
      <trkpt lat="46.21835" lon="7.353">
        <ele>528.79998779297</ele>
        <time>2023-04-04T13:04:04.000Z</time>
      </trkpt>
      <trkpt lat="46.21838" lon="7.35305">
        <ele>529</ele>
        <time>2023-04-04T13:04:05.000Z</time>
      </trkpt>
      <trkpt lat="46.21841" lon="7.35315">
        <ele>529</ele>
        <time>2023-04-04T13:04:07.000Z</time>
      </trkpt>
      <trkpt lat="46.21843" lon="7.3532">
        <ele>529</ele>
        <time>2023-04-04T13:04:08.000Z</time>
      </trkpt>
      <trkpt lat="46.21845" lon="7.35325">
        <ele>529</ele>
        <time>2023-04-04T13:04:09.000Z</time>
      </trkpt>
      <trkpt lat="46.21847" lon="7.3533">
        <ele>529</ele>
        <time>2023-04-04T13:04:10.000Z</time>
      </trkpt>
      <trkpt lat="46.21849" lon="7.35335">
        <ele>528.79998779297</ele>
        <time>2023-04-04T13:04:11.000Z</time>
      </trkpt>
      <trkpt lat="46.2185" lon="7.35339">
        <ele>528.79998779297</ele>
        <time>2023-04-04T13:04:12.000Z</time>
      </trkpt>
      <trkpt lat="46.21852" lon="7.35344">
        <ele>528.79998779297</ele>
        <time>2023-04-04T13:04:13.000Z</time>
      </trkpt>
      <trkpt lat="46.21853" lon="7.35349">
        <ele>528.59997558594</ele>
        <time>2023-04-04T13:04:14.000Z</time>
      </trkpt>
      <trkpt lat="46.21855" lon="7.35353">
        <ele>528.59997558594</ele>
        <time>2023-04-04T13:04:15.000Z</time>
      </trkpt>
      <trkpt lat="46.21857" lon="7.35357">
        <ele>528.59997558594</ele>
        <time>2023-04-04T13:04:16.000Z</time>
      </trkpt>
      <trkpt lat="46.21859" lon="7.35361">
        <ele>528.59997558594</ele>
        <time>2023-04-04T13:04:17.000Z</time>
      </trkpt>
      <trkpt lat="46.21861" lon="7.35366">
        <ele>528.40002441406</ele>
        <time>2023-04-04T13:04:18.000Z</time>
      </trkpt>
      <trkpt lat="46.2187" lon="7.35385">
        <ele>528.40002441406</ele>
        <time>2023-04-04T13:04:22.000Z</time>
      </trkpt>
      <trkpt lat="46.21875" lon="7.35402">
        <ele>528.40002441406</ele>
        <time>2023-04-04T13:04:25.000Z</time>
      </trkpt>
      <trkpt lat="46.21875" lon="7.35408">
        <ele>528.40002441406</ele>
        <time>2023-04-04T13:04:26.000Z</time>
      </trkpt>
      <trkpt lat="46.21879" lon="7.35423">
        <ele>528.20001220703</ele>
        <time>2023-04-04T13:04:29.000Z</time>
      </trkpt>
      <trkpt lat="46.21892" lon="7.35457">
        <ele>528.20001220703</ele>
        <time>2023-04-04T13:04:36.000Z</time>
      </trkpt>
      <trkpt lat="46.21898" lon="7.3547">
        <ele>528.20001220703</ele>
        <time>2023-04-04T13:04:39.000Z</time>
      </trkpt>
      <trkpt lat="46.219" lon="7.35474">
        <ele>528.20001220703</ele>
        <time>2023-04-04T13:04:40.000Z</time>
      </trkpt>
      <trkpt lat="46.21901" lon="7.35478">
        <ele>528.20001220703</ele>
        <time>2023-04-04T13:04:41.000Z</time>
      </trkpt>
      <trkpt lat="46.21912" lon="7.35509">
        <ele>528.40002441406</ele>
        <time>2023-04-04T13:04:47.000Z</time>
      </trkpt>
      <trkpt lat="46.21914" lon="7.35514">
        <ele>528.40002441406</ele>
        <time>2023-04-04T13:04:48.000Z</time>
      </trkpt>
      <trkpt lat="46.21916" lon="7.35519">
        <ele>528.40002441406</ele>
        <time>2023-04-04T13:04:49.000Z</time>
      </trkpt>
      <trkpt lat="46.21925" lon="7.35551">
        <ele>528.59997558594</ele>
        <time>2023-04-04T13:04:55.000Z</time>
      </trkpt>
      <trkpt lat="46.21934" lon="7.35575">
        <ele>528.59997558594</ele>
        <time>2023-04-04T13:05:00.000Z</time>
      </trkpt>
      <trkpt lat="46.21936" lon="7.3558">
        <ele>528.59997558594</ele>
        <time>2023-04-04T13:05:01.000Z</time>
      </trkpt>
      <trkpt lat="46.21949" lon="7.35623">
        <ele>528.59997558594</ele>
        <time>2023-04-04T13:05:10.000Z</time>
      </trkpt>
      <trkpt lat="46.21953" lon="7.35632">
        <ele>528.59997558594</ele>
        <time>2023-04-04T13:05:12.000Z</time>
      </trkpt>
      <trkpt lat="46.21956" lon="7.35637">
        <ele>528.59997558594</ele>
        <time>2023-04-04T13:05:13.000Z</time>
      </trkpt>
      <trkpt lat="46.21961" lon="7.35649">
        <ele>528.59997558594</ele>
        <time>2023-04-04T13:05:15.000Z</time>
      </trkpt>
      <trkpt lat="46.21967" lon="7.35664">
        <ele>528.79998779297</ele>
        <time>2023-04-04T13:05:18.000Z</time>
      </trkpt>
      <trkpt lat="46.21976" lon="7.35683">
        <ele>528.79998779297</ele>
        <time>2023-04-04T13:05:22.000Z</time>
      </trkpt>
      <trkpt lat="46.21977" lon="7.35688">
        <ele>528.79998779297</ele>
        <time>2023-04-04T13:05:23.000Z</time>
      </trkpt>
      <trkpt lat="46.21987" lon="7.3572">
        <ele>528.79998779297</ele>
        <time>2023-04-04T13:05:29.000Z</time>
      </trkpt>
      <trkpt lat="46.21989" lon="7.35725">
        <ele>528.79998779297</ele>
        <time>2023-04-04T13:05:30.000Z</time>
      </trkpt>
      <trkpt lat="46.21992" lon="7.35734">
        <ele>528.79998779297</ele>
        <time>2023-04-04T13:05:32.000Z</time>
      </trkpt>
      <trkpt lat="46.21996" lon="7.35743">
        <ele>528.79998779297</ele>
        <time>2023-04-04T13:05:34.000Z</time>
      </trkpt>
      <trkpt lat="46.21998" lon="7.35747">
        <ele>528.79998779297</ele>
        <time>2023-04-04T13:05:35.000Z</time>
      </trkpt>
      <trkpt lat="46.22001" lon="7.35757">
        <ele>528.79998779297</ele>
        <time>2023-04-04T13:05:38.000Z</time>
      </trkpt>
      <trkpt lat="46.22001" lon="7.35759">
        <ele>528.79998779297</ele>
        <time>2023-04-04T13:05:39.000Z</time>
      </trkpt>
      <trkpt lat="46.22001" lon="7.35759">
        <ele>528.79998779297</ele>
        <time>2023-04-04T13:05:40.000Z</time>
      </trkpt>
      <trkpt lat="46.22001" lon="7.35759">
        <ele>528.79998779297</ele>
        <time>2023-04-04T13:05:41.000Z</time>
      </trkpt>
      <trkpt lat="46.22001" lon="7.35759">
        <ele>528.79998779297</ele>
        <time>2023-04-04T13:05:42.000Z</time>
      </trkpt>
      <trkpt lat="46.22013" lon="7.35754">
        <ele>525.59997558594</ele>
        <time>2023-04-04T13:07:43.000Z</time>
      </trkpt>
      <trkpt lat="46.22017" lon="7.35751">
        <ele>525.59997558594</ele>
        <time>2023-04-04T13:07:45.000Z</time>
      </trkpt>
      <trkpt lat="46.22035" lon="7.35741">
        <ele>525.20001220703</ele>
        <time>2023-04-04T13:07:51.000Z</time>
      </trkpt>
      <trkpt lat="46.22037" lon="7.35738">
        <ele>525.20001220703</ele>
        <time>2023-04-04T13:07:52.000Z</time>
      </trkpt>
      <trkpt lat="46.22056" lon="7.35725">
        <ele>525</ele>
        <time>2023-04-04T13:07:58.000Z</time>
      </trkpt>
      <trkpt lat="46.22078" lon="7.3571">
        <ele>524.59997558594</ele>
        <time>2023-04-04T13:08:05.000Z</time>
      </trkpt>
      <trkpt lat="46.22101" lon="7.35693">
        <ele>524.40002441406</ele>
        <time>2023-04-04T13:08:12.000Z</time>
      </trkpt>
      <trkpt lat="46.22107" lon="7.35689">
        <ele>524.59997558594</ele>
        <time>2023-04-04T13:08:14.000Z</time>
      </trkpt>
      <trkpt lat="46.2211" lon="7.35687">
        <ele>524.59997558594</ele>
        <time>2023-04-04T13:08:15.000Z</time>
      </trkpt>
      <trkpt lat="46.22113" lon="7.35686">
        <ele>524.59997558594</ele>
        <time>2023-04-04T13:08:16.000Z</time>
      </trkpt>
      <trkpt lat="46.22115" lon="7.35686">
        <ele>524.59997558594</ele>
        <time>2023-04-04T13:08:17.000Z</time>
      </trkpt>
      <trkpt lat="46.22117" lon="7.35686">
        <ele>524.59997558594</ele>
        <time>2023-04-04T13:08:18.000Z</time>
      </trkpt>
      <trkpt lat="46.22119" lon="7.35686">
        <ele>524.79998779297</ele>
        <time>2023-04-04T13:08:19.000Z</time>
      </trkpt>
      <trkpt lat="46.22121" lon="7.35687">
        <ele>525</ele>
        <time>2023-04-04T13:08:20.000Z</time>
      </trkpt>
      <trkpt lat="46.22123" lon="7.35689">
        <ele>525</ele>
        <time>2023-04-04T13:08:21.000Z</time>
      </trkpt>
      <trkpt lat="46.22124" lon="7.35692">
        <ele>525</ele>
        <time>2023-04-04T13:08:22.000Z</time>
      </trkpt>
      <trkpt lat="46.22126" lon="7.35695">
        <ele>525</ele>
        <time>2023-04-04T13:08:23.000Z</time>
      </trkpt>
      <trkpt lat="46.22127" lon="7.35698">
        <ele>525</ele>
        <time>2023-04-04T13:08:24.000Z</time>
      </trkpt>
      <trkpt lat="46.22128" lon="7.35702">
        <ele>525</ele>
        <time>2023-04-04T13:08:25.000Z</time>
      </trkpt>
      <trkpt lat="46.22129" lon="7.35706">
        <ele>525</ele>
        <time>2023-04-04T13:08:26.000Z</time>
      </trkpt>
      <trkpt lat="46.22135" lon="7.35727">
        <ele>524.79998779297</ele>
        <time>2023-04-04T13:08:31.000Z</time>
      </trkpt>
      <trkpt lat="46.22145" lon="7.35749">
        <ele>524.59997558594</ele>
        <time>2023-04-04T13:08:37.000Z</time>
      </trkpt>
      <trkpt lat="46.22147" lon="7.3576">
        <ele>524.59997558594</ele>
        <time>2023-04-04T13:08:41.000Z</time>
      </trkpt>
      <trkpt lat="46.22147" lon="7.35761">
        <ele>524.59997558594</ele>
        <time>2023-04-04T13:08:42.000Z</time>
      </trkpt>
      <trkpt lat="46.22148" lon="7.35762">
        <ele>524.59997558594</ele>
        <time>2023-04-04T13:08:43.000Z</time>
      </trkpt>
      <trkpt lat="46.22149" lon="7.35764">
        <ele>524.59997558594</ele>
        <time>2023-04-04T13:08:44.000Z</time>
      </trkpt>
      <trkpt lat="46.2215" lon="7.35766">
        <ele>524.79998779297</ele>
        <time>2023-04-04T13:08:45.000Z</time>
      </trkpt>
      <trkpt lat="46.22151" lon="7.35769">
        <ele>525</ele>
        <time>2023-04-04T13:08:46.000Z</time>
      </trkpt>
      <trkpt lat="46.22155" lon="7.35779">
        <ele>525.79998779297</ele>
        <time>2023-04-04T13:08:49.000Z</time>
      </trkpt>
      <trkpt lat="46.22159" lon="7.35793">
        <ele>526</ele>
        <time>2023-04-04T13:08:52.000Z</time>
      </trkpt>
      <trkpt lat="46.22167" lon="7.35812">
        <ele>526</ele>
        <time>2023-04-04T13:08:56.000Z</time>
      </trkpt>
      <trkpt lat="46.22169" lon="7.35818">
        <ele>526</ele>
        <time>2023-04-04T13:08:57.000Z</time>
      </trkpt>
      <trkpt lat="46.22174" lon="7.35828">
        <ele>525.79998779297</ele>
        <time>2023-04-04T13:08:59.000Z</time>
      </trkpt>
      <trkpt lat="46.2219" lon="7.3587">
        <ele>525.59997558594</ele>
        <time>2023-04-04T13:09:07.000Z</time>
      </trkpt>
      <trkpt lat="46.22212" lon="7.35928">
        <ele>525.40002441406</ele>
        <time>2023-04-04T13:09:18.000Z</time>
      </trkpt>
      <trkpt lat="46.22227" lon="7.35972">
        <ele>525.59997558594</ele>
        <time>2023-04-04T13:09:26.000Z</time>
      </trkpt>
      <trkpt lat="46.22244" lon="7.36013">
        <ele>525.59997558594</ele>
        <time>2023-04-04T13:09:34.000Z</time>
      </trkpt>
      <trkpt lat="46.22246" lon="7.36017">
        <ele>525.59997558594</ele>
        <time>2023-04-04T13:09:35.000Z</time>
      </trkpt>
      <trkpt lat="46.2225" lon="7.3602">
        <ele>525.59997558594</ele>
        <time>2023-04-04T13:09:36.000Z</time>
      </trkpt>
      <trkpt lat="46.22253" lon="7.36023">
        <ele>525.59997558594</ele>
        <time>2023-04-04T13:09:37.000Z</time>
      </trkpt>
      <trkpt lat="46.22257" lon="7.36025">
        <ele>525.59997558594</ele>
        <time>2023-04-04T13:09:38.000Z</time>
      </trkpt>
      <trkpt lat="46.22261" lon="7.36026">
        <ele>525.79998779297</ele>
        <time>2023-04-04T13:09:39.000Z</time>
      </trkpt>
      <trkpt lat="46.22265" lon="7.36026">
        <ele>525.79998779297</ele>
        <time>2023-04-04T13:09:40.000Z</time>
      </trkpt>
      <trkpt lat="46.22269" lon="7.36025">
        <ele>525.79998779297</ele>
        <time>2023-04-04T13:09:41.000Z</time>
      </trkpt>
      <trkpt lat="46.22273" lon="7.36023">
        <ele>526</ele>
        <time>2023-04-04T13:09:42.000Z</time>
      </trkpt>
      <trkpt lat="46.22277" lon="7.36021">
        <ele>526.20001220703</ele>
        <time>2023-04-04T13:09:43.000Z</time>
      </trkpt>
      <trkpt lat="46.22281" lon="7.36018">
        <ele>526.20001220703</ele>
        <time>2023-04-04T13:09:44.000Z</time>
      </trkpt>
      <trkpt lat="46.22285" lon="7.36016">
        <ele>526.20001220703</ele>
        <time>2023-04-04T13:09:45.000Z</time>
      </trkpt>
      <trkpt lat="46.22298" lon="7.36009">
        <ele>526.20001220703</ele>
        <time>2023-04-04T13:09:48.000Z</time>
      </trkpt>
      <trkpt lat="46.22309" lon="7.35999">
        <ele>526.20001220703</ele>
        <time>2023-04-04T13:09:55.000Z</time>
      </trkpt>
      <trkpt lat="46.22315" lon="7.35998">
        <ele>526.20001220703</ele>
        <time>2023-04-04T13:09:56.000Z</time>
      </trkpt>
      <trkpt lat="46.22321" lon="7.35996">
        <ele>526</ele>
        <time>2023-04-04T13:09:57.000Z</time>
      </trkpt>
      <trkpt lat="46.22331" lon="7.35992">
        <ele>526</ele>
        <time>2023-04-04T13:09:59.000Z</time>
      </trkpt>
      <trkpt lat="46.22354" lon="7.35985">
        <ele>525.40002441406</ele>
        <time>2023-04-04T13:10:05.000Z</time>
      </trkpt>
      <trkpt lat="46.22357" lon="7.35986">
        <ele>525.40002441406</ele>
        <time>2023-04-04T13:10:06.000Z</time>
      </trkpt>
      <trkpt lat="46.2236" lon="7.35986">
        <ele>525.40002441406</ele>
        <time>2023-04-04T13:10:07.000Z</time>
      </trkpt>
      <trkpt lat="46.22369" lon="7.35985">
        <ele>525.79998779297</ele>
        <time>2023-04-04T13:10:10.000Z</time>
      </trkpt>
      <trkpt lat="46.22376" lon="7.35981">
        <ele>525.59997558594</ele>
        <time>2023-04-04T13:10:12.000Z</time>
      </trkpt>
      <trkpt lat="46.22379" lon="7.35978">
        <ele>525.79998779297</ele>
        <time>2023-04-04T13:10:13.000Z</time>
      </trkpt>
      <trkpt lat="46.22389" lon="7.3597">
        <ele>526.20001220703</ele>
        <time>2023-04-04T13:10:16.000Z</time>
      </trkpt>
      <trkpt lat="46.22396" lon="7.35966">
        <ele>526.20001220703</ele>
        <time>2023-04-04T13:10:18.000Z</time>
      </trkpt>
      <trkpt lat="46.22414" lon="7.35957">
        <ele>526.40002441406</ele>
        <time>2023-04-04T13:10:23.000Z</time>
      </trkpt>
      <trkpt lat="46.22431" lon="7.35949">
        <ele>526.59997558594</ele>
        <time>2023-04-04T13:10:28.000Z</time>
      </trkpt>
      <trkpt lat="46.22434" lon="7.35948">
        <ele>526.59997558594</ele>
        <time>2023-04-04T13:10:29.000Z</time>
      </trkpt>
      <trkpt lat="46.22437" lon="7.35947">
        <ele>526.59997558594</ele>
        <time>2023-04-04T13:10:30.000Z</time>
      </trkpt>
      <trkpt lat="46.22441" lon="7.35945">
        <ele>526.59997558594</ele>
        <time>2023-04-04T13:10:31.000Z</time>
      </trkpt>
      <trkpt lat="46.22447" lon="7.35941">
        <ele>526.20001220703</ele>
        <time>2023-04-04T13:10:33.000Z</time>
      </trkpt>
      <trkpt lat="46.2247" lon="7.35933">
        <ele>525.20001220703</ele>
        <time>2023-04-04T13:10:39.000Z</time>
      </trkpt>
      <trkpt lat="46.22494" lon="7.35929">
        <ele>525.20001220703</ele>
        <time>2023-04-04T13:10:45.000Z</time>
      </trkpt>
      <trkpt lat="46.22518" lon="7.35929">
        <ele>526.40002441406</ele>
        <time>2023-04-04T13:10:51.000Z</time>
      </trkpt>
      <trkpt lat="46.22534" lon="7.35931">
        <ele>527</ele>
        <time>2023-04-04T13:10:55.000Z</time>
      </trkpt>
      <trkpt lat="46.22564" lon="7.35937">
        <ele>527.79998779297</ele>
        <time>2023-04-04T13:11:03.000Z</time>
      </trkpt>
      <trkpt lat="46.22568" lon="7.35938">
        <ele>527.79998779297</ele>
        <time>2023-04-04T13:11:04.000Z</time>
      </trkpt>
      <trkpt lat="46.22572" lon="7.35939">
        <ele>528</ele>
        <time>2023-04-04T13:11:05.000Z</time>
      </trkpt>
      <trkpt lat="46.22575" lon="7.3594">
        <ele>528</ele>
        <time>2023-04-04T13:11:06.000Z</time>
      </trkpt>
      <trkpt lat="46.22579" lon="7.35941">
        <ele>528.20001220703</ele>
        <time>2023-04-04T13:11:07.000Z</time>
      </trkpt>
      <trkpt lat="46.22607" lon="7.3595">
        <ele>528.20001220703</ele>
        <time>2023-04-04T13:11:15.000Z</time>
      </trkpt>
      <trkpt lat="46.2261" lon="7.35951">
        <ele>528.20001220703</ele>
        <time>2023-04-04T13:11:16.000Z</time>
      </trkpt>
      <trkpt lat="46.22614" lon="7.35952">
        <ele>528.20001220703</ele>
        <time>2023-04-04T13:11:17.000Z</time>
      </trkpt>
      <trkpt lat="46.22623" lon="7.35951">
        <ele>527.79998779297</ele>
        <time>2023-04-04T13:11:19.000Z</time>
      </trkpt>
      <trkpt lat="46.22627" lon="7.35951">
        <ele>527.79998779297</ele>
        <time>2023-04-04T13:11:20.000Z</time>
      </trkpt>
      <trkpt lat="46.2263" lon="7.3595">
        <ele>527.79998779297</ele>
        <time>2023-04-04T13:11:21.000Z</time>
      </trkpt>
      <trkpt lat="46.22632" lon="7.35951">
        <ele>527.79998779297</ele>
        <time>2023-04-04T13:11:22.000Z</time>
      </trkpt>
      <trkpt lat="46.22633" lon="7.35952">
        <ele>527.59997558594</ele>
        <time>2023-04-04T13:11:23.000Z</time>
      </trkpt>
      <trkpt lat="46.22635" lon="7.35954">
        <ele>527.59997558594</ele>
        <time>2023-04-04T13:11:24.000Z</time>
      </trkpt>
      <trkpt lat="46.22636" lon="7.35956">
        <ele>527.59997558594</ele>
        <time>2023-04-04T13:11:25.000Z</time>
      </trkpt>
      <trkpt lat="46.22638" lon="7.35959">
        <ele>527.59997558594</ele>
        <time>2023-04-04T13:11:26.000Z</time>
      </trkpt>
      <trkpt lat="46.22639" lon="7.35962">
        <ele>527.59997558594</ele>
        <time>2023-04-04T13:11:27.000Z</time>
      </trkpt>
      <trkpt lat="46.2264" lon="7.35966">
        <ele>527.59997558594</ele>
        <time>2023-04-04T13:11:28.000Z</time>
      </trkpt>
      <trkpt lat="46.22641" lon="7.35971">
        <ele>527.79998779297</ele>
        <time>2023-04-04T13:11:29.000Z</time>
      </trkpt>
      <trkpt lat="46.22641" lon="7.35976">
        <ele>527.79998779297</ele>
        <time>2023-04-04T13:11:30.000Z</time>
      </trkpt>
      <trkpt lat="46.22642" lon="7.35981">
        <ele>527.79998779297</ele>
        <time>2023-04-04T13:11:31.000Z</time>
      </trkpt>
      <trkpt lat="46.22643" lon="7.35986">
        <ele>527.79998779297</ele>
        <time>2023-04-04T13:11:32.000Z</time>
      </trkpt>
      <trkpt lat="46.22643" lon="7.35996">
        <ele>527.79998779297</ele>
        <time>2023-04-04T13:11:34.000Z</time>
      </trkpt>
      <trkpt lat="46.22647" lon="7.36032">
        <ele>527.79998779297</ele>
        <time>2023-04-04T13:11:41.000Z</time>
      </trkpt>
      <trkpt lat="46.22654" lon="7.36078">
        <ele>527.40002441406</ele>
        <time>2023-04-04T13:11:51.000Z</time>
      </trkpt>
      <trkpt lat="46.22654" lon="7.36081">
        <ele>527.40002441406</ele>
        <time>2023-04-04T13:11:52.000Z</time>
      </trkpt>
      <trkpt lat="46.22654" lon="7.36083">
        <ele>527.40002441406</ele>
        <time>2023-04-04T13:11:53.000Z</time>
      </trkpt>
      <trkpt lat="46.22654" lon="7.36085">
        <ele>527.40002441406</ele>
        <time>2023-04-04T13:11:54.000Z</time>
      </trkpt>
      <trkpt lat="46.22654" lon="7.36086">
        <ele>527.40002441406</ele>
        <time>2023-04-04T13:11:55.000Z</time>
      </trkpt>
      <trkpt lat="46.22654" lon="7.36086">
        <ele>527.40002441406</ele>
        <time>2023-04-04T13:11:56.000Z</time>
      </trkpt>
      <trkpt lat="46.22654" lon="7.36086">
        <ele>527.40002441406</ele>
        <time>2023-04-04T13:11:57.000Z</time>
      </trkpt>
      <trkpt lat="46.22653" lon="7.36098">
        <ele>528.59997558594</ele>
        <time>2023-04-04T13:12:38.000Z</time>
      </trkpt>
      <trkpt lat="46.22655" lon="7.36105">
        <ele>528.40002441406</ele>
        <time>2023-04-04T13:12:40.000Z</time>
      </trkpt>
      <trkpt lat="46.22656" lon="7.36108">
        <ele>528.40002441406</ele>
        <time>2023-04-04T13:12:41.000Z</time>
      </trkpt>
      <trkpt lat="46.22657" lon="7.36111">
        <ele>528.40002441406</ele>
        <time>2023-04-04T13:12:42.000Z</time>
      </trkpt>
      <trkpt lat="46.22655" lon="7.36114">
        <ele>528.40002441406</ele>
        <time>2023-04-04T13:12:43.000Z</time>
      </trkpt>
      <trkpt lat="46.22655" lon="7.36117">
        <ele>528.40002441406</ele>
        <time>2023-04-04T13:12:44.000Z</time>
      </trkpt>
      <trkpt lat="46.22655" lon="7.3612">
        <ele>528.40002441406</ele>
        <time>2023-04-04T13:12:45.000Z</time>
      </trkpt>
      <trkpt lat="46.22656" lon="7.36122">
        <ele>528.40002441406</ele>
        <time>2023-04-04T13:12:46.000Z</time>
      </trkpt>
      <trkpt lat="46.22656" lon="7.36127">
        <ele>528.20001220703</ele>
        <time>2023-04-04T13:12:48.000Z</time>
      </trkpt>
      <trkpt lat="46.22656" lon="7.36128">
        <ele>528</ele>
        <time>2023-04-04T13:12:49.000Z</time>
      </trkpt>
      <trkpt lat="46.22656" lon="7.3613">
        <ele>528</ele>
        <time>2023-04-04T13:12:50.000Z</time>
      </trkpt>
      <trkpt lat="46.22657" lon="7.36132">
        <ele>528</ele>
        <time>2023-04-04T13:12:51.000Z</time>
      </trkpt>
      <trkpt lat="46.22658" lon="7.36134">
        <ele>528</ele>
        <time>2023-04-04T13:12:52.000Z</time>
      </trkpt>
      <trkpt lat="46.22659" lon="7.36136">
        <ele>527.79998779297</ele>
        <time>2023-04-04T13:12:53.000Z</time>
      </trkpt>
      <trkpt lat="46.2266" lon="7.36137">
        <ele>527.79998779297</ele>
        <time>2023-04-04T13:12:54.000Z</time>
      </trkpt>
      <trkpt lat="46.22665" lon="7.36138">
        <ele>527.79998779297</ele>
        <time>2023-04-04T13:12:57.000Z</time>
      </trkpt>
      <trkpt lat="46.22665" lon="7.36138">
        <ele>527.79998779297</ele>
        <time>2023-04-04T13:12:58.000Z</time>
      </trkpt>
      <trkpt lat="46.22667" lon="7.36139">
        <ele>527.59997558594</ele>
        <time>2023-04-04T13:12:59.000Z</time>
      </trkpt>
      <trkpt lat="46.22667" lon="7.36139">
        <ele>527.59997558594</ele>
        <time>2023-04-04T13:13:03.000Z</time>
      </trkpt>
      <trkpt lat="46.22667" lon="7.36139">
        <ele>527.59997558594</ele>
        <time>2023-04-04T13:13:04.000Z</time>
      </trkpt>
      <trkpt lat="46.22667" lon="7.36153">
        <ele>529.40002441406</ele>
        <time>2023-04-04T13:36:16.000Z</time>
      </trkpt>
      <trkpt lat="46.22667" lon="7.36156">
        <ele>529.20001220703</ele>
        <time>2023-04-04T13:36:17.000Z</time>
      </trkpt>
      <trkpt lat="46.22669" lon="7.36167">
        <ele>529</ele>
        <time>2023-04-04T13:36:20.000Z</time>
      </trkpt>
      <trkpt lat="46.2267" lon="7.36171">
        <ele>529</ele>
        <time>2023-04-04T13:36:21.000Z</time>
      </trkpt>
      <trkpt lat="46.22671" lon="7.36174">
        <ele>529.20001220703</ele>
        <time>2023-04-04T13:36:22.000Z</time>
      </trkpt>
      <trkpt lat="46.22671" lon="7.36177">
        <ele>529.20001220703</ele>
        <time>2023-04-04T13:36:23.000Z</time>
      </trkpt>
      <trkpt lat="46.22675" lon="7.36188">
        <ele>529.40002441406</ele>
        <time>2023-04-04T13:36:27.000Z</time>
      </trkpt>
      <trkpt lat="46.22676" lon="7.36191">
        <ele>529.40002441406</ele>
        <time>2023-04-04T13:36:28.000Z</time>
      </trkpt>
      <trkpt lat="46.22677" lon="7.36194">
        <ele>529.59997558594</ele>
        <time>2023-04-04T13:36:29.000Z</time>
      </trkpt>
      <trkpt lat="46.22677" lon="7.36201">
        <ele>530</ele>
        <time>2023-04-04T13:36:31.000Z</time>
      </trkpt>
      <trkpt lat="46.22677" lon="7.36205">
        <ele>530.59997558594</ele>
        <time>2023-04-04T13:36:32.000Z</time>
      </trkpt>
      <trkpt lat="46.22678" lon="7.36212">
        <ele>531.20001220703</ele>
        <time>2023-04-04T13:36:34.000Z</time>
      </trkpt>
      <trkpt lat="46.22678" lon="7.36216">
        <ele>531.20001220703</ele>
        <time>2023-04-04T13:36:35.000Z</time>
      </trkpt>
      <trkpt lat="46.22679" lon="7.36219">
        <ele>531.40002441406</ele>
        <time>2023-04-04T13:36:36.000Z</time>
      </trkpt>
      <trkpt lat="46.22681" lon="7.36222">
        <ele>531.40002441406</ele>
        <time>2023-04-04T13:36:37.000Z</time>
      </trkpt>
      <trkpt lat="46.22682" lon="7.36228">
        <ele>531.40002441406</ele>
        <time>2023-04-04T13:36:39.000Z</time>
      </trkpt>
      <trkpt lat="46.22685" lon="7.36235">
        <ele>531.40002441406</ele>
        <time>2023-04-04T13:36:41.000Z</time>
      </trkpt>
      <trkpt lat="46.22688" lon="7.36243">
        <ele>531.40002441406</ele>
        <time>2023-04-04T13:36:43.000Z</time>
      </trkpt>
      <trkpt lat="46.22692" lon="7.36252">
        <ele>531.20001220703</ele>
        <time>2023-04-04T13:36:45.000Z</time>
      </trkpt>
      <trkpt lat="46.22695" lon="7.36271">
        <ele>530.79998779297</ele>
        <time>2023-04-04T13:36:49.000Z</time>
      </trkpt>
      <trkpt lat="46.22696" lon="7.36275">
        <ele>530.59997558594</ele>
        <time>2023-04-04T13:36:50.000Z</time>
      </trkpt>
      <trkpt lat="46.22696" lon="7.3628">
        <ele>530.59997558594</ele>
        <time>2023-04-04T13:36:51.000Z</time>
      </trkpt>
      <trkpt lat="46.22696" lon="7.36284">
        <ele>530.59997558594</ele>
        <time>2023-04-04T13:36:52.000Z</time>
      </trkpt>
      <trkpt lat="46.22701" lon="7.36309">
        <ele>530</ele>
        <time>2023-04-04T13:36:57.000Z</time>
      </trkpt>
      <trkpt lat="46.22703" lon="7.36319">
        <ele>530</ele>
        <time>2023-04-04T13:36:59.000Z</time>
      </trkpt>
      <trkpt lat="46.22703" lon="7.36328">
        <ele>529.79998779297</ele>
        <time>2023-04-04T13:37:01.000Z</time>
      </trkpt>
      <trkpt lat="46.22703" lon="7.36334">
        <ele>529.79998779297</ele>
        <time>2023-04-04T13:37:02.000Z</time>
      </trkpt>
      <trkpt lat="46.22703" lon="7.36338">
        <ele>529.79998779297</ele>
        <time>2023-04-04T13:37:03.000Z</time>
      </trkpt>
      <trkpt lat="46.22703" lon="7.36347">
        <ele>530</ele>
        <time>2023-04-04T13:37:05.000Z</time>
      </trkpt>
      <trkpt lat="46.22704" lon="7.36352">
        <ele>530</ele>
        <time>2023-04-04T13:37:06.000Z</time>
      </trkpt>
      <trkpt lat="46.22705" lon="7.36362">
        <ele>530.20001220703</ele>
        <time>2023-04-04T13:37:08.000Z</time>
      </trkpt>
      <trkpt lat="46.22708" lon="7.36371">
        <ele>530.40002441406</ele>
        <time>2023-04-04T13:37:10.000Z</time>
      </trkpt>
      <trkpt lat="46.22709" lon="7.36377">
        <ele>530.40002441406</ele>
        <time>2023-04-04T13:37:11.000Z</time>
      </trkpt>
      <trkpt lat="46.22716" lon="7.36408">
        <ele>531</ele>
        <time>2023-04-04T13:37:17.000Z</time>
      </trkpt>
      <trkpt lat="46.22718" lon="7.36413">
        <ele>531.20001220703</ele>
        <time>2023-04-04T13:37:18.000Z</time>
      </trkpt>
      <trkpt lat="46.22719" lon="7.36423">
        <ele>531.79998779297</ele>
        <time>2023-04-04T13:37:20.000Z</time>
      </trkpt>
      <trkpt lat="46.2272" lon="7.36427">
        <ele>531.79998779297</ele>
        <time>2023-04-04T13:37:21.000Z</time>
      </trkpt>
      <trkpt lat="46.22721" lon="7.3643">
        <ele>532</ele>
        <time>2023-04-04T13:37:22.000Z</time>
      </trkpt>
      <trkpt lat="46.22722" lon="7.36434">
        <ele>532</ele>
        <time>2023-04-04T13:37:23.000Z</time>
      </trkpt>
      <trkpt lat="46.22722" lon="7.36438">
        <ele>532.20001220703</ele>
        <time>2023-04-04T13:37:24.000Z</time>
      </trkpt>
      <trkpt lat="46.22728" lon="7.36467">
        <ele>532.79998779297</ele>
        <time>2023-04-04T13:37:31.000Z</time>
      </trkpt>
      <trkpt lat="46.22734" lon="7.36503">
        <ele>533.20001220703</ele>
        <time>2023-04-04T13:37:39.000Z</time>
      </trkpt>
      <trkpt lat="46.22744" lon="7.36542">
        <ele>533.20001220703</ele>
        <time>2023-04-04T13:37:47.000Z</time>
      </trkpt>
      <trkpt lat="46.22746" lon="7.36564">
        <ele>532.59997558594</ele>
        <time>2023-04-04T13:37:51.000Z</time>
      </trkpt>
      <trkpt lat="46.22747" lon="7.36576">
        <ele>532.40002441406</ele>
        <time>2023-04-04T13:37:53.000Z</time>
      </trkpt>
      <trkpt lat="46.22752" lon="7.36618">
        <ele>532.20001220703</ele>
        <time>2023-04-04T13:38:00.000Z</time>
      </trkpt>
      <trkpt lat="46.22758" lon="7.36661">
        <ele>532.20001220703</ele>
        <time>2023-04-04T13:38:07.000Z</time>
      </trkpt>
      <trkpt lat="46.22761" lon="7.36672">
        <ele>532.20001220703</ele>
        <time>2023-04-04T13:38:09.000Z</time>
      </trkpt>
      <trkpt lat="46.22766" lon="7.367">
        <ele>532.20001220703</ele>
        <time>2023-04-04T13:38:14.000Z</time>
      </trkpt>
      <trkpt lat="46.22766" lon="7.36704">
        <ele>532.20001220703</ele>
        <time>2023-04-04T13:38:15.000Z</time>
      </trkpt>
      <trkpt lat="46.22766" lon="7.36709">
        <ele>532.20001220703</ele>
        <time>2023-04-04T13:38:16.000Z</time>
      </trkpt>
      <trkpt lat="46.22765" lon="7.36714">
        <ele>532.20001220703</ele>
        <time>2023-04-04T13:38:17.000Z</time>
      </trkpt>
      <trkpt lat="46.22764" lon="7.36717">
        <ele>532.20001220703</ele>
        <time>2023-04-04T13:38:18.000Z</time>
      </trkpt>
      <trkpt lat="46.22763" lon="7.3672">
        <ele>532.20001220703</ele>
        <time>2023-04-04T13:38:19.000Z</time>
      </trkpt>
      <trkpt lat="46.22762" lon="7.36722">
        <ele>532</ele>
        <time>2023-04-04T13:38:20.000Z</time>
      </trkpt>
      <trkpt lat="46.22761" lon="7.36725">
        <ele>532</ele>
        <time>2023-04-04T13:38:21.000Z</time>
      </trkpt>
      <trkpt lat="46.2276" lon="7.36727">
        <ele>532</ele>
        <time>2023-04-04T13:38:22.000Z</time>
      </trkpt>
      <trkpt lat="46.22759" lon="7.36729">
        <ele>532</ele>
        <time>2023-04-04T13:38:23.000Z</time>
      </trkpt>
      <trkpt lat="46.22758" lon="7.36731">
        <ele>532</ele>
        <time>2023-04-04T13:38:24.000Z</time>
      </trkpt>
      <trkpt lat="46.22757" lon="7.36734">
        <ele>532</ele>
        <time>2023-04-04T13:38:26.000Z</time>
      </trkpt>
      <trkpt lat="46.22757" lon="7.36734">
        <ele>532</ele>
        <time>2023-04-04T13:38:27.000Z</time>
      </trkpt>
      <trkpt lat="46.22757" lon="7.36734">
        <ele>532.40002441406</ele>
        <time>2023-04-04T13:38:28.000Z</time>
      </trkpt>
      <trkpt lat="46.22756" lon="7.36739">
        <ele>532.79998779297</ele>
        <time>2023-04-04T13:38:51.000Z</time>
      </trkpt>
      <trkpt lat="46.22755" lon="7.36745">
        <ele>532.79998779297</ele>
        <time>2023-04-04T13:38:53.000Z</time>
      </trkpt>
      <trkpt lat="46.22757" lon="7.3675">
        <ele>532.79998779297</ele>
        <time>2023-04-04T13:38:55.000Z</time>
      </trkpt>
      <trkpt lat="46.22761" lon="7.36755">
        <ele>532.79998779297</ele>
        <time>2023-04-04T13:38:57.000Z</time>
      </trkpt>
      <trkpt lat="46.22764" lon="7.36758">
        <ele>532.79998779297</ele>
        <time>2023-04-04T13:38:58.000Z</time>
      </trkpt>
      <trkpt lat="46.22766" lon="7.36762">
        <ele>532.79998779297</ele>
        <time>2023-04-04T13:38:59.000Z</time>
      </trkpt>
      <trkpt lat="46.2277" lon="7.3677">
        <ele>532.79998779297</ele>
        <time>2023-04-04T13:39:01.000Z</time>
      </trkpt>
      <trkpt lat="46.22772" lon="7.36774">
        <ele>532.79998779297</ele>
        <time>2023-04-04T13:39:02.000Z</time>
      </trkpt>
      <trkpt lat="46.22773" lon="7.36778">
        <ele>532.79998779297</ele>
        <time>2023-04-04T13:39:03.000Z</time>
      </trkpt>
      <trkpt lat="46.22783" lon="7.36804">
        <ele>532.79998779297</ele>
        <time>2023-04-04T13:39:09.000Z</time>
      </trkpt>
      <trkpt lat="46.22797" lon="7.36828">
        <ele>533</ele>
        <time>2023-04-04T13:39:15.000Z</time>
      </trkpt>
      <trkpt lat="46.22819" lon="7.36853">
        <ele>533.40002441406</ele>
        <time>2023-04-04T13:39:23.000Z</time>
      </trkpt>
      <trkpt lat="46.22822" lon="7.36855">
        <ele>533.40002441406</ele>
        <time>2023-04-04T13:39:24.000Z</time>
      </trkpt>
      <trkpt lat="46.22831" lon="7.36861">
        <ele>534</ele>
        <time>2023-04-04T13:39:27.000Z</time>
      </trkpt>
      <trkpt lat="46.22837" lon="7.36864">
        <ele>534.40002441406</ele>
        <time>2023-04-04T13:39:29.000Z</time>
      </trkpt>
      <trkpt lat="46.22843" lon="7.36867">
        <ele>534.59997558594</ele>
        <time>2023-04-04T13:39:31.000Z</time>
      </trkpt>
      <trkpt lat="46.22846" lon="7.36869">
        <ele>534.59997558594</ele>
        <time>2023-04-04T13:39:32.000Z</time>
      </trkpt>
      <trkpt lat="46.22849" lon="7.3687">
        <ele>534.79998779297</ele>
        <time>2023-04-04T13:39:33.000Z</time>
      </trkpt>
      <trkpt lat="46.22851" lon="7.36872">
        <ele>534.79998779297</ele>
        <time>2023-04-04T13:39:34.000Z</time>
      </trkpt>
      <trkpt lat="46.22853" lon="7.36873">
        <ele>535</ele>
        <time>2023-04-04T13:39:35.000Z</time>
      </trkpt>
      <trkpt lat="46.22855" lon="7.36874">
        <ele>535</ele>
        <time>2023-04-04T13:39:36.000Z</time>
      </trkpt>
      <trkpt lat="46.22857" lon="7.36876">
        <ele>535</ele>
        <time>2023-04-04T13:39:37.000Z</time>
      </trkpt>
      <trkpt lat="46.22859" lon="7.36878">
        <ele>535.20001220703</ele>
        <time>2023-04-04T13:39:38.000Z</time>
      </trkpt>
      <trkpt lat="46.22862" lon="7.3688">
        <ele>535.20001220703</ele>
        <time>2023-04-04T13:39:39.000Z</time>
      </trkpt>
      <trkpt lat="46.22875" lon="7.3689">
        <ele>535.20001220703</ele>
        <time>2023-04-04T13:39:44.000Z</time>
      </trkpt>
      <trkpt lat="46.22881" lon="7.36893">
        <ele>535.40002441406</ele>
        <time>2023-04-04T13:39:46.000Z</time>
      </trkpt>
      <trkpt lat="46.22899" lon="7.36906">
        <ele>536</ele>
        <time>2023-04-04T13:39:52.000Z</time>
      </trkpt>
      <trkpt lat="46.22909" lon="7.36915">
        <ele>536.20001220703</ele>
        <time>2023-04-04T13:39:56.000Z</time>
      </trkpt>
      <trkpt lat="46.22912" lon="7.36917">
        <ele>536.20001220703</ele>
        <time>2023-04-04T13:39:57.000Z</time>
      </trkpt>
      <trkpt lat="46.22915" lon="7.36919">
        <ele>536.40002441406</ele>
        <time>2023-04-04T13:39:58.000Z</time>
      </trkpt>
      <trkpt lat="46.22917" lon="7.3692">
        <ele>536.40002441406</ele>
        <time>2023-04-04T13:39:59.000Z</time>
      </trkpt>
      <trkpt lat="46.22919" lon="7.36921">
        <ele>536.40002441406</ele>
        <time>2023-04-04T13:40:00.000Z</time>
      </trkpt>
      <trkpt lat="46.22921" lon="7.36923">
        <ele>536.40002441406</ele>
        <time>2023-04-04T13:40:01.000Z</time>
      </trkpt>
      <trkpt lat="46.22925" lon="7.36927">
        <ele>536.20001220703</ele>
        <time>2023-04-04T13:40:03.000Z</time>
      </trkpt>
      <trkpt lat="46.22927" lon="7.36929">
        <ele>536.20001220703</ele>
        <time>2023-04-04T13:40:04.000Z</time>
      </trkpt>
      <trkpt lat="46.22933" lon="7.3693">
        <ele>536.20001220703</ele>
        <time>2023-04-04T13:40:06.000Z</time>
      </trkpt>
      <trkpt lat="46.22937" lon="7.3693">
        <ele>536.20001220703</ele>
        <time>2023-04-04T13:40:07.000Z</time>
      </trkpt>
      <trkpt lat="46.2294" lon="7.36931">
        <ele>536.20001220703</ele>
        <time>2023-04-04T13:40:08.000Z</time>
      </trkpt>
      <trkpt lat="46.22944" lon="7.36932">
        <ele>536.40002441406</ele>
        <time>2023-04-04T13:40:09.000Z</time>
      </trkpt>
      <trkpt lat="46.22958" lon="7.36936">
        <ele>536.59997558594</ele>
        <time>2023-04-04T13:40:13.000Z</time>
      </trkpt>
      <trkpt lat="46.22986" lon="7.36933">
        <ele>536.20001220703</ele>
        <time>2023-04-04T13:40:21.000Z</time>
      </trkpt>
      <trkpt lat="46.2299" lon="7.36933">
        <ele>536.20001220703</ele>
        <time>2023-04-04T13:40:22.000Z</time>
      </trkpt>
      <trkpt lat="46.23011" lon="7.36933">
        <ele>536.20001220703</ele>
        <time>2023-04-04T13:40:28.000Z</time>
      </trkpt>
      <trkpt lat="46.23021" lon="7.36933">
        <ele>536.59997558594</ele>
        <time>2023-04-04T13:40:31.000Z</time>
      </trkpt>
      <trkpt lat="46.23024" lon="7.36933">
        <ele>536.59997558594</ele>
        <time>2023-04-04T13:40:32.000Z</time>
      </trkpt>
      <trkpt lat="46.23028" lon="7.36933">
        <ele>536.59997558594</ele>
        <time>2023-04-04T13:40:33.000Z</time>
      </trkpt>
      <trkpt lat="46.23031" lon="7.36933">
        <ele>536.59997558594</ele>
        <time>2023-04-04T13:40:34.000Z</time>
      </trkpt>
      <trkpt lat="46.23035" lon="7.36933">
        <ele>536.59997558594</ele>
        <time>2023-04-04T13:40:35.000Z</time>
      </trkpt>
      <trkpt lat="46.23039" lon="7.36933">
        <ele>536.59997558594</ele>
        <time>2023-04-04T13:40:36.000Z</time>
      </trkpt>
      <trkpt lat="46.23042" lon="7.36933">
        <ele>537</ele>
        <time>2023-04-04T13:40:37.000Z</time>
      </trkpt>
      <trkpt lat="46.23053" lon="7.36933">
        <ele>537.59997558594</ele>
        <time>2023-04-04T13:40:40.000Z</time>
      </trkpt>
      <trkpt lat="46.23057" lon="7.36933">
        <ele>537.59997558594</ele>
        <time>2023-04-04T13:40:41.000Z</time>
      </trkpt>
      <trkpt lat="46.23087" lon="7.3694">
        <ele>537.79998779297</ele>
        <time>2023-04-04T13:40:49.000Z</time>
      </trkpt>
      <trkpt lat="46.23116" lon="7.36944">
        <ele>537</ele>
        <time>2023-04-04T13:40:57.000Z</time>
      </trkpt>
      <trkpt lat="46.2312" lon="7.36945">
        <ele>537</ele>
        <time>2023-04-04T13:40:58.000Z</time>
      </trkpt>
      <trkpt lat="46.23146" lon="7.3695">
        <ele>536.59997558594</ele>
        <time>2023-04-04T13:41:05.000Z</time>
      </trkpt>
      <trkpt lat="46.23153" lon="7.36952">
        <ele>536.40002441406</ele>
        <time>2023-04-04T13:41:07.000Z</time>
      </trkpt>
      <trkpt lat="46.23185" lon="7.36961">
        <ele>535.79998779297</ele>
        <time>2023-04-04T13:41:15.000Z</time>
      </trkpt>
      <trkpt lat="46.23188" lon="7.36962">
        <ele>535.79998779297</ele>
        <time>2023-04-04T13:41:16.000Z</time>
      </trkpt>
      <trkpt lat="46.2321" lon="7.36967">
        <ele>535.59997558594</ele>
        <time>2023-04-04T13:41:22.000Z</time>
      </trkpt>
      <trkpt lat="46.23214" lon="7.36968">
        <ele>535.59997558594</ele>
        <time>2023-04-04T13:41:23.000Z</time>
      </trkpt>
      <trkpt lat="46.23217" lon="7.36969">
        <ele>535.59997558594</ele>
        <time>2023-04-04T13:41:24.000Z</time>
      </trkpt>
      <trkpt lat="46.23221" lon="7.36969">
        <ele>535.59997558594</ele>
        <time>2023-04-04T13:41:25.000Z</time>
      </trkpt>
      <trkpt lat="46.23224" lon="7.3697">
        <ele>535.59997558594</ele>
        <time>2023-04-04T13:41:26.000Z</time>
      </trkpt>
      <trkpt lat="46.23227" lon="7.3697">
        <ele>535.40002441406</ele>
        <time>2023-04-04T13:41:27.000Z</time>
      </trkpt>
      <trkpt lat="46.23231" lon="7.3697">
        <ele>535.40002441406</ele>
        <time>2023-04-04T13:41:28.000Z</time>
      </trkpt>
      <trkpt lat="46.23234" lon="7.36971">
        <ele>535.40002441406</ele>
        <time>2023-04-04T13:41:29.000Z</time>
      </trkpt>
      <trkpt lat="46.23237" lon="7.36971">
        <ele>535.40002441406</ele>
        <time>2023-04-04T13:41:30.000Z</time>
      </trkpt>
      <trkpt lat="46.23241" lon="7.36972">
        <ele>535.40002441406</ele>
        <time>2023-04-04T13:41:31.000Z</time>
      </trkpt>
      <trkpt lat="46.23244" lon="7.36973">
        <ele>535.40002441406</ele>
        <time>2023-04-04T13:41:32.000Z</time>
      </trkpt>
      <trkpt lat="46.23246" lon="7.36974">
        <ele>535.40002441406</ele>
        <time>2023-04-04T13:41:33.000Z</time>
      </trkpt>
      <trkpt lat="46.23252" lon="7.36976">
        <ele>535.40002441406</ele>
        <time>2023-04-04T13:41:35.000Z</time>
      </trkpt>
      <trkpt lat="46.23254" lon="7.36977">
        <ele>535.20001220703</ele>
        <time>2023-04-04T13:41:36.000Z</time>
      </trkpt>
      <trkpt lat="46.23256" lon="7.36977">
        <ele>535.40002441406</ele>
        <time>2023-04-04T13:41:37.000Z</time>
      </trkpt>
      <trkpt lat="46.23258" lon="7.36978">
        <ele>535.40002441406</ele>
        <time>2023-04-04T13:41:38.000Z</time>
      </trkpt>
      <trkpt lat="46.23259" lon="7.3698">
        <ele>535.59997558594</ele>
        <time>2023-04-04T13:41:39.000Z</time>
      </trkpt>
      <trkpt lat="46.23259" lon="7.36982">
        <ele>535.59997558594</ele>
        <time>2023-04-04T13:41:40.000Z</time>
      </trkpt>
      <trkpt lat="46.2326" lon="7.36985">
        <ele>535.79998779297</ele>
        <time>2023-04-04T13:41:41.000Z</time>
      </trkpt>
      <trkpt lat="46.2326" lon="7.36987">
        <ele>536</ele>
        <time>2023-04-04T13:41:42.000Z</time>
      </trkpt>
      <trkpt lat="46.23259" lon="7.3699">
        <ele>536.20001220703</ele>
        <time>2023-04-04T13:41:43.000Z</time>
      </trkpt>
      <trkpt lat="46.23259" lon="7.36994">
        <ele>536.40002441406</ele>
        <time>2023-04-04T13:41:44.000Z</time>
      </trkpt>
      <trkpt lat="46.23258" lon="7.36997">
        <ele>536.40002441406</ele>
        <time>2023-04-04T13:41:45.000Z</time>
      </trkpt>
      <trkpt lat="46.23256" lon="7.37013">
        <ele>536.79998779297</ele>
        <time>2023-04-04T13:41:49.000Z</time>
      </trkpt>
      <trkpt lat="46.23255" lon="7.37017">
        <ele>536.79998779297</ele>
        <time>2023-04-04T13:41:50.000Z</time>
      </trkpt>
      <trkpt lat="46.23254" lon="7.37021">
        <ele>536.79998779297</ele>
        <time>2023-04-04T13:41:51.000Z</time>
      </trkpt>
      <trkpt lat="46.23252" lon="7.37035">
        <ele>536.40002441406</ele>
        <time>2023-04-04T13:41:54.000Z</time>
      </trkpt>
      <trkpt lat="46.23251" lon="7.37046">
        <ele>535.79998779297</ele>
        <time>2023-04-04T13:41:56.000Z</time>
      </trkpt>
      <trkpt lat="46.23249" lon="7.37061">
        <ele>535.40002441406</ele>
        <time>2023-04-04T13:42:00.000Z</time>
      </trkpt>
      <trkpt lat="46.23249" lon="7.37064">
        <ele>535.40002441406</ele>
        <time>2023-04-04T13:42:01.000Z</time>
      </trkpt>
      <trkpt lat="46.2325" lon="7.37067">
        <ele>535.40002441406</ele>
        <time>2023-04-04T13:42:02.000Z</time>
      </trkpt>
      <trkpt lat="46.23251" lon="7.37069">
        <ele>535.40002441406</ele>
        <time>2023-04-04T13:42:03.000Z</time>
      </trkpt>
      <trkpt lat="46.23253" lon="7.3707">
        <ele>535.40002441406</ele>
        <time>2023-04-04T13:42:04.000Z</time>
      </trkpt>
      <trkpt lat="46.23269" lon="7.37075">
        <ele>536.20001220703</ele>
        <time>2023-04-04T13:42:09.000Z</time>
      </trkpt>
      <trkpt lat="46.23283" lon="7.37081">
        <ele>536.20001220703</ele>
        <time>2023-04-04T13:42:13.000Z</time>
      </trkpt>
      <trkpt lat="46.23287" lon="7.37082">
        <ele>536.20001220703</ele>
        <time>2023-04-04T13:42:14.000Z</time>
      </trkpt>
      <trkpt lat="46.23298" lon="7.37086">
        <ele>536</ele>
        <time>2023-04-04T13:42:17.000Z</time>
      </trkpt>
      <trkpt lat="46.23333" lon="7.37102">
        <ele>535.79998779297</ele>
        <time>2023-04-04T13:42:26.000Z</time>
      </trkpt>
      <trkpt lat="46.23341" lon="7.37106">
        <ele>535.59997558594</ele>
        <time>2023-04-04T13:42:28.000Z</time>
      </trkpt>
      <trkpt lat="46.23367" lon="7.37118">
        <ele>535</ele>
        <time>2023-04-04T13:42:34.000Z</time>
      </trkpt>
      <trkpt lat="46.23375" lon="7.37121">
        <ele>535</ele>
        <time>2023-04-04T13:42:36.000Z</time>
      </trkpt>
      <trkpt lat="46.23391" lon="7.3713">
        <ele>535</ele>
        <time>2023-04-04T13:42:40.000Z</time>
      </trkpt>
      <trkpt lat="46.23403" lon="7.37138">
        <ele>535.40002441406</ele>
        <time>2023-04-04T13:42:43.000Z</time>
      </trkpt>
      <trkpt lat="46.23415" lon="7.37144">
        <ele>535.40002441406</ele>
        <time>2023-04-04T13:42:46.000Z</time>
      </trkpt>
      <trkpt lat="46.23419" lon="7.37146">
        <ele>535.40002441406</ele>
        <time>2023-04-04T13:42:47.000Z</time>
      </trkpt>
      <trkpt lat="46.23423" lon="7.37148">
        <ele>535.40002441406</ele>
        <time>2023-04-04T13:42:48.000Z</time>
      </trkpt>
      <trkpt lat="46.23439" lon="7.37157">
        <ele>535.40002441406</ele>
        <time>2023-04-04T13:42:52.000Z</time>
      </trkpt>
      <trkpt lat="46.23454" lon="7.37167">
        <ele>535.59997558594</ele>
        <time>2023-04-04T13:42:56.000Z</time>
      </trkpt>
      <trkpt lat="46.23458" lon="7.3717">
        <ele>535.59997558594</ele>
        <time>2023-04-04T13:42:57.000Z</time>
      </trkpt>
      <trkpt lat="46.23462" lon="7.37172">
        <ele>535.59997558594</ele>
        <time>2023-04-04T13:42:58.000Z</time>
      </trkpt>
      <trkpt lat="46.2347" lon="7.37178">
        <ele>535.79998779297</ele>
        <time>2023-04-04T13:43:00.000Z</time>
      </trkpt>
      <trkpt lat="46.23474" lon="7.3718">
        <ele>535.79998779297</ele>
        <time>2023-04-04T13:43:01.000Z</time>
      </trkpt>
      <trkpt lat="46.23485" lon="7.37187">
        <ele>536</ele>
        <time>2023-04-04T13:43:04.000Z</time>
      </trkpt>
      <trkpt lat="46.23505" lon="7.37199">
        <ele>536</ele>
        <time>2023-04-04T13:43:09.000Z</time>
      </trkpt>
      <trkpt lat="46.23524" lon="7.37213">
        <ele>536</ele>
        <time>2023-04-04T13:43:14.000Z</time>
      </trkpt>
      <trkpt lat="46.23536" lon="7.37223">
        <ele>536</ele>
        <time>2023-04-04T13:43:17.000Z</time>
      </trkpt>
      <trkpt lat="46.23551" lon="7.37234">
        <ele>536</ele>
        <time>2023-04-04T13:43:21.000Z</time>
      </trkpt>
      <trkpt lat="46.23554" lon="7.37237">
        <ele>536</ele>
        <time>2023-04-04T13:43:22.000Z</time>
      </trkpt>
      <trkpt lat="46.23562" lon="7.37243">
        <ele>536</ele>
        <time>2023-04-04T13:43:24.000Z</time>
      </trkpt>
      <trkpt lat="46.23583" lon="7.37263">
        <ele>536</ele>
        <time>2023-04-04T13:43:30.000Z</time>
      </trkpt>
      <trkpt lat="46.23586" lon="7.37267">
        <ele>536</ele>
        <time>2023-04-04T13:43:31.000Z</time>
      </trkpt>
      <trkpt lat="46.23589" lon="7.37271">
        <ele>536</ele>
        <time>2023-04-04T13:43:32.000Z</time>
      </trkpt>
      <trkpt lat="46.23596" lon="7.37278">
        <ele>536</ele>
        <time>2023-04-04T13:43:34.000Z</time>
      </trkpt>
      <trkpt lat="46.23599" lon="7.37281">
        <ele>536</ele>
        <time>2023-04-04T13:43:35.000Z</time>
      </trkpt>
      <trkpt lat="46.23602" lon="7.37285">
        <ele>536</ele>
        <time>2023-04-04T13:43:36.000Z</time>
      </trkpt>
      <trkpt lat="46.23605" lon="7.37289">
        <ele>536</ele>
        <time>2023-04-04T13:43:37.000Z</time>
      </trkpt>
      <trkpt lat="46.23608" lon="7.37292">
        <ele>536</ele>
        <time>2023-04-04T13:43:38.000Z</time>
      </trkpt>
      <trkpt lat="46.23611" lon="7.37295">
        <ele>536</ele>
        <time>2023-04-04T13:43:39.000Z</time>
      </trkpt>
      <trkpt lat="46.23614" lon="7.37298">
        <ele>536.20001220703</ele>
        <time>2023-04-04T13:43:40.000Z</time>
      </trkpt>
      <trkpt lat="46.23617" lon="7.37301">
        <ele>536.20001220703</ele>
        <time>2023-04-04T13:43:41.000Z</time>
      </trkpt>
      <trkpt lat="46.2362" lon="7.37304">
        <ele>536.20001220703</ele>
        <time>2023-04-04T13:43:42.000Z</time>
      </trkpt>
      <trkpt lat="46.23623" lon="7.37308">
        <ele>536.20001220703</ele>
        <time>2023-04-04T13:43:43.000Z</time>
      </trkpt>
      <trkpt lat="46.23626" lon="7.37312">
        <ele>536.20001220703</ele>
        <time>2023-04-04T13:43:44.000Z</time>
      </trkpt>
      <trkpt lat="46.23629" lon="7.37316">
        <ele>536.40002441406</ele>
        <time>2023-04-04T13:43:45.000Z</time>
      </trkpt>
      <trkpt lat="46.23655" lon="7.37349">
        <ele>536.59997558594</ele>
        <time>2023-04-04T13:43:53.000Z</time>
      </trkpt>
      <trkpt lat="46.23684" lon="7.37387">
        <ele>536.59997558594</ele>
        <time>2023-04-04T13:44:02.000Z</time>
      </trkpt>
      <trkpt lat="46.23714" lon="7.37424">
        <ele>536.59997558594</ele>
        <time>2023-04-04T13:44:11.000Z</time>
      </trkpt>
      <trkpt lat="46.23746" lon="7.37463">
        <ele>536.79998779297</ele>
        <time>2023-04-04T13:44:20.000Z</time>
      </trkpt>
      <trkpt lat="46.23759" lon="7.37481">
        <ele>537</ele>
        <time>2023-04-04T13:44:24.000Z</time>
      </trkpt>
      <trkpt lat="46.23771" lon="7.37493">
        <ele>537.20001220703</ele>
        <time>2023-04-04T13:44:27.000Z</time>
      </trkpt>
      <trkpt lat="46.23788" lon="7.37515">
        <ele>537.20001220703</ele>
        <time>2023-04-04T13:44:32.000Z</time>
      </trkpt>
      <trkpt lat="46.23791" lon="7.37519">
        <ele>537.20001220703</ele>
        <time>2023-04-04T13:44:33.000Z</time>
      </trkpt>
      <trkpt lat="46.23795" lon="7.37523">
        <ele>537.20001220703</ele>
        <time>2023-04-04T13:44:34.000Z</time>
      </trkpt>
      <trkpt lat="46.23798" lon="7.37526">
        <ele>537.40002441406</ele>
        <time>2023-04-04T13:44:35.000Z</time>
      </trkpt>
      <trkpt lat="46.23801" lon="7.3753">
        <ele>537.40002441406</ele>
        <time>2023-04-04T13:44:36.000Z</time>
      </trkpt>
      <trkpt lat="46.23805" lon="7.37533">
        <ele>537.40002441406</ele>
        <time>2023-04-04T13:44:37.000Z</time>
      </trkpt>
      <trkpt lat="46.23808" lon="7.37537">
        <ele>537.40002441406</ele>
        <time>2023-04-04T13:44:38.000Z</time>
      </trkpt>
      <trkpt lat="46.23816" lon="7.37546">
        <ele>537.40002441406</ele>
        <time>2023-04-04T13:44:40.000Z</time>
      </trkpt>
      <trkpt lat="46.2382" lon="7.37551">
        <ele>537.59997558594</ele>
        <time>2023-04-04T13:44:41.000Z</time>
      </trkpt>
      <trkpt lat="46.23831" lon="7.37564">
        <ele>537.59997558594</ele>
        <time>2023-04-04T13:44:44.000Z</time>
      </trkpt>
      <trkpt lat="46.23835" lon="7.37568">
        <ele>537.59997558594</ele>
        <time>2023-04-04T13:44:45.000Z</time>
      </trkpt>
      <trkpt lat="46.23847" lon="7.37581">
        <ele>537.79998779297</ele>
        <time>2023-04-04T13:44:48.000Z</time>
      </trkpt>
      <trkpt lat="46.2388" lon="7.37617">
        <ele>538</ele>
        <time>2023-04-04T13:44:57.000Z</time>
      </trkpt>
      <trkpt lat="46.23921" lon="7.3766">
        <ele>538</ele>
        <time>2023-04-04T13:45:08.000Z</time>
      </trkpt>
      <trkpt lat="46.23925" lon="7.37664">
        <ele>537.79998779297</ele>
        <time>2023-04-04T13:45:09.000Z</time>
      </trkpt>
      <trkpt lat="46.23929" lon="7.37667">
        <ele>537.79998779297</ele>
        <time>2023-04-04T13:45:10.000Z</time>
      </trkpt>
      <trkpt lat="46.23933" lon="7.37672">
        <ele>537.79998779297</ele>
        <time>2023-04-04T13:45:11.000Z</time>
      </trkpt>
      <trkpt lat="46.23956" lon="7.37698">
        <ele>537.79998779297</ele>
        <time>2023-04-04T13:45:17.000Z</time>
      </trkpt>
      <trkpt lat="46.23995" lon="7.37736">
        <ele>537.20001220703</ele>
        <time>2023-04-04T13:45:26.000Z</time>
      </trkpt>
      <trkpt lat="46.24031" lon="7.37776">
        <ele>537</ele>
        <time>2023-04-04T13:45:35.000Z</time>
      </trkpt>
      <trkpt lat="46.24035" lon="7.3778">
        <ele>537</ele>
        <time>2023-04-04T13:45:36.000Z</time>
      </trkpt>
      <trkpt lat="46.24047" lon="7.37792">
        <ele>537</ele>
        <time>2023-04-04T13:45:39.000Z</time>
      </trkpt>
      <trkpt lat="46.2405" lon="7.37796">
        <ele>537</ele>
        <time>2023-04-04T13:45:40.000Z</time>
      </trkpt>
      <trkpt lat="46.24053" lon="7.37799">
        <ele>537</ele>
        <time>2023-04-04T13:45:41.000Z</time>
      </trkpt>
      <trkpt lat="46.24057" lon="7.37802">
        <ele>536.79998779297</ele>
        <time>2023-04-04T13:45:42.000Z</time>
      </trkpt>
      <trkpt lat="46.2406" lon="7.37805">
        <ele>536.79998779297</ele>
        <time>2023-04-04T13:45:43.000Z</time>
      </trkpt>
      <trkpt lat="46.24063" lon="7.37808">
        <ele>536.79998779297</ele>
        <time>2023-04-04T13:45:44.000Z</time>
      </trkpt>
      <trkpt lat="46.24067" lon="7.3781">
        <ele>536.79998779297</ele>
        <time>2023-04-04T13:45:45.000Z</time>
      </trkpt>
      <trkpt lat="46.2407" lon="7.37813">
        <ele>537</ele>
        <time>2023-04-04T13:45:46.000Z</time>
      </trkpt>
      <trkpt lat="46.24083" lon="7.37829">
        <ele>537.20001220703</ele>
        <time>2023-04-04T13:45:50.000Z</time>
      </trkpt>
      <trkpt lat="46.24114" lon="7.37859">
        <ele>537.40002441406</ele>
        <time>2023-04-04T13:45:58.000Z</time>
      </trkpt>
      <trkpt lat="46.24152" lon="7.37902">
        <ele>537.59997558594</ele>
        <time>2023-04-04T13:46:08.000Z</time>
      </trkpt>
      <trkpt lat="46.2417" lon="7.37923">
        <ele>537.59997558594</ele>
        <time>2023-04-04T13:46:13.000Z</time>
      </trkpt>
      <trkpt lat="46.24178" lon="7.37931">
        <ele>537.40002441406</ele>
        <time>2023-04-04T13:46:15.000Z</time>
      </trkpt>
      <trkpt lat="46.24189" lon="7.37944">
        <ele>537.40002441406</ele>
        <time>2023-04-04T13:46:18.000Z</time>
      </trkpt>
      <trkpt lat="46.24211" lon="7.3797">
        <ele>537.40002441406</ele>
        <time>2023-04-04T13:46:24.000Z</time>
      </trkpt>
      <trkpt lat="46.24218" lon="7.37979">
        <ele>537.40002441406</ele>
        <time>2023-04-04T13:46:26.000Z</time>
      </trkpt>
      <trkpt lat="46.24221" lon="7.37984">
        <ele>537.59997558594</ele>
        <time>2023-04-04T13:46:27.000Z</time>
      </trkpt>
      <trkpt lat="46.24229" lon="7.37992">
        <ele>537.59997558594</ele>
        <time>2023-04-04T13:46:29.000Z</time>
      </trkpt>
      <trkpt lat="46.2424" lon="7.38006">
        <ele>537.59997558594</ele>
        <time>2023-04-04T13:46:32.000Z</time>
      </trkpt>
      <trkpt lat="46.24246" lon="7.38013">
        <ele>537.79998779297</ele>
        <time>2023-04-04T13:46:34.000Z</time>
      </trkpt>
      <trkpt lat="46.2425" lon="7.38017">
        <ele>537.79998779297</ele>
        <time>2023-04-04T13:46:35.000Z</time>
      </trkpt>
      <trkpt lat="46.24256" lon="7.38024">
        <ele>537.79998779297</ele>
        <time>2023-04-04T13:46:37.000Z</time>
      </trkpt>
      <trkpt lat="46.24259" lon="7.38028">
        <ele>537.79998779297</ele>
        <time>2023-04-04T13:46:38.000Z</time>
      </trkpt>
      <trkpt lat="46.24263" lon="7.38032">
        <ele>537.59997558594</ele>
        <time>2023-04-04T13:46:39.000Z</time>
      </trkpt>
      <trkpt lat="46.24266" lon="7.38036">
        <ele>537.59997558594</ele>
        <time>2023-04-04T13:46:40.000Z</time>
      </trkpt>
      <trkpt lat="46.24269" lon="7.3804">
        <ele>537.59997558594</ele>
        <time>2023-04-04T13:46:41.000Z</time>
      </trkpt>
      <trkpt lat="46.24273" lon="7.38044">
        <ele>537.79998779297</ele>
        <time>2023-04-04T13:46:42.000Z</time>
      </trkpt>
      <trkpt lat="46.24276" lon="7.38049">
        <ele>537.79998779297</ele>
        <time>2023-04-04T13:46:43.000Z</time>
      </trkpt>
      <trkpt lat="46.24284" lon="7.38064">
        <ele>537.79998779297</ele>
        <time>2023-04-04T13:46:46.000Z</time>
      </trkpt>
      <trkpt lat="46.24294" lon="7.38084">
        <ele>538</ele>
        <time>2023-04-04T13:46:50.000Z</time>
      </trkpt>
      <trkpt lat="46.24298" lon="7.38093">
        <ele>538.20001220703</ele>
        <time>2023-04-04T13:46:52.000Z</time>
      </trkpt>
      <trkpt lat="46.243" lon="7.38099">
        <ele>538.40002441406</ele>
        <time>2023-04-04T13:46:53.000Z</time>
      </trkpt>
      <trkpt lat="46.24322" lon="7.38144">
        <ele>538.40002441406</ele>
        <time>2023-04-04T13:47:02.000Z</time>
      </trkpt>
      <trkpt lat="46.24325" lon="7.38148">
        <ele>538.40002441406</ele>
        <time>2023-04-04T13:47:03.000Z</time>
      </trkpt>
      <trkpt lat="46.24327" lon="7.38153">
        <ele>538.40002441406</ele>
        <time>2023-04-04T13:47:04.000Z</time>
      </trkpt>
      <trkpt lat="46.24329" lon="7.38158">
        <ele>538.40002441406</ele>
        <time>2023-04-04T13:47:05.000Z</time>
      </trkpt>
      <trkpt lat="46.24331" lon="7.38163">
        <ele>538.20001220703</ele>
        <time>2023-04-04T13:47:06.000Z</time>
      </trkpt>
      <trkpt lat="46.24333" lon="7.38168">
        <ele>538.20001220703</ele>
        <time>2023-04-04T13:47:07.000Z</time>
      </trkpt>
      <trkpt lat="46.24335" lon="7.38173">
        <ele>538.20001220703</ele>
        <time>2023-04-04T13:47:08.000Z</time>
      </trkpt>
      <trkpt lat="46.24337" lon="7.38178">
        <ele>538.20001220703</ele>
        <time>2023-04-04T13:47:09.000Z</time>
      </trkpt>
      <trkpt lat="46.24356" lon="7.38221">
        <ele>538.40002441406</ele>
        <time>2023-04-04T13:47:17.000Z</time>
      </trkpt>
      <trkpt lat="46.24364" lon="7.38249">
        <ele>538.59997558594</ele>
        <time>2023-04-04T13:47:22.000Z</time>
      </trkpt>
      <trkpt lat="46.24364" lon="7.3826">
        <ele>538.79998779297</ele>
        <time>2023-04-04T13:47:24.000Z</time>
      </trkpt>
      <trkpt lat="46.24364" lon="7.38265">
        <ele>538.79998779297</ele>
        <time>2023-04-04T13:47:25.000Z</time>
      </trkpt>
      <trkpt lat="46.24364" lon="7.38271">
        <ele>538.79998779297</ele>
        <time>2023-04-04T13:47:26.000Z</time>
      </trkpt>
      <trkpt lat="46.24364" lon="7.38276">
        <ele>538.79998779297</ele>
        <time>2023-04-04T13:47:27.000Z</time>
      </trkpt>
      <trkpt lat="46.24364" lon="7.38282">
        <ele>538.79998779297</ele>
        <time>2023-04-04T13:47:28.000Z</time>
      </trkpt>
      <trkpt lat="46.24364" lon="7.38293">
        <ele>538.79998779297</ele>
        <time>2023-04-04T13:47:30.000Z</time>
      </trkpt>
      <trkpt lat="46.24365" lon="7.38298">
        <ele>538.79998779297</ele>
        <time>2023-04-04T13:47:31.000Z</time>
      </trkpt>
      <trkpt lat="46.24368" lon="7.38301">
        <ele>539</ele>
        <time>2023-04-04T13:47:32.000Z</time>
      </trkpt>
      <trkpt lat="46.2437" lon="7.38303">
        <ele>538.79998779297</ele>
        <time>2023-04-04T13:47:33.000Z</time>
      </trkpt>
      <trkpt lat="46.24373" lon="7.38304">
        <ele>538.79998779297</ele>
        <time>2023-04-04T13:47:34.000Z</time>
      </trkpt>
      <trkpt lat="46.24376" lon="7.38305">
        <ele>538.79998779297</ele>
        <time>2023-04-04T13:47:35.000Z</time>
      </trkpt>
      <trkpt lat="46.24378" lon="7.38307">
        <ele>538.79998779297</ele>
        <time>2023-04-04T13:47:36.000Z</time>
      </trkpt>
      <trkpt lat="46.24389" lon="7.38316">
        <ele>538.59997558594</ele>
        <time>2023-04-04T13:47:40.000Z</time>
      </trkpt>
      <trkpt lat="46.24394" lon="7.38328">
        <ele>538.40002441406</ele>
        <time>2023-04-04T13:47:43.000Z</time>
      </trkpt>
      <trkpt lat="46.24394" lon="7.38333">
        <ele>538.40002441406</ele>
        <time>2023-04-04T13:47:44.000Z</time>
      </trkpt>
      <trkpt lat="46.24396" lon="7.38338">
        <ele>538.40002441406</ele>
        <time>2023-04-04T13:47:45.000Z</time>
      </trkpt>
      <trkpt lat="46.24397" lon="7.38342">
        <ele>538.20001220703</ele>
        <time>2023-04-04T13:47:46.000Z</time>
      </trkpt>
      <trkpt lat="46.24402" lon="7.38363">
        <ele>538.20001220703</ele>
        <time>2023-04-04T13:47:50.000Z</time>
      </trkpt>
      <trkpt lat="46.24404" lon="7.38375">
        <ele>538.20001220703</ele>
        <time>2023-04-04T13:47:52.000Z</time>
      </trkpt>
      <trkpt lat="46.24407" lon="7.38393">
        <ele>538.20001220703</ele>
        <time>2023-04-04T13:47:55.000Z</time>
      </trkpt>
      <trkpt lat="46.24408" lon="7.38399">
        <ele>538.20001220703</ele>
        <time>2023-04-04T13:47:56.000Z</time>
      </trkpt>
      <trkpt lat="46.24414" lon="7.38425">
        <ele>538.40002441406</ele>
        <time>2023-04-04T13:48:00.000Z</time>
      </trkpt>
      <trkpt lat="46.24418" lon="7.38451">
        <ele>538.59997558594</ele>
        <time>2023-04-04T13:48:04.000Z</time>
      </trkpt>
      <trkpt lat="46.24419" lon="7.3847">
        <ele>538.59997558594</ele>
        <time>2023-04-04T13:48:07.000Z</time>
      </trkpt>
      <trkpt lat="46.24422" lon="7.385">
        <ele>538.59997558594</ele>
        <time>2023-04-04T13:48:11.000Z</time>
      </trkpt>
      <trkpt lat="46.24424" lon="7.38526">
        <ele>538.59997558594</ele>
        <time>2023-04-04T13:48:15.000Z</time>
      </trkpt>
      <trkpt lat="46.24429" lon="7.38548">
        <ele>538.40002441406</ele>
        <time>2023-04-04T13:48:18.000Z</time>
      </trkpt>
      <trkpt lat="46.2443" lon="7.38554">
        <ele>538.40002441406</ele>
        <time>2023-04-04T13:48:19.000Z</time>
      </trkpt>
      <trkpt lat="46.24433" lon="7.38573">
        <ele>538.40002441406</ele>
        <time>2023-04-04T13:48:22.000Z</time>
      </trkpt>
      <trkpt lat="46.24437" lon="7.38613">
        <ele>537.79998779297</ele>
        <time>2023-04-04T13:48:28.000Z</time>
      </trkpt>
      <trkpt lat="46.24439" lon="7.3864">
        <ele>537.79998779297</ele>
        <time>2023-04-04T13:48:32.000Z</time>
      </trkpt>
      <trkpt lat="46.24443" lon="7.38673">
        <ele>538</ele>
        <time>2023-04-04T13:48:37.000Z</time>
      </trkpt>
      <trkpt lat="46.24444" lon="7.3868">
        <ele>538</ele>
        <time>2023-04-04T13:48:38.000Z</time>
      </trkpt>
      <trkpt lat="46.24444" lon="7.38686">
        <ele>538</ele>
        <time>2023-04-04T13:48:39.000Z</time>
      </trkpt>
      <trkpt lat="46.24444" lon="7.38692">
        <ele>538</ele>
        <time>2023-04-04T13:48:40.000Z</time>
      </trkpt>
      <trkpt lat="46.24447" lon="7.38728">
        <ele>538</ele>
        <time>2023-04-04T13:48:45.000Z</time>
      </trkpt>
      <trkpt lat="46.24447" lon="7.38735">
        <ele>538</ele>
        <time>2023-04-04T13:48:46.000Z</time>
      </trkpt>
      <trkpt lat="46.24451" lon="7.38778">
        <ele>538</ele>
        <time>2023-04-04T13:48:52.000Z</time>
      </trkpt>
      <trkpt lat="46.24453" lon="7.38826">
        <ele>538</ele>
        <time>2023-04-04T13:48:59.000Z</time>
      </trkpt>
      <trkpt lat="46.24453" lon="7.38847">
        <ele>538</ele>
        <time>2023-04-04T13:49:02.000Z</time>
      </trkpt>
      <trkpt lat="46.24453" lon="7.38854">
        <ele>538</ele>
        <time>2023-04-04T13:49:03.000Z</time>
      </trkpt>
      <trkpt lat="46.24452" lon="7.3886">
        <ele>537.79998779297</ele>
        <time>2023-04-04T13:49:04.000Z</time>
      </trkpt>
      <trkpt lat="46.24452" lon="7.38867">
        <ele>537.79998779297</ele>
        <time>2023-04-04T13:49:05.000Z</time>
      </trkpt>
      <trkpt lat="46.24452" lon="7.38875">
        <ele>537.79998779297</ele>
        <time>2023-04-04T13:49:06.000Z</time>
      </trkpt>
      <trkpt lat="46.24452" lon="7.38882">
        <ele>537.79998779297</ele>
        <time>2023-04-04T13:49:07.000Z</time>
      </trkpt>
      <trkpt lat="46.24452" lon="7.38887">
        <ele>537.79998779297</ele>
        <time>2023-04-04T13:49:08.000Z</time>
      </trkpt>
      <trkpt lat="46.24451" lon="7.38895">
        <ele>537.79998779297</ele>
        <time>2023-04-04T13:49:09.000Z</time>
      </trkpt>
      <trkpt lat="46.24451" lon="7.38902">
        <ele>537.79998779297</ele>
        <time>2023-04-04T13:49:10.000Z</time>
      </trkpt>
      <trkpt lat="46.24449" lon="7.38915">
        <ele>537.79998779297</ele>
        <time>2023-04-04T13:49:12.000Z</time>
      </trkpt>
      <trkpt lat="46.24449" lon="7.38921">
        <ele>537.79998779297</ele>
        <time>2023-04-04T13:49:13.000Z</time>
      </trkpt>
      <trkpt lat="46.24448" lon="7.38928">
        <ele>537.79998779297</ele>
        <time>2023-04-04T13:49:14.000Z</time>
      </trkpt>
      <trkpt lat="46.24449" lon="7.38934">
        <ele>537.59997558594</ele>
        <time>2023-04-04T13:49:15.000Z</time>
      </trkpt>
      <trkpt lat="46.24451" lon="7.3894">
        <ele>537.59997558594</ele>
        <time>2023-04-04T13:49:16.000Z</time>
      </trkpt>
      <trkpt lat="46.24451" lon="7.38945">
        <ele>537.59997558594</ele>
        <time>2023-04-04T13:49:17.000Z</time>
      </trkpt>
      <trkpt lat="46.2445" lon="7.38971">
        <ele>537.59997558594</ele>
        <time>2023-04-04T13:49:21.000Z</time>
      </trkpt>
      <trkpt lat="46.2445" lon="7.38984">
        <ele>537.59997558594</ele>
        <time>2023-04-04T13:49:23.000Z</time>
      </trkpt>
      <trkpt lat="46.24448" lon="7.3902">
        <ele>537.59997558594</ele>
        <time>2023-04-04T13:49:29.000Z</time>
      </trkpt>
      <trkpt lat="46.24446" lon="7.39078">
        <ele>537.79998779297</ele>
        <time>2023-04-04T13:49:38.000Z</time>
      </trkpt>
      <trkpt lat="46.24446" lon="7.39158">
        <ele>538.79998779297</ele>
        <time>2023-04-04T13:49:50.000Z</time>
      </trkpt>
      <trkpt lat="46.24445" lon="7.39172">
        <ele>539.20001220703</ele>
        <time>2023-04-04T13:49:52.000Z</time>
      </trkpt>
      <trkpt lat="46.24446" lon="7.39184">
        <ele>539.40002441406</ele>
        <time>2023-04-04T13:49:54.000Z</time>
      </trkpt>
      <trkpt lat="46.24446" lon="7.39197">
        <ele>539.40002441406</ele>
        <time>2023-04-04T13:49:56.000Z</time>
      </trkpt>
      <trkpt lat="46.24445" lon="7.39211">
        <ele>539</ele>
        <time>2023-04-04T13:49:58.000Z</time>
      </trkpt>
      <trkpt lat="46.24441" lon="7.39264">
        <ele>538.59997558594</ele>
        <time>2023-04-04T13:50:06.000Z</time>
      </trkpt>
      <trkpt lat="46.24436" lon="7.39309">
        <ele>538.40002441406</ele>
        <time>2023-04-04T13:50:13.000Z</time>
      </trkpt>
      <trkpt lat="46.24434" lon="7.39336">
        <ele>538.59997558594</ele>
        <time>2023-04-04T13:50:17.000Z</time>
      </trkpt>
      <trkpt lat="46.24433" lon="7.39348">
        <ele>538.79998779297</ele>
        <time>2023-04-04T13:50:19.000Z</time>
      </trkpt>
      <trkpt lat="46.24433" lon="7.39361">
        <ele>539</ele>
        <time>2023-04-04T13:50:21.000Z</time>
      </trkpt>
      <trkpt lat="46.24432" lon="7.39367">
        <ele>539</ele>
        <time>2023-04-04T13:50:22.000Z</time>
      </trkpt>
      <trkpt lat="46.24432" lon="7.39373">
        <ele>539.20001220703</ele>
        <time>2023-04-04T13:50:23.000Z</time>
      </trkpt>
      <trkpt lat="46.24432" lon="7.39379">
        <ele>539.20001220703</ele>
        <time>2023-04-04T13:50:24.000Z</time>
      </trkpt>
      <trkpt lat="46.24432" lon="7.39385">
        <ele>539.20001220703</ele>
        <time>2023-04-04T13:50:25.000Z</time>
      </trkpt>
      <trkpt lat="46.24431" lon="7.39391">
        <ele>539.40002441406</ele>
        <time>2023-04-04T13:50:26.000Z</time>
      </trkpt>
      <trkpt lat="46.24431" lon="7.39398">
        <ele>539.40002441406</ele>
        <time>2023-04-04T13:50:27.000Z</time>
      </trkpt>
      <trkpt lat="46.2443" lon="7.39417">
        <ele>539.20001220703</ele>
        <time>2023-04-04T13:50:30.000Z</time>
      </trkpt>
      <trkpt lat="46.2443" lon="7.39424">
        <ele>539.20001220703</ele>
        <time>2023-04-04T13:50:31.000Z</time>
      </trkpt>
      <trkpt lat="46.2443" lon="7.3943">
        <ele>539.20001220703</ele>
        <time>2023-04-04T13:50:32.000Z</time>
      </trkpt>
      <trkpt lat="46.2443" lon="7.39436">
        <ele>539.20001220703</ele>
        <time>2023-04-04T13:50:33.000Z</time>
      </trkpt>
      <trkpt lat="46.2443" lon="7.39441">
        <ele>539.20001220703</ele>
        <time>2023-04-04T13:50:34.000Z</time>
      </trkpt>
      <trkpt lat="46.2443" lon="7.39447">
        <ele>539.20001220703</ele>
        <time>2023-04-04T13:50:35.000Z</time>
      </trkpt>
      <trkpt lat="46.2443" lon="7.39453">
        <ele>539.20001220703</ele>
        <time>2023-04-04T13:50:36.000Z</time>
      </trkpt>
      <trkpt lat="46.2443" lon="7.39459">
        <ele>539.20001220703</ele>
        <time>2023-04-04T13:50:37.000Z</time>
      </trkpt>
      <trkpt lat="46.2443" lon="7.39464">
        <ele>539.20001220703</ele>
        <time>2023-04-04T13:50:38.000Z</time>
      </trkpt>
      <trkpt lat="46.2443" lon="7.39469">
        <ele>539.20001220703</ele>
        <time>2023-04-04T13:50:39.000Z</time>
      </trkpt>
      <trkpt lat="46.2443" lon="7.39475">
        <ele>539.40002441406</ele>
        <time>2023-04-04T13:50:40.000Z</time>
      </trkpt>
      <trkpt lat="46.24429" lon="7.39489">
        <ele>539.59997558594</ele>
        <time>2023-04-04T13:50:42.000Z</time>
      </trkpt>
      <trkpt lat="46.2443" lon="7.39506">
        <ele>539.59997558594</ele>
        <time>2023-04-04T13:50:45.000Z</time>
      </trkpt>
      <trkpt lat="46.24431" lon="7.39541">
        <ele>540</ele>
        <time>2023-04-04T13:50:50.000Z</time>
      </trkpt>
      <trkpt lat="46.24431" lon="7.39594">
        <ele>540.20001220703</ele>
        <time>2023-04-04T13:50:58.000Z</time>
      </trkpt>
      <trkpt lat="46.24431" lon="7.39664">
        <ele>540.20001220703</ele>
        <time>2023-04-04T13:51:08.000Z</time>
      </trkpt>
      <trkpt lat="46.24432" lon="7.39725">
        <ele>539.79998779297</ele>
        <time>2023-04-04T13:51:17.000Z</time>
      </trkpt>
      <trkpt lat="46.24433" lon="7.3976">
        <ele>539.59997558594</ele>
        <time>2023-04-04T13:51:22.000Z</time>
      </trkpt>
      <trkpt lat="46.24433" lon="7.39787">
        <ele>539.59997558594</ele>
        <time>2023-04-04T13:51:26.000Z</time>
      </trkpt>
      <trkpt lat="46.24433" lon="7.39793">
        <ele>539.59997558594</ele>
        <time>2023-04-04T13:51:27.000Z</time>
      </trkpt>
      <trkpt lat="46.24433" lon="7.398">
        <ele>539.59997558594</ele>
        <time>2023-04-04T13:51:28.000Z</time>
      </trkpt>
      <trkpt lat="46.24433" lon="7.39807">
        <ele>539.59997558594</ele>
        <time>2023-04-04T13:51:29.000Z</time>
      </trkpt>
      <trkpt lat="46.24433" lon="7.39813">
        <ele>539.79998779297</ele>
        <time>2023-04-04T13:51:30.000Z</time>
      </trkpt>
      <trkpt lat="46.24432" lon="7.39819">
        <ele>539.79998779297</ele>
        <time>2023-04-04T13:51:31.000Z</time>
      </trkpt>
      <trkpt lat="46.24432" lon="7.39825">
        <ele>539.79998779297</ele>
        <time>2023-04-04T13:51:32.000Z</time>
      </trkpt>
      <trkpt lat="46.24432" lon="7.39831">
        <ele>539.79998779297</ele>
        <time>2023-04-04T13:51:33.000Z</time>
      </trkpt>
      <trkpt lat="46.24431" lon="7.39838">
        <ele>539.79998779297</ele>
        <time>2023-04-04T13:51:34.000Z</time>
      </trkpt>
      <trkpt lat="46.24431" lon="7.39845">
        <ele>539.79998779297</ele>
        <time>2023-04-04T13:51:35.000Z</time>
      </trkpt>
      <trkpt lat="46.24428" lon="7.39884">
        <ele>539.79998779297</ele>
        <time>2023-04-04T13:51:41.000Z</time>
      </trkpt>
      <trkpt lat="46.24428" lon="7.39907">
        <ele>540</ele>
        <time>2023-04-04T13:51:45.000Z</time>
      </trkpt>
      <trkpt lat="46.24428" lon="7.39914">
        <ele>540.20001220703</ele>
        <time>2023-04-04T13:51:46.000Z</time>
      </trkpt>
      <trkpt lat="46.24428" lon="7.3992">
        <ele>540.20001220703</ele>
        <time>2023-04-04T13:51:47.000Z</time>
      </trkpt>
      <trkpt lat="46.24423" lon="7.39969">
        <ele>540.20001220703</ele>
        <time>2023-04-04T13:51:54.000Z</time>
      </trkpt>
      <trkpt lat="46.24418" lon="7.40026">
        <ele>540</ele>
        <time>2023-04-04T13:52:02.000Z</time>
      </trkpt>
      <trkpt lat="46.24415" lon="7.40072">
        <ele>540</ele>
        <time>2023-04-04T13:52:09.000Z</time>
      </trkpt>
      <trkpt lat="46.24414" lon="7.40085">
        <ele>540</ele>
        <time>2023-04-04T13:52:11.000Z</time>
      </trkpt>
      <trkpt lat="46.24413" lon="7.40092">
        <ele>540</ele>
        <time>2023-04-04T13:52:12.000Z</time>
      </trkpt>
      <trkpt lat="46.24413" lon="7.40099">
        <ele>540</ele>
        <time>2023-04-04T13:52:13.000Z</time>
      </trkpt>
      <trkpt lat="46.24413" lon="7.40105">
        <ele>540</ele>
        <time>2023-04-04T13:52:14.000Z</time>
      </trkpt>
      <trkpt lat="46.24413" lon="7.40112">
        <ele>539.79998779297</ele>
        <time>2023-04-04T13:52:15.000Z</time>
      </trkpt>
      <trkpt lat="46.24411" lon="7.40132">
        <ele>540</ele>
        <time>2023-04-04T13:52:18.000Z</time>
      </trkpt>
      <trkpt lat="46.24411" lon="7.40145">
        <ele>540</ele>
        <time>2023-04-04T13:52:20.000Z</time>
      </trkpt>
      <trkpt lat="46.24411" lon="7.40151">
        <ele>540</ele>
        <time>2023-04-04T13:52:21.000Z</time>
      </trkpt>
      <trkpt lat="46.2441" lon="7.40158">
        <ele>540</ele>
        <time>2023-04-04T13:52:22.000Z</time>
      </trkpt>
      <trkpt lat="46.2441" lon="7.40165">
        <ele>540</ele>
        <time>2023-04-04T13:52:23.000Z</time>
      </trkpt>
      <trkpt lat="46.24407" lon="7.40214">
        <ele>540.20001220703</ele>
        <time>2023-04-04T13:52:30.000Z</time>
      </trkpt>
      <trkpt lat="46.24405" lon="7.40254">
        <ele>540.20001220703</ele>
        <time>2023-04-04T13:52:36.000Z</time>
      </trkpt>
      <trkpt lat="46.24405" lon="7.4026">
        <ele>540.20001220703</ele>
        <time>2023-04-04T13:52:37.000Z</time>
      </trkpt>
      <trkpt lat="46.24404" lon="7.40267">
        <ele>540.20001220703</ele>
        <time>2023-04-04T13:52:38.000Z</time>
      </trkpt>
      <trkpt lat="46.24404" lon="7.40273">
        <ele>540.20001220703</ele>
        <time>2023-04-04T13:52:39.000Z</time>
      </trkpt>
      <trkpt lat="46.24403" lon="7.40279">
        <ele>540.20001220703</ele>
        <time>2023-04-04T13:52:40.000Z</time>
      </trkpt>
      <trkpt lat="46.24403" lon="7.40284">
        <ele>540.20001220703</ele>
        <time>2023-04-04T13:52:41.000Z</time>
      </trkpt>
      <trkpt lat="46.24402" lon="7.4029">
        <ele>540.20001220703</ele>
        <time>2023-04-04T13:52:42.000Z</time>
      </trkpt>
      <trkpt lat="46.24402" lon="7.40296">
        <ele>540.40002441406</ele>
        <time>2023-04-04T13:52:43.000Z</time>
      </trkpt>
      <trkpt lat="46.24401" lon="7.40303">
        <ele>540.40002441406</ele>
        <time>2023-04-04T13:52:44.000Z</time>
      </trkpt>
      <trkpt lat="46.24401" lon="7.40309">
        <ele>540.40002441406</ele>
        <time>2023-04-04T13:52:45.000Z</time>
      </trkpt>
      <trkpt lat="46.244" lon="7.40322">
        <ele>540.40002441406</ele>
        <time>2023-04-04T13:52:47.000Z</time>
      </trkpt>
      <trkpt lat="46.24393" lon="7.40372">
        <ele>540</ele>
        <time>2023-04-04T13:52:55.000Z</time>
      </trkpt>
      <trkpt lat="46.24392" lon="7.40379">
        <ele>540</ele>
        <time>2023-04-04T13:52:56.000Z</time>
      </trkpt>
      <trkpt lat="46.24385" lon="7.40432">
        <ele>539.79998779297</ele>
        <time>2023-04-04T13:53:04.000Z</time>
      </trkpt>
      <trkpt lat="46.24383" lon="7.40452">
        <ele>539.59997558594</ele>
        <time>2023-04-04T13:53:07.000Z</time>
      </trkpt>
      <trkpt lat="46.2438" lon="7.40486">
        <ele>539.59997558594</ele>
        <time>2023-04-04T13:53:12.000Z</time>
      </trkpt>
      <trkpt lat="46.2438" lon="7.40492">
        <ele>539.59997558594</ele>
        <time>2023-04-04T13:53:13.000Z</time>
      </trkpt>
      <trkpt lat="46.24379" lon="7.40499">
        <ele>539.59997558594</ele>
        <time>2023-04-04T13:53:14.000Z</time>
      </trkpt>
      <trkpt lat="46.24374" lon="7.40531">
        <ele>539.59997558594</ele>
        <time>2023-04-04T13:53:19.000Z</time>
      </trkpt>
      <trkpt lat="46.24372" lon="7.40544">
        <ele>539.40002441406</ele>
        <time>2023-04-04T13:53:21.000Z</time>
      </trkpt>
      <trkpt lat="46.24359" lon="7.40587">
        <ele>539.40002441406</ele>
        <time>2023-04-04T13:53:28.000Z</time>
      </trkpt>
      <trkpt lat="46.24353" lon="7.40599">
        <ele>539.40002441406</ele>
        <time>2023-04-04T13:53:30.000Z</time>
      </trkpt>
      <trkpt lat="46.24346" lon="7.40612">
        <ele>539.40002441406</ele>
        <time>2023-04-04T13:53:32.000Z</time>
      </trkpt>
      <trkpt lat="46.24335" lon="7.40634">
        <ele>539.20001220703</ele>
        <time>2023-04-04T13:53:35.000Z</time>
      </trkpt>
      <trkpt lat="46.24327" lon="7.40651">
        <ele>538.79998779297</ele>
        <time>2023-04-04T13:53:37.000Z</time>
      </trkpt>
      <trkpt lat="46.24322" lon="7.40659">
        <ele>538.79998779297</ele>
        <time>2023-04-04T13:53:38.000Z</time>
      </trkpt>
      <trkpt lat="46.24319" lon="7.40667">
        <ele>538.40002441406</ele>
        <time>2023-04-04T13:53:39.000Z</time>
      </trkpt>
      <trkpt lat="46.24315" lon="7.40675">
        <ele>538.20001220703</ele>
        <time>2023-04-04T13:53:40.000Z</time>
      </trkpt>
      <trkpt lat="46.24312" lon="7.40684">
        <ele>538</ele>
        <time>2023-04-04T13:53:41.000Z</time>
      </trkpt>
      <trkpt lat="46.24308" lon="7.40691">
        <ele>537.79998779297</ele>
        <time>2023-04-04T13:53:42.000Z</time>
      </trkpt>
      <trkpt lat="46.24305" lon="7.40698">
        <ele>537.79998779297</ele>
        <time>2023-04-04T13:53:43.000Z</time>
      </trkpt>
      <trkpt lat="46.24301" lon="7.40704">
        <ele>537.59997558594</ele>
        <time>2023-04-04T13:53:44.000Z</time>
      </trkpt>
      <trkpt lat="46.24298" lon="7.40709">
        <ele>537.59997558594</ele>
        <time>2023-04-04T13:53:45.000Z</time>
      </trkpt>
      <trkpt lat="46.24296" lon="7.40715">
        <ele>537.40002441406</ele>
        <time>2023-04-04T13:53:46.000Z</time>
      </trkpt>
      <trkpt lat="46.24293" lon="7.4072">
        <ele>537.40002441406</ele>
        <time>2023-04-04T13:53:47.000Z</time>
      </trkpt>
      <trkpt lat="46.24291" lon="7.40724">
        <ele>537.20001220703</ele>
        <time>2023-04-04T13:53:48.000Z</time>
      </trkpt>
      <trkpt lat="46.24289" lon="7.40728">
        <ele>537.20001220703</ele>
        <time>2023-04-04T13:53:49.000Z</time>
      </trkpt>
      <trkpt lat="46.24286" lon="7.40732">
        <ele>537.20001220703</ele>
        <time>2023-04-04T13:53:50.000Z</time>
      </trkpt>
      <trkpt lat="46.24284" lon="7.40737">
        <ele>537.20001220703</ele>
        <time>2023-04-04T13:53:51.000Z</time>
      </trkpt>
      <trkpt lat="46.24282" lon="7.40741">
        <ele>537.20001220703</ele>
        <time>2023-04-04T13:53:52.000Z</time>
      </trkpt>
      <trkpt lat="46.24281" lon="7.40745">
        <ele>537.20001220703</ele>
        <time>2023-04-04T13:53:53.000Z</time>
      </trkpt>
      <trkpt lat="46.24279" lon="7.40748">
        <ele>537.20001220703</ele>
        <time>2023-04-04T13:53:54.000Z</time>
      </trkpt>
      <trkpt lat="46.24278" lon="7.40752">
        <ele>537.20001220703</ele>
        <time>2023-04-04T13:53:55.000Z</time>
      </trkpt>
      <trkpt lat="46.24276" lon="7.40756">
        <ele>537.40002441406</ele>
        <time>2023-04-04T13:53:56.000Z</time>
      </trkpt>
      <trkpt lat="46.24272" lon="7.40766">
        <ele>537.79998779297</ele>
        <time>2023-04-04T13:53:59.000Z</time>
      </trkpt>
      <trkpt lat="46.2427" lon="7.40769">
        <ele>537.79998779297</ele>
        <time>2023-04-04T13:54:00.000Z</time>
      </trkpt>
      <trkpt lat="46.24269" lon="7.40772">
        <ele>538.20001220703</ele>
        <time>2023-04-04T13:54:01.000Z</time>
      </trkpt>
      <trkpt lat="46.24267" lon="7.40775">
        <ele>538.20001220703</ele>
        <time>2023-04-04T13:54:02.000Z</time>
      </trkpt>
      <trkpt lat="46.24266" lon="7.40778">
        <ele>538.40002441406</ele>
        <time>2023-04-04T13:54:03.000Z</time>
      </trkpt>
      <trkpt lat="46.24264" lon="7.40781">
        <ele>538.59997558594</ele>
        <time>2023-04-04T13:54:04.000Z</time>
      </trkpt>
      <trkpt lat="46.24263" lon="7.40784">
        <ele>538.59997558594</ele>
        <time>2023-04-04T13:54:05.000Z</time>
      </trkpt>
      <trkpt lat="46.24261" lon="7.40787">
        <ele>538.79998779297</ele>
        <time>2023-04-04T13:54:06.000Z</time>
      </trkpt>
      <trkpt lat="46.2426" lon="7.4079">
        <ele>539</ele>
        <time>2023-04-04T13:54:07.000Z</time>
      </trkpt>
      <trkpt lat="46.24258" lon="7.40792">
        <ele>539.20001220703</ele>
        <time>2023-04-04T13:54:08.000Z</time>
      </trkpt>
      <trkpt lat="46.24257" lon="7.40795">
        <ele>539.40002441406</ele>
        <time>2023-04-04T13:54:09.000Z</time>
      </trkpt>
      <trkpt lat="46.24256" lon="7.40798">
        <ele>539.79998779297</ele>
        <time>2023-04-04T13:54:10.000Z</time>
      </trkpt>
      <trkpt lat="46.24255" lon="7.40801">
        <ele>539.79998779297</ele>
        <time>2023-04-04T13:54:11.000Z</time>
      </trkpt>
      <trkpt lat="46.24254" lon="7.40804">
        <ele>540.20001220703</ele>
        <time>2023-04-04T13:54:12.000Z</time>
      </trkpt>
      <trkpt lat="46.24252" lon="7.40807">
        <ele>540.20001220703</ele>
        <time>2023-04-04T13:54:13.000Z</time>
      </trkpt>
      <trkpt lat="46.2425" lon="7.40813">
        <ele>540.40002441406</ele>
        <time>2023-04-04T13:54:15.000Z</time>
      </trkpt>
      <trkpt lat="46.24247" lon="7.40817">
        <ele>540.40002441406</ele>
        <time>2023-04-04T13:54:17.000Z</time>
      </trkpt>
      <trkpt lat="46.24245" lon="7.40819">
        <ele>540.40002441406</ele>
        <time>2023-04-04T13:54:18.000Z</time>
      </trkpt>
      <trkpt lat="46.24244" lon="7.40822">
        <ele>540.40002441406</ele>
        <time>2023-04-04T13:54:19.000Z</time>
      </trkpt>
      <trkpt lat="46.24242" lon="7.40825">
        <ele>540.40002441406</ele>
        <time>2023-04-04T13:54:20.000Z</time>
      </trkpt>
      <trkpt lat="46.24239" lon="7.40828">
        <ele>540.40002441406</ele>
        <time>2023-04-04T13:54:21.000Z</time>
      </trkpt>
      <trkpt lat="46.24238" lon="7.40831">
        <ele>540.40002441406</ele>
        <time>2023-04-04T13:54:22.000Z</time>
      </trkpt>
      <trkpt lat="46.24235" lon="7.40836">
        <ele>540.40002441406</ele>
        <time>2023-04-04T13:54:23.000Z</time>
      </trkpt>
      <trkpt lat="46.24233" lon="7.4084">
        <ele>540.40002441406</ele>
        <time>2023-04-04T13:54:24.000Z</time>
      </trkpt>
      <trkpt lat="46.24228" lon="7.40847">
        <ele>540.40002441406</ele>
        <time>2023-04-04T13:54:26.000Z</time>
      </trkpt>
      <trkpt lat="46.24223" lon="7.40856">
        <ele>540.40002441406</ele>
        <time>2023-04-04T13:54:28.000Z</time>
      </trkpt>
      <trkpt lat="46.24203" lon="7.40892">
        <ele>540.20001220703</ele>
        <time>2023-04-04T13:54:36.000Z</time>
      </trkpt>
      <trkpt lat="46.24197" lon="7.40902">
        <ele>540.20001220703</ele>
        <time>2023-04-04T13:54:38.000Z</time>
      </trkpt>
      <trkpt lat="46.24176" lon="7.40947">
        <ele>540.79998779297</ele>
        <time>2023-04-04T13:54:47.000Z</time>
      </trkpt>
      <trkpt lat="46.2417" lon="7.40963">
        <ele>541.20001220703</ele>
        <time>2023-04-04T13:54:50.000Z</time>
      </trkpt>
      <trkpt lat="46.24169" lon="7.40968">
        <ele>541.40002441406</ele>
        <time>2023-04-04T13:54:51.000Z</time>
      </trkpt>
      <trkpt lat="46.24165" lon="7.40977">
        <ele>541</ele>
        <time>2023-04-04T13:54:53.000Z</time>
      </trkpt>
      <trkpt lat="46.24164" lon="7.40983">
        <ele>541</ele>
        <time>2023-04-04T13:54:54.000Z</time>
      </trkpt>
      <trkpt lat="46.24162" lon="7.40988">
        <ele>541</ele>
        <time>2023-04-04T13:54:55.000Z</time>
      </trkpt>
      <trkpt lat="46.24142" lon="7.41024">
        <ele>541.59997558594</ele>
        <time>2023-04-04T13:55:02.000Z</time>
      </trkpt>
      <trkpt lat="46.24128" lon="7.41046">
        <ele>542</ele>
        <time>2023-04-04T13:55:06.000Z</time>
      </trkpt>
      <trkpt lat="46.2412" lon="7.41056">
        <ele>542</ele>
        <time>2023-04-04T13:55:08.000Z</time>
      </trkpt>
      <trkpt lat="46.24117" lon="7.4106">
        <ele>542</ele>
        <time>2023-04-04T13:55:09.000Z</time>
      </trkpt>
      <trkpt lat="46.24101" lon="7.41085">
        <ele>542.20001220703</ele>
        <time>2023-04-04T13:55:14.000Z</time>
      </trkpt>
      <trkpt lat="46.24098" lon="7.4109">
        <ele>542.20001220703</ele>
        <time>2023-04-04T13:55:15.000Z</time>
      </trkpt>
      <trkpt lat="46.24094" lon="7.41094">
        <ele>542.20001220703</ele>
        <time>2023-04-04T13:55:16.000Z</time>
      </trkpt>
      <trkpt lat="46.24092" lon="7.41099">
        <ele>542.20001220703</ele>
        <time>2023-04-04T13:55:17.000Z</time>
      </trkpt>
      <trkpt lat="46.24088" lon="7.41104">
        <ele>542.40002441406</ele>
        <time>2023-04-04T13:55:18.000Z</time>
      </trkpt>
      <trkpt lat="46.24086" lon="7.41108">
        <ele>542.40002441406</ele>
        <time>2023-04-04T13:55:19.000Z</time>
      </trkpt>
      <trkpt lat="46.24083" lon="7.41113">
        <ele>542.59997558594</ele>
        <time>2023-04-04T13:55:20.000Z</time>
      </trkpt>
      <trkpt lat="46.24079" lon="7.41117">
        <ele>542.59997558594</ele>
        <time>2023-04-04T13:55:21.000Z</time>
      </trkpt>
      <trkpt lat="46.24076" lon="7.41122">
        <ele>542.59997558594</ele>
        <time>2023-04-04T13:55:22.000Z</time>
      </trkpt>
      <trkpt lat="46.2407" lon="7.41131">
        <ele>542.79998779297</ele>
        <time>2023-04-04T13:55:24.000Z</time>
      </trkpt>
      <trkpt lat="46.24068" lon="7.41135">
        <ele>543</ele>
        <time>2023-04-04T13:55:25.000Z</time>
      </trkpt>
      <trkpt lat="46.24065" lon="7.4114">
        <ele>543</ele>
        <time>2023-04-04T13:55:26.000Z</time>
      </trkpt>
      <trkpt lat="46.24064" lon="7.41145">
        <ele>543.20001220703</ele>
        <time>2023-04-04T13:55:27.000Z</time>
      </trkpt>
      <trkpt lat="46.24062" lon="7.41148">
        <ele>543.20001220703</ele>
        <time>2023-04-04T13:55:28.000Z</time>
      </trkpt>
      <trkpt lat="46.2406" lon="7.41151">
        <ele>543.20001220703</ele>
        <time>2023-04-04T13:55:29.000Z</time>
      </trkpt>
      <trkpt lat="46.24058" lon="7.41155">
        <ele>543.20001220703</ele>
        <time>2023-04-04T13:55:30.000Z</time>
      </trkpt>
      <trkpt lat="46.24057" lon="7.4116">
        <ele>543.20001220703</ele>
        <time>2023-04-04T13:55:31.000Z</time>
      </trkpt>
      <trkpt lat="46.24049" lon="7.41175">
        <ele>543.20001220703</ele>
        <time>2023-04-04T13:55:34.000Z</time>
      </trkpt>
      <trkpt lat="46.24045" lon="7.41186">
        <ele>543.20001220703</ele>
        <time>2023-04-04T13:55:36.000Z</time>
      </trkpt>
      <trkpt lat="46.24039" lon="7.41197">
        <ele>542.79998779297</ele>
        <time>2023-04-04T13:55:38.000Z</time>
      </trkpt>
      <trkpt lat="46.24036" lon="7.41204">
        <ele>542.79998779297</ele>
        <time>2023-04-04T13:55:39.000Z</time>
      </trkpt>
      <trkpt lat="46.24034" lon="7.4121">
        <ele>542.79998779297</ele>
        <time>2023-04-04T13:55:40.000Z</time>
      </trkpt>
      <trkpt lat="46.24032" lon="7.41215">
        <ele>542.59997558594</ele>
        <time>2023-04-04T13:55:41.000Z</time>
      </trkpt>
      <trkpt lat="46.24025" lon="7.4124">
        <ele>542.59997558594</ele>
        <time>2023-04-04T13:55:45.000Z</time>
      </trkpt>
      <trkpt lat="46.24013" lon="7.41282">
        <ele>542.40002441406</ele>
        <time>2023-04-04T13:55:52.000Z</time>
      </trkpt>
      <trkpt lat="46.24008" lon="7.41301">
        <ele>542.40002441406</ele>
        <time>2023-04-04T13:55:55.000Z</time>
      </trkpt>
      <trkpt lat="46.24003" lon="7.41319">
        <ele>542.20001220703</ele>
        <time>2023-04-04T13:55:58.000Z</time>
      </trkpt>
      <trkpt lat="46.24002" lon="7.41324">
        <ele>542.20001220703</ele>
        <time>2023-04-04T13:55:59.000Z</time>
      </trkpt>
      <trkpt lat="46.23999" lon="7.4133">
        <ele>542.20001220703</ele>
        <time>2023-04-04T13:56:00.000Z</time>
      </trkpt>
      <trkpt lat="46.23998" lon="7.41334">
        <ele>542.20001220703</ele>
        <time>2023-04-04T13:56:01.000Z</time>
      </trkpt>
      <trkpt lat="46.23992" lon="7.41351">
        <ele>542</ele>
        <time>2023-04-04T13:56:04.000Z</time>
      </trkpt>
      <trkpt lat="46.2398" lon="7.41408">
        <ele>542.20001220703</ele>
        <time>2023-04-04T13:56:13.000Z</time>
      </trkpt>
      <trkpt lat="46.23976" lon="7.41426">
        <ele>542.20001220703</ele>
        <time>2023-04-04T13:56:16.000Z</time>
      </trkpt>
      <trkpt lat="46.23975" lon="7.41432">
        <ele>542.20001220703</ele>
        <time>2023-04-04T13:56:17.000Z</time>
      </trkpt>
      <trkpt lat="46.23974" lon="7.41438">
        <ele>542.20001220703</ele>
        <time>2023-04-04T13:56:18.000Z</time>
      </trkpt>
      <trkpt lat="46.23973" lon="7.41444">
        <ele>542.20001220703</ele>
        <time>2023-04-04T13:56:19.000Z</time>
      </trkpt>
      <trkpt lat="46.23972" lon="7.4145">
        <ele>542.20001220703</ele>
        <time>2023-04-04T13:56:20.000Z</time>
      </trkpt>
      <trkpt lat="46.23971" lon="7.41456">
        <ele>542.20001220703</ele>
        <time>2023-04-04T13:56:21.000Z</time>
      </trkpt>
      <trkpt lat="46.23971" lon="7.41463">
        <ele>542.20001220703</ele>
        <time>2023-04-04T13:56:22.000Z</time>
      </trkpt>
      <trkpt lat="46.2397" lon="7.41469">
        <ele>542.20001220703</ele>
        <time>2023-04-04T13:56:23.000Z</time>
      </trkpt>
      <trkpt lat="46.2397" lon="7.41475">
        <ele>542.20001220703</ele>
        <time>2023-04-04T13:56:24.000Z</time>
      </trkpt>
      <trkpt lat="46.23969" lon="7.41481">
        <ele>542.20001220703</ele>
        <time>2023-04-04T13:56:25.000Z</time>
      </trkpt>
      <trkpt lat="46.23967" lon="7.41488">
        <ele>542.40002441406</ele>
        <time>2023-04-04T13:56:26.000Z</time>
      </trkpt>
      <trkpt lat="46.23964" lon="7.41502">
        <ele>542.40002441406</ele>
        <time>2023-04-04T13:56:28.000Z</time>
      </trkpt>
      <trkpt lat="46.23964" lon="7.41507">
        <ele>542.40002441406</ele>
        <time>2023-04-04T13:56:29.000Z</time>
      </trkpt>
      <trkpt lat="46.23962" lon="7.41519">
        <ele>542.59997558594</ele>
        <time>2023-04-04T13:56:31.000Z</time>
      </trkpt>
      <trkpt lat="46.23961" lon="7.41527">
        <ele>542.59997558594</ele>
        <time>2023-04-04T13:56:32.000Z</time>
      </trkpt>
      <trkpt lat="46.2396" lon="7.41533">
        <ele>542.59997558594</ele>
        <time>2023-04-04T13:56:33.000Z</time>
      </trkpt>
      <trkpt lat="46.23959" lon="7.41542">
        <ele>542.59997558594</ele>
        <time>2023-04-04T13:56:34.000Z</time>
      </trkpt>
      <trkpt lat="46.23958" lon="7.41549">
        <ele>542.59997558594</ele>
        <time>2023-04-04T13:56:35.000Z</time>
      </trkpt>
      <trkpt lat="46.23957" lon="7.41568">
        <ele>542.59997558594</ele>
        <time>2023-04-04T13:56:38.000Z</time>
      </trkpt>
      <trkpt lat="46.23956" lon="7.41575">
        <ele>542.59997558594</ele>
        <time>2023-04-04T13:56:39.000Z</time>
      </trkpt>
      <trkpt lat="46.23951" lon="7.41616">
        <ele>542.40002441406</ele>
        <time>2023-04-04T13:56:45.000Z</time>
      </trkpt>
      <trkpt lat="46.23952" lon="7.41662">
        <ele>542.40002441406</ele>
        <time>2023-04-04T13:56:52.000Z</time>
      </trkpt>
      <trkpt lat="46.2395" lon="7.41669">
        <ele>542.40002441406</ele>
        <time>2023-04-04T13:56:53.000Z</time>
      </trkpt>
      <trkpt lat="46.23949" lon="7.41676">
        <ele>542.40002441406</ele>
        <time>2023-04-04T13:56:54.000Z</time>
      </trkpt>
      <trkpt lat="46.23949" lon="7.41689">
        <ele>542.40002441406</ele>
        <time>2023-04-04T13:56:56.000Z</time>
      </trkpt>
      <trkpt lat="46.23949" lon="7.41707">
        <ele>542.40002441406</ele>
        <time>2023-04-04T13:56:59.000Z</time>
      </trkpt>
      <trkpt lat="46.23949" lon="7.41713">
        <ele>542.40002441406</ele>
        <time>2023-04-04T13:57:00.000Z</time>
      </trkpt>
      <trkpt lat="46.23953" lon="7.41739">
        <ele>542.40002441406</ele>
        <time>2023-04-04T13:57:04.000Z</time>
      </trkpt>
      <trkpt lat="46.23956" lon="7.41752">
        <ele>542.40002441406</ele>
        <time>2023-04-04T13:57:06.000Z</time>
      </trkpt>
      <trkpt lat="46.23959" lon="7.4177">
        <ele>542.59997558594</ele>
        <time>2023-04-04T13:57:09.000Z</time>
      </trkpt>
      <trkpt lat="46.23966" lon="7.41814">
        <ele>542.59997558594</ele>
        <time>2023-04-04T13:57:16.000Z</time>
      </trkpt>
      <trkpt lat="46.23973" lon="7.41868">
        <ele>542.59997558594</ele>
        <time>2023-04-04T13:57:24.000Z</time>
      </trkpt>
      <trkpt lat="46.23974" lon="7.41874">
        <ele>542.59997558594</ele>
        <time>2023-04-04T13:57:25.000Z</time>
      </trkpt>
      <trkpt lat="46.23977" lon="7.41885">
        <ele>542.59997558594</ele>
        <time>2023-04-04T13:57:27.000Z</time>
      </trkpt>
      <trkpt lat="46.23978" lon="7.41891">
        <ele>542.59997558594</ele>
        <time>2023-04-04T13:57:28.000Z</time>
      </trkpt>
      <trkpt lat="46.23979" lon="7.41897">
        <ele>542.59997558594</ele>
        <time>2023-04-04T13:57:29.000Z</time>
      </trkpt>
      <trkpt lat="46.2398" lon="7.41903">
        <ele>542.59997558594</ele>
        <time>2023-04-04T13:57:30.000Z</time>
      </trkpt>
      <trkpt lat="46.23982" lon="7.41908">
        <ele>542.59997558594</ele>
        <time>2023-04-04T13:57:31.000Z</time>
      </trkpt>
      <trkpt lat="46.23983" lon="7.41914">
        <ele>542.59997558594</ele>
        <time>2023-04-04T13:57:32.000Z</time>
      </trkpt>
      <trkpt lat="46.23984" lon="7.41919">
        <ele>542.79998779297</ele>
        <time>2023-04-04T13:57:33.000Z</time>
      </trkpt>
      <trkpt lat="46.23986" lon="7.41924">
        <ele>542.79998779297</ele>
        <time>2023-04-04T13:57:34.000Z</time>
      </trkpt>
      <trkpt lat="46.23988" lon="7.4193">
        <ele>542.79998779297</ele>
        <time>2023-04-04T13:57:35.000Z</time>
      </trkpt>
      <trkpt lat="46.23991" lon="7.41942">
        <ele>542.79998779297</ele>
        <time>2023-04-04T13:57:37.000Z</time>
      </trkpt>
      <trkpt lat="46.23995" lon="7.41962">
        <ele>543</ele>
        <time>2023-04-04T13:57:40.000Z</time>
      </trkpt>
      <trkpt lat="46.23999" lon="7.41974">
        <ele>543</ele>
        <time>2023-04-04T13:57:42.000Z</time>
      </trkpt>
      <trkpt lat="46.24008" lon="7.42006">
        <ele>543.20001220703</ele>
        <time>2023-04-04T13:57:47.000Z</time>
      </trkpt>
      <trkpt lat="46.24018" lon="7.42039">
        <ele>543.20001220703</ele>
        <time>2023-04-04T13:57:52.000Z</time>
      </trkpt>
      <trkpt lat="46.24022" lon="7.42052">
        <ele>543.40002441406</ele>
        <time>2023-04-04T13:57:54.000Z</time>
      </trkpt>
      <trkpt lat="46.24024" lon="7.42058">
        <ele>543.40002441406</ele>
        <time>2023-04-04T13:57:55.000Z</time>
      </trkpt>
      <trkpt lat="46.2403" lon="7.4207">
        <ele>543.40002441406</ele>
        <time>2023-04-04T13:57:57.000Z</time>
      </trkpt>
      <trkpt lat="46.24033" lon="7.42083">
        <ele>543.20001220703</ele>
        <time>2023-04-04T13:57:59.000Z</time>
      </trkpt>
      <trkpt lat="46.24041" lon="7.421">
        <ele>543.20001220703</ele>
        <time>2023-04-04T13:58:02.000Z</time>
      </trkpt>
      <trkpt lat="46.24049" lon="7.42118">
        <ele>543.20001220703</ele>
        <time>2023-04-04T13:58:05.000Z</time>
      </trkpt>
      <trkpt lat="46.24052" lon="7.42123">
        <ele>543.20001220703</ele>
        <time>2023-04-04T13:58:06.000Z</time>
      </trkpt>
      <trkpt lat="46.24055" lon="7.42128">
        <ele>543.40002441406</ele>
        <time>2023-04-04T13:58:07.000Z</time>
      </trkpt>
      <trkpt lat="46.2406" lon="7.42138">
        <ele>543.20001220703</ele>
        <time>2023-04-04T13:58:09.000Z</time>
      </trkpt>
      <trkpt lat="46.24062" lon="7.42143">
        <ele>543.20001220703</ele>
        <time>2023-04-04T13:58:10.000Z</time>
      </trkpt>
      <trkpt lat="46.24064" lon="7.42147">
        <ele>543.20001220703</ele>
        <time>2023-04-04T13:58:11.000Z</time>
      </trkpt>
      <trkpt lat="46.24066" lon="7.42152">
        <ele>543.40002441406</ele>
        <time>2023-04-04T13:58:12.000Z</time>
      </trkpt>
      <trkpt lat="46.24077" lon="7.4217">
        <ele>543.20001220703</ele>
        <time>2023-04-04T13:58:16.000Z</time>
      </trkpt>
      <trkpt lat="46.24085" lon="7.42184">
        <ele>543.20001220703</ele>
        <time>2023-04-04T13:58:19.000Z</time>
      </trkpt>
      <trkpt lat="46.24093" lon="7.42199">
        <ele>543</ele>
        <time>2023-04-04T13:58:22.000Z</time>
      </trkpt>
      <trkpt lat="46.24097" lon="7.42203">
        <ele>543</ele>
        <time>2023-04-04T13:58:23.000Z</time>
      </trkpt>
      <trkpt lat="46.24103" lon="7.42216">
        <ele>542.79998779297</ele>
        <time>2023-04-04T13:58:25.000Z</time>
      </trkpt>
      <trkpt lat="46.24107" lon="7.42219">
        <ele>542.79998779297</ele>
        <time>2023-04-04T13:58:26.000Z</time>
      </trkpt>
      <trkpt lat="46.2411" lon="7.42223">
        <ele>542.79998779297</ele>
        <time>2023-04-04T13:58:27.000Z</time>
      </trkpt>
      <trkpt lat="46.24113" lon="7.42227">
        <ele>542.79998779297</ele>
        <time>2023-04-04T13:58:28.000Z</time>
      </trkpt>
      <trkpt lat="46.24115" lon="7.42231">
        <ele>543</ele>
        <time>2023-04-04T13:58:29.000Z</time>
      </trkpt>
      <trkpt lat="46.24117" lon="7.42235">
        <ele>543.20001220703</ele>
        <time>2023-04-04T13:58:30.000Z</time>
      </trkpt>
      <trkpt lat="46.2412" lon="7.42239">
        <ele>543.20001220703</ele>
        <time>2023-04-04T13:58:31.000Z</time>
      </trkpt>
      <trkpt lat="46.24127" lon="7.42251">
        <ele>543.20001220703</ele>
        <time>2023-04-04T13:58:34.000Z</time>
      </trkpt>
      <trkpt lat="46.24131" lon="7.42259">
        <ele>543.40002441406</ele>
        <time>2023-04-04T13:58:36.000Z</time>
      </trkpt>
      <trkpt lat="46.24134" lon="7.42263">
        <ele>543.59997558594</ele>
        <time>2023-04-04T13:58:37.000Z</time>
      </trkpt>
      <trkpt lat="46.24146" lon="7.42286">
        <ele>543.79998779297</ele>
        <time>2023-04-04T13:58:42.000Z</time>
      </trkpt>
      <trkpt lat="46.24151" lon="7.42297">
        <ele>543.79998779297</ele>
        <time>2023-04-04T13:58:44.000Z</time>
      </trkpt>
      <trkpt lat="46.24161" lon="7.42317">
        <ele>543.79998779297</ele>
        <time>2023-04-04T13:58:48.000Z</time>
      </trkpt>
      <trkpt lat="46.24169" lon="7.42331">
        <ele>543.79998779297</ele>
        <time>2023-04-04T13:58:51.000Z</time>
      </trkpt>
      <trkpt lat="46.24172" lon="7.42335">
        <ele>543.79998779297</ele>
        <time>2023-04-04T13:58:52.000Z</time>
      </trkpt>
      <trkpt lat="46.2418" lon="7.42349">
        <ele>544</ele>
        <time>2023-04-04T13:58:55.000Z</time>
      </trkpt>
      <trkpt lat="46.24183" lon="7.42353">
        <ele>544</ele>
        <time>2023-04-04T13:58:56.000Z</time>
      </trkpt>
      <trkpt lat="46.24204" lon="7.42385">
        <ele>544</ele>
        <time>2023-04-04T13:59:03.000Z</time>
      </trkpt>
      <trkpt lat="46.24218" lon="7.42407">
        <ele>544</ele>
        <time>2023-04-04T13:59:08.000Z</time>
      </trkpt>
      <trkpt lat="46.24234" lon="7.4243">
        <ele>544</ele>
        <time>2023-04-04T13:59:13.000Z</time>
      </trkpt>
      <trkpt lat="46.24259" lon="7.42466">
        <ele>544</ele>
        <time>2023-04-04T13:59:21.000Z</time>
      </trkpt>
      <trkpt lat="46.24281" lon="7.42503">
        <ele>544.20001220703</ele>
        <time>2023-04-04T13:59:29.000Z</time>
      </trkpt>
      <trkpt lat="46.24284" lon="7.42507">
        <ele>544.20001220703</ele>
        <time>2023-04-04T13:59:30.000Z</time>
      </trkpt>
      <trkpt lat="46.2431" lon="7.42549">
        <ele>544.59997558594</ele>
        <time>2023-04-04T13:59:39.000Z</time>
      </trkpt>
      <trkpt lat="46.24313" lon="7.42554">
        <ele>544.59997558594</ele>
        <time>2023-04-04T13:59:40.000Z</time>
      </trkpt>
      <trkpt lat="46.24322" lon="7.42568">
        <ele>544.79998779297</ele>
        <time>2023-04-04T13:59:43.000Z</time>
      </trkpt>
      <trkpt lat="46.24332" lon="7.42582">
        <ele>544.79998779297</ele>
        <time>2023-04-04T13:59:46.000Z</time>
      </trkpt>
      <trkpt lat="46.24335" lon="7.42587">
        <ele>544.79998779297</ele>
        <time>2023-04-04T13:59:47.000Z</time>
      </trkpt>
      <trkpt lat="46.24362" lon="7.42627">
        <ele>544.59997558594</ele>
        <time>2023-04-04T13:59:56.000Z</time>
      </trkpt>
      <trkpt lat="46.24365" lon="7.42631">
        <ele>544.59997558594</ele>
        <time>2023-04-04T13:59:57.000Z</time>
      </trkpt>
      <trkpt lat="46.24367" lon="7.42635">
        <ele>544.59997558594</ele>
        <time>2023-04-04T13:59:58.000Z</time>
      </trkpt>
      <trkpt lat="46.2437" lon="7.42639">
        <ele>544.59997558594</ele>
        <time>2023-04-04T13:59:59.000Z</time>
      </trkpt>
      <trkpt lat="46.24373" lon="7.42644">
        <ele>544.59997558594</ele>
        <time>2023-04-04T14:00:00.000Z</time>
      </trkpt>
      <trkpt lat="46.24376" lon="7.42648">
        <ele>544.59997558594</ele>
        <time>2023-04-04T14:00:01.000Z</time>
      </trkpt>
      <trkpt lat="46.24379" lon="7.42653">
        <ele>544.59997558594</ele>
        <time>2023-04-04T14:00:02.000Z</time>
      </trkpt>
      <trkpt lat="46.24382" lon="7.42657">
        <ele>544.59997558594</ele>
        <time>2023-04-04T14:00:03.000Z</time>
      </trkpt>
      <trkpt lat="46.24407" lon="7.42697">
        <ele>544.79998779297</ele>
        <time>2023-04-04T14:00:12.000Z</time>
      </trkpt>
      <trkpt lat="46.2443" lon="7.42731">
        <ele>544.59997558594</ele>
        <time>2023-04-04T14:00:20.000Z</time>
      </trkpt>
      <trkpt lat="46.24455" lon="7.42768">
        <ele>544.79998779297</ele>
        <time>2023-04-04T14:00:28.000Z</time>
      </trkpt>
      <trkpt lat="46.24461" lon="7.42777">
        <ele>544.79998779297</ele>
        <time>2023-04-04T14:00:30.000Z</time>
      </trkpt>
      <trkpt lat="46.24481" lon="7.42808">
        <ele>545</ele>
        <time>2023-04-04T14:00:37.000Z</time>
      </trkpt>
      <trkpt lat="46.24487" lon="7.42817">
        <ele>545</ele>
        <time>2023-04-04T14:00:39.000Z</time>
      </trkpt>
      <trkpt lat="46.2449" lon="7.42822">
        <ele>545</ele>
        <time>2023-04-04T14:00:40.000Z</time>
      </trkpt>
      <trkpt lat="46.24494" lon="7.42827">
        <ele>545</ele>
        <time>2023-04-04T14:00:41.000Z</time>
      </trkpt>
      <trkpt lat="46.24497" lon="7.42831">
        <ele>545</ele>
        <time>2023-04-04T14:00:42.000Z</time>
      </trkpt>
      <trkpt lat="46.24506" lon="7.42845">
        <ele>545</ele>
        <time>2023-04-04T14:00:45.000Z</time>
      </trkpt>
      <trkpt lat="46.24539" lon="7.42896">
        <ele>545.20001220703</ele>
        <time>2023-04-04T14:00:56.000Z</time>
      </trkpt>
      <trkpt lat="46.24548" lon="7.4291">
        <ele>545.20001220703</ele>
        <time>2023-04-04T14:00:59.000Z</time>
      </trkpt>
      <trkpt lat="46.24554" lon="7.42919">
        <ele>545.20001220703</ele>
        <time>2023-04-04T14:01:01.000Z</time>
      </trkpt>
      <trkpt lat="46.2456" lon="7.42929">
        <ele>545.20001220703</ele>
        <time>2023-04-04T14:01:03.000Z</time>
      </trkpt>
      <trkpt lat="46.24565" lon="7.42938">
        <ele>545.40002441406</ele>
        <time>2023-04-04T14:01:05.000Z</time>
      </trkpt>
      <trkpt lat="46.24568" lon="7.42943">
        <ele>545.40002441406</ele>
        <time>2023-04-04T14:01:06.000Z</time>
      </trkpt>
      <trkpt lat="46.24575" lon="7.42952">
        <ele>545.40002441406</ele>
        <time>2023-04-04T14:01:08.000Z</time>
      </trkpt>
      <trkpt lat="46.24589" lon="7.42975">
        <ele>545.20001220703</ele>
        <time>2023-04-04T14:01:13.000Z</time>
      </trkpt>
      <trkpt lat="46.24606" lon="7.42998">
        <ele>545</ele>
        <time>2023-04-04T14:01:18.000Z</time>
      </trkpt>
      <trkpt lat="46.24609" lon="7.43003">
        <ele>545</ele>
        <time>2023-04-04T14:01:19.000Z</time>
      </trkpt>
      <trkpt lat="46.24612" lon="7.43007">
        <ele>545</ele>
        <time>2023-04-04T14:01:20.000Z</time>
      </trkpt>
      <trkpt lat="46.24615" lon="7.43012">
        <ele>545</ele>
        <time>2023-04-04T14:01:21.000Z</time>
      </trkpt>
      <trkpt lat="46.24618" lon="7.43016">
        <ele>545</ele>
        <time>2023-04-04T14:01:22.000Z</time>
      </trkpt>
      <trkpt lat="46.24621" lon="7.4302">
        <ele>545</ele>
        <time>2023-04-04T14:01:23.000Z</time>
      </trkpt>
      <trkpt lat="46.24627" lon="7.43029">
        <ele>545</ele>
        <time>2023-04-04T14:01:25.000Z</time>
      </trkpt>
      <trkpt lat="46.24629" lon="7.43033">
        <ele>545</ele>
        <time>2023-04-04T14:01:26.000Z</time>
      </trkpt>
      <trkpt lat="46.24632" lon="7.43037">
        <ele>545</ele>
        <time>2023-04-04T14:01:27.000Z</time>
      </trkpt>
      <trkpt lat="46.24634" lon="7.43042">
        <ele>545</ele>
        <time>2023-04-04T14:01:28.000Z</time>
      </trkpt>
      <trkpt lat="46.24645" lon="7.4306">
        <ele>545</ele>
        <time>2023-04-04T14:01:32.000Z</time>
      </trkpt>
      <trkpt lat="46.24668" lon="7.43095">
        <ele>545.20001220703</ele>
        <time>2023-04-04T14:01:40.000Z</time>
      </trkpt>
      <trkpt lat="46.24695" lon="7.43135">
        <ele>545.59997558594</ele>
        <time>2023-04-04T14:01:49.000Z</time>
      </trkpt>
      <trkpt lat="46.247" lon="7.43143">
        <ele>545.79998779297</ele>
        <time>2023-04-04T14:01:51.000Z</time>
      </trkpt>
      <trkpt lat="46.24703" lon="7.43148">
        <ele>545.79998779297</ele>
        <time>2023-04-04T14:01:52.000Z</time>
      </trkpt>
      <trkpt lat="46.24711" lon="7.43161">
        <ele>545.79998779297</ele>
        <time>2023-04-04T14:01:55.000Z</time>
      </trkpt>
      <trkpt lat="46.24723" lon="7.43178">
        <ele>546</ele>
        <time>2023-04-04T14:01:59.000Z</time>
      </trkpt>
      <trkpt lat="46.24744" lon="7.43207">
        <ele>546</ele>
        <time>2023-04-04T14:02:06.000Z</time>
      </trkpt>
      <trkpt lat="46.24747" lon="7.43211">
        <ele>546</ele>
        <time>2023-04-04T14:02:07.000Z</time>
      </trkpt>
      <trkpt lat="46.24749" lon="7.43215">
        <ele>545.79998779297</ele>
        <time>2023-04-04T14:02:08.000Z</time>
      </trkpt>
      <trkpt lat="46.24752" lon="7.43219">
        <ele>545.79998779297</ele>
        <time>2023-04-04T14:02:09.000Z</time>
      </trkpt>
      <trkpt lat="46.24755" lon="7.43222">
        <ele>545.79998779297</ele>
        <time>2023-04-04T14:02:10.000Z</time>
      </trkpt>
      <trkpt lat="46.24758" lon="7.43226">
        <ele>545.79998779297</ele>
        <time>2023-04-04T14:02:11.000Z</time>
      </trkpt>
      <trkpt lat="46.2476" lon="7.43229">
        <ele>545.79998779297</ele>
        <time>2023-04-04T14:02:12.000Z</time>
      </trkpt>
      <trkpt lat="46.24762" lon="7.43232">
        <ele>545.59997558594</ele>
        <time>2023-04-04T14:02:13.000Z</time>
      </trkpt>
      <trkpt lat="46.24766" lon="7.43238">
        <ele>545.79998779297</ele>
        <time>2023-04-04T14:02:15.000Z</time>
      </trkpt>
      <trkpt lat="46.24768" lon="7.43241">
        <ele>545.79998779297</ele>
        <time>2023-04-04T14:02:16.000Z</time>
      </trkpt>
      <trkpt lat="46.2477" lon="7.43244">
        <ele>545.79998779297</ele>
        <time>2023-04-04T14:02:17.000Z</time>
      </trkpt>
      <trkpt lat="46.24772" lon="7.43247">
        <ele>545.79998779297</ele>
        <time>2023-04-04T14:02:18.000Z</time>
      </trkpt>
      <trkpt lat="46.24774" lon="7.4325">
        <ele>545.79998779297</ele>
        <time>2023-04-04T14:02:19.000Z</time>
      </trkpt>
      <trkpt lat="46.24776" lon="7.43252">
        <ele>545.79998779297</ele>
        <time>2023-04-04T14:02:20.000Z</time>
      </trkpt>
      <trkpt lat="46.24777" lon="7.43254">
        <ele>545.79998779297</ele>
        <time>2023-04-04T14:02:21.000Z</time>
      </trkpt>
      <trkpt lat="46.24779" lon="7.43257">
        <ele>545.79998779297</ele>
        <time>2023-04-04T14:02:22.000Z</time>
      </trkpt>
      <trkpt lat="46.24781" lon="7.4326">
        <ele>545.79998779297</ele>
        <time>2023-04-04T14:02:23.000Z</time>
      </trkpt>
      <trkpt lat="46.24798" lon="7.43289">
        <ele>545.59997558594</ele>
        <time>2023-04-04T14:02:31.000Z</time>
      </trkpt>
      <trkpt lat="46.24826" lon="7.4333">
        <ele>546</ele>
        <time>2023-04-04T14:02:42.000Z</time>
      </trkpt>
      <trkpt lat="46.24834" lon="7.43342">
        <ele>546</ele>
        <time>2023-04-04T14:02:45.000Z</time>
      </trkpt>
      <trkpt lat="46.2485" lon="7.43367">
        <ele>546</ele>
        <time>2023-04-04T14:02:51.000Z</time>
      </trkpt>
      <trkpt lat="46.24875" lon="7.43406">
        <ele>546</ele>
        <time>2023-04-04T14:03:00.000Z</time>
      </trkpt>
      <trkpt lat="46.24902" lon="7.43446">
        <ele>546</ele>
        <time>2023-04-04T14:03:09.000Z</time>
      </trkpt>
      <trkpt lat="46.24913" lon="7.43464">
        <ele>546</ele>
        <time>2023-04-04T14:03:13.000Z</time>
      </trkpt>
      <trkpt lat="46.24916" lon="7.43468">
        <ele>546</ele>
        <time>2023-04-04T14:03:14.000Z</time>
      </trkpt>
      <trkpt lat="46.24918" lon="7.43473">
        <ele>546.20001220703</ele>
        <time>2023-04-04T14:03:15.000Z</time>
      </trkpt>
      <trkpt lat="46.24921" lon="7.43477">
        <ele>546.20001220703</ele>
        <time>2023-04-04T14:03:16.000Z</time>
      </trkpt>
      <trkpt lat="46.24927" lon="7.43486">
        <ele>546.20001220703</ele>
        <time>2023-04-04T14:03:18.000Z</time>
      </trkpt>
      <trkpt lat="46.2493" lon="7.43491">
        <ele>546.20001220703</ele>
        <time>2023-04-04T14:03:19.000Z</time>
      </trkpt>
      <trkpt lat="46.24935" lon="7.435">
        <ele>546.20001220703</ele>
        <time>2023-04-04T14:03:21.000Z</time>
      </trkpt>
      <trkpt lat="46.24938" lon="7.43505">
        <ele>546.20001220703</ele>
        <time>2023-04-04T14:03:22.000Z</time>
      </trkpt>
      <trkpt lat="46.24941" lon="7.43509">
        <ele>546.20001220703</ele>
        <time>2023-04-04T14:03:23.000Z</time>
      </trkpt>
      <trkpt lat="46.24944" lon="7.43513">
        <ele>546.20001220703</ele>
        <time>2023-04-04T14:03:24.000Z</time>
      </trkpt>
      <trkpt lat="46.24963" lon="7.43541">
        <ele>546.20001220703</ele>
        <time>2023-04-04T14:03:30.000Z</time>
      </trkpt>
      <trkpt lat="46.2497" lon="7.43551">
        <ele>546.20001220703</ele>
        <time>2023-04-04T14:03:32.000Z</time>
      </trkpt>
      <trkpt lat="46.24978" lon="7.4356">
        <ele>546.20001220703</ele>
        <time>2023-04-04T14:03:34.000Z</time>
      </trkpt>
      <trkpt lat="46.24992" lon="7.4358">
        <ele>546</ele>
        <time>2023-04-04T14:03:38.000Z</time>
      </trkpt>
      <trkpt lat="46.25019" lon="7.43622">
        <ele>545.79998779297</ele>
        <time>2023-04-04T14:03:47.000Z</time>
      </trkpt>
      <trkpt lat="46.25022" lon="7.43627">
        <ele>545.79998779297</ele>
        <time>2023-04-04T14:03:48.000Z</time>
      </trkpt>
      <trkpt lat="46.25024" lon="7.43631">
        <ele>545.79998779297</ele>
        <time>2023-04-04T14:03:49.000Z</time>
      </trkpt>
      <trkpt lat="46.25027" lon="7.43636">
        <ele>545.79998779297</ele>
        <time>2023-04-04T14:03:50.000Z</time>
      </trkpt>
      <trkpt lat="46.2503" lon="7.43641">
        <ele>545.79998779297</ele>
        <time>2023-04-04T14:03:51.000Z</time>
      </trkpt>
      <trkpt lat="46.25033" lon="7.43645">
        <ele>545.79998779297</ele>
        <time>2023-04-04T14:03:52.000Z</time>
      </trkpt>
      <trkpt lat="46.25037" lon="7.4365">
        <ele>546</ele>
        <time>2023-04-04T14:03:53.000Z</time>
      </trkpt>
      <trkpt lat="46.2504" lon="7.43655">
        <ele>546</ele>
        <time>2023-04-04T14:03:54.000Z</time>
      </trkpt>
      <trkpt lat="46.25053" lon="7.43675">
        <ele>546.20001220703</ele>
        <time>2023-04-04T14:03:58.000Z</time>
      </trkpt>
      <trkpt lat="46.25057" lon="7.4368">
        <ele>546.20001220703</ele>
        <time>2023-04-04T14:03:59.000Z</time>
      </trkpt>
      <trkpt lat="46.25064" lon="7.4369">
        <ele>546.40002441406</ele>
        <time>2023-04-04T14:04:01.000Z</time>
      </trkpt>
      <trkpt lat="46.25074" lon="7.43705">
        <ele>546.40002441406</ele>
        <time>2023-04-04T14:04:04.000Z</time>
      </trkpt>
      <trkpt lat="46.25076" lon="7.4371">
        <ele>546.40002441406</ele>
        <time>2023-04-04T14:04:05.000Z</time>
      </trkpt>
      <trkpt lat="46.25079" lon="7.43715">
        <ele>546.40002441406</ele>
        <time>2023-04-04T14:04:06.000Z</time>
      </trkpt>
      <trkpt lat="46.25083" lon="7.43719">
        <ele>546.40002441406</ele>
        <time>2023-04-04T14:04:07.000Z</time>
      </trkpt>
      <trkpt lat="46.2509" lon="7.43729">
        <ele>546.40002441406</ele>
        <time>2023-04-04T14:04:09.000Z</time>
      </trkpt>
      <trkpt lat="46.25094" lon="7.43733">
        <ele>546.40002441406</ele>
        <time>2023-04-04T14:04:10.000Z</time>
      </trkpt>
      <trkpt lat="46.25097" lon="7.43738">
        <ele>546.40002441406</ele>
        <time>2023-04-04T14:04:11.000Z</time>
      </trkpt>
      <trkpt lat="46.25099" lon="7.43743">
        <ele>546.40002441406</ele>
        <time>2023-04-04T14:04:12.000Z</time>
      </trkpt>
      <trkpt lat="46.25101" lon="7.43748">
        <ele>546.40002441406</ele>
        <time>2023-04-04T14:04:13.000Z</time>
      </trkpt>
      <trkpt lat="46.25107" lon="7.43757">
        <ele>546.59997558594</ele>
        <time>2023-04-04T14:04:15.000Z</time>
      </trkpt>
      <trkpt lat="46.25112" lon="7.43763">
        <ele>546.59997558594</ele>
        <time>2023-04-04T14:04:16.000Z</time>
      </trkpt>
      <trkpt lat="46.25122" lon="7.43778">
        <ele>546.79998779297</ele>
        <time>2023-04-04T14:04:19.000Z</time>
      </trkpt>
      <trkpt lat="46.25127" lon="7.43788">
        <ele>546.79998779297</ele>
        <time>2023-04-04T14:04:21.000Z</time>
      </trkpt>
      <trkpt lat="46.25129" lon="7.43792">
        <ele>546.79998779297</ele>
        <time>2023-04-04T14:04:22.000Z</time>
      </trkpt>
      <trkpt lat="46.25132" lon="7.43797">
        <ele>546.79998779297</ele>
        <time>2023-04-04T14:04:23.000Z</time>
      </trkpt>
      <trkpt lat="46.25134" lon="7.43801">
        <ele>547</ele>
        <time>2023-04-04T14:04:24.000Z</time>
      </trkpt>
      <trkpt lat="46.25145" lon="7.43816">
        <ele>547</ele>
        <time>2023-04-04T14:04:27.000Z</time>
      </trkpt>
      <trkpt lat="46.25148" lon="7.4382">
        <ele>547</ele>
        <time>2023-04-04T14:04:28.000Z</time>
      </trkpt>
      <trkpt lat="46.25151" lon="7.43825">
        <ele>547</ele>
        <time>2023-04-04T14:04:29.000Z</time>
      </trkpt>
      <trkpt lat="46.25155" lon="7.4383">
        <ele>547</ele>
        <time>2023-04-04T14:04:30.000Z</time>
      </trkpt>
      <trkpt lat="46.25162" lon="7.43841">
        <ele>547</ele>
        <time>2023-04-04T14:04:32.000Z</time>
      </trkpt>
      <trkpt lat="46.25173" lon="7.43856">
        <ele>547</ele>
        <time>2023-04-04T14:04:35.000Z</time>
      </trkpt>
      <trkpt lat="46.25176" lon="7.43861">
        <ele>547</ele>
        <time>2023-04-04T14:04:36.000Z</time>
      </trkpt>
      <trkpt lat="46.25178" lon="7.43866">
        <ele>547</ele>
        <time>2023-04-04T14:04:37.000Z</time>
      </trkpt>
      <trkpt lat="46.2518" lon="7.4387">
        <ele>547</ele>
        <time>2023-04-04T14:04:38.000Z</time>
      </trkpt>
      <trkpt lat="46.25182" lon="7.43875">
        <ele>547.20001220703</ele>
        <time>2023-04-04T14:04:39.000Z</time>
      </trkpt>
      <trkpt lat="46.25186" lon="7.4388">
        <ele>547.20001220703</ele>
        <time>2023-04-04T14:04:40.000Z</time>
      </trkpt>
      <trkpt lat="46.25196" lon="7.43894">
        <ele>547.40002441406</ele>
        <time>2023-04-04T14:04:43.000Z</time>
      </trkpt>
      <trkpt lat="46.25199" lon="7.43899">
        <ele>547.40002441406</ele>
        <time>2023-04-04T14:04:44.000Z</time>
      </trkpt>
      <trkpt lat="46.25203" lon="7.43904">
        <ele>547.59997558594</ele>
        <time>2023-04-04T14:04:45.000Z</time>
      </trkpt>
      <trkpt lat="46.25207" lon="7.43908">
        <ele>547.59997558594</ele>
        <time>2023-04-04T14:04:46.000Z</time>
      </trkpt>
      <trkpt lat="46.25225" lon="7.43937">
        <ele>547.59997558594</ele>
        <time>2023-04-04T14:04:52.000Z</time>
      </trkpt>
      <trkpt lat="46.25245" lon="7.43967">
        <ele>547.40002441406</ele>
        <time>2023-04-04T14:04:58.000Z</time>
      </trkpt>
      <trkpt lat="46.25252" lon="7.43977">
        <ele>547.40002441406</ele>
        <time>2023-04-04T14:05:00.000Z</time>
      </trkpt>
      <trkpt lat="46.25256" lon="7.43982">
        <ele>547.40002441406</ele>
        <time>2023-04-04T14:05:01.000Z</time>
      </trkpt>
      <trkpt lat="46.25272" lon="7.44004">
        <ele>547.40002441406</ele>
        <time>2023-04-04T14:05:06.000Z</time>
      </trkpt>
      <trkpt lat="46.25274" lon="7.44008">
        <ele>547.40002441406</ele>
        <time>2023-04-04T14:05:07.000Z</time>
      </trkpt>
      <trkpt lat="46.25276" lon="7.44013">
        <ele>547.40002441406</ele>
        <time>2023-04-04T14:05:08.000Z</time>
      </trkpt>
      <trkpt lat="46.25278" lon="7.44016">
        <ele>547.40002441406</ele>
        <time>2023-04-04T14:05:09.000Z</time>
      </trkpt>
      <trkpt lat="46.2528" lon="7.4402">
        <ele>547.40002441406</ele>
        <time>2023-04-04T14:05:10.000Z</time>
      </trkpt>
      <trkpt lat="46.25283" lon="7.44024">
        <ele>547.40002441406</ele>
        <time>2023-04-04T14:05:11.000Z</time>
      </trkpt>
      <trkpt lat="46.25286" lon="7.44029">
        <ele>547.40002441406</ele>
        <time>2023-04-04T14:05:12.000Z</time>
      </trkpt>
      <trkpt lat="46.253" lon="7.44052">
        <ele>547.40002441406</ele>
        <time>2023-04-04T14:05:17.000Z</time>
      </trkpt>
      <trkpt lat="46.25305" lon="7.44063">
        <ele>547.40002441406</ele>
        <time>2023-04-04T14:05:19.000Z</time>
      </trkpt>
      <trkpt lat="46.25312" lon="7.44073">
        <ele>547.40002441406</ele>
        <time>2023-04-04T14:05:21.000Z</time>
      </trkpt>
      <trkpt lat="46.25316" lon="7.44078">
        <ele>547.59997558594</ele>
        <time>2023-04-04T14:05:22.000Z</time>
      </trkpt>
      <trkpt lat="46.25319" lon="7.44083">
        <ele>547.59997558594</ele>
        <time>2023-04-04T14:05:23.000Z</time>
      </trkpt>
      <trkpt lat="46.25341" lon="7.44112">
        <ele>547.79998779297</ele>
        <time>2023-04-04T14:05:29.000Z</time>
      </trkpt>
      <trkpt lat="46.25368" lon="7.44156">
        <ele>548.20001220703</ele>
        <time>2023-04-04T14:05:38.000Z</time>
      </trkpt>
      <trkpt lat="46.25378" lon="7.44171">
        <ele>548.20001220703</ele>
        <time>2023-04-04T14:05:41.000Z</time>
      </trkpt>
      <trkpt lat="46.25395" lon="7.44196">
        <ele>548.40002441406</ele>
        <time>2023-04-04T14:05:46.000Z</time>
      </trkpt>
      <trkpt lat="46.25399" lon="7.442">
        <ele>548.40002441406</ele>
        <time>2023-04-04T14:05:47.000Z</time>
      </trkpt>
      <trkpt lat="46.25423" lon="7.44229">
        <ele>548.79998779297</ele>
        <time>2023-04-04T14:05:53.000Z</time>
      </trkpt>
      <trkpt lat="46.25428" lon="7.44239">
        <ele>548.79998779297</ele>
        <time>2023-04-04T14:05:55.000Z</time>
      </trkpt>
      <trkpt lat="46.2544" lon="7.44258">
        <ele>548.79998779297</ele>
        <time>2023-04-04T14:05:59.000Z</time>
      </trkpt>
      <trkpt lat="46.25443" lon="7.44262">
        <ele>548.79998779297</ele>
        <time>2023-04-04T14:06:00.000Z</time>
      </trkpt>
      <trkpt lat="46.25453" lon="7.44277">
        <ele>549</ele>
        <time>2023-04-04T14:06:03.000Z</time>
      </trkpt>
      <trkpt lat="46.25467" lon="7.44297">
        <ele>549</ele>
        <time>2023-04-04T14:06:07.000Z</time>
      </trkpt>
      <trkpt lat="46.2549" lon="7.4433">
        <ele>549</ele>
        <time>2023-04-04T14:06:14.000Z</time>
      </trkpt>
      <trkpt lat="46.25492" lon="7.44335">
        <ele>549</ele>
        <time>2023-04-04T14:06:15.000Z</time>
      </trkpt>
      <trkpt lat="46.25494" lon="7.4434">
        <ele>549</ele>
        <time>2023-04-04T14:06:16.000Z</time>
      </trkpt>
      <trkpt lat="46.25497" lon="7.44345">
        <ele>549</ele>
        <time>2023-04-04T14:06:17.000Z</time>
      </trkpt>
      <trkpt lat="46.25507" lon="7.44359">
        <ele>549.20001220703</ele>
        <time>2023-04-04T14:06:20.000Z</time>
      </trkpt>
      <trkpt lat="46.25539" lon="7.44403">
        <ele>549.20001220703</ele>
        <time>2023-04-04T14:06:29.000Z</time>
      </trkpt>
      <trkpt lat="46.25563" lon="7.44437">
        <ele>549.20001220703</ele>
        <time>2023-04-04T14:06:36.000Z</time>
      </trkpt>
      <trkpt lat="46.25585" lon="7.44468">
        <ele>549</ele>
        <time>2023-04-04T14:06:42.000Z</time>
      </trkpt>
      <trkpt lat="46.25588" lon="7.44473">
        <ele>549</ele>
        <time>2023-04-04T14:06:43.000Z</time>
      </trkpt>
      <trkpt lat="46.25595" lon="7.44483">
        <ele>549</ele>
        <time>2023-04-04T14:06:45.000Z</time>
      </trkpt>
      <trkpt lat="46.25598" lon="7.44488">
        <ele>549</ele>
        <time>2023-04-04T14:06:46.000Z</time>
      </trkpt>
      <trkpt lat="46.256" lon="7.44493">
        <ele>549</ele>
        <time>2023-04-04T14:06:47.000Z</time>
      </trkpt>
      <trkpt lat="46.25604" lon="7.44502">
        <ele>549</ele>
        <time>2023-04-04T14:06:49.000Z</time>
      </trkpt>
      <trkpt lat="46.25607" lon="7.44508">
        <ele>549</ele>
        <time>2023-04-04T14:06:50.000Z</time>
      </trkpt>
      <trkpt lat="46.2561" lon="7.44512">
        <ele>549</ele>
        <time>2023-04-04T14:06:51.000Z</time>
      </trkpt>
      <trkpt lat="46.25628" lon="7.44537">
        <ele>549</ele>
        <time>2023-04-04T14:06:56.000Z</time>
      </trkpt>
      <trkpt lat="46.25638" lon="7.44553">
        <ele>549.20001220703</ele>
        <time>2023-04-04T14:06:59.000Z</time>
      </trkpt>
      <trkpt lat="46.25644" lon="7.44562">
        <ele>549.59997558594</ele>
        <time>2023-04-04T14:07:01.000Z</time>
      </trkpt>
      <trkpt lat="46.25651" lon="7.44573">
        <ele>549.59997558594</ele>
        <time>2023-04-04T14:07:03.000Z</time>
      </trkpt>
      <trkpt lat="46.25657" lon="7.44582">
        <ele>549.59997558594</ele>
        <time>2023-04-04T14:07:05.000Z</time>
      </trkpt>
      <trkpt lat="46.25668" lon="7.44597">
        <ele>549.40002441406</ele>
        <time>2023-04-04T14:07:08.000Z</time>
      </trkpt>
      <trkpt lat="46.25671" lon="7.44602">
        <ele>549.40002441406</ele>
        <time>2023-04-04T14:07:09.000Z</time>
      </trkpt>
      <trkpt lat="46.25675" lon="7.44608">
        <ele>549.40002441406</ele>
        <time>2023-04-04T14:07:10.000Z</time>
      </trkpt>
      <trkpt lat="46.257" lon="7.44647">
        <ele>549.20001220703</ele>
        <time>2023-04-04T14:07:18.000Z</time>
      </trkpt>
      <trkpt lat="46.25704" lon="7.44653">
        <ele>549.20001220703</ele>
        <time>2023-04-04T14:07:19.000Z</time>
      </trkpt>
      <trkpt lat="46.25707" lon="7.44658">
        <ele>549.20001220703</ele>
        <time>2023-04-04T14:07:20.000Z</time>
      </trkpt>
      <trkpt lat="46.25711" lon="7.44663">
        <ele>549.20001220703</ele>
        <time>2023-04-04T14:07:21.000Z</time>
      </trkpt>
      <trkpt lat="46.25714" lon="7.44668">
        <ele>549.20001220703</ele>
        <time>2023-04-04T14:07:22.000Z</time>
      </trkpt>
      <trkpt lat="46.25741" lon="7.44708">
        <ele>549.59997558594</ele>
        <time>2023-04-04T14:07:30.000Z</time>
      </trkpt>
      <trkpt lat="46.2575" lon="7.44723">
        <ele>549.59997558594</ele>
        <time>2023-04-04T14:07:33.000Z</time>
      </trkpt>
      <trkpt lat="46.25752" lon="7.44728">
        <ele>549.59997558594</ele>
        <time>2023-04-04T14:07:34.000Z</time>
      </trkpt>
      <trkpt lat="46.25755" lon="7.44733">
        <ele>549.59997558594</ele>
        <time>2023-04-04T14:07:35.000Z</time>
      </trkpt>
      <trkpt lat="46.25758" lon="7.44737">
        <ele>549.59997558594</ele>
        <time>2023-04-04T14:07:36.000Z</time>
      </trkpt>
      <trkpt lat="46.25761" lon="7.44743">
        <ele>549.59997558594</ele>
        <time>2023-04-04T14:07:37.000Z</time>
      </trkpt>
      <trkpt lat="46.25764" lon="7.44747">
        <ele>549.59997558594</ele>
        <time>2023-04-04T14:07:38.000Z</time>
      </trkpt>
      <trkpt lat="46.25767" lon="7.44752">
        <ele>549.59997558594</ele>
        <time>2023-04-04T14:07:39.000Z</time>
      </trkpt>
      <trkpt lat="46.2578" lon="7.44773">
        <ele>549.59997558594</ele>
        <time>2023-04-04T14:07:43.000Z</time>
      </trkpt>
      <trkpt lat="46.25797" lon="7.44799">
        <ele>549.79998779297</ele>
        <time>2023-04-04T14:07:48.000Z</time>
      </trkpt>
      <trkpt lat="46.258" lon="7.44804">
        <ele>549.79998779297</ele>
        <time>2023-04-04T14:07:49.000Z</time>
      </trkpt>
      <trkpt lat="46.25821" lon="7.44835">
        <ele>549.59997558594</ele>
        <time>2023-04-04T14:07:55.000Z</time>
      </trkpt>
      <trkpt lat="46.25825" lon="7.4484">
        <ele>549.59997558594</ele>
        <time>2023-04-04T14:07:56.000Z</time>
      </trkpt>
      <trkpt lat="46.25832" lon="7.44849">
        <ele>549.79998779297</ele>
        <time>2023-04-04T14:07:58.000Z</time>
      </trkpt>
      <trkpt lat="46.25835" lon="7.44854">
        <ele>550</ele>
        <time>2023-04-04T14:07:59.000Z</time>
      </trkpt>
      <trkpt lat="46.25837" lon="7.44857">
        <ele>550</ele>
        <time>2023-04-04T14:08:00.000Z</time>
      </trkpt>
      <trkpt lat="46.2584" lon="7.44862">
        <ele>550</ele>
        <time>2023-04-04T14:08:01.000Z</time>
      </trkpt>
      <trkpt lat="46.25843" lon="7.44866">
        <ele>550</ele>
        <time>2023-04-04T14:08:02.000Z</time>
      </trkpt>
      <trkpt lat="46.25856" lon="7.44885">
        <ele>550</ele>
        <time>2023-04-04T14:08:06.000Z</time>
      </trkpt>
      <trkpt lat="46.25859" lon="7.4489">
        <ele>550</ele>
        <time>2023-04-04T14:08:07.000Z</time>
      </trkpt>
      <trkpt lat="46.25865" lon="7.44899">
        <ele>550</ele>
        <time>2023-04-04T14:08:09.000Z</time>
      </trkpt>
      <trkpt lat="46.25885" lon="7.44928">
        <ele>550.20001220703</ele>
        <time>2023-04-04T14:08:15.000Z</time>
      </trkpt>
      <trkpt lat="46.2591" lon="7.44967">
        <ele>550.20001220703</ele>
        <time>2023-04-04T14:08:23.000Z</time>
      </trkpt>
      <trkpt lat="46.25922" lon="7.44987">
        <ele>550.20001220703</ele>
        <time>2023-04-04T14:08:27.000Z</time>
      </trkpt>
      <trkpt lat="46.25924" lon="7.44992">
        <ele>550.20001220703</ele>
        <time>2023-04-04T14:08:28.000Z</time>
      </trkpt>
      <trkpt lat="46.25933" lon="7.45006">
        <ele>550.20001220703</ele>
        <time>2023-04-04T14:08:31.000Z</time>
      </trkpt>
      <trkpt lat="46.25965" lon="7.45051">
        <ele>550.59997558594</ele>
        <time>2023-04-04T14:08:40.000Z</time>
      </trkpt>
      <trkpt lat="46.25971" lon="7.45061">
        <ele>550.59997558594</ele>
        <time>2023-04-04T14:08:42.000Z</time>
      </trkpt>
      <trkpt lat="46.25978" lon="7.45071">
        <ele>550.59997558594</ele>
        <time>2023-04-04T14:08:44.000Z</time>
      </trkpt>
      <trkpt lat="46.25981" lon="7.45076">
        <ele>550.59997558594</ele>
        <time>2023-04-04T14:08:45.000Z</time>
      </trkpt>
      <trkpt lat="46.25984" lon="7.4508">
        <ele>550.59997558594</ele>
        <time>2023-04-04T14:08:46.000Z</time>
      </trkpt>
      <trkpt lat="46.25987" lon="7.45085">
        <ele>550.59997558594</ele>
        <time>2023-04-04T14:08:47.000Z</time>
      </trkpt>
      <trkpt lat="46.2599" lon="7.4509">
        <ele>550.79998779297</ele>
        <time>2023-04-04T14:08:48.000Z</time>
      </trkpt>
      <trkpt lat="46.25999" lon="7.45104">
        <ele>550.79998779297</ele>
        <time>2023-04-04T14:08:51.000Z</time>
      </trkpt>
      <trkpt lat="46.26002" lon="7.45108">
        <ele>550.79998779297</ele>
        <time>2023-04-04T14:08:52.000Z</time>
      </trkpt>
      <trkpt lat="46.26023" lon="7.45139">
        <ele>551</ele>
        <time>2023-04-04T14:08:58.000Z</time>
      </trkpt>
      <trkpt lat="46.26027" lon="7.45144">
        <ele>551.20001220703</ele>
        <time>2023-04-04T14:08:59.000Z</time>
      </trkpt>
      <trkpt lat="46.2603" lon="7.45149">
        <ele>551.20001220703</ele>
        <time>2023-04-04T14:09:00.000Z</time>
      </trkpt>
      <trkpt lat="46.26033" lon="7.45154">
        <ele>551.20001220703</ele>
        <time>2023-04-04T14:09:01.000Z</time>
      </trkpt>
      <trkpt lat="46.26037" lon="7.45159">
        <ele>551.20001220703</ele>
        <time>2023-04-04T14:09:02.000Z</time>
      </trkpt>
      <trkpt lat="46.2604" lon="7.45163">
        <ele>551.20001220703</ele>
        <time>2023-04-04T14:09:03.000Z</time>
      </trkpt>
      <trkpt lat="46.26051" lon="7.45179">
        <ele>551.40002441406</ele>
        <time>2023-04-04T14:09:06.000Z</time>
      </trkpt>
      <trkpt lat="46.26062" lon="7.45194">
        <ele>551.40002441406</ele>
        <time>2023-04-04T14:09:09.000Z</time>
      </trkpt>
      <trkpt lat="46.26065" lon="7.45199">
        <ele>551.40002441406</ele>
        <time>2023-04-04T14:09:10.000Z</time>
      </trkpt>
      <trkpt lat="46.26078" lon="7.45224">
        <ele>551.40002441406</ele>
        <time>2023-04-04T14:09:15.000Z</time>
      </trkpt>
      <trkpt lat="46.26081" lon="7.45228">
        <ele>551.40002441406</ele>
        <time>2023-04-04T14:09:16.000Z</time>
      </trkpt>
      <trkpt lat="46.2609" lon="7.45241">
        <ele>551.40002441406</ele>
        <time>2023-04-04T14:09:19.000Z</time>
      </trkpt>
      <trkpt lat="46.261" lon="7.45255">
        <ele>551.40002441406</ele>
        <time>2023-04-04T14:09:22.000Z</time>
      </trkpt>
      <trkpt lat="46.26102" lon="7.4526">
        <ele>551.40002441406</ele>
        <time>2023-04-04T14:09:23.000Z</time>
      </trkpt>
      <trkpt lat="46.26105" lon="7.45264">
        <ele>551.40002441406</ele>
        <time>2023-04-04T14:09:24.000Z</time>
      </trkpt>
      <trkpt lat="46.26107" lon="7.45269">
        <ele>551.40002441406</ele>
        <time>2023-04-04T14:09:25.000Z</time>
      </trkpt>
      <trkpt lat="46.26111" lon="7.45274">
        <ele>551.40002441406</ele>
        <time>2023-04-04T14:09:26.000Z</time>
      </trkpt>
      <trkpt lat="46.26133" lon="7.45305">
        <ele>551.20001220703</ele>
        <time>2023-04-04T14:09:32.000Z</time>
      </trkpt>
      <trkpt lat="46.26158" lon="7.45348">
        <ele>551.59997558594</ele>
        <time>2023-04-04T14:09:40.000Z</time>
      </trkpt>
      <trkpt lat="46.26161" lon="7.45353">
        <ele>551.59997558594</ele>
        <time>2023-04-04T14:09:41.000Z</time>
      </trkpt>
      <trkpt lat="46.26164" lon="7.45358">
        <ele>551.79998779297</ele>
        <time>2023-04-04T14:09:42.000Z</time>
      </trkpt>
      <trkpt lat="46.26166" lon="7.45362">
        <ele>551.79998779297</ele>
        <time>2023-04-04T14:09:43.000Z</time>
      </trkpt>
      <trkpt lat="46.26168" lon="7.45366">
        <ele>551.79998779297</ele>
        <time>2023-04-04T14:09:44.000Z</time>
      </trkpt>
      <trkpt lat="46.26171" lon="7.4537">
        <ele>551.79998779297</ele>
        <time>2023-04-04T14:09:45.000Z</time>
      </trkpt>
      <trkpt lat="46.26174" lon="7.45374">
        <ele>551.79998779297</ele>
        <time>2023-04-04T14:09:46.000Z</time>
      </trkpt>
      <trkpt lat="46.2618" lon="7.45383">
        <ele>552</ele>
        <time>2023-04-04T14:09:48.000Z</time>
      </trkpt>
      <trkpt lat="46.26193" lon="7.45403">
        <ele>552</ele>
        <time>2023-04-04T14:09:52.000Z</time>
      </trkpt>
      <trkpt lat="46.26217" lon="7.45441">
        <ele>552</ele>
        <time>2023-04-04T14:10:00.000Z</time>
      </trkpt>
      <trkpt lat="46.26243" lon="7.45487">
        <ele>552</ele>
        <time>2023-04-04T14:10:09.000Z</time>
      </trkpt>
      <trkpt lat="46.26256" lon="7.45512">
        <ele>552</ele>
        <time>2023-04-04T14:10:14.000Z</time>
      </trkpt>
      <trkpt lat="46.26259" lon="7.45517">
        <ele>552</ele>
        <time>2023-04-04T14:10:15.000Z</time>
      </trkpt>
      <trkpt lat="46.26262" lon="7.45522">
        <ele>552</ele>
        <time>2023-04-04T14:10:16.000Z</time>
      </trkpt>
      <trkpt lat="46.26265" lon="7.45527">
        <ele>552</ele>
        <time>2023-04-04T14:10:17.000Z</time>
      </trkpt>
      <trkpt lat="46.26267" lon="7.45533">
        <ele>552</ele>
        <time>2023-04-04T14:10:18.000Z</time>
      </trkpt>
      <trkpt lat="46.26289" lon="7.45573">
        <ele>552.20001220703</ele>
        <time>2023-04-04T14:10:26.000Z</time>
      </trkpt>
      <trkpt lat="46.26291" lon="7.45578">
        <ele>552.20001220703</ele>
        <time>2023-04-04T14:10:27.000Z</time>
      </trkpt>
      <trkpt lat="46.26297" lon="7.45587">
        <ele>552.20001220703</ele>
        <time>2023-04-04T14:10:29.000Z</time>
      </trkpt>
      <trkpt lat="46.263" lon="7.45592">
        <ele>552.20001220703</ele>
        <time>2023-04-04T14:10:30.000Z</time>
      </trkpt>
      <trkpt lat="46.26301" lon="7.45596">
        <ele>552.20001220703</ele>
        <time>2023-04-04T14:10:31.000Z</time>
      </trkpt>
      <trkpt lat="46.26302" lon="7.45601">
        <ele>552.40002441406</ele>
        <time>2023-04-04T14:10:32.000Z</time>
      </trkpt>
      <trkpt lat="46.26304" lon="7.45604">
        <ele>552.40002441406</ele>
        <time>2023-04-04T14:10:33.000Z</time>
      </trkpt>
      <trkpt lat="46.26304" lon="7.45605">
        <ele>552.40002441406</ele>
        <time>2023-04-04T14:10:34.000Z</time>
      </trkpt>
      <trkpt lat="46.26304" lon="7.45605">
        <ele>552.20001220703</ele>
        <time>2023-04-04T14:10:35.000Z</time>
      </trkpt>
      <trkpt lat="46.26304" lon="7.45605">
        <ele>552.40002441406</ele>
        <time>2023-04-04T14:10:37.000Z</time>
      </trkpt>
      <trkpt lat="46.26308" lon="7.45612">
        <ele>552.59997558594</ele>
        <time>2023-04-04T14:12:51.000Z</time>
      </trkpt>
      <trkpt lat="46.26309" lon="7.45615">
        <ele>552.59997558594</ele>
        <time>2023-04-04T14:12:52.000Z</time>
      </trkpt>
      <trkpt lat="46.26311" lon="7.45618">
        <ele>552.59997558594</ele>
        <time>2023-04-04T14:12:53.000Z</time>
      </trkpt>
      <trkpt lat="46.26321" lon="7.45637">
        <ele>552.20001220703</ele>
        <time>2023-04-04T14:12:58.000Z</time>
      </trkpt>
      <trkpt lat="46.26341" lon="7.45676">
        <ele>551.59997558594</ele>
        <time>2023-04-04T14:13:06.000Z</time>
      </trkpt>
      <trkpt lat="46.26356" lon="7.45708">
        <ele>551.59997558594</ele>
        <time>2023-04-04T14:13:12.000Z</time>
      </trkpt>
      <trkpt lat="46.26361" lon="7.45719">
        <ele>551.59997558594</ele>
        <time>2023-04-04T14:13:14.000Z</time>
      </trkpt>
      <trkpt lat="46.26368" lon="7.45736">
        <ele>551.79998779297</ele>
        <time>2023-04-04T14:13:17.000Z</time>
      </trkpt>
      <trkpt lat="46.26376" lon="7.45753">
        <ele>551.79998779297</ele>
        <time>2023-04-04T14:13:20.000Z</time>
      </trkpt>
      <trkpt lat="46.264" lon="7.45804">
        <ele>551.79998779297</ele>
        <time>2023-04-04T14:13:29.000Z</time>
      </trkpt>
      <trkpt lat="46.26422" lon="7.45857">
        <ele>552</ele>
        <time>2023-04-04T14:13:38.000Z</time>
      </trkpt>
      <trkpt lat="46.26425" lon="7.45863">
        <ele>552</ele>
        <time>2023-04-04T14:13:39.000Z</time>
      </trkpt>
      <trkpt lat="46.26427" lon="7.45868">
        <ele>552</ele>
        <time>2023-04-04T14:13:40.000Z</time>
      </trkpt>
      <trkpt lat="46.26429" lon="7.45874">
        <ele>552</ele>
        <time>2023-04-04T14:13:41.000Z</time>
      </trkpt>
      <trkpt lat="46.26431" lon="7.4588">
        <ele>552</ele>
        <time>2023-04-04T14:13:42.000Z</time>
      </trkpt>
      <trkpt lat="46.26435" lon="7.45891">
        <ele>552</ele>
        <time>2023-04-04T14:13:44.000Z</time>
      </trkpt>
      <trkpt lat="46.26437" lon="7.45897">
        <ele>552.20001220703</ele>
        <time>2023-04-04T14:13:45.000Z</time>
      </trkpt>
      <trkpt lat="46.26439" lon="7.45902">
        <ele>552</ele>
        <time>2023-04-04T14:13:46.000Z</time>
      </trkpt>
      <trkpt lat="46.26441" lon="7.45908">
        <ele>552</ele>
        <time>2023-04-04T14:13:47.000Z</time>
      </trkpt>
      <trkpt lat="46.26443" lon="7.45914">
        <ele>552.20001220703</ele>
        <time>2023-04-04T14:13:48.000Z</time>
      </trkpt>
      <trkpt lat="46.26446" lon="7.4592">
        <ele>552.20001220703</ele>
        <time>2023-04-04T14:13:49.000Z</time>
      </trkpt>
      <trkpt lat="46.26448" lon="7.45925">
        <ele>552.20001220703</ele>
        <time>2023-04-04T14:13:50.000Z</time>
      </trkpt>
      <trkpt lat="46.2645" lon="7.45931">
        <ele>552.20001220703</ele>
        <time>2023-04-04T14:13:51.000Z</time>
      </trkpt>
      <trkpt lat="46.26453" lon="7.45936">
        <ele>552</ele>
        <time>2023-04-04T14:13:52.000Z</time>
      </trkpt>
      <trkpt lat="46.26455" lon="7.45941">
        <ele>552</ele>
        <time>2023-04-04T14:13:53.000Z</time>
      </trkpt>
      <trkpt lat="46.26457" lon="7.45947">
        <ele>552</ele>
        <time>2023-04-04T14:13:54.000Z</time>
      </trkpt>
      <trkpt lat="46.26459" lon="7.45952">
        <ele>551.79998779297</ele>
        <time>2023-04-04T14:13:55.000Z</time>
      </trkpt>
      <trkpt lat="46.26461" lon="7.45957">
        <ele>551.79998779297</ele>
        <time>2023-04-04T14:13:56.000Z</time>
      </trkpt>
      <trkpt lat="46.26463" lon="7.45963">
        <ele>551.79998779297</ele>
        <time>2023-04-04T14:13:57.000Z</time>
      </trkpt>
      <trkpt lat="46.26468" lon="7.45974">
        <ele>551.79998779297</ele>
        <time>2023-04-04T14:13:59.000Z</time>
      </trkpt>
      <trkpt lat="46.26471" lon="7.45986">
        <ele>551.79998779297</ele>
        <time>2023-04-04T14:14:01.000Z</time>
      </trkpt>
      <trkpt lat="46.26472" lon="7.45992">
        <ele>551.79998779297</ele>
        <time>2023-04-04T14:14:02.000Z</time>
      </trkpt>
      <trkpt lat="46.26485" lon="7.46039">
        <ele>552.20001220703</ele>
        <time>2023-04-04T14:14:10.000Z</time>
      </trkpt>
      <trkpt lat="46.26504" lon="7.46112">
        <ele>551.79998779297</ele>
        <time>2023-04-04T14:14:21.000Z</time>
      </trkpt>
      <trkpt lat="46.26507" lon="7.46126">
        <ele>551.40002441406</ele>
        <time>2023-04-04T14:14:23.000Z</time>
      </trkpt>
      <trkpt lat="46.26514" lon="7.46156">
        <ele>551</ele>
        <time>2023-04-04T14:14:28.000Z</time>
      </trkpt>
      <trkpt lat="46.26516" lon="7.46164">
        <ele>551</ele>
        <time>2023-04-04T14:14:29.000Z</time>
      </trkpt>
      <trkpt lat="46.26525" lon="7.46189">
        <ele>550.79998779297</ele>
        <time>2023-04-04T14:14:32.000Z</time>
      </trkpt>
      <trkpt lat="46.26528" lon="7.46196">
        <ele>550.59997558594</ele>
        <time>2023-04-04T14:14:33.000Z</time>
      </trkpt>
      <trkpt lat="46.26531" lon="7.46202">
        <ele>550.59997558594</ele>
        <time>2023-04-04T14:14:34.000Z</time>
      </trkpt>
      <trkpt lat="46.26534" lon="7.46207">
        <ele>550.40002441406</ele>
        <time>2023-04-04T14:14:35.000Z</time>
      </trkpt>
      <trkpt lat="46.26537" lon="7.46211">
        <ele>550.40002441406</ele>
        <time>2023-04-04T14:14:36.000Z</time>
      </trkpt>
      <trkpt lat="46.26539" lon="7.46215">
        <ele>550.40002441406</ele>
        <time>2023-04-04T14:14:37.000Z</time>
      </trkpt>
      <trkpt lat="46.2654" lon="7.46219">
        <ele>550.40002441406</ele>
        <time>2023-04-04T14:14:38.000Z</time>
      </trkpt>
      <trkpt lat="46.26542" lon="7.46223">
        <ele>550.59997558594</ele>
        <time>2023-04-04T14:14:39.000Z</time>
      </trkpt>
      <trkpt lat="46.26543" lon="7.46227">
        <ele>550.79998779297</ele>
        <time>2023-04-04T14:14:40.000Z</time>
      </trkpt>
      <trkpt lat="46.26546" lon="7.46237">
        <ele>551.59997558594</ele>
        <time>2023-04-04T14:14:42.000Z</time>
      </trkpt>
      <trkpt lat="46.26549" lon="7.46248">
        <ele>552.20001220703</ele>
        <time>2023-04-04T14:14:44.000Z</time>
      </trkpt>
      <trkpt lat="46.26552" lon="7.46266">
        <ele>552.59997558594</ele>
        <time>2023-04-04T14:14:47.000Z</time>
      </trkpt>
      <trkpt lat="46.26562" lon="7.46307">
        <ele>553</ele>
        <time>2023-04-04T14:14:54.000Z</time>
      </trkpt>
      <trkpt lat="46.26574" lon="7.46367">
        <ele>553.20001220703</ele>
        <time>2023-04-04T14:15:03.000Z</time>
      </trkpt>
      <trkpt lat="46.26582" lon="7.46399">
        <ele>553.20001220703</ele>
        <time>2023-04-04T14:15:08.000Z</time>
      </trkpt>
      <trkpt lat="46.26583" lon="7.46405">
        <ele>553.20001220703</ele>
        <time>2023-04-04T14:15:09.000Z</time>
      </trkpt>
      <trkpt lat="46.26585" lon="7.46411">
        <ele>553.20001220703</ele>
        <time>2023-04-04T14:15:10.000Z</time>
      </trkpt>
      <trkpt lat="46.26587" lon="7.46416">
        <ele>553.20001220703</ele>
        <time>2023-04-04T14:15:11.000Z</time>
      </trkpt>
      <trkpt lat="46.26588" lon="7.46422">
        <ele>553.20001220703</ele>
        <time>2023-04-04T14:15:12.000Z</time>
      </trkpt>
      <trkpt lat="46.26595" lon="7.46454">
        <ele>553.20001220703</ele>
        <time>2023-04-04T14:15:17.000Z</time>
      </trkpt>
      <trkpt lat="46.266" lon="7.46474">
        <ele>553.20001220703</ele>
        <time>2023-04-04T14:15:20.000Z</time>
      </trkpt>
      <trkpt lat="46.26603" lon="7.46495">
        <ele>553.40002441406</ele>
        <time>2023-04-04T14:15:23.000Z</time>
      </trkpt>
      <trkpt lat="46.26606" lon="7.46509">
        <ele>553.59997558594</ele>
        <time>2023-04-04T14:15:25.000Z</time>
      </trkpt>
      <trkpt lat="46.26613" lon="7.46544">
        <ele>554</ele>
        <time>2023-04-04T14:15:30.000Z</time>
      </trkpt>
      <trkpt lat="46.26614" lon="7.46551">
        <ele>554</ele>
        <time>2023-04-04T14:15:31.000Z</time>
      </trkpt>
      <trkpt lat="46.2662" lon="7.46586">
        <ele>554</ele>
        <time>2023-04-04T14:15:36.000Z</time>
      </trkpt>
      <trkpt lat="46.26622" lon="7.46592">
        <ele>554</ele>
        <time>2023-04-04T14:15:37.000Z</time>
      </trkpt>
      <trkpt lat="46.26626" lon="7.46607">
        <ele>554</ele>
        <time>2023-04-04T14:15:39.000Z</time>
      </trkpt>
      <trkpt lat="46.26634" lon="7.46634">
        <ele>553.79998779297</ele>
        <time>2023-04-04T14:15:43.000Z</time>
      </trkpt>
      <trkpt lat="46.26635" lon="7.4664">
        <ele>553.79998779297</ele>
        <time>2023-04-04T14:15:44.000Z</time>
      </trkpt>
      <trkpt lat="46.26639" lon="7.46671">
        <ele>553.59997558594</ele>
        <time>2023-04-04T14:15:49.000Z</time>
      </trkpt>
      <trkpt lat="46.2664" lon="7.46677">
        <ele>553.79998779297</ele>
        <time>2023-04-04T14:15:50.000Z</time>
      </trkpt>
      <trkpt lat="46.26641" lon="7.46684">
        <ele>553.79998779297</ele>
        <time>2023-04-04T14:15:51.000Z</time>
      </trkpt>
      <trkpt lat="46.26642" lon="7.4669">
        <ele>553.79998779297</ele>
        <time>2023-04-04T14:15:52.000Z</time>
      </trkpt>
      <trkpt lat="46.2665" lon="7.46736">
        <ele>554</ele>
        <time>2023-04-04T14:15:59.000Z</time>
      </trkpt>
      <trkpt lat="46.26651" lon="7.46742">
        <ele>554</ele>
        <time>2023-04-04T14:16:00.000Z</time>
      </trkpt>
      <trkpt lat="46.26657" lon="7.46768">
        <ele>554</ele>
        <time>2023-04-04T14:16:04.000Z</time>
      </trkpt>
      <trkpt lat="46.26664" lon="7.46801">
        <ele>554</ele>
        <time>2023-04-04T14:16:09.000Z</time>
      </trkpt>
      <trkpt lat="46.26667" lon="7.46814">
        <ele>554.20001220703</ele>
        <time>2023-04-04T14:16:11.000Z</time>
      </trkpt>
      <trkpt lat="46.26673" lon="7.46846">
        <ele>554.20001220703</ele>
        <time>2023-04-04T14:16:16.000Z</time>
      </trkpt>
      <trkpt lat="46.26678" lon="7.46866">
        <ele>554.40002441406</ele>
        <time>2023-04-04T14:16:19.000Z</time>
      </trkpt>
      <trkpt lat="46.26693" lon="7.46925">
        <ele>554.40002441406</ele>
        <time>2023-04-04T14:16:28.000Z</time>
      </trkpt>
      <trkpt lat="46.2671" lon="7.46986">
        <ele>554.59997558594</ele>
        <time>2023-04-04T14:16:37.000Z</time>
      </trkpt>
      <trkpt lat="46.26726" lon="7.47047">
        <ele>555</ele>
        <time>2023-04-04T14:16:46.000Z</time>
      </trkpt>
      <trkpt lat="46.26732" lon="7.47068">
        <ele>555</ele>
        <time>2023-04-04T14:16:49.000Z</time>
      </trkpt>
      <trkpt lat="46.26738" lon="7.47088">
        <ele>555</ele>
        <time>2023-04-04T14:16:52.000Z</time>
      </trkpt>
      <trkpt lat="46.26741" lon="7.47101">
        <ele>554.79998779297</ele>
        <time>2023-04-04T14:16:54.000Z</time>
      </trkpt>
      <trkpt lat="46.26743" lon="7.47108">
        <ele>554.79998779297</ele>
        <time>2023-04-04T14:16:55.000Z</time>
      </trkpt>
      <trkpt lat="46.2676" lon="7.47163">
        <ele>554.79998779297</ele>
        <time>2023-04-04T14:17:03.000Z</time>
      </trkpt>
      <trkpt lat="46.26762" lon="7.4717">
        <ele>554.79998779297</ele>
        <time>2023-04-04T14:17:04.000Z</time>
      </trkpt>
      <trkpt lat="46.26772" lon="7.47204">
        <ele>554.79998779297</ele>
        <time>2023-04-04T14:17:09.000Z</time>
      </trkpt>
      <trkpt lat="46.26776" lon="7.47218">
        <ele>555</ele>
        <time>2023-04-04T14:17:11.000Z</time>
      </trkpt>
      <trkpt lat="46.26786" lon="7.47252">
        <ele>554.79998779297</ele>
        <time>2023-04-04T14:17:16.000Z</time>
      </trkpt>
      <trkpt lat="46.2679" lon="7.47266">
        <ele>554.79998779297</ele>
        <time>2023-04-04T14:17:18.000Z</time>
      </trkpt>
      <trkpt lat="46.26792" lon="7.47272">
        <ele>554.79998779297</ele>
        <time>2023-04-04T14:17:19.000Z</time>
      </trkpt>
      <trkpt lat="46.26793" lon="7.47279">
        <ele>555</ele>
        <time>2023-04-04T14:17:20.000Z</time>
      </trkpt>
      <trkpt lat="46.26795" lon="7.47285">
        <ele>555</ele>
        <time>2023-04-04T14:17:21.000Z</time>
      </trkpt>
      <trkpt lat="46.26796" lon="7.47292">
        <ele>555</ele>
        <time>2023-04-04T14:17:22.000Z</time>
      </trkpt>
      <trkpt lat="46.26798" lon="7.47299">
        <ele>555</ele>
        <time>2023-04-04T14:17:23.000Z</time>
      </trkpt>
      <trkpt lat="46.268" lon="7.47305">
        <ele>555.20001220703</ele>
        <time>2023-04-04T14:17:24.000Z</time>
      </trkpt>
      <trkpt lat="46.26802" lon="7.47312">
        <ele>555.20001220703</ele>
        <time>2023-04-04T14:17:25.000Z</time>
      </trkpt>
      <trkpt lat="46.26804" lon="7.47318">
        <ele>555.40002441406</ele>
        <time>2023-04-04T14:17:26.000Z</time>
      </trkpt>
      <trkpt lat="46.26806" lon="7.47324">
        <ele>555.40002441406</ele>
        <time>2023-04-04T14:17:27.000Z</time>
      </trkpt>
      <trkpt lat="46.26809" lon="7.47331">
        <ele>555.40002441406</ele>
        <time>2023-04-04T14:17:28.000Z</time>
      </trkpt>
      <trkpt lat="46.26814" lon="7.47345">
        <ele>555.40002441406</ele>
        <time>2023-04-04T14:17:30.000Z</time>
      </trkpt>
      <trkpt lat="46.26818" lon="7.47359">
        <ele>555.40002441406</ele>
        <time>2023-04-04T14:17:32.000Z</time>
      </trkpt>
      <trkpt lat="46.26822" lon="7.47372">
        <ele>555.40002441406</ele>
        <time>2023-04-04T14:17:34.000Z</time>
      </trkpt>
      <trkpt lat="46.26824" lon="7.4738">
        <ele>555.40002441406</ele>
        <time>2023-04-04T14:17:35.000Z</time>
      </trkpt>
      <trkpt lat="46.26826" lon="7.47387">
        <ele>555.40002441406</ele>
        <time>2023-04-04T14:17:36.000Z</time>
      </trkpt>
      <trkpt lat="46.26829" lon="7.47401">
        <ele>555.59997558594</ele>
        <time>2023-04-04T14:17:38.000Z</time>
      </trkpt>
      <trkpt lat="46.26833" lon="7.47415">
        <ele>556</ele>
        <time>2023-04-04T14:17:40.000Z</time>
      </trkpt>
      <trkpt lat="46.26837" lon="7.4743">
        <ele>556</ele>
        <time>2023-04-04T14:17:42.000Z</time>
      </trkpt>
      <trkpt lat="46.2685" lon="7.47469">
        <ele>556.20001220703</ele>
        <time>2023-04-04T14:17:48.000Z</time>
      </trkpt>
      <trkpt lat="46.26857" lon="7.47489">
        <ele>556.40002441406</ele>
        <time>2023-04-04T14:17:51.000Z</time>
      </trkpt>
      <trkpt lat="46.26859" lon="7.47495">
        <ele>556.40002441406</ele>
        <time>2023-04-04T14:17:52.000Z</time>
      </trkpt>
      <trkpt lat="46.2686" lon="7.47502">
        <ele>556.40002441406</ele>
        <time>2023-04-04T14:17:53.000Z</time>
      </trkpt>
      <trkpt lat="46.26863" lon="7.47516">
        <ele>556.40002441406</ele>
        <time>2023-04-04T14:17:55.000Z</time>
      </trkpt>
      <trkpt lat="46.26877" lon="7.47563">
        <ele>556.40002441406</ele>
        <time>2023-04-04T14:18:02.000Z</time>
      </trkpt>
      <trkpt lat="46.26886" lon="7.4759">
        <ele>556.40002441406</ele>
        <time>2023-04-04T14:18:06.000Z</time>
      </trkpt>
      <trkpt lat="46.26888" lon="7.47597">
        <ele>556.59997558594</ele>
        <time>2023-04-04T14:18:07.000Z</time>
      </trkpt>
      <trkpt lat="46.26892" lon="7.4761">
        <ele>556.59997558594</ele>
        <time>2023-04-04T14:18:09.000Z</time>
      </trkpt>
      <trkpt lat="46.26903" lon="7.47652">
        <ele>556.59997558594</ele>
        <time>2023-04-04T14:18:15.000Z</time>
      </trkpt>
      <trkpt lat="46.2691" lon="7.47679">
        <ele>557</ele>
        <time>2023-04-04T14:18:19.000Z</time>
      </trkpt>
      <trkpt lat="46.26913" lon="7.47692">
        <ele>557</ele>
        <time>2023-04-04T14:18:21.000Z</time>
      </trkpt>
      <trkpt lat="46.26915" lon="7.47698">
        <ele>557</ele>
        <time>2023-04-04T14:18:22.000Z</time>
      </trkpt>
      <trkpt lat="46.26917" lon="7.47705">
        <ele>557</ele>
        <time>2023-04-04T14:18:23.000Z</time>
      </trkpt>
      <trkpt lat="46.26918" lon="7.47711">
        <ele>557</ele>
        <time>2023-04-04T14:18:24.000Z</time>
      </trkpt>
      <trkpt lat="46.2692" lon="7.47717">
        <ele>557.20001220703</ele>
        <time>2023-04-04T14:18:25.000Z</time>
      </trkpt>
      <trkpt lat="46.26922" lon="7.47724">
        <ele>557.20001220703</ele>
        <time>2023-04-04T14:18:26.000Z</time>
      </trkpt>
      <trkpt lat="46.26923" lon="7.4773">
        <ele>557.20001220703</ele>
        <time>2023-04-04T14:18:27.000Z</time>
      </trkpt>
      <trkpt lat="46.26925" lon="7.47736">
        <ele>557.20001220703</ele>
        <time>2023-04-04T14:18:28.000Z</time>
      </trkpt>
      <trkpt lat="46.26927" lon="7.47743">
        <ele>557.20001220703</ele>
        <time>2023-04-04T14:18:29.000Z</time>
      </trkpt>
      <trkpt lat="46.26934" lon="7.47769">
        <ele>557.20001220703</ele>
        <time>2023-04-04T14:18:33.000Z</time>
      </trkpt>
      <trkpt lat="46.26949" lon="7.4782">
        <ele>557.20001220703</ele>
        <time>2023-04-04T14:18:41.000Z</time>
      </trkpt>
      <trkpt lat="46.26961" lon="7.47864">
        <ele>557.20001220703</ele>
        <time>2023-04-04T14:18:48.000Z</time>
      </trkpt>
      <trkpt lat="46.26963" lon="7.4787">
        <ele>557.20001220703</ele>
        <time>2023-04-04T14:18:49.000Z</time>
      </trkpt>
      <trkpt lat="46.26965" lon="7.47876">
        <ele>557.20001220703</ele>
        <time>2023-04-04T14:18:50.000Z</time>
      </trkpt>
      <trkpt lat="46.26967" lon="7.47883">
        <ele>557</ele>
        <time>2023-04-04T14:18:51.000Z</time>
      </trkpt>
      <trkpt lat="46.26968" lon="7.47889">
        <ele>557</ele>
        <time>2023-04-04T14:18:52.000Z</time>
      </trkpt>
      <trkpt lat="46.2697" lon="7.47895">
        <ele>557</ele>
        <time>2023-04-04T14:18:53.000Z</time>
      </trkpt>
      <trkpt lat="46.26971" lon="7.47901">
        <ele>557</ele>
        <time>2023-04-04T14:18:54.000Z</time>
      </trkpt>
      <trkpt lat="46.26973" lon="7.47907">
        <ele>557</ele>
        <time>2023-04-04T14:18:55.000Z</time>
      </trkpt>
      <trkpt lat="46.26978" lon="7.47926">
        <ele>557</ele>
        <time>2023-04-04T14:18:58.000Z</time>
      </trkpt>
      <trkpt lat="46.26984" lon="7.47944">
        <ele>557.20001220703</ele>
        <time>2023-04-04T14:19:01.000Z</time>
      </trkpt>
      <trkpt lat="46.26995" lon="7.47982">
        <ele>557.40002441406</ele>
        <time>2023-04-04T14:19:07.000Z</time>
      </trkpt>
      <trkpt lat="46.26998" lon="7.47994">
        <ele>557.20001220703</ele>
        <time>2023-04-04T14:19:09.000Z</time>
      </trkpt>
      <trkpt lat="46.27" lon="7.48">
        <ele>557.20001220703</ele>
        <time>2023-04-04T14:19:10.000Z</time>
      </trkpt>
      <trkpt lat="46.27005" lon="7.48019">
        <ele>557.20001220703</ele>
        <time>2023-04-04T14:19:13.000Z</time>
      </trkpt>
      <trkpt lat="46.27011" lon="7.48038">
        <ele>557.20001220703</ele>
        <time>2023-04-04T14:19:16.000Z</time>
      </trkpt>
      <trkpt lat="46.27012" lon="7.48045">
        <ele>557.20001220703</ele>
        <time>2023-04-04T14:19:17.000Z</time>
      </trkpt>
      <trkpt lat="46.27014" lon="7.48051">
        <ele>557.20001220703</ele>
        <time>2023-04-04T14:19:18.000Z</time>
      </trkpt>
      <trkpt lat="46.27016" lon="7.48057">
        <ele>557.20001220703</ele>
        <time>2023-04-04T14:19:19.000Z</time>
      </trkpt>
      <trkpt lat="46.27023" lon="7.48083">
        <ele>557.40002441406</ele>
        <time>2023-04-04T14:19:23.000Z</time>
      </trkpt>
      <trkpt lat="46.27036" lon="7.48121">
        <ele>557.79998779297</ele>
        <time>2023-04-04T14:19:29.000Z</time>
      </trkpt>
      <trkpt lat="46.27039" lon="7.48134">
        <ele>557.79998779297</ele>
        <time>2023-04-04T14:19:31.000Z</time>
      </trkpt>
      <trkpt lat="46.27044" lon="7.48153">
        <ele>558</ele>
        <time>2023-04-04T14:19:34.000Z</time>
      </trkpt>
      <trkpt lat="46.27053" lon="7.48185">
        <ele>558.40002441406</ele>
        <time>2023-04-04T14:19:39.000Z</time>
      </trkpt>
      <trkpt lat="46.27069" lon="7.48236">
        <ele>558.59997558594</ele>
        <time>2023-04-04T14:19:47.000Z</time>
      </trkpt>
      <trkpt lat="46.27082" lon="7.48281">
        <ele>559</ele>
        <time>2023-04-04T14:19:54.000Z</time>
      </trkpt>
      <trkpt lat="46.27088" lon="7.48301">
        <ele>559</ele>
        <time>2023-04-04T14:19:57.000Z</time>
      </trkpt>
      <trkpt lat="46.27094" lon="7.48328">
        <ele>559.20001220703</ele>
        <time>2023-04-04T14:20:01.000Z</time>
      </trkpt>
      <trkpt lat="46.27101" lon="7.48354">
        <ele>559.40002441406</ele>
        <time>2023-04-04T14:20:05.000Z</time>
      </trkpt>
      <trkpt lat="46.27105" lon="7.48367">
        <ele>559.59997558594</ele>
        <time>2023-04-04T14:20:07.000Z</time>
      </trkpt>
      <trkpt lat="46.27106" lon="7.48373">
        <ele>559.59997558594</ele>
        <time>2023-04-04T14:20:08.000Z</time>
      </trkpt>
      <trkpt lat="46.27108" lon="7.4838">
        <ele>559.59997558594</ele>
        <time>2023-04-04T14:20:09.000Z</time>
      </trkpt>
      <trkpt lat="46.2711" lon="7.48386">
        <ele>559.59997558594</ele>
        <time>2023-04-04T14:20:10.000Z</time>
      </trkpt>
      <trkpt lat="46.27117" lon="7.48413">
        <ele>559.79998779297</ele>
        <time>2023-04-04T14:20:14.000Z</time>
      </trkpt>
      <trkpt lat="46.27121" lon="7.48426">
        <ele>559.79998779297</ele>
        <time>2023-04-04T14:20:16.000Z</time>
      </trkpt>
      <trkpt lat="46.27126" lon="7.48445">
        <ele>560</ele>
        <time>2023-04-04T14:20:19.000Z</time>
      </trkpt>
      <trkpt lat="46.27129" lon="7.48458">
        <ele>560</ele>
        <time>2023-04-04T14:20:21.000Z</time>
      </trkpt>
      <trkpt lat="46.27131" lon="7.48471">
        <ele>560</ele>
        <time>2023-04-04T14:20:23.000Z</time>
      </trkpt>
      <trkpt lat="46.27134" lon="7.48476">
        <ele>560</ele>
        <time>2023-04-04T14:20:24.000Z</time>
      </trkpt>
      <trkpt lat="46.27136" lon="7.48482">
        <ele>560</ele>
        <time>2023-04-04T14:20:25.000Z</time>
      </trkpt>
      <trkpt lat="46.27138" lon="7.48488">
        <ele>559.79998779297</ele>
        <time>2023-04-04T14:20:26.000Z</time>
      </trkpt>
      <trkpt lat="46.27151" lon="7.48525">
        <ele>559.79998779297</ele>
        <time>2023-04-04T14:20:32.000Z</time>
      </trkpt>
      <trkpt lat="46.27156" lon="7.48535">
        <ele>559.79998779297</ele>
        <time>2023-04-04T14:20:34.000Z</time>
      </trkpt>
      <trkpt lat="46.27162" lon="7.48545">
        <ele>559.79998779297</ele>
        <time>2023-04-04T14:20:36.000Z</time>
      </trkpt>
      <trkpt lat="46.27164" lon="7.4855">
        <ele>560</ele>
        <time>2023-04-04T14:20:37.000Z</time>
      </trkpt>
      <trkpt lat="46.27168" lon="7.48556">
        <ele>560</ele>
        <time>2023-04-04T14:20:38.000Z</time>
      </trkpt>
      <trkpt lat="46.2717" lon="7.48561">
        <ele>560</ele>
        <time>2023-04-04T14:20:39.000Z</time>
      </trkpt>
      <trkpt lat="46.27172" lon="7.48566">
        <ele>559.79998779297</ele>
        <time>2023-04-04T14:20:40.000Z</time>
      </trkpt>
      <trkpt lat="46.27187" lon="7.48607">
        <ele>560</ele>
        <time>2023-04-04T14:20:47.000Z</time>
      </trkpt>
      <trkpt lat="46.27197" lon="7.48644">
        <ele>560</ele>
        <time>2023-04-04T14:20:53.000Z</time>
      </trkpt>
      <trkpt lat="46.27199" lon="7.48651">
        <ele>560</ele>
        <time>2023-04-04T14:20:54.000Z</time>
      </trkpt>
      <trkpt lat="46.27206" lon="7.48675">
        <ele>560.20001220703</ele>
        <time>2023-04-04T14:20:58.000Z</time>
      </trkpt>
      <trkpt lat="46.27215" lon="7.48707">
        <ele>560.20001220703</ele>
        <time>2023-04-04T14:21:03.000Z</time>
      </trkpt>
      <trkpt lat="46.27224" lon="7.48745">
        <ele>560.40002441406</ele>
        <time>2023-04-04T14:21:09.000Z</time>
      </trkpt>
      <trkpt lat="46.27227" lon="7.48757">
        <ele>560.59997558594</ele>
        <time>2023-04-04T14:21:11.000Z</time>
      </trkpt>
      <trkpt lat="46.27232" lon="7.48776">
        <ele>560.59997558594</ele>
        <time>2023-04-04T14:21:14.000Z</time>
      </trkpt>
      <trkpt lat="46.27233" lon="7.48782">
        <ele>560.59997558594</ele>
        <time>2023-04-04T14:21:15.000Z</time>
      </trkpt>
      <trkpt lat="46.27234" lon="7.48787">
        <ele>560.59997558594</ele>
        <time>2023-04-04T14:21:16.000Z</time>
      </trkpt>
      <trkpt lat="46.27236" lon="7.48793">
        <ele>560.79998779297</ele>
        <time>2023-04-04T14:21:17.000Z</time>
      </trkpt>
      <trkpt lat="46.2724" lon="7.48812">
        <ele>560.79998779297</ele>
        <time>2023-04-04T14:21:20.000Z</time>
      </trkpt>
      <trkpt lat="46.27258" lon="7.48877">
        <ele>560.79998779297</ele>
        <time>2023-04-04T14:21:30.000Z</time>
      </trkpt>
      <trkpt lat="46.27272" lon="7.48929">
        <ele>560.79998779297</ele>
        <time>2023-04-04T14:21:38.000Z</time>
      </trkpt>
      <trkpt lat="46.27281" lon="7.48961">
        <ele>561</ele>
        <time>2023-04-04T14:21:43.000Z</time>
      </trkpt>
      <trkpt lat="46.27282" lon="7.48968">
        <ele>561</ele>
        <time>2023-04-04T14:21:44.000Z</time>
      </trkpt>
      <trkpt lat="46.27284" lon="7.48974">
        <ele>561</ele>
        <time>2023-04-04T14:21:45.000Z</time>
      </trkpt>
      <trkpt lat="46.27285" lon="7.4898">
        <ele>561</ele>
        <time>2023-04-04T14:21:46.000Z</time>
      </trkpt>
      <trkpt lat="46.27295" lon="7.49019">
        <ele>561.20001220703</ele>
        <time>2023-04-04T14:21:52.000Z</time>
      </trkpt>
      <trkpt lat="46.27297" lon="7.49024">
        <ele>561.20001220703</ele>
        <time>2023-04-04T14:21:53.000Z</time>
      </trkpt>
      <trkpt lat="46.27298" lon="7.49029">
        <ele>561.20001220703</ele>
        <time>2023-04-04T14:21:54.000Z</time>
      </trkpt>
      <trkpt lat="46.27299" lon="7.49034">
        <ele>561.20001220703</ele>
        <time>2023-04-04T14:21:55.000Z</time>
      </trkpt>
      <trkpt lat="46.27301" lon="7.49039">
        <ele>561.20001220703</ele>
        <time>2023-04-04T14:21:56.000Z</time>
      </trkpt>
      <trkpt lat="46.27303" lon="7.49052">
        <ele>561.20001220703</ele>
        <time>2023-04-04T14:21:58.000Z</time>
      </trkpt>
      <trkpt lat="46.27307" lon="7.49065">
        <ele>561.40002441406</ele>
        <time>2023-04-04T14:22:00.000Z</time>
      </trkpt>
      <trkpt lat="46.27308" lon="7.49071">
        <ele>561.40002441406</ele>
        <time>2023-04-04T14:22:01.000Z</time>
      </trkpt>
      <trkpt lat="46.27316" lon="7.49097">
        <ele>561.40002441406</ele>
        <time>2023-04-04T14:22:05.000Z</time>
      </trkpt>
      <trkpt lat="46.27322" lon="7.4911">
        <ele>561.59997558594</ele>
        <time>2023-04-04T14:22:07.000Z</time>
      </trkpt>
      <trkpt lat="46.27325" lon="7.49122">
        <ele>561.59997558594</ele>
        <time>2023-04-04T14:22:09.000Z</time>
      </trkpt>
      <trkpt lat="46.27338" lon="7.4918">
        <ele>562.20001220703</ele>
        <time>2023-04-04T14:22:18.000Z</time>
      </trkpt>
      <trkpt lat="46.27343" lon="7.492">
        <ele>562.20001220703</ele>
        <time>2023-04-04T14:22:21.000Z</time>
      </trkpt>
      <trkpt lat="46.27349" lon="7.49227">
        <ele>562.20001220703</ele>
        <time>2023-04-04T14:22:25.000Z</time>
      </trkpt>
      <trkpt lat="46.27351" lon="7.4924">
        <ele>562.20001220703</ele>
        <time>2023-04-04T14:22:27.000Z</time>
      </trkpt>
      <trkpt lat="46.27354" lon="7.49257">
        <ele>562.40002441406</ele>
        <time>2023-04-04T14:22:30.000Z</time>
      </trkpt>
      <trkpt lat="46.27355" lon="7.49263">
        <ele>562.40002441406</ele>
        <time>2023-04-04T14:22:31.000Z</time>
      </trkpt>
      <trkpt lat="46.27356" lon="7.49268">
        <ele>562.40002441406</ele>
        <time>2023-04-04T14:22:32.000Z</time>
      </trkpt>
      <trkpt lat="46.27357" lon="7.49274">
        <ele>562.40002441406</ele>
        <time>2023-04-04T14:22:33.000Z</time>
      </trkpt>
      <trkpt lat="46.27358" lon="7.49278">
        <ele>562.40002441406</ele>
        <time>2023-04-04T14:22:34.000Z</time>
      </trkpt>
      <trkpt lat="46.27361" lon="7.49293">
        <ele>562.40002441406</ele>
        <time>2023-04-04T14:22:37.000Z</time>
      </trkpt>
      <trkpt lat="46.27362" lon="7.49298">
        <ele>562.40002441406</ele>
        <time>2023-04-04T14:22:38.000Z</time>
      </trkpt>
      <trkpt lat="46.27364" lon="7.49303">
        <ele>562.40002441406</ele>
        <time>2023-04-04T14:22:39.000Z</time>
      </trkpt>
      <trkpt lat="46.27365" lon="7.49307">
        <ele>562.40002441406</ele>
        <time>2023-04-04T14:22:40.000Z</time>
      </trkpt>
      <trkpt lat="46.27365" lon="7.49311">
        <ele>562.20001220703</ele>
        <time>2023-04-04T14:22:41.000Z</time>
      </trkpt>
      <trkpt lat="46.27366" lon="7.49316">
        <ele>562.20001220703</ele>
        <time>2023-04-04T14:22:42.000Z</time>
      </trkpt>
      <trkpt lat="46.27367" lon="7.49321">
        <ele>562.20001220703</ele>
        <time>2023-04-04T14:22:43.000Z</time>
      </trkpt>
      <trkpt lat="46.27367" lon="7.49326">
        <ele>562.20001220703</ele>
        <time>2023-04-04T14:22:44.000Z</time>
      </trkpt>
      <trkpt lat="46.27368" lon="7.49331">
        <ele>562.20001220703</ele>
        <time>2023-04-04T14:22:45.000Z</time>
      </trkpt>
      <trkpt lat="46.27373" lon="7.49377">
        <ele>562.40002441406</ele>
        <time>2023-04-04T14:22:53.000Z</time>
      </trkpt>
      <trkpt lat="46.2738" lon="7.49415">
        <ele>562.20001220703</ele>
        <time>2023-04-04T14:23:00.000Z</time>
      </trkpt>
      <trkpt lat="46.27381" lon="7.49421">
        <ele>562.20001220703</ele>
        <time>2023-04-04T14:23:01.000Z</time>
      </trkpt>
      <trkpt lat="46.27382" lon="7.49426">
        <ele>562.20001220703</ele>
        <time>2023-04-04T14:23:02.000Z</time>
      </trkpt>
      <trkpt lat="46.27383" lon="7.49432">
        <ele>562.20001220703</ele>
        <time>2023-04-04T14:23:03.000Z</time>
      </trkpt>
      <trkpt lat="46.27388" lon="7.49467">
        <ele>562.40002441406</ele>
        <time>2023-04-04T14:23:09.000Z</time>
      </trkpt>
      <trkpt lat="46.27393" lon="7.49491">
        <ele>562.79998779297</ele>
        <time>2023-04-04T14:23:13.000Z</time>
      </trkpt>
      <trkpt lat="46.27395" lon="7.49509">
        <ele>562.79998779297</ele>
        <time>2023-04-04T14:23:16.000Z</time>
      </trkpt>
      <trkpt lat="46.27402" lon="7.49558">
        <ele>562.79998779297</ele>
        <time>2023-04-04T14:23:24.000Z</time>
      </trkpt>
      <trkpt lat="46.27411" lon="7.49629">
        <ele>562.79998779297</ele>
        <time>2023-04-04T14:23:35.000Z</time>
      </trkpt>
      <trkpt lat="46.27418" lon="7.49673">
        <ele>562.59997558594</ele>
        <time>2023-04-04T14:23:42.000Z</time>
      </trkpt>
      <trkpt lat="46.27425" lon="7.49711">
        <ele>562.59997558594</ele>
        <time>2023-04-04T14:23:48.000Z</time>
      </trkpt>
      <trkpt lat="46.27426" lon="7.49717">
        <ele>562.59997558594</ele>
        <time>2023-04-04T14:23:49.000Z</time>
      </trkpt>
      <trkpt lat="46.27427" lon="7.49724">
        <ele>562.59997558594</ele>
        <time>2023-04-04T14:23:50.000Z</time>
      </trkpt>
      <trkpt lat="46.27429" lon="7.4973">
        <ele>562.59997558594</ele>
        <time>2023-04-04T14:23:51.000Z</time>
      </trkpt>
      <trkpt lat="46.27439" lon="7.49791">
        <ele>563.20001220703</ele>
        <time>2023-04-04T14:24:01.000Z</time>
      </trkpt>
      <trkpt lat="46.27446" lon="7.4983">
        <ele>563.40002441406</ele>
        <time>2023-04-04T14:24:07.000Z</time>
      </trkpt>
      <trkpt lat="46.27447" lon="7.49836">
        <ele>563.40002441406</ele>
        <time>2023-04-04T14:24:08.000Z</time>
      </trkpt>
      <trkpt lat="46.27448" lon="7.49842">
        <ele>563.20001220703</ele>
        <time>2023-04-04T14:24:09.000Z</time>
      </trkpt>
      <trkpt lat="46.27449" lon="7.49847">
        <ele>563.20001220703</ele>
        <time>2023-04-04T14:24:10.000Z</time>
      </trkpt>
      <trkpt lat="46.2745" lon="7.49852">
        <ele>563.20001220703</ele>
        <time>2023-04-04T14:24:11.000Z</time>
      </trkpt>
      <trkpt lat="46.2745" lon="7.49857">
        <ele>563.20001220703</ele>
        <time>2023-04-04T14:24:12.000Z</time>
      </trkpt>
      <trkpt lat="46.27451" lon="7.49862">
        <ele>563.20001220703</ele>
        <time>2023-04-04T14:24:13.000Z</time>
      </trkpt>
      <trkpt lat="46.27455" lon="7.49878">
        <ele>563.20001220703</ele>
        <time>2023-04-04T14:24:16.000Z</time>
      </trkpt>
      <trkpt lat="46.2746" lon="7.49908">
        <ele>563.59997558594</ele>
        <time>2023-04-04T14:24:21.000Z</time>
      </trkpt>
      <trkpt lat="46.27465" lon="7.49938">
        <ele>563.59997558594</ele>
        <time>2023-04-04T14:24:26.000Z</time>
      </trkpt>
      <trkpt lat="46.27466" lon="7.49949">
        <ele>563.59997558594</ele>
        <time>2023-04-04T14:24:28.000Z</time>
      </trkpt>
      <trkpt lat="46.27475" lon="7.49994">
        <ele>563.59997558594</ele>
        <time>2023-04-04T14:24:35.000Z</time>
      </trkpt>
      <trkpt lat="46.27485" lon="7.50044">
        <ele>564</ele>
        <time>2023-04-04T14:24:43.000Z</time>
      </trkpt>
      <trkpt lat="46.27487" lon="7.5005">
        <ele>564</ele>
        <time>2023-04-04T14:24:44.000Z</time>
      </trkpt>
      <trkpt lat="46.27488" lon="7.50056">
        <ele>564</ele>
        <time>2023-04-04T14:24:45.000Z</time>
      </trkpt>
      <trkpt lat="46.27489" lon="7.50061">
        <ele>564</ele>
        <time>2023-04-04T14:24:46.000Z</time>
      </trkpt>
      <trkpt lat="46.27499" lon="7.50101">
        <ele>563.79998779297</ele>
        <time>2023-04-04T14:24:52.000Z</time>
      </trkpt>
      <trkpt lat="46.27512" lon="7.50154">
        <ele>564</ele>
        <time>2023-04-04T14:25:00.000Z</time>
      </trkpt>
      <trkpt lat="46.2753" lon="7.50232">
        <ele>564.40002441406</ele>
        <time>2023-04-04T14:25:12.000Z</time>
      </trkpt>
      <trkpt lat="46.27531" lon="7.50239">
        <ele>564.40002441406</ele>
        <time>2023-04-04T14:25:13.000Z</time>
      </trkpt>
      <trkpt lat="46.27533" lon="7.50246">
        <ele>564.40002441406</ele>
        <time>2023-04-04T14:25:14.000Z</time>
      </trkpt>
      <trkpt lat="46.27535" lon="7.50252">
        <ele>564.40002441406</ele>
        <time>2023-04-04T14:25:15.000Z</time>
      </trkpt>
      <trkpt lat="46.27536" lon="7.50259">
        <ele>564.59997558594</ele>
        <time>2023-04-04T14:25:16.000Z</time>
      </trkpt>
      <trkpt lat="46.27542" lon="7.50285">
        <ele>564.59997558594</ele>
        <time>2023-04-04T14:25:20.000Z</time>
      </trkpt>
      <trkpt lat="46.2755" lon="7.50331">
        <ele>565.20001220703</ele>
        <time>2023-04-04T14:25:27.000Z</time>
      </trkpt>
      <trkpt lat="46.27554" lon="7.50345">
        <ele>565.20001220703</ele>
        <time>2023-04-04T14:25:29.000Z</time>
      </trkpt>
      <trkpt lat="46.27561" lon="7.50391">
        <ele>565.20001220703</ele>
        <time>2023-04-04T14:25:36.000Z</time>
      </trkpt>
      <trkpt lat="46.27561" lon="7.50396">
        <ele>565.20001220703</ele>
        <time>2023-04-04T14:25:37.000Z</time>
      </trkpt>
      <trkpt lat="46.27562" lon="7.50402">
        <ele>565.20001220703</ele>
        <time>2023-04-04T14:25:38.000Z</time>
      </trkpt>
      <trkpt lat="46.27565" lon="7.50415">
        <ele>565</ele>
        <time>2023-04-04T14:25:40.000Z</time>
      </trkpt>
      <trkpt lat="46.27571" lon="7.50448">
        <ele>564.79998779297</ele>
        <time>2023-04-04T14:25:45.000Z</time>
      </trkpt>
      <trkpt lat="46.27572" lon="7.50455">
        <ele>564.79998779297</ele>
        <time>2023-04-04T14:25:46.000Z</time>
      </trkpt>
      <trkpt lat="46.27583" lon="7.50513">
        <ele>565</ele>
        <time>2023-04-04T14:25:55.000Z</time>
      </trkpt>
      <trkpt lat="46.27587" lon="7.5054">
        <ele>565</ele>
        <time>2023-04-04T14:25:59.000Z</time>
      </trkpt>
      <trkpt lat="46.27595" lon="7.5058">
        <ele>565.40002441406</ele>
        <time>2023-04-04T14:26:05.000Z</time>
      </trkpt>
      <trkpt lat="46.27598" lon="7.50599">
        <ele>565.40002441406</ele>
        <time>2023-04-04T14:26:08.000Z</time>
      </trkpt>
      <trkpt lat="46.27599" lon="7.50605">
        <ele>565.40002441406</ele>
        <time>2023-04-04T14:26:09.000Z</time>
      </trkpt>
      <trkpt lat="46.276" lon="7.50612">
        <ele>565.40002441406</ele>
        <time>2023-04-04T14:26:10.000Z</time>
      </trkpt>
      <trkpt lat="46.27606" lon="7.50646">
        <ele>565.40002441406</ele>
        <time>2023-04-04T14:26:15.000Z</time>
      </trkpt>
      <trkpt lat="46.27619" lon="7.5072">
        <ele>565.40002441406</ele>
        <time>2023-04-04T14:26:26.000Z</time>
      </trkpt>
      <trkpt lat="46.2763" lon="7.50783">
        <ele>565.40002441406</ele>
        <time>2023-04-04T14:26:35.000Z</time>
      </trkpt>
      <trkpt lat="46.2763" lon="7.5079">
        <ele>565.40002441406</ele>
        <time>2023-04-04T14:26:36.000Z</time>
      </trkpt>
      <trkpt lat="46.27631" lon="7.50797">
        <ele>565.40002441406</ele>
        <time>2023-04-04T14:26:37.000Z</time>
      </trkpt>
      <trkpt lat="46.27632" lon="7.50803">
        <ele>565.40002441406</ele>
        <time>2023-04-04T14:26:38.000Z</time>
      </trkpt>
      <trkpt lat="46.27633" lon="7.5081">
        <ele>565.40002441406</ele>
        <time>2023-04-04T14:26:39.000Z</time>
      </trkpt>
      <trkpt lat="46.27633" lon="7.50816">
        <ele>565.40002441406</ele>
        <time>2023-04-04T14:26:40.000Z</time>
      </trkpt>
      <trkpt lat="46.27634" lon="7.50823">
        <ele>565.40002441406</ele>
        <time>2023-04-04T14:26:41.000Z</time>
      </trkpt>
      <trkpt lat="46.27634" lon="7.50836">
        <ele>565.40002441406</ele>
        <time>2023-04-04T14:26:43.000Z</time>
      </trkpt>
      <trkpt lat="46.27633" lon="7.50841">
        <ele>565.40002441406</ele>
        <time>2023-04-04T14:26:44.000Z</time>
      </trkpt>
      <trkpt lat="46.27632" lon="7.50847">
        <ele>565.40002441406</ele>
        <time>2023-04-04T14:26:45.000Z</time>
      </trkpt>
      <trkpt lat="46.27631" lon="7.50852">
        <ele>565.40002441406</ele>
        <time>2023-04-04T14:26:46.000Z</time>
      </trkpt>
      <trkpt lat="46.2763" lon="7.50857">
        <ele>565.40002441406</ele>
        <time>2023-04-04T14:26:47.000Z</time>
      </trkpt>
      <trkpt lat="46.27629" lon="7.50861">
        <ele>565.40002441406</ele>
        <time>2023-04-04T14:26:48.000Z</time>
      </trkpt>
      <trkpt lat="46.27629" lon="7.50865">
        <ele>565.40002441406</ele>
        <time>2023-04-04T14:26:49.000Z</time>
      </trkpt>
      <trkpt lat="46.27628" lon="7.50868">
        <ele>565.59997558594</ele>
        <time>2023-04-04T14:26:50.000Z</time>
      </trkpt>
      <trkpt lat="46.27629" lon="7.5087">
        <ele>565.79998779297</ele>
        <time>2023-04-04T14:26:51.000Z</time>
      </trkpt>
      <trkpt lat="46.27629" lon="7.50871">
        <ele>566</ele>
        <time>2023-04-04T14:26:52.000Z</time>
      </trkpt>
      <trkpt lat="46.27629" lon="7.50871">
        <ele>566.20001220703</ele>
        <time>2023-04-04T14:26:54.000Z</time>
      </trkpt>
      <trkpt lat="46.27634" lon="7.50872">
        <ele>567.79998779297</ele>
        <time>2023-04-04T14:27:24.000Z</time>
      </trkpt>
      <trkpt lat="46.27636" lon="7.50871">
        <ele>567.79998779297</ele>
        <time>2023-04-04T14:27:25.000Z</time>
      </trkpt>
      <trkpt lat="46.27638" lon="7.50871">
        <ele>567.79998779297</ele>
        <time>2023-04-04T14:27:26.000Z</time>
      </trkpt>
      <trkpt lat="46.2764" lon="7.5087">
        <ele>567.79998779297</ele>
        <time>2023-04-04T14:27:27.000Z</time>
      </trkpt>
      <trkpt lat="46.27641" lon="7.50869">
        <ele>568</ele>
        <time>2023-04-04T14:27:28.000Z</time>
      </trkpt>
      <trkpt lat="46.27643" lon="7.50869">
        <ele>568</ele>
        <time>2023-04-04T14:27:29.000Z</time>
      </trkpt>
      <trkpt lat="46.27645" lon="7.50869">
        <ele>568.20001220703</ele>
        <time>2023-04-04T14:27:30.000Z</time>
      </trkpt>
      <trkpt lat="46.27647" lon="7.5087">
        <ele>568.40002441406</ele>
        <time>2023-04-04T14:27:31.000Z</time>
      </trkpt>
      <trkpt lat="46.27649" lon="7.5087">
        <ele>568.59997558594</ele>
        <time>2023-04-04T14:27:32.000Z</time>
      </trkpt>
      <trkpt lat="46.27651" lon="7.5087">
        <ele>568.59997558594</ele>
        <time>2023-04-04T14:27:33.000Z</time>
      </trkpt>
      <trkpt lat="46.27655" lon="7.50868">
        <ele>568.59997558594</ele>
        <time>2023-04-04T14:27:35.000Z</time>
      </trkpt>
      <trkpt lat="46.27657" lon="7.50867">
        <ele>568.59997558594</ele>
        <time>2023-04-04T14:27:36.000Z</time>
      </trkpt>
      <trkpt lat="46.27659" lon="7.50866">
        <ele>568.59997558594</ele>
        <time>2023-04-04T14:27:37.000Z</time>
      </trkpt>
      <trkpt lat="46.27677" lon="7.50861">
        <ele>569.20001220703</ele>
        <time>2023-04-04T14:27:44.000Z</time>
      </trkpt>
      <trkpt lat="46.27682" lon="7.50859">
        <ele>569.40002441406</ele>
        <time>2023-04-04T14:27:46.000Z</time>
      </trkpt>
      <trkpt lat="46.27706" lon="7.5085">
        <ele>570.20001220703</ele>
        <time>2023-04-04T14:27:54.000Z</time>
      </trkpt>
      <trkpt lat="46.27728" lon="7.50842">
        <ele>570</ele>
        <time>2023-04-04T14:28:01.000Z</time>
      </trkpt>
      <trkpt lat="46.2773" lon="7.5084">
        <ele>569.79998779297</ele>
        <time>2023-04-04T14:28:02.000Z</time>
      </trkpt>
      <trkpt lat="46.27731" lon="7.50839">
        <ele>569.40002441406</ele>
        <time>2023-04-04T14:28:03.000Z</time>
      </trkpt>
      <trkpt lat="46.27733" lon="7.50838">
        <ele>569.40002441406</ele>
        <time>2023-04-04T14:28:04.000Z</time>
      </trkpt>
      <trkpt lat="46.27734" lon="7.50838">
        <ele>569.40002441406</ele>
        <time>2023-04-04T14:28:05.000Z</time>
      </trkpt>
      <trkpt lat="46.27735" lon="7.50839">
        <ele>569.40002441406</ele>
        <time>2023-04-04T14:28:06.000Z</time>
      </trkpt>
      <trkpt lat="46.27735" lon="7.50839">
        <ele>569.20001220703</ele>
        <time>2023-04-04T14:28:07.000Z</time>
      </trkpt>
      <trkpt lat="46.27735" lon="7.5084">
        <ele>569.20001220703</ele>
        <time>2023-04-04T14:28:08.000Z</time>
      </trkpt>
      <trkpt lat="46.27735" lon="7.5084">
        <ele>569.20001220703</ele>
        <time>2023-04-04T14:28:09.000Z</time>
      </trkpt>
      <trkpt lat="46.27736" lon="7.5084">
        <ele>569.20001220703</ele>
        <time>2023-04-04T14:28:10.000Z</time>
      </trkpt>
      <trkpt lat="46.27737" lon="7.50843">
        <ele>569.20001220703</ele>
        <time>2023-04-04T14:28:12.000Z</time>
      </trkpt>
      <trkpt lat="46.27738" lon="7.50845">
        <ele>569.20001220703</ele>
        <time>2023-04-04T14:28:13.000Z</time>
      </trkpt>
      <trkpt lat="46.27738" lon="7.50847">
        <ele>569.20001220703</ele>
        <time>2023-04-04T14:28:14.000Z</time>
      </trkpt>
      <trkpt lat="46.27739" lon="7.5085">
        <ele>569.20001220703</ele>
        <time>2023-04-04T14:28:15.000Z</time>
      </trkpt>
      <trkpt lat="46.27739" lon="7.50852">
        <ele>569.20001220703</ele>
        <time>2023-04-04T14:28:16.000Z</time>
      </trkpt>
      <trkpt lat="46.27739" lon="7.50854">
        <ele>569.20001220703</ele>
        <time>2023-04-04T14:28:17.000Z</time>
      </trkpt>
      <trkpt lat="46.27739" lon="7.50857">
        <ele>569.20001220703</ele>
        <time>2023-04-04T14:28:18.000Z</time>
      </trkpt>
      <trkpt lat="46.27739" lon="7.50858">
        <ele>569.20001220703</ele>
        <time>2023-04-04T14:28:19.000Z</time>
      </trkpt>
      <trkpt lat="46.27739" lon="7.50858">
        <ele>569.20001220703</ele>
        <time>2023-04-04T14:28:21.000Z</time>
      </trkpt>
      <trkpt lat="46.2774" lon="7.50866">
        <ele>569.20001220703</ele>
        <time>2023-04-04T14:28:29.000Z</time>
      </trkpt>
      <trkpt lat="46.27742" lon="7.5089">
        <ele>568.79998779297</ele>
        <time>2023-04-04T14:28:34.000Z</time>
      </trkpt>
      <trkpt lat="46.27746" lon="7.50915">
        <ele>568.20001220703</ele>
        <time>2023-04-04T14:28:38.000Z</time>
      </trkpt>
      <trkpt lat="46.27749" lon="7.50936">
        <ele>567.40002441406</ele>
        <time>2023-04-04T14:28:41.000Z</time>
      </trkpt>
      <trkpt lat="46.27751" lon="7.50943">
        <ele>567.20001220703</ele>
        <time>2023-04-04T14:28:42.000Z</time>
      </trkpt>
      <trkpt lat="46.27752" lon="7.50949">
        <ele>567</ele>
        <time>2023-04-04T14:28:43.000Z</time>
      </trkpt>
      <trkpt lat="46.27758" lon="7.50979">
        <ele>566.40002441406</ele>
        <time>2023-04-04T14:28:48.000Z</time>
      </trkpt>
      <trkpt lat="46.27759" lon="7.50985">
        <ele>566.40002441406</ele>
        <time>2023-04-04T14:28:49.000Z</time>
      </trkpt>
      <trkpt lat="46.2776" lon="7.50991">
        <ele>566.40002441406</ele>
        <time>2023-04-04T14:28:50.000Z</time>
      </trkpt>
      <trkpt lat="46.27761" lon="7.50996">
        <ele>566.40002441406</ele>
        <time>2023-04-04T14:28:51.000Z</time>
      </trkpt>
      <trkpt lat="46.27762" lon="7.51002">
        <ele>566.40002441406</ele>
        <time>2023-04-04T14:28:52.000Z</time>
      </trkpt>
      <trkpt lat="46.27763" lon="7.51007">
        <ele>566.59997558594</ele>
        <time>2023-04-04T14:28:53.000Z</time>
      </trkpt>
      <trkpt lat="46.27763" lon="7.51012">
        <ele>566.59997558594</ele>
        <time>2023-04-04T14:28:54.000Z</time>
      </trkpt>
      <trkpt lat="46.27764" lon="7.51018">
        <ele>566.59997558594</ele>
        <time>2023-04-04T14:28:55.000Z</time>
      </trkpt>
      <trkpt lat="46.27773" lon="7.51066">
        <ele>566.79998779297</ele>
        <time>2023-04-04T14:29:03.000Z</time>
      </trkpt>
      <trkpt lat="46.27783" lon="7.51119">
        <ele>567.40002441406</ele>
        <time>2023-04-04T14:29:12.000Z</time>
      </trkpt>
      <trkpt lat="46.27793" lon="7.51173">
        <ele>567.20001220703</ele>
        <time>2023-04-04T14:29:21.000Z</time>
      </trkpt>
      <trkpt lat="46.278" lon="7.51217">
        <ele>567.20001220703</ele>
        <time>2023-04-04T14:29:28.000Z</time>
      </trkpt>
      <trkpt lat="46.27805" lon="7.51253">
        <ele>567</ele>
        <time>2023-04-04T14:29:34.000Z</time>
      </trkpt>
      <trkpt lat="46.27806" lon="7.51259">
        <ele>567</ele>
        <time>2023-04-04T14:29:35.000Z</time>
      </trkpt>
      <trkpt lat="46.27807" lon="7.51265">
        <ele>567</ele>
        <time>2023-04-04T14:29:36.000Z</time>
      </trkpt>
      <trkpt lat="46.27808" lon="7.51271">
        <ele>567</ele>
        <time>2023-04-04T14:29:37.000Z</time>
      </trkpt>
      <trkpt lat="46.27809" lon="7.51277">
        <ele>567</ele>
        <time>2023-04-04T14:29:38.000Z</time>
      </trkpt>
      <trkpt lat="46.2781" lon="7.51283">
        <ele>567</ele>
        <time>2023-04-04T14:29:39.000Z</time>
      </trkpt>
      <trkpt lat="46.2781" lon="7.51288">
        <ele>567</ele>
        <time>2023-04-04T14:29:40.000Z</time>
      </trkpt>
      <trkpt lat="46.27817" lon="7.51318">
        <ele>567</ele>
        <time>2023-04-04T14:29:45.000Z</time>
      </trkpt>
      <trkpt lat="46.27828" lon="7.51392">
        <ele>567</ele>
        <time>2023-04-04T14:29:57.000Z</time>
      </trkpt>
      <trkpt lat="46.27838" lon="7.5145">
        <ele>567.20001220703</ele>
        <time>2023-04-04T14:30:06.000Z</time>
      </trkpt>
      <trkpt lat="46.27855" lon="7.51511">
        <ele>567</ele>
        <time>2023-04-04T14:30:15.000Z</time>
      </trkpt>
      <trkpt lat="46.27863" lon="7.51538">
        <ele>566.79998779297</ele>
        <time>2023-04-04T14:30:18.000Z</time>
      </trkpt>
      <trkpt lat="46.27867" lon="7.51557">
        <ele>566.40002441406</ele>
        <time>2023-04-04T14:30:20.000Z</time>
      </trkpt>
      <trkpt lat="46.27868" lon="7.51567">
        <ele>566.20001220703</ele>
        <time>2023-04-04T14:30:21.000Z</time>
      </trkpt>
      <trkpt lat="46.27871" lon="7.51598">
        <ele>565.79998779297</ele>
        <time>2023-04-04T14:30:24.000Z</time>
      </trkpt>
      <trkpt lat="46.27872" lon="7.51607">
        <ele>565.79998779297</ele>
        <time>2023-04-04T14:30:25.000Z</time>
      </trkpt>
      <trkpt lat="46.27872" lon="7.51615">
        <ele>565.59997558594</ele>
        <time>2023-04-04T14:30:26.000Z</time>
      </trkpt>
      <trkpt lat="46.27873" lon="7.51622">
        <ele>565.59997558594</ele>
        <time>2023-04-04T14:30:27.000Z</time>
      </trkpt>
      <trkpt lat="46.27873" lon="7.51629">
        <ele>565.59997558594</ele>
        <time>2023-04-04T14:30:28.000Z</time>
      </trkpt>
      <trkpt lat="46.27874" lon="7.51635">
        <ele>565.59997558594</ele>
        <time>2023-04-04T14:30:29.000Z</time>
      </trkpt>
      <trkpt lat="46.27874" lon="7.51641">
        <ele>565.79998779297</ele>
        <time>2023-04-04T14:30:30.000Z</time>
      </trkpt>
      <trkpt lat="46.27874" lon="7.51647">
        <ele>565.79998779297</ele>
        <time>2023-04-04T14:30:31.000Z</time>
      </trkpt>
      <trkpt lat="46.27875" lon="7.51653">
        <ele>566</ele>
        <time>2023-04-04T14:30:32.000Z</time>
      </trkpt>
      <trkpt lat="46.27875" lon="7.51658">
        <ele>566.40002441406</ele>
        <time>2023-04-04T14:30:33.000Z</time>
      </trkpt>
      <trkpt lat="46.27876" lon="7.51664">
        <ele>566.59997558594</ele>
        <time>2023-04-04T14:30:34.000Z</time>
      </trkpt>
      <trkpt lat="46.27876" lon="7.51669">
        <ele>566.59997558594</ele>
        <time>2023-04-04T14:30:35.000Z</time>
      </trkpt>
      <trkpt lat="46.27877" lon="7.51675">
        <ele>567</ele>
        <time>2023-04-04T14:30:36.000Z</time>
      </trkpt>
      <trkpt lat="46.27879" lon="7.51686">
        <ele>567.59997558594</ele>
        <time>2023-04-04T14:30:38.000Z</time>
      </trkpt>
      <trkpt lat="46.27884" lon="7.51722">
        <ele>568</ele>
        <time>2023-04-04T14:30:44.000Z</time>
      </trkpt>
      <trkpt lat="46.27885" lon="7.51728">
        <ele>568</ele>
        <time>2023-04-04T14:30:45.000Z</time>
      </trkpt>
      <trkpt lat="46.2789" lon="7.51759">
        <ele>567.79998779297</ele>
        <time>2023-04-04T14:30:50.000Z</time>
      </trkpt>
      <trkpt lat="46.27893" lon="7.51771">
        <ele>567.79998779297</ele>
        <time>2023-04-04T14:30:52.000Z</time>
      </trkpt>
      <trkpt lat="46.27895" lon="7.51783">
        <ele>567.79998779297</ele>
        <time>2023-04-04T14:30:54.000Z</time>
      </trkpt>
      <trkpt lat="46.27897" lon="7.51795">
        <ele>567.79998779297</ele>
        <time>2023-04-04T14:30:56.000Z</time>
      </trkpt>
      <trkpt lat="46.279" lon="7.51814">
        <ele>568</ele>
        <time>2023-04-04T14:30:59.000Z</time>
      </trkpt>
      <trkpt lat="46.27902" lon="7.51826">
        <ele>568</ele>
        <time>2023-04-04T14:31:01.000Z</time>
      </trkpt>
      <trkpt lat="46.27907" lon="7.5185">
        <ele>568</ele>
        <time>2023-04-04T14:31:05.000Z</time>
      </trkpt>
      <trkpt lat="46.2791" lon="7.51868">
        <ele>568</ele>
        <time>2023-04-04T14:31:08.000Z</time>
      </trkpt>
      <trkpt lat="46.27913" lon="7.51885">
        <ele>568</ele>
        <time>2023-04-04T14:31:11.000Z</time>
      </trkpt>
      <trkpt lat="46.27916" lon="7.51897">
        <ele>568</ele>
        <time>2023-04-04T14:31:13.000Z</time>
      </trkpt>
      <trkpt lat="46.27918" lon="7.51909">
        <ele>568</ele>
        <time>2023-04-04T14:31:15.000Z</time>
      </trkpt>
      <trkpt lat="46.27919" lon="7.51915">
        <ele>568</ele>
        <time>2023-04-04T14:31:16.000Z</time>
      </trkpt>
      <trkpt lat="46.27929" lon="7.51976">
        <ele>568.40002441406</ele>
        <time>2023-04-04T14:31:26.000Z</time>
      </trkpt>
      <trkpt lat="46.27938" lon="7.52027">
        <ele>568.59997558594</ele>
        <time>2023-04-04T14:31:34.000Z</time>
      </trkpt>
      <trkpt lat="46.27939" lon="7.52034">
        <ele>568.59997558594</ele>
        <time>2023-04-04T14:31:35.000Z</time>
      </trkpt>
      <trkpt lat="46.27947" lon="7.52079">
        <ele>568.79998779297</ele>
        <time>2023-04-04T14:31:42.000Z</time>
      </trkpt>
      <trkpt lat="46.27958" lon="7.52145">
        <ele>568.79998779297</ele>
        <time>2023-04-04T14:31:52.000Z</time>
      </trkpt>
      <trkpt lat="46.27964" lon="7.52184">
        <ele>568.79998779297</ele>
        <time>2023-04-04T14:31:58.000Z</time>
      </trkpt>
      <trkpt lat="46.2797" lon="7.52215">
        <ele>568.79998779297</ele>
        <time>2023-04-04T14:32:03.000Z</time>
      </trkpt>
      <trkpt lat="46.27972" lon="7.52227">
        <ele>569.20001220703</ele>
        <time>2023-04-04T14:32:05.000Z</time>
      </trkpt>
      <trkpt lat="46.27973" lon="7.52232">
        <ele>569.20001220703</ele>
        <time>2023-04-04T14:32:06.000Z</time>
      </trkpt>
      <trkpt lat="46.27974" lon="7.52237">
        <ele>569</ele>
        <time>2023-04-04T14:32:07.000Z</time>
      </trkpt>
      <trkpt lat="46.27975" lon="7.52242">
        <ele>569.20001220703</ele>
        <time>2023-04-04T14:32:08.000Z</time>
      </trkpt>
      <trkpt lat="46.27976" lon="7.52248">
        <ele>569.20001220703</ele>
        <time>2023-04-04T14:32:09.000Z</time>
      </trkpt>
      <trkpt lat="46.27977" lon="7.52253">
        <ele>569.20001220703</ele>
        <time>2023-04-04T14:32:10.000Z</time>
      </trkpt>
      <trkpt lat="46.27978" lon="7.52259">
        <ele>569</ele>
        <time>2023-04-04T14:32:11.000Z</time>
      </trkpt>
      <trkpt lat="46.27979" lon="7.52265">
        <ele>569.20001220703</ele>
        <time>2023-04-04T14:32:12.000Z</time>
      </trkpt>
      <trkpt lat="46.27981" lon="7.52271">
        <ele>569.20001220703</ele>
        <time>2023-04-04T14:32:13.000Z</time>
      </trkpt>
      <trkpt lat="46.27984" lon="7.52289">
        <ele>569.20001220703</ele>
        <time>2023-04-04T14:32:16.000Z</time>
      </trkpt>
      <trkpt lat="46.27987" lon="7.52315">
        <ele>569</ele>
        <time>2023-04-04T14:32:20.000Z</time>
      </trkpt>
      <trkpt lat="46.27989" lon="7.52326">
        <ele>569.20001220703</ele>
        <time>2023-04-04T14:32:22.000Z</time>
      </trkpt>
      <trkpt lat="46.2799" lon="7.5233">
        <ele>569.20001220703</ele>
        <time>2023-04-04T14:32:23.000Z</time>
      </trkpt>
      <trkpt lat="46.27991" lon="7.52334">
        <ele>569.20001220703</ele>
        <time>2023-04-04T14:32:24.000Z</time>
      </trkpt>
      <trkpt lat="46.27992" lon="7.52337">
        <ele>569.20001220703</ele>
        <time>2023-04-04T14:32:25.000Z</time>
      </trkpt>
      <trkpt lat="46.27992" lon="7.52339">
        <ele>569.20001220703</ele>
        <time>2023-04-04T14:32:26.000Z</time>
      </trkpt>
      <trkpt lat="46.27993" lon="7.5234">
        <ele>569</ele>
        <time>2023-04-04T14:32:27.000Z</time>
      </trkpt>
      <trkpt lat="46.27994" lon="7.52341">
        <ele>569</ele>
        <time>2023-04-04T14:32:28.000Z</time>
      </trkpt>
      <trkpt lat="46.27994" lon="7.52341">
        <ele>569</ele>
        <time>2023-04-04T14:32:29.000Z</time>
      </trkpt>
      <trkpt lat="46.27994" lon="7.52341">
        <ele>569</ele>
        <time>2023-04-04T14:32:30.000Z</time>
      </trkpt>
      <trkpt lat="46.28" lon="7.52336">
        <ele>569.40002441406</ele>
        <time>2023-04-04T14:35:02.000Z</time>
      </trkpt>
      <trkpt lat="46.28004" lon="7.52335">
        <ele>569.40002441406</ele>
        <time>2023-04-04T14:35:04.000Z</time>
      </trkpt>
      <trkpt lat="46.28009" lon="7.52335">
        <ele>569.40002441406</ele>
        <time>2023-04-04T14:35:06.000Z</time>
      </trkpt>
      <trkpt lat="46.28021" lon="7.52332">
        <ele>569.20001220703</ele>
        <time>2023-04-04T14:35:11.000Z</time>
      </trkpt>
      <trkpt lat="46.28051" lon="7.52326">
        <ele>569.40002441406</ele>
        <time>2023-04-04T14:35:21.000Z</time>
      </trkpt>
      <trkpt lat="46.28059" lon="7.52325">
        <ele>569.59997558594</ele>
        <time>2023-04-04T14:35:23.000Z</time>
      </trkpt>
      <trkpt lat="46.28077" lon="7.52319">
        <ele>570</ele>
        <time>2023-04-04T14:35:28.000Z</time>
      </trkpt>
      <trkpt lat="46.28091" lon="7.52314">
        <ele>570.20001220703</ele>
        <time>2023-04-04T14:35:32.000Z</time>
      </trkpt>
      <trkpt lat="46.28108" lon="7.5231">
        <ele>570.40002441406</ele>
        <time>2023-04-04T14:35:37.000Z</time>
      </trkpt>
      <trkpt lat="46.28126" lon="7.52307">
        <ele>570.59997558594</ele>
        <time>2023-04-04T14:35:42.000Z</time>
      </trkpt>
      <trkpt lat="46.2814" lon="7.52304">
        <ele>570.79998779297</ele>
        <time>2023-04-04T14:35:46.000Z</time>
      </trkpt>
      <trkpt lat="46.28155" lon="7.523">
        <ele>570.79998779297</ele>
        <time>2023-04-04T14:35:50.000Z</time>
      </trkpt>
      <trkpt lat="46.28174" lon="7.52294">
        <ele>571</ele>
        <time>2023-04-04T14:35:55.000Z</time>
      </trkpt>
      <trkpt lat="46.28181" lon="7.52292">
        <ele>571.20001220703</ele>
        <time>2023-04-04T14:35:57.000Z</time>
      </trkpt>
      <trkpt lat="46.28189" lon="7.5229">
        <ele>571.40002441406</ele>
        <time>2023-04-04T14:35:59.000Z</time>
      </trkpt>
      <trkpt lat="46.28192" lon="7.5229">
        <ele>571.40002441406</ele>
        <time>2023-04-04T14:36:00.000Z</time>
      </trkpt>
      <trkpt lat="46.28196" lon="7.52289">
        <ele>571.40002441406</ele>
        <time>2023-04-04T14:36:01.000Z</time>
      </trkpt>
      <trkpt lat="46.28199" lon="7.52289">
        <ele>571.59997558594</ele>
        <time>2023-04-04T14:36:02.000Z</time>
      </trkpt>
      <trkpt lat="46.28202" lon="7.52288">
        <ele>571.59997558594</ele>
        <time>2023-04-04T14:36:03.000Z</time>
      </trkpt>
      <trkpt lat="46.28205" lon="7.52288">
        <ele>571.79998779297</ele>
        <time>2023-04-04T14:36:04.000Z</time>
      </trkpt>
      <trkpt lat="46.28209" lon="7.52287">
        <ele>571.79998779297</ele>
        <time>2023-04-04T14:36:05.000Z</time>
      </trkpt>
      <trkpt lat="46.28212" lon="7.52286">
        <ele>571.79998779297</ele>
        <time>2023-04-04T14:36:06.000Z</time>
      </trkpt>
      <trkpt lat="46.28215" lon="7.52285">
        <ele>572</ele>
        <time>2023-04-04T14:36:07.000Z</time>
      </trkpt>
      <trkpt lat="46.28218" lon="7.52285">
        <ele>572</ele>
        <time>2023-04-04T14:36:08.000Z</time>
      </trkpt>
      <trkpt lat="46.28222" lon="7.52284">
        <ele>572</ele>
        <time>2023-04-04T14:36:09.000Z</time>
      </trkpt>
      <trkpt lat="46.28225" lon="7.52283">
        <ele>572</ele>
        <time>2023-04-04T14:36:10.000Z</time>
      </trkpt>
      <trkpt lat="46.28227" lon="7.52283">
        <ele>572.20001220703</ele>
        <time>2023-04-04T14:36:11.000Z</time>
      </trkpt>
      <trkpt lat="46.2823" lon="7.52285">
        <ele>572.40002441406</ele>
        <time>2023-04-04T14:36:12.000Z</time>
      </trkpt>
      <trkpt lat="46.28232" lon="7.52287">
        <ele>572.59997558594</ele>
        <time>2023-04-04T14:36:13.000Z</time>
      </trkpt>
      <trkpt lat="46.28234" lon="7.52288">
        <ele>572.79998779297</ele>
        <time>2023-04-04T14:36:14.000Z</time>
      </trkpt>
      <trkpt lat="46.28237" lon="7.5229">
        <ele>572.79998779297</ele>
        <time>2023-04-04T14:36:15.000Z</time>
      </trkpt>
      <trkpt lat="46.2824" lon="7.5229">
        <ele>573</ele>
        <time>2023-04-04T14:36:16.000Z</time>
      </trkpt>
      <trkpt lat="46.28244" lon="7.5229">
        <ele>573.20001220703</ele>
        <time>2023-04-04T14:36:17.000Z</time>
      </trkpt>
      <trkpt lat="46.28247" lon="7.52289">
        <ele>573.20001220703</ele>
        <time>2023-04-04T14:36:18.000Z</time>
      </trkpt>
      <trkpt lat="46.28251" lon="7.52288">
        <ele>573.40002441406</ele>
        <time>2023-04-04T14:36:19.000Z</time>
      </trkpt>
      <trkpt lat="46.28258" lon="7.52286">
        <ele>573.40002441406</ele>
        <time>2023-04-04T14:36:21.000Z</time>
      </trkpt>
      <trkpt lat="46.28266" lon="7.52285">
        <ele>573.40002441406</ele>
        <time>2023-04-04T14:36:23.000Z</time>
      </trkpt>
      <trkpt lat="46.28272" lon="7.52283">
        <ele>573.40002441406</ele>
        <time>2023-04-04T14:36:25.000Z</time>
      </trkpt>
      <trkpt lat="46.28281" lon="7.52282">
        <ele>573.20001220703</ele>
        <time>2023-04-04T14:36:28.000Z</time>
      </trkpt>
      <trkpt lat="46.28284" lon="7.52281">
        <ele>573.20001220703</ele>
        <time>2023-04-04T14:36:29.000Z</time>
      </trkpt>
      <trkpt lat="46.28285" lon="7.5228">
        <ele>573.20001220703</ele>
        <time>2023-04-04T14:36:30.000Z</time>
      </trkpt>
      <trkpt lat="46.28287" lon="7.52279">
        <ele>573.20001220703</ele>
        <time>2023-04-04T14:36:31.000Z</time>
      </trkpt>
      <trkpt lat="46.28289" lon="7.52279">
        <ele>573</ele>
        <time>2023-04-04T14:36:32.000Z</time>
      </trkpt>
      <trkpt lat="46.28293" lon="7.52279">
        <ele>573</ele>
        <time>2023-04-04T14:36:34.000Z</time>
      </trkpt>
      <trkpt lat="46.28296" lon="7.52277">
        <ele>573</ele>
        <time>2023-04-04T14:36:35.000Z</time>
      </trkpt>
      <trkpt lat="46.28308" lon="7.52275">
        <ele>573</ele>
        <time>2023-04-04T14:36:39.000Z</time>
      </trkpt>
      <trkpt lat="46.28312" lon="7.52275">
        <ele>573</ele>
        <time>2023-04-04T14:36:40.000Z</time>
      </trkpt>
      <trkpt lat="46.28319" lon="7.52277">
        <ele>573</ele>
        <time>2023-04-04T14:36:42.000Z</time>
      </trkpt>
      <trkpt lat="46.28325" lon="7.52282">
        <ele>573.20001220703</ele>
        <time>2023-04-04T14:36:44.000Z</time>
      </trkpt>
      <trkpt lat="46.28328" lon="7.52287">
        <ele>573.20001220703</ele>
        <time>2023-04-04T14:36:45.000Z</time>
      </trkpt>
      <trkpt lat="46.28331" lon="7.52293">
        <ele>573.20001220703</ele>
        <time>2023-04-04T14:36:46.000Z</time>
      </trkpt>
      <trkpt lat="46.28332" lon="7.52307">
        <ele>573.20001220703</ele>
        <time>2023-04-04T14:36:48.000Z</time>
      </trkpt>
      <trkpt lat="46.28333" lon="7.52314">
        <ele>573.20001220703</ele>
        <time>2023-04-04T14:36:49.000Z</time>
      </trkpt>
      <trkpt lat="46.28334" lon="7.52323">
        <ele>573.20001220703</ele>
        <time>2023-04-04T14:36:50.000Z</time>
      </trkpt>
      <trkpt lat="46.2834" lon="7.52356">
        <ele>572.79998779297</ele>
        <time>2023-04-04T14:36:54.000Z</time>
      </trkpt>
      <trkpt lat="46.28347" lon="7.52391">
        <ele>572</ele>
        <time>2023-04-04T14:36:58.000Z</time>
      </trkpt>
      <trkpt lat="46.28353" lon="7.52429">
        <ele>571.20001220703</ele>
        <time>2023-04-04T14:37:02.000Z</time>
      </trkpt>
      <trkpt lat="46.28355" lon="7.52439">
        <ele>571</ele>
        <time>2023-04-04T14:37:03.000Z</time>
      </trkpt>
      <trkpt lat="46.28362" lon="7.52478">
        <ele>570</ele>
        <time>2023-04-04T14:37:07.000Z</time>
      </trkpt>
      <trkpt lat="46.28363" lon="7.52487">
        <ele>569.79998779297</ele>
        <time>2023-04-04T14:37:08.000Z</time>
      </trkpt>
      <trkpt lat="46.28365" lon="7.52505">
        <ele>569.59997558594</ele>
        <time>2023-04-04T14:37:10.000Z</time>
      </trkpt>
      <trkpt lat="46.28367" lon="7.52514">
        <ele>569.59997558594</ele>
        <time>2023-04-04T14:37:11.000Z</time>
      </trkpt>
      <trkpt lat="46.28368" lon="7.52522">
        <ele>569.59997558594</ele>
        <time>2023-04-04T14:37:12.000Z</time>
      </trkpt>
      <trkpt lat="46.28369" lon="7.5253">
        <ele>569.59997558594</ele>
        <time>2023-04-04T14:37:13.000Z</time>
      </trkpt>
      <trkpt lat="46.2837" lon="7.52538">
        <ele>569.59997558594</ele>
        <time>2023-04-04T14:37:14.000Z</time>
      </trkpt>
      <trkpt lat="46.28381" lon="7.52606">
        <ele>569</ele>
        <time>2023-04-04T14:37:22.000Z</time>
      </trkpt>
      <trkpt lat="46.28383" lon="7.52614">
        <ele>568.79998779297</ele>
        <time>2023-04-04T14:37:23.000Z</time>
      </trkpt>
      <trkpt lat="46.28388" lon="7.52645">
        <ele>568.20001220703</ele>
        <time>2023-04-04T14:37:27.000Z</time>
      </trkpt>
      <trkpt lat="46.28389" lon="7.52653">
        <ele>568.20001220703</ele>
        <time>2023-04-04T14:37:28.000Z</time>
      </trkpt>
      <trkpt lat="46.2839" lon="7.5266">
        <ele>568.20001220703</ele>
        <time>2023-04-04T14:37:29.000Z</time>
      </trkpt>
      <trkpt lat="46.28392" lon="7.52667">
        <ele>568.20001220703</ele>
        <time>2023-04-04T14:37:30.000Z</time>
      </trkpt>
      <trkpt lat="46.28393" lon="7.52674">
        <ele>568</ele>
        <time>2023-04-04T14:37:31.000Z</time>
      </trkpt>
      <trkpt lat="46.28394" lon="7.52681">
        <ele>568</ele>
        <time>2023-04-04T14:37:32.000Z</time>
      </trkpt>
      <trkpt lat="46.28395" lon="7.52688">
        <ele>568</ele>
        <time>2023-04-04T14:37:33.000Z</time>
      </trkpt>
      <trkpt lat="46.28396" lon="7.52695">
        <ele>568</ele>
        <time>2023-04-04T14:37:34.000Z</time>
      </trkpt>
      <trkpt lat="46.28397" lon="7.52701">
        <ele>568</ele>
        <time>2023-04-04T14:37:35.000Z</time>
      </trkpt>
      <trkpt lat="46.28398" lon="7.52708">
        <ele>568</ele>
        <time>2023-04-04T14:37:36.000Z</time>
      </trkpt>
      <trkpt lat="46.28399" lon="7.52714">
        <ele>568</ele>
        <time>2023-04-04T14:37:37.000Z</time>
      </trkpt>
      <trkpt lat="46.284" lon="7.5272">
        <ele>568</ele>
        <time>2023-04-04T14:37:38.000Z</time>
      </trkpt>
      <trkpt lat="46.28401" lon="7.52726">
        <ele>568</ele>
        <time>2023-04-04T14:37:39.000Z</time>
      </trkpt>
      <trkpt lat="46.28402" lon="7.52732">
        <ele>568</ele>
        <time>2023-04-04T14:37:40.000Z</time>
      </trkpt>
      <trkpt lat="46.28403" lon="7.52737">
        <ele>568</ele>
        <time>2023-04-04T14:37:41.000Z</time>
      </trkpt>
      <trkpt lat="46.28405" lon="7.52741">
        <ele>568</ele>
        <time>2023-04-04T14:37:42.000Z</time>
      </trkpt>
      <trkpt lat="46.28406" lon="7.52746">
        <ele>568</ele>
        <time>2023-04-04T14:37:43.000Z</time>
      </trkpt>
      <trkpt lat="46.28407" lon="7.52751">
        <ele>568</ele>
        <time>2023-04-04T14:37:44.000Z</time>
      </trkpt>
      <trkpt lat="46.28408" lon="7.52755">
        <ele>568</ele>
        <time>2023-04-04T14:37:45.000Z</time>
      </trkpt>
      <trkpt lat="46.28409" lon="7.52759">
        <ele>568</ele>
        <time>2023-04-04T14:37:46.000Z</time>
      </trkpt>
      <trkpt lat="46.2841" lon="7.52763">
        <ele>568</ele>
        <time>2023-04-04T14:37:47.000Z</time>
      </trkpt>
      <trkpt lat="46.28411" lon="7.52766">
        <ele>568</ele>
        <time>2023-04-04T14:37:48.000Z</time>
      </trkpt>
      <trkpt lat="46.28409" lon="7.5277">
        <ele>568</ele>
        <time>2023-04-04T14:37:49.000Z</time>
      </trkpt>
      <trkpt lat="46.28407" lon="7.52774">
        <ele>568</ele>
        <time>2023-04-04T14:37:50.000Z</time>
      </trkpt>
      <trkpt lat="46.28408" lon="7.52783">
        <ele>568</ele>
        <time>2023-04-04T14:37:53.000Z</time>
      </trkpt>
      <trkpt lat="46.28408" lon="7.52784">
        <ele>568</ele>
        <time>2023-04-04T14:37:54.000Z</time>
      </trkpt>
      <trkpt lat="46.28408" lon="7.52784">
        <ele>568</ele>
        <time>2023-04-04T14:37:55.000Z</time>
      </trkpt>
      <trkpt lat="46.28407" lon="7.52785">
        <ele>568</ele>
        <time>2023-04-04T14:37:56.000Z</time>
      </trkpt>
      <trkpt lat="46.2841" lon="7.52793">
        <ele>568</ele>
        <time>2023-04-04T14:38:00.000Z</time>
      </trkpt>
      <trkpt lat="46.28411" lon="7.528">
        <ele>568</ele>
        <time>2023-04-04T14:38:02.000Z</time>
      </trkpt>
      <trkpt lat="46.28412" lon="7.52804">
        <ele>568.20001220703</ele>
        <time>2023-04-04T14:38:03.000Z</time>
      </trkpt>
      <trkpt lat="46.28416" lon="7.52827">
        <ele>568.40002441406</ele>
        <time>2023-04-04T14:38:08.000Z</time>
      </trkpt>
      <trkpt lat="46.28417" lon="7.52832">
        <ele>568.40002441406</ele>
        <time>2023-04-04T14:38:09.000Z</time>
      </trkpt>
      <trkpt lat="46.28417" lon="7.52855">
        <ele>568.40002441406</ele>
        <time>2023-04-04T14:38:14.000Z</time>
      </trkpt>
      <trkpt lat="46.28418" lon="7.5288">
        <ele>568.59997558594</ele>
        <time>2023-04-04T14:38:19.000Z</time>
      </trkpt>
      <trkpt lat="46.28418" lon="7.52883">
        <ele>568.59997558594</ele>
        <time>2023-04-04T14:38:20.000Z</time>
      </trkpt>
      <trkpt lat="46.28418" lon="7.52887">
        <ele>568.59997558594</ele>
        <time>2023-04-04T14:38:21.000Z</time>
      </trkpt>
      <trkpt lat="46.28419" lon="7.52889">
        <ele>568.79998779297</ele>
        <time>2023-04-04T14:38:22.000Z</time>
      </trkpt>
      <trkpt lat="46.28419" lon="7.52892">
        <ele>568.79998779297</ele>
        <time>2023-04-04T14:38:23.000Z</time>
      </trkpt>
      <trkpt lat="46.28419" lon="7.52907">
        <ele>569.40002441406</ele>
        <time>2023-04-04T14:38:27.000Z</time>
      </trkpt>
      <trkpt lat="46.28419" lon="7.52918">
        <ele>570</ele>
        <time>2023-04-04T14:38:30.000Z</time>
      </trkpt>
      <trkpt lat="46.28422" lon="7.5293">
        <ele>570.40002441406</ele>
        <time>2023-04-04T14:38:33.000Z</time>
      </trkpt>
      <trkpt lat="46.28425" lon="7.52953">
        <ele>571</ele>
        <time>2023-04-04T14:38:38.000Z</time>
      </trkpt>
      <trkpt lat="46.28425" lon="7.52963">
        <ele>571.20001220703</ele>
        <time>2023-04-04T14:38:40.000Z</time>
      </trkpt>
      <trkpt lat="46.28426" lon="7.52968">
        <ele>571.20001220703</ele>
        <time>2023-04-04T14:38:41.000Z</time>
      </trkpt>
      <trkpt lat="46.28427" lon="7.52973">
        <ele>571.20001220703</ele>
        <time>2023-04-04T14:38:42.000Z</time>
      </trkpt>
      <trkpt lat="46.28428" lon="7.52978">
        <ele>571.20001220703</ele>
        <time>2023-04-04T14:38:43.000Z</time>
      </trkpt>
      <trkpt lat="46.28429" lon="7.52983">
        <ele>571.20001220703</ele>
        <time>2023-04-04T14:38:44.000Z</time>
      </trkpt>
      <trkpt lat="46.28431" lon="7.52988">
        <ele>571.20001220703</ele>
        <time>2023-04-04T14:38:45.000Z</time>
      </trkpt>
      <trkpt lat="46.28432" lon="7.52993">
        <ele>571.20001220703</ele>
        <time>2023-04-04T14:38:46.000Z</time>
      </trkpt>
      <trkpt lat="46.28434" lon="7.52999">
        <ele>571.20001220703</ele>
        <time>2023-04-04T14:38:47.000Z</time>
      </trkpt>
      <trkpt lat="46.28451" lon="7.53039">
        <ele>571.20001220703</ele>
        <time>2023-04-04T14:38:55.000Z</time>
      </trkpt>
      <trkpt lat="46.28453" lon="7.53044">
        <ele>571.20001220703</ele>
        <time>2023-04-04T14:38:56.000Z</time>
      </trkpt>
      <trkpt lat="46.28462" lon="7.53071">
        <ele>571</ele>
        <time>2023-04-04T14:39:01.000Z</time>
      </trkpt>
      <trkpt lat="46.28466" lon="7.53081">
        <ele>571</ele>
        <time>2023-04-04T14:39:03.000Z</time>
      </trkpt>
      <trkpt lat="46.28467" lon="7.53085">
        <ele>570.79998779297</ele>
        <time>2023-04-04T14:39:04.000Z</time>
      </trkpt>
      <trkpt lat="46.28466" lon="7.5309">
        <ele>570.79998779297</ele>
        <time>2023-04-04T14:39:05.000Z</time>
      </trkpt>
      <trkpt lat="46.28466" lon="7.53094">
        <ele>570.79998779297</ele>
        <time>2023-04-04T14:39:06.000Z</time>
      </trkpt>
      <trkpt lat="46.28467" lon="7.53097">
        <ele>570.59997558594</ele>
        <time>2023-04-04T14:39:07.000Z</time>
      </trkpt>
      <trkpt lat="46.28468" lon="7.53099">
        <ele>570.59997558594</ele>
        <time>2023-04-04T14:39:08.000Z</time>
      </trkpt>
      <trkpt lat="46.2847" lon="7.531">
        <ele>570.59997558594</ele>
        <time>2023-04-04T14:39:09.000Z</time>
      </trkpt>
      <trkpt lat="46.28479" lon="7.53098">
        <ele>570.40002441406</ele>
        <time>2023-04-04T14:39:12.000Z</time>
      </trkpt>
      <trkpt lat="46.28483" lon="7.53096">
        <ele>570.20001220703</ele>
        <time>2023-04-04T14:39:13.000Z</time>
      </trkpt>
      <trkpt lat="46.28487" lon="7.53094">
        <ele>570.20001220703</ele>
        <time>2023-04-04T14:39:14.000Z</time>
      </trkpt>
      <trkpt lat="46.28497" lon="7.53084">
        <ele>570</ele>
        <time>2023-04-04T14:39:17.000Z</time>
      </trkpt>
      <trkpt lat="46.285" lon="7.53081">
        <ele>569.79998779297</ele>
        <time>2023-04-04T14:39:18.000Z</time>
      </trkpt>
      <trkpt lat="46.28502" lon="7.53078">
        <ele>569.59997558594</ele>
        <time>2023-04-04T14:39:19.000Z</time>
      </trkpt>
      <trkpt lat="46.28504" lon="7.53075">
        <ele>569.59997558594</ele>
        <time>2023-04-04T14:39:20.000Z</time>
      </trkpt>
      <trkpt lat="46.28506" lon="7.53072">
        <ele>569.59997558594</ele>
        <time>2023-04-04T14:39:21.000Z</time>
      </trkpt>
      <trkpt lat="46.28509" lon="7.5307">
        <ele>569.59997558594</ele>
        <time>2023-04-04T14:39:22.000Z</time>
      </trkpt>
      <trkpt lat="46.28511" lon="7.53068">
        <ele>569.59997558594</ele>
        <time>2023-04-04T14:39:23.000Z</time>
      </trkpt>
      <trkpt lat="46.28516" lon="7.53058">
        <ele>569.59997558594</ele>
        <time>2023-04-04T14:39:26.000Z</time>
      </trkpt>
      <trkpt lat="46.28536" lon="7.53034">
        <ele>569.79998779297</ele>
        <time>2023-04-04T14:39:33.000Z</time>
      </trkpt>
      <trkpt lat="46.28558" lon="7.53007">
        <ele>569.59997558594</ele>
        <time>2023-04-04T14:39:40.000Z</time>
      </trkpt>
      <trkpt lat="46.28571" lon="7.52991">
        <ele>569.59997558594</ele>
        <time>2023-04-04T14:39:44.000Z</time>
      </trkpt>
      <trkpt lat="46.28577" lon="7.52983">
        <ele>569.59997558594</ele>
        <time>2023-04-04T14:39:46.000Z</time>
      </trkpt>
      <trkpt lat="46.28579" lon="7.5298">
        <ele>569.59997558594</ele>
        <time>2023-04-04T14:39:47.000Z</time>
      </trkpt>
      <trkpt lat="46.28582" lon="7.52976">
        <ele>569.59997558594</ele>
        <time>2023-04-04T14:39:48.000Z</time>
      </trkpt>
      <trkpt lat="46.28585" lon="7.52972">
        <ele>569.59997558594</ele>
        <time>2023-04-04T14:39:49.000Z</time>
      </trkpt>
      <trkpt lat="46.28591" lon="7.52964">
        <ele>569.59997558594</ele>
        <time>2023-04-04T14:39:51.000Z</time>
      </trkpt>
      <trkpt lat="46.28594" lon="7.5296">
        <ele>569.59997558594</ele>
        <time>2023-04-04T14:39:52.000Z</time>
      </trkpt>
      <trkpt lat="46.28597" lon="7.52956">
        <ele>569.59997558594</ele>
        <time>2023-04-04T14:39:53.000Z</time>
      </trkpt>
      <trkpt lat="46.286" lon="7.52951">
        <ele>569.40002441406</ele>
        <time>2023-04-04T14:39:54.000Z</time>
      </trkpt>
      <trkpt lat="46.28613" lon="7.52935">
        <ele>569.20001220703</ele>
        <time>2023-04-04T14:39:58.000Z</time>
      </trkpt>
      <trkpt lat="46.28616" lon="7.52932">
        <ele>569.20001220703</ele>
        <time>2023-04-04T14:39:59.000Z</time>
      </trkpt>
      <trkpt lat="46.28619" lon="7.52928">
        <ele>569</ele>
        <time>2023-04-04T14:40:00.000Z</time>
      </trkpt>
      <trkpt lat="46.28622" lon="7.52924">
        <ele>569</ele>
        <time>2023-04-04T14:40:01.000Z</time>
      </trkpt>
      <trkpt lat="46.28625" lon="7.5292">
        <ele>569</ele>
        <time>2023-04-04T14:40:02.000Z</time>
      </trkpt>
      <trkpt lat="46.28627" lon="7.52917">
        <ele>569</ele>
        <time>2023-04-04T14:40:03.000Z</time>
      </trkpt>
      <trkpt lat="46.28629" lon="7.52914">
        <ele>569</ele>
        <time>2023-04-04T14:40:04.000Z</time>
      </trkpt>
      <trkpt lat="46.28631" lon="7.52911">
        <ele>569</ele>
        <time>2023-04-04T14:40:05.000Z</time>
      </trkpt>
      <trkpt lat="46.28634" lon="7.52908">
        <ele>569</ele>
        <time>2023-04-04T14:40:06.000Z</time>
      </trkpt>
      <trkpt lat="46.28636" lon="7.52905">
        <ele>569.20001220703</ele>
        <time>2023-04-04T14:40:07.000Z</time>
      </trkpt>
      <trkpt lat="46.28643" lon="7.52899">
        <ele>569.40002441406</ele>
        <time>2023-04-04T14:40:10.000Z</time>
      </trkpt>
      <trkpt lat="46.28644" lon="7.52896">
        <ele>569.59997558594</ele>
        <time>2023-04-04T14:40:11.000Z</time>
      </trkpt>
      <trkpt lat="46.28645" lon="7.52894">
        <ele>569.59997558594</ele>
        <time>2023-04-04T14:40:12.000Z</time>
      </trkpt>
      <trkpt lat="46.28646" lon="7.52893">
        <ele>569.79998779297</ele>
        <time>2023-04-04T14:40:13.000Z</time>
      </trkpt>
      <trkpt lat="46.28646" lon="7.52893">
        <ele>570</ele>
        <time>2023-04-04T14:40:15.000Z</time>
      </trkpt>
      <trkpt lat="46.28654" lon="7.52899">
        <ele>570.79998779297</ele>
        <time>2023-04-04T14:40:38.000Z</time>
      </trkpt>
      <trkpt lat="46.28657" lon="7.52906">
        <ele>571</ele>
        <time>2023-04-04T14:40:40.000Z</time>
      </trkpt>
      <trkpt lat="46.28669" lon="7.52932">
        <ele>571</ele>
        <time>2023-04-04T14:40:45.000Z</time>
      </trkpt>
      <trkpt lat="46.28676" lon="7.52955">
        <ele>570.59997558594</ele>
        <time>2023-04-04T14:40:48.000Z</time>
      </trkpt>
      <trkpt lat="46.28678" lon="7.52971">
        <ele>569.59997558594</ele>
        <time>2023-04-04T14:40:50.000Z</time>
      </trkpt>
      <trkpt lat="46.28679" lon="7.52979">
        <ele>569.40002441406</ele>
        <time>2023-04-04T14:40:51.000Z</time>
      </trkpt>
      <trkpt lat="46.28681" lon="7.52987">
        <ele>569</ele>
        <time>2023-04-04T14:40:52.000Z</time>
      </trkpt>
      <trkpt lat="46.28683" lon="7.53001">
        <ele>568.59997558594</ele>
        <time>2023-04-04T14:40:54.000Z</time>
      </trkpt>
      <trkpt lat="46.28684" lon="7.53008">
        <ele>568.40002441406</ele>
        <time>2023-04-04T14:40:55.000Z</time>
      </trkpt>
      <trkpt lat="46.28686" lon="7.53015">
        <ele>568.40002441406</ele>
        <time>2023-04-04T14:40:56.000Z</time>
      </trkpt>
      <trkpt lat="46.28687" lon="7.53021">
        <ele>568.20001220703</ele>
        <time>2023-04-04T14:40:57.000Z</time>
      </trkpt>
      <trkpt lat="46.28689" lon="7.53033">
        <ele>568.20001220703</ele>
        <time>2023-04-04T14:40:59.000Z</time>
      </trkpt>
      <trkpt lat="46.2869" lon="7.53039">
        <ele>568.20001220703</ele>
        <time>2023-04-04T14:41:00.000Z</time>
      </trkpt>
      <trkpt lat="46.28689" lon="7.53047">
        <ele>568.20001220703</ele>
        <time>2023-04-04T14:41:01.000Z</time>
      </trkpt>
      <trkpt lat="46.2869" lon="7.53053">
        <ele>568.20001220703</ele>
        <time>2023-04-04T14:41:02.000Z</time>
      </trkpt>
      <trkpt lat="46.28691" lon="7.5306">
        <ele>568.20001220703</ele>
        <time>2023-04-04T14:41:03.000Z</time>
      </trkpt>
      <trkpt lat="46.28692" lon="7.53066">
        <ele>568.20001220703</ele>
        <time>2023-04-04T14:41:04.000Z</time>
      </trkpt>
      <trkpt lat="46.28692" lon="7.53073">
        <ele>568.20001220703</ele>
        <time>2023-04-04T14:41:05.000Z</time>
      </trkpt>
      <trkpt lat="46.28693" lon="7.53079">
        <ele>568.40002441406</ele>
        <time>2023-04-04T14:41:06.000Z</time>
      </trkpt>
      <trkpt lat="46.28694" lon="7.53086">
        <ele>568.40002441406</ele>
        <time>2023-04-04T14:41:07.000Z</time>
      </trkpt>
      <trkpt lat="46.28701" lon="7.53116">
        <ele>568.59997558594</ele>
        <time>2023-04-04T14:41:12.000Z</time>
      </trkpt>
      <trkpt lat="46.28711" lon="7.53152">
        <ele>568.59997558594</ele>
        <time>2023-04-04T14:41:18.000Z</time>
      </trkpt>
      <trkpt lat="46.28713" lon="7.53158">
        <ele>568.59997558594</ele>
        <time>2023-04-04T14:41:19.000Z</time>
      </trkpt>
      <trkpt lat="46.28719" lon="7.53173">
        <ele>568.79998779297</ele>
        <time>2023-04-04T14:41:22.000Z</time>
      </trkpt>
      <trkpt lat="46.28722" lon="7.53178">
        <ele>569</ele>
        <time>2023-04-04T14:41:23.000Z</time>
      </trkpt>
      <trkpt lat="46.28724" lon="7.53183">
        <ele>569</ele>
        <time>2023-04-04T14:41:24.000Z</time>
      </trkpt>
      <trkpt lat="46.28727" lon="7.53188">
        <ele>569</ele>
        <time>2023-04-04T14:41:25.000Z</time>
      </trkpt>
      <trkpt lat="46.28729" lon="7.53192">
        <ele>569</ele>
        <time>2023-04-04T14:41:26.000Z</time>
      </trkpt>
      <trkpt lat="46.28732" lon="7.53196">
        <ele>569.20001220703</ele>
        <time>2023-04-04T14:41:27.000Z</time>
      </trkpt>
      <trkpt lat="46.28734" lon="7.53201">
        <ele>569.20001220703</ele>
        <time>2023-04-04T14:41:28.000Z</time>
      </trkpt>
      <trkpt lat="46.28738" lon="7.53206">
        <ele>569.59997558594</ele>
        <time>2023-04-04T14:41:29.000Z</time>
      </trkpt>
      <trkpt lat="46.2874" lon="7.5321">
        <ele>569.79998779297</ele>
        <time>2023-04-04T14:41:30.000Z</time>
      </trkpt>
      <trkpt lat="46.28745" lon="7.53218">
        <ele>570</ele>
        <time>2023-04-04T14:41:32.000Z</time>
      </trkpt>
      <trkpt lat="46.28748" lon="7.53222">
        <ele>570</ele>
        <time>2023-04-04T14:41:33.000Z</time>
      </trkpt>
      <trkpt lat="46.28751" lon="7.53226">
        <ele>570.20001220703</ele>
        <time>2023-04-04T14:41:34.000Z</time>
      </trkpt>
      <trkpt lat="46.28753" lon="7.53229">
        <ele>570.40002441406</ele>
        <time>2023-04-04T14:41:35.000Z</time>
      </trkpt>
      <trkpt lat="46.28756" lon="7.53233">
        <ele>570.40002441406</ele>
        <time>2023-04-04T14:41:36.000Z</time>
      </trkpt>
      <trkpt lat="46.28759" lon="7.53237">
        <ele>570.59997558594</ele>
        <time>2023-04-04T14:41:37.000Z</time>
      </trkpt>
      <trkpt lat="46.28762" lon="7.5324">
        <ele>570.59997558594</ele>
        <time>2023-04-04T14:41:38.000Z</time>
      </trkpt>
      <trkpt lat="46.28764" lon="7.53244">
        <ele>570.79998779297</ele>
        <time>2023-04-04T14:41:39.000Z</time>
      </trkpt>
      <trkpt lat="46.28767" lon="7.53247">
        <ele>570.79998779297</ele>
        <time>2023-04-04T14:41:40.000Z</time>
      </trkpt>
      <trkpt lat="46.28769" lon="7.53251">
        <ele>571</ele>
        <time>2023-04-04T14:41:41.000Z</time>
      </trkpt>
      <trkpt lat="46.28772" lon="7.53255">
        <ele>571</ele>
        <time>2023-04-04T14:41:42.000Z</time>
      </trkpt>
      <trkpt lat="46.28774" lon="7.53258">
        <ele>571.20001220703</ele>
        <time>2023-04-04T14:41:43.000Z</time>
      </trkpt>
      <trkpt lat="46.28777" lon="7.53261">
        <ele>571.40002441406</ele>
        <time>2023-04-04T14:41:44.000Z</time>
      </trkpt>
      <trkpt lat="46.28779" lon="7.53264">
        <ele>571.40002441406</ele>
        <time>2023-04-04T14:41:45.000Z</time>
      </trkpt>
      <trkpt lat="46.28781" lon="7.53267">
        <ele>571.59997558594</ele>
        <time>2023-04-04T14:41:46.000Z</time>
      </trkpt>
      <trkpt lat="46.28783" lon="7.5327">
        <ele>571.59997558594</ele>
        <time>2023-04-04T14:41:47.000Z</time>
      </trkpt>
      <trkpt lat="46.28785" lon="7.53274">
        <ele>571.59997558594</ele>
        <time>2023-04-04T14:41:48.000Z</time>
      </trkpt>
      <trkpt lat="46.28815" lon="7.53309">
        <ele>572</ele>
        <time>2023-04-04T14:41:58.000Z</time>
      </trkpt>
      <trkpt lat="46.28833" lon="7.5332">
        <ele>572.40002441406</ele>
        <time>2023-04-04T14:42:03.000Z</time>
      </trkpt>
      <trkpt lat="46.28836" lon="7.53321">
        <ele>572.40002441406</ele>
        <time>2023-04-04T14:42:04.000Z</time>
      </trkpt>
      <trkpt lat="46.28852" lon="7.53325">
        <ele>572.59997558594</ele>
        <time>2023-04-04T14:42:08.000Z</time>
      </trkpt>
      <trkpt lat="46.28866" lon="7.53326">
        <ele>572.79998779297</ele>
        <time>2023-04-04T14:42:11.000Z</time>
      </trkpt>
      <trkpt lat="46.28882" lon="7.53326">
        <ele>572.79998779297</ele>
        <time>2023-04-04T14:42:15.000Z</time>
      </trkpt>
      <trkpt lat="46.28898" lon="7.53326">
        <ele>572.79998779297</ele>
        <time>2023-04-04T14:42:19.000Z</time>
      </trkpt>
      <trkpt lat="46.28902" lon="7.53326">
        <ele>572.79998779297</ele>
        <time>2023-04-04T14:42:20.000Z</time>
      </trkpt>
      <trkpt lat="46.28905" lon="7.53325">
        <ele>572.79998779297</ele>
        <time>2023-04-04T14:42:21.000Z</time>
      </trkpt>
      <trkpt lat="46.28909" lon="7.53325">
        <ele>572.79998779297</ele>
        <time>2023-04-04T14:42:22.000Z</time>
      </trkpt>
      <trkpt lat="46.28912" lon="7.53326">
        <ele>572.79998779297</ele>
        <time>2023-04-04T14:42:23.000Z</time>
      </trkpt>
      <trkpt lat="46.28914" lon="7.53328">
        <ele>573</ele>
        <time>2023-04-04T14:42:24.000Z</time>
      </trkpt>
      <trkpt lat="46.28916" lon="7.53331">
        <ele>573</ele>
        <time>2023-04-04T14:42:25.000Z</time>
      </trkpt>
      <trkpt lat="46.28917" lon="7.53333">
        <ele>573</ele>
        <time>2023-04-04T14:42:26.000Z</time>
      </trkpt>
      <trkpt lat="46.28918" lon="7.53336">
        <ele>573</ele>
        <time>2023-04-04T14:42:27.000Z</time>
      </trkpt>
      <trkpt lat="46.28918" lon="7.53337">
        <ele>572.79998779297</ele>
        <time>2023-04-04T14:42:28.000Z</time>
      </trkpt>
      <trkpt lat="46.28919" lon="7.53337">
        <ele>572.79998779297</ele>
        <time>2023-04-04T14:42:30.000Z</time>
      </trkpt>
      <trkpt lat="46.28918" lon="7.53346">
        <ele>572.59997558594</ele>
        <time>2023-04-04T14:42:35.000Z</time>
      </trkpt>
      <trkpt lat="46.28912" lon="7.5337">
        <ele>572.40002441406</ele>
        <time>2023-04-04T14:42:40.000Z</time>
      </trkpt>
      <trkpt lat="46.2891" lon="7.53409">
        <ele>571.59997558594</ele>
        <time>2023-04-04T14:42:45.000Z</time>
      </trkpt>
      <trkpt lat="46.28909" lon="7.53443">
        <ele>570.20001220703</ele>
        <time>2023-04-04T14:42:49.000Z</time>
      </trkpt>
      <trkpt lat="46.28908" lon="7.53449">
        <ele>569.79998779297</ele>
        <time>2023-04-04T14:42:50.000Z</time>
      </trkpt>
      <trkpt lat="46.28907" lon="7.53456">
        <ele>569.59997558594</ele>
        <time>2023-04-04T14:42:51.000Z</time>
      </trkpt>
      <trkpt lat="46.28906" lon="7.53462">
        <ele>569.40002441406</ele>
        <time>2023-04-04T14:42:52.000Z</time>
      </trkpt>
      <trkpt lat="46.28906" lon="7.53467">
        <ele>569.20001220703</ele>
        <time>2023-04-04T14:42:53.000Z</time>
      </trkpt>
      <trkpt lat="46.28905" lon="7.53472">
        <ele>569</ele>
        <time>2023-04-04T14:42:54.000Z</time>
      </trkpt>
      <trkpt lat="46.28904" lon="7.53476">
        <ele>568.79998779297</ele>
        <time>2023-04-04T14:42:55.000Z</time>
      </trkpt>
      <trkpt lat="46.28902" lon="7.5348">
        <ele>568.59997558594</ele>
        <time>2023-04-04T14:42:56.000Z</time>
      </trkpt>
      <trkpt lat="46.28901" lon="7.53498">
        <ele>568.40002441406</ele>
        <time>2023-04-04T14:43:00.000Z</time>
      </trkpt>
      <trkpt lat="46.28903" lon="7.53502">
        <ele>568.40002441406</ele>
        <time>2023-04-04T14:43:01.000Z</time>
      </trkpt>
      <trkpt lat="46.2891" lon="7.53505">
        <ele>568.40002441406</ele>
        <time>2023-04-04T14:43:03.000Z</time>
      </trkpt>
      <trkpt lat="46.28914" lon="7.53505">
        <ele>568.40002441406</ele>
        <time>2023-04-04T14:43:04.000Z</time>
      </trkpt>
      <trkpt lat="46.28922" lon="7.53502">
        <ele>568.40002441406</ele>
        <time>2023-04-04T14:43:06.000Z</time>
      </trkpt>
      <trkpt lat="46.28925" lon="7.535">
        <ele>568.40002441406</ele>
        <time>2023-04-04T14:43:07.000Z</time>
      </trkpt>
      <trkpt lat="46.28936" lon="7.53497">
        <ele>568.40002441406</ele>
        <time>2023-04-04T14:43:10.000Z</time>
      </trkpt>
      <trkpt lat="46.28964" lon="7.53497">
        <ele>568.59997558594</ele>
        <time>2023-04-04T14:43:17.000Z</time>
      </trkpt>
      <trkpt lat="46.28984" lon="7.53503">
        <ele>569.20001220703</ele>
        <time>2023-04-04T14:43:22.000Z</time>
      </trkpt>
      <trkpt lat="46.29025" lon="7.53532">
        <ele>569.20001220703</ele>
        <time>2023-04-04T14:43:32.000Z</time>
      </trkpt>
      <trkpt lat="46.29029" lon="7.53535">
        <ele>569.20001220703</ele>
        <time>2023-04-04T14:43:33.000Z</time>
      </trkpt>
      <trkpt lat="46.29041" lon="7.53543">
        <ele>569</ele>
        <time>2023-04-04T14:43:36.000Z</time>
      </trkpt>
      <trkpt lat="46.29057" lon="7.53558">
        <ele>569</ele>
        <time>2023-04-04T14:43:40.000Z</time>
      </trkpt>
      <trkpt lat="46.29066" lon="7.53565">
        <ele>569</ele>
        <time>2023-04-04T14:43:42.000Z</time>
      </trkpt>
      <trkpt lat="46.29071" lon="7.53569">
        <ele>569</ele>
        <time>2023-04-04T14:43:43.000Z</time>
      </trkpt>
      <trkpt lat="46.29092" lon="7.53583">
        <ele>569</ele>
        <time>2023-04-04T14:43:48.000Z</time>
      </trkpt>
      <trkpt lat="46.29096" lon="7.53586">
        <ele>569.20001220703</ele>
        <time>2023-04-04T14:43:49.000Z</time>
      </trkpt>
      <trkpt lat="46.29101" lon="7.53589">
        <ele>569.20001220703</ele>
        <time>2023-04-04T14:43:50.000Z</time>
      </trkpt>
      <trkpt lat="46.29104" lon="7.53591">
        <ele>569.20001220703</ele>
        <time>2023-04-04T14:43:51.000Z</time>
      </trkpt>
      <trkpt lat="46.29108" lon="7.53594">
        <ele>569.20001220703</ele>
        <time>2023-04-04T14:43:52.000Z</time>
      </trkpt>
      <trkpt lat="46.29112" lon="7.53596">
        <ele>569.40002441406</ele>
        <time>2023-04-04T14:43:53.000Z</time>
      </trkpt>
      <trkpt lat="46.29116" lon="7.53598">
        <ele>569.59997558594</ele>
        <time>2023-04-04T14:43:54.000Z</time>
      </trkpt>
      <trkpt lat="46.29119" lon="7.536">
        <ele>569.59997558594</ele>
        <time>2023-04-04T14:43:55.000Z</time>
      </trkpt>
      <trkpt lat="46.29122" lon="7.53603">
        <ele>569.79998779297</ele>
        <time>2023-04-04T14:43:56.000Z</time>
      </trkpt>
      <trkpt lat="46.29125" lon="7.53606">
        <ele>569.79998779297</ele>
        <time>2023-04-04T14:43:57.000Z</time>
      </trkpt>
      <trkpt lat="46.29128" lon="7.53608">
        <ele>570</ele>
        <time>2023-04-04T14:43:58.000Z</time>
      </trkpt>
      <trkpt lat="46.29132" lon="7.5361">
        <ele>570</ele>
        <time>2023-04-04T14:43:59.000Z</time>
      </trkpt>
      <trkpt lat="46.29135" lon="7.53613">
        <ele>570</ele>
        <time>2023-04-04T14:44:00.000Z</time>
      </trkpt>
      <trkpt lat="46.29166" lon="7.53631">
        <ele>570.40002441406</ele>
        <time>2023-04-04T14:44:09.000Z</time>
      </trkpt>
      <trkpt lat="46.29172" lon="7.53634">
        <ele>570.79998779297</ele>
        <time>2023-04-04T14:44:11.000Z</time>
      </trkpt>
      <trkpt lat="46.29175" lon="7.53636">
        <ele>570.79998779297</ele>
        <time>2023-04-04T14:44:12.000Z</time>
      </trkpt>
      <trkpt lat="46.29185" lon="7.53642">
        <ele>571.20001220703</ele>
        <time>2023-04-04T14:44:15.000Z</time>
      </trkpt>
      <trkpt lat="46.29188" lon="7.53645">
        <ele>571.20001220703</ele>
        <time>2023-04-04T14:44:16.000Z</time>
      </trkpt>
      <trkpt lat="46.29191" lon="7.53647">
        <ele>571.40002441406</ele>
        <time>2023-04-04T14:44:17.000Z</time>
      </trkpt>
      <trkpt lat="46.29194" lon="7.53648">
        <ele>571.59997558594</ele>
        <time>2023-04-04T14:44:18.000Z</time>
      </trkpt>
      <trkpt lat="46.29197" lon="7.5365">
        <ele>571.59997558594</ele>
        <time>2023-04-04T14:44:19.000Z</time>
      </trkpt>
      <trkpt lat="46.29203" lon="7.53653">
        <ele>572</ele>
        <time>2023-04-04T14:44:21.000Z</time>
      </trkpt>
      <trkpt lat="46.29209" lon="7.53656">
        <ele>572.40002441406</ele>
        <time>2023-04-04T14:44:23.000Z</time>
      </trkpt>
      <trkpt lat="46.29212" lon="7.53658">
        <ele>572.40002441406</ele>
        <time>2023-04-04T14:44:24.000Z</time>
      </trkpt>
      <trkpt lat="46.29215" lon="7.5366">
        <ele>572.59997558594</ele>
        <time>2023-04-04T14:44:25.000Z</time>
      </trkpt>
      <trkpt lat="46.29218" lon="7.53662">
        <ele>572.79998779297</ele>
        <time>2023-04-04T14:44:26.000Z</time>
      </trkpt>
      <trkpt lat="46.29221" lon="7.53663">
        <ele>573</ele>
        <time>2023-04-04T14:44:27.000Z</time>
      </trkpt>
      <trkpt lat="46.29224" lon="7.53665">
        <ele>573.20001220703</ele>
        <time>2023-04-04T14:44:28.000Z</time>
      </trkpt>
      <trkpt lat="46.29227" lon="7.53666">
        <ele>573.40002441406</ele>
        <time>2023-04-04T14:44:29.000Z</time>
      </trkpt>
      <trkpt lat="46.29229" lon="7.53668">
        <ele>573.40002441406</ele>
        <time>2023-04-04T14:44:30.000Z</time>
      </trkpt>
      <trkpt lat="46.29232" lon="7.5367">
        <ele>573.59997558594</ele>
        <time>2023-04-04T14:44:31.000Z</time>
      </trkpt>
      <trkpt lat="46.29235" lon="7.53672">
        <ele>573.79998779297</ele>
        <time>2023-04-04T14:44:32.000Z</time>
      </trkpt>
      <trkpt lat="46.29238" lon="7.53673">
        <ele>573.79998779297</ele>
        <time>2023-04-04T14:44:33.000Z</time>
      </trkpt>
      <trkpt lat="46.2924" lon="7.53675">
        <ele>574</ele>
        <time>2023-04-04T14:44:34.000Z</time>
      </trkpt>
      <trkpt lat="46.29243" lon="7.53677">
        <ele>574</ele>
        <time>2023-04-04T14:44:35.000Z</time>
      </trkpt>
      <trkpt lat="46.29246" lon="7.53678">
        <ele>574.20001220703</ele>
        <time>2023-04-04T14:44:36.000Z</time>
      </trkpt>
      <trkpt lat="46.29249" lon="7.5368">
        <ele>574.20001220703</ele>
        <time>2023-04-04T14:44:37.000Z</time>
      </trkpt>
      <trkpt lat="46.29252" lon="7.53682">
        <ele>574.40002441406</ele>
        <time>2023-04-04T14:44:38.000Z</time>
      </trkpt>
      <trkpt lat="46.29255" lon="7.53684">
        <ele>574.40002441406</ele>
        <time>2023-04-04T14:44:39.000Z</time>
      </trkpt>
      <trkpt lat="46.29258" lon="7.53686">
        <ele>574.59997558594</ele>
        <time>2023-04-04T14:44:40.000Z</time>
      </trkpt>
      <trkpt lat="46.29261" lon="7.53687">
        <ele>574.59997558594</ele>
        <time>2023-04-04T14:44:41.000Z</time>
      </trkpt>
      <trkpt lat="46.29264" lon="7.53689">
        <ele>574.79998779297</ele>
        <time>2023-04-04T14:44:42.000Z</time>
      </trkpt>
      <trkpt lat="46.29267" lon="7.53691">
        <ele>575</ele>
        <time>2023-04-04T14:44:43.000Z</time>
      </trkpt>
      <trkpt lat="46.29269" lon="7.53693">
        <ele>574.79998779297</ele>
        <time>2023-04-04T14:44:44.000Z</time>
      </trkpt>
      <trkpt lat="46.29272" lon="7.53695">
        <ele>575</ele>
        <time>2023-04-04T14:44:45.000Z</time>
      </trkpt>
      <trkpt lat="46.29275" lon="7.53697">
        <ele>575.20001220703</ele>
        <time>2023-04-04T14:44:46.000Z</time>
      </trkpt>
      <trkpt lat="46.29277" lon="7.53699">
        <ele>575.40002441406</ele>
        <time>2023-04-04T14:44:47.000Z</time>
      </trkpt>
      <trkpt lat="46.2928" lon="7.53701">
        <ele>575.59997558594</ele>
        <time>2023-04-04T14:44:48.000Z</time>
      </trkpt>
      <trkpt lat="46.29283" lon="7.53703">
        <ele>575.59997558594</ele>
        <time>2023-04-04T14:44:49.000Z</time>
      </trkpt>
      <trkpt lat="46.29286" lon="7.53705">
        <ele>575.79998779297</ele>
        <time>2023-04-04T14:44:50.000Z</time>
      </trkpt>
      <trkpt lat="46.29289" lon="7.53707">
        <ele>575.79998779297</ele>
        <time>2023-04-04T14:44:51.000Z</time>
      </trkpt>
      <trkpt lat="46.29292" lon="7.53709">
        <ele>576</ele>
        <time>2023-04-04T14:44:52.000Z</time>
      </trkpt>
      <trkpt lat="46.29295" lon="7.5371">
        <ele>576</ele>
        <time>2023-04-04T14:44:53.000Z</time>
      </trkpt>
      <trkpt lat="46.29297" lon="7.53712">
        <ele>576.20001220703</ele>
        <time>2023-04-04T14:44:54.000Z</time>
      </trkpt>
      <trkpt lat="46.293" lon="7.53713">
        <ele>576.20001220703</ele>
        <time>2023-04-04T14:44:55.000Z</time>
      </trkpt>
      <trkpt lat="46.29303" lon="7.53715">
        <ele>576.40002441406</ele>
        <time>2023-04-04T14:44:56.000Z</time>
      </trkpt>
      <trkpt lat="46.29306" lon="7.53717">
        <ele>576.59997558594</ele>
        <time>2023-04-04T14:44:57.000Z</time>
      </trkpt>
      <trkpt lat="46.29309" lon="7.53718">
        <ele>576.59997558594</ele>
        <time>2023-04-04T14:44:58.000Z</time>
      </trkpt>
      <trkpt lat="46.29312" lon="7.5372">
        <ele>576.79998779297</ele>
        <time>2023-04-04T14:44:59.000Z</time>
      </trkpt>
      <trkpt lat="46.29315" lon="7.53722">
        <ele>576.79998779297</ele>
        <time>2023-04-04T14:45:00.000Z</time>
      </trkpt>
      <trkpt lat="46.29318" lon="7.53724">
        <ele>577</ele>
        <time>2023-04-04T14:45:01.000Z</time>
      </trkpt>
      <trkpt lat="46.2932" lon="7.53725">
        <ele>577</ele>
        <time>2023-04-04T14:45:02.000Z</time>
      </trkpt>
      <trkpt lat="46.29323" lon="7.53727">
        <ele>577.20001220703</ele>
        <time>2023-04-04T14:45:03.000Z</time>
      </trkpt>
      <trkpt lat="46.29326" lon="7.53729">
        <ele>577.40002441406</ele>
        <time>2023-04-04T14:45:04.000Z</time>
      </trkpt>
      <trkpt lat="46.29328" lon="7.5373">
        <ele>577.40002441406</ele>
        <time>2023-04-04T14:45:05.000Z</time>
      </trkpt>
      <trkpt lat="46.29331" lon="7.53732">
        <ele>577.79998779297</ele>
        <time>2023-04-04T14:45:06.000Z</time>
      </trkpt>
      <trkpt lat="46.29334" lon="7.53733">
        <ele>577.79998779297</ele>
        <time>2023-04-04T14:45:07.000Z</time>
      </trkpt>
      <trkpt lat="46.29337" lon="7.53734">
        <ele>578</ele>
        <time>2023-04-04T14:45:08.000Z</time>
      </trkpt>
      <trkpt lat="46.2934" lon="7.53736">
        <ele>578</ele>
        <time>2023-04-04T14:45:09.000Z</time>
      </trkpt>
      <trkpt lat="46.29343" lon="7.53736">
        <ele>578.20001220703</ele>
        <time>2023-04-04T14:45:10.000Z</time>
      </trkpt>
      <trkpt lat="46.29346" lon="7.53737">
        <ele>578.40002441406</ele>
        <time>2023-04-04T14:45:11.000Z</time>
      </trkpt>
      <trkpt lat="46.2935" lon="7.53737">
        <ele>578.40002441406</ele>
        <time>2023-04-04T14:45:12.000Z</time>
      </trkpt>
      <trkpt lat="46.29354" lon="7.53736">
        <ele>578.59997558594</ele>
        <time>2023-04-04T14:45:13.000Z</time>
      </trkpt>
      <trkpt lat="46.29357" lon="7.53735">
        <ele>578.59997558594</ele>
        <time>2023-04-04T14:45:14.000Z</time>
      </trkpt>
      <trkpt lat="46.2936" lon="7.53733">
        <ele>578.59997558594</ele>
        <time>2023-04-04T14:45:15.000Z</time>
      </trkpt>
      <trkpt lat="46.29363" lon="7.53731">
        <ele>578.79998779297</ele>
        <time>2023-04-04T14:45:16.000Z</time>
      </trkpt>
      <trkpt lat="46.29365" lon="7.53728">
        <ele>578.79998779297</ele>
        <time>2023-04-04T14:45:17.000Z</time>
      </trkpt>
      <trkpt lat="46.29368" lon="7.53725">
        <ele>578.79998779297</ele>
        <time>2023-04-04T14:45:18.000Z</time>
      </trkpt>
      <trkpt lat="46.29371" lon="7.53723">
        <ele>578.79998779297</ele>
        <time>2023-04-04T14:45:19.000Z</time>
      </trkpt>
      <trkpt lat="46.29373" lon="7.5372">
        <ele>578.79998779297</ele>
        <time>2023-04-04T14:45:20.000Z</time>
      </trkpt>
      <trkpt lat="46.29375" lon="7.53717">
        <ele>578.79998779297</ele>
        <time>2023-04-04T14:45:21.000Z</time>
      </trkpt>
      <trkpt lat="46.29376" lon="7.53714">
        <ele>578.79998779297</ele>
        <time>2023-04-04T14:45:22.000Z</time>
      </trkpt>
      <trkpt lat="46.29378" lon="7.53711">
        <ele>578.79998779297</ele>
        <time>2023-04-04T14:45:23.000Z</time>
      </trkpt>
      <trkpt lat="46.2938" lon="7.53708">
        <ele>578.79998779297</ele>
        <time>2023-04-04T14:45:24.000Z</time>
      </trkpt>
      <trkpt lat="46.29384" lon="7.53701">
        <ele>578.79998779297</ele>
        <time>2023-04-04T14:45:26.000Z</time>
      </trkpt>
      <trkpt lat="46.29385" lon="7.53697">
        <ele>578.79998779297</ele>
        <time>2023-04-04T14:45:27.000Z</time>
      </trkpt>
      <trkpt lat="46.2939" lon="7.53693">
        <ele>579</ele>
        <time>2023-04-04T14:45:29.000Z</time>
      </trkpt>
      <trkpt lat="46.29392" lon="7.5369">
        <ele>579.20001220703</ele>
        <time>2023-04-04T14:45:30.000Z</time>
      </trkpt>
      <trkpt lat="46.29395" lon="7.53688">
        <ele>579.20001220703</ele>
        <time>2023-04-04T14:45:31.000Z</time>
      </trkpt>
      <trkpt lat="46.29397" lon="7.53686">
        <ele>579.20001220703</ele>
        <time>2023-04-04T14:45:32.000Z</time>
      </trkpt>
      <trkpt lat="46.29399" lon="7.53685">
        <ele>579.40002441406</ele>
        <time>2023-04-04T14:45:33.000Z</time>
      </trkpt>
      <trkpt lat="46.29404" lon="7.53684">
        <ele>579.59997558594</ele>
        <time>2023-04-04T14:45:35.000Z</time>
      </trkpt>
      <trkpt lat="46.29406" lon="7.53685">
        <ele>579.79998779297</ele>
        <time>2023-04-04T14:45:36.000Z</time>
      </trkpt>
      <trkpt lat="46.29408" lon="7.53686">
        <ele>580</ele>
        <time>2023-04-04T14:45:37.000Z</time>
      </trkpt>
      <trkpt lat="46.29411" lon="7.53688">
        <ele>580.20001220703</ele>
        <time>2023-04-04T14:45:38.000Z</time>
      </trkpt>
      <trkpt lat="46.29413" lon="7.53689">
        <ele>580.59997558594</ele>
        <time>2023-04-04T14:45:39.000Z</time>
      </trkpt>
      <trkpt lat="46.29415" lon="7.53691">
        <ele>580.59997558594</ele>
        <time>2023-04-04T14:45:40.000Z</time>
      </trkpt>
      <trkpt lat="46.29417" lon="7.53693">
        <ele>581</ele>
        <time>2023-04-04T14:45:41.000Z</time>
      </trkpt>
      <trkpt lat="46.29419" lon="7.53695">
        <ele>581.20001220703</ele>
        <time>2023-04-04T14:45:42.000Z</time>
      </trkpt>
      <trkpt lat="46.29426" lon="7.537">
        <ele>581.59997558594</ele>
        <time>2023-04-04T14:45:45.000Z</time>
      </trkpt>
      <trkpt lat="46.29429" lon="7.53702">
        <ele>581.79998779297</ele>
        <time>2023-04-04T14:45:46.000Z</time>
      </trkpt>
      <trkpt lat="46.29432" lon="7.53705">
        <ele>582</ele>
        <time>2023-04-04T14:45:47.000Z</time>
      </trkpt>
      <trkpt lat="46.29434" lon="7.53708">
        <ele>582</ele>
        <time>2023-04-04T14:45:48.000Z</time>
      </trkpt>
      <trkpt lat="46.29436" lon="7.53711">
        <ele>582.20001220703</ele>
        <time>2023-04-04T14:45:49.000Z</time>
      </trkpt>
      <trkpt lat="46.29438" lon="7.53715">
        <ele>582.40002441406</ele>
        <time>2023-04-04T14:45:50.000Z</time>
      </trkpt>
      <trkpt lat="46.2944" lon="7.53718">
        <ele>582.40002441406</ele>
        <time>2023-04-04T14:45:51.000Z</time>
      </trkpt>
      <trkpt lat="46.2944" lon="7.53722">
        <ele>582.40002441406</ele>
        <time>2023-04-04T14:45:52.000Z</time>
      </trkpt>
      <trkpt lat="46.29442" lon="7.53725">
        <ele>582.59997558594</ele>
        <time>2023-04-04T14:45:53.000Z</time>
      </trkpt>
      <trkpt lat="46.29443" lon="7.53728">
        <ele>582.79998779297</ele>
        <time>2023-04-04T14:45:54.000Z</time>
      </trkpt>
      <trkpt lat="46.29445" lon="7.5373">
        <ele>583</ele>
        <time>2023-04-04T14:45:55.000Z</time>
      </trkpt>
      <trkpt lat="46.29447" lon="7.53733">
        <ele>583.20001220703</ele>
        <time>2023-04-04T14:45:56.000Z</time>
      </trkpt>
      <trkpt lat="46.29448" lon="7.53737">
        <ele>583.20001220703</ele>
        <time>2023-04-04T14:45:57.000Z</time>
      </trkpt>
      <trkpt lat="46.2945" lon="7.5374">
        <ele>583.20001220703</ele>
        <time>2023-04-04T14:45:58.000Z</time>
      </trkpt>
      <trkpt lat="46.29451" lon="7.53742">
        <ele>583.40002441406</ele>
        <time>2023-04-04T14:45:59.000Z</time>
      </trkpt>
      <trkpt lat="46.29454" lon="7.53745">
        <ele>583.59997558594</ele>
        <time>2023-04-04T14:46:00.000Z</time>
      </trkpt>
      <trkpt lat="46.29456" lon="7.53747">
        <ele>583.59997558594</ele>
        <time>2023-04-04T14:46:01.000Z</time>
      </trkpt>
      <trkpt lat="46.29458" lon="7.53749">
        <ele>584</ele>
        <time>2023-04-04T14:46:02.000Z</time>
      </trkpt>
      <trkpt lat="46.29459" lon="7.5375">
        <ele>584.40002441406</ele>
        <time>2023-04-04T14:46:03.000Z</time>
      </trkpt>
      <trkpt lat="46.2946" lon="7.53751">
        <ele>584.40002441406</ele>
        <time>2023-04-04T14:46:04.000Z</time>
      </trkpt>
      <trkpt lat="46.2946" lon="7.53751">
        <ele>584.59997558594</ele>
        <time>2023-04-04T14:46:05.000Z</time>
      </trkpt>
      <trkpt lat="46.2946" lon="7.53751">
        <ele>584.79998779297</ele>
        <time>2023-04-04T14:46:07.000Z</time>
      </trkpt>
      <trkpt lat="46.29462" lon="7.53754">
        <ele>585.40002441406</ele>
        <time>2023-04-04T14:46:34.000Z</time>
      </trkpt>
      <trkpt lat="46.29463" lon="7.53757">
        <ele>585.40002441406</ele>
        <time>2023-04-04T14:46:35.000Z</time>
      </trkpt>
      <trkpt lat="46.29465" lon="7.53761">
        <ele>585.40002441406</ele>
        <time>2023-04-04T14:46:36.000Z</time>
      </trkpt>
      <trkpt lat="46.29468" lon="7.53764">
        <ele>585.40002441406</ele>
        <time>2023-04-04T14:46:37.000Z</time>
      </trkpt>
      <trkpt lat="46.29483" lon="7.5378">
        <ele>585.40002441406</ele>
        <time>2023-04-04T14:46:42.000Z</time>
      </trkpt>
      <trkpt lat="46.29486" lon="7.53784">
        <ele>585.20001220703</ele>
        <time>2023-04-04T14:46:43.000Z</time>
      </trkpt>
      <trkpt lat="46.29508" lon="7.53803">
        <ele>584.59997558594</ele>
        <time>2023-04-04T14:46:49.000Z</time>
      </trkpt>
      <trkpt lat="46.29533" lon="7.5383">
        <ele>584.59997558594</ele>
        <time>2023-04-04T14:46:57.000Z</time>
      </trkpt>
      <trkpt lat="46.29539" lon="7.53835">
        <ele>584.59997558594</ele>
        <time>2023-04-04T14:46:59.000Z</time>
      </trkpt>
      <trkpt lat="46.29541" lon="7.53837">
        <ele>584.59997558594</ele>
        <time>2023-04-04T14:47:00.000Z</time>
      </trkpt>
      <trkpt lat="46.29543" lon="7.53839">
        <ele>584.59997558594</ele>
        <time>2023-04-04T14:47:01.000Z</time>
      </trkpt>
      <trkpt lat="46.29545" lon="7.53841">
        <ele>584.59997558594</ele>
        <time>2023-04-04T14:47:02.000Z</time>
      </trkpt>
      <trkpt lat="46.29547" lon="7.53844">
        <ele>584.59997558594</ele>
        <time>2023-04-04T14:47:03.000Z</time>
      </trkpt>
      <trkpt lat="46.29549" lon="7.53846">
        <ele>584.40002441406</ele>
        <time>2023-04-04T14:47:04.000Z</time>
      </trkpt>
      <trkpt lat="46.29556" lon="7.53852">
        <ele>584.40002441406</ele>
        <time>2023-04-04T14:47:07.000Z</time>
      </trkpt>
      <trkpt lat="46.29559" lon="7.53854">
        <ele>584.40002441406</ele>
        <time>2023-04-04T14:47:08.000Z</time>
      </trkpt>
      <trkpt lat="46.29561" lon="7.53856">
        <ele>584.40002441406</ele>
        <time>2023-04-04T14:47:09.000Z</time>
      </trkpt>
      <trkpt lat="46.29569" lon="7.53862">
        <ele>584.40002441406</ele>
        <time>2023-04-04T14:47:12.000Z</time>
      </trkpt>
      <trkpt lat="46.29583" lon="7.53878">
        <ele>584.59997558594</ele>
        <time>2023-04-04T14:47:19.000Z</time>
      </trkpt>
      <trkpt lat="46.29599" lon="7.53916">
        <ele>585.20001220703</ele>
        <time>2023-04-04T14:47:29.000Z</time>
      </trkpt>
      <trkpt lat="46.29607" lon="7.53934">
        <ele>586</ele>
        <time>2023-04-04T14:47:34.000Z</time>
      </trkpt>
      <trkpt lat="46.29608" lon="7.53938">
        <ele>586.40002441406</ele>
        <time>2023-04-04T14:47:35.000Z</time>
      </trkpt>
      <trkpt lat="46.29609" lon="7.53941">
        <ele>586.40002441406</ele>
        <time>2023-04-04T14:47:36.000Z</time>
      </trkpt>
      <trkpt lat="46.29611" lon="7.53945">
        <ele>586.59997558594</ele>
        <time>2023-04-04T14:47:37.000Z</time>
      </trkpt>
      <trkpt lat="46.29612" lon="7.53948">
        <ele>587</ele>
        <time>2023-04-04T14:47:38.000Z</time>
      </trkpt>
      <trkpt lat="46.29615" lon="7.53955">
        <ele>587.40002441406</ele>
        <time>2023-04-04T14:47:40.000Z</time>
      </trkpt>
      <trkpt lat="46.29617" lon="7.53958">
        <ele>587.40002441406</ele>
        <time>2023-04-04T14:47:41.000Z</time>
      </trkpt>
      <trkpt lat="46.29618" lon="7.53962">
        <ele>587.79998779297</ele>
        <time>2023-04-04T14:47:42.000Z</time>
      </trkpt>
      <trkpt lat="46.2962" lon="7.53965">
        <ele>588</ele>
        <time>2023-04-04T14:47:43.000Z</time>
      </trkpt>
      <trkpt lat="46.29621" lon="7.53969">
        <ele>588.20001220703</ele>
        <time>2023-04-04T14:47:44.000Z</time>
      </trkpt>
      <trkpt lat="46.29623" lon="7.53972">
        <ele>588.20001220703</ele>
        <time>2023-04-04T14:47:45.000Z</time>
      </trkpt>
      <trkpt lat="46.29624" lon="7.53976">
        <ele>588.40002441406</ele>
        <time>2023-04-04T14:47:46.000Z</time>
      </trkpt>
      <trkpt lat="46.29626" lon="7.53979">
        <ele>588.40002441406</ele>
        <time>2023-04-04T14:47:47.000Z</time>
      </trkpt>
      <trkpt lat="46.29627" lon="7.53982">
        <ele>588.59997558594</ele>
        <time>2023-04-04T14:47:48.000Z</time>
      </trkpt>
      <trkpt lat="46.29629" lon="7.53986">
        <ele>588.79998779297</ele>
        <time>2023-04-04T14:47:49.000Z</time>
      </trkpt>
      <trkpt lat="46.2963" lon="7.5399">
        <ele>588.79998779297</ele>
        <time>2023-04-04T14:47:50.000Z</time>
      </trkpt>
      <trkpt lat="46.29631" lon="7.53994">
        <ele>589</ele>
        <time>2023-04-04T14:47:51.000Z</time>
      </trkpt>
      <trkpt lat="46.29633" lon="7.53997">
        <ele>589</ele>
        <time>2023-04-04T14:47:52.000Z</time>
      </trkpt>
      <trkpt lat="46.29634" lon="7.54001">
        <ele>589</ele>
        <time>2023-04-04T14:47:53.000Z</time>
      </trkpt>
      <trkpt lat="46.29635" lon="7.54005">
        <ele>589.20001220703</ele>
        <time>2023-04-04T14:47:54.000Z</time>
      </trkpt>
      <trkpt lat="46.29637" lon="7.54008">
        <ele>589.20001220703</ele>
        <time>2023-04-04T14:47:55.000Z</time>
      </trkpt>
      <trkpt lat="46.29638" lon="7.54012">
        <ele>589.40002441406</ele>
        <time>2023-04-04T14:47:56.000Z</time>
      </trkpt>
      <trkpt lat="46.29639" lon="7.54016">
        <ele>589.40002441406</ele>
        <time>2023-04-04T14:47:57.000Z</time>
      </trkpt>
      <trkpt lat="46.2964" lon="7.5402">
        <ele>589.59997558594</ele>
        <time>2023-04-04T14:47:58.000Z</time>
      </trkpt>
      <trkpt lat="46.29641" lon="7.54023">
        <ele>589.59997558594</ele>
        <time>2023-04-04T14:47:59.000Z</time>
      </trkpt>
      <trkpt lat="46.29642" lon="7.54027">
        <ele>589.79998779297</ele>
        <time>2023-04-04T14:48:00.000Z</time>
      </trkpt>
      <trkpt lat="46.29643" lon="7.54031">
        <ele>589.79998779297</ele>
        <time>2023-04-04T14:48:01.000Z</time>
      </trkpt>
      <trkpt lat="46.29643" lon="7.54035">
        <ele>590</ele>
        <time>2023-04-04T14:48:02.000Z</time>
      </trkpt>
      <trkpt lat="46.29644" lon="7.54039">
        <ele>590.20001220703</ele>
        <time>2023-04-04T14:48:03.000Z</time>
      </trkpt>
      <trkpt lat="46.29644" lon="7.54043">
        <ele>590.20001220703</ele>
        <time>2023-04-04T14:48:04.000Z</time>
      </trkpt>
      <trkpt lat="46.29645" lon="7.54047">
        <ele>590.40002441406</ele>
        <time>2023-04-04T14:48:05.000Z</time>
      </trkpt>
      <trkpt lat="46.29646" lon="7.54051">
        <ele>590.40002441406</ele>
        <time>2023-04-04T14:48:06.000Z</time>
      </trkpt>
      <trkpt lat="46.29647" lon="7.54055">
        <ele>590.59997558594</ele>
        <time>2023-04-04T14:48:07.000Z</time>
      </trkpt>
      <trkpt lat="46.29648" lon="7.54058">
        <ele>590.79998779297</ele>
        <time>2023-04-04T14:48:08.000Z</time>
      </trkpt>
      <trkpt lat="46.29649" lon="7.54062">
        <ele>591</ele>
        <time>2023-04-04T14:48:09.000Z</time>
      </trkpt>
      <trkpt lat="46.2965" lon="7.54066">
        <ele>591</ele>
        <time>2023-04-04T14:48:10.000Z</time>
      </trkpt>
      <trkpt lat="46.2965" lon="7.5407">
        <ele>591</ele>
        <time>2023-04-04T14:48:11.000Z</time>
      </trkpt>
      <trkpt lat="46.29651" lon="7.54074">
        <ele>591.20001220703</ele>
        <time>2023-04-04T14:48:12.000Z</time>
      </trkpt>
      <trkpt lat="46.29651" lon="7.54079">
        <ele>591.40002441406</ele>
        <time>2023-04-04T14:48:13.000Z</time>
      </trkpt>
      <trkpt lat="46.29652" lon="7.54083">
        <ele>591.40002441406</ele>
        <time>2023-04-04T14:48:14.000Z</time>
      </trkpt>
      <trkpt lat="46.29652" lon="7.54087">
        <ele>591.59997558594</ele>
        <time>2023-04-04T14:48:15.000Z</time>
      </trkpt>
      <trkpt lat="46.29653" lon="7.54091">
        <ele>591.79998779297</ele>
        <time>2023-04-04T14:48:16.000Z</time>
      </trkpt>
      <trkpt lat="46.29654" lon="7.54095">
        <ele>592.20001220703</ele>
        <time>2023-04-04T14:48:17.000Z</time>
      </trkpt>
      <trkpt lat="46.29654" lon="7.54099">
        <ele>592.40002441406</ele>
        <time>2023-04-04T14:48:18.000Z</time>
      </trkpt>
      <trkpt lat="46.29655" lon="7.54103">
        <ele>592.40002441406</ele>
        <time>2023-04-04T14:48:19.000Z</time>
      </trkpt>
      <trkpt lat="46.29656" lon="7.54106">
        <ele>592.59997558594</ele>
        <time>2023-04-04T14:48:20.000Z</time>
      </trkpt>
      <trkpt lat="46.29658" lon="7.5411">
        <ele>592.59997558594</ele>
        <time>2023-04-04T14:48:21.000Z</time>
      </trkpt>
      <trkpt lat="46.29658" lon="7.54114">
        <ele>592.79998779297</ele>
        <time>2023-04-04T14:48:22.000Z</time>
      </trkpt>
      <trkpt lat="46.29659" lon="7.54117">
        <ele>592.79998779297</ele>
        <time>2023-04-04T14:48:23.000Z</time>
      </trkpt>
      <trkpt lat="46.2966" lon="7.54121">
        <ele>593.20001220703</ele>
        <time>2023-04-04T14:48:24.000Z</time>
      </trkpt>
      <trkpt lat="46.29661" lon="7.54125">
        <ele>593.59997558594</ele>
        <time>2023-04-04T14:48:25.000Z</time>
      </trkpt>
      <trkpt lat="46.29661" lon="7.54129">
        <ele>593.79998779297</ele>
        <time>2023-04-04T14:48:26.000Z</time>
      </trkpt>
      <trkpt lat="46.29662" lon="7.54133">
        <ele>594</ele>
        <time>2023-04-04T14:48:27.000Z</time>
      </trkpt>
      <trkpt lat="46.29663" lon="7.54137">
        <ele>594.20001220703</ele>
        <time>2023-04-04T14:48:28.000Z</time>
      </trkpt>
      <trkpt lat="46.29663" lon="7.54141">
        <ele>594.20001220703</ele>
        <time>2023-04-04T14:48:29.000Z</time>
      </trkpt>
      <trkpt lat="46.29664" lon="7.54145">
        <ele>594.40002441406</ele>
        <time>2023-04-04T14:48:30.000Z</time>
      </trkpt>
      <trkpt lat="46.29665" lon="7.54149">
        <ele>594.40002441406</ele>
        <time>2023-04-04T14:48:31.000Z</time>
      </trkpt>
      <trkpt lat="46.29665" lon="7.54153">
        <ele>594.59997558594</ele>
        <time>2023-04-04T14:48:32.000Z</time>
      </trkpt>
      <trkpt lat="46.29665" lon="7.54158">
        <ele>594.59997558594</ele>
        <time>2023-04-04T14:48:33.000Z</time>
      </trkpt>
      <trkpt lat="46.29666" lon="7.54162">
        <ele>594.59997558594</ele>
        <time>2023-04-04T14:48:34.000Z</time>
      </trkpt>
      <trkpt lat="46.29666" lon="7.54166">
        <ele>594.59997558594</ele>
        <time>2023-04-04T14:48:35.000Z</time>
      </trkpt>
      <trkpt lat="46.29666" lon="7.54171">
        <ele>594.59997558594</ele>
        <time>2023-04-04T14:48:36.000Z</time>
      </trkpt>
      <trkpt lat="46.29667" lon="7.54175">
        <ele>594.79998779297</ele>
        <time>2023-04-04T14:48:37.000Z</time>
      </trkpt>
      <trkpt lat="46.29667" lon="7.54179">
        <ele>594.79998779297</ele>
        <time>2023-04-04T14:48:38.000Z</time>
      </trkpt>
      <trkpt lat="46.29668" lon="7.54183">
        <ele>594.79998779297</ele>
        <time>2023-04-04T14:48:39.000Z</time>
      </trkpt>
      <trkpt lat="46.29668" lon="7.54187">
        <ele>595</ele>
        <time>2023-04-04T14:48:40.000Z</time>
      </trkpt>
      <trkpt lat="46.29669" lon="7.54192">
        <ele>595.20001220703</ele>
        <time>2023-04-04T14:48:41.000Z</time>
      </trkpt>
      <trkpt lat="46.2967" lon="7.54196">
        <ele>595.20001220703</ele>
        <time>2023-04-04T14:48:42.000Z</time>
      </trkpt>
      <trkpt lat="46.2967" lon="7.542">
        <ele>595.40002441406</ele>
        <time>2023-04-04T14:48:43.000Z</time>
      </trkpt>
      <trkpt lat="46.29671" lon="7.54204">
        <ele>595.59997558594</ele>
        <time>2023-04-04T14:48:44.000Z</time>
      </trkpt>
      <trkpt lat="46.29671" lon="7.54208">
        <ele>595.79998779297</ele>
        <time>2023-04-04T14:48:45.000Z</time>
      </trkpt>
      <trkpt lat="46.29672" lon="7.54213">
        <ele>595.79998779297</ele>
        <time>2023-04-04T14:48:46.000Z</time>
      </trkpt>
      <trkpt lat="46.29673" lon="7.54217">
        <ele>596</ele>
        <time>2023-04-04T14:48:47.000Z</time>
      </trkpt>
      <trkpt lat="46.29673" lon="7.5422">
        <ele>596.20001220703</ele>
        <time>2023-04-04T14:48:48.000Z</time>
      </trkpt>
      <trkpt lat="46.29673" lon="7.54224">
        <ele>596.20001220703</ele>
        <time>2023-04-04T14:48:49.000Z</time>
      </trkpt>
      <trkpt lat="46.29673" lon="7.54228">
        <ele>596.20001220703</ele>
        <time>2023-04-04T14:48:50.000Z</time>
      </trkpt>
      <trkpt lat="46.29671" lon="7.54231">
        <ele>596.40002441406</ele>
        <time>2023-04-04T14:48:51.000Z</time>
      </trkpt>
      <trkpt lat="46.29669" lon="7.54232">
        <ele>596.40002441406</ele>
        <time>2023-04-04T14:48:52.000Z</time>
      </trkpt>
      <trkpt lat="46.29666" lon="7.54232">
        <ele>596.59997558594</ele>
        <time>2023-04-04T14:48:53.000Z</time>
      </trkpt>
      <trkpt lat="46.29664" lon="7.54233">
        <ele>596.59997558594</ele>
        <time>2023-04-04T14:48:54.000Z</time>
      </trkpt>
      <trkpt lat="46.29664" lon="7.54233">
        <ele>596.59997558594</ele>
        <time>2023-04-04T14:48:55.000Z</time>
      </trkpt>
      <trkpt lat="46.29663" lon="7.54233">
        <ele>597</ele>
        <time>2023-04-04T14:48:56.000Z</time>
      </trkpt>
      <trkpt lat="46.29663" lon="7.54233">
        <ele>597.20001220703</ele>
        <time>2023-04-04T14:48:58.000Z</time>
      </trkpt>
      <trkpt lat="46.2966" lon="7.54241">
        <ele>598.20001220703</ele>
        <time>2023-04-04T14:49:11.000Z</time>
      </trkpt>
      <trkpt lat="46.29658" lon="7.54243">
        <ele>598.20001220703</ele>
        <time>2023-04-04T14:49:12.000Z</time>
      </trkpt>
      <trkpt lat="46.29658" lon="7.54245">
        <ele>598.20001220703</ele>
        <time>2023-04-04T14:49:13.000Z</time>
      </trkpt>
      <trkpt lat="46.29657" lon="7.54247">
        <ele>598.40002441406</ele>
        <time>2023-04-04T14:49:14.000Z</time>
      </trkpt>
      <trkpt lat="46.29655" lon="7.5425">
        <ele>598.40002441406</ele>
        <time>2023-04-04T14:49:15.000Z</time>
      </trkpt>
      <trkpt lat="46.29653" lon="7.54252">
        <ele>598.40002441406</ele>
        <time>2023-04-04T14:49:16.000Z</time>
      </trkpt>
      <trkpt lat="46.29651" lon="7.54255">
        <ele>598.40002441406</ele>
        <time>2023-04-04T14:49:17.000Z</time>
      </trkpt>
      <trkpt lat="46.2964" lon="7.5427">
        <ele>598.40002441406</ele>
        <time>2023-04-04T14:49:22.000Z</time>
      </trkpt>
      <trkpt lat="46.29638" lon="7.54274">
        <ele>598.40002441406</ele>
        <time>2023-04-04T14:49:23.000Z</time>
      </trkpt>
      <trkpt lat="46.29628" lon="7.54296">
        <ele>597.79998779297</ele>
        <time>2023-04-04T14:49:29.000Z</time>
      </trkpt>
      <trkpt lat="46.29629" lon="7.54299">
        <ele>597.79998779297</ele>
        <time>2023-04-04T14:49:30.000Z</time>
      </trkpt>
      <trkpt lat="46.2963" lon="7.54301">
        <ele>597.79998779297</ele>
        <time>2023-04-04T14:49:31.000Z</time>
      </trkpt>
      <trkpt lat="46.29631" lon="7.54303">
        <ele>597.79998779297</ele>
        <time>2023-04-04T14:49:32.000Z</time>
      </trkpt>
      <trkpt lat="46.29631" lon="7.54306">
        <ele>598</ele>
        <time>2023-04-04T14:49:33.000Z</time>
      </trkpt>
      <trkpt lat="46.29633" lon="7.54319">
        <ele>598</ele>
        <time>2023-04-04T14:49:37.000Z</time>
      </trkpt>
      <trkpt lat="46.29635" lon="7.54322">
        <ele>598.20001220703</ele>
        <time>2023-04-04T14:49:38.000Z</time>
      </trkpt>
      <trkpt lat="46.29636" lon="7.54326">
        <ele>598.20001220703</ele>
        <time>2023-04-04T14:49:39.000Z</time>
      </trkpt>
      <trkpt lat="46.29636" lon="7.5433">
        <ele>598.40002441406</ele>
        <time>2023-04-04T14:49:40.000Z</time>
      </trkpt>
      <trkpt lat="46.29636" lon="7.54334">
        <ele>598.40002441406</ele>
        <time>2023-04-04T14:49:41.000Z</time>
      </trkpt>
      <trkpt lat="46.29635" lon="7.54338">
        <ele>598.40002441406</ele>
        <time>2023-04-04T14:49:42.000Z</time>
      </trkpt>
      <trkpt lat="46.29635" lon="7.54342">
        <ele>598.40002441406</ele>
        <time>2023-04-04T14:49:43.000Z</time>
      </trkpt>
      <trkpt lat="46.29637" lon="7.54349">
        <ele>598.59997558594</ele>
        <time>2023-04-04T14:49:45.000Z</time>
      </trkpt>
      <trkpt lat="46.29638" lon="7.54353">
        <ele>598.59997558594</ele>
        <time>2023-04-04T14:49:46.000Z</time>
      </trkpt>
      <trkpt lat="46.29639" lon="7.54357">
        <ele>598.59997558594</ele>
        <time>2023-04-04T14:49:47.000Z</time>
      </trkpt>
      <trkpt lat="46.29642" lon="7.54366">
        <ele>598.59997558594</ele>
        <time>2023-04-04T14:49:49.000Z</time>
      </trkpt>
      <trkpt lat="46.29649" lon="7.54391">
        <ele>598.40002441406</ele>
        <time>2023-04-04T14:49:55.000Z</time>
      </trkpt>
      <trkpt lat="46.29649" lon="7.54394">
        <ele>598.40002441406</ele>
        <time>2023-04-04T14:49:56.000Z</time>
      </trkpt>
      <trkpt lat="46.2965" lon="7.54395">
        <ele>598.40002441406</ele>
        <time>2023-04-04T14:49:58.000Z</time>
      </trkpt>
      <trkpt lat="46.29651" lon="7.54402">
        <ele>598.40002441406</ele>
        <time>2023-04-04T14:50:06.000Z</time>
      </trkpt>
      <trkpt lat="46.29656" lon="7.54422">
        <ele>598.40002441406</ele>
        <time>2023-04-04T14:50:11.000Z</time>
      </trkpt>
      <trkpt lat="46.2966" lon="7.54437">
        <ele>598.40002441406</ele>
        <time>2023-04-04T14:50:14.000Z</time>
      </trkpt>
      <trkpt lat="46.29661" lon="7.54442">
        <ele>598.40002441406</ele>
        <time>2023-04-04T14:50:15.000Z</time>
      </trkpt>
      <trkpt lat="46.29662" lon="7.54446">
        <ele>598.40002441406</ele>
        <time>2023-04-04T14:50:16.000Z</time>
      </trkpt>
      <trkpt lat="46.29666" lon="7.5446">
        <ele>598.20001220703</ele>
        <time>2023-04-04T14:50:19.000Z</time>
      </trkpt>
      <trkpt lat="46.29674" lon="7.54503">
        <ele>597.79998779297</ele>
        <time>2023-04-04T14:50:28.000Z</time>
      </trkpt>
      <trkpt lat="46.29673" lon="7.54508">
        <ele>597.59997558594</ele>
        <time>2023-04-04T14:50:29.000Z</time>
      </trkpt>
      <trkpt lat="46.29672" lon="7.54513">
        <ele>597.59997558594</ele>
        <time>2023-04-04T14:50:30.000Z</time>
      </trkpt>
      <trkpt lat="46.29671" lon="7.54518">
        <ele>597.59997558594</ele>
        <time>2023-04-04T14:50:31.000Z</time>
      </trkpt>
      <trkpt lat="46.29671" lon="7.54541">
        <ele>597.40002441406</ele>
        <time>2023-04-04T14:50:35.000Z</time>
      </trkpt>
      <trkpt lat="46.29677" lon="7.54568">
        <ele>597.20001220703</ele>
        <time>2023-04-04T14:50:39.000Z</time>
      </trkpt>
      <trkpt lat="46.29679" lon="7.54576">
        <ele>597.20001220703</ele>
        <time>2023-04-04T14:50:40.000Z</time>
      </trkpt>
      <trkpt lat="46.29685" lon="7.54608">
        <ele>597</ele>
        <time>2023-04-04T14:50:44.000Z</time>
      </trkpt>
      <trkpt lat="46.29686" lon="7.54624">
        <ele>596.59997558594</ele>
        <time>2023-04-04T14:50:46.000Z</time>
      </trkpt>
      <trkpt lat="46.29685" lon="7.54632">
        <ele>596.20001220703</ele>
        <time>2023-04-04T14:50:47.000Z</time>
      </trkpt>
      <trkpt lat="46.29683" lon="7.5465">
        <ele>595.59997558594</ele>
        <time>2023-04-04T14:50:49.000Z</time>
      </trkpt>
      <trkpt lat="46.29678" lon="7.54667">
        <ele>594.79998779297</ele>
        <time>2023-04-04T14:50:51.000Z</time>
      </trkpt>
      <trkpt lat="46.2966" lon="7.54708">
        <ele>593.59997558594</ele>
        <time>2023-04-04T14:50:56.000Z</time>
      </trkpt>
      <trkpt lat="46.29653" lon="7.54726">
        <ele>592.79998779297</ele>
        <time>2023-04-04T14:50:58.000Z</time>
      </trkpt>
      <trkpt lat="46.29649" lon="7.54735">
        <ele>592.40002441406</ele>
        <time>2023-04-04T14:50:59.000Z</time>
      </trkpt>
      <trkpt lat="46.29632" lon="7.54778">
        <ele>591.59997558594</ele>
        <time>2023-04-04T14:51:04.000Z</time>
      </trkpt>
      <trkpt lat="46.29629" lon="7.54786">
        <ele>591.20001220703</ele>
        <time>2023-04-04T14:51:05.000Z</time>
      </trkpt>
      <trkpt lat="46.29626" lon="7.54794">
        <ele>591</ele>
        <time>2023-04-04T14:51:06.000Z</time>
      </trkpt>
      <trkpt lat="46.29623" lon="7.54802">
        <ele>590.79998779297</ele>
        <time>2023-04-04T14:51:07.000Z</time>
      </trkpt>
      <trkpt lat="46.2962" lon="7.5481">
        <ele>590.59997558594</ele>
        <time>2023-04-04T14:51:08.000Z</time>
      </trkpt>
      <trkpt lat="46.29614" lon="7.54826">
        <ele>590</ele>
        <time>2023-04-04T14:51:10.000Z</time>
      </trkpt>
      <trkpt lat="46.29607" lon="7.54842">
        <ele>589.79998779297</ele>
        <time>2023-04-04T14:51:12.000Z</time>
      </trkpt>
      <trkpt lat="46.29604" lon="7.54849">
        <ele>589.59997558594</ele>
        <time>2023-04-04T14:51:13.000Z</time>
      </trkpt>
      <trkpt lat="46.29601" lon="7.54855">
        <ele>589.59997558594</ele>
        <time>2023-04-04T14:51:14.000Z</time>
      </trkpt>
      <trkpt lat="46.29599" lon="7.54861">
        <ele>589.40002441406</ele>
        <time>2023-04-04T14:51:15.000Z</time>
      </trkpt>
      <trkpt lat="46.29597" lon="7.54867">
        <ele>589.40002441406</ele>
        <time>2023-04-04T14:51:16.000Z</time>
      </trkpt>
      <trkpt lat="46.29594" lon="7.54872">
        <ele>589</ele>
        <time>2023-04-04T14:51:17.000Z</time>
      </trkpt>
      <trkpt lat="46.29592" lon="7.54877">
        <ele>588.59997558594</ele>
        <time>2023-04-04T14:51:18.000Z</time>
      </trkpt>
      <trkpt lat="46.2959" lon="7.54881">
        <ele>588.59997558594</ele>
        <time>2023-04-04T14:51:19.000Z</time>
      </trkpt>
      <trkpt lat="46.29589" lon="7.54884">
        <ele>588</ele>
        <time>2023-04-04T14:51:20.000Z</time>
      </trkpt>
      <trkpt lat="46.29587" lon="7.54886">
        <ele>587.59997558594</ele>
        <time>2023-04-04T14:51:21.000Z</time>
      </trkpt>
      <trkpt lat="46.29585" lon="7.54888">
        <ele>587.20001220703</ele>
        <time>2023-04-04T14:51:22.000Z</time>
      </trkpt>
      <trkpt lat="46.29579" lon="7.54898">
        <ele>586.59997558594</ele>
        <time>2023-04-04T14:51:25.000Z</time>
      </trkpt>
      <trkpt lat="46.29576" lon="7.54909">
        <ele>586.20001220703</ele>
        <time>2023-04-04T14:51:27.000Z</time>
      </trkpt>
      <trkpt lat="46.29575" lon="7.54916">
        <ele>586</ele>
        <time>2023-04-04T14:51:28.000Z</time>
      </trkpt>
      <trkpt lat="46.29573" lon="7.54928">
        <ele>585.79998779297</ele>
        <time>2023-04-04T14:51:30.000Z</time>
      </trkpt>
      <trkpt lat="46.29569" lon="7.5494">
        <ele>585.59997558594</ele>
        <time>2023-04-04T14:51:32.000Z</time>
      </trkpt>
      <trkpt lat="46.29567" lon="7.54946">
        <ele>585.59997558594</ele>
        <time>2023-04-04T14:51:33.000Z</time>
      </trkpt>
      <trkpt lat="46.29548" lon="7.55002">
        <ele>585</ele>
        <time>2023-04-04T14:51:42.000Z</time>
      </trkpt>
      <trkpt lat="46.29538" lon="7.55039">
        <ele>584.40002441406</ele>
        <time>2023-04-04T14:51:48.000Z</time>
      </trkpt>
      <trkpt lat="46.29531" lon="7.55064">
        <ele>584.20001220703</ele>
        <time>2023-04-04T14:51:52.000Z</time>
      </trkpt>
      <trkpt lat="46.29522" lon="7.55095">
        <ele>584</ele>
        <time>2023-04-04T14:51:57.000Z</time>
      </trkpt>
      <trkpt lat="46.29519" lon="7.55107">
        <ele>584</ele>
        <time>2023-04-04T14:51:59.000Z</time>
      </trkpt>
      <trkpt lat="46.29518" lon="7.55113">
        <ele>584</ele>
        <time>2023-04-04T14:52:00.000Z</time>
      </trkpt>
      <trkpt lat="46.29517" lon="7.55119">
        <ele>584</ele>
        <time>2023-04-04T14:52:01.000Z</time>
      </trkpt>
      <trkpt lat="46.29513" lon="7.55138">
        <ele>583.79998779297</ele>
        <time>2023-04-04T14:52:04.000Z</time>
      </trkpt>
      <trkpt lat="46.29511" lon="7.55144">
        <ele>583.79998779297</ele>
        <time>2023-04-04T14:52:05.000Z</time>
      </trkpt>
      <trkpt lat="46.2951" lon="7.5515">
        <ele>583.79998779297</ele>
        <time>2023-04-04T14:52:06.000Z</time>
      </trkpt>
      <trkpt lat="46.29508" lon="7.55156">
        <ele>583.79998779297</ele>
        <time>2023-04-04T14:52:07.000Z</time>
      </trkpt>
      <trkpt lat="46.29505" lon="7.55167">
        <ele>583.79998779297</ele>
        <time>2023-04-04T14:52:09.000Z</time>
      </trkpt>
      <trkpt lat="46.29504" lon="7.55172">
        <ele>584</ele>
        <time>2023-04-04T14:52:10.000Z</time>
      </trkpt>
      <trkpt lat="46.29504" lon="7.55176">
        <ele>584</ele>
        <time>2023-04-04T14:52:11.000Z</time>
      </trkpt>
      <trkpt lat="46.29504" lon="7.5518">
        <ele>583.79998779297</ele>
        <time>2023-04-04T14:52:12.000Z</time>
      </trkpt>
      <trkpt lat="46.29505" lon="7.55184">
        <ele>583.79998779297</ele>
        <time>2023-04-04T14:52:13.000Z</time>
      </trkpt>
      <trkpt lat="46.29506" lon="7.55188">
        <ele>583.59997558594</ele>
        <time>2023-04-04T14:52:14.000Z</time>
      </trkpt>
      <trkpt lat="46.29508" lon="7.55193">
        <ele>583.79998779297</ele>
        <time>2023-04-04T14:52:15.000Z</time>
      </trkpt>
      <trkpt lat="46.29512" lon="7.55202">
        <ele>583.59997558594</ele>
        <time>2023-04-04T14:52:17.000Z</time>
      </trkpt>
      <trkpt lat="46.29529" lon="7.55237">
        <ele>583</ele>
        <time>2023-04-04T14:52:25.000Z</time>
      </trkpt>
      <trkpt lat="46.29539" lon="7.5525">
        <ele>583</ele>
        <time>2023-04-04T14:52:29.000Z</time>
      </trkpt>
      <trkpt lat="46.29542" lon="7.55252">
        <ele>583</ele>
        <time>2023-04-04T14:52:30.000Z</time>
      </trkpt>
      <trkpt lat="46.29544" lon="7.55254">
        <ele>582.79998779297</ele>
        <time>2023-04-04T14:52:31.000Z</time>
      </trkpt>
      <trkpt lat="46.29546" lon="7.55256">
        <ele>582.79998779297</ele>
        <time>2023-04-04T14:52:32.000Z</time>
      </trkpt>
      <trkpt lat="46.2955" lon="7.55259">
        <ele>582.79998779297</ele>
        <time>2023-04-04T14:52:33.000Z</time>
      </trkpt>
      <trkpt lat="46.29559" lon="7.55266">
        <ele>582.59997558594</ele>
        <time>2023-04-04T14:52:36.000Z</time>
      </trkpt>
      <trkpt lat="46.29563" lon="7.55269">
        <ele>582.59997558594</ele>
        <time>2023-04-04T14:52:37.000Z</time>
      </trkpt>
      <trkpt lat="46.29567" lon="7.55271">
        <ele>582.59997558594</ele>
        <time>2023-04-04T14:52:38.000Z</time>
      </trkpt>
      <trkpt lat="46.2957" lon="7.55274">
        <ele>582.59997558594</ele>
        <time>2023-04-04T14:52:39.000Z</time>
      </trkpt>
      <trkpt lat="46.29571" lon="7.55276">
        <ele>582.40002441406</ele>
        <time>2023-04-04T14:52:40.000Z</time>
      </trkpt>
      <trkpt lat="46.29573" lon="7.55278">
        <ele>582.40002441406</ele>
        <time>2023-04-04T14:52:41.000Z</time>
      </trkpt>
      <trkpt lat="46.29574" lon="7.55279">
        <ele>582.40002441406</ele>
        <time>2023-04-04T14:52:42.000Z</time>
      </trkpt>
      <trkpt lat="46.29576" lon="7.5528">
        <ele>582.40002441406</ele>
        <time>2023-04-04T14:52:43.000Z</time>
      </trkpt>
      <trkpt lat="46.29577" lon="7.55281">
        <ele>582.40002441406</ele>
        <time>2023-04-04T14:52:44.000Z</time>
      </trkpt>
      <trkpt lat="46.29578" lon="7.55282">
        <ele>582.40002441406</ele>
        <time>2023-04-04T14:52:45.000Z</time>
      </trkpt>
      <trkpt lat="46.29578" lon="7.55282">
        <ele>582.59997558594</ele>
        <time>2023-04-04T14:52:47.000Z</time>
      </trkpt>
      <trkpt lat="46.29578" lon="7.55282">
        <ele>582.59997558594</ele>
        <time>2023-04-04T14:52:48.000Z</time>
      </trkpt>
      <trkpt lat="46.29578" lon="7.55282">
        <ele>582.59997558594</ele>
        <time>2023-04-04T14:52:49.000Z</time>
      </trkpt>
      <trkpt lat="46.29584" lon="7.55286">
        <ele>582.79998779297</ele>
        <time>2023-04-04T14:53:07.000Z</time>
      </trkpt>
      <trkpt lat="46.2959" lon="7.55293">
        <ele>582.79998779297</ele>
        <time>2023-04-04T14:53:10.000Z</time>
      </trkpt>
      <trkpt lat="46.29605" lon="7.55306">
        <ele>582.40002441406</ele>
        <time>2023-04-04T14:53:15.000Z</time>
      </trkpt>
      <trkpt lat="46.29608" lon="7.55309">
        <ele>582.20001220703</ele>
        <time>2023-04-04T14:53:16.000Z</time>
      </trkpt>
      <trkpt lat="46.29624" lon="7.55325">
        <ele>581.59997558594</ele>
        <time>2023-04-04T14:53:20.000Z</time>
      </trkpt>
      <trkpt lat="46.29628" lon="7.55329">
        <ele>581.59997558594</ele>
        <time>2023-04-04T14:53:21.000Z</time>
      </trkpt>
      <trkpt lat="46.29655" lon="7.55355">
        <ele>581.20001220703</ele>
        <time>2023-04-04T14:53:28.000Z</time>
      </trkpt>
      <trkpt lat="46.29683" lon="7.55383">
        <ele>580.79998779297</ele>
        <time>2023-04-04T14:53:36.000Z</time>
      </trkpt>
      <trkpt lat="46.29716" lon="7.55419">
        <ele>580.79998779297</ele>
        <time>2023-04-04T14:53:45.000Z</time>
      </trkpt>
      <trkpt lat="46.29741" lon="7.55436">
        <ele>580.79998779297</ele>
        <time>2023-04-04T14:53:51.000Z</time>
      </trkpt>
      <trkpt lat="46.29746" lon="7.55436">
        <ele>580.79998779297</ele>
        <time>2023-04-04T14:53:52.000Z</time>
      </trkpt>
      <trkpt lat="46.2975" lon="7.55437">
        <ele>580.79998779297</ele>
        <time>2023-04-04T14:53:53.000Z</time>
      </trkpt>
      <trkpt lat="46.29754" lon="7.55437">
        <ele>580.79998779297</ele>
        <time>2023-04-04T14:53:54.000Z</time>
      </trkpt>
      <trkpt lat="46.29758" lon="7.55437">
        <ele>580.79998779297</ele>
        <time>2023-04-04T14:53:55.000Z</time>
      </trkpt>
      <trkpt lat="46.29763" lon="7.55437">
        <ele>581</ele>
        <time>2023-04-04T14:53:56.000Z</time>
      </trkpt>
      <trkpt lat="46.29767" lon="7.55437">
        <ele>581</ele>
        <time>2023-04-04T14:53:57.000Z</time>
      </trkpt>
      <trkpt lat="46.29771" lon="7.55438">
        <ele>581.20001220703</ele>
        <time>2023-04-04T14:53:58.000Z</time>
      </trkpt>
      <trkpt lat="46.29775" lon="7.55438">
        <ele>581.20001220703</ele>
        <time>2023-04-04T14:53:59.000Z</time>
      </trkpt>
      <trkpt lat="46.29779" lon="7.55438">
        <ele>581.20001220703</ele>
        <time>2023-04-04T14:54:00.000Z</time>
      </trkpt>
      <trkpt lat="46.29783" lon="7.55438">
        <ele>581.20001220703</ele>
        <time>2023-04-04T14:54:01.000Z</time>
      </trkpt>
      <trkpt lat="46.29786" lon="7.55437">
        <ele>581.20001220703</ele>
        <time>2023-04-04T14:54:02.000Z</time>
      </trkpt>
      <trkpt lat="46.2979" lon="7.55437">
        <ele>581.40002441406</ele>
        <time>2023-04-04T14:54:03.000Z</time>
      </trkpt>
      <trkpt lat="46.29793" lon="7.55436">
        <ele>581.40002441406</ele>
        <time>2023-04-04T14:54:04.000Z</time>
      </trkpt>
      <trkpt lat="46.29796" lon="7.55435">
        <ele>581.59997558594</ele>
        <time>2023-04-04T14:54:05.000Z</time>
      </trkpt>
      <trkpt lat="46.29798" lon="7.55435">
        <ele>581.59997558594</ele>
        <time>2023-04-04T14:54:06.000Z</time>
      </trkpt>
      <trkpt lat="46.29801" lon="7.55435">
        <ele>581.59997558594</ele>
        <time>2023-04-04T14:54:07.000Z</time>
      </trkpt>
      <trkpt lat="46.29803" lon="7.55436">
        <ele>581.79998779297</ele>
        <time>2023-04-04T14:54:08.000Z</time>
      </trkpt>
      <trkpt lat="46.29806" lon="7.55437">
        <ele>581.79998779297</ele>
        <time>2023-04-04T14:54:09.000Z</time>
      </trkpt>
      <trkpt lat="46.2981" lon="7.55448">
        <ele>581.79998779297</ele>
        <time>2023-04-04T14:54:12.000Z</time>
      </trkpt>
      <trkpt lat="46.29826" lon="7.55483">
        <ele>581.79998779297</ele>
        <time>2023-04-04T14:54:20.000Z</time>
      </trkpt>
      <trkpt lat="46.29843" lon="7.55523">
        <ele>582.40002441406</ele>
        <time>2023-04-04T14:54:28.000Z</time>
      </trkpt>
      <trkpt lat="46.29849" lon="7.55539">
        <ele>582.59997558594</ele>
        <time>2023-04-04T14:54:31.000Z</time>
      </trkpt>
      <trkpt lat="46.29858" lon="7.5556">
        <ele>582.59997558594</ele>
        <time>2023-04-04T14:54:35.000Z</time>
      </trkpt>
      <trkpt lat="46.2986" lon="7.55565">
        <ele>582.79998779297</ele>
        <time>2023-04-04T14:54:36.000Z</time>
      </trkpt>
      <trkpt lat="46.29877" lon="7.55607">
        <ele>583.20001220703</ele>
        <time>2023-04-04T14:54:44.000Z</time>
      </trkpt>
      <trkpt lat="46.29893" lon="7.55644">
        <ele>583.59997558594</ele>
        <time>2023-04-04T14:54:51.000Z</time>
      </trkpt>
      <trkpt lat="46.29902" lon="7.55671">
        <ele>583.79998779297</ele>
        <time>2023-04-04T14:54:56.000Z</time>
      </trkpt>
      <trkpt lat="46.29918" lon="7.55708">
        <ele>584</ele>
        <time>2023-04-04T14:55:03.000Z</time>
      </trkpt>
      <trkpt lat="46.2994" lon="7.55762">
        <ele>584.20001220703</ele>
        <time>2023-04-04T14:55:13.000Z</time>
      </trkpt>
      <trkpt lat="46.29961" lon="7.55812">
        <ele>584.40002441406</ele>
        <time>2023-04-04T14:55:22.000Z</time>
      </trkpt>
      <trkpt lat="46.29963" lon="7.55817">
        <ele>584.59997558594</ele>
        <time>2023-04-04T14:55:23.000Z</time>
      </trkpt>
      <trkpt lat="46.29981" lon="7.55861">
        <ele>585.20001220703</ele>
        <time>2023-04-04T14:55:31.000Z</time>
      </trkpt>
      <trkpt lat="46.30002" lon="7.55909">
        <ele>585.59997558594</ele>
        <time>2023-04-04T14:55:40.000Z</time>
      </trkpt>
      <trkpt lat="46.30025" lon="7.55963">
        <ele>586.40002441406</ele>
        <time>2023-04-04T14:55:50.000Z</time>
      </trkpt>
      <trkpt lat="46.30044" lon="7.56006">
        <ele>586.59997558594</ele>
        <time>2023-04-04T14:55:58.000Z</time>
      </trkpt>
      <trkpt lat="46.30047" lon="7.56011">
        <ele>586.59997558594</ele>
        <time>2023-04-04T14:55:59.000Z</time>
      </trkpt>
      <trkpt lat="46.30066" lon="7.56056">
        <ele>587</ele>
        <time>2023-04-04T14:56:07.000Z</time>
      </trkpt>
      <trkpt lat="46.30073" lon="7.56073">
        <ele>587</ele>
        <time>2023-04-04T14:56:10.000Z</time>
      </trkpt>
      <trkpt lat="46.30095" lon="7.56124">
        <ele>587</ele>
        <time>2023-04-04T14:56:19.000Z</time>
      </trkpt>
      <trkpt lat="46.30118" lon="7.56183">
        <ele>587.20001220703</ele>
        <time>2023-04-04T14:56:29.000Z</time>
      </trkpt>
      <trkpt lat="46.30137" lon="7.56229">
        <ele>587.40002441406</ele>
        <time>2023-04-04T14:56:37.000Z</time>
      </trkpt>
      <trkpt lat="46.30159" lon="7.56283">
        <ele>587.59997558594</ele>
        <time>2023-04-04T14:56:46.000Z</time>
      </trkpt>
      <trkpt lat="46.30171" lon="7.56312">
        <ele>587.79998779297</ele>
        <time>2023-04-04T14:56:51.000Z</time>
      </trkpt>
      <trkpt lat="46.30173" lon="7.56318">
        <ele>587.79998779297</ele>
        <time>2023-04-04T14:56:52.000Z</time>
      </trkpt>
      <trkpt lat="46.30178" lon="7.56329">
        <ele>587.79998779297</ele>
        <time>2023-04-04T14:56:54.000Z</time>
      </trkpt>
      <trkpt lat="46.3018" lon="7.56335">
        <ele>587.79998779297</ele>
        <time>2023-04-04T14:56:55.000Z</time>
      </trkpt>
      <trkpt lat="46.30182" lon="7.5634">
        <ele>587.79998779297</ele>
        <time>2023-04-04T14:56:56.000Z</time>
      </trkpt>
      <trkpt lat="46.30191" lon="7.56363">
        <ele>588</ele>
        <time>2023-04-04T14:57:00.000Z</time>
      </trkpt>
      <trkpt lat="46.30204" lon="7.56392">
        <ele>588</ele>
        <time>2023-04-04T14:57:05.000Z</time>
      </trkpt>
      <trkpt lat="46.30216" lon="7.5642">
        <ele>587.79998779297</ele>
        <time>2023-04-04T14:57:10.000Z</time>
      </trkpt>
      <trkpt lat="46.30218" lon="7.56426">
        <ele>587.79998779297</ele>
        <time>2023-04-04T14:57:11.000Z</time>
      </trkpt>
      <trkpt lat="46.30219" lon="7.56431">
        <ele>587.79998779297</ele>
        <time>2023-04-04T14:57:12.000Z</time>
      </trkpt>
      <trkpt lat="46.30221" lon="7.56437">
        <ele>588</ele>
        <time>2023-04-04T14:57:13.000Z</time>
      </trkpt>
      <trkpt lat="46.30222" lon="7.56442">
        <ele>588</ele>
        <time>2023-04-04T14:57:14.000Z</time>
      </trkpt>
      <trkpt lat="46.30224" lon="7.56447">
        <ele>588</ele>
        <time>2023-04-04T14:57:15.000Z</time>
      </trkpt>
      <trkpt lat="46.30226" lon="7.5645">
        <ele>588</ele>
        <time>2023-04-04T14:57:16.000Z</time>
      </trkpt>
      <trkpt lat="46.30227" lon="7.56453">
        <ele>588</ele>
        <time>2023-04-04T14:57:17.000Z</time>
      </trkpt>
      <trkpt lat="46.30228" lon="7.56454">
        <ele>588</ele>
        <time>2023-04-04T14:57:18.000Z</time>
      </trkpt>
      <trkpt lat="46.30228" lon="7.56455">
        <ele>588</ele>
        <time>2023-04-04T14:57:20.000Z</time>
      </trkpt>
      <trkpt lat="46.3023" lon="7.56459">
        <ele>587.59997558594</ele>
        <time>2023-04-04T15:00:37.000Z</time>
      </trkpt>
      <trkpt lat="46.30232" lon="7.56461">
        <ele>587.59997558594</ele>
        <time>2023-04-04T15:00:38.000Z</time>
      </trkpt>
      <trkpt lat="46.30233" lon="7.56463">
        <ele>587.59997558594</ele>
        <time>2023-04-04T15:00:39.000Z</time>
      </trkpt>
      <trkpt lat="46.30242" lon="7.56479">
        <ele>587.40002441406</ele>
        <time>2023-04-04T15:00:44.000Z</time>
      </trkpt>
      <trkpt lat="46.3025" lon="7.56494">
        <ele>587.20001220703</ele>
        <time>2023-04-04T15:00:48.000Z</time>
      </trkpt>
      <trkpt lat="46.30257" lon="7.56506">
        <ele>587</ele>
        <time>2023-04-04T15:00:51.000Z</time>
      </trkpt>
      <trkpt lat="46.30259" lon="7.5651">
        <ele>587</ele>
        <time>2023-04-04T15:00:52.000Z</time>
      </trkpt>
      <trkpt lat="46.30265" lon="7.56523">
        <ele>586.79998779297</ele>
        <time>2023-04-04T15:00:55.000Z</time>
      </trkpt>
      <trkpt lat="46.30278" lon="7.56551">
        <ele>586.79998779297</ele>
        <time>2023-04-04T15:01:02.000Z</time>
      </trkpt>
      <trkpt lat="46.30282" lon="7.56557">
        <ele>586.79998779297</ele>
        <time>2023-04-04T15:01:04.000Z</time>
      </trkpt>
      <trkpt lat="46.30285" lon="7.56564">
        <ele>586.79998779297</ele>
        <time>2023-04-04T15:01:06.000Z</time>
      </trkpt>
      <trkpt lat="46.30287" lon="7.56567">
        <ele>586.79998779297</ele>
        <time>2023-04-04T15:01:07.000Z</time>
      </trkpt>
      <trkpt lat="46.30289" lon="7.5657">
        <ele>586.79998779297</ele>
        <time>2023-04-04T15:01:08.000Z</time>
      </trkpt>
      <trkpt lat="46.30291" lon="7.56574">
        <ele>586.79998779297</ele>
        <time>2023-04-04T15:01:09.000Z</time>
      </trkpt>
      <trkpt lat="46.30293" lon="7.56577">
        <ele>586.79998779297</ele>
        <time>2023-04-04T15:01:10.000Z</time>
      </trkpt>
      <trkpt lat="46.30295" lon="7.56579">
        <ele>586.79998779297</ele>
        <time>2023-04-04T15:01:11.000Z</time>
      </trkpt>
      <trkpt lat="46.30296" lon="7.56582">
        <ele>586.59997558594</ele>
        <time>2023-04-04T15:01:12.000Z</time>
      </trkpt>
      <trkpt lat="46.30297" lon="7.56583">
        <ele>586.59997558594</ele>
        <time>2023-04-04T15:01:13.000Z</time>
      </trkpt>
      <trkpt lat="46.30298" lon="7.56584">
        <ele>586.59997558594</ele>
        <time>2023-04-04T15:01:14.000Z</time>
      </trkpt>
      <trkpt lat="46.30298" lon="7.56584">
        <ele>586.59997558594</ele>
        <time>2023-04-04T15:01:15.000Z</time>
      </trkpt>
      <trkpt lat="46.30298" lon="7.56584">
        <ele>586.59997558594</ele>
        <time>2023-04-04T15:01:16.000Z</time>
      </trkpt>
      <trkpt lat="46.30302" lon="7.5658">
        <ele>588.40002441406</ele>
        <time>2023-04-04T15:01:32.000Z</time>
      </trkpt>
      <trkpt lat="46.30306" lon="7.56576">
        <ele>588.40002441406</ele>
        <time>2023-04-04T15:01:34.000Z</time>
      </trkpt>
      <trkpt lat="46.30309" lon="7.56577">
        <ele>588.20001220703</ele>
        <time>2023-04-04T15:01:35.000Z</time>
      </trkpt>
      <trkpt lat="46.30311" lon="7.56579">
        <ele>588.20001220703</ele>
        <time>2023-04-04T15:01:36.000Z</time>
      </trkpt>
      <trkpt lat="46.30314" lon="7.56582">
        <ele>588.20001220703</ele>
        <time>2023-04-04T15:01:37.000Z</time>
      </trkpt>
      <trkpt lat="46.30316" lon="7.56584">
        <ele>588.20001220703</ele>
        <time>2023-04-04T15:01:38.000Z</time>
      </trkpt>
      <trkpt lat="46.30319" lon="7.56587">
        <ele>588.20001220703</ele>
        <time>2023-04-04T15:01:39.000Z</time>
      </trkpt>
      <trkpt lat="46.3033" lon="7.566">
        <ele>587.79998779297</ele>
        <time>2023-04-04T15:01:43.000Z</time>
      </trkpt>
      <trkpt lat="46.30339" lon="7.5661">
        <ele>587.40002441406</ele>
        <time>2023-04-04T15:01:46.000Z</time>
      </trkpt>
      <trkpt lat="46.30358" lon="7.56629">
        <ele>587.20001220703</ele>
        <time>2023-04-04T15:01:52.000Z</time>
      </trkpt>
      <trkpt lat="46.30386" lon="7.56648">
        <ele>587.59997558594</ele>
        <time>2023-04-04T15:02:00.000Z</time>
      </trkpt>
      <trkpt lat="46.30421" lon="7.56667">
        <ele>588.20001220703</ele>
        <time>2023-04-04T15:02:09.000Z</time>
      </trkpt>
      <trkpt lat="46.30433" lon="7.56672">
        <ele>588.40002441406</ele>
        <time>2023-04-04T15:02:12.000Z</time>
      </trkpt>
      <trkpt lat="46.30445" lon="7.56677">
        <ele>588.40002441406</ele>
        <time>2023-04-04T15:02:15.000Z</time>
      </trkpt>
      <trkpt lat="46.30456" lon="7.56681">
        <ele>588.59997558594</ele>
        <time>2023-04-04T15:02:18.000Z</time>
      </trkpt>
      <trkpt lat="46.30459" lon="7.56682">
        <ele>588.59997558594</ele>
        <time>2023-04-04T15:02:19.000Z</time>
      </trkpt>
      <trkpt lat="46.30463" lon="7.56684">
        <ele>588.59997558594</ele>
        <time>2023-04-04T15:02:20.000Z</time>
      </trkpt>
      <trkpt lat="46.30467" lon="7.56685">
        <ele>588.59997558594</ele>
        <time>2023-04-04T15:02:21.000Z</time>
      </trkpt>
      <trkpt lat="46.3047" lon="7.56687">
        <ele>588.59997558594</ele>
        <time>2023-04-04T15:02:22.000Z</time>
      </trkpt>
      <trkpt lat="46.30474" lon="7.56688">
        <ele>588.79998779297</ele>
        <time>2023-04-04T15:02:23.000Z</time>
      </trkpt>
      <trkpt lat="46.30477" lon="7.56689">
        <ele>588.79998779297</ele>
        <time>2023-04-04T15:02:24.000Z</time>
      </trkpt>
      <trkpt lat="46.30481" lon="7.56689">
        <ele>588.79998779297</ele>
        <time>2023-04-04T15:02:25.000Z</time>
      </trkpt>
      <trkpt lat="46.30484" lon="7.56689">
        <ele>589</ele>
        <time>2023-04-04T15:02:26.000Z</time>
      </trkpt>
      <trkpt lat="46.30488" lon="7.56688">
        <ele>589</ele>
        <time>2023-04-04T15:02:27.000Z</time>
      </trkpt>
      <trkpt lat="46.30491" lon="7.56687">
        <ele>589</ele>
        <time>2023-04-04T15:02:28.000Z</time>
      </trkpt>
      <trkpt lat="46.30494" lon="7.56686">
        <ele>589</ele>
        <time>2023-04-04T15:02:29.000Z</time>
      </trkpt>
      <trkpt lat="46.30497" lon="7.56685">
        <ele>589.20001220703</ele>
        <time>2023-04-04T15:02:30.000Z</time>
      </trkpt>
      <trkpt lat="46.305" lon="7.56684">
        <ele>589.20001220703</ele>
        <time>2023-04-04T15:02:31.000Z</time>
      </trkpt>
      <trkpt lat="46.30504" lon="7.56684">
        <ele>589.20001220703</ele>
        <time>2023-04-04T15:02:32.000Z</time>
      </trkpt>
      <trkpt lat="46.30507" lon="7.56684">
        <ele>589.20001220703</ele>
        <time>2023-04-04T15:02:33.000Z</time>
      </trkpt>
      <trkpt lat="46.3051" lon="7.56685">
        <ele>589.40002441406</ele>
        <time>2023-04-04T15:02:34.000Z</time>
      </trkpt>
      <trkpt lat="46.30512" lon="7.56685">
        <ele>589.40002441406</ele>
        <time>2023-04-04T15:02:35.000Z</time>
      </trkpt>
      <trkpt lat="46.30515" lon="7.56685">
        <ele>589.40002441406</ele>
        <time>2023-04-04T15:02:36.000Z</time>
      </trkpt>
      <trkpt lat="46.30517" lon="7.56685">
        <ele>589.59997558594</ele>
        <time>2023-04-04T15:02:37.000Z</time>
      </trkpt>
      <trkpt lat="46.3052" lon="7.56684">
        <ele>589.59997558594</ele>
        <time>2023-04-04T15:02:38.000Z</time>
      </trkpt>
      <trkpt lat="46.30522" lon="7.56683">
        <ele>589.79998779297</ele>
        <time>2023-04-04T15:02:39.000Z</time>
      </trkpt>
      <trkpt lat="46.30525" lon="7.56682">
        <ele>589.79998779297</ele>
        <time>2023-04-04T15:02:40.000Z</time>
      </trkpt>
      <trkpt lat="46.30528" lon="7.56682">
        <ele>589.79998779297</ele>
        <time>2023-04-04T15:02:41.000Z</time>
      </trkpt>
      <trkpt lat="46.30554" lon="7.56676">
        <ele>590.20001220703</ele>
        <time>2023-04-04T15:02:49.000Z</time>
      </trkpt>
      <trkpt lat="46.30573" lon="7.56671">
        <ele>590.40002441406</ele>
        <time>2023-04-04T15:02:55.000Z</time>
      </trkpt>
      <trkpt lat="46.30576" lon="7.5667">
        <ele>590.40002441406</ele>
        <time>2023-04-04T15:02:56.000Z</time>
      </trkpt>
      <trkpt lat="46.30579" lon="7.5667">
        <ele>590.40002441406</ele>
        <time>2023-04-04T15:02:57.000Z</time>
      </trkpt>
      <trkpt lat="46.30582" lon="7.5667">
        <ele>590.59997558594</ele>
        <time>2023-04-04T15:02:58.000Z</time>
      </trkpt>
      <trkpt lat="46.30584" lon="7.56669">
        <ele>590.59997558594</ele>
        <time>2023-04-04T15:02:59.000Z</time>
      </trkpt>
      <trkpt lat="46.30587" lon="7.56669">
        <ele>590.59997558594</ele>
        <time>2023-04-04T15:03:00.000Z</time>
      </trkpt>
      <trkpt lat="46.3059" lon="7.56668">
        <ele>590.79998779297</ele>
        <time>2023-04-04T15:03:01.000Z</time>
      </trkpt>
      <trkpt lat="46.30593" lon="7.56667">
        <ele>590.79998779297</ele>
        <time>2023-04-04T15:03:02.000Z</time>
      </trkpt>
      <trkpt lat="46.30595" lon="7.56667">
        <ele>591</ele>
        <time>2023-04-04T15:03:03.000Z</time>
      </trkpt>
      <trkpt lat="46.30598" lon="7.56666">
        <ele>591</ele>
        <time>2023-04-04T15:03:04.000Z</time>
      </trkpt>
      <trkpt lat="46.306" lon="7.56666">
        <ele>591.20001220703</ele>
        <time>2023-04-04T15:03:05.000Z</time>
      </trkpt>
      <trkpt lat="46.30603" lon="7.56666">
        <ele>591.20001220703</ele>
        <time>2023-04-04T15:03:06.000Z</time>
      </trkpt>
      <trkpt lat="46.30605" lon="7.56665">
        <ele>591.40002441406</ele>
        <time>2023-04-04T15:03:07.000Z</time>
      </trkpt>
      <trkpt lat="46.30608" lon="7.56665">
        <ele>591.40002441406</ele>
        <time>2023-04-04T15:03:08.000Z</time>
      </trkpt>
      <trkpt lat="46.3061" lon="7.56664">
        <ele>591.40002441406</ele>
        <time>2023-04-04T15:03:09.000Z</time>
      </trkpt>
      <trkpt lat="46.30612" lon="7.56663">
        <ele>591.59997558594</ele>
        <time>2023-04-04T15:03:10.000Z</time>
      </trkpt>
      <trkpt lat="46.30615" lon="7.56662">
        <ele>591.59997558594</ele>
        <time>2023-04-04T15:03:11.000Z</time>
      </trkpt>
      <trkpt lat="46.30617" lon="7.56662">
        <ele>591.59997558594</ele>
        <time>2023-04-04T15:03:12.000Z</time>
      </trkpt>
      <trkpt lat="46.30619" lon="7.56661">
        <ele>591.59997558594</ele>
        <time>2023-04-04T15:03:13.000Z</time>
      </trkpt>
      <trkpt lat="46.30621" lon="7.56661">
        <ele>592</ele>
        <time>2023-04-04T15:03:14.000Z</time>
      </trkpt>
      <trkpt lat="46.30624" lon="7.56661">
        <ele>592.20001220703</ele>
        <time>2023-04-04T15:03:15.000Z</time>
      </trkpt>
      <trkpt lat="46.30625" lon="7.56661">
        <ele>592.20001220703</ele>
        <time>2023-04-04T15:03:16.000Z</time>
      </trkpt>
      <trkpt lat="46.30627" lon="7.5666">
        <ele>592.40002441406</ele>
        <time>2023-04-04T15:03:17.000Z</time>
      </trkpt>
      <trkpt lat="46.30629" lon="7.56659">
        <ele>592.59997558594</ele>
        <time>2023-04-04T15:03:18.000Z</time>
      </trkpt>
      <trkpt lat="46.30631" lon="7.56658">
        <ele>592.59997558594</ele>
        <time>2023-04-04T15:03:19.000Z</time>
      </trkpt>
      <trkpt lat="46.30633" lon="7.56658">
        <ele>592.79998779297</ele>
        <time>2023-04-04T15:03:20.000Z</time>
      </trkpt>
      <trkpt lat="46.30637" lon="7.56657">
        <ele>593</ele>
        <time>2023-04-04T15:03:22.000Z</time>
      </trkpt>
      <trkpt lat="46.3064" lon="7.56657">
        <ele>593.20001220703</ele>
        <time>2023-04-04T15:03:23.000Z</time>
      </trkpt>
      <trkpt lat="46.30644" lon="7.56655">
        <ele>593.59997558594</ele>
        <time>2023-04-04T15:03:25.000Z</time>
      </trkpt>
      <trkpt lat="46.30646" lon="7.56655">
        <ele>593.79998779297</ele>
        <time>2023-04-04T15:03:26.000Z</time>
      </trkpt>
      <trkpt lat="46.30649" lon="7.56654">
        <ele>593.79998779297</ele>
        <time>2023-04-04T15:03:27.000Z</time>
      </trkpt>
      <trkpt lat="46.30651" lon="7.56654">
        <ele>594.20001220703</ele>
        <time>2023-04-04T15:03:28.000Z</time>
      </trkpt>
      <trkpt lat="46.30653" lon="7.56654">
        <ele>594.40002441406</ele>
        <time>2023-04-04T15:03:29.000Z</time>
      </trkpt>
      <trkpt lat="46.30655" lon="7.56654">
        <ele>594.59997558594</ele>
        <time>2023-04-04T15:03:30.000Z</time>
      </trkpt>
      <trkpt lat="46.30658" lon="7.56653">
        <ele>594.79998779297</ele>
        <time>2023-04-04T15:03:31.000Z</time>
      </trkpt>
      <trkpt lat="46.3066" lon="7.56653">
        <ele>594.79998779297</ele>
        <time>2023-04-04T15:03:32.000Z</time>
      </trkpt>
      <trkpt lat="46.30662" lon="7.56652">
        <ele>595</ele>
        <time>2023-04-04T15:03:33.000Z</time>
      </trkpt>
      <trkpt lat="46.30663" lon="7.56652">
        <ele>595.40002441406</ele>
        <time>2023-04-04T15:03:34.000Z</time>
      </trkpt>
      <trkpt lat="46.30663" lon="7.56652">
        <ele>595.79998779297</ele>
        <time>2023-04-04T15:03:36.000Z</time>
      </trkpt>
      <trkpt lat="46.30668" lon="7.5665">
        <ele>596.79998779297</ele>
        <time>2023-04-04T15:05:04.000Z</time>
      </trkpt>
      <trkpt lat="46.30673" lon="7.56648">
        <ele>597</ele>
        <time>2023-04-04T15:05:07.000Z</time>
      </trkpt>
      <trkpt lat="46.30675" lon="7.56648">
        <ele>597.20001220703</ele>
        <time>2023-04-04T15:05:08.000Z</time>
      </trkpt>
      <trkpt lat="46.30677" lon="7.56648">
        <ele>597.40002441406</ele>
        <time>2023-04-04T15:05:09.000Z</time>
      </trkpt>
      <trkpt lat="46.30678" lon="7.56648">
        <ele>597.40002441406</ele>
        <time>2023-04-04T15:05:10.000Z</time>
      </trkpt>
      <trkpt lat="46.3068" lon="7.56648">
        <ele>597.40002441406</ele>
        <time>2023-04-04T15:05:11.000Z</time>
      </trkpt>
      <trkpt lat="46.30681" lon="7.56649">
        <ele>597.59997558594</ele>
        <time>2023-04-04T15:05:12.000Z</time>
      </trkpt>
      <trkpt lat="46.30682" lon="7.5665">
        <ele>597.59997558594</ele>
        <time>2023-04-04T15:05:13.000Z</time>
      </trkpt>
      <trkpt lat="46.30683" lon="7.56651">
        <ele>597.59997558594</ele>
        <time>2023-04-04T15:05:14.000Z</time>
      </trkpt>
      <trkpt lat="46.30685" lon="7.56652">
        <ele>597.79998779297</ele>
        <time>2023-04-04T15:05:15.000Z</time>
      </trkpt>
      <trkpt lat="46.30695" lon="7.56654">
        <ele>597.79998779297</ele>
        <time>2023-04-04T15:05:20.000Z</time>
      </trkpt>
      <trkpt lat="46.30701" lon="7.56653">
        <ele>598</ele>
        <time>2023-04-04T15:05:23.000Z</time>
      </trkpt>
      <trkpt lat="46.30714" lon="7.56651">
        <ele>599</ele>
        <time>2023-04-04T15:05:29.000Z</time>
      </trkpt>
      <trkpt lat="46.30716" lon="7.5665">
        <ele>599</ele>
        <time>2023-04-04T15:05:30.000Z</time>
      </trkpt>
      <trkpt lat="46.30718" lon="7.5665">
        <ele>599</ele>
        <time>2023-04-04T15:05:31.000Z</time>
      </trkpt>
      <trkpt lat="46.30726" lon="7.56649">
        <ele>599.59997558594</ele>
        <time>2023-04-04T15:05:35.000Z</time>
      </trkpt>
      <trkpt lat="46.30734" lon="7.56648">
        <ele>600</ele>
        <time>2023-04-04T15:05:39.000Z</time>
      </trkpt>
      <trkpt lat="46.30736" lon="7.56648">
        <ele>600.20001220703</ele>
        <time>2023-04-04T15:05:40.000Z</time>
      </trkpt>
      <trkpt lat="46.30738" lon="7.56648">
        <ele>600.40002441406</ele>
        <time>2023-04-04T15:05:41.000Z</time>
      </trkpt>
      <trkpt lat="46.3074" lon="7.56648">
        <ele>600.40002441406</ele>
        <time>2023-04-04T15:05:42.000Z</time>
      </trkpt>
      <trkpt lat="46.30746" lon="7.56648">
        <ele>600.79998779297</ele>
        <time>2023-04-04T15:05:45.000Z</time>
      </trkpt>
      <trkpt lat="46.30748" lon="7.56648">
        <ele>601</ele>
        <time>2023-04-04T15:05:46.000Z</time>
      </trkpt>
      <trkpt lat="46.3075" lon="7.56648">
        <ele>601</ele>
        <time>2023-04-04T15:05:47.000Z</time>
      </trkpt>
      <trkpt lat="46.30752" lon="7.56648">
        <ele>601.20001220703</ele>
        <time>2023-04-04T15:05:48.000Z</time>
      </trkpt>
      <trkpt lat="46.30754" lon="7.56649">
        <ele>601.40002441406</ele>
        <time>2023-04-04T15:05:49.000Z</time>
      </trkpt>
      <trkpt lat="46.30756" lon="7.56649">
        <ele>601.59997558594</ele>
        <time>2023-04-04T15:05:50.000Z</time>
      </trkpt>
      <trkpt lat="46.30758" lon="7.56649">
        <ele>601.79998779297</ele>
        <time>2023-04-04T15:05:51.000Z</time>
      </trkpt>
      <trkpt lat="46.3076" lon="7.56649">
        <ele>601.79998779297</ele>
        <time>2023-04-04T15:05:52.000Z</time>
      </trkpt>
      <trkpt lat="46.30762" lon="7.5665">
        <ele>602</ele>
        <time>2023-04-04T15:05:53.000Z</time>
      </trkpt>
      <trkpt lat="46.30764" lon="7.5665">
        <ele>602</ele>
        <time>2023-04-04T15:05:54.000Z</time>
      </trkpt>
      <trkpt lat="46.30766" lon="7.56651">
        <ele>602.20001220703</ele>
        <time>2023-04-04T15:05:55.000Z</time>
      </trkpt>
      <trkpt lat="46.30768" lon="7.56651">
        <ele>602.20001220703</ele>
        <time>2023-04-04T15:05:56.000Z</time>
      </trkpt>
      <trkpt lat="46.3077" lon="7.56652">
        <ele>602.40002441406</ele>
        <time>2023-04-04T15:05:57.000Z</time>
      </trkpt>
      <trkpt lat="46.30772" lon="7.56652">
        <ele>602.40002441406</ele>
        <time>2023-04-04T15:05:58.000Z</time>
      </trkpt>
      <trkpt lat="46.30774" lon="7.56652">
        <ele>602.59997558594</ele>
        <time>2023-04-04T15:05:59.000Z</time>
      </trkpt>
      <trkpt lat="46.30775" lon="7.56653">
        <ele>602.79998779297</ele>
        <time>2023-04-04T15:06:00.000Z</time>
      </trkpt>
      <trkpt lat="46.30777" lon="7.56653">
        <ele>602.79998779297</ele>
        <time>2023-04-04T15:06:01.000Z</time>
      </trkpt>
      <trkpt lat="46.30779" lon="7.56654">
        <ele>603</ele>
        <time>2023-04-04T15:06:02.000Z</time>
      </trkpt>
      <trkpt lat="46.30781" lon="7.56654">
        <ele>603.20001220703</ele>
        <time>2023-04-04T15:06:03.000Z</time>
      </trkpt>
      <trkpt lat="46.30783" lon="7.56655">
        <ele>603.20001220703</ele>
        <time>2023-04-04T15:06:04.000Z</time>
      </trkpt>
      <trkpt lat="46.30786" lon="7.56656">
        <ele>603.40002441406</ele>
        <time>2023-04-04T15:06:05.000Z</time>
      </trkpt>
      <trkpt lat="46.30788" lon="7.56656">
        <ele>603.59997558594</ele>
        <time>2023-04-04T15:06:06.000Z</time>
      </trkpt>
      <trkpt lat="46.3079" lon="7.56657">
        <ele>603.59997558594</ele>
        <time>2023-04-04T15:06:07.000Z</time>
      </trkpt>
      <trkpt lat="46.30792" lon="7.56658">
        <ele>603.79998779297</ele>
        <time>2023-04-04T15:06:08.000Z</time>
      </trkpt>
      <trkpt lat="46.30794" lon="7.56658">
        <ele>604</ele>
        <time>2023-04-04T15:06:09.000Z</time>
      </trkpt>
      <trkpt lat="46.30796" lon="7.56659">
        <ele>604.20001220703</ele>
        <time>2023-04-04T15:06:10.000Z</time>
      </trkpt>
      <trkpt lat="46.30798" lon="7.5666">
        <ele>604.40002441406</ele>
        <time>2023-04-04T15:06:11.000Z</time>
      </trkpt>
      <trkpt lat="46.308" lon="7.5666">
        <ele>604.40002441406</ele>
        <time>2023-04-04T15:06:12.000Z</time>
      </trkpt>
      <trkpt lat="46.30802" lon="7.56661">
        <ele>604.40002441406</ele>
        <time>2023-04-04T15:06:13.000Z</time>
      </trkpt>
      <trkpt lat="46.30804" lon="7.56662">
        <ele>604.59997558594</ele>
        <time>2023-04-04T15:06:14.000Z</time>
      </trkpt>
      <trkpt lat="46.30806" lon="7.56663">
        <ele>604.79998779297</ele>
        <time>2023-04-04T15:06:15.000Z</time>
      </trkpt>
      <trkpt lat="46.30808" lon="7.56663">
        <ele>605</ele>
        <time>2023-04-04T15:06:16.000Z</time>
      </trkpt>
      <trkpt lat="46.3081" lon="7.56664">
        <ele>605.20001220703</ele>
        <time>2023-04-04T15:06:17.000Z</time>
      </trkpt>
      <trkpt lat="46.30812" lon="7.56664">
        <ele>605.20001220703</ele>
        <time>2023-04-04T15:06:18.000Z</time>
      </trkpt>
      <trkpt lat="46.30814" lon="7.56664">
        <ele>605.40002441406</ele>
        <time>2023-04-04T15:06:19.000Z</time>
      </trkpt>
      <trkpt lat="46.30816" lon="7.56665">
        <ele>605.40002441406</ele>
        <time>2023-04-04T15:06:20.000Z</time>
      </trkpt>
      <trkpt lat="46.30818" lon="7.56665">
        <ele>605.59997558594</ele>
        <time>2023-04-04T15:06:21.000Z</time>
      </trkpt>
      <trkpt lat="46.3082" lon="7.56666">
        <ele>605.79998779297</ele>
        <time>2023-04-04T15:06:22.000Z</time>
      </trkpt>
      <trkpt lat="46.30822" lon="7.56666">
        <ele>605.79998779297</ele>
        <time>2023-04-04T15:06:23.000Z</time>
      </trkpt>
      <trkpt lat="46.30824" lon="7.56666">
        <ele>606.20001220703</ele>
        <time>2023-04-04T15:06:24.000Z</time>
      </trkpt>
      <trkpt lat="46.30826" lon="7.56666">
        <ele>606.20001220703</ele>
        <time>2023-04-04T15:06:25.000Z</time>
      </trkpt>
      <trkpt lat="46.30827" lon="7.56666">
        <ele>606.40002441406</ele>
        <time>2023-04-04T15:06:26.000Z</time>
      </trkpt>
      <trkpt lat="46.30829" lon="7.56667">
        <ele>606.59997558594</ele>
        <time>2023-04-04T15:06:27.000Z</time>
      </trkpt>
      <trkpt lat="46.30831" lon="7.56667">
        <ele>606.79998779297</ele>
        <time>2023-04-04T15:06:28.000Z</time>
      </trkpt>
      <trkpt lat="46.30832" lon="7.56668">
        <ele>607</ele>
        <time>2023-04-04T15:06:29.000Z</time>
      </trkpt>
      <trkpt lat="46.30833" lon="7.5667">
        <ele>607.20001220703</ele>
        <time>2023-04-04T15:06:30.000Z</time>
      </trkpt>
      <trkpt lat="46.30835" lon="7.56672">
        <ele>607.40002441406</ele>
        <time>2023-04-04T15:06:31.000Z</time>
      </trkpt>
      <trkpt lat="46.30837" lon="7.56673">
        <ele>607.40002441406</ele>
        <time>2023-04-04T15:06:32.000Z</time>
      </trkpt>
      <trkpt lat="46.30838" lon="7.56674">
        <ele>607.59997558594</ele>
        <time>2023-04-04T15:06:33.000Z</time>
      </trkpt>
      <trkpt lat="46.30839" lon="7.56675">
        <ele>607.59997558594</ele>
        <time>2023-04-04T15:06:34.000Z</time>
      </trkpt>
      <trkpt lat="46.30839" lon="7.56675">
        <ele>607.79998779297</ele>
        <time>2023-04-04T15:06:35.000Z</time>
      </trkpt>
      <trkpt lat="46.3084" lon="7.56675">
        <ele>608</ele>
        <time>2023-04-04T15:06:36.000Z</time>
      </trkpt>
      <trkpt lat="46.30841" lon="7.56675">
        <ele>608.20001220703</ele>
        <time>2023-04-04T15:06:37.000Z</time>
      </trkpt>
      <trkpt lat="46.30844" lon="7.56675">
        <ele>608.20001220703</ele>
        <time>2023-04-04T15:06:38.000Z</time>
      </trkpt>
      <trkpt lat="46.30847" lon="7.56676">
        <ele>608.40002441406</ele>
        <time>2023-04-04T15:06:39.000Z</time>
      </trkpt>
      <trkpt lat="46.30849" lon="7.56677">
        <ele>608.40002441406</ele>
        <time>2023-04-04T15:06:40.000Z</time>
      </trkpt>
      <trkpt lat="46.30852" lon="7.56678">
        <ele>608.40002441406</ele>
        <time>2023-04-04T15:06:41.000Z</time>
      </trkpt>
      <trkpt lat="46.30854" lon="7.56679">
        <ele>608.59997558594</ele>
        <time>2023-04-04T15:06:42.000Z</time>
      </trkpt>
      <trkpt lat="46.30857" lon="7.56679">
        <ele>608.59997558594</ele>
        <time>2023-04-04T15:06:43.000Z</time>
      </trkpt>
      <trkpt lat="46.30859" lon="7.5668">
        <ele>608.79998779297</ele>
        <time>2023-04-04T15:06:44.000Z</time>
      </trkpt>
      <trkpt lat="46.30862" lon="7.56681">
        <ele>609</ele>
        <time>2023-04-04T15:06:45.000Z</time>
      </trkpt>
      <trkpt lat="46.30864" lon="7.56682">
        <ele>609</ele>
        <time>2023-04-04T15:06:46.000Z</time>
      </trkpt>
      <trkpt lat="46.30867" lon="7.56683">
        <ele>609.20001220703</ele>
        <time>2023-04-04T15:06:47.000Z</time>
      </trkpt>
      <trkpt lat="46.30869" lon="7.56684">
        <ele>609.40002441406</ele>
        <time>2023-04-04T15:06:48.000Z</time>
      </trkpt>
      <trkpt lat="46.30871" lon="7.56685">
        <ele>609.40002441406</ele>
        <time>2023-04-04T15:06:49.000Z</time>
      </trkpt>
      <trkpt lat="46.30873" lon="7.56686">
        <ele>609.79998779297</ele>
        <time>2023-04-04T15:06:50.000Z</time>
      </trkpt>
      <trkpt lat="46.30876" lon="7.56688">
        <ele>609.79998779297</ele>
        <time>2023-04-04T15:06:51.000Z</time>
      </trkpt>
      <trkpt lat="46.30878" lon="7.56689">
        <ele>610</ele>
        <time>2023-04-04T15:06:52.000Z</time>
      </trkpt>
      <trkpt lat="46.3088" lon="7.56691">
        <ele>610.20001220703</ele>
        <time>2023-04-04T15:06:53.000Z</time>
      </trkpt>
      <trkpt lat="46.30882" lon="7.56692">
        <ele>610.20001220703</ele>
        <time>2023-04-04T15:06:54.000Z</time>
      </trkpt>
      <trkpt lat="46.30883" lon="7.56693">
        <ele>610.40002441406</ele>
        <time>2023-04-04T15:06:55.000Z</time>
      </trkpt>
      <trkpt lat="46.30885" lon="7.56694">
        <ele>610.40002441406</ele>
        <time>2023-04-04T15:06:56.000Z</time>
      </trkpt>
      <trkpt lat="46.30886" lon="7.56696">
        <ele>610.40002441406</ele>
        <time>2023-04-04T15:06:57.000Z</time>
      </trkpt>
      <trkpt lat="46.30888" lon="7.56698">
        <ele>610.59997558594</ele>
        <time>2023-04-04T15:06:58.000Z</time>
      </trkpt>
      <trkpt lat="46.3089" lon="7.567">
        <ele>610.59997558594</ele>
        <time>2023-04-04T15:06:59.000Z</time>
      </trkpt>
      <trkpt lat="46.30891" lon="7.56702">
        <ele>610.59997558594</ele>
        <time>2023-04-04T15:07:00.000Z</time>
      </trkpt>
      <trkpt lat="46.30893" lon="7.56705">
        <ele>610.59997558594</ele>
        <time>2023-04-04T15:07:01.000Z</time>
      </trkpt>
      <trkpt lat="46.30895" lon="7.56707">
        <ele>610.59997558594</ele>
        <time>2023-04-04T15:07:02.000Z</time>
      </trkpt>
      <trkpt lat="46.30896" lon="7.56709">
        <ele>610.79998779297</ele>
        <time>2023-04-04T15:07:03.000Z</time>
      </trkpt>
      <trkpt lat="46.30897" lon="7.56711">
        <ele>610.79998779297</ele>
        <time>2023-04-04T15:07:04.000Z</time>
      </trkpt>
      <trkpt lat="46.30899" lon="7.56714">
        <ele>611</ele>
        <time>2023-04-04T15:07:05.000Z</time>
      </trkpt>
      <trkpt lat="46.309" lon="7.56717">
        <ele>611</ele>
        <time>2023-04-04T15:07:06.000Z</time>
      </trkpt>
      <trkpt lat="46.30901" lon="7.56719">
        <ele>611.20001220703</ele>
        <time>2023-04-04T15:07:07.000Z</time>
      </trkpt>
      <trkpt lat="46.30902" lon="7.56722">
        <ele>611.40002441406</ele>
        <time>2023-04-04T15:07:08.000Z</time>
      </trkpt>
      <trkpt lat="46.30903" lon="7.56725">
        <ele>611.59997558594</ele>
        <time>2023-04-04T15:07:09.000Z</time>
      </trkpt>
      <trkpt lat="46.30904" lon="7.56727">
        <ele>611.59997558594</ele>
        <time>2023-04-04T15:07:10.000Z</time>
      </trkpt>
      <trkpt lat="46.30904" lon="7.5673">
        <ele>611.79998779297</ele>
        <time>2023-04-04T15:07:11.000Z</time>
      </trkpt>
      <trkpt lat="46.30905" lon="7.56733">
        <ele>611.79998779297</ele>
        <time>2023-04-04T15:07:12.000Z</time>
      </trkpt>
      <trkpt lat="46.30905" lon="7.56736">
        <ele>612</ele>
        <time>2023-04-04T15:07:13.000Z</time>
      </trkpt>
      <trkpt lat="46.30906" lon="7.5674">
        <ele>612</ele>
        <time>2023-04-04T15:07:14.000Z</time>
      </trkpt>
      <trkpt lat="46.30906" lon="7.56743">
        <ele>612.20001220703</ele>
        <time>2023-04-04T15:07:15.000Z</time>
      </trkpt>
      <trkpt lat="46.30907" lon="7.56746">
        <ele>612.40002441406</ele>
        <time>2023-04-04T15:07:16.000Z</time>
      </trkpt>
      <trkpt lat="46.30907" lon="7.56749">
        <ele>612.40002441406</ele>
        <time>2023-04-04T15:07:17.000Z</time>
      </trkpt>
      <trkpt lat="46.30907" lon="7.56752">
        <ele>612.40002441406</ele>
        <time>2023-04-04T15:07:18.000Z</time>
      </trkpt>
      <trkpt lat="46.30907" lon="7.56755">
        <ele>612.59997558594</ele>
        <time>2023-04-04T15:07:19.000Z</time>
      </trkpt>
      <trkpt lat="46.30907" lon="7.56758">
        <ele>612.79998779297</ele>
        <time>2023-04-04T15:07:20.000Z</time>
      </trkpt>
      <trkpt lat="46.30907" lon="7.56761">
        <ele>612.79998779297</ele>
        <time>2023-04-04T15:07:21.000Z</time>
      </trkpt>
      <trkpt lat="46.30907" lon="7.56765">
        <ele>613</ele>
        <time>2023-04-04T15:07:22.000Z</time>
      </trkpt>
      <trkpt lat="46.30906" lon="7.56767">
        <ele>613</ele>
        <time>2023-04-04T15:07:23.000Z</time>
      </trkpt>
      <trkpt lat="46.30906" lon="7.5677">
        <ele>613.20001220703</ele>
        <time>2023-04-04T15:07:24.000Z</time>
      </trkpt>
      <trkpt lat="46.30906" lon="7.56774">
        <ele>613.20001220703</ele>
        <time>2023-04-04T15:07:25.000Z</time>
      </trkpt>
      <trkpt lat="46.30905" lon="7.56777">
        <ele>613.40002441406</ele>
        <time>2023-04-04T15:07:26.000Z</time>
      </trkpt>
      <trkpt lat="46.30905" lon="7.5678">
        <ele>613.59997558594</ele>
        <time>2023-04-04T15:07:27.000Z</time>
      </trkpt>
      <trkpt lat="46.30905" lon="7.56783">
        <ele>613.79998779297</ele>
        <time>2023-04-04T15:07:28.000Z</time>
      </trkpt>
      <trkpt lat="46.30905" lon="7.56785">
        <ele>613.79998779297</ele>
        <time>2023-04-04T15:07:29.000Z</time>
      </trkpt>
      <trkpt lat="46.30904" lon="7.56788">
        <ele>614</ele>
        <time>2023-04-04T15:07:30.000Z</time>
      </trkpt>
      <trkpt lat="46.30904" lon="7.56791">
        <ele>614</ele>
        <time>2023-04-04T15:07:31.000Z</time>
      </trkpt>
      <trkpt lat="46.30904" lon="7.56794">
        <ele>614.20001220703</ele>
        <time>2023-04-04T15:07:32.000Z</time>
      </trkpt>
      <trkpt lat="46.30903" lon="7.56797">
        <ele>614.20001220703</ele>
        <time>2023-04-04T15:07:33.000Z</time>
      </trkpt>
      <trkpt lat="46.30902" lon="7.568">
        <ele>614.40002441406</ele>
        <time>2023-04-04T15:07:34.000Z</time>
      </trkpt>
      <trkpt lat="46.30902" lon="7.56803">
        <ele>614.59997558594</ele>
        <time>2023-04-04T15:07:35.000Z</time>
      </trkpt>
      <trkpt lat="46.30902" lon="7.56806">
        <ele>614.59997558594</ele>
        <time>2023-04-04T15:07:36.000Z</time>
      </trkpt>
      <trkpt lat="46.30902" lon="7.56809">
        <ele>615</ele>
        <time>2023-04-04T15:07:37.000Z</time>
      </trkpt>
      <trkpt lat="46.30902" lon="7.56812">
        <ele>615</ele>
        <time>2023-04-04T15:07:38.000Z</time>
      </trkpt>
      <trkpt lat="46.30902" lon="7.56815">
        <ele>615.20001220703</ele>
        <time>2023-04-04T15:07:39.000Z</time>
      </trkpt>
      <trkpt lat="46.30902" lon="7.56818">
        <ele>615.40002441406</ele>
        <time>2023-04-04T15:07:40.000Z</time>
      </trkpt>
      <trkpt lat="46.30901" lon="7.56821">
        <ele>615.40002441406</ele>
        <time>2023-04-04T15:07:41.000Z</time>
      </trkpt>
      <trkpt lat="46.30901" lon="7.56823">
        <ele>615.40002441406</ele>
        <time>2023-04-04T15:07:42.000Z</time>
      </trkpt>
      <trkpt lat="46.30902" lon="7.56826">
        <ele>615.40002441406</ele>
        <time>2023-04-04T15:07:43.000Z</time>
      </trkpt>
      <trkpt lat="46.30902" lon="7.56829">
        <ele>615.59997558594</ele>
        <time>2023-04-04T15:07:44.000Z</time>
      </trkpt>
      <trkpt lat="46.30902" lon="7.56832">
        <ele>615.79998779297</ele>
        <time>2023-04-04T15:07:45.000Z</time>
      </trkpt>
      <trkpt lat="46.30902" lon="7.56835">
        <ele>615.79998779297</ele>
        <time>2023-04-04T15:07:46.000Z</time>
      </trkpt>
      <trkpt lat="46.30902" lon="7.56837">
        <ele>616</ele>
        <time>2023-04-04T15:07:47.000Z</time>
      </trkpt>
      <trkpt lat="46.30902" lon="7.5684">
        <ele>616.20001220703</ele>
        <time>2023-04-04T15:07:48.000Z</time>
      </trkpt>
      <trkpt lat="46.30903" lon="7.56843">
        <ele>616.40002441406</ele>
        <time>2023-04-04T15:07:49.000Z</time>
      </trkpt>
      <trkpt lat="46.30903" lon="7.56845">
        <ele>616.40002441406</ele>
        <time>2023-04-04T15:07:50.000Z</time>
      </trkpt>
      <trkpt lat="46.30904" lon="7.56848">
        <ele>616.59997558594</ele>
        <time>2023-04-04T15:07:51.000Z</time>
      </trkpt>
      <trkpt lat="46.30904" lon="7.56851">
        <ele>616.79998779297</ele>
        <time>2023-04-04T15:07:52.000Z</time>
      </trkpt>
      <trkpt lat="46.30905" lon="7.56853">
        <ele>617</ele>
        <time>2023-04-04T15:07:53.000Z</time>
      </trkpt>
      <trkpt lat="46.30905" lon="7.56856">
        <ele>617.20001220703</ele>
        <time>2023-04-04T15:07:54.000Z</time>
      </trkpt>
      <trkpt lat="46.30906" lon="7.56858">
        <ele>617.20001220703</ele>
        <time>2023-04-04T15:07:55.000Z</time>
      </trkpt>
      <trkpt lat="46.30907" lon="7.56861">
        <ele>617.40002441406</ele>
        <time>2023-04-04T15:07:56.000Z</time>
      </trkpt>
      <trkpt lat="46.30908" lon="7.56863">
        <ele>617.59997558594</ele>
        <time>2023-04-04T15:07:57.000Z</time>
      </trkpt>
      <trkpt lat="46.30909" lon="7.56865">
        <ele>617.79998779297</ele>
        <time>2023-04-04T15:07:58.000Z</time>
      </trkpt>
      <trkpt lat="46.3091" lon="7.56868">
        <ele>617.79998779297</ele>
        <time>2023-04-04T15:07:59.000Z</time>
      </trkpt>
      <trkpt lat="46.30911" lon="7.5687">
        <ele>617.79998779297</ele>
        <time>2023-04-04T15:08:00.000Z</time>
      </trkpt>
      <trkpt lat="46.30912" lon="7.56872">
        <ele>618.20001220703</ele>
        <time>2023-04-04T15:08:01.000Z</time>
      </trkpt>
      <trkpt lat="46.30913" lon="7.56875">
        <ele>618.20001220703</ele>
        <time>2023-04-04T15:08:02.000Z</time>
      </trkpt>
      <trkpt lat="46.30914" lon="7.56877">
        <ele>618.40002441406</ele>
        <time>2023-04-04T15:08:03.000Z</time>
      </trkpt>
      <trkpt lat="46.30915" lon="7.5688">
        <ele>618.59997558594</ele>
        <time>2023-04-04T15:08:04.000Z</time>
      </trkpt>
      <trkpt lat="46.30916" lon="7.56882">
        <ele>618.59997558594</ele>
        <time>2023-04-04T15:08:05.000Z</time>
      </trkpt>
      <trkpt lat="46.30917" lon="7.56884">
        <ele>618.79998779297</ele>
        <time>2023-04-04T15:08:06.000Z</time>
      </trkpt>
      <trkpt lat="46.30918" lon="7.56886">
        <ele>618.79998779297</ele>
        <time>2023-04-04T15:08:07.000Z</time>
      </trkpt>
      <trkpt lat="46.30919" lon="7.56887">
        <ele>619.20001220703</ele>
        <time>2023-04-04T15:08:08.000Z</time>
      </trkpt>
      <trkpt lat="46.3092" lon="7.56888">
        <ele>619.20001220703</ele>
        <time>2023-04-04T15:08:09.000Z</time>
      </trkpt>
      <trkpt lat="46.3092" lon="7.56888">
        <ele>619.40002441406</ele>
        <time>2023-04-04T15:08:10.000Z</time>
      </trkpt>
      <trkpt lat="46.3092" lon="7.56888">
        <ele>619.59997558594</ele>
        <time>2023-04-04T15:08:11.000Z</time>
      </trkpt>
      <trkpt lat="46.30923" lon="7.5689">
        <ele>621.40002441406</ele>
        <time>2023-04-04T15:08:54.000Z</time>
      </trkpt>
      <trkpt lat="46.30929" lon="7.56893">
        <ele>621.40002441406</ele>
        <time>2023-04-04T15:08:57.000Z</time>
      </trkpt>
      <trkpt lat="46.30932" lon="7.56894">
        <ele>621.40002441406</ele>
        <time>2023-04-04T15:08:58.000Z</time>
      </trkpt>
      <trkpt lat="46.30945" lon="7.56898">
        <ele>621.40002441406</ele>
        <time>2023-04-04T15:09:04.000Z</time>
      </trkpt>
      <trkpt lat="46.30962" lon="7.56903">
        <ele>621.59997558594</ele>
        <time>2023-04-04T15:09:12.000Z</time>
      </trkpt>
      <trkpt lat="46.30975" lon="7.56904">
        <ele>622.40002441406</ele>
        <time>2023-04-04T15:09:18.000Z</time>
      </trkpt>
      <trkpt lat="46.30979" lon="7.56905">
        <ele>623</ele>
        <time>2023-04-04T15:09:20.000Z</time>
      </trkpt>
      <trkpt lat="46.30986" lon="7.56906">
        <ele>623.20001220703</ele>
        <time>2023-04-04T15:09:23.000Z</time>
      </trkpt>
      <trkpt lat="46.31" lon="7.56909">
        <ele>623.59997558594</ele>
        <time>2023-04-04T15:09:29.000Z</time>
      </trkpt>
      <trkpt lat="46.31007" lon="7.5691">
        <ele>623.79998779297</ele>
        <time>2023-04-04T15:09:32.000Z</time>
      </trkpt>
      <trkpt lat="46.31029" lon="7.56914">
        <ele>624</ele>
        <time>2023-04-04T15:09:41.000Z</time>
      </trkpt>
      <trkpt lat="46.31052" lon="7.56918">
        <ele>624.59997558594</ele>
        <time>2023-04-04T15:09:50.000Z</time>
      </trkpt>
      <trkpt lat="46.31055" lon="7.56919">
        <ele>624.59997558594</ele>
        <time>2023-04-04T15:09:51.000Z</time>
      </trkpt>
      <trkpt lat="46.31071" lon="7.56924">
        <ele>625.59997558594</ele>
        <time>2023-04-04T15:09:58.000Z</time>
      </trkpt>
      <trkpt lat="46.31076" lon="7.56925">
        <ele>625.59997558594</ele>
        <time>2023-04-04T15:10:00.000Z</time>
      </trkpt>
      <trkpt lat="46.31078" lon="7.56926">
        <ele>625.79998779297</ele>
        <time>2023-04-04T15:10:01.000Z</time>
      </trkpt>
      <trkpt lat="46.3108" lon="7.56927">
        <ele>625.79998779297</ele>
        <time>2023-04-04T15:10:02.000Z</time>
      </trkpt>
      <trkpt lat="46.31085" lon="7.56929">
        <ele>625.79998779297</ele>
        <time>2023-04-04T15:10:04.000Z</time>
      </trkpt>
      <trkpt lat="46.31087" lon="7.5693">
        <ele>625.79998779297</ele>
        <time>2023-04-04T15:10:05.000Z</time>
      </trkpt>
      <trkpt lat="46.3109" lon="7.56931">
        <ele>626</ele>
        <time>2023-04-04T15:10:06.000Z</time>
      </trkpt>
      <trkpt lat="46.31096" lon="7.56938">
        <ele>626</ele>
        <time>2023-04-04T15:10:09.000Z</time>
      </trkpt>
      <trkpt lat="46.31102" lon="7.5694">
        <ele>626.20001220703</ele>
        <time>2023-04-04T15:10:12.000Z</time>
      </trkpt>
      <trkpt lat="46.31105" lon="7.56943">
        <ele>626.20001220703</ele>
        <time>2023-04-04T15:10:13.000Z</time>
      </trkpt>
      <trkpt lat="46.31107" lon="7.56945">
        <ele>626.20001220703</ele>
        <time>2023-04-04T15:10:14.000Z</time>
      </trkpt>
      <trkpt lat="46.31109" lon="7.56947">
        <ele>626.40002441406</ele>
        <time>2023-04-04T15:10:15.000Z</time>
      </trkpt>
      <trkpt lat="46.31118" lon="7.56955">
        <ele>626.59997558594</ele>
        <time>2023-04-04T15:10:19.000Z</time>
      </trkpt>
      <trkpt lat="46.3112" lon="7.56957">
        <ele>626.59997558594</ele>
        <time>2023-04-04T15:10:20.000Z</time>
      </trkpt>
      <trkpt lat="46.31122" lon="7.56958">
        <ele>626.79998779297</ele>
        <time>2023-04-04T15:10:21.000Z</time>
      </trkpt>
      <trkpt lat="46.31123" lon="7.56959">
        <ele>626.79998779297</ele>
        <time>2023-04-04T15:10:22.000Z</time>
      </trkpt>
      <trkpt lat="46.31125" lon="7.56959">
        <ele>627</ele>
        <time>2023-04-04T15:10:23.000Z</time>
      </trkpt>
      <trkpt lat="46.31126" lon="7.5696">
        <ele>627</ele>
        <time>2023-04-04T15:10:24.000Z</time>
      </trkpt>
      <trkpt lat="46.31128" lon="7.5696">
        <ele>627</ele>
        <time>2023-04-04T15:10:25.000Z</time>
      </trkpt>
      <trkpt lat="46.31131" lon="7.56959">
        <ele>627.20001220703</ele>
        <time>2023-04-04T15:10:26.000Z</time>
      </trkpt>
      <trkpt lat="46.31136" lon="7.5696">
        <ele>627.20001220703</ele>
        <time>2023-04-04T15:10:28.000Z</time>
      </trkpt>
      <trkpt lat="46.31138" lon="7.56959">
        <ele>627.20001220703</ele>
        <time>2023-04-04T15:10:29.000Z</time>
      </trkpt>
      <trkpt lat="46.3114" lon="7.5696">
        <ele>627.40002441406</ele>
        <time>2023-04-04T15:10:30.000Z</time>
      </trkpt>
      <trkpt lat="46.31142" lon="7.56963">
        <ele>627.40002441406</ele>
        <time>2023-04-04T15:10:31.000Z</time>
      </trkpt>
      <trkpt lat="46.31143" lon="7.56965">
        <ele>627.59997558594</ele>
        <time>2023-04-04T15:10:32.000Z</time>
      </trkpt>
      <trkpt lat="46.31144" lon="7.56967">
        <ele>627.59997558594</ele>
        <time>2023-04-04T15:10:33.000Z</time>
      </trkpt>
      <trkpt lat="46.31146" lon="7.56974">
        <ele>627.79998779297</ele>
        <time>2023-04-04T15:10:35.000Z</time>
      </trkpt>
      <trkpt lat="46.3115" lon="7.5699">
        <ele>627.79998779297</ele>
        <time>2023-04-04T15:10:39.000Z</time>
      </trkpt>
      <trkpt lat="46.31152" lon="7.56993">
        <ele>627.79998779297</ele>
        <time>2023-04-04T15:10:40.000Z</time>
      </trkpt>
      <trkpt lat="46.31153" lon="7.56997">
        <ele>627.79998779297</ele>
        <time>2023-04-04T15:10:41.000Z</time>
      </trkpt>
      <trkpt lat="46.31154" lon="7.57001">
        <ele>627.79998779297</ele>
        <time>2023-04-04T15:10:42.000Z</time>
      </trkpt>
      <trkpt lat="46.31156" lon="7.5701">
        <ele>627.79998779297</ele>
        <time>2023-04-04T15:10:44.000Z</time>
      </trkpt>
      <trkpt lat="46.31164" lon="7.57036">
        <ele>627.59997558594</ele>
        <time>2023-04-04T15:10:50.000Z</time>
      </trkpt>
      <trkpt lat="46.31167" lon="7.57042">
        <ele>627.59997558594</ele>
        <time>2023-04-04T15:10:52.000Z</time>
      </trkpt>
      <trkpt lat="46.31168" lon="7.5705">
        <ele>627.59997558594</ele>
        <time>2023-04-04T15:10:54.000Z</time>
      </trkpt>
      <trkpt lat="46.31168" lon="7.57054">
        <ele>627.59997558594</ele>
        <time>2023-04-04T15:10:55.000Z</time>
      </trkpt>
      <trkpt lat="46.31166" lon="7.57058">
        <ele>627.59997558594</ele>
        <time>2023-04-04T15:10:56.000Z</time>
      </trkpt>
      <trkpt lat="46.31165" lon="7.57062">
        <ele>627.59997558594</ele>
        <time>2023-04-04T15:10:57.000Z</time>
      </trkpt>
      <trkpt lat="46.31164" lon="7.57066">
        <ele>627.59997558594</ele>
        <time>2023-04-04T15:10:58.000Z</time>
      </trkpt>
      <trkpt lat="46.31163" lon="7.57068">
        <ele>627.59997558594</ele>
        <time>2023-04-04T15:10:59.000Z</time>
      </trkpt>
      <trkpt lat="46.31164" lon="7.57072">
        <ele>627.59997558594</ele>
        <time>2023-04-04T15:11:00.000Z</time>
      </trkpt>
      <trkpt lat="46.31164" lon="7.57076">
        <ele>627.59997558594</ele>
        <time>2023-04-04T15:11:01.000Z</time>
      </trkpt>
      <trkpt lat="46.31164" lon="7.57079">
        <ele>627.59997558594</ele>
        <time>2023-04-04T15:11:02.000Z</time>
      </trkpt>
      <trkpt lat="46.31163" lon="7.57086">
        <ele>627.59997558594</ele>
        <time>2023-04-04T15:11:04.000Z</time>
      </trkpt>
      <trkpt lat="46.31162" lon="7.57089">
        <ele>627.59997558594</ele>
        <time>2023-04-04T15:11:05.000Z</time>
      </trkpt>
      <trkpt lat="46.31161" lon="7.57093">
        <ele>627.59997558594</ele>
        <time>2023-04-04T15:11:06.000Z</time>
      </trkpt>
      <trkpt lat="46.3116" lon="7.57097">
        <ele>627.59997558594</ele>
        <time>2023-04-04T15:11:07.000Z</time>
      </trkpt>
      <trkpt lat="46.31151" lon="7.57122">
        <ele>627.59997558594</ele>
        <time>2023-04-04T15:11:13.000Z</time>
      </trkpt>
      <trkpt lat="46.31148" lon="7.57131">
        <ele>627.59997558594</ele>
        <time>2023-04-04T15:11:15.000Z</time>
      </trkpt>
      <trkpt lat="46.31136" lon="7.57158">
        <ele>627.20001220703</ele>
        <time>2023-04-04T15:11:22.000Z</time>
      </trkpt>
      <trkpt lat="46.31133" lon="7.57159">
        <ele>627</ele>
        <time>2023-04-04T15:11:23.000Z</time>
      </trkpt>
      <trkpt lat="46.3113" lon="7.5716">
        <ele>626.79998779297</ele>
        <time>2023-04-04T15:11:24.000Z</time>
      </trkpt>
      <trkpt lat="46.31126" lon="7.5716">
        <ele>626.79998779297</ele>
        <time>2023-04-04T15:11:25.000Z</time>
      </trkpt>
      <trkpt lat="46.31123" lon="7.5716">
        <ele>626.79998779297</ele>
        <time>2023-04-04T15:11:26.000Z</time>
      </trkpt>
      <trkpt lat="46.3112" lon="7.57161">
        <ele>626.79998779297</ele>
        <time>2023-04-04T15:11:27.000Z</time>
      </trkpt>
      <trkpt lat="46.31118" lon="7.57163">
        <ele>627</ele>
        <time>2023-04-04T15:11:28.000Z</time>
      </trkpt>
      <trkpt lat="46.31116" lon="7.57165">
        <ele>627</ele>
        <time>2023-04-04T15:11:29.000Z</time>
      </trkpt>
      <trkpt lat="46.31114" lon="7.57167">
        <ele>626.79998779297</ele>
        <time>2023-04-04T15:11:30.000Z</time>
      </trkpt>
      <trkpt lat="46.31112" lon="7.5717">
        <ele>626.79998779297</ele>
        <time>2023-04-04T15:11:31.000Z</time>
      </trkpt>
      <trkpt lat="46.3111" lon="7.57174">
        <ele>627</ele>
        <time>2023-04-04T15:11:32.000Z</time>
      </trkpt>
      <trkpt lat="46.31102" lon="7.57189">
        <ele>626.79998779297</ele>
        <time>2023-04-04T15:11:37.000Z</time>
      </trkpt>
      <trkpt lat="46.31102" lon="7.5719">
        <ele>626.79998779297</ele>
        <time>2023-04-04T15:11:38.000Z</time>
      </trkpt>
      <trkpt lat="46.31102" lon="7.5719">
        <ele>626.59997558594</ele>
        <time>2023-04-04T15:11:39.000Z</time>
      </trkpt>
      <trkpt lat="46.31102" lon="7.5719">
        <ele>626.59997558594</ele>
        <time>2023-04-04T15:11:40.000Z</time>
      </trkpt>
      <trkpt lat="46.31099" lon="7.57196">
        <ele>626.20001220703</ele>
        <time>2023-04-04T15:11:45.000Z</time>
      </trkpt>
      <trkpt lat="46.31097" lon="7.57199">
        <ele>626</ele>
        <time>2023-04-04T15:11:46.000Z</time>
      </trkpt>
      <trkpt lat="46.31081" lon="7.57223">
        <ele>625.79998779297</ele>
        <time>2023-04-04T15:11:52.000Z</time>
      </trkpt>
      <trkpt lat="46.31073" lon="7.5723">
        <ele>625.40002441406</ele>
        <time>2023-04-04T15:11:54.000Z</time>
      </trkpt>
      <trkpt lat="46.31055" lon="7.57242">
        <ele>624.79998779297</ele>
        <time>2023-04-04T15:11:58.000Z</time>
      </trkpt>
      <trkpt lat="46.31038" lon="7.57251">
        <ele>624.40002441406</ele>
        <time>2023-04-04T15:12:02.000Z</time>
      </trkpt>
      <trkpt lat="46.31026" lon="7.57258">
        <ele>623.79998779297</ele>
        <time>2023-04-04T15:12:05.000Z</time>
      </trkpt>
      <trkpt lat="46.31018" lon="7.57264">
        <ele>623.59997558594</ele>
        <time>2023-04-04T15:12:07.000Z</time>
      </trkpt>
      <trkpt lat="46.3101" lon="7.57272">
        <ele>623.59997558594</ele>
        <time>2023-04-04T15:12:09.000Z</time>
      </trkpt>
      <trkpt lat="46.30996" lon="7.57289">
        <ele>623.40002441406</ele>
        <time>2023-04-04T15:12:13.000Z</time>
      </trkpt>
      <trkpt lat="46.30993" lon="7.57294">
        <ele>623.40002441406</ele>
        <time>2023-04-04T15:12:14.000Z</time>
      </trkpt>
      <trkpt lat="46.30982" lon="7.57317">
        <ele>623</ele>
        <time>2023-04-04T15:12:18.000Z</time>
      </trkpt>
      <trkpt lat="46.30969" lon="7.57347">
        <ele>622.59997558594</ele>
        <time>2023-04-04T15:12:23.000Z</time>
      </trkpt>
      <trkpt lat="46.30964" lon="7.57373">
        <ele>622.40002441406</ele>
        <time>2023-04-04T15:12:27.000Z</time>
      </trkpt>
      <trkpt lat="46.30963" lon="7.57388">
        <ele>622.40002441406</ele>
        <time>2023-04-04T15:12:29.000Z</time>
      </trkpt>
      <trkpt lat="46.30969" lon="7.57442">
        <ele>621.59997558594</ele>
        <time>2023-04-04T15:12:36.000Z</time>
      </trkpt>
      <trkpt lat="46.30973" lon="7.57467">
        <ele>621.40002441406</ele>
        <time>2023-04-04T15:12:39.000Z</time>
      </trkpt>
      <trkpt lat="46.30974" lon="7.575">
        <ele>620.59997558594</ele>
        <time>2023-04-04T15:12:43.000Z</time>
      </trkpt>
      <trkpt lat="46.30972" lon="7.57525">
        <ele>620.20001220703</ele>
        <time>2023-04-04T15:12:46.000Z</time>
      </trkpt>
      <trkpt lat="46.3097" lon="7.57548">
        <ele>620</ele>
        <time>2023-04-04T15:12:49.000Z</time>
      </trkpt>
      <trkpt lat="46.30969" lon="7.57555">
        <ele>620</ele>
        <time>2023-04-04T15:12:50.000Z</time>
      </trkpt>
      <trkpt lat="46.30968" lon="7.57563">
        <ele>619.79998779297</ele>
        <time>2023-04-04T15:12:51.000Z</time>
      </trkpt>
      <trkpt lat="46.30966" lon="7.5757">
        <ele>619.79998779297</ele>
        <time>2023-04-04T15:12:52.000Z</time>
      </trkpt>
      <trkpt lat="46.30958" lon="7.57599">
        <ele>619.79998779297</ele>
        <time>2023-04-04T15:12:56.000Z</time>
      </trkpt>
      <trkpt lat="46.30956" lon="7.57605">
        <ele>619.79998779297</ele>
        <time>2023-04-04T15:12:57.000Z</time>
      </trkpt>
      <trkpt lat="46.30954" lon="7.57611">
        <ele>619.79998779297</ele>
        <time>2023-04-04T15:12:58.000Z</time>
      </trkpt>
      <trkpt lat="46.30953" lon="7.57617">
        <ele>619.79998779297</ele>
        <time>2023-04-04T15:12:59.000Z</time>
      </trkpt>
      <trkpt lat="46.30952" lon="7.57622">
        <ele>619.79998779297</ele>
        <time>2023-04-04T15:13:00.000Z</time>
      </trkpt>
      <trkpt lat="46.30951" lon="7.57626">
        <ele>619.59997558594</ele>
        <time>2023-04-04T15:13:01.000Z</time>
      </trkpt>
      <trkpt lat="46.30949" lon="7.57629">
        <ele>619.59997558594</ele>
        <time>2023-04-04T15:13:02.000Z</time>
      </trkpt>
      <trkpt lat="46.30948" lon="7.57632">
        <ele>619.59997558594</ele>
        <time>2023-04-04T15:13:03.000Z</time>
      </trkpt>
      <trkpt lat="46.30947" lon="7.57633">
        <ele>619.40002441406</ele>
        <time>2023-04-04T15:13:04.000Z</time>
      </trkpt>
      <trkpt lat="46.30946" lon="7.57634">
        <ele>619.20001220703</ele>
        <time>2023-04-04T15:13:06.000Z</time>
      </trkpt>
      <trkpt lat="46.30942" lon="7.57638">
        <ele>618.79998779297</ele>
        <time>2023-04-04T15:13:09.000Z</time>
      </trkpt>
      <trkpt lat="46.30936" lon="7.57643">
        <ele>618.79998779297</ele>
        <time>2023-04-04T15:13:11.000Z</time>
      </trkpt>
      <trkpt lat="46.30918" lon="7.57655">
        <ele>618.40002441406</ele>
        <time>2023-04-04T15:13:15.000Z</time>
      </trkpt>
      <trkpt lat="46.30907" lon="7.57663">
        <ele>618</ele>
        <time>2023-04-04T15:13:17.000Z</time>
      </trkpt>
      <trkpt lat="46.30903" lon="7.57667">
        <ele>617.59997558594</ele>
        <time>2023-04-04T15:13:18.000Z</time>
      </trkpt>
      <trkpt lat="46.30897" lon="7.57669">
        <ele>617</ele>
        <time>2023-04-04T15:13:19.000Z</time>
      </trkpt>
      <trkpt lat="46.30884" lon="7.57679">
        <ele>616.40002441406</ele>
        <time>2023-04-04T15:13:21.000Z</time>
      </trkpt>
      <trkpt lat="46.3088" lon="7.57685">
        <ele>616</ele>
        <time>2023-04-04T15:13:22.000Z</time>
      </trkpt>
      <trkpt lat="46.30876" lon="7.57691">
        <ele>615.59997558594</ele>
        <time>2023-04-04T15:13:23.000Z</time>
      </trkpt>
      <trkpt lat="46.30874" lon="7.57697">
        <ele>615.40002441406</ele>
        <time>2023-04-04T15:13:24.000Z</time>
      </trkpt>
      <trkpt lat="46.30873" lon="7.57703">
        <ele>615.40002441406</ele>
        <time>2023-04-04T15:13:25.000Z</time>
      </trkpt>
      <trkpt lat="46.30873" lon="7.57708">
        <ele>615.40002441406</ele>
        <time>2023-04-04T15:13:26.000Z</time>
      </trkpt>
      <trkpt lat="46.30873" lon="7.57713">
        <ele>615.40002441406</ele>
        <time>2023-04-04T15:13:27.000Z</time>
      </trkpt>
      <trkpt lat="46.30873" lon="7.57718">
        <ele>615.59997558594</ele>
        <time>2023-04-04T15:13:28.000Z</time>
      </trkpt>
      <trkpt lat="46.30874" lon="7.57722">
        <ele>615.79998779297</ele>
        <time>2023-04-04T15:13:29.000Z</time>
      </trkpt>
      <trkpt lat="46.30875" lon="7.57726">
        <ele>616</ele>
        <time>2023-04-04T15:13:30.000Z</time>
      </trkpt>
      <trkpt lat="46.30876" lon="7.5773">
        <ele>616.20001220703</ele>
        <time>2023-04-04T15:13:31.000Z</time>
      </trkpt>
      <trkpt lat="46.30877" lon="7.57738">
        <ele>616.40002441406</ele>
        <time>2023-04-04T15:13:33.000Z</time>
      </trkpt>
      <trkpt lat="46.30878" lon="7.57742">
        <ele>616.59997558594</ele>
        <time>2023-04-04T15:13:34.000Z</time>
      </trkpt>
      <trkpt lat="46.30879" lon="7.57745">
        <ele>617</ele>
        <time>2023-04-04T15:13:35.000Z</time>
      </trkpt>
      <trkpt lat="46.3088" lon="7.57749">
        <ele>617.20001220703</ele>
        <time>2023-04-04T15:13:36.000Z</time>
      </trkpt>
      <trkpt lat="46.30882" lon="7.57753">
        <ele>617.40002441406</ele>
        <time>2023-04-04T15:13:37.000Z</time>
      </trkpt>
      <trkpt lat="46.30886" lon="7.57773">
        <ele>618.59997558594</ele>
        <time>2023-04-04T15:13:42.000Z</time>
      </trkpt>
      <trkpt lat="46.30893" lon="7.57803">
        <ele>619.59997558594</ele>
        <time>2023-04-04T15:13:49.000Z</time>
      </trkpt>
      <trkpt lat="46.30894" lon="7.57808">
        <ele>619.79998779297</ele>
        <time>2023-04-04T15:13:50.000Z</time>
      </trkpt>
      <trkpt lat="46.30896" lon="7.57813">
        <ele>619.79998779297</ele>
        <time>2023-04-04T15:13:51.000Z</time>
      </trkpt>
      <trkpt lat="46.30897" lon="7.57818">
        <ele>620</ele>
        <time>2023-04-04T15:13:52.000Z</time>
      </trkpt>
      <trkpt lat="46.30899" lon="7.57822">
        <ele>620</ele>
        <time>2023-04-04T15:13:53.000Z</time>
      </trkpt>
      <trkpt lat="46.309" lon="7.57827">
        <ele>620.20001220703</ele>
        <time>2023-04-04T15:13:54.000Z</time>
      </trkpt>
      <trkpt lat="46.30901" lon="7.57832">
        <ele>620.20001220703</ele>
        <time>2023-04-04T15:13:55.000Z</time>
      </trkpt>
      <trkpt lat="46.30902" lon="7.57837">
        <ele>620.20001220703</ele>
        <time>2023-04-04T15:13:56.000Z</time>
      </trkpt>
      <trkpt lat="46.30904" lon="7.57842">
        <ele>620.40002441406</ele>
        <time>2023-04-04T15:13:57.000Z</time>
      </trkpt>
      <trkpt lat="46.30905" lon="7.57848">
        <ele>620.40002441406</ele>
        <time>2023-04-04T15:13:58.000Z</time>
      </trkpt>
      <trkpt lat="46.30907" lon="7.57853">
        <ele>620.40002441406</ele>
        <time>2023-04-04T15:13:59.000Z</time>
      </trkpt>
      <trkpt lat="46.30908" lon="7.57859">
        <ele>620.40002441406</ele>
        <time>2023-04-04T15:14:00.000Z</time>
      </trkpt>
      <trkpt lat="46.30909" lon="7.57865">
        <ele>620.59997558594</ele>
        <time>2023-04-04T15:14:01.000Z</time>
      </trkpt>
      <trkpt lat="46.30911" lon="7.57871">
        <ele>620.59997558594</ele>
        <time>2023-04-04T15:14:02.000Z</time>
      </trkpt>
      <trkpt lat="46.30912" lon="7.57877">
        <ele>620.59997558594</ele>
        <time>2023-04-04T15:14:03.000Z</time>
      </trkpt>
      <trkpt lat="46.30913" lon="7.57883">
        <ele>620.59997558594</ele>
        <time>2023-04-04T15:14:04.000Z</time>
      </trkpt>
      <trkpt lat="46.30914" lon="7.57889">
        <ele>620.59997558594</ele>
        <time>2023-04-04T15:14:05.000Z</time>
      </trkpt>
      <trkpt lat="46.30914" lon="7.57895">
        <ele>620.59997558594</ele>
        <time>2023-04-04T15:14:06.000Z</time>
      </trkpt>
      <trkpt lat="46.30914" lon="7.57901">
        <ele>620.40002441406</ele>
        <time>2023-04-04T15:14:07.000Z</time>
      </trkpt>
      <trkpt lat="46.30916" lon="7.57952">
        <ele>620</ele>
        <time>2023-04-04T15:14:15.000Z</time>
      </trkpt>
      <trkpt lat="46.3092" lon="7.57989">
        <ele>619.79998779297</ele>
        <time>2023-04-04T15:14:20.000Z</time>
      </trkpt>
      <trkpt lat="46.30927" lon="7.58015">
        <ele>619.20001220703</ele>
        <time>2023-04-04T15:14:23.000Z</time>
      </trkpt>
      <trkpt lat="46.30931" lon="7.58025">
        <ele>619</ele>
        <time>2023-04-04T15:14:24.000Z</time>
      </trkpt>
      <trkpt lat="46.30934" lon="7.58035">
        <ele>618.79998779297</ele>
        <time>2023-04-04T15:14:25.000Z</time>
      </trkpt>
      <trkpt lat="46.30941" lon="7.58056">
        <ele>618.40002441406</ele>
        <time>2023-04-04T15:14:27.000Z</time>
      </trkpt>
      <trkpt lat="46.30948" lon="7.58075">
        <ele>617.59997558594</ele>
        <time>2023-04-04T15:14:29.000Z</time>
      </trkpt>
      <trkpt lat="46.30951" lon="7.58083">
        <ele>617</ele>
        <time>2023-04-04T15:14:30.000Z</time>
      </trkpt>
      <trkpt lat="46.30953" lon="7.58091">
        <ele>616.79998779297</ele>
        <time>2023-04-04T15:14:31.000Z</time>
      </trkpt>
      <trkpt lat="46.30956" lon="7.58099">
        <ele>616.40002441406</ele>
        <time>2023-04-04T15:14:32.000Z</time>
      </trkpt>
      <trkpt lat="46.30958" lon="7.58106">
        <ele>616</ele>
        <time>2023-04-04T15:14:33.000Z</time>
      </trkpt>
      <trkpt lat="46.30959" lon="7.58114">
        <ele>615.79998779297</ele>
        <time>2023-04-04T15:14:34.000Z</time>
      </trkpt>
      <trkpt lat="46.3096" lon="7.58121">
        <ele>615.40002441406</ele>
        <time>2023-04-04T15:14:35.000Z</time>
      </trkpt>
      <trkpt lat="46.3096" lon="7.58127">
        <ele>615.20001220703</ele>
        <time>2023-04-04T15:14:36.000Z</time>
      </trkpt>
      <trkpt lat="46.3096" lon="7.58133">
        <ele>614.79998779297</ele>
        <time>2023-04-04T15:14:37.000Z</time>
      </trkpt>
      <trkpt lat="46.30959" lon="7.58139">
        <ele>614.59997558594</ele>
        <time>2023-04-04T15:14:38.000Z</time>
      </trkpt>
      <trkpt lat="46.30959" lon="7.58142">
        <ele>614.40002441406</ele>
        <time>2023-04-04T15:14:39.000Z</time>
      </trkpt>
      <trkpt lat="46.30958" lon="7.58146">
        <ele>614.40002441406</ele>
        <time>2023-04-04T15:14:40.000Z</time>
      </trkpt>
      <trkpt lat="46.30958" lon="7.58149">
        <ele>614.40002441406</ele>
        <time>2023-04-04T15:14:41.000Z</time>
      </trkpt>
      <trkpt lat="46.30958" lon="7.58151">
        <ele>614.40002441406</ele>
        <time>2023-04-04T15:14:42.000Z</time>
      </trkpt>
      <trkpt lat="46.30958" lon="7.58152">
        <ele>614.40002441406</ele>
        <time>2023-04-04T15:14:43.000Z</time>
      </trkpt>
      <trkpt lat="46.30958" lon="7.58152">
        <ele>614.40002441406</ele>
        <time>2023-04-04T15:14:44.000Z</time>
      </trkpt>
      <trkpt lat="46.30958" lon="7.58152">
        <ele>614.40002441406</ele>
        <time>2023-04-04T15:14:45.000Z</time>
      </trkpt>
      <trkpt lat="46.30961" lon="7.58153">
        <ele>614.40002441406</ele>
        <time>2023-04-04T15:15:03.000Z</time>
      </trkpt>
      <trkpt lat="46.30968" lon="7.58153">
        <ele>614.40002441406</ele>
        <time>2023-04-04T15:15:06.000Z</time>
      </trkpt>
      <trkpt lat="46.30975" lon="7.58157">
        <ele>614.40002441406</ele>
        <time>2023-04-04T15:15:09.000Z</time>
      </trkpt>
      <trkpt lat="46.30977" lon="7.58159">
        <ele>614.40002441406</ele>
        <time>2023-04-04T15:15:10.000Z</time>
      </trkpt>
      <trkpt lat="46.30982" lon="7.58162">
        <ele>614.59997558594</ele>
        <time>2023-04-04T15:15:12.000Z</time>
      </trkpt>
      <trkpt lat="46.31003" lon="7.58175">
        <ele>615</ele>
        <time>2023-04-04T15:15:19.000Z</time>
      </trkpt>
      <trkpt lat="46.31018" lon="7.58201">
        <ele>615.20001220703</ele>
        <time>2023-04-04T15:15:25.000Z</time>
      </trkpt>
      <trkpt lat="46.31038" lon="7.58243">
        <ele>615.40002441406</ele>
        <time>2023-04-04T15:15:34.000Z</time>
      </trkpt>
      <trkpt lat="46.31041" lon="7.58252">
        <ele>615.40002441406</ele>
        <time>2023-04-04T15:15:36.000Z</time>
      </trkpt>
      <trkpt lat="46.31043" lon="7.58257">
        <ele>615.40002441406</ele>
        <time>2023-04-04T15:15:37.000Z</time>
      </trkpt>
      <trkpt lat="46.31045" lon="7.58262">
        <ele>615.40002441406</ele>
        <time>2023-04-04T15:15:38.000Z</time>
      </trkpt>
      <trkpt lat="46.31056" lon="7.58285">
        <ele>615.59997558594</ele>
        <time>2023-04-04T15:15:43.000Z</time>
      </trkpt>
      <trkpt lat="46.31068" lon="7.58312">
        <ele>615.79998779297</ele>
        <time>2023-04-04T15:15:49.000Z</time>
      </trkpt>
      <trkpt lat="46.3107" lon="7.58316">
        <ele>616</ele>
        <time>2023-04-04T15:15:50.000Z</time>
      </trkpt>
      <trkpt lat="46.31072" lon="7.5832">
        <ele>616</ele>
        <time>2023-04-04T15:15:51.000Z</time>
      </trkpt>
      <trkpt lat="46.31074" lon="7.58325">
        <ele>616</ele>
        <time>2023-04-04T15:15:52.000Z</time>
      </trkpt>
      <trkpt lat="46.31076" lon="7.5833">
        <ele>616</ele>
        <time>2023-04-04T15:15:53.000Z</time>
      </trkpt>
      <trkpt lat="46.31078" lon="7.58334">
        <ele>616.20001220703</ele>
        <time>2023-04-04T15:15:54.000Z</time>
      </trkpt>
      <trkpt lat="46.31093" lon="7.58365">
        <ele>616.79998779297</ele>
        <time>2023-04-04T15:16:01.000Z</time>
      </trkpt>
      <trkpt lat="46.31095" lon="7.58369">
        <ele>616.79998779297</ele>
        <time>2023-04-04T15:16:02.000Z</time>
      </trkpt>
      <trkpt lat="46.31096" lon="7.58374">
        <ele>617</ele>
        <time>2023-04-04T15:16:03.000Z</time>
      </trkpt>
      <trkpt lat="46.31104" lon="7.58391">
        <ele>617.20001220703</ele>
        <time>2023-04-04T15:16:07.000Z</time>
      </trkpt>
      <trkpt lat="46.31106" lon="7.58395">
        <ele>617.20001220703</ele>
        <time>2023-04-04T15:16:08.000Z</time>
      </trkpt>
      <trkpt lat="46.31108" lon="7.58399">
        <ele>617.40002441406</ele>
        <time>2023-04-04T15:16:09.000Z</time>
      </trkpt>
      <trkpt lat="46.3111" lon="7.58403">
        <ele>617.40002441406</ele>
        <time>2023-04-04T15:16:10.000Z</time>
      </trkpt>
      <trkpt lat="46.31116" lon="7.58416">
        <ele>617.79998779297</ele>
        <time>2023-04-04T15:16:13.000Z</time>
      </trkpt>
      <trkpt lat="46.31118" lon="7.5842">
        <ele>618</ele>
        <time>2023-04-04T15:16:14.000Z</time>
      </trkpt>
      <trkpt lat="46.31119" lon="7.58424">
        <ele>618.20001220703</ele>
        <time>2023-04-04T15:16:15.000Z</time>
      </trkpt>
      <trkpt lat="46.31134" lon="7.58457">
        <ele>619</ele>
        <time>2023-04-04T15:16:23.000Z</time>
      </trkpt>
      <trkpt lat="46.31135" lon="7.58461">
        <ele>619</ele>
        <time>2023-04-04T15:16:24.000Z</time>
      </trkpt>
      <trkpt lat="46.31145" lon="7.5848">
        <ele>619.79998779297</ele>
        <time>2023-04-04T15:16:29.000Z</time>
      </trkpt>
      <trkpt lat="46.31147" lon="7.58484">
        <ele>619.79998779297</ele>
        <time>2023-04-04T15:16:30.000Z</time>
      </trkpt>
      <trkpt lat="46.31148" lon="7.58488">
        <ele>620</ele>
        <time>2023-04-04T15:16:31.000Z</time>
      </trkpt>
      <trkpt lat="46.3115" lon="7.58492">
        <ele>620</ele>
        <time>2023-04-04T15:16:32.000Z</time>
      </trkpt>
      <trkpt lat="46.31152" lon="7.58496">
        <ele>620.20001220703</ele>
        <time>2023-04-04T15:16:33.000Z</time>
      </trkpt>
      <trkpt lat="46.31154" lon="7.58499">
        <ele>620.20001220703</ele>
        <time>2023-04-04T15:16:34.000Z</time>
      </trkpt>
      <trkpt lat="46.31155" lon="7.58503">
        <ele>620.40002441406</ele>
        <time>2023-04-04T15:16:35.000Z</time>
      </trkpt>
      <trkpt lat="46.31157" lon="7.58507">
        <ele>620.40002441406</ele>
        <time>2023-04-04T15:16:36.000Z</time>
      </trkpt>
      <trkpt lat="46.31159" lon="7.58511">
        <ele>620.40002441406</ele>
        <time>2023-04-04T15:16:37.000Z</time>
      </trkpt>
      <trkpt lat="46.31161" lon="7.58515">
        <ele>620.59997558594</ele>
        <time>2023-04-04T15:16:38.000Z</time>
      </trkpt>
      <trkpt lat="46.31163" lon="7.58518">
        <ele>620.59997558594</ele>
        <time>2023-04-04T15:16:39.000Z</time>
      </trkpt>
      <trkpt lat="46.31164" lon="7.58522">
        <ele>620.79998779297</ele>
        <time>2023-04-04T15:16:40.000Z</time>
      </trkpt>
      <trkpt lat="46.31166" lon="7.58526">
        <ele>620.79998779297</ele>
        <time>2023-04-04T15:16:41.000Z</time>
      </trkpt>
      <trkpt lat="46.31168" lon="7.5853">
        <ele>621.20001220703</ele>
        <time>2023-04-04T15:16:42.000Z</time>
      </trkpt>
      <trkpt lat="46.3117" lon="7.58534">
        <ele>621.20001220703</ele>
        <time>2023-04-04T15:16:43.000Z</time>
      </trkpt>
      <trkpt lat="46.31171" lon="7.58538">
        <ele>621.20001220703</ele>
        <time>2023-04-04T15:16:44.000Z</time>
      </trkpt>
      <trkpt lat="46.31173" lon="7.58541">
        <ele>621.20001220703</ele>
        <time>2023-04-04T15:16:45.000Z</time>
      </trkpt>
      <trkpt lat="46.31174" lon="7.58546">
        <ele>621.40002441406</ele>
        <time>2023-04-04T15:16:46.000Z</time>
      </trkpt>
      <trkpt lat="46.31176" lon="7.58549">
        <ele>621.40002441406</ele>
        <time>2023-04-04T15:16:47.000Z</time>
      </trkpt>
      <trkpt lat="46.31177" lon="7.58553">
        <ele>621.59997558594</ele>
        <time>2023-04-04T15:16:48.000Z</time>
      </trkpt>
      <trkpt lat="46.31179" lon="7.58557">
        <ele>621.59997558594</ele>
        <time>2023-04-04T15:16:49.000Z</time>
      </trkpt>
      <trkpt lat="46.3118" lon="7.58561">
        <ele>621.79998779297</ele>
        <time>2023-04-04T15:16:50.000Z</time>
      </trkpt>
      <trkpt lat="46.31182" lon="7.58565">
        <ele>622</ele>
        <time>2023-04-04T15:16:51.000Z</time>
      </trkpt>
      <trkpt lat="46.31183" lon="7.58569">
        <ele>622</ele>
        <time>2023-04-04T15:16:52.000Z</time>
      </trkpt>
      <trkpt lat="46.31185" lon="7.58573">
        <ele>622.40002441406</ele>
        <time>2023-04-04T15:16:53.000Z</time>
      </trkpt>
      <trkpt lat="46.31186" lon="7.58577">
        <ele>622.59997558594</ele>
        <time>2023-04-04T15:16:54.000Z</time>
      </trkpt>
      <trkpt lat="46.31188" lon="7.58581">
        <ele>622.79998779297</ele>
        <time>2023-04-04T15:16:55.000Z</time>
      </trkpt>
      <trkpt lat="46.31189" lon="7.58585">
        <ele>623</ele>
        <time>2023-04-04T15:16:56.000Z</time>
      </trkpt>
      <trkpt lat="46.31191" lon="7.58589">
        <ele>623</ele>
        <time>2023-04-04T15:16:57.000Z</time>
      </trkpt>
      <trkpt lat="46.31192" lon="7.58592">
        <ele>623.20001220703</ele>
        <time>2023-04-04T15:16:58.000Z</time>
      </trkpt>
      <trkpt lat="46.31194" lon="7.58596">
        <ele>623.20001220703</ele>
        <time>2023-04-04T15:16:59.000Z</time>
      </trkpt>
      <trkpt lat="46.31196" lon="7.586">
        <ele>623.20001220703</ele>
        <time>2023-04-04T15:17:00.000Z</time>
      </trkpt>
      <trkpt lat="46.31197" lon="7.58604">
        <ele>623.40002441406</ele>
        <time>2023-04-04T15:17:01.000Z</time>
      </trkpt>
      <trkpt lat="46.31198" lon="7.58609">
        <ele>623.40002441406</ele>
        <time>2023-04-04T15:17:02.000Z</time>
      </trkpt>
      <trkpt lat="46.312" lon="7.58613">
        <ele>623.59997558594</ele>
        <time>2023-04-04T15:17:03.000Z</time>
      </trkpt>
      <trkpt lat="46.31201" lon="7.58617">
        <ele>623.59997558594</ele>
        <time>2023-04-04T15:17:04.000Z</time>
      </trkpt>
      <trkpt lat="46.31202" lon="7.58622">
        <ele>623.79998779297</ele>
        <time>2023-04-04T15:17:05.000Z</time>
      </trkpt>
      <trkpt lat="46.31203" lon="7.58626">
        <ele>623.79998779297</ele>
        <time>2023-04-04T15:17:06.000Z</time>
      </trkpt>
      <trkpt lat="46.31204" lon="7.58631">
        <ele>623.79998779297</ele>
        <time>2023-04-04T15:17:07.000Z</time>
      </trkpt>
      <trkpt lat="46.31205" lon="7.58635">
        <ele>624</ele>
        <time>2023-04-04T15:17:08.000Z</time>
      </trkpt>
      <trkpt lat="46.31206" lon="7.5864">
        <ele>624</ele>
        <time>2023-04-04T15:17:09.000Z</time>
      </trkpt>
      <trkpt lat="46.31208" lon="7.58645">
        <ele>624.20001220703</ele>
        <time>2023-04-04T15:17:10.000Z</time>
      </trkpt>
      <trkpt lat="46.31209" lon="7.58649">
        <ele>624.20001220703</ele>
        <time>2023-04-04T15:17:11.000Z</time>
      </trkpt>
      <trkpt lat="46.3121" lon="7.58654">
        <ele>624.20001220703</ele>
        <time>2023-04-04T15:17:12.000Z</time>
      </trkpt>
      <trkpt lat="46.3121" lon="7.58658">
        <ele>624.40002441406</ele>
        <time>2023-04-04T15:17:13.000Z</time>
      </trkpt>
      <trkpt lat="46.31211" lon="7.58663">
        <ele>624.40002441406</ele>
        <time>2023-04-04T15:17:14.000Z</time>
      </trkpt>
      <trkpt lat="46.31212" lon="7.58667">
        <ele>624.40002441406</ele>
        <time>2023-04-04T15:17:15.000Z</time>
      </trkpt>
      <trkpt lat="46.31213" lon="7.58672">
        <ele>624.59997558594</ele>
        <time>2023-04-04T15:17:16.000Z</time>
      </trkpt>
      <trkpt lat="46.31214" lon="7.58686">
        <ele>624.79998779297</ele>
        <time>2023-04-04T15:17:19.000Z</time>
      </trkpt>
      <trkpt lat="46.31214" lon="7.58691">
        <ele>625</ele>
        <time>2023-04-04T15:17:20.000Z</time>
      </trkpt>
      <trkpt lat="46.31215" lon="7.5874">
        <ele>625.59997558594</ele>
        <time>2023-04-04T15:17:30.000Z</time>
      </trkpt>
      <trkpt lat="46.31214" lon="7.58768">
        <ele>626</ele>
        <time>2023-04-04T15:17:36.000Z</time>
      </trkpt>
      <trkpt lat="46.31214" lon="7.58783">
        <ele>626.20001220703</ele>
        <time>2023-04-04T15:17:39.000Z</time>
      </trkpt>
      <trkpt lat="46.3121" lon="7.58817">
        <ele>627.20001220703</ele>
        <time>2023-04-04T15:17:46.000Z</time>
      </trkpt>
      <trkpt lat="46.31205" lon="7.58845">
        <ele>628</ele>
        <time>2023-04-04T15:17:52.000Z</time>
      </trkpt>
      <trkpt lat="46.31204" lon="7.58855">
        <ele>628.20001220703</ele>
        <time>2023-04-04T15:17:54.000Z</time>
      </trkpt>
      <trkpt lat="46.31203" lon="7.5886">
        <ele>628.20001220703</ele>
        <time>2023-04-04T15:17:55.000Z</time>
      </trkpt>
      <trkpt lat="46.31202" lon="7.58865">
        <ele>628.20001220703</ele>
        <time>2023-04-04T15:17:56.000Z</time>
      </trkpt>
      <trkpt lat="46.31202" lon="7.5887">
        <ele>628.40002441406</ele>
        <time>2023-04-04T15:17:57.000Z</time>
      </trkpt>
      <trkpt lat="46.31201" lon="7.58875">
        <ele>628.40002441406</ele>
        <time>2023-04-04T15:17:58.000Z</time>
      </trkpt>
      <trkpt lat="46.31201" lon="7.58879">
        <ele>628.40002441406</ele>
        <time>2023-04-04T15:17:59.000Z</time>
      </trkpt>
      <trkpt lat="46.312" lon="7.58884">
        <ele>628.40002441406</ele>
        <time>2023-04-04T15:18:00.000Z</time>
      </trkpt>
      <trkpt lat="46.31199" lon="7.58889">
        <ele>628.59997558594</ele>
        <time>2023-04-04T15:18:01.000Z</time>
      </trkpt>
      <trkpt lat="46.31199" lon="7.58894">
        <ele>628.59997558594</ele>
        <time>2023-04-04T15:18:02.000Z</time>
      </trkpt>
      <trkpt lat="46.31198" lon="7.58898">
        <ele>628.59997558594</ele>
        <time>2023-04-04T15:18:03.000Z</time>
      </trkpt>
      <trkpt lat="46.31197" lon="7.58925">
        <ele>629</ele>
        <time>2023-04-04T15:18:08.000Z</time>
      </trkpt>
      <trkpt lat="46.31196" lon="7.58968">
        <ele>629.20001220703</ele>
        <time>2023-04-04T15:18:16.000Z</time>
      </trkpt>
      <trkpt lat="46.31196" lon="7.58974">
        <ele>629.20001220703</ele>
        <time>2023-04-04T15:18:17.000Z</time>
      </trkpt>
      <trkpt lat="46.31198" lon="7.59012">
        <ele>629.40002441406</ele>
        <time>2023-04-04T15:18:24.000Z</time>
      </trkpt>
      <trkpt lat="46.31203" lon="7.5907">
        <ele>629.79998779297</ele>
        <time>2023-04-04T15:18:34.000Z</time>
      </trkpt>
      <trkpt lat="46.31207" lon="7.59132">
        <ele>630</ele>
        <time>2023-04-04T15:18:45.000Z</time>
      </trkpt>
      <trkpt lat="46.3121" lon="7.59159">
        <ele>629.79998779297</ele>
        <time>2023-04-04T15:18:50.000Z</time>
      </trkpt>
      <trkpt lat="46.31211" lon="7.59164">
        <ele>629.79998779297</ele>
        <time>2023-04-04T15:18:51.000Z</time>
      </trkpt>
      <trkpt lat="46.31211" lon="7.59169">
        <ele>629.79998779297</ele>
        <time>2023-04-04T15:18:52.000Z</time>
      </trkpt>
      <trkpt lat="46.31212" lon="7.59174">
        <ele>629.79998779297</ele>
        <time>2023-04-04T15:18:53.000Z</time>
      </trkpt>
      <trkpt lat="46.31212" lon="7.59179">
        <ele>629.79998779297</ele>
        <time>2023-04-04T15:18:54.000Z</time>
      </trkpt>
      <trkpt lat="46.31213" lon="7.59184">
        <ele>629.79998779297</ele>
        <time>2023-04-04T15:18:55.000Z</time>
      </trkpt>
      <trkpt lat="46.31214" lon="7.5923">
        <ele>630</ele>
        <time>2023-04-04T15:19:03.000Z</time>
      </trkpt>
      <trkpt lat="46.31213" lon="7.59268">
        <ele>630</ele>
        <time>2023-04-04T15:19:10.000Z</time>
      </trkpt>
      <trkpt lat="46.31213" lon="7.59274">
        <ele>630</ele>
        <time>2023-04-04T15:19:11.000Z</time>
      </trkpt>
      <trkpt lat="46.31212" lon="7.59279">
        <ele>630</ele>
        <time>2023-04-04T15:19:12.000Z</time>
      </trkpt>
      <trkpt lat="46.31212" lon="7.59284">
        <ele>630</ele>
        <time>2023-04-04T15:19:13.000Z</time>
      </trkpt>
      <trkpt lat="46.31211" lon="7.5929">
        <ele>630</ele>
        <time>2023-04-04T15:19:14.000Z</time>
      </trkpt>
      <trkpt lat="46.31211" lon="7.59295">
        <ele>630</ele>
        <time>2023-04-04T15:19:15.000Z</time>
      </trkpt>
      <trkpt lat="46.31211" lon="7.593">
        <ele>630</ele>
        <time>2023-04-04T15:19:16.000Z</time>
      </trkpt>
      <trkpt lat="46.31211" lon="7.59306">
        <ele>630</ele>
        <time>2023-04-04T15:19:17.000Z</time>
      </trkpt>
      <trkpt lat="46.3121" lon="7.59311">
        <ele>630</ele>
        <time>2023-04-04T15:19:18.000Z</time>
      </trkpt>
      <trkpt lat="46.3121" lon="7.59316">
        <ele>630</ele>
        <time>2023-04-04T15:19:19.000Z</time>
      </trkpt>
      <trkpt lat="46.31209" lon="7.5932">
        <ele>630.20001220703</ele>
        <time>2023-04-04T15:19:20.000Z</time>
      </trkpt>
      <trkpt lat="46.31208" lon="7.59325">
        <ele>630.20001220703</ele>
        <time>2023-04-04T15:19:21.000Z</time>
      </trkpt>
      <trkpt lat="46.31207" lon="7.5933">
        <ele>630.20001220703</ele>
        <time>2023-04-04T15:19:22.000Z</time>
      </trkpt>
      <trkpt lat="46.31206" lon="7.59335">
        <ele>630.20001220703</ele>
        <time>2023-04-04T15:19:23.000Z</time>
      </trkpt>
      <trkpt lat="46.31205" lon="7.5934">
        <ele>630.20001220703</ele>
        <time>2023-04-04T15:19:24.000Z</time>
      </trkpt>
      <trkpt lat="46.31203" lon="7.59345">
        <ele>630.40002441406</ele>
        <time>2023-04-04T15:19:25.000Z</time>
      </trkpt>
      <trkpt lat="46.31203" lon="7.5935">
        <ele>630.40002441406</ele>
        <time>2023-04-04T15:19:26.000Z</time>
      </trkpt>
      <trkpt lat="46.31202" lon="7.59358">
        <ele>630.40002441406</ele>
        <time>2023-04-04T15:19:28.000Z</time>
      </trkpt>
      <trkpt lat="46.31202" lon="7.59362">
        <ele>630.40002441406</ele>
        <time>2023-04-04T15:19:29.000Z</time>
      </trkpt>
      <trkpt lat="46.31202" lon="7.59366">
        <ele>630.59997558594</ele>
        <time>2023-04-04T15:19:30.000Z</time>
      </trkpt>
      <trkpt lat="46.31201" lon="7.59369">
        <ele>630.59997558594</ele>
        <time>2023-04-04T15:19:31.000Z</time>
      </trkpt>
      <trkpt lat="46.31201" lon="7.59371">
        <ele>630.59997558594</ele>
        <time>2023-04-04T15:19:32.000Z</time>
      </trkpt>
      <trkpt lat="46.31201" lon="7.59371">
        <ele>630.79998779297</ele>
        <time>2023-04-04T15:19:34.000Z</time>
      </trkpt>
      <trkpt lat="46.31201" lon="7.59375">
        <ele>631.40002441406</ele>
        <time>2023-04-04T15:24:06.000Z</time>
      </trkpt>
      <trkpt lat="46.31201" lon="7.59398">
        <ele>631.40002441406</ele>
        <time>2023-04-04T15:24:11.000Z</time>
      </trkpt>
      <trkpt lat="46.312" lon="7.59401">
        <ele>631.40002441406</ele>
        <time>2023-04-04T15:24:12.000Z</time>
      </trkpt>
      <trkpt lat="46.312" lon="7.59404">
        <ele>631.40002441406</ele>
        <time>2023-04-04T15:24:13.000Z</time>
      </trkpt>
      <trkpt lat="46.31199" lon="7.59407">
        <ele>631.40002441406</ele>
        <time>2023-04-04T15:24:14.000Z</time>
      </trkpt>
      <trkpt lat="46.31235" lon="7.59611">
        <ele>633.40002441406</ele>
        <time>2023-04-04T15:24:47.000Z</time>
      </trkpt>
      <trkpt lat="46.31231" lon="7.59616">
        <ele>633.59997558594</ele>
        <time>2023-04-04T15:24:48.000Z</time>
      </trkpt>
      <trkpt lat="46.31233" lon="7.59623">
        <ele>633.79998779297</ele>
        <time>2023-04-04T15:24:49.000Z</time>
      </trkpt>
      <trkpt lat="46.31235" lon="7.59629">
        <ele>633.79998779297</ele>
        <time>2023-04-04T15:24:50.000Z</time>
      </trkpt>
      <trkpt lat="46.31236" lon="7.59635">
        <ele>634</ele>
        <time>2023-04-04T15:24:51.000Z</time>
      </trkpt>
      <trkpt lat="46.31241" lon="7.5965">
        <ele>634.40002441406</ele>
        <time>2023-04-04T15:24:54.000Z</time>
      </trkpt>
      <trkpt lat="46.31242" lon="7.59656">
        <ele>634.40002441406</ele>
        <time>2023-04-04T15:24:55.000Z</time>
      </trkpt>
      <trkpt lat="46.31243" lon="7.5966">
        <ele>634.40002441406</ele>
        <time>2023-04-04T15:24:56.000Z</time>
      </trkpt>
      <trkpt lat="46.31244" lon="7.59664">
        <ele>634.40002441406</ele>
        <time>2023-04-04T15:24:57.000Z</time>
      </trkpt>
      <trkpt lat="46.31246" lon="7.59669">
        <ele>634.40002441406</ele>
        <time>2023-04-04T15:24:58.000Z</time>
      </trkpt>
      <trkpt lat="46.31248" lon="7.59673">
        <ele>634.59997558594</ele>
        <time>2023-04-04T15:24:59.000Z</time>
      </trkpt>
      <trkpt lat="46.3125" lon="7.59678">
        <ele>634.59997558594</ele>
        <time>2023-04-04T15:25:00.000Z</time>
      </trkpt>
      <trkpt lat="46.31252" lon="7.59684">
        <ele>634.59997558594</ele>
        <time>2023-04-04T15:25:01.000Z</time>
      </trkpt>
      <trkpt lat="46.31254" lon="7.59689">
        <ele>634.79998779297</ele>
        <time>2023-04-04T15:25:02.000Z</time>
      </trkpt>
      <trkpt lat="46.31255" lon="7.59694">
        <ele>634.79998779297</ele>
        <time>2023-04-04T15:25:03.000Z</time>
      </trkpt>
      <trkpt lat="46.31257" lon="7.59699">
        <ele>635</ele>
        <time>2023-04-04T15:25:04.000Z</time>
      </trkpt>
      <trkpt lat="46.31259" lon="7.59704">
        <ele>635</ele>
        <time>2023-04-04T15:25:05.000Z</time>
      </trkpt>
      <trkpt lat="46.31262" lon="7.59709">
        <ele>635</ele>
        <time>2023-04-04T15:25:06.000Z</time>
      </trkpt>
      <trkpt lat="46.31264" lon="7.59714">
        <ele>635</ele>
        <time>2023-04-04T15:25:07.000Z</time>
      </trkpt>
      <trkpt lat="46.31266" lon="7.59719">
        <ele>635</ele>
        <time>2023-04-04T15:25:08.000Z</time>
      </trkpt>
      <trkpt lat="46.31268" lon="7.59724">
        <ele>635.40002441406</ele>
        <time>2023-04-04T15:25:09.000Z</time>
      </trkpt>
      <trkpt lat="46.3127" lon="7.59729">
        <ele>635.20001220703</ele>
        <time>2023-04-04T15:25:10.000Z</time>
      </trkpt>
      <trkpt lat="46.31272" lon="7.59734">
        <ele>635.20001220703</ele>
        <time>2023-04-04T15:25:11.000Z</time>
      </trkpt>
      <trkpt lat="46.31274" lon="7.59739">
        <ele>635.20001220703</ele>
        <time>2023-04-04T15:25:12.000Z</time>
      </trkpt>
      <trkpt lat="46.31276" lon="7.59744">
        <ele>635.20001220703</ele>
        <time>2023-04-04T15:25:13.000Z</time>
      </trkpt>
      <trkpt lat="46.31278" lon="7.59749">
        <ele>635.20001220703</ele>
        <time>2023-04-04T15:25:14.000Z</time>
      </trkpt>
      <trkpt lat="46.3128" lon="7.59754">
        <ele>635.20001220703</ele>
        <time>2023-04-04T15:25:15.000Z</time>
      </trkpt>
      <trkpt lat="46.31282" lon="7.59759">
        <ele>635.40002441406</ele>
        <time>2023-04-04T15:25:16.000Z</time>
      </trkpt>
      <trkpt lat="46.31302" lon="7.59811">
        <ele>635.40002441406</ele>
        <time>2023-04-04T15:25:26.000Z</time>
      </trkpt>
      <trkpt lat="46.31318" lon="7.59867">
        <ele>635.79998779297</ele>
        <time>2023-04-04T15:25:36.000Z</time>
      </trkpt>
      <trkpt lat="46.31322" lon="7.59884">
        <ele>636</ele>
        <time>2023-04-04T15:25:39.000Z</time>
      </trkpt>
      <trkpt lat="46.31323" lon="7.59889">
        <ele>636</ele>
        <time>2023-04-04T15:25:40.000Z</time>
      </trkpt>
      <trkpt lat="46.31327" lon="7.59906">
        <ele>636.20001220703</ele>
        <time>2023-04-04T15:25:43.000Z</time>
      </trkpt>
      <trkpt lat="46.31329" lon="7.59916">
        <ele>636.20001220703</ele>
        <time>2023-04-04T15:25:45.000Z</time>
      </trkpt>
      <trkpt lat="46.31337" lon="7.59954">
        <ele>636.59997558594</ele>
        <time>2023-04-04T15:25:52.000Z</time>
      </trkpt>
      <trkpt lat="46.3134" lon="7.59971">
        <ele>636.79998779297</ele>
        <time>2023-04-04T15:25:55.000Z</time>
      </trkpt>
      <trkpt lat="46.31343" lon="7.59992">
        <ele>637.20001220703</ele>
        <time>2023-04-04T15:25:59.000Z</time>
      </trkpt>
      <trkpt lat="46.31344" lon="7.59998">
        <ele>637.20001220703</ele>
        <time>2023-04-04T15:26:00.000Z</time>
      </trkpt>
      <trkpt lat="46.31345" lon="7.60003">
        <ele>637.40002441406</ele>
        <time>2023-04-04T15:26:01.000Z</time>
      </trkpt>
      <trkpt lat="46.31346" lon="7.60008">
        <ele>637.40002441406</ele>
        <time>2023-04-04T15:26:02.000Z</time>
      </trkpt>
      <trkpt lat="46.31347" lon="7.60013">
        <ele>637.59997558594</ele>
        <time>2023-04-04T15:26:03.000Z</time>
      </trkpt>
      <trkpt lat="46.31356" lon="7.60044">
        <ele>638.20001220703</ele>
        <time>2023-04-04T15:26:09.000Z</time>
      </trkpt>
      <trkpt lat="46.3136" lon="7.60067">
        <ele>638.40002441406</ele>
        <time>2023-04-04T15:26:14.000Z</time>
      </trkpt>
      <trkpt lat="46.31361" lon="7.60071">
        <ele>638.40002441406</ele>
        <time>2023-04-04T15:26:15.000Z</time>
      </trkpt>
      <trkpt lat="46.31362" lon="7.60074">
        <ele>638.40002441406</ele>
        <time>2023-04-04T15:26:16.000Z</time>
      </trkpt>
      <trkpt lat="46.31363" lon="7.60075">
        <ele>638.40002441406</ele>
        <time>2023-04-04T15:26:17.000Z</time>
      </trkpt>
      <trkpt lat="46.31363" lon="7.60075">
        <ele>638.59997558594</ele>
        <time>2023-04-04T15:26:19.000Z</time>
      </trkpt>
      <trkpt lat="46.31365" lon="7.60079">
        <ele>638</ele>
        <time>2023-04-04T15:28:05.000Z</time>
      </trkpt>
      <trkpt lat="46.31366" lon="7.60082">
        <ele>637.79998779297</ele>
        <time>2023-04-04T15:28:06.000Z</time>
      </trkpt>
      <trkpt lat="46.31367" lon="7.60085">
        <ele>637.79998779297</ele>
        <time>2023-04-04T15:28:07.000Z</time>
      </trkpt>
      <trkpt lat="46.31369" lon="7.60089">
        <ele>637.79998779297</ele>
        <time>2023-04-04T15:28:08.000Z</time>
      </trkpt>
      <trkpt lat="46.31373" lon="7.60102">
        <ele>637.40002441406</ele>
        <time>2023-04-04T15:28:11.000Z</time>
      </trkpt>
      <trkpt lat="46.31376" lon="7.60111">
        <ele>637.20001220703</ele>
        <time>2023-04-04T15:28:13.000Z</time>
      </trkpt>
      <trkpt lat="46.31378" lon="7.60116">
        <ele>637.20001220703</ele>
        <time>2023-04-04T15:28:14.000Z</time>
      </trkpt>
      <trkpt lat="46.31379" lon="7.60121">
        <ele>637.20001220703</ele>
        <time>2023-04-04T15:28:15.000Z</time>
      </trkpt>
      <trkpt lat="46.31387" lon="7.60146">
        <ele>637</ele>
        <time>2023-04-04T15:28:20.000Z</time>
      </trkpt>
      <trkpt lat="46.31392" lon="7.60162">
        <ele>637</ele>
        <time>2023-04-04T15:28:23.000Z</time>
      </trkpt>
      <trkpt lat="46.31399" lon="7.60194">
        <ele>637.20001220703</ele>
        <time>2023-04-04T15:28:29.000Z</time>
      </trkpt>
      <trkpt lat="46.31409" lon="7.60256">
        <ele>637.40002441406</ele>
        <time>2023-04-04T15:28:40.000Z</time>
      </trkpt>
      <trkpt lat="46.3141" lon="7.60289">
        <ele>637.79998779297</ele>
        <time>2023-04-04T15:28:46.000Z</time>
      </trkpt>
      <trkpt lat="46.31411" lon="7.60295">
        <ele>637.79998779297</ele>
        <time>2023-04-04T15:28:47.000Z</time>
      </trkpt>
      <trkpt lat="46.31413" lon="7.60317">
        <ele>638</ele>
        <time>2023-04-04T15:28:51.000Z</time>
      </trkpt>
      <trkpt lat="46.31415" lon="7.60351">
        <ele>638.59997558594</ele>
        <time>2023-04-04T15:28:57.000Z</time>
      </trkpt>
      <trkpt lat="46.31415" lon="7.60356">
        <ele>638.79998779297</ele>
        <time>2023-04-04T15:28:58.000Z</time>
      </trkpt>
      <trkpt lat="46.31415" lon="7.60362">
        <ele>638.79998779297</ele>
        <time>2023-04-04T15:28:59.000Z</time>
      </trkpt>
      <trkpt lat="46.31415" lon="7.60367">
        <ele>639.20001220703</ele>
        <time>2023-04-04T15:29:00.000Z</time>
      </trkpt>
      <trkpt lat="46.31419" lon="7.60413">
        <ele>639.79998779297</ele>
        <time>2023-04-04T15:29:08.000Z</time>
      </trkpt>
      <trkpt lat="46.31421" lon="7.60424">
        <ele>640</ele>
        <time>2023-04-04T15:29:10.000Z</time>
      </trkpt>
      <trkpt lat="46.31421" lon="7.60428">
        <ele>640</ele>
        <time>2023-04-04T15:29:11.000Z</time>
      </trkpt>
      <trkpt lat="46.31432" lon="7.60485">
        <ele>640.59997558594</ele>
        <time>2023-04-04T15:29:21.000Z</time>
      </trkpt>
      <trkpt lat="46.31446" lon="7.60544">
        <ele>640.59997558594</ele>
        <time>2023-04-04T15:29:31.000Z</time>
      </trkpt>
      <trkpt lat="46.3145" lon="7.60567">
        <ele>640.59997558594</ele>
        <time>2023-04-04T15:29:35.000Z</time>
      </trkpt>
      <trkpt lat="46.31453" lon="7.60584">
        <ele>640.79998779297</ele>
        <time>2023-04-04T15:29:38.000Z</time>
      </trkpt>
      <trkpt lat="46.31454" lon="7.6059">
        <ele>640.79998779297</ele>
        <time>2023-04-04T15:29:39.000Z</time>
      </trkpt>
      <trkpt lat="46.31455" lon="7.60595">
        <ele>640.79998779297</ele>
        <time>2023-04-04T15:29:40.000Z</time>
      </trkpt>
      <trkpt lat="46.31455" lon="7.60601">
        <ele>641</ele>
        <time>2023-04-04T15:29:41.000Z</time>
      </trkpt>
      <trkpt lat="46.31456" lon="7.60606">
        <ele>641</ele>
        <time>2023-04-04T15:29:42.000Z</time>
      </trkpt>
      <trkpt lat="46.31457" lon="7.60611">
        <ele>641</ele>
        <time>2023-04-04T15:29:43.000Z</time>
      </trkpt>
      <trkpt lat="46.3146" lon="7.60622">
        <ele>641.20001220703</ele>
        <time>2023-04-04T15:29:45.000Z</time>
      </trkpt>
      <trkpt lat="46.31461" lon="7.60633">
        <ele>641.20001220703</ele>
        <time>2023-04-04T15:29:47.000Z</time>
      </trkpt>
      <trkpt lat="46.31462" lon="7.60639">
        <ele>641.40002441406</ele>
        <time>2023-04-04T15:29:48.000Z</time>
      </trkpt>
      <trkpt lat="46.31463" lon="7.60644">
        <ele>641.40002441406</ele>
        <time>2023-04-04T15:29:49.000Z</time>
      </trkpt>
      <trkpt lat="46.31464" lon="7.60649">
        <ele>641.40002441406</ele>
        <time>2023-04-04T15:29:50.000Z</time>
      </trkpt>
      <trkpt lat="46.31465" lon="7.60655">
        <ele>641.59997558594</ele>
        <time>2023-04-04T15:29:51.000Z</time>
      </trkpt>
      <trkpt lat="46.31467" lon="7.60671">
        <ele>642</ele>
        <time>2023-04-04T15:29:54.000Z</time>
      </trkpt>
      <trkpt lat="46.31472" lon="7.60699">
        <ele>642.20001220703</ele>
        <time>2023-04-04T15:29:59.000Z</time>
      </trkpt>
      <trkpt lat="46.3148" lon="7.60733">
        <ele>642.59997558594</ele>
        <time>2023-04-04T15:30:05.000Z</time>
      </trkpt>
      <trkpt lat="46.31486" lon="7.60773">
        <ele>642.79998779297</ele>
        <time>2023-04-04T15:30:12.000Z</time>
      </trkpt>
      <trkpt lat="46.31493" lon="7.60825">
        <ele>642.79998779297</ele>
        <time>2023-04-04T15:30:21.000Z</time>
      </trkpt>
      <trkpt lat="46.31494" lon="7.60831">
        <ele>642.79998779297</ele>
        <time>2023-04-04T15:30:22.000Z</time>
      </trkpt>
      <trkpt lat="46.31495" lon="7.60837">
        <ele>643</ele>
        <time>2023-04-04T15:30:23.000Z</time>
      </trkpt>
      <trkpt lat="46.31496" lon="7.60842">
        <ele>643</ele>
        <time>2023-04-04T15:30:24.000Z</time>
      </trkpt>
      <trkpt lat="46.31501" lon="7.60876">
        <ele>643.40002441406</ele>
        <time>2023-04-04T15:30:30.000Z</time>
      </trkpt>
      <trkpt lat="46.315" lon="7.60892">
        <ele>643.40002441406</ele>
        <time>2023-04-04T15:30:33.000Z</time>
      </trkpt>
      <trkpt lat="46.315" lon="7.60897">
        <ele>643.40002441406</ele>
        <time>2023-04-04T15:30:34.000Z</time>
      </trkpt>
      <trkpt lat="46.31501" lon="7.60902">
        <ele>643.40002441406</ele>
        <time>2023-04-04T15:30:35.000Z</time>
      </trkpt>
      <trkpt lat="46.31501" lon="7.60907">
        <ele>643.40002441406</ele>
        <time>2023-04-04T15:30:36.000Z</time>
      </trkpt>
      <trkpt lat="46.31501" lon="7.60912">
        <ele>643.40002441406</ele>
        <time>2023-04-04T15:30:37.000Z</time>
      </trkpt>
      <trkpt lat="46.31502" lon="7.60916">
        <ele>643.40002441406</ele>
        <time>2023-04-04T15:30:38.000Z</time>
      </trkpt>
      <trkpt lat="46.31502" lon="7.60921">
        <ele>643.59997558594</ele>
        <time>2023-04-04T15:30:39.000Z</time>
      </trkpt>
      <trkpt lat="46.31503" lon="7.60926">
        <ele>643.40002441406</ele>
        <time>2023-04-04T15:30:40.000Z</time>
      </trkpt>
      <trkpt lat="46.31504" lon="7.60931">
        <ele>643.40002441406</ele>
        <time>2023-04-04T15:30:41.000Z</time>
      </trkpt>
      <trkpt lat="46.31506" lon="7.60956">
        <ele>643.59997558594</ele>
        <time>2023-04-04T15:30:46.000Z</time>
      </trkpt>
      <trkpt lat="46.31506" lon="7.60961">
        <ele>643.79998779297</ele>
        <time>2023-04-04T15:30:47.000Z</time>
      </trkpt>
      <trkpt lat="46.3151" lon="7.61003">
        <ele>644.59997558594</ele>
        <time>2023-04-04T15:30:55.000Z</time>
      </trkpt>
      <trkpt lat="46.3151" lon="7.61014">
        <ele>644.59997558594</ele>
        <time>2023-04-04T15:30:57.000Z</time>
      </trkpt>
      <trkpt lat="46.31515" lon="7.61053">
        <ele>645</ele>
        <time>2023-04-04T15:31:04.000Z</time>
      </trkpt>
      <trkpt lat="46.31525" lon="7.61122">
        <ele>645.40002441406</ele>
        <time>2023-04-04T15:31:16.000Z</time>
      </trkpt>
      <trkpt lat="46.31535" lon="7.61174">
        <ele>645.59997558594</ele>
        <time>2023-04-04T15:31:25.000Z</time>
      </trkpt>
      <trkpt lat="46.31536" lon="7.61181">
        <ele>645.59997558594</ele>
        <time>2023-04-04T15:31:26.000Z</time>
      </trkpt>
      <trkpt lat="46.31538" lon="7.61192">
        <ele>645.59997558594</ele>
        <time>2023-04-04T15:31:28.000Z</time>
      </trkpt>
      <trkpt lat="46.3154" lon="7.61209">
        <ele>645.79998779297</ele>
        <time>2023-04-04T15:31:31.000Z</time>
      </trkpt>
      <trkpt lat="46.31541" lon="7.61214">
        <ele>645.79998779297</ele>
        <time>2023-04-04T15:31:32.000Z</time>
      </trkpt>
      <trkpt lat="46.31542" lon="7.6122">
        <ele>645.79998779297</ele>
        <time>2023-04-04T15:31:33.000Z</time>
      </trkpt>
      <trkpt lat="46.31542" lon="7.61226">
        <ele>645.79998779297</ele>
        <time>2023-04-04T15:31:34.000Z</time>
      </trkpt>
      <trkpt lat="46.31543" lon="7.61232">
        <ele>645.79998779297</ele>
        <time>2023-04-04T15:31:35.000Z</time>
      </trkpt>
      <trkpt lat="46.31544" lon="7.61237">
        <ele>646</ele>
        <time>2023-04-04T15:31:36.000Z</time>
      </trkpt>
      <trkpt lat="46.31546" lon="7.61249">
        <ele>646</ele>
        <time>2023-04-04T15:31:38.000Z</time>
      </trkpt>
      <trkpt lat="46.31547" lon="7.6126">
        <ele>646.20001220703</ele>
        <time>2023-04-04T15:31:40.000Z</time>
      </trkpt>
      <trkpt lat="46.31552" lon="7.61288">
        <ele>646.40002441406</ele>
        <time>2023-04-04T15:31:45.000Z</time>
      </trkpt>
      <trkpt lat="46.31555" lon="7.61305">
        <ele>646.79998779297</ele>
        <time>2023-04-04T15:31:48.000Z</time>
      </trkpt>
      <trkpt lat="46.31557" lon="7.61316">
        <ele>646.79998779297</ele>
        <time>2023-04-04T15:31:50.000Z</time>
      </trkpt>
      <trkpt lat="46.31565" lon="7.61363">
        <ele>647</ele>
        <time>2023-04-04T15:31:58.000Z</time>
      </trkpt>
      <trkpt lat="46.31567" lon="7.61368">
        <ele>647</ele>
        <time>2023-04-04T15:31:59.000Z</time>
      </trkpt>
      <trkpt lat="46.31568" lon="7.61374">
        <ele>647</ele>
        <time>2023-04-04T15:32:00.000Z</time>
      </trkpt>
      <trkpt lat="46.31572" lon="7.61403">
        <ele>647.20001220703</ele>
        <time>2023-04-04T15:32:05.000Z</time>
      </trkpt>
      <trkpt lat="46.31574" lon="7.61416">
        <ele>647</ele>
        <time>2023-04-04T15:32:07.000Z</time>
      </trkpt>
      <trkpt lat="46.31578" lon="7.61439">
        <ele>647.20001220703</ele>
        <time>2023-04-04T15:32:11.000Z</time>
      </trkpt>
      <trkpt lat="46.31579" lon="7.61445">
        <ele>647.20001220703</ele>
        <time>2023-04-04T15:32:12.000Z</time>
      </trkpt>
      <trkpt lat="46.31582" lon="7.61469">
        <ele>647.59997558594</ele>
        <time>2023-04-04T15:32:16.000Z</time>
      </trkpt>
      <trkpt lat="46.31582" lon="7.6148">
        <ele>647.79998779297</ele>
        <time>2023-04-04T15:32:18.000Z</time>
      </trkpt>
      <trkpt lat="46.31582" lon="7.61486">
        <ele>647.79998779297</ele>
        <time>2023-04-04T15:32:19.000Z</time>
      </trkpt>
      <trkpt lat="46.31582" lon="7.61492">
        <ele>648</ele>
        <time>2023-04-04T15:32:20.000Z</time>
      </trkpt>
      <trkpt lat="46.31582" lon="7.61498">
        <ele>648</ele>
        <time>2023-04-04T15:32:21.000Z</time>
      </trkpt>
      <trkpt lat="46.31587" lon="7.6155">
        <ele>648.59997558594</ele>
        <time>2023-04-04T15:32:30.000Z</time>
      </trkpt>
      <trkpt lat="46.31592" lon="7.61602">
        <ele>649.40002441406</ele>
        <time>2023-04-04T15:32:39.000Z</time>
      </trkpt>
      <trkpt lat="46.31595" lon="7.61631">
        <ele>649.79998779297</ele>
        <time>2023-04-04T15:32:44.000Z</time>
      </trkpt>
      <trkpt lat="46.31596" lon="7.61637">
        <ele>649.79998779297</ele>
        <time>2023-04-04T15:32:45.000Z</time>
      </trkpt>
      <trkpt lat="46.316" lon="7.61661">
        <ele>650</ele>
        <time>2023-04-04T15:32:49.000Z</time>
      </trkpt>
      <trkpt lat="46.31602" lon="7.61673">
        <ele>650</ele>
        <time>2023-04-04T15:32:51.000Z</time>
      </trkpt>
      <trkpt lat="46.31606" lon="7.61696">
        <ele>650</ele>
        <time>2023-04-04T15:32:55.000Z</time>
      </trkpt>
      <trkpt lat="46.31613" lon="7.61726">
        <ele>650</ele>
        <time>2023-04-04T15:33:00.000Z</time>
      </trkpt>
      <trkpt lat="46.31624" lon="7.61779">
        <ele>650.20001220703</ele>
        <time>2023-04-04T15:33:09.000Z</time>
      </trkpt>
      <trkpt lat="46.31625" lon="7.61785">
        <ele>650.20001220703</ele>
        <time>2023-04-04T15:33:10.000Z</time>
      </trkpt>
      <trkpt lat="46.31627" lon="7.6179">
        <ele>650.40002441406</ele>
        <time>2023-04-04T15:33:11.000Z</time>
      </trkpt>
      <trkpt lat="46.31628" lon="7.61796">
        <ele>650.40002441406</ele>
        <time>2023-04-04T15:33:12.000Z</time>
      </trkpt>
      <trkpt lat="46.31629" lon="7.61801">
        <ele>650.40002441406</ele>
        <time>2023-04-04T15:33:13.000Z</time>
      </trkpt>
      <trkpt lat="46.3163" lon="7.61807">
        <ele>650.40002441406</ele>
        <time>2023-04-04T15:33:14.000Z</time>
      </trkpt>
      <trkpt lat="46.31634" lon="7.61825">
        <ele>650.59997558594</ele>
        <time>2023-04-04T15:33:17.000Z</time>
      </trkpt>
      <trkpt lat="46.31638" lon="7.61855">
        <ele>650.79998779297</ele>
        <time>2023-04-04T15:33:22.000Z</time>
      </trkpt>
      <trkpt lat="46.31642" lon="7.61878">
        <ele>650.79998779297</ele>
        <time>2023-04-04T15:33:26.000Z</time>
      </trkpt>
      <trkpt lat="46.31644" lon="7.61896">
        <ele>651</ele>
        <time>2023-04-04T15:33:29.000Z</time>
      </trkpt>
      <trkpt lat="46.31644" lon="7.61901">
        <ele>651</ele>
        <time>2023-04-04T15:33:30.000Z</time>
      </trkpt>
      <trkpt lat="46.31645" lon="7.61907">
        <ele>651</ele>
        <time>2023-04-04T15:33:31.000Z</time>
      </trkpt>
      <trkpt lat="46.31647" lon="7.61925">
        <ele>651.20001220703</ele>
        <time>2023-04-04T15:33:34.000Z</time>
      </trkpt>
      <trkpt lat="46.31649" lon="7.61954">
        <ele>651.20001220703</ele>
        <time>2023-04-04T15:33:39.000Z</time>
      </trkpt>
      <trkpt lat="46.31649" lon="7.6196">
        <ele>651.40002441406</ele>
        <time>2023-04-04T15:33:40.000Z</time>
      </trkpt>
      <trkpt lat="46.3165" lon="7.61984">
        <ele>651.40002441406</ele>
        <time>2023-04-04T15:33:44.000Z</time>
      </trkpt>
      <trkpt lat="46.31651" lon="7.62001">
        <ele>651.59997558594</ele>
        <time>2023-04-04T15:33:47.000Z</time>
      </trkpt>
      <trkpt lat="46.31652" lon="7.62012">
        <ele>651.79998779297</ele>
        <time>2023-04-04T15:33:49.000Z</time>
      </trkpt>
      <trkpt lat="46.31655" lon="7.62048">
        <ele>652</ele>
        <time>2023-04-04T15:33:55.000Z</time>
      </trkpt>
      <trkpt lat="46.31655" lon="7.62096">
        <ele>652.40002441406</ele>
        <time>2023-04-04T15:34:03.000Z</time>
      </trkpt>
      <trkpt lat="46.31655" lon="7.62114">
        <ele>652.40002441406</ele>
        <time>2023-04-04T15:34:06.000Z</time>
      </trkpt>
      <trkpt lat="46.31654" lon="7.62138">
        <ele>652.40002441406</ele>
        <time>2023-04-04T15:34:10.000Z</time>
      </trkpt>
      <trkpt lat="46.31652" lon="7.62168">
        <ele>652.59997558594</ele>
        <time>2023-04-04T15:34:15.000Z</time>
      </trkpt>
      <trkpt lat="46.31651" lon="7.62174">
        <ele>652.59997558594</ele>
        <time>2023-04-04T15:34:16.000Z</time>
      </trkpt>
      <trkpt lat="46.31651" lon="7.6218">
        <ele>652.59997558594</ele>
        <time>2023-04-04T15:34:17.000Z</time>
      </trkpt>
      <trkpt lat="46.31648" lon="7.62198">
        <ele>652.59997558594</ele>
        <time>2023-04-04T15:34:20.000Z</time>
      </trkpt>
      <trkpt lat="46.31642" lon="7.62244">
        <ele>652.79998779297</ele>
        <time>2023-04-04T15:34:28.000Z</time>
      </trkpt>
      <trkpt lat="46.31641" lon="7.6225">
        <ele>652.79998779297</ele>
        <time>2023-04-04T15:34:29.000Z</time>
      </trkpt>
      <trkpt lat="46.31639" lon="7.62262">
        <ele>653</ele>
        <time>2023-04-04T15:34:31.000Z</time>
      </trkpt>
      <trkpt lat="46.31627" lon="7.62332">
        <ele>653.59997558594</ele>
        <time>2023-04-04T15:34:43.000Z</time>
      </trkpt>
      <trkpt lat="46.31622" lon="7.62367">
        <ele>653.79998779297</ele>
        <time>2023-04-04T15:34:49.000Z</time>
      </trkpt>
      <trkpt lat="46.31615" lon="7.62409">
        <ele>654.20001220703</ele>
        <time>2023-04-04T15:34:56.000Z</time>
      </trkpt>
      <trkpt lat="46.31614" lon="7.62415">
        <ele>654.20001220703</ele>
        <time>2023-04-04T15:34:57.000Z</time>
      </trkpt>
      <trkpt lat="46.31602" lon="7.62483">
        <ele>654.20001220703</ele>
        <time>2023-04-04T15:35:08.000Z</time>
      </trkpt>
      <trkpt lat="46.31598" lon="7.62505">
        <ele>654.20001220703</ele>
        <time>2023-04-04T15:35:12.000Z</time>
      </trkpt>
      <trkpt lat="46.31597" lon="7.62511">
        <ele>654.20001220703</ele>
        <time>2023-04-04T15:35:13.000Z</time>
      </trkpt>
      <trkpt lat="46.31593" lon="7.62529">
        <ele>654.40002441406</ele>
        <time>2023-04-04T15:35:16.000Z</time>
      </trkpt>
      <trkpt lat="46.31587" lon="7.62564">
        <ele>654.59997558594</ele>
        <time>2023-04-04T15:35:22.000Z</time>
      </trkpt>
      <trkpt lat="46.31582" lon="7.62593">
        <ele>655.20001220703</ele>
        <time>2023-04-04T15:35:27.000Z</time>
      </trkpt>
      <trkpt lat="46.31581" lon="7.62598">
        <ele>655.40002441406</ele>
        <time>2023-04-04T15:35:28.000Z</time>
      </trkpt>
      <trkpt lat="46.3158" lon="7.62603">
        <ele>655.40002441406</ele>
        <time>2023-04-04T15:35:29.000Z</time>
      </trkpt>
      <trkpt lat="46.31577" lon="7.6262">
        <ele>655.59997558594</ele>
        <time>2023-04-04T15:35:32.000Z</time>
      </trkpt>
      <trkpt lat="46.31576" lon="7.62631">
        <ele>655.59997558594</ele>
        <time>2023-04-04T15:35:34.000Z</time>
      </trkpt>
      <trkpt lat="46.31575" lon="7.62637">
        <ele>655.59997558594</ele>
        <time>2023-04-04T15:35:35.000Z</time>
      </trkpt>
      <trkpt lat="46.3157" lon="7.62666">
        <ele>655.79998779297</ele>
        <time>2023-04-04T15:35:40.000Z</time>
      </trkpt>
      <trkpt lat="46.31557" lon="7.62739">
        <ele>656</ele>
        <time>2023-04-04T15:35:52.000Z</time>
      </trkpt>
      <trkpt lat="46.31551" lon="7.62768">
        <ele>656.40002441406</ele>
        <time>2023-04-04T15:35:57.000Z</time>
      </trkpt>
      <trkpt lat="46.3155" lon="7.62773">
        <ele>656.59997558594</ele>
        <time>2023-04-04T15:35:58.000Z</time>
      </trkpt>
      <trkpt lat="46.31548" lon="7.62779">
        <ele>656.59997558594</ele>
        <time>2023-04-04T15:35:59.000Z</time>
      </trkpt>
      <trkpt lat="46.31544" lon="7.62791">
        <ele>656.79998779297</ele>
        <time>2023-04-04T15:36:01.000Z</time>
      </trkpt>
      <trkpt lat="46.31537" lon="7.62813">
        <ele>657</ele>
        <time>2023-04-04T15:36:05.000Z</time>
      </trkpt>
      <trkpt lat="46.31536" lon="7.62818">
        <ele>657</ele>
        <time>2023-04-04T15:36:06.000Z</time>
      </trkpt>
      <trkpt lat="46.3153" lon="7.62835">
        <ele>657.20001220703</ele>
        <time>2023-04-04T15:36:09.000Z</time>
      </trkpt>
      <trkpt lat="46.31529" lon="7.6284">
        <ele>657.20001220703</ele>
        <time>2023-04-04T15:36:10.000Z</time>
      </trkpt>
      <trkpt lat="46.31527" lon="7.62845">
        <ele>657.20001220703</ele>
        <time>2023-04-04T15:36:11.000Z</time>
      </trkpt>
      <trkpt lat="46.31525" lon="7.62849">
        <ele>657.40002441406</ele>
        <time>2023-04-04T15:36:12.000Z</time>
      </trkpt>
      <trkpt lat="46.31523" lon="7.62854">
        <ele>657.40002441406</ele>
        <time>2023-04-04T15:36:13.000Z</time>
      </trkpt>
      <trkpt lat="46.31521" lon="7.62858">
        <ele>657.59997558594</ele>
        <time>2023-04-04T15:36:14.000Z</time>
      </trkpt>
      <trkpt lat="46.31519" lon="7.62863">
        <ele>657.59997558594</ele>
        <time>2023-04-04T15:36:15.000Z</time>
      </trkpt>
      <trkpt lat="46.31517" lon="7.62868">
        <ele>657.79998779297</ele>
        <time>2023-04-04T15:36:16.000Z</time>
      </trkpt>
      <trkpt lat="46.31515" lon="7.62873">
        <ele>657.79998779297</ele>
        <time>2023-04-04T15:36:17.000Z</time>
      </trkpt>
      <trkpt lat="46.31513" lon="7.62878">
        <ele>657.79998779297</ele>
        <time>2023-04-04T15:36:18.000Z</time>
      </trkpt>
      <trkpt lat="46.31509" lon="7.62887">
        <ele>658</ele>
        <time>2023-04-04T15:36:20.000Z</time>
      </trkpt>
      <trkpt lat="46.31491" lon="7.62927">
        <ele>658.20001220703</ele>
        <time>2023-04-04T15:36:28.000Z</time>
      </trkpt>
      <trkpt lat="46.31484" lon="7.6294">
        <ele>658.40002441406</ele>
        <time>2023-04-04T15:36:31.000Z</time>
      </trkpt>
      <trkpt lat="46.31482" lon="7.62944">
        <ele>658.40002441406</ele>
        <time>2023-04-04T15:36:32.000Z</time>
      </trkpt>
      <trkpt lat="46.3148" lon="7.62949">
        <ele>658.40002441406</ele>
        <time>2023-04-04T15:36:33.000Z</time>
      </trkpt>
      <trkpt lat="46.31478" lon="7.62954">
        <ele>658.59997558594</ele>
        <time>2023-04-04T15:36:34.000Z</time>
      </trkpt>
      <trkpt lat="46.31469" lon="7.62972">
        <ele>658.79998779297</ele>
        <time>2023-04-04T15:36:38.000Z</time>
      </trkpt>
      <trkpt lat="46.31441" lon="7.63022">
        <ele>659.20001220703</ele>
        <time>2023-04-04T15:36:49.000Z</time>
      </trkpt>
      <trkpt lat="46.31412" lon="7.63072">
        <ele>659.40002441406</ele>
        <time>2023-04-04T15:37:00.000Z</time>
      </trkpt>
      <trkpt lat="46.31409" lon="7.63077">
        <ele>659.40002441406</ele>
        <time>2023-04-04T15:37:01.000Z</time>
      </trkpt>
      <trkpt lat="46.31407" lon="7.63081">
        <ele>659.79998779297</ele>
        <time>2023-04-04T15:37:02.000Z</time>
      </trkpt>
      <trkpt lat="46.31405" lon="7.63085">
        <ele>659.59997558594</ele>
        <time>2023-04-04T15:37:03.000Z</time>
      </trkpt>
      <trkpt lat="46.31402" lon="7.6309">
        <ele>659.59997558594</ele>
        <time>2023-04-04T15:37:04.000Z</time>
      </trkpt>
      <trkpt lat="46.31395" lon="7.63103">
        <ele>660</ele>
        <time>2023-04-04T15:37:07.000Z</time>
      </trkpt>
      <trkpt lat="46.31393" lon="7.63107">
        <ele>660</ele>
        <time>2023-04-04T15:37:08.000Z</time>
      </trkpt>
      <trkpt lat="46.3139" lon="7.63111">
        <ele>660</ele>
        <time>2023-04-04T15:37:09.000Z</time>
      </trkpt>
      <trkpt lat="46.31388" lon="7.63116">
        <ele>660</ele>
        <time>2023-04-04T15:37:10.000Z</time>
      </trkpt>
      <trkpt lat="46.31385" lon="7.6312">
        <ele>660</ele>
        <time>2023-04-04T15:37:11.000Z</time>
      </trkpt>
      <trkpt lat="46.31383" lon="7.63125">
        <ele>660</ele>
        <time>2023-04-04T15:37:12.000Z</time>
      </trkpt>
      <trkpt lat="46.3138" lon="7.63129">
        <ele>660.20001220703</ele>
        <time>2023-04-04T15:37:13.000Z</time>
      </trkpt>
      <trkpt lat="46.31365" lon="7.63157">
        <ele>660.79998779297</ele>
        <time>2023-04-04T15:37:19.000Z</time>
      </trkpt>
      <trkpt lat="46.31356" lon="7.63175">
        <ele>661.40002441406</ele>
        <time>2023-04-04T15:37:23.000Z</time>
      </trkpt>
      <trkpt lat="46.31339" lon="7.63207">
        <ele>662</ele>
        <time>2023-04-04T15:37:30.000Z</time>
      </trkpt>
      <trkpt lat="46.31327" lon="7.63231">
        <ele>662.20001220703</ele>
        <time>2023-04-04T15:37:35.000Z</time>
      </trkpt>
      <trkpt lat="46.31304" lon="7.6328">
        <ele>662.59997558594</ele>
        <time>2023-04-04T15:37:45.000Z</time>
      </trkpt>
      <trkpt lat="46.31302" lon="7.63285">
        <ele>662.59997558594</ele>
        <time>2023-04-04T15:37:46.000Z</time>
      </trkpt>
      <trkpt lat="46.31287" lon="7.63329">
        <ele>662.59997558594</ele>
        <time>2023-04-04T15:37:54.000Z</time>
      </trkpt>
      <trkpt lat="46.31286" lon="7.63335">
        <ele>662.59997558594</ele>
        <time>2023-04-04T15:37:55.000Z</time>
      </trkpt>
      <trkpt lat="46.31276" lon="7.63368">
        <ele>663</ele>
        <time>2023-04-04T15:38:00.000Z</time>
      </trkpt>
      <trkpt lat="46.31253" lon="7.63522">
        <ele>663.79998779297</ele>
        <time>2023-04-04T15:38:20.000Z</time>
      </trkpt>
      <trkpt lat="46.31254" lon="7.63527">
        <ele>663.79998779297</ele>
        <time>2023-04-04T15:38:21.000Z</time>
      </trkpt>
      <trkpt lat="46.31254" lon="7.63532">
        <ele>664</ele>
        <time>2023-04-04T15:38:22.000Z</time>
      </trkpt>
      <trkpt lat="46.31254" lon="7.63538">
        <ele>664</ele>
        <time>2023-04-04T15:38:23.000Z</time>
      </trkpt>
      <trkpt lat="46.31254" lon="7.63545">
        <ele>664</ele>
        <time>2023-04-04T15:38:24.000Z</time>
      </trkpt>
      <trkpt lat="46.31257" lon="7.63566">
        <ele>664.20001220703</ele>
        <time>2023-04-04T15:38:27.000Z</time>
      </trkpt>
      <trkpt lat="46.31256" lon="7.63573">
        <ele>664.20001220703</ele>
        <time>2023-04-04T15:38:28.000Z</time>
      </trkpt>
      <trkpt lat="46.31257" lon="7.63579">
        <ele>664.20001220703</ele>
        <time>2023-04-04T15:38:29.000Z</time>
      </trkpt>
      <trkpt lat="46.31257" lon="7.63592">
        <ele>664.20001220703</ele>
        <time>2023-04-04T15:38:31.000Z</time>
      </trkpt>
      <trkpt lat="46.31258" lon="7.63599">
        <ele>664.40002441406</ele>
        <time>2023-04-04T15:38:32.000Z</time>
      </trkpt>
      <trkpt lat="46.31258" lon="7.63605">
        <ele>664.40002441406</ele>
        <time>2023-04-04T15:38:33.000Z</time>
      </trkpt>
      <trkpt lat="46.31259" lon="7.63632">
        <ele>664.79998779297</ele>
        <time>2023-04-04T15:38:37.000Z</time>
      </trkpt>
      <trkpt lat="46.3126" lon="7.63657">
        <ele>665.20001220703</ele>
        <time>2023-04-04T15:38:41.000Z</time>
      </trkpt>
      <trkpt lat="46.31261" lon="7.63689">
        <ele>665.20001220703</ele>
        <time>2023-04-04T15:38:46.000Z</time>
      </trkpt>
      <trkpt lat="46.31262" lon="7.63701">
        <ele>665.40002441406</ele>
        <time>2023-04-04T15:38:48.000Z</time>
      </trkpt>
      <trkpt lat="46.31261" lon="7.63706">
        <ele>665.40002441406</ele>
        <time>2023-04-04T15:38:49.000Z</time>
      </trkpt>
      <trkpt lat="46.31261" lon="7.63712">
        <ele>665.40002441406</ele>
        <time>2023-04-04T15:38:50.000Z</time>
      </trkpt>
      <trkpt lat="46.31261" lon="7.63718">
        <ele>665.59997558594</ele>
        <time>2023-04-04T15:38:51.000Z</time>
      </trkpt>
      <trkpt lat="46.3126" lon="7.63724">
        <ele>665.59997558594</ele>
        <time>2023-04-04T15:38:52.000Z</time>
      </trkpt>
      <trkpt lat="46.3126" lon="7.63731">
        <ele>665.59997558594</ele>
        <time>2023-04-04T15:38:53.000Z</time>
      </trkpt>
      <trkpt lat="46.3126" lon="7.63737">
        <ele>665.79998779297</ele>
        <time>2023-04-04T15:38:54.000Z</time>
      </trkpt>
      <trkpt lat="46.3126" lon="7.63743">
        <ele>665.79998779297</ele>
        <time>2023-04-04T15:38:55.000Z</time>
      </trkpt>
      <trkpt lat="46.3126" lon="7.63749">
        <ele>666</ele>
        <time>2023-04-04T15:38:56.000Z</time>
      </trkpt>
      <trkpt lat="46.31259" lon="7.63761">
        <ele>666.20001220703</ele>
        <time>2023-04-04T15:38:58.000Z</time>
      </trkpt>
      <trkpt lat="46.31257" lon="7.63775">
        <ele>666.20001220703</ele>
        <time>2023-04-04T15:39:00.000Z</time>
      </trkpt>
      <trkpt lat="46.3125" lon="7.63818">
        <ele>666.40002441406</ele>
        <time>2023-04-04T15:39:07.000Z</time>
      </trkpt>
      <trkpt lat="46.31235" lon="7.63879">
        <ele>666.79998779297</ele>
        <time>2023-04-04T15:39:17.000Z</time>
      </trkpt>
      <trkpt lat="46.31229" lon="7.63903">
        <ele>667</ele>
        <time>2023-04-04T15:39:21.000Z</time>
      </trkpt>
      <trkpt lat="46.31226" lon="7.63915">
        <ele>667</ele>
        <time>2023-04-04T15:39:23.000Z</time>
      </trkpt>
      <trkpt lat="46.31225" lon="7.6392">
        <ele>667</ele>
        <time>2023-04-04T15:39:24.000Z</time>
      </trkpt>
      <trkpt lat="46.31223" lon="7.63925">
        <ele>667</ele>
        <time>2023-04-04T15:39:25.000Z</time>
      </trkpt>
      <trkpt lat="46.31222" lon="7.6393">
        <ele>667.20001220703</ele>
        <time>2023-04-04T15:39:26.000Z</time>
      </trkpt>
      <trkpt lat="46.3122" lon="7.63935">
        <ele>667.20001220703</ele>
        <time>2023-04-04T15:39:27.000Z</time>
      </trkpt>
      <trkpt lat="46.31219" lon="7.63938">
        <ele>667.40002441406</ele>
        <time>2023-04-04T15:39:28.000Z</time>
      </trkpt>
      <trkpt lat="46.31217" lon="7.63941">
        <ele>667.59997558594</ele>
        <time>2023-04-04T15:39:29.000Z</time>
      </trkpt>
      <trkpt lat="46.31216" lon="7.63944">
        <ele>667.59997558594</ele>
        <time>2023-04-04T15:39:30.000Z</time>
      </trkpt>
      <trkpt lat="46.31214" lon="7.63946">
        <ele>667.79998779297</ele>
        <time>2023-04-04T15:39:31.000Z</time>
      </trkpt>
      <trkpt lat="46.31212" lon="7.63948">
        <ele>667.79998779297</ele>
        <time>2023-04-04T15:39:32.000Z</time>
      </trkpt>
      <trkpt lat="46.31211" lon="7.63949">
        <ele>667.79998779297</ele>
        <time>2023-04-04T15:39:33.000Z</time>
      </trkpt>
      <trkpt lat="46.3121" lon="7.63949">
        <ele>667.79998779297</ele>
        <time>2023-04-04T15:39:34.000Z</time>
      </trkpt>
      <trkpt lat="46.3121" lon="7.63949">
        <ele>667.79998779297</ele>
        <time>2023-04-04T15:39:36.000Z</time>
      </trkpt>
      <trkpt lat="46.31207" lon="7.63952">
        <ele>668.20001220703</ele>
        <time>2023-04-04T15:39:46.000Z</time>
      </trkpt>
      <trkpt lat="46.31202" lon="7.63953">
        <ele>668</ele>
        <time>2023-04-04T15:39:48.000Z</time>
      </trkpt>
      <trkpt lat="46.312" lon="7.63954">
        <ele>668</ele>
        <time>2023-04-04T15:39:49.000Z</time>
      </trkpt>
      <trkpt lat="46.31195" lon="7.63958">
        <ele>668.20001220703</ele>
        <time>2023-04-04T15:39:51.000Z</time>
      </trkpt>
      <trkpt lat="46.31193" lon="7.63962">
        <ele>668.20001220703</ele>
        <time>2023-04-04T15:39:52.000Z</time>
      </trkpt>
      <trkpt lat="46.31192" lon="7.63966">
        <ele>668.20001220703</ele>
        <time>2023-04-04T15:39:53.000Z</time>
      </trkpt>
      <trkpt lat="46.31191" lon="7.63976">
        <ele>668</ele>
        <time>2023-04-04T15:39:55.000Z</time>
      </trkpt>
      <trkpt lat="46.31191" lon="7.63982">
        <ele>668</ele>
        <time>2023-04-04T15:39:56.000Z</time>
      </trkpt>
      <trkpt lat="46.31191" lon="7.63987">
        <ele>668.20001220703</ele>
        <time>2023-04-04T15:39:57.000Z</time>
      </trkpt>
      <trkpt lat="46.31191" lon="7.63992">
        <ele>668.20001220703</ele>
        <time>2023-04-04T15:39:58.000Z</time>
      </trkpt>
      <trkpt lat="46.31188" lon="7.64036">
        <ele>668.20001220703</ele>
        <time>2023-04-04T15:40:06.000Z</time>
      </trkpt>
      <trkpt lat="46.31183" lon="7.6407">
        <ele>668.59997558594</ele>
        <time>2023-04-04T15:40:12.000Z</time>
      </trkpt>
      <trkpt lat="46.31183" lon="7.64075">
        <ele>668.79998779297</ele>
        <time>2023-04-04T15:40:13.000Z</time>
      </trkpt>
      <trkpt lat="46.31182" lon="7.6408">
        <ele>668.79998779297</ele>
        <time>2023-04-04T15:40:14.000Z</time>
      </trkpt>
      <trkpt lat="46.31179" lon="7.64097">
        <ele>669.20001220703</ele>
        <time>2023-04-04T15:40:17.000Z</time>
      </trkpt>
      <trkpt lat="46.31176" lon="7.64113">
        <ele>669.79998779297</ele>
        <time>2023-04-04T15:40:20.000Z</time>
      </trkpt>
      <trkpt lat="46.31174" lon="7.64125">
        <ele>670</ele>
        <time>2023-04-04T15:40:22.000Z</time>
      </trkpt>
      <trkpt lat="46.3117" lon="7.64143">
        <ele>670.20001220703</ele>
        <time>2023-04-04T15:40:25.000Z</time>
      </trkpt>
      <trkpt lat="46.31161" lon="7.64172">
        <ele>670.59997558594</ele>
        <time>2023-04-04T15:40:30.000Z</time>
      </trkpt>
      <trkpt lat="46.31159" lon="7.64178">
        <ele>670.59997558594</ele>
        <time>2023-04-04T15:40:31.000Z</time>
      </trkpt>
      <trkpt lat="46.31141" lon="7.64221">
        <ele>671.40002441406</ele>
        <time>2023-04-04T15:40:39.000Z</time>
      </trkpt>
      <trkpt lat="46.31135" lon="7.64236">
        <ele>671.59997558594</ele>
        <time>2023-04-04T15:40:42.000Z</time>
      </trkpt>
      <trkpt lat="46.31133" lon="7.64241">
        <ele>671.59997558594</ele>
        <time>2023-04-04T15:40:43.000Z</time>
      </trkpt>
      <trkpt lat="46.31131" lon="7.64246">
        <ele>671.79998779297</ele>
        <time>2023-04-04T15:40:44.000Z</time>
      </trkpt>
      <trkpt lat="46.31129" lon="7.64251">
        <ele>671.79998779297</ele>
        <time>2023-04-04T15:40:45.000Z</time>
      </trkpt>
      <trkpt lat="46.31127" lon="7.64255">
        <ele>672</ele>
        <time>2023-04-04T15:40:46.000Z</time>
      </trkpt>
      <trkpt lat="46.31124" lon="7.6426">
        <ele>672</ele>
        <time>2023-04-04T15:40:47.000Z</time>
      </trkpt>
      <trkpt lat="46.31122" lon="7.64264">
        <ele>672.20001220703</ele>
        <time>2023-04-04T15:40:48.000Z</time>
      </trkpt>
      <trkpt lat="46.3112" lon="7.64269">
        <ele>672.20001220703</ele>
        <time>2023-04-04T15:40:49.000Z</time>
      </trkpt>
      <trkpt lat="46.31118" lon="7.64273">
        <ele>672.20001220703</ele>
        <time>2023-04-04T15:40:50.000Z</time>
      </trkpt>
      <trkpt lat="46.31116" lon="7.64277">
        <ele>672.40002441406</ele>
        <time>2023-04-04T15:40:51.000Z</time>
      </trkpt>
      <trkpt lat="46.31115" lon="7.64281">
        <ele>672.40002441406</ele>
        <time>2023-04-04T15:40:52.000Z</time>
      </trkpt>
      <trkpt lat="46.31112" lon="7.64285">
        <ele>672.40002441406</ele>
        <time>2023-04-04T15:40:53.000Z</time>
      </trkpt>
      <trkpt lat="46.31111" lon="7.64289">
        <ele>672.59997558594</ele>
        <time>2023-04-04T15:40:54.000Z</time>
      </trkpt>
      <trkpt lat="46.31109" lon="7.64293">
        <ele>672.59997558594</ele>
        <time>2023-04-04T15:40:55.000Z</time>
      </trkpt>
      <trkpt lat="46.31108" lon="7.64295">
        <ele>672.79998779297</ele>
        <time>2023-04-04T15:40:56.000Z</time>
      </trkpt>
      <trkpt lat="46.31107" lon="7.64298">
        <ele>672.79998779297</ele>
        <time>2023-04-04T15:40:57.000Z</time>
      </trkpt>
      <trkpt lat="46.31106" lon="7.643">
        <ele>673</ele>
        <time>2023-04-04T15:40:58.000Z</time>
      </trkpt>
      <trkpt lat="46.31105" lon="7.64303">
        <ele>673</ele>
        <time>2023-04-04T15:40:59.000Z</time>
      </trkpt>
      <trkpt lat="46.31104" lon="7.64305">
        <ele>673.20001220703</ele>
        <time>2023-04-04T15:41:00.000Z</time>
      </trkpt>
      <trkpt lat="46.31097" lon="7.64316">
        <ele>673.20001220703</ele>
        <time>2023-04-04T15:41:04.000Z</time>
      </trkpt>
      <trkpt lat="46.31093" lon="7.6432">
        <ele>673.40002441406</ele>
        <time>2023-04-04T15:41:06.000Z</time>
      </trkpt>
      <trkpt lat="46.31091" lon="7.64321">
        <ele>673.40002441406</ele>
        <time>2023-04-04T15:41:07.000Z</time>
      </trkpt>
      <trkpt lat="46.31089" lon="7.64321">
        <ele>673.59997558594</ele>
        <time>2023-04-04T15:41:08.000Z</time>
      </trkpt>
      <trkpt lat="46.31087" lon="7.6432">
        <ele>673.59997558594</ele>
        <time>2023-04-04T15:41:09.000Z</time>
      </trkpt>
      <trkpt lat="46.31085" lon="7.64319">
        <ele>673.79998779297</ele>
        <time>2023-04-04T15:41:10.000Z</time>
      </trkpt>
      <trkpt lat="46.31083" lon="7.64317">
        <ele>673.79998779297</ele>
        <time>2023-04-04T15:41:11.000Z</time>
      </trkpt>
      <trkpt lat="46.31081" lon="7.64315">
        <ele>674</ele>
        <time>2023-04-04T15:41:12.000Z</time>
      </trkpt>
      <trkpt lat="46.31081" lon="7.64312">
        <ele>674.40002441406</ele>
        <time>2023-04-04T15:41:13.000Z</time>
      </trkpt>
      <trkpt lat="46.3108" lon="7.64309">
        <ele>674.40002441406</ele>
        <time>2023-04-04T15:41:14.000Z</time>
      </trkpt>
      <trkpt lat="46.3108" lon="7.64306">
        <ele>674.59997558594</ele>
        <time>2023-04-04T15:41:15.000Z</time>
      </trkpt>
      <trkpt lat="46.3108" lon="7.64304">
        <ele>674.79998779297</ele>
        <time>2023-04-04T15:41:16.000Z</time>
      </trkpt>
      <trkpt lat="46.3108" lon="7.643">
        <ele>675</ele>
        <time>2023-04-04T15:41:17.000Z</time>
      </trkpt>
      <trkpt lat="46.31081" lon="7.64297">
        <ele>675.20001220703</ele>
        <time>2023-04-04T15:41:18.000Z</time>
      </trkpt>
      <trkpt lat="46.31081" lon="7.64294">
        <ele>675.40002441406</ele>
        <time>2023-04-04T15:41:19.000Z</time>
      </trkpt>
      <trkpt lat="46.31081" lon="7.64292">
        <ele>675.59997558594</ele>
        <time>2023-04-04T15:41:20.000Z</time>
      </trkpt>
      <trkpt lat="46.31081" lon="7.64288">
        <ele>675.59997558594</ele>
        <time>2023-04-04T15:41:21.000Z</time>
      </trkpt>
      <trkpt lat="46.31081" lon="7.64285">
        <ele>676.20001220703</ele>
        <time>2023-04-04T15:41:22.000Z</time>
      </trkpt>
      <trkpt lat="46.31081" lon="7.64282">
        <ele>676.20001220703</ele>
        <time>2023-04-04T15:41:23.000Z</time>
      </trkpt>
      <trkpt lat="46.31081" lon="7.64279">
        <ele>676.40002441406</ele>
        <time>2023-04-04T15:41:24.000Z</time>
      </trkpt>
      <trkpt lat="46.31081" lon="7.64275">
        <ele>676.20001220703</ele>
        <time>2023-04-04T15:41:25.000Z</time>
      </trkpt>
      <trkpt lat="46.31082" lon="7.64271">
        <ele>676.40002441406</ele>
        <time>2023-04-04T15:41:26.000Z</time>
      </trkpt>
      <trkpt lat="46.31082" lon="7.64267">
        <ele>676.20001220703</ele>
        <time>2023-04-04T15:41:27.000Z</time>
      </trkpt>
      <trkpt lat="46.31083" lon="7.64263">
        <ele>676.20001220703</ele>
        <time>2023-04-04T15:41:28.000Z</time>
      </trkpt>
      <trkpt lat="46.31083" lon="7.6426">
        <ele>676.20001220703</ele>
        <time>2023-04-04T15:41:29.000Z</time>
      </trkpt>
      <trkpt lat="46.31084" lon="7.64257">
        <ele>676.20001220703</ele>
        <time>2023-04-04T15:41:30.000Z</time>
      </trkpt>
      <trkpt lat="46.31085" lon="7.64253">
        <ele>676.20001220703</ele>
        <time>2023-04-04T15:41:31.000Z</time>
      </trkpt>
      <trkpt lat="46.31085" lon="7.6425">
        <ele>676.20001220703</ele>
        <time>2023-04-04T15:41:32.000Z</time>
      </trkpt>
      <trkpt lat="46.31086" lon="7.64248">
        <ele>676</ele>
        <time>2023-04-04T15:41:33.000Z</time>
      </trkpt>
      <trkpt lat="46.31086" lon="7.64247">
        <ele>676</ele>
        <time>2023-04-04T15:41:34.000Z</time>
      </trkpt>
      <trkpt lat="46.31086" lon="7.64247">
        <ele>676</ele>
        <time>2023-04-04T15:41:36.000Z</time>
      </trkpt>
      <trkpt lat="46.31086" lon="7.64242">
        <ele>675.40002441406</ele>
        <time>2023-04-04T15:42:30.000Z</time>
      </trkpt>
      <trkpt lat="46.31091" lon="7.64221">
        <ele>675.20001220703</ele>
        <time>2023-04-04T15:42:36.000Z</time>
      </trkpt>
      <trkpt lat="46.31096" lon="7.64194">
        <ele>675.40002441406</ele>
        <time>2023-04-04T15:42:43.000Z</time>
      </trkpt>
      <trkpt lat="46.31098" lon="7.64184">
        <ele>675.20001220703</ele>
        <time>2023-04-04T15:42:46.000Z</time>
      </trkpt>
      <trkpt lat="46.31099" lon="7.6418">
        <ele>675.20001220703</ele>
        <time>2023-04-04T15:42:47.000Z</time>
      </trkpt>
      <trkpt lat="46.31101" lon="7.64172">
        <ele>675.40002441406</ele>
        <time>2023-04-04T15:42:49.000Z</time>
      </trkpt>
      <trkpt lat="46.31111" lon="7.64138">
        <ele>675.59997558594</ele>
        <time>2023-04-04T15:42:57.000Z</time>
      </trkpt>
      <trkpt lat="46.31121" lon="7.64106">
        <ele>676</ele>
        <time>2023-04-04T15:43:04.000Z</time>
      </trkpt>
      <trkpt lat="46.31132" lon="7.64084">
        <ele>675.59997558594</ele>
        <time>2023-04-04T15:43:09.000Z</time>
      </trkpt>
      <trkpt lat="46.31143" lon="7.64058">
        <ele>675.40002441406</ele>
        <time>2023-04-04T15:43:14.000Z</time>
      </trkpt>
      <trkpt lat="46.31146" lon="7.64047">
        <ele>675.20001220703</ele>
        <time>2023-04-04T15:43:16.000Z</time>
      </trkpt>
      <trkpt lat="46.31147" lon="7.64037">
        <ele>674.79998779297</ele>
        <time>2023-04-04T15:43:18.000Z</time>
      </trkpt>
      <trkpt lat="46.31148" lon="7.64033">
        <ele>674.79998779297</ele>
        <time>2023-04-04T15:43:19.000Z</time>
      </trkpt>
      <trkpt lat="46.3115" lon="7.6403">
        <ele>674.59997558594</ele>
        <time>2023-04-04T15:43:20.000Z</time>
      </trkpt>
      <trkpt lat="46.31151" lon="7.64026">
        <ele>674.40002441406</ele>
        <time>2023-04-04T15:43:21.000Z</time>
      </trkpt>
      <trkpt lat="46.31153" lon="7.64018">
        <ele>673.79998779297</ele>
        <time>2023-04-04T15:43:23.000Z</time>
      </trkpt>
      <trkpt lat="46.31154" lon="7.64009">
        <ele>673.40002441406</ele>
        <time>2023-04-04T15:43:25.000Z</time>
      </trkpt>
      <trkpt lat="46.31151" lon="7.64001">
        <ele>673.40002441406</ele>
        <time>2023-04-04T15:43:27.000Z</time>
      </trkpt>
      <trkpt lat="46.31149" lon="7.64">
        <ele>673.40002441406</ele>
        <time>2023-04-04T15:43:28.000Z</time>
      </trkpt>
      <trkpt lat="46.31146" lon="7.63998">
        <ele>673.20001220703</ele>
        <time>2023-04-04T15:43:29.000Z</time>
      </trkpt>
      <trkpt lat="46.31145" lon="7.63996">
        <ele>673.20001220703</ele>
        <time>2023-04-04T15:43:30.000Z</time>
      </trkpt>
      <trkpt lat="46.31143" lon="7.63995">
        <ele>673.20001220703</ele>
        <time>2023-04-04T15:43:31.000Z</time>
      </trkpt>
      <trkpt lat="46.31142" lon="7.63993">
        <ele>673.20001220703</ele>
        <time>2023-04-04T15:43:32.000Z</time>
      </trkpt>
      <trkpt lat="46.3114" lon="7.63991">
        <ele>673.20001220703</ele>
        <time>2023-04-04T15:43:33.000Z</time>
      </trkpt>
      <trkpt lat="46.31137" lon="7.63988">
        <ele>673.40002441406</ele>
        <time>2023-04-04T15:43:35.000Z</time>
      </trkpt>
      <trkpt lat="46.31136" lon="7.63987">
        <ele>673.40002441406</ele>
        <time>2023-04-04T15:43:36.000Z</time>
      </trkpt>
      <trkpt lat="46.31134" lon="7.63986">
        <ele>673.59997558594</ele>
        <time>2023-04-04T15:43:37.000Z</time>
      </trkpt>
      <trkpt lat="46.31132" lon="7.63985">
        <ele>673.79998779297</ele>
        <time>2023-04-04T15:43:38.000Z</time>
      </trkpt>
      <trkpt lat="46.31128" lon="7.63983">
        <ele>674</ele>
        <time>2023-04-04T15:43:40.000Z</time>
      </trkpt>
      <trkpt lat="46.31122" lon="7.63981">
        <ele>674.59997558594</ele>
        <time>2023-04-04T15:43:43.000Z</time>
      </trkpt>
      <trkpt lat="46.3112" lon="7.6398">
        <ele>674.79998779297</ele>
        <time>2023-04-04T15:43:44.000Z</time>
      </trkpt>
      <trkpt lat="46.3111" lon="7.6398">
        <ele>675.40002441406</ele>
        <time>2023-04-04T15:43:49.000Z</time>
      </trkpt>
      <trkpt lat="46.31105" lon="7.6398">
        <ele>675.59997558594</ele>
        <time>2023-04-04T15:43:51.000Z</time>
      </trkpt>
      <trkpt lat="46.31103" lon="7.63981">
        <ele>675.79998779297</ele>
        <time>2023-04-04T15:43:52.000Z</time>
      </trkpt>
      <trkpt lat="46.31101" lon="7.63981">
        <ele>676.20001220703</ele>
        <time>2023-04-04T15:43:53.000Z</time>
      </trkpt>
      <trkpt lat="46.31092" lon="7.63983">
        <ele>677</ele>
        <time>2023-04-04T15:43:57.000Z</time>
      </trkpt>
      <trkpt lat="46.31088" lon="7.63983">
        <ele>677.40002441406</ele>
        <time>2023-04-04T15:43:59.000Z</time>
      </trkpt>
      <trkpt lat="46.31086" lon="7.63983">
        <ele>677.59997558594</ele>
        <time>2023-04-04T15:44:00.000Z</time>
      </trkpt>
      <trkpt lat="46.31085" lon="7.63984">
        <ele>677.79998779297</ele>
        <time>2023-04-04T15:44:01.000Z</time>
      </trkpt>
      <trkpt lat="46.31083" lon="7.63984">
        <ele>678</ele>
        <time>2023-04-04T15:44:02.000Z</time>
      </trkpt>
      <trkpt lat="46.31081" lon="7.63985">
        <ele>678.20001220703</ele>
        <time>2023-04-04T15:44:03.000Z</time>
      </trkpt>
      <trkpt lat="46.31079" lon="7.63985">
        <ele>678</ele>
        <time>2023-04-04T15:44:04.000Z</time>
      </trkpt>
      <trkpt lat="46.31078" lon="7.63986">
        <ele>678.40002441406</ele>
        <time>2023-04-04T15:44:05.000Z</time>
      </trkpt>
      <trkpt lat="46.31076" lon="7.63986">
        <ele>678.40002441406</ele>
        <time>2023-04-04T15:44:06.000Z</time>
      </trkpt>
      <trkpt lat="46.31074" lon="7.63987">
        <ele>678.59997558594</ele>
        <time>2023-04-04T15:44:07.000Z</time>
      </trkpt>
      <trkpt lat="46.31072" lon="7.63988">
        <ele>678.59997558594</ele>
        <time>2023-04-04T15:44:08.000Z</time>
      </trkpt>
      <trkpt lat="46.31071" lon="7.63988">
        <ele>678.79998779297</ele>
        <time>2023-04-04T15:44:09.000Z</time>
      </trkpt>
      <trkpt lat="46.31069" lon="7.63989">
        <ele>679</ele>
        <time>2023-04-04T15:44:10.000Z</time>
      </trkpt>
      <trkpt lat="46.31067" lon="7.6399">
        <ele>679.20001220703</ele>
        <time>2023-04-04T15:44:11.000Z</time>
      </trkpt>
      <trkpt lat="46.31065" lon="7.6399">
        <ele>679.20001220703</ele>
        <time>2023-04-04T15:44:12.000Z</time>
      </trkpt>
      <trkpt lat="46.31064" lon="7.63991">
        <ele>679.40002441406</ele>
        <time>2023-04-04T15:44:13.000Z</time>
      </trkpt>
      <trkpt lat="46.31062" lon="7.63992">
        <ele>679.59997558594</ele>
        <time>2023-04-04T15:44:14.000Z</time>
      </trkpt>
      <trkpt lat="46.31061" lon="7.63993">
        <ele>679.79998779297</ele>
        <time>2023-04-04T15:44:15.000Z</time>
      </trkpt>
      <trkpt lat="46.31059" lon="7.63994">
        <ele>680</ele>
        <time>2023-04-04T15:44:16.000Z</time>
      </trkpt>
      <trkpt lat="46.31057" lon="7.63994">
        <ele>680.20001220703</ele>
        <time>2023-04-04T15:44:17.000Z</time>
      </trkpt>
      <trkpt lat="46.31055" lon="7.63994">
        <ele>680.20001220703</ele>
        <time>2023-04-04T15:44:18.000Z</time>
      </trkpt>
      <trkpt lat="46.31053" lon="7.63993">
        <ele>680.40002441406</ele>
        <time>2023-04-04T15:44:19.000Z</time>
      </trkpt>
      <trkpt lat="46.31052" lon="7.63992">
        <ele>680.59997558594</ele>
        <time>2023-04-04T15:44:20.000Z</time>
      </trkpt>
      <trkpt lat="46.3105" lon="7.6399">
        <ele>680.79998779297</ele>
        <time>2023-04-04T15:44:21.000Z</time>
      </trkpt>
      <trkpt lat="46.31049" lon="7.63988">
        <ele>680.79998779297</ele>
        <time>2023-04-04T15:44:22.000Z</time>
      </trkpt>
      <trkpt lat="46.31048" lon="7.63985">
        <ele>681.20001220703</ele>
        <time>2023-04-04T15:44:23.000Z</time>
      </trkpt>
      <trkpt lat="46.31047" lon="7.63983">
        <ele>681.40002441406</ele>
        <time>2023-04-04T15:44:24.000Z</time>
      </trkpt>
      <trkpt lat="46.31047" lon="7.6398">
        <ele>681.40002441406</ele>
        <time>2023-04-04T15:44:25.000Z</time>
      </trkpt>
      <trkpt lat="46.31046" lon="7.63978">
        <ele>681.59997558594</ele>
        <time>2023-04-04T15:44:26.000Z</time>
      </trkpt>
      <trkpt lat="46.31046" lon="7.63975">
        <ele>681.59997558594</ele>
        <time>2023-04-04T15:44:27.000Z</time>
      </trkpt>
      <trkpt lat="46.31046" lon="7.63972">
        <ele>681.79998779297</ele>
        <time>2023-04-04T15:44:28.000Z</time>
      </trkpt>
      <trkpt lat="46.31046" lon="7.63969">
        <ele>681.79998779297</ele>
        <time>2023-04-04T15:44:29.000Z</time>
      </trkpt>
      <trkpt lat="46.31045" lon="7.63966">
        <ele>681.79998779297</ele>
        <time>2023-04-04T15:44:30.000Z</time>
      </trkpt>
      <trkpt lat="46.31045" lon="7.63963">
        <ele>681.79998779297</ele>
        <time>2023-04-04T15:44:31.000Z</time>
      </trkpt>
      <trkpt lat="46.31045" lon="7.63961">
        <ele>681.79998779297</ele>
        <time>2023-04-04T15:44:32.000Z</time>
      </trkpt>
      <trkpt lat="46.31045" lon="7.63958">
        <ele>682</ele>
        <time>2023-04-04T15:44:33.000Z</time>
      </trkpt>
      <trkpt lat="46.31045" lon="7.63955">
        <ele>682</ele>
        <time>2023-04-04T15:44:34.000Z</time>
      </trkpt>
      <trkpt lat="46.31045" lon="7.63953">
        <ele>682</ele>
        <time>2023-04-04T15:44:35.000Z</time>
      </trkpt>
      <trkpt lat="46.31045" lon="7.63952">
        <ele>682</ele>
        <time>2023-04-04T15:44:37.000Z</time>
      </trkpt>
      <trkpt lat="46.31046" lon="7.63948">
        <ele>682.79998779297</ele>
        <time>2023-04-04T15:45:16.000Z</time>
      </trkpt>
      <trkpt lat="46.31046" lon="7.63947">
        <ele>682.79998779297</ele>
        <time>2023-04-04T15:45:17.000Z</time>
      </trkpt>
      <trkpt lat="46.31046" lon="7.63947">
        <ele>682.79998779297</ele>
        <time>2023-04-04T15:45:19.000Z</time>
      </trkpt>
      <trkpt lat="46.31043" lon="7.63951">
        <ele>682.20001220703</ele>
        <time>2023-04-04T15:45:34.000Z</time>
      </trkpt>
      <trkpt lat="46.31043" lon="7.63953">
        <ele>682.20001220703</ele>
        <time>2023-04-04T15:45:35.000Z</time>
      </trkpt>
      <trkpt lat="46.31044" lon="7.63957">
        <ele>682.20001220703</ele>
        <time>2023-04-04T15:45:37.000Z</time>
      </trkpt>
      <trkpt lat="46.31044" lon="7.63958">
        <ele>682.20001220703</ele>
        <time>2023-04-04T15:45:38.000Z</time>
      </trkpt>
      <trkpt lat="46.31043" lon="7.63958">
        <ele>682.20001220703</ele>
        <time>2023-04-04T15:45:40.000Z</time>
      </trkpt>
      <trkpt lat="46.31044" lon="7.63975">
        <ele>681.40002441406</ele>
        <time>2023-04-04T15:49:02.000Z</time>
      </trkpt>
      <trkpt lat="46.31045" lon="7.63982">
        <ele>681.40002441406</ele>
        <time>2023-04-04T15:49:05.000Z</time>
      </trkpt>
      <trkpt lat="46.31047" lon="7.63989">
        <ele>681.20001220703</ele>
        <time>2023-04-04T15:49:09.000Z</time>
      </trkpt>
      <trkpt lat="46.31047" lon="7.63989">
        <ele>681.20001220703</ele>
        <time>2023-04-04T15:49:10.000Z</time>
      </trkpt>
      <trkpt lat="46.31047" lon="7.63989">
        <ele>681</ele>
        <time>2023-04-04T15:49:12.000Z</time>
      </trkpt>
      <trkpt lat="46.31052" lon="7.63992">
        <ele>682.40002441406</ele>
        <time>2023-04-04T15:49:34.000Z</time>
      </trkpt>
      <trkpt lat="46.31055" lon="7.63993">
        <ele>682.40002441406</ele>
        <time>2023-04-04T15:49:35.000Z</time>
      </trkpt>
      <trkpt lat="46.31058" lon="7.63993">
        <ele>682.40002441406</ele>
        <time>2023-04-04T15:49:36.000Z</time>
      </trkpt>
      <trkpt lat="46.31078" lon="7.63988">
        <ele>681.79998779297</ele>
        <time>2023-04-04T15:49:42.000Z</time>
      </trkpt>
      <trkpt lat="46.31096" lon="7.63983">
        <ele>680.20001220703</ele>
        <time>2023-04-04T15:49:47.000Z</time>
      </trkpt>
      <trkpt lat="46.31108" lon="7.63983">
        <ele>679.59997558594</ele>
        <time>2023-04-04T15:49:50.000Z</time>
      </trkpt>
      <trkpt lat="46.31115" lon="7.63984">
        <ele>679.20001220703</ele>
        <time>2023-04-04T15:49:52.000Z</time>
      </trkpt>
      <trkpt lat="46.31132" lon="7.6399">
        <ele>678.20001220703</ele>
        <time>2023-04-04T15:49:56.000Z</time>
      </trkpt>
      <trkpt lat="46.31136" lon="7.63992">
        <ele>678</ele>
        <time>2023-04-04T15:49:57.000Z</time>
      </trkpt>
      <trkpt lat="46.31144" lon="7.63998">
        <ele>677.20001220703</ele>
        <time>2023-04-04T15:49:59.000Z</time>
      </trkpt>
      <trkpt lat="46.31148" lon="7.64">
        <ele>676.59997558594</ele>
        <time>2023-04-04T15:50:00.000Z</time>
      </trkpt>
      <trkpt lat="46.31155" lon="7.64008">
        <ele>676.20001220703</ele>
        <time>2023-04-04T15:50:02.000Z</time>
      </trkpt>
      <trkpt lat="46.31157" lon="7.64012">
        <ele>675.79998779297</ele>
        <time>2023-04-04T15:50:03.000Z</time>
      </trkpt>
      <trkpt lat="46.31159" lon="7.64017">
        <ele>675.59997558594</ele>
        <time>2023-04-04T15:50:04.000Z</time>
      </trkpt>
      <trkpt lat="46.31159" lon="7.64022">
        <ele>675.20001220703</ele>
        <time>2023-04-04T15:50:05.000Z</time>
      </trkpt>
      <trkpt lat="46.31159" lon="7.64027">
        <ele>675.20001220703</ele>
        <time>2023-04-04T15:50:06.000Z</time>
      </trkpt>
      <trkpt lat="46.31157" lon="7.64031">
        <ele>674.40002441406</ele>
        <time>2023-04-04T15:50:07.000Z</time>
      </trkpt>
      <trkpt lat="46.31155" lon="7.64034">
        <ele>673.59997558594</ele>
        <time>2023-04-04T15:50:08.000Z</time>
      </trkpt>
      <trkpt lat="46.31153" lon="7.64036">
        <ele>673.40002441406</ele>
        <time>2023-04-04T15:50:09.000Z</time>
      </trkpt>
      <trkpt lat="46.31152" lon="7.64038">
        <ele>673.20001220703</ele>
        <time>2023-04-04T15:50:10.000Z</time>
      </trkpt>
      <trkpt lat="46.3115" lon="7.64041">
        <ele>673.20001220703</ele>
        <time>2023-04-04T15:50:11.000Z</time>
      </trkpt>
      <trkpt lat="46.31149" lon="7.64044">
        <ele>673.20001220703</ele>
        <time>2023-04-04T15:50:12.000Z</time>
      </trkpt>
      <trkpt lat="46.31148" lon="7.64048">
        <ele>673.20001220703</ele>
        <time>2023-04-04T15:50:13.000Z</time>
      </trkpt>
      <trkpt lat="46.31145" lon="7.64052">
        <ele>673</ele>
        <time>2023-04-04T15:50:14.000Z</time>
      </trkpt>
      <trkpt lat="46.31144" lon="7.64055">
        <ele>673.20001220703</ele>
        <time>2023-04-04T15:50:15.000Z</time>
      </trkpt>
      <trkpt lat="46.31143" lon="7.64058">
        <ele>673.40002441406</ele>
        <time>2023-04-04T15:50:16.000Z</time>
      </trkpt>
      <trkpt lat="46.31142" lon="7.64061">
        <ele>673.59997558594</ele>
        <time>2023-04-04T15:50:17.000Z</time>
      </trkpt>
      <trkpt lat="46.31141" lon="7.64065">
        <ele>673.59997558594</ele>
        <time>2023-04-04T15:50:18.000Z</time>
      </trkpt>
      <trkpt lat="46.31139" lon="7.64068">
        <ele>673.79998779297</ele>
        <time>2023-04-04T15:50:19.000Z</time>
      </trkpt>
      <trkpt lat="46.3113" lon="7.64087">
        <ele>674.59997558594</ele>
        <time>2023-04-04T15:50:25.000Z</time>
      </trkpt>
      <trkpt lat="46.31129" lon="7.6409">
        <ele>674.79998779297</ele>
        <time>2023-04-04T15:50:26.000Z</time>
      </trkpt>
      <trkpt lat="46.31126" lon="7.64097">
        <ele>675</ele>
        <time>2023-04-04T15:50:28.000Z</time>
      </trkpt>
      <trkpt lat="46.31123" lon="7.641">
        <ele>675</ele>
        <time>2023-04-04T15:50:29.000Z</time>
      </trkpt>
      <trkpt lat="46.31121" lon="7.64103">
        <ele>675</ele>
        <time>2023-04-04T15:50:30.000Z</time>
      </trkpt>
      <trkpt lat="46.31119" lon="7.64107">
        <ele>675</ele>
        <time>2023-04-04T15:50:31.000Z</time>
      </trkpt>
      <trkpt lat="46.31116" lon="7.64114">
        <ele>675.20001220703</ele>
        <time>2023-04-04T15:50:33.000Z</time>
      </trkpt>
      <trkpt lat="46.31116" lon="7.64118">
        <ele>675.20001220703</ele>
        <time>2023-04-04T15:50:34.000Z</time>
      </trkpt>
      <trkpt lat="46.31113" lon="7.64126">
        <ele>675.20001220703</ele>
        <time>2023-04-04T15:50:36.000Z</time>
      </trkpt>
      <trkpt lat="46.31109" lon="7.64139">
        <ele>675.59997558594</ele>
        <time>2023-04-04T15:50:39.000Z</time>
      </trkpt>
      <trkpt lat="46.31108" lon="7.64143">
        <ele>675.79998779297</ele>
        <time>2023-04-04T15:50:40.000Z</time>
      </trkpt>
      <trkpt lat="46.31105" lon="7.64148">
        <ele>675.79998779297</ele>
        <time>2023-04-04T15:50:41.000Z</time>
      </trkpt>
      <trkpt lat="46.31096" lon="7.64179">
        <ele>675.59997558594</ele>
        <time>2023-04-04T15:50:48.000Z</time>
      </trkpt>
      <trkpt lat="46.31088" lon="7.64214">
        <ele>675.59997558594</ele>
        <time>2023-04-04T15:50:55.000Z</time>
      </trkpt>
      <trkpt lat="46.31083" lon="7.64248">
        <ele>675.40002441406</ele>
        <time>2023-04-04T15:51:02.000Z</time>
      </trkpt>
      <trkpt lat="46.31081" lon="7.64258">
        <ele>675.40002441406</ele>
        <time>2023-04-04T15:51:04.000Z</time>
      </trkpt>
      <trkpt lat="46.3108" lon="7.64262">
        <ele>675.40002441406</ele>
        <time>2023-04-04T15:51:05.000Z</time>
      </trkpt>
      <trkpt lat="46.31079" lon="7.64266">
        <ele>675.40002441406</ele>
        <time>2023-04-04T15:51:06.000Z</time>
      </trkpt>
      <trkpt lat="46.31078" lon="7.64271">
        <ele>675.59997558594</ele>
        <time>2023-04-04T15:51:07.000Z</time>
      </trkpt>
      <trkpt lat="46.31078" lon="7.64275">
        <ele>675.59997558594</ele>
        <time>2023-04-04T15:51:08.000Z</time>
      </trkpt>
      <trkpt lat="46.31078" lon="7.6428">
        <ele>675.59997558594</ele>
        <time>2023-04-04T15:51:09.000Z</time>
      </trkpt>
      <trkpt lat="46.31077" lon="7.64286">
        <ele>675.59997558594</ele>
        <time>2023-04-04T15:51:10.000Z</time>
      </trkpt>
      <trkpt lat="46.31077" lon="7.64291">
        <ele>675.59997558594</ele>
        <time>2023-04-04T15:51:11.000Z</time>
      </trkpt>
      <trkpt lat="46.31077" lon="7.6431">
        <ele>675.59997558594</ele>
        <time>2023-04-04T15:51:15.000Z</time>
      </trkpt>
      <trkpt lat="46.31076" lon="7.64321">
        <ele>675.59997558594</ele>
        <time>2023-04-04T15:51:17.000Z</time>
      </trkpt>
      <trkpt lat="46.31074" lon="7.64357">
        <ele>675.40002441406</ele>
        <time>2023-04-04T15:51:24.000Z</time>
      </trkpt>
      <trkpt lat="46.31074" lon="7.64366">
        <ele>675.40002441406</ele>
        <time>2023-04-04T15:51:26.000Z</time>
      </trkpt>
      <trkpt lat="46.31074" lon="7.64371">
        <ele>675.40002441406</ele>
        <time>2023-04-04T15:51:27.000Z</time>
      </trkpt>
      <trkpt lat="46.31074" lon="7.64375">
        <ele>675.40002441406</ele>
        <time>2023-04-04T15:51:28.000Z</time>
      </trkpt>
      <trkpt lat="46.31073" lon="7.6438">
        <ele>675.40002441406</ele>
        <time>2023-04-04T15:51:29.000Z</time>
      </trkpt>
      <trkpt lat="46.31073" lon="7.64385">
        <ele>675.40002441406</ele>
        <time>2023-04-04T15:51:30.000Z</time>
      </trkpt>
      <trkpt lat="46.31073" lon="7.6439">
        <ele>675.40002441406</ele>
        <time>2023-04-04T15:51:31.000Z</time>
      </trkpt>
      <trkpt lat="46.31073" lon="7.64395">
        <ele>675.40002441406</ele>
        <time>2023-04-04T15:51:32.000Z</time>
      </trkpt>
      <trkpt lat="46.31073" lon="7.64399">
        <ele>675.40002441406</ele>
        <time>2023-04-04T15:51:33.000Z</time>
      </trkpt>
      <trkpt lat="46.31072" lon="7.64404">
        <ele>675.40002441406</ele>
        <time>2023-04-04T15:51:34.000Z</time>
      </trkpt>
      <trkpt lat="46.31071" lon="7.64443">
        <ele>675.20001220703</ele>
        <time>2023-04-04T15:51:41.000Z</time>
      </trkpt>
      <trkpt lat="46.31068" lon="7.64501">
        <ele>675</ele>
        <time>2023-04-04T15:51:50.000Z</time>
      </trkpt>
      <trkpt lat="46.31066" lon="7.64559">
        <ele>674.59997558594</ele>
        <time>2023-04-04T15:51:58.000Z</time>
      </trkpt>
      <trkpt lat="46.31066" lon="7.64568">
        <ele>674.59997558594</ele>
        <time>2023-04-04T15:51:59.000Z</time>
      </trkpt>
      <trkpt lat="46.31063" lon="7.64613">
        <ele>674.40002441406</ele>
        <time>2023-04-04T15:52:05.000Z</time>
      </trkpt>
      <trkpt lat="46.31063" lon="7.64619">
        <ele>674.40002441406</ele>
        <time>2023-04-04T15:52:06.000Z</time>
      </trkpt>
      <trkpt lat="46.31063" lon="7.64624">
        <ele>674</ele>
        <time>2023-04-04T15:52:07.000Z</time>
      </trkpt>
      <trkpt lat="46.31062" lon="7.64628">
        <ele>674</ele>
        <time>2023-04-04T15:52:08.000Z</time>
      </trkpt>
      <trkpt lat="46.31061" lon="7.64631">
        <ele>673.79998779297</ele>
        <time>2023-04-04T15:52:09.000Z</time>
      </trkpt>
      <trkpt lat="46.31061" lon="7.64634">
        <ele>673.59997558594</ele>
        <time>2023-04-04T15:52:10.000Z</time>
      </trkpt>
      <trkpt lat="46.31061" lon="7.64636">
        <ele>673.59997558594</ele>
        <time>2023-04-04T15:52:11.000Z</time>
      </trkpt>
      <trkpt lat="46.3106" lon="7.64638">
        <ele>673.40002441406</ele>
        <time>2023-04-04T15:52:12.000Z</time>
      </trkpt>
      <trkpt lat="46.31061" lon="7.64638">
        <ele>673.20001220703</ele>
        <time>2023-04-04T15:52:14.000Z</time>
      </trkpt>
      <trkpt lat="46.3106" lon="7.64644">
        <ele>673</ele>
        <time>2023-04-04T15:52:17.000Z</time>
      </trkpt>
      <trkpt lat="46.31058" lon="7.64664">
        <ele>672.79998779297</ele>
        <time>2023-04-04T15:52:21.000Z</time>
      </trkpt>
      <trkpt lat="46.31052" lon="7.647">
        <ele>672.40002441406</ele>
        <time>2023-04-04T15:52:26.000Z</time>
      </trkpt>
      <trkpt lat="46.3105" lon="7.64708">
        <ele>672.20001220703</ele>
        <time>2023-04-04T15:52:27.000Z</time>
      </trkpt>
      <trkpt lat="46.31043" lon="7.64732">
        <ele>671.20001220703</ele>
        <time>2023-04-04T15:52:30.000Z</time>
      </trkpt>
      <trkpt lat="46.31041" lon="7.6474">
        <ele>670.59997558594</ele>
        <time>2023-04-04T15:52:31.000Z</time>
      </trkpt>
      <trkpt lat="46.31036" lon="7.64756">
        <ele>670.20001220703</ele>
        <time>2023-04-04T15:52:33.000Z</time>
      </trkpt>
      <trkpt lat="46.3103" lon="7.64772">
        <ele>669.79998779297</ele>
        <time>2023-04-04T15:52:35.000Z</time>
      </trkpt>
      <trkpt lat="46.31009" lon="7.64823">
        <ele>669.20001220703</ele>
        <time>2023-04-04T15:52:42.000Z</time>
      </trkpt>
      <trkpt lat="46.31004" lon="7.64836">
        <ele>669.20001220703</ele>
        <time>2023-04-04T15:52:44.000Z</time>
      </trkpt>
      <trkpt lat="46.30998" lon="7.64849">
        <ele>669.20001220703</ele>
        <time>2023-04-04T15:52:46.000Z</time>
      </trkpt>
      <trkpt lat="46.30996" lon="7.64855">
        <ele>669.20001220703</ele>
        <time>2023-04-04T15:52:47.000Z</time>
      </trkpt>
      <trkpt lat="46.30993" lon="7.64861">
        <ele>669.20001220703</ele>
        <time>2023-04-04T15:52:48.000Z</time>
      </trkpt>
      <trkpt lat="46.30991" lon="7.64867">
        <ele>669.20001220703</ele>
        <time>2023-04-04T15:52:49.000Z</time>
      </trkpt>
      <trkpt lat="46.30988" lon="7.64873">
        <ele>669.20001220703</ele>
        <time>2023-04-04T15:52:50.000Z</time>
      </trkpt>
      <trkpt lat="46.30985" lon="7.64879">
        <ele>669.40002441406</ele>
        <time>2023-04-04T15:52:51.000Z</time>
      </trkpt>
      <trkpt lat="46.3097" lon="7.64911">
        <ele>669.79998779297</ele>
        <time>2023-04-04T15:52:56.000Z</time>
      </trkpt>
      <trkpt lat="46.30962" lon="7.64931">
        <ele>669.79998779297</ele>
        <time>2023-04-04T15:52:59.000Z</time>
      </trkpt>
      <trkpt lat="46.30952" lon="7.6495">
        <ele>669.59997558594</ele>
        <time>2023-04-04T15:53:02.000Z</time>
      </trkpt>
      <trkpt lat="46.30947" lon="7.64964">
        <ele>669.59997558594</ele>
        <time>2023-04-04T15:53:04.000Z</time>
      </trkpt>
      <trkpt lat="46.30922" lon="7.65016">
        <ele>669.20001220703</ele>
        <time>2023-04-04T15:53:12.000Z</time>
      </trkpt>
      <trkpt lat="46.3092" lon="7.65022">
        <ele>669.20001220703</ele>
        <time>2023-04-04T15:53:13.000Z</time>
      </trkpt>
      <trkpt lat="46.30916" lon="7.65027">
        <ele>669.20001220703</ele>
        <time>2023-04-04T15:53:14.000Z</time>
      </trkpt>
      <trkpt lat="46.30913" lon="7.65033">
        <ele>669.20001220703</ele>
        <time>2023-04-04T15:53:15.000Z</time>
      </trkpt>
      <trkpt lat="46.3091" lon="7.65039">
        <ele>669.40002441406</ele>
        <time>2023-04-04T15:53:16.000Z</time>
      </trkpt>
      <trkpt lat="46.30907" lon="7.65044">
        <ele>669.40002441406</ele>
        <time>2023-04-04T15:53:17.000Z</time>
      </trkpt>
      <trkpt lat="46.30905" lon="7.65049">
        <ele>669.40002441406</ele>
        <time>2023-04-04T15:53:18.000Z</time>
      </trkpt>
      <trkpt lat="46.30902" lon="7.65054">
        <ele>669.40002441406</ele>
        <time>2023-04-04T15:53:19.000Z</time>
      </trkpt>
      <trkpt lat="46.30899" lon="7.65059">
        <ele>669.59997558594</ele>
        <time>2023-04-04T15:53:20.000Z</time>
      </trkpt>
      <trkpt lat="46.30896" lon="7.65064">
        <ele>669.79998779297</ele>
        <time>2023-04-04T15:53:21.000Z</time>
      </trkpt>
      <trkpt lat="46.30893" lon="7.65068">
        <ele>670</ele>
        <time>2023-04-04T15:53:22.000Z</time>
      </trkpt>
      <trkpt lat="46.30889" lon="7.65071">
        <ele>670</ele>
        <time>2023-04-04T15:53:23.000Z</time>
      </trkpt>
      <trkpt lat="46.30885" lon="7.65073">
        <ele>670.20001220703</ele>
        <time>2023-04-04T15:53:24.000Z</time>
      </trkpt>
      <trkpt lat="46.30881" lon="7.65075">
        <ele>670.20001220703</ele>
        <time>2023-04-04T15:53:25.000Z</time>
      </trkpt>
      <trkpt lat="46.30877" lon="7.65078">
        <ele>670.20001220703</ele>
        <time>2023-04-04T15:53:26.000Z</time>
      </trkpt>
      <trkpt lat="46.30873" lon="7.65081">
        <ele>670.20001220703</ele>
        <time>2023-04-04T15:53:27.000Z</time>
      </trkpt>
      <trkpt lat="46.3087" lon="7.65085">
        <ele>670.40002441406</ele>
        <time>2023-04-04T15:53:28.000Z</time>
      </trkpt>
      <trkpt lat="46.30868" lon="7.6509">
        <ele>670.40002441406</ele>
        <time>2023-04-04T15:53:29.000Z</time>
      </trkpt>
      <trkpt lat="46.30866" lon="7.65095">
        <ele>670.59997558594</ele>
        <time>2023-04-04T15:53:30.000Z</time>
      </trkpt>
      <trkpt lat="46.30865" lon="7.651">
        <ele>670.79998779297</ele>
        <time>2023-04-04T15:53:31.000Z</time>
      </trkpt>
      <trkpt lat="46.30864" lon="7.65106">
        <ele>671</ele>
        <time>2023-04-04T15:53:32.000Z</time>
      </trkpt>
      <trkpt lat="46.30862" lon="7.65112">
        <ele>671</ele>
        <time>2023-04-04T15:53:33.000Z</time>
      </trkpt>
      <trkpt lat="46.3086" lon="7.65117">
        <ele>671.20001220703</ele>
        <time>2023-04-04T15:53:34.000Z</time>
      </trkpt>
      <trkpt lat="46.30852" lon="7.65134">
        <ele>671.59997558594</ele>
        <time>2023-04-04T15:53:37.000Z</time>
      </trkpt>
      <trkpt lat="46.30842" lon="7.65148">
        <ele>671.59997558594</ele>
        <time>2023-04-04T15:53:40.000Z</time>
      </trkpt>
      <trkpt lat="46.30809" lon="7.65196">
        <ele>672</ele>
        <time>2023-04-04T15:53:50.000Z</time>
      </trkpt>
      <trkpt lat="46.30764" lon="7.65251">
        <ele>671.79998779297</ele>
        <time>2023-04-04T15:54:02.000Z</time>
      </trkpt>
      <trkpt lat="46.30739" lon="7.65279">
        <ele>671.79998779297</ele>
        <time>2023-04-04T15:54:09.000Z</time>
      </trkpt>
      <trkpt lat="46.30735" lon="7.65283">
        <ele>671.79998779297</ele>
        <time>2023-04-04T15:54:10.000Z</time>
      </trkpt>
      <trkpt lat="46.30731" lon="7.65287">
        <ele>671.79998779297</ele>
        <time>2023-04-04T15:54:11.000Z</time>
      </trkpt>
      <trkpt lat="46.30727" lon="7.65291">
        <ele>671.79998779297</ele>
        <time>2023-04-04T15:54:12.000Z</time>
      </trkpt>
      <trkpt lat="46.30719" lon="7.65298">
        <ele>671.79998779297</ele>
        <time>2023-04-04T15:54:14.000Z</time>
      </trkpt>
      <trkpt lat="46.30715" lon="7.65301">
        <ele>671.79998779297</ele>
        <time>2023-04-04T15:54:15.000Z</time>
      </trkpt>
      <trkpt lat="46.30711" lon="7.65305">
        <ele>672</ele>
        <time>2023-04-04T15:54:16.000Z</time>
      </trkpt>
      <trkpt lat="46.30699" lon="7.65313">
        <ele>672</ele>
        <time>2023-04-04T15:54:19.000Z</time>
      </trkpt>
      <trkpt lat="46.30675" lon="7.65328">
        <ele>672</ele>
        <time>2023-04-04T15:54:24.000Z</time>
      </trkpt>
      <trkpt lat="46.30671" lon="7.65331">
        <ele>671.79998779297</ele>
        <time>2023-04-04T15:54:25.000Z</time>
      </trkpt>
      <trkpt lat="46.30668" lon="7.65334">
        <ele>671.59997558594</ele>
        <time>2023-04-04T15:54:26.000Z</time>
      </trkpt>
      <trkpt lat="46.30665" lon="7.65339">
        <ele>671.20001220703</ele>
        <time>2023-04-04T15:54:27.000Z</time>
      </trkpt>
      <trkpt lat="46.30663" lon="7.65344">
        <ele>671</ele>
        <time>2023-04-04T15:54:28.000Z</time>
      </trkpt>
      <trkpt lat="46.30663" lon="7.65349">
        <ele>670.79998779297</ele>
        <time>2023-04-04T15:54:29.000Z</time>
      </trkpt>
      <trkpt lat="46.30664" lon="7.65355">
        <ele>670.59997558594</ele>
        <time>2023-04-04T15:54:30.000Z</time>
      </trkpt>
      <trkpt lat="46.30665" lon="7.65359">
        <ele>670.20001220703</ele>
        <time>2023-04-04T15:54:31.000Z</time>
      </trkpt>
      <trkpt lat="46.30669" lon="7.65362">
        <ele>669.79998779297</ele>
        <time>2023-04-04T15:54:32.000Z</time>
      </trkpt>
      <trkpt lat="46.30672" lon="7.65365">
        <ele>669.20001220703</ele>
        <time>2023-04-04T15:54:33.000Z</time>
      </trkpt>
      <trkpt lat="46.30673" lon="7.65368">
        <ele>668.79998779297</ele>
        <time>2023-04-04T15:54:34.000Z</time>
      </trkpt>
      <trkpt lat="46.30673" lon="7.65371">
        <ele>668.59997558594</ele>
        <time>2023-04-04T15:54:35.000Z</time>
      </trkpt>
      <trkpt lat="46.30673" lon="7.65374">
        <ele>668.59997558594</ele>
        <time>2023-04-04T15:54:36.000Z</time>
      </trkpt>
      <trkpt lat="46.30672" lon="7.65377">
        <ele>668.59997558594</ele>
        <time>2023-04-04T15:54:37.000Z</time>
      </trkpt>
      <trkpt lat="46.3067" lon="7.65379">
        <ele>668.59997558594</ele>
        <time>2023-04-04T15:54:38.000Z</time>
      </trkpt>
      <trkpt lat="46.30669" lon="7.65381">
        <ele>668.59997558594</ele>
        <time>2023-04-04T15:54:39.000Z</time>
      </trkpt>
      <trkpt lat="46.30667" lon="7.65383">
        <ele>668.59997558594</ele>
        <time>2023-04-04T15:54:40.000Z</time>
      </trkpt>
      <trkpt lat="46.30665" lon="7.65385">
        <ele>668.79998779297</ele>
        <time>2023-04-04T15:54:41.000Z</time>
      </trkpt>
      <trkpt lat="46.30663" lon="7.65387">
        <ele>668.79998779297</ele>
        <time>2023-04-04T15:54:42.000Z</time>
      </trkpt>
      <trkpt lat="46.30649" lon="7.65396">
        <ele>670</ele>
        <time>2023-04-04T15:54:48.000Z</time>
      </trkpt>
      <trkpt lat="46.30635" lon="7.65405">
        <ele>671</ele>
        <time>2023-04-04T15:54:54.000Z</time>
      </trkpt>
      <trkpt lat="46.30624" lon="7.65411">
        <ele>671.59997558594</ele>
        <time>2023-04-04T15:54:58.000Z</time>
      </trkpt>
      <trkpt lat="46.30609" lon="7.65423">
        <ele>672</ele>
        <time>2023-04-04T15:55:04.000Z</time>
      </trkpt>
      <trkpt lat="46.30606" lon="7.65424">
        <ele>672</ele>
        <time>2023-04-04T15:55:05.000Z</time>
      </trkpt>
      <trkpt lat="46.30585" lon="7.65442">
        <ele>672.59997558594</ele>
        <time>2023-04-04T15:55:13.000Z</time>
      </trkpt>
      <trkpt lat="46.3057" lon="7.65455">
        <ele>672.79998779297</ele>
        <time>2023-04-04T15:55:19.000Z</time>
      </trkpt>
      <trkpt lat="46.30568" lon="7.65457">
        <ele>673</ele>
        <time>2023-04-04T15:55:20.000Z</time>
      </trkpt>
      <trkpt lat="46.30566" lon="7.65459">
        <ele>673.40002441406</ele>
        <time>2023-04-04T15:55:21.000Z</time>
      </trkpt>
      <trkpt lat="46.30537" lon="7.65485">
        <ele>674</ele>
        <time>2023-04-04T15:55:32.000Z</time>
      </trkpt>
      <trkpt lat="46.30514" lon="7.65509">
        <ele>674.20001220703</ele>
        <time>2023-04-04T15:55:41.000Z</time>
      </trkpt>
      <trkpt lat="46.30513" lon="7.65512">
        <ele>674.40002441406</ele>
        <time>2023-04-04T15:55:42.000Z</time>
      </trkpt>
      <trkpt lat="46.30511" lon="7.65515">
        <ele>674.40002441406</ele>
        <time>2023-04-04T15:55:43.000Z</time>
      </trkpt>
      <trkpt lat="46.3051" lon="7.65518">
        <ele>674.40002441406</ele>
        <time>2023-04-04T15:55:44.000Z</time>
      </trkpt>
      <trkpt lat="46.30508" lon="7.65522">
        <ele>674.40002441406</ele>
        <time>2023-04-04T15:55:45.000Z</time>
      </trkpt>
      <trkpt lat="46.30503" lon="7.65529">
        <ele>674.40002441406</ele>
        <time>2023-04-04T15:55:47.000Z</time>
      </trkpt>
      <trkpt lat="46.30497" lon="7.6554">
        <ele>674.40002441406</ele>
        <time>2023-04-04T15:55:50.000Z</time>
      </trkpt>
      <trkpt lat="46.30495" lon="7.65544">
        <ele>674.40002441406</ele>
        <time>2023-04-04T15:55:51.000Z</time>
      </trkpt>
      <trkpt lat="46.30477" lon="7.65569">
        <ele>674</ele>
        <time>2023-04-04T15:55:58.000Z</time>
      </trkpt>
      <trkpt lat="46.30475" lon="7.65572">
        <ele>674</ele>
        <time>2023-04-04T15:55:59.000Z</time>
      </trkpt>
      <trkpt lat="46.30472" lon="7.65575">
        <ele>674</ele>
        <time>2023-04-04T15:56:00.000Z</time>
      </trkpt>
      <trkpt lat="46.30467" lon="7.6558">
        <ele>674</ele>
        <time>2023-04-04T15:56:02.000Z</time>
      </trkpt>
      <trkpt lat="46.30464" lon="7.65582">
        <ele>674</ele>
        <time>2023-04-04T15:56:03.000Z</time>
      </trkpt>
      <trkpt lat="46.30461" lon="7.65585">
        <ele>674</ele>
        <time>2023-04-04T15:56:04.000Z</time>
      </trkpt>
      <trkpt lat="46.30458" lon="7.65588">
        <ele>674.20001220703</ele>
        <time>2023-04-04T15:56:05.000Z</time>
      </trkpt>
      <trkpt lat="46.30453" lon="7.65593">
        <ele>674.20001220703</ele>
        <time>2023-04-04T15:56:07.000Z</time>
      </trkpt>
      <trkpt lat="46.3045" lon="7.65596">
        <ele>674.20001220703</ele>
        <time>2023-04-04T15:56:08.000Z</time>
      </trkpt>
      <trkpt lat="46.30446" lon="7.656">
        <ele>674</ele>
        <time>2023-04-04T15:56:10.000Z</time>
      </trkpt>
      <trkpt lat="46.30445" lon="7.65603">
        <ele>674</ele>
        <time>2023-04-04T15:56:11.000Z</time>
      </trkpt>
      <trkpt lat="46.30445" lon="7.65606">
        <ele>674</ele>
        <time>2023-04-04T15:56:12.000Z</time>
      </trkpt>
      <trkpt lat="46.30445" lon="7.65607">
        <ele>674</ele>
        <time>2023-04-04T15:56:13.000Z</time>
      </trkpt>
      <trkpt lat="46.30445" lon="7.65607">
        <ele>674</ele>
        <time>2023-04-04T15:56:15.000Z</time>
      </trkpt>
      <trkpt lat="46.30448" lon="7.65613">
        <ele>674.59997558594</ele>
        <time>2023-04-04T15:56:24.000Z</time>
      </trkpt>
      <trkpt lat="46.30449" lon="7.65616">
        <ele>674.59997558594</ele>
        <time>2023-04-04T15:56:25.000Z</time>
      </trkpt>
      <trkpt lat="46.30454" lon="7.65624">
        <ele>674.59997558594</ele>
        <time>2023-04-04T15:56:29.000Z</time>
      </trkpt>
      <trkpt lat="46.30455" lon="7.65626">
        <ele>674.59997558594</ele>
        <time>2023-04-04T15:56:30.000Z</time>
      </trkpt>
      <trkpt lat="46.30456" lon="7.65628">
        <ele>674.59997558594</ele>
        <time>2023-04-04T15:56:31.000Z</time>
      </trkpt>
      <trkpt lat="46.30457" lon="7.65629">
        <ele>674.59997558594</ele>
        <time>2023-04-04T15:56:32.000Z</time>
      </trkpt>
      <trkpt lat="46.30458" lon="7.65631">
        <ele>674.59997558594</ele>
        <time>2023-04-04T15:56:33.000Z</time>
      </trkpt>
      <trkpt lat="46.30459" lon="7.65633">
        <ele>674.40002441406</ele>
        <time>2023-04-04T15:56:34.000Z</time>
      </trkpt>
      <trkpt lat="46.3046" lon="7.65635">
        <ele>674.40002441406</ele>
        <time>2023-04-04T15:56:35.000Z</time>
      </trkpt>
      <trkpt lat="46.30461" lon="7.65637">
        <ele>674.40002441406</ele>
        <time>2023-04-04T15:56:36.000Z</time>
      </trkpt>
      <trkpt lat="46.30463" lon="7.65639">
        <ele>674.20001220703</ele>
        <time>2023-04-04T15:56:37.000Z</time>
      </trkpt>
      <trkpt lat="46.30467" lon="7.65647">
        <ele>673.40002441406</ele>
        <time>2023-04-04T15:56:41.000Z</time>
      </trkpt>
      <trkpt lat="46.3047" lon="7.65654">
        <ele>673</ele>
        <time>2023-04-04T15:56:44.000Z</time>
      </trkpt>
      <trkpt lat="46.30477" lon="7.65664">
        <ele>672.40002441406</ele>
        <time>2023-04-04T15:56:48.000Z</time>
      </trkpt>
      <trkpt lat="46.3048" lon="7.65667">
        <ele>672.20001220703</ele>
        <time>2023-04-04T15:56:50.000Z</time>
      </trkpt>
      <trkpt lat="46.3048" lon="7.65667">
        <ele>672.20001220703</ele>
        <time>2023-04-04T15:56:51.000Z</time>
      </trkpt>
      <trkpt lat="46.30484" lon="7.65677">
        <ele>672.59997558594</ele>
        <time>2023-04-04T15:56:58.000Z</time>
      </trkpt>
      <trkpt lat="46.30488" lon="7.65685">
        <ele>672.59997558594</ele>
        <time>2023-04-04T15:57:00.000Z</time>
      </trkpt>
      <trkpt lat="46.30503" lon="7.65714">
        <ele>672</ele>
        <time>2023-04-04T15:57:05.000Z</time>
      </trkpt>
      <trkpt lat="46.30513" lon="7.65734">
        <ele>671.20001220703</ele>
        <time>2023-04-04T15:57:08.000Z</time>
      </trkpt>
      <trkpt lat="46.30524" lon="7.65754">
        <ele>670.59997558594</ele>
        <time>2023-04-04T15:57:11.000Z</time>
      </trkpt>
      <trkpt lat="46.30528" lon="7.65762">
        <ele>670.40002441406</ele>
        <time>2023-04-04T15:57:12.000Z</time>
      </trkpt>
      <trkpt lat="46.30532" lon="7.65769">
        <ele>670.20001220703</ele>
        <time>2023-04-04T15:57:13.000Z</time>
      </trkpt>
      <trkpt lat="46.30536" lon="7.65776">
        <ele>670.20001220703</ele>
        <time>2023-04-04T15:57:14.000Z</time>
      </trkpt>
      <trkpt lat="46.30543" lon="7.65789">
        <ele>670</ele>
        <time>2023-04-04T15:57:16.000Z</time>
      </trkpt>
      <trkpt lat="46.30551" lon="7.65803">
        <ele>670</ele>
        <time>2023-04-04T15:57:18.000Z</time>
      </trkpt>
      <trkpt lat="46.30565" lon="7.65829">
        <ele>669.79998779297</ele>
        <time>2023-04-04T15:57:22.000Z</time>
      </trkpt>
      <trkpt lat="46.30569" lon="7.65835">
        <ele>669.79998779297</ele>
        <time>2023-04-04T15:57:23.000Z</time>
      </trkpt>
      <trkpt lat="46.30572" lon="7.65841">
        <ele>669.79998779297</ele>
        <time>2023-04-04T15:57:24.000Z</time>
      </trkpt>
      <trkpt lat="46.30575" lon="7.65847">
        <ele>669.79998779297</ele>
        <time>2023-04-04T15:57:25.000Z</time>
      </trkpt>
      <trkpt lat="46.30578" lon="7.65854">
        <ele>669.79998779297</ele>
        <time>2023-04-04T15:57:26.000Z</time>
      </trkpt>
      <trkpt lat="46.30582" lon="7.6586">
        <ele>669.79998779297</ele>
        <time>2023-04-04T15:57:27.000Z</time>
      </trkpt>
      <trkpt lat="46.30585" lon="7.65866">
        <ele>669.59997558594</ele>
        <time>2023-04-04T15:57:28.000Z</time>
      </trkpt>
      <trkpt lat="46.30601" lon="7.65892">
        <ele>669.59997558594</ele>
        <time>2023-04-04T15:57:32.000Z</time>
      </trkpt>
      <trkpt lat="46.30616" lon="7.65914">
        <ele>668.79998779297</ele>
        <time>2023-04-04T15:57:35.000Z</time>
      </trkpt>
      <trkpt lat="46.30626" lon="7.65931">
        <ele>667.59997558594</ele>
        <time>2023-04-04T15:57:37.000Z</time>
      </trkpt>
      <trkpt lat="46.30635" lon="7.6595">
        <ele>666.59997558594</ele>
        <time>2023-04-04T15:57:39.000Z</time>
      </trkpt>
      <trkpt lat="46.30639" lon="7.65959">
        <ele>666</ele>
        <time>2023-04-04T15:57:40.000Z</time>
      </trkpt>
      <trkpt lat="46.30642" lon="7.65966">
        <ele>665.79998779297</ele>
        <time>2023-04-04T15:57:41.000Z</time>
      </trkpt>
      <trkpt lat="46.30645" lon="7.65972">
        <ele>665.20001220703</ele>
        <time>2023-04-04T15:57:42.000Z</time>
      </trkpt>
      <trkpt lat="46.30647" lon="7.65977">
        <ele>665</ele>
        <time>2023-04-04T15:57:43.000Z</time>
      </trkpt>
      <trkpt lat="46.30649" lon="7.65982">
        <ele>664.20001220703</ele>
        <time>2023-04-04T15:57:44.000Z</time>
      </trkpt>
      <trkpt lat="46.30649" lon="7.65986">
        <ele>663.79998779297</ele>
        <time>2023-04-04T15:57:45.000Z</time>
      </trkpt>
      <trkpt lat="46.30649" lon="7.65991">
        <ele>663.40002441406</ele>
        <time>2023-04-04T15:57:46.000Z</time>
      </trkpt>
      <trkpt lat="46.30648" lon="7.65995">
        <ele>663.20001220703</ele>
        <time>2023-04-04T15:57:47.000Z</time>
      </trkpt>
      <trkpt lat="46.30645" lon="7.65999">
        <ele>663.20001220703</ele>
        <time>2023-04-04T15:57:48.000Z</time>
      </trkpt>
      <trkpt lat="46.3064" lon="7.66007">
        <ele>663</ele>
        <time>2023-04-04T15:57:50.000Z</time>
      </trkpt>
      <trkpt lat="46.30636" lon="7.66011">
        <ele>663</ele>
        <time>2023-04-04T15:57:51.000Z</time>
      </trkpt>
      <trkpt lat="46.30623" lon="7.66029">
        <ele>663</ele>
        <time>2023-04-04T15:57:55.000Z</time>
      </trkpt>
      <trkpt lat="46.30609" lon="7.66047">
        <ele>663</ele>
        <time>2023-04-04T15:57:59.000Z</time>
      </trkpt>
      <trkpt lat="46.30602" lon="7.66057">
        <ele>663</ele>
        <time>2023-04-04T15:58:01.000Z</time>
      </trkpt>
      <trkpt lat="46.30594" lon="7.66065">
        <ele>663</ele>
        <time>2023-04-04T15:58:03.000Z</time>
      </trkpt>
      <trkpt lat="46.30565" lon="7.66082">
        <ele>663.20001220703</ele>
        <time>2023-04-04T15:58:09.000Z</time>
      </trkpt>
      <trkpt lat="46.3056" lon="7.66083">
        <ele>663.20001220703</ele>
        <time>2023-04-04T15:58:10.000Z</time>
      </trkpt>
      <trkpt lat="46.30555" lon="7.66085">
        <ele>663.20001220703</ele>
        <time>2023-04-04T15:58:11.000Z</time>
      </trkpt>
      <trkpt lat="46.30528" lon="7.66087">
        <ele>663</ele>
        <time>2023-04-04T15:58:16.000Z</time>
      </trkpt>
      <trkpt lat="46.30508" lon="7.66087">
        <ele>663</ele>
        <time>2023-04-04T15:58:20.000Z</time>
      </trkpt>
      <trkpt lat="46.30498" lon="7.66088">
        <ele>663.20001220703</ele>
        <time>2023-04-04T15:58:22.000Z</time>
      </trkpt>
      <trkpt lat="46.30493" lon="7.66088">
        <ele>663.20001220703</ele>
        <time>2023-04-04T15:58:23.000Z</time>
      </trkpt>
      <trkpt lat="46.30473" lon="7.66089">
        <ele>663.79998779297</ele>
        <time>2023-04-04T15:58:27.000Z</time>
      </trkpt>
      <trkpt lat="46.30463" lon="7.6609">
        <ele>663.79998779297</ele>
        <time>2023-04-04T15:58:29.000Z</time>
      </trkpt>
      <trkpt lat="46.30449" lon="7.6609">
        <ele>664</ele>
        <time>2023-04-04T15:58:32.000Z</time>
      </trkpt>
      <trkpt lat="46.30444" lon="7.6609">
        <ele>664</ele>
        <time>2023-04-04T15:58:33.000Z</time>
      </trkpt>
      <trkpt lat="46.30434" lon="7.66092">
        <ele>664</ele>
        <time>2023-04-04T15:58:35.000Z</time>
      </trkpt>
      <trkpt lat="46.3042" lon="7.66096">
        <ele>664</ele>
        <time>2023-04-04T15:58:38.000Z</time>
      </trkpt>
      <trkpt lat="46.30416" lon="7.66099">
        <ele>664</ele>
        <time>2023-04-04T15:58:39.000Z</time>
      </trkpt>
      <trkpt lat="46.30403" lon="7.66109">
        <ele>663.59997558594</ele>
        <time>2023-04-04T15:58:42.000Z</time>
      </trkpt>
      <trkpt lat="46.30393" lon="7.66122">
        <ele>663.40002441406</ele>
        <time>2023-04-04T15:58:45.000Z</time>
      </trkpt>
      <trkpt lat="46.3039" lon="7.66128">
        <ele>663.40002441406</ele>
        <time>2023-04-04T15:58:46.000Z</time>
      </trkpt>
      <trkpt lat="46.30387" lon="7.66133">
        <ele>663.40002441406</ele>
        <time>2023-04-04T15:58:47.000Z</time>
      </trkpt>
      <trkpt lat="46.3038" lon="7.66151">
        <ele>663.40002441406</ele>
        <time>2023-04-04T15:58:50.000Z</time>
      </trkpt>
      <trkpt lat="46.30374" lon="7.66177">
        <ele>663.40002441406</ele>
        <time>2023-04-04T15:58:54.000Z</time>
      </trkpt>
      <trkpt lat="46.30373" lon="7.66191">
        <ele>663.20001220703</ele>
        <time>2023-04-04T15:58:56.000Z</time>
      </trkpt>
      <trkpt lat="46.30375" lon="7.66241">
        <ele>663.40002441406</ele>
        <time>2023-04-04T15:59:03.000Z</time>
      </trkpt>
      <trkpt lat="46.30379" lon="7.66281">
        <ele>663.59997558594</ele>
        <time>2023-04-04T15:59:09.000Z</time>
      </trkpt>
      <trkpt lat="46.30379" lon="7.66288">
        <ele>663.59997558594</ele>
        <time>2023-04-04T15:59:10.000Z</time>
      </trkpt>
      <trkpt lat="46.3038" lon="7.66295">
        <ele>663.59997558594</ele>
        <time>2023-04-04T15:59:11.000Z</time>
      </trkpt>
      <trkpt lat="46.3038" lon="7.66301">
        <ele>663.79998779297</ele>
        <time>2023-04-04T15:59:12.000Z</time>
      </trkpt>
      <trkpt lat="46.30381" lon="7.66314">
        <ele>663.79998779297</ele>
        <time>2023-04-04T15:59:14.000Z</time>
      </trkpt>
      <trkpt lat="46.30382" lon="7.66321">
        <ele>663.59997558594</ele>
        <time>2023-04-04T15:59:15.000Z</time>
      </trkpt>
      <trkpt lat="46.30387" lon="7.66375">
        <ele>663.40002441406</ele>
        <time>2023-04-04T15:59:23.000Z</time>
      </trkpt>
      <trkpt lat="46.30388" lon="7.66389">
        <ele>663.40002441406</ele>
        <time>2023-04-04T15:59:25.000Z</time>
      </trkpt>
      <trkpt lat="46.30393" lon="7.66451">
        <ele>663.59997558594</ele>
        <time>2023-04-04T15:59:34.000Z</time>
      </trkpt>
      <trkpt lat="46.30396" lon="7.66485">
        <ele>663.79998779297</ele>
        <time>2023-04-04T15:59:39.000Z</time>
      </trkpt>
      <trkpt lat="46.30397" lon="7.66491">
        <ele>664</ele>
        <time>2023-04-04T15:59:40.000Z</time>
      </trkpt>
      <trkpt lat="46.30397" lon="7.66498">
        <ele>664</ele>
        <time>2023-04-04T15:59:41.000Z</time>
      </trkpt>
      <trkpt lat="46.304" lon="7.66525">
        <ele>664.20001220703</ele>
        <time>2023-04-04T15:59:45.000Z</time>
      </trkpt>
      <trkpt lat="46.30401" lon="7.66546">
        <ele>664.40002441406</ele>
        <time>2023-04-04T15:59:48.000Z</time>
      </trkpt>
      <trkpt lat="46.304" lon="7.66575">
        <ele>664.40002441406</ele>
        <time>2023-04-04T15:59:52.000Z</time>
      </trkpt>
      <trkpt lat="46.30395" lon="7.66607">
        <ele>664.40002441406</ele>
        <time>2023-04-04T15:59:57.000Z</time>
      </trkpt>
      <trkpt lat="46.30394" lon="7.66613">
        <ele>664.40002441406</ele>
        <time>2023-04-04T15:59:58.000Z</time>
      </trkpt>
      <trkpt lat="46.30392" lon="7.6662">
        <ele>664.40002441406</ele>
        <time>2023-04-04T15:59:59.000Z</time>
      </trkpt>
      <trkpt lat="46.30391" lon="7.66626">
        <ele>664.40002441406</ele>
        <time>2023-04-04T16:00:00.000Z</time>
      </trkpt>
      <trkpt lat="46.3039" lon="7.66632">
        <ele>664.20001220703</ele>
        <time>2023-04-04T16:00:01.000Z</time>
      </trkpt>
      <trkpt lat="46.30388" lon="7.66638">
        <ele>664.20001220703</ele>
        <time>2023-04-04T16:00:02.000Z</time>
      </trkpt>
      <trkpt lat="46.30387" lon="7.66645">
        <ele>664.20001220703</ele>
        <time>2023-04-04T16:00:03.000Z</time>
      </trkpt>
      <trkpt lat="46.30386" lon="7.66651">
        <ele>664.20001220703</ele>
        <time>2023-04-04T16:00:04.000Z</time>
      </trkpt>
      <trkpt lat="46.30385" lon="7.66657">
        <ele>664.40002441406</ele>
        <time>2023-04-04T16:00:05.000Z</time>
      </trkpt>
      <trkpt lat="46.30383" lon="7.66684">
        <ele>664.40002441406</ele>
        <time>2023-04-04T16:00:09.000Z</time>
      </trkpt>
      <trkpt lat="46.30383" lon="7.66691">
        <ele>664.40002441406</ele>
        <time>2023-04-04T16:00:10.000Z</time>
      </trkpt>
      <trkpt lat="46.30384" lon="7.6672">
        <ele>664.59997558594</ele>
        <time>2023-04-04T16:00:14.000Z</time>
      </trkpt>
      <trkpt lat="46.30385" lon="7.66727">
        <ele>664.79998779297</ele>
        <time>2023-04-04T16:00:15.000Z</time>
      </trkpt>
      <trkpt lat="46.30387" lon="7.66742">
        <ele>664.79998779297</ele>
        <time>2023-04-04T16:00:17.000Z</time>
      </trkpt>
      <trkpt lat="46.30391" lon="7.66779">
        <ele>664.79998779297</ele>
        <time>2023-04-04T16:00:22.000Z</time>
      </trkpt>
      <trkpt lat="46.30394" lon="7.66806">
        <ele>664.79998779297</ele>
        <time>2023-04-04T16:00:26.000Z</time>
      </trkpt>
      <trkpt lat="46.30395" lon="7.66813">
        <ele>664.79998779297</ele>
        <time>2023-04-04T16:00:27.000Z</time>
      </trkpt>
      <trkpt lat="46.30396" lon="7.66819">
        <ele>664.79998779297</ele>
        <time>2023-04-04T16:00:28.000Z</time>
      </trkpt>
      <trkpt lat="46.30397" lon="7.66825">
        <ele>664.79998779297</ele>
        <time>2023-04-04T16:00:29.000Z</time>
      </trkpt>
      <trkpt lat="46.30398" lon="7.66831">
        <ele>664.79998779297</ele>
        <time>2023-04-04T16:00:30.000Z</time>
      </trkpt>
      <trkpt lat="46.30399" lon="7.66838">
        <ele>664.79998779297</ele>
        <time>2023-04-04T16:00:31.000Z</time>
      </trkpt>
      <trkpt lat="46.30399" lon="7.66844">
        <ele>664.79998779297</ele>
        <time>2023-04-04T16:00:32.000Z</time>
      </trkpt>
      <trkpt lat="46.304" lon="7.66851">
        <ele>664.79998779297</ele>
        <time>2023-04-04T16:00:33.000Z</time>
      </trkpt>
      <trkpt lat="46.304" lon="7.66858">
        <ele>664.79998779297</ele>
        <time>2023-04-04T16:00:34.000Z</time>
      </trkpt>
      <trkpt lat="46.30401" lon="7.66892">
        <ele>664.79998779297</ele>
        <time>2023-04-04T16:00:39.000Z</time>
      </trkpt>
      <trkpt lat="46.30404" lon="7.66945">
        <ele>665</ele>
        <time>2023-04-04T16:00:47.000Z</time>
      </trkpt>
      <trkpt lat="46.30405" lon="7.66958">
        <ele>665</ele>
        <time>2023-04-04T16:00:49.000Z</time>
      </trkpt>
      <trkpt lat="46.30405" lon="7.66965">
        <ele>665</ele>
        <time>2023-04-04T16:00:50.000Z</time>
      </trkpt>
      <trkpt lat="46.30405" lon="7.66971">
        <ele>665</ele>
        <time>2023-04-04T16:00:51.000Z</time>
      </trkpt>
      <trkpt lat="46.30406" lon="7.66977">
        <ele>665</ele>
        <time>2023-04-04T16:00:52.000Z</time>
      </trkpt>
      <trkpt lat="46.30407" lon="7.66984">
        <ele>665</ele>
        <time>2023-04-04T16:00:53.000Z</time>
      </trkpt>
      <trkpt lat="46.3041" lon="7.66996">
        <ele>665</ele>
        <time>2023-04-04T16:00:55.000Z</time>
      </trkpt>
      <trkpt lat="46.30415" lon="7.67006">
        <ele>665.20001220703</ele>
        <time>2023-04-04T16:00:57.000Z</time>
      </trkpt>
      <trkpt lat="46.3042" lon="7.6701">
        <ele>665.20001220703</ele>
        <time>2023-04-04T16:00:58.000Z</time>
      </trkpt>
      <trkpt lat="46.30424" lon="7.67012">
        <ele>665.20001220703</ele>
        <time>2023-04-04T16:00:59.000Z</time>
      </trkpt>
      <trkpt lat="46.30429" lon="7.67013">
        <ele>665.20001220703</ele>
        <time>2023-04-04T16:01:00.000Z</time>
      </trkpt>
      <trkpt lat="46.30433" lon="7.67015">
        <ele>665.20001220703</ele>
        <time>2023-04-04T16:01:01.000Z</time>
      </trkpt>
      <trkpt lat="46.30447" lon="7.67017">
        <ele>665.40002441406</ele>
        <time>2023-04-04T16:01:04.000Z</time>
      </trkpt>
      <trkpt lat="46.30456" lon="7.67018">
        <ele>665.59997558594</ele>
        <time>2023-04-04T16:01:06.000Z</time>
      </trkpt>
      <trkpt lat="46.3046" lon="7.67018">
        <ele>665.59997558594</ele>
        <time>2023-04-04T16:01:07.000Z</time>
      </trkpt>
      <trkpt lat="46.30464" lon="7.67019">
        <ele>665.59997558594</ele>
        <time>2023-04-04T16:01:08.000Z</time>
      </trkpt>
      <trkpt lat="46.30468" lon="7.67019">
        <ele>665.59997558594</ele>
        <time>2023-04-04T16:01:09.000Z</time>
      </trkpt>
      <trkpt lat="46.30471" lon="7.67019">
        <ele>665.79998779297</ele>
        <time>2023-04-04T16:01:10.000Z</time>
      </trkpt>
      <trkpt lat="46.30474" lon="7.6702">
        <ele>665.79998779297</ele>
        <time>2023-04-04T16:01:11.000Z</time>
      </trkpt>
      <trkpt lat="46.30477" lon="7.67021">
        <ele>666</ele>
        <time>2023-04-04T16:01:12.000Z</time>
      </trkpt>
      <trkpt lat="46.30479" lon="7.67021">
        <ele>666</ele>
        <time>2023-04-04T16:01:13.000Z</time>
      </trkpt>
      <trkpt lat="46.30481" lon="7.67021">
        <ele>666.20001220703</ele>
        <time>2023-04-04T16:01:14.000Z</time>
      </trkpt>
      <trkpt lat="46.30483" lon="7.67022">
        <ele>666.40002441406</ele>
        <time>2023-04-04T16:01:15.000Z</time>
      </trkpt>
      <trkpt lat="46.30485" lon="7.67022">
        <ele>666.59997558594</ele>
        <time>2023-04-04T16:01:16.000Z</time>
      </trkpt>
      <trkpt lat="46.30487" lon="7.67022">
        <ele>666.79998779297</ele>
        <time>2023-04-04T16:01:17.000Z</time>
      </trkpt>
      <trkpt lat="46.3049" lon="7.67022">
        <ele>667.79998779297</ele>
        <time>2023-04-04T16:01:19.000Z</time>
      </trkpt>
      <trkpt lat="46.30494" lon="7.67022">
        <ele>668.20001220703</ele>
        <time>2023-04-04T16:01:21.000Z</time>
      </trkpt>
      <trkpt lat="46.30495" lon="7.67022">
        <ele>668.40002441406</ele>
        <time>2023-04-04T16:01:22.000Z</time>
      </trkpt>
      <trkpt lat="46.30497" lon="7.67023">
        <ele>668.59997558594</ele>
        <time>2023-04-04T16:01:23.000Z</time>
      </trkpt>
      <trkpt lat="46.30499" lon="7.67023">
        <ele>668.79998779297</ele>
        <time>2023-04-04T16:01:24.000Z</time>
      </trkpt>
      <trkpt lat="46.30501" lon="7.67023">
        <ele>669</ele>
        <time>2023-04-04T16:01:25.000Z</time>
      </trkpt>
      <trkpt lat="46.30503" lon="7.67023">
        <ele>669.20001220703</ele>
        <time>2023-04-04T16:01:26.000Z</time>
      </trkpt>
      <trkpt lat="46.30505" lon="7.67024">
        <ele>669.40002441406</ele>
        <time>2023-04-04T16:01:27.000Z</time>
      </trkpt>
      <trkpt lat="46.30507" lon="7.67024">
        <ele>669.40002441406</ele>
        <time>2023-04-04T16:01:28.000Z</time>
      </trkpt>
      <trkpt lat="46.30508" lon="7.67024">
        <ele>669.59997558594</ele>
        <time>2023-04-04T16:01:29.000Z</time>
      </trkpt>
      <trkpt lat="46.3051" lon="7.67024">
        <ele>669.59997558594</ele>
        <time>2023-04-04T16:01:30.000Z</time>
      </trkpt>
      <trkpt lat="46.30512" lon="7.67024">
        <ele>670</ele>
        <time>2023-04-04T16:01:31.000Z</time>
      </trkpt>
      <trkpt lat="46.30513" lon="7.67024">
        <ele>670</ele>
        <time>2023-04-04T16:01:32.000Z</time>
      </trkpt>
      <trkpt lat="46.30515" lon="7.67024">
        <ele>670.20001220703</ele>
        <time>2023-04-04T16:01:33.000Z</time>
      </trkpt>
      <trkpt lat="46.30517" lon="7.67025">
        <ele>670.40002441406</ele>
        <time>2023-04-04T16:01:34.000Z</time>
      </trkpt>
      <trkpt lat="46.30519" lon="7.67025">
        <ele>670.40002441406</ele>
        <time>2023-04-04T16:01:35.000Z</time>
      </trkpt>
      <trkpt lat="46.3052" lon="7.67025">
        <ele>670.59997558594</ele>
        <time>2023-04-04T16:01:36.000Z</time>
      </trkpt>
      <trkpt lat="46.30522" lon="7.67025">
        <ele>671.20001220703</ele>
        <time>2023-04-04T16:01:37.000Z</time>
      </trkpt>
      <trkpt lat="46.30524" lon="7.67025">
        <ele>671.59997558594</ele>
        <time>2023-04-04T16:01:38.000Z</time>
      </trkpt>
      <trkpt lat="46.30526" lon="7.67025">
        <ele>671.59997558594</ele>
        <time>2023-04-04T16:01:39.000Z</time>
      </trkpt>
      <trkpt lat="46.30527" lon="7.67025">
        <ele>672.20001220703</ele>
        <time>2023-04-04T16:01:40.000Z</time>
      </trkpt>
      <trkpt lat="46.30529" lon="7.67026">
        <ele>672.20001220703</ele>
        <time>2023-04-04T16:01:41.000Z</time>
      </trkpt>
      <trkpt lat="46.3053" lon="7.67026">
        <ele>672.59997558594</ele>
        <time>2023-04-04T16:01:42.000Z</time>
      </trkpt>
      <trkpt lat="46.30532" lon="7.67026">
        <ele>672.59997558594</ele>
        <time>2023-04-04T16:01:43.000Z</time>
      </trkpt>
      <trkpt lat="46.30533" lon="7.67026">
        <ele>673</ele>
        <time>2023-04-04T16:01:44.000Z</time>
      </trkpt>
      <trkpt lat="46.30535" lon="7.67026">
        <ele>673.20001220703</ele>
        <time>2023-04-04T16:01:45.000Z</time>
      </trkpt>
      <trkpt lat="46.30537" lon="7.67026">
        <ele>673.40002441406</ele>
        <time>2023-04-04T16:01:46.000Z</time>
      </trkpt>
      <trkpt lat="46.30539" lon="7.67027">
        <ele>673.40002441406</ele>
        <time>2023-04-04T16:01:47.000Z</time>
      </trkpt>
      <trkpt lat="46.30541" lon="7.67027">
        <ele>673.79998779297</ele>
        <time>2023-04-04T16:01:48.000Z</time>
      </trkpt>
      <trkpt lat="46.30542" lon="7.67027">
        <ele>674</ele>
        <time>2023-04-04T16:01:49.000Z</time>
      </trkpt>
      <trkpt lat="46.30544" lon="7.67027">
        <ele>674.20001220703</ele>
        <time>2023-04-04T16:01:50.000Z</time>
      </trkpt>
      <trkpt lat="46.30546" lon="7.67028">
        <ele>674.59997558594</ele>
        <time>2023-04-04T16:01:51.000Z</time>
      </trkpt>
      <trkpt lat="46.30547" lon="7.67028">
        <ele>674.79998779297</ele>
        <time>2023-04-04T16:01:52.000Z</time>
      </trkpt>
      <trkpt lat="46.30549" lon="7.67029">
        <ele>674.79998779297</ele>
        <time>2023-04-04T16:01:53.000Z</time>
      </trkpt>
      <trkpt lat="46.3055" lon="7.67029">
        <ele>675</ele>
        <time>2023-04-04T16:01:54.000Z</time>
      </trkpt>
      <trkpt lat="46.30552" lon="7.67029">
        <ele>675</ele>
        <time>2023-04-04T16:01:55.000Z</time>
      </trkpt>
      <trkpt lat="46.30554" lon="7.67029">
        <ele>675.20001220703</ele>
        <time>2023-04-04T16:01:56.000Z</time>
      </trkpt>
      <trkpt lat="46.30556" lon="7.67029">
        <ele>675.40002441406</ele>
        <time>2023-04-04T16:01:57.000Z</time>
      </trkpt>
      <trkpt lat="46.30558" lon="7.6703">
        <ele>675.59997558594</ele>
        <time>2023-04-04T16:01:58.000Z</time>
      </trkpt>
      <trkpt lat="46.30561" lon="7.6703">
        <ele>675.59997558594</ele>
        <time>2023-04-04T16:01:59.000Z</time>
      </trkpt>
      <trkpt lat="46.30563" lon="7.67031">
        <ele>675.79998779297</ele>
        <time>2023-04-04T16:02:00.000Z</time>
      </trkpt>
      <trkpt lat="46.30565" lon="7.67031">
        <ele>676.20001220703</ele>
        <time>2023-04-04T16:02:01.000Z</time>
      </trkpt>
      <trkpt lat="46.30568" lon="7.67031">
        <ele>676.20001220703</ele>
        <time>2023-04-04T16:02:02.000Z</time>
      </trkpt>
      <trkpt lat="46.3057" lon="7.67031">
        <ele>676.20001220703</ele>
        <time>2023-04-04T16:02:03.000Z</time>
      </trkpt>
      <trkpt lat="46.30573" lon="7.67031">
        <ele>676.20001220703</ele>
        <time>2023-04-04T16:02:04.000Z</time>
      </trkpt>
      <trkpt lat="46.30576" lon="7.67031">
        <ele>676.20001220703</ele>
        <time>2023-04-04T16:02:05.000Z</time>
      </trkpt>
      <trkpt lat="46.30578" lon="7.67031">
        <ele>676.20001220703</ele>
        <time>2023-04-04T16:02:06.000Z</time>
      </trkpt>
      <trkpt lat="46.30581" lon="7.67031">
        <ele>676.20001220703</ele>
        <time>2023-04-04T16:02:07.000Z</time>
      </trkpt>
      <trkpt lat="46.30584" lon="7.67032">
        <ele>676</ele>
        <time>2023-04-04T16:02:08.000Z</time>
      </trkpt>
      <trkpt lat="46.30587" lon="7.67032">
        <ele>676.20001220703</ele>
        <time>2023-04-04T16:02:09.000Z</time>
      </trkpt>
      <trkpt lat="46.3059" lon="7.67032">
        <ele>676</ele>
        <time>2023-04-04T16:02:10.000Z</time>
      </trkpt>
      <trkpt lat="46.30594" lon="7.67033">
        <ele>676</ele>
        <time>2023-04-04T16:02:11.000Z</time>
      </trkpt>
      <trkpt lat="46.30597" lon="7.67033">
        <ele>676</ele>
        <time>2023-04-04T16:02:12.000Z</time>
      </trkpt>
      <trkpt lat="46.306" lon="7.67033">
        <ele>676</ele>
        <time>2023-04-04T16:02:13.000Z</time>
      </trkpt>
      <trkpt lat="46.30604" lon="7.67033">
        <ele>676</ele>
        <time>2023-04-04T16:02:14.000Z</time>
      </trkpt>
      <trkpt lat="46.30608" lon="7.67034">
        <ele>676</ele>
        <time>2023-04-04T16:02:15.000Z</time>
      </trkpt>
      <trkpt lat="46.30627" lon="7.67034">
        <ele>675.59997558594</ele>
        <time>2023-04-04T16:02:20.000Z</time>
      </trkpt>
      <trkpt lat="46.3063" lon="7.67034">
        <ele>675.59997558594</ele>
        <time>2023-04-04T16:02:21.000Z</time>
      </trkpt>
      <trkpt lat="46.30633" lon="7.67035">
        <ele>675.59997558594</ele>
        <time>2023-04-04T16:02:22.000Z</time>
      </trkpt>
      <trkpt lat="46.30635" lon="7.67035">
        <ele>675.40002441406</ele>
        <time>2023-04-04T16:02:23.000Z</time>
      </trkpt>
      <trkpt lat="46.30637" lon="7.67035">
        <ele>674.79998779297</ele>
        <time>2023-04-04T16:02:24.000Z</time>
      </trkpt>
      <trkpt lat="46.3064" lon="7.67036">
        <ele>674.20001220703</ele>
        <time>2023-04-04T16:02:25.000Z</time>
      </trkpt>
      <trkpt lat="46.30642" lon="7.67037">
        <ele>674</ele>
        <time>2023-04-04T16:02:26.000Z</time>
      </trkpt>
      <trkpt lat="46.30643" lon="7.6704">
        <ele>673.40002441406</ele>
        <time>2023-04-04T16:02:27.000Z</time>
      </trkpt>
      <trkpt lat="46.30645" lon="7.67043">
        <ele>673.20001220703</ele>
        <time>2023-04-04T16:02:28.000Z</time>
      </trkpt>
      <trkpt lat="46.30646" lon="7.67047">
        <ele>672.59997558594</ele>
        <time>2023-04-04T16:02:29.000Z</time>
      </trkpt>
      <trkpt lat="46.30647" lon="7.67052">
        <ele>672.20001220703</ele>
        <time>2023-04-04T16:02:30.000Z</time>
      </trkpt>
      <trkpt lat="46.30646" lon="7.67057">
        <ele>671.40002441406</ele>
        <time>2023-04-04T16:02:31.000Z</time>
      </trkpt>
      <trkpt lat="46.30646" lon="7.67062">
        <ele>671</ele>
        <time>2023-04-04T16:02:32.000Z</time>
      </trkpt>
      <trkpt lat="46.30646" lon="7.67068">
        <ele>670.79998779297</ele>
        <time>2023-04-04T16:02:33.000Z</time>
      </trkpt>
      <trkpt lat="46.30644" lon="7.67081">
        <ele>670.20001220703</ele>
        <time>2023-04-04T16:02:35.000Z</time>
      </trkpt>
      <trkpt lat="46.30644" lon="7.67087">
        <ele>669.59997558594</ele>
        <time>2023-04-04T16:02:36.000Z</time>
      </trkpt>
      <trkpt lat="46.30642" lon="7.67108">
        <ele>668.59997558594</ele>
        <time>2023-04-04T16:02:39.000Z</time>
      </trkpt>
      <trkpt lat="46.30641" lon="7.67114">
        <ele>668.40002441406</ele>
        <time>2023-04-04T16:02:40.000Z</time>
      </trkpt>
      <trkpt lat="46.30639" lon="7.67128">
        <ele>668</ele>
        <time>2023-04-04T16:02:42.000Z</time>
      </trkpt>
      <trkpt lat="46.30636" lon="7.67159">
        <ele>667.59997558594</ele>
        <time>2023-04-04T16:02:47.000Z</time>
      </trkpt>
      <trkpt lat="46.30635" lon="7.67165">
        <ele>667.40002441406</ele>
        <time>2023-04-04T16:02:48.000Z</time>
      </trkpt>
      <trkpt lat="46.30636" lon="7.67171">
        <ele>667.40002441406</ele>
        <time>2023-04-04T16:02:49.000Z</time>
      </trkpt>
      <trkpt lat="46.30634" lon="7.67212">
        <ele>667.40002441406</ele>
        <time>2023-04-04T16:02:55.000Z</time>
      </trkpt>
      <trkpt lat="46.30632" lon="7.67226">
        <ele>667.20001220703</ele>
        <time>2023-04-04T16:02:57.000Z</time>
      </trkpt>
      <trkpt lat="46.30629" lon="7.67267">
        <ele>667</ele>
        <time>2023-04-04T16:03:03.000Z</time>
      </trkpt>
      <trkpt lat="46.30628" lon="7.67281">
        <ele>666.79998779297</ele>
        <time>2023-04-04T16:03:05.000Z</time>
      </trkpt>
      <trkpt lat="46.30628" lon="7.67288">
        <ele>666.79998779297</ele>
        <time>2023-04-04T16:03:06.000Z</time>
      </trkpt>
      <trkpt lat="46.30629" lon="7.67295">
        <ele>666.79998779297</ele>
        <time>2023-04-04T16:03:07.000Z</time>
      </trkpt>
      <trkpt lat="46.30629" lon="7.6733">
        <ele>666.79998779297</ele>
        <time>2023-04-04T16:03:12.000Z</time>
      </trkpt>
      <trkpt lat="46.30628" lon="7.67387">
        <ele>666.59997558594</ele>
        <time>2023-04-04T16:03:20.000Z</time>
      </trkpt>
      <trkpt lat="46.30627" lon="7.6746">
        <ele>666.59997558594</ele>
        <time>2023-04-04T16:03:30.000Z</time>
      </trkpt>
      <trkpt lat="46.30628" lon="7.6748">
        <ele>666.40002441406</ele>
        <time>2023-04-04T16:03:33.000Z</time>
      </trkpt>
      <trkpt lat="46.30628" lon="7.67487">
        <ele>666.40002441406</ele>
        <time>2023-04-04T16:03:34.000Z</time>
      </trkpt>
      <trkpt lat="46.30628" lon="7.67494">
        <ele>666.40002441406</ele>
        <time>2023-04-04T16:03:35.000Z</time>
      </trkpt>
      <trkpt lat="46.30628" lon="7.67501">
        <ele>666.40002441406</ele>
        <time>2023-04-04T16:03:36.000Z</time>
      </trkpt>
      <trkpt lat="46.30628" lon="7.67508">
        <ele>666.40002441406</ele>
        <time>2023-04-04T16:03:37.000Z</time>
      </trkpt>
      <trkpt lat="46.30628" lon="7.67515">
        <ele>666.40002441406</ele>
        <time>2023-04-04T16:03:38.000Z</time>
      </trkpt>
      <trkpt lat="46.30628" lon="7.67522">
        <ele>666.40002441406</ele>
        <time>2023-04-04T16:03:39.000Z</time>
      </trkpt>
      <trkpt lat="46.30629" lon="7.67529">
        <ele>666.40002441406</ele>
        <time>2023-04-04T16:03:40.000Z</time>
      </trkpt>
      <trkpt lat="46.30629" lon="7.67536">
        <ele>666.40002441406</ele>
        <time>2023-04-04T16:03:41.000Z</time>
      </trkpt>
      <trkpt lat="46.30629" lon="7.67542">
        <ele>666.40002441406</ele>
        <time>2023-04-04T16:03:42.000Z</time>
      </trkpt>
      <trkpt lat="46.3063" lon="7.67548">
        <ele>666.40002441406</ele>
        <time>2023-04-04T16:03:43.000Z</time>
      </trkpt>
      <trkpt lat="46.3063" lon="7.67555">
        <ele>666.40002441406</ele>
        <time>2023-04-04T16:03:44.000Z</time>
      </trkpt>
      <trkpt lat="46.3063" lon="7.6756">
        <ele>666.40002441406</ele>
        <time>2023-04-04T16:03:45.000Z</time>
      </trkpt>
      <trkpt lat="46.3063" lon="7.67566">
        <ele>666.40002441406</ele>
        <time>2023-04-04T16:03:46.000Z</time>
      </trkpt>
      <trkpt lat="46.30631" lon="7.67571">
        <ele>666.40002441406</ele>
        <time>2023-04-04T16:03:47.000Z</time>
      </trkpt>
      <trkpt lat="46.30631" lon="7.67577">
        <ele>666.40002441406</ele>
        <time>2023-04-04T16:03:48.000Z</time>
      </trkpt>
      <trkpt lat="46.30631" lon="7.67582">
        <ele>666.40002441406</ele>
        <time>2023-04-04T16:03:49.000Z</time>
      </trkpt>
      <trkpt lat="46.30631" lon="7.67587">
        <ele>666.20001220703</ele>
        <time>2023-04-04T16:03:50.000Z</time>
      </trkpt>
      <trkpt lat="46.30632" lon="7.67593">
        <ele>666.20001220703</ele>
        <time>2023-04-04T16:03:51.000Z</time>
      </trkpt>
      <trkpt lat="46.30633" lon="7.67599">
        <ele>666.20001220703</ele>
        <time>2023-04-04T16:03:52.000Z</time>
      </trkpt>
      <trkpt lat="46.30634" lon="7.67604">
        <ele>666.20001220703</ele>
        <time>2023-04-04T16:03:53.000Z</time>
      </trkpt>
      <trkpt lat="46.30634" lon="7.67609">
        <ele>666.20001220703</ele>
        <time>2023-04-04T16:03:54.000Z</time>
      </trkpt>
      <trkpt lat="46.30634" lon="7.67613">
        <ele>666.20001220703</ele>
        <time>2023-04-04T16:03:55.000Z</time>
      </trkpt>
      <trkpt lat="46.30635" lon="7.67617">
        <ele>666.40002441406</ele>
        <time>2023-04-04T16:03:56.000Z</time>
      </trkpt>
      <trkpt lat="46.30635" lon="7.67621">
        <ele>666.20001220703</ele>
        <time>2023-04-04T16:03:57.000Z</time>
      </trkpt>
      <trkpt lat="46.30635" lon="7.67624">
        <ele>666.20001220703</ele>
        <time>2023-04-04T16:03:58.000Z</time>
      </trkpt>
      <trkpt lat="46.30635" lon="7.67628">
        <ele>666.40002441406</ele>
        <time>2023-04-04T16:03:59.000Z</time>
      </trkpt>
      <trkpt lat="46.30636" lon="7.67631">
        <ele>666.40002441406</ele>
        <time>2023-04-04T16:04:00.000Z</time>
      </trkpt>
      <trkpt lat="46.30636" lon="7.67634">
        <ele>666.40002441406</ele>
        <time>2023-04-04T16:04:01.000Z</time>
      </trkpt>
      <trkpt lat="46.30637" lon="7.67636">
        <ele>666.40002441406</ele>
        <time>2023-04-04T16:04:02.000Z</time>
      </trkpt>
      <trkpt lat="46.30637" lon="7.67639">
        <ele>666.40002441406</ele>
        <time>2023-04-04T16:04:03.000Z</time>
      </trkpt>
      <trkpt lat="46.30638" lon="7.67641">
        <ele>666.40002441406</ele>
        <time>2023-04-04T16:04:04.000Z</time>
      </trkpt>
      <trkpt lat="46.30638" lon="7.67641">
        <ele>666.40002441406</ele>
        <time>2023-04-04T16:04:06.000Z</time>
      </trkpt>
      <trkpt lat="46.30638" lon="7.67647">
        <ele>667</ele>
        <time>2023-04-04T16:04:21.000Z</time>
      </trkpt>
      <trkpt lat="46.30639" lon="7.6767">
        <ele>666.79998779297</ele>
        <time>2023-04-04T16:04:26.000Z</time>
      </trkpt>
      <trkpt lat="46.30639" lon="7.67689">
        <ele>666.59997558594</ele>
        <time>2023-04-04T16:04:29.000Z</time>
      </trkpt>
      <trkpt lat="46.30639" lon="7.67696">
        <ele>666.59997558594</ele>
        <time>2023-04-04T16:04:30.000Z</time>
      </trkpt>
      <trkpt lat="46.3064" lon="7.67721">
        <ele>666.40002441406</ele>
        <time>2023-04-04T16:04:34.000Z</time>
      </trkpt>
      <trkpt lat="46.30642" lon="7.67784">
        <ele>665.79998779297</ele>
        <time>2023-04-04T16:04:44.000Z</time>
      </trkpt>
      <trkpt lat="46.30646" lon="7.6783">
        <ele>665.79998779297</ele>
        <time>2023-04-04T16:04:51.000Z</time>
      </trkpt>
      <trkpt lat="46.30647" lon="7.67837">
        <ele>665.79998779297</ele>
        <time>2023-04-04T16:04:52.000Z</time>
      </trkpt>
      <trkpt lat="46.30652" lon="7.67878">
        <ele>665.79998779297</ele>
        <time>2023-04-04T16:04:58.000Z</time>
      </trkpt>
      <trkpt lat="46.30654" lon="7.6789">
        <ele>665.79998779297</ele>
        <time>2023-04-04T16:05:00.000Z</time>
      </trkpt>
      <trkpt lat="46.30655" lon="7.67903">
        <ele>665.79998779297</ele>
        <time>2023-04-04T16:05:02.000Z</time>
      </trkpt>
      <trkpt lat="46.30656" lon="7.6791">
        <ele>665.79998779297</ele>
        <time>2023-04-04T16:05:03.000Z</time>
      </trkpt>
      <trkpt lat="46.30657" lon="7.67916">
        <ele>665.79998779297</ele>
        <time>2023-04-04T16:05:04.000Z</time>
      </trkpt>
      <trkpt lat="46.30658" lon="7.67922">
        <ele>666</ele>
        <time>2023-04-04T16:05:05.000Z</time>
      </trkpt>
      <trkpt lat="46.30659" lon="7.67929">
        <ele>666</ele>
        <time>2023-04-04T16:05:06.000Z</time>
      </trkpt>
      <trkpt lat="46.30659" lon="7.67936">
        <ele>666</ele>
        <time>2023-04-04T16:05:07.000Z</time>
      </trkpt>
      <trkpt lat="46.30661" lon="7.67955">
        <ele>666.20001220703</ele>
        <time>2023-04-04T16:05:09.000Z</time>
      </trkpt>
      <trkpt lat="46.30667" lon="7.67995">
        <ele>666.20001220703</ele>
        <time>2023-04-04T16:05:16.000Z</time>
      </trkpt>
      <trkpt lat="46.30679" lon="7.68077">
        <ele>666.40002441406</ele>
        <time>2023-04-04T16:05:28.000Z</time>
      </trkpt>
      <trkpt lat="46.3068" lon="7.6809">
        <ele>666.40002441406</ele>
        <time>2023-04-04T16:05:29.000Z</time>
      </trkpt>
      <trkpt lat="46.30689" lon="7.68139">
        <ele>666.40002441406</ele>
        <time>2023-04-04T16:05:36.000Z</time>
      </trkpt>
      <trkpt lat="46.30703" lon="7.68224">
        <ele>666.59997558594</ele>
        <time>2023-04-04T16:05:48.000Z</time>
      </trkpt>
      <trkpt lat="46.30704" lon="7.6823">
        <ele>666.59997558594</ele>
        <time>2023-04-04T16:05:50.000Z</time>
      </trkpt>
      <trkpt lat="46.30715" lon="7.68289">
        <ele>666.79998779297</ele>
        <time>2023-04-04T16:05:58.000Z</time>
      </trkpt>
      <trkpt lat="46.30723" lon="7.68329">
        <ele>666.79998779297</ele>
        <time>2023-04-04T16:06:04.000Z</time>
      </trkpt>
      <trkpt lat="46.30724" lon="7.68335">
        <ele>666.79998779297</ele>
        <time>2023-04-04T16:06:05.000Z</time>
      </trkpt>
      <trkpt lat="46.30726" lon="7.68348">
        <ele>666.79998779297</ele>
        <time>2023-04-04T16:06:06.000Z</time>
      </trkpt>
      <trkpt lat="46.30728" lon="7.68354">
        <ele>666.79998779297</ele>
        <time>2023-04-04T16:06:07.000Z</time>
      </trkpt>
      <trkpt lat="46.30729" lon="7.68361">
        <ele>667</ele>
        <time>2023-04-04T16:06:08.000Z</time>
      </trkpt>
      <trkpt lat="46.3073" lon="7.68367">
        <ele>667</ele>
        <time>2023-04-04T16:06:09.000Z</time>
      </trkpt>
      <trkpt lat="46.30731" lon="7.68373">
        <ele>667</ele>
        <time>2023-04-04T16:06:10.000Z</time>
      </trkpt>
      <trkpt lat="46.30731" lon="7.68373">
        <ele>667</ele>
        <time>2023-04-04T16:06:11.000Z</time>
      </trkpt>
      <trkpt lat="46.30734" lon="7.68386">
        <ele>667</ele>
        <time>2023-04-04T16:06:12.000Z</time>
      </trkpt>
      <trkpt lat="46.30735" lon="7.68392">
        <ele>667</ele>
        <time>2023-04-04T16:06:14.000Z</time>
      </trkpt>
      <trkpt lat="46.30736" lon="7.68398">
        <ele>667</ele>
        <time>2023-04-04T16:06:15.000Z</time>
      </trkpt>
      <trkpt lat="46.30736" lon="7.68404">
        <ele>667.20001220703</ele>
        <time>2023-04-04T16:06:16.000Z</time>
      </trkpt>
      <trkpt lat="46.30739" lon="7.68422">
        <ele>667.20001220703</ele>
        <time>2023-04-04T16:06:18.000Z</time>
      </trkpt>
      <trkpt lat="46.30751" lon="7.68486">
        <ele>667.40002441406</ele>
        <time>2023-04-04T16:06:28.000Z</time>
      </trkpt>
      <trkpt lat="46.30764" lon="7.68543">
        <ele>667.59997558594</ele>
        <time>2023-04-04T16:06:37.000Z</time>
      </trkpt>
      <trkpt lat="46.30766" lon="7.68555">
        <ele>667.59997558594</ele>
        <time>2023-04-04T16:06:39.000Z</time>
      </trkpt>
      <trkpt lat="46.30768" lon="7.68567">
        <ele>667.59997558594</ele>
        <time>2023-04-04T16:06:42.000Z</time>
      </trkpt>
      <trkpt lat="46.30771" lon="7.68579">
        <ele>667.59997558594</ele>
        <time>2023-04-04T16:06:44.000Z</time>
      </trkpt>
      <trkpt lat="46.30776" lon="7.68605">
        <ele>667.79998779297</ele>
        <time>2023-04-04T16:06:48.000Z</time>
      </trkpt>
      <trkpt lat="46.30787" lon="7.68659">
        <ele>668</ele>
        <time>2023-04-04T16:06:55.000Z</time>
      </trkpt>
      <trkpt lat="46.30795" lon="7.68708">
        <ele>667.79998779297</ele>
        <time>2023-04-04T16:07:03.000Z</time>
      </trkpt>
      <trkpt lat="46.30797" lon="7.68722">
        <ele>668</ele>
        <time>2023-04-04T16:07:04.000Z</time>
      </trkpt>
      <trkpt lat="46.30797" lon="7.68722">
        <ele>668</ele>
        <time>2023-04-04T16:07:05.000Z</time>
      </trkpt>
      <trkpt lat="46.30799" lon="7.68736">
        <ele>667.79998779297</ele>
        <time>2023-04-04T16:07:06.000Z</time>
      </trkpt>
      <trkpt lat="46.30806" lon="7.68765">
        <ele>667.59997558594</ele>
        <time>2023-04-04T16:07:10.000Z</time>
      </trkpt>
      <trkpt lat="46.30818" lon="7.68817">
        <ele>667.59997558594</ele>
        <time>2023-04-04T16:07:18.000Z</time>
      </trkpt>
      <trkpt lat="46.30821" lon="7.6883">
        <ele>667.40002441406</ele>
        <time>2023-04-04T16:07:20.000Z</time>
      </trkpt>
      <trkpt lat="46.30821" lon="7.6883">
        <ele>667.40002441406</ele>
        <time>2023-04-04T16:07:21.000Z</time>
      </trkpt>
      <trkpt lat="46.30823" lon="7.68836">
        <ele>667.40002441406</ele>
        <time>2023-04-04T16:07:22.000Z</time>
      </trkpt>
      <trkpt lat="46.30826" lon="7.68849">
        <ele>667.59997558594</ele>
        <time>2023-04-04T16:07:23.000Z</time>
      </trkpt>
      <trkpt lat="46.30826" lon="7.68849">
        <ele>667.59997558594</ele>
        <time>2023-04-04T16:07:24.000Z</time>
      </trkpt>
      <trkpt lat="46.30829" lon="7.68861">
        <ele>667.79998779297</ele>
        <time>2023-04-04T16:07:26.000Z</time>
      </trkpt>
      <trkpt lat="46.3083" lon="7.68867">
        <ele>667.79998779297</ele>
        <time>2023-04-04T16:07:27.000Z</time>
      </trkpt>
      <trkpt lat="46.30834" lon="7.68877">
        <ele>667.79998779297</ele>
        <time>2023-04-04T16:07:28.000Z</time>
      </trkpt>
      <trkpt lat="46.30834" lon="7.68877">
        <ele>667.79998779297</ele>
        <time>2023-04-04T16:07:29.000Z</time>
      </trkpt>
      <trkpt lat="46.30835" lon="7.68883">
        <ele>668</ele>
        <time>2023-04-04T16:07:30.000Z</time>
      </trkpt>
      <trkpt lat="46.30837" lon="7.68893">
        <ele>668</ele>
        <time>2023-04-04T16:07:31.000Z</time>
      </trkpt>
      <trkpt lat="46.30838" lon="7.68898">
        <ele>668</ele>
        <time>2023-04-04T16:07:32.000Z</time>
      </trkpt>
      <trkpt lat="46.30843" lon="7.68919">
        <ele>667.79998779297</ele>
        <time>2023-04-04T16:07:36.000Z</time>
      </trkpt>
      <trkpt lat="46.30846" lon="7.68942">
        <ele>667.79998779297</ele>
        <time>2023-04-04T16:07:41.000Z</time>
      </trkpt>
      <trkpt lat="46.30853" lon="7.68983">
        <ele>668.20001220703</ele>
        <time>2023-04-04T16:07:47.000Z</time>
      </trkpt>
      <trkpt lat="46.30858" lon="7.69006">
        <ele>668.20001220703</ele>
        <time>2023-04-04T16:07:51.000Z</time>
      </trkpt>
      <trkpt lat="46.30863" lon="7.69027">
        <ele>668.20001220703</ele>
        <time>2023-04-04T16:07:55.000Z</time>
      </trkpt>
      <trkpt lat="46.30867" lon="7.69043">
        <ele>668</ele>
        <time>2023-04-04T16:07:58.000Z</time>
      </trkpt>
      <trkpt lat="46.30867" lon="7.69043">
        <ele>668</ele>
        <time>2023-04-04T16:07:59.000Z</time>
      </trkpt>
      <trkpt lat="46.30868" lon="7.69053">
        <ele>668</ele>
        <time>2023-04-04T16:08:00.000Z</time>
      </trkpt>
      <trkpt lat="46.30869" lon="7.69058">
        <ele>668</ele>
        <time>2023-04-04T16:08:01.000Z</time>
      </trkpt>
      <trkpt lat="46.30869" lon="7.69058">
        <ele>668</ele>
        <time>2023-04-04T16:08:02.000Z</time>
      </trkpt>
      <trkpt lat="46.30871" lon="7.69069">
        <ele>668</ele>
        <time>2023-04-04T16:08:03.000Z</time>
      </trkpt>
      <trkpt lat="46.30871" lon="7.69075">
        <ele>668</ele>
        <time>2023-04-04T16:08:04.000Z</time>
      </trkpt>
      <trkpt lat="46.30878" lon="7.69119">
        <ele>667.79998779297</ele>
        <time>2023-04-04T16:08:12.000Z</time>
      </trkpt>
      <trkpt lat="46.30886" lon="7.69162">
        <ele>667.79998779297</ele>
        <time>2023-04-04T16:08:19.000Z</time>
      </trkpt>
      <trkpt lat="46.30886" lon="7.69168">
        <ele>667.79998779297</ele>
        <time>2023-04-04T16:08:20.000Z</time>
      </trkpt>
      <trkpt lat="46.30887" lon="7.69174">
        <ele>667.79998779297</ele>
        <time>2023-04-04T16:08:21.000Z</time>
      </trkpt>
      <trkpt lat="46.30888" lon="7.69179">
        <ele>667.79998779297</ele>
        <time>2023-04-04T16:08:23.000Z</time>
      </trkpt>
      <trkpt lat="46.30893" lon="7.69195">
        <ele>668</ele>
        <time>2023-04-04T16:08:25.000Z</time>
      </trkpt>
      <trkpt lat="46.30895" lon="7.69206">
        <ele>668</ele>
        <time>2023-04-04T16:08:27.000Z</time>
      </trkpt>
      <trkpt lat="46.30896" lon="7.69212">
        <ele>668</ele>
        <time>2023-04-04T16:08:28.000Z</time>
      </trkpt>
      <trkpt lat="46.30897" lon="7.69218">
        <ele>668.20001220703</ele>
        <time>2023-04-04T16:08:29.000Z</time>
      </trkpt>
      <trkpt lat="46.309" lon="7.69224">
        <ele>668.20001220703</ele>
        <time>2023-04-04T16:08:30.000Z</time>
      </trkpt>
      <trkpt lat="46.30901" lon="7.6923">
        <ele>668.20001220703</ele>
        <time>2023-04-04T16:08:31.000Z</time>
      </trkpt>
      <trkpt lat="46.30911" lon="7.69259">
        <ele>668.20001220703</ele>
        <time>2023-04-04T16:08:37.000Z</time>
      </trkpt>
      <trkpt lat="46.30917" lon="7.69283">
        <ele>668.59997558594</ele>
        <time>2023-04-04T16:08:40.000Z</time>
      </trkpt>
      <trkpt lat="46.30921" lon="7.69293">
        <ele>668.40002441406</ele>
        <time>2023-04-04T16:08:42.000Z</time>
      </trkpt>
      <trkpt lat="46.30921" lon="7.69293">
        <ele>668.59997558594</ele>
        <time>2023-04-04T16:08:43.000Z</time>
      </trkpt>
      <trkpt lat="46.30926" lon="7.69304">
        <ele>668.59997558594</ele>
        <time>2023-04-04T16:08:44.000Z</time>
      </trkpt>
      <trkpt lat="46.30927" lon="7.6931">
        <ele>668.59997558594</ele>
        <time>2023-04-04T16:08:45.000Z</time>
      </trkpt>
      <trkpt lat="46.30927" lon="7.6931">
        <ele>668.59997558594</ele>
        <time>2023-04-04T16:08:46.000Z</time>
      </trkpt>
      <trkpt lat="46.30932" lon="7.6932">
        <ele>668.59997558594</ele>
        <time>2023-04-04T16:08:47.000Z</time>
      </trkpt>
      <trkpt lat="46.30934" lon="7.69325">
        <ele>668.59997558594</ele>
        <time>2023-04-04T16:08:48.000Z</time>
      </trkpt>
      <trkpt lat="46.30936" lon="7.6933">
        <ele>668.79998779297</ele>
        <time>2023-04-04T16:08:49.000Z</time>
      </trkpt>
      <trkpt lat="46.30939" lon="7.69334">
        <ele>668.79998779297</ele>
        <time>2023-04-04T16:08:50.000Z</time>
      </trkpt>
      <trkpt lat="46.30948" lon="7.6936">
        <ele>668.79998779297</ele>
        <time>2023-04-04T16:08:55.000Z</time>
      </trkpt>
      <trkpt lat="46.30965" lon="7.69407">
        <ele>669</ele>
        <time>2023-04-04T16:09:05.000Z</time>
      </trkpt>
      <trkpt lat="46.30982" lon="7.69459">
        <ele>669</ele>
        <time>2023-04-04T16:09:13.000Z</time>
      </trkpt>
      <trkpt lat="46.30985" lon="7.6947">
        <ele>668.79998779297</ele>
        <time>2023-04-04T16:09:15.000Z</time>
      </trkpt>
      <trkpt lat="46.30991" lon="7.69492">
        <ele>668.79998779297</ele>
        <time>2023-04-04T16:09:19.000Z</time>
      </trkpt>
      <trkpt lat="46.30992" lon="7.69498">
        <ele>668.79998779297</ele>
        <time>2023-04-04T16:09:20.000Z</time>
      </trkpt>
      <trkpt lat="46.30993" lon="7.69503">
        <ele>668.79998779297</ele>
        <time>2023-04-04T16:09:21.000Z</time>
      </trkpt>
      <trkpt lat="46.30995" lon="7.69509">
        <ele>668.79998779297</ele>
        <time>2023-04-04T16:09:22.000Z</time>
      </trkpt>
      <trkpt lat="46.30997" lon="7.69514">
        <ele>668.79998779297</ele>
        <time>2023-04-04T16:09:23.000Z</time>
      </trkpt>
      <trkpt lat="46.30999" lon="7.69519">
        <ele>668.79998779297</ele>
        <time>2023-04-04T16:09:24.000Z</time>
      </trkpt>
      <trkpt lat="46.31001" lon="7.69525">
        <ele>668.59997558594</ele>
        <time>2023-04-04T16:09:25.000Z</time>
      </trkpt>
      <trkpt lat="46.31002" lon="7.6953">
        <ele>668.59997558594</ele>
        <time>2023-04-04T16:09:26.000Z</time>
      </trkpt>
      <trkpt lat="46.31003" lon="7.69535">
        <ele>668.59997558594</ele>
        <time>2023-04-04T16:09:27.000Z</time>
      </trkpt>
      <trkpt lat="46.31004" lon="7.69541">
        <ele>668.59997558594</ele>
        <time>2023-04-04T16:09:28.000Z</time>
      </trkpt>
      <trkpt lat="46.31006" lon="7.69546">
        <ele>668.59997558594</ele>
        <time>2023-04-04T16:09:29.000Z</time>
      </trkpt>
      <trkpt lat="46.31013" lon="7.69574">
        <ele>668.40002441406</ele>
        <time>2023-04-04T16:09:34.000Z</time>
      </trkpt>
      <trkpt lat="46.31013" lon="7.6958">
        <ele>668.40002441406</ele>
        <time>2023-04-04T16:09:35.000Z</time>
      </trkpt>
      <trkpt lat="46.31021" lon="7.69631">
        <ele>668.40002441406</ele>
        <time>2023-04-04T16:09:43.000Z</time>
      </trkpt>
      <trkpt lat="46.31022" lon="7.69637">
        <ele>668.40002441406</ele>
        <time>2023-04-04T16:09:44.000Z</time>
      </trkpt>
      <trkpt lat="46.31025" lon="7.69653">
        <ele>668.59997558594</ele>
        <time>2023-04-04T16:09:47.000Z</time>
      </trkpt>
      <trkpt lat="46.31027" lon="7.69664">
        <ele>668.79998779297</ele>
        <time>2023-04-04T16:09:49.000Z</time>
      </trkpt>
      <trkpt lat="46.31027" lon="7.69669">
        <ele>668.79998779297</ele>
        <time>2023-04-04T16:09:50.000Z</time>
      </trkpt>
      <trkpt lat="46.31028" lon="7.69675">
        <ele>668.79998779297</ele>
        <time>2023-04-04T16:09:51.000Z</time>
      </trkpt>
      <trkpt lat="46.31028" lon="7.69681">
        <ele>668.79998779297</ele>
        <time>2023-04-04T16:09:52.000Z</time>
      </trkpt>
      <trkpt lat="46.31029" lon="7.69686">
        <ele>669</ele>
        <time>2023-04-04T16:09:53.000Z</time>
      </trkpt>
      <trkpt lat="46.3103" lon="7.69693">
        <ele>668.79998779297</ele>
        <time>2023-04-04T16:09:54.000Z</time>
      </trkpt>
      <trkpt lat="46.3103" lon="7.69718">
        <ele>669</ele>
        <time>2023-04-04T16:09:58.000Z</time>
      </trkpt>
      <trkpt lat="46.31026" lon="7.69784">
        <ele>669</ele>
        <time>2023-04-04T16:10:08.000Z</time>
      </trkpt>
      <trkpt lat="46.31025" lon="7.6983">
        <ele>669</ele>
        <time>2023-04-04T16:10:15.000Z</time>
      </trkpt>
      <trkpt lat="46.31023" lon="7.69864">
        <ele>669.59997558594</ele>
        <time>2023-04-04T16:10:20.000Z</time>
      </trkpt>
      <trkpt lat="46.31023" lon="7.69871">
        <ele>669.59997558594</ele>
        <time>2023-04-04T16:10:21.000Z</time>
      </trkpt>
      <trkpt lat="46.31023" lon="7.69877">
        <ele>669.79998779297</ele>
        <time>2023-04-04T16:10:22.000Z</time>
      </trkpt>
      <trkpt lat="46.31023" lon="7.69883">
        <ele>669.79998779297</ele>
        <time>2023-04-04T16:10:23.000Z</time>
      </trkpt>
      <trkpt lat="46.31024" lon="7.69888">
        <ele>669.79998779297</ele>
        <time>2023-04-04T16:10:24.000Z</time>
      </trkpt>
      <trkpt lat="46.31024" lon="7.69894">
        <ele>669.79998779297</ele>
        <time>2023-04-04T16:10:25.000Z</time>
      </trkpt>
      <trkpt lat="46.31024" lon="7.69899">
        <ele>669.79998779297</ele>
        <time>2023-04-04T16:10:26.000Z</time>
      </trkpt>
      <trkpt lat="46.31024" lon="7.69905">
        <ele>669.79998779297</ele>
        <time>2023-04-04T16:10:27.000Z</time>
      </trkpt>
      <trkpt lat="46.31025" lon="7.69911">
        <ele>669.79998779297</ele>
        <time>2023-04-04T16:10:28.000Z</time>
      </trkpt>
      <trkpt lat="46.31026" lon="7.69922">
        <ele>669.79998779297</ele>
        <time>2023-04-04T16:10:30.000Z</time>
      </trkpt>
      <trkpt lat="46.31027" lon="7.69927">
        <ele>669.79998779297</ele>
        <time>2023-04-04T16:10:31.000Z</time>
      </trkpt>
      <trkpt lat="46.31028" lon="7.69932">
        <ele>669.79998779297</ele>
        <time>2023-04-04T16:10:32.000Z</time>
      </trkpt>
      <trkpt lat="46.31028" lon="7.69937">
        <ele>669.79998779297</ele>
        <time>2023-04-04T16:10:33.000Z</time>
      </trkpt>
      <trkpt lat="46.31029" lon="7.69942">
        <ele>669.79998779297</ele>
        <time>2023-04-04T16:10:34.000Z</time>
      </trkpt>
      <trkpt lat="46.31029" lon="7.69942">
        <ele>669.79998779297</ele>
        <time>2023-04-04T16:10:35.000Z</time>
      </trkpt>
      <trkpt lat="46.31031" lon="7.6995">
        <ele>669.79998779297</ele>
        <time>2023-04-04T16:10:36.000Z</time>
      </trkpt>
      <trkpt lat="46.31031" lon="7.69954">
        <ele>669.79998779297</ele>
        <time>2023-04-04T16:10:37.000Z</time>
      </trkpt>
      <trkpt lat="46.31031" lon="7.69966">
        <ele>669.79998779297</ele>
        <time>2023-04-04T16:10:39.000Z</time>
      </trkpt>
      <trkpt lat="46.31029" lon="7.69984">
        <ele>669.79998779297</ele>
        <time>2023-04-04T16:10:43.000Z</time>
      </trkpt>
      <trkpt lat="46.31029" lon="7.69995">
        <ele>669.79998779297</ele>
        <time>2023-04-04T16:10:44.000Z</time>
      </trkpt>
      <trkpt lat="46.31029" lon="7.70001">
        <ele>669.79998779297</ele>
        <time>2023-04-04T16:10:45.000Z</time>
      </trkpt>
      <trkpt lat="46.3103" lon="7.70025">
        <ele>669.79998779297</ele>
        <time>2023-04-04T16:10:49.000Z</time>
      </trkpt>
      <trkpt lat="46.31031" lon="7.7003">
        <ele>669.79998779297</ele>
        <time>2023-04-04T16:10:50.000Z</time>
      </trkpt>
      <trkpt lat="46.31031" lon="7.70035">
        <ele>669.79998779297</ele>
        <time>2023-04-04T16:10:51.000Z</time>
      </trkpt>
      <trkpt lat="46.31031" lon="7.7004">
        <ele>669.79998779297</ele>
        <time>2023-04-04T16:10:52.000Z</time>
      </trkpt>
      <trkpt lat="46.31031" lon="7.70046">
        <ele>669.79998779297</ele>
        <time>2023-04-04T16:10:53.000Z</time>
      </trkpt>
      <trkpt lat="46.31031" lon="7.70061">
        <ele>669.59997558594</ele>
        <time>2023-04-04T16:10:57.000Z</time>
      </trkpt>
      <trkpt lat="46.3103" lon="7.70072">
        <ele>669.40002441406</ele>
        <time>2023-04-04T16:10:58.000Z</time>
      </trkpt>
      <trkpt lat="46.31029" lon="7.70078">
        <ele>669.59997558594</ele>
        <time>2023-04-04T16:10:59.000Z</time>
      </trkpt>
      <trkpt lat="46.31027" lon="7.70085">
        <ele>669.59997558594</ele>
        <time>2023-04-04T16:11:00.000Z</time>
      </trkpt>
      <trkpt lat="46.31026" lon="7.70092">
        <ele>669.59997558594</ele>
        <time>2023-04-04T16:11:01.000Z</time>
      </trkpt>
      <trkpt lat="46.31035" lon="7.70096">
        <ele>669.59997558594</ele>
        <time>2023-04-04T16:11:03.000Z</time>
      </trkpt>
      <trkpt lat="46.31036" lon="7.70101">
        <ele>669.59997558594</ele>
        <time>2023-04-04T16:11:04.000Z</time>
      </trkpt>
      <trkpt lat="46.31037" lon="7.70105">
        <ele>669.59997558594</ele>
        <time>2023-04-04T16:11:05.000Z</time>
      </trkpt>
      <trkpt lat="46.31038" lon="7.7011">
        <ele>669.79998779297</ele>
        <time>2023-04-04T16:11:06.000Z</time>
      </trkpt>
      <trkpt lat="46.31038" lon="7.70116">
        <ele>669.79998779297</ele>
        <time>2023-04-04T16:11:07.000Z</time>
      </trkpt>
      <trkpt lat="46.31042" lon="7.70129">
        <ele>669.79998779297</ele>
        <time>2023-04-04T16:11:10.000Z</time>
      </trkpt>
      <trkpt lat="46.31043" lon="7.70133">
        <ele>669.79998779297</ele>
        <time>2023-04-04T16:11:11.000Z</time>
      </trkpt>
      <trkpt lat="46.31044" lon="7.70138">
        <ele>669.79998779297</ele>
        <time>2023-04-04T16:11:12.000Z</time>
      </trkpt>
      <trkpt lat="46.31046" lon="7.70153">
        <ele>669.79998779297</ele>
        <time>2023-04-04T16:11:15.000Z</time>
      </trkpt>
      <trkpt lat="46.31047" lon="7.70174">
        <ele>669.79998779297</ele>
        <time>2023-04-04T16:11:19.000Z</time>
      </trkpt>
      <trkpt lat="46.31047" lon="7.70177">
        <ele>669.79998779297</ele>
        <time>2023-04-04T16:11:20.000Z</time>
      </trkpt>
      <trkpt lat="46.31047" lon="7.70181">
        <ele>669.79998779297</ele>
        <time>2023-04-04T16:11:21.000Z</time>
      </trkpt>
      <trkpt lat="46.31047" lon="7.70184">
        <ele>669.79998779297</ele>
        <time>2023-04-04T16:11:22.000Z</time>
      </trkpt>
      <trkpt lat="46.31047" lon="7.70187">
        <ele>669.79998779297</ele>
        <time>2023-04-04T16:11:23.000Z</time>
      </trkpt>
      <trkpt lat="46.31047" lon="7.7019">
        <ele>669.79998779297</ele>
        <time>2023-04-04T16:11:24.000Z</time>
      </trkpt>
      <trkpt lat="46.31048" lon="7.70207">
        <ele>669.59997558594</ele>
        <time>2023-04-04T16:11:28.000Z</time>
      </trkpt>
      <trkpt lat="46.31049" lon="7.70246">
        <ele>669.59997558594</ele>
        <time>2023-04-04T16:11:36.000Z</time>
      </trkpt>
      <trkpt lat="46.31054" lon="7.70296">
        <ele>670</ele>
        <time>2023-04-04T16:11:46.000Z</time>
      </trkpt>
      <trkpt lat="46.31057" lon="7.70337">
        <ele>670.20001220703</ele>
        <time>2023-04-04T16:11:53.000Z</time>
      </trkpt>
      <trkpt lat="46.31058" lon="7.70384">
        <ele>670.20001220703</ele>
        <time>2023-04-04T16:12:01.000Z</time>
      </trkpt>
      <trkpt lat="46.31058" lon="7.70405">
        <ele>670.40002441406</ele>
        <time>2023-04-04T16:12:04.000Z</time>
      </trkpt>
      <trkpt lat="46.31057" lon="7.7042">
        <ele>670.40002441406</ele>
        <time>2023-04-04T16:12:06.000Z</time>
      </trkpt>
      <trkpt lat="46.31057" lon="7.70447">
        <ele>670.40002441406</ele>
        <time>2023-04-04T16:12:10.000Z</time>
      </trkpt>
      <trkpt lat="46.31058" lon="7.70449">
        <ele>670.40002441406</ele>
        <time>2023-04-04T16:12:11.000Z</time>
      </trkpt>
      <trkpt lat="46.31058" lon="7.70454">
        <ele>670.59997558594</ele>
        <time>2023-04-04T16:12:12.000Z</time>
      </trkpt>
      <trkpt lat="46.31058" lon="7.70459">
        <ele>670.59997558594</ele>
        <time>2023-04-04T16:12:13.000Z</time>
      </trkpt>
      <trkpt lat="46.31058" lon="7.70465">
        <ele>670.59997558594</ele>
        <time>2023-04-04T16:12:14.000Z</time>
      </trkpt>
      <trkpt lat="46.31058" lon="7.7047">
        <ele>670.59997558594</ele>
        <time>2023-04-04T16:12:15.000Z</time>
      </trkpt>
      <trkpt lat="46.31058" lon="7.70475">
        <ele>670.59997558594</ele>
        <time>2023-04-04T16:12:16.000Z</time>
      </trkpt>
      <trkpt lat="46.31058" lon="7.70481">
        <ele>670.79998779297</ele>
        <time>2023-04-04T16:12:17.000Z</time>
      </trkpt>
      <trkpt lat="46.31058" lon="7.70481">
        <ele>670.79998779297</ele>
        <time>2023-04-04T16:12:18.000Z</time>
      </trkpt>
      <trkpt lat="46.31058" lon="7.70492">
        <ele>670.79998779297</ele>
        <time>2023-04-04T16:12:19.000Z</time>
      </trkpt>
      <trkpt lat="46.31058" lon="7.70497">
        <ele>670.79998779297</ele>
        <time>2023-04-04T16:12:20.000Z</time>
      </trkpt>
      <trkpt lat="46.31058" lon="7.70503">
        <ele>671</ele>
        <time>2023-04-04T16:12:21.000Z</time>
      </trkpt>
      <trkpt lat="46.3106" lon="7.70526">
        <ele>670.79998779297</ele>
        <time>2023-04-04T16:12:25.000Z</time>
      </trkpt>
      <trkpt lat="46.31062" lon="7.70585">
        <ele>670.79998779297</ele>
        <time>2023-04-04T16:12:35.000Z</time>
      </trkpt>
      <trkpt lat="46.31061" lon="7.7064">
        <ele>670.79998779297</ele>
        <time>2023-04-04T16:12:44.000Z</time>
      </trkpt>
      <trkpt lat="46.3106" lon="7.70651">
        <ele>670.79998779297</ele>
        <time>2023-04-04T16:12:46.000Z</time>
      </trkpt>
      <trkpt lat="46.31061" lon="7.70656">
        <ele>670.79998779297</ele>
        <time>2023-04-04T16:12:47.000Z</time>
      </trkpt>
      <trkpt lat="46.31061" lon="7.70661">
        <ele>670.79998779297</ele>
        <time>2023-04-04T16:12:48.000Z</time>
      </trkpt>
      <trkpt lat="46.31062" lon="7.70672">
        <ele>670.79998779297</ele>
        <time>2023-04-04T16:12:50.000Z</time>
      </trkpt>
      <trkpt lat="46.31062" lon="7.70678">
        <ele>670.79998779297</ele>
        <time>2023-04-04T16:12:51.000Z</time>
      </trkpt>
      <trkpt lat="46.31062" lon="7.70684">
        <ele>670.79998779297</ele>
        <time>2023-04-04T16:12:52.000Z</time>
      </trkpt>
      <trkpt lat="46.31062" lon="7.7069">
        <ele>670.79998779297</ele>
        <time>2023-04-04T16:12:53.000Z</time>
      </trkpt>
      <trkpt lat="46.31061" lon="7.70696">
        <ele>671</ele>
        <time>2023-04-04T16:12:54.000Z</time>
      </trkpt>
      <trkpt lat="46.31061" lon="7.70702">
        <ele>671</ele>
        <time>2023-04-04T16:12:55.000Z</time>
      </trkpt>
      <trkpt lat="46.31061" lon="7.70746">
        <ele>671.20001220703</ele>
        <time>2023-04-04T16:13:02.000Z</time>
      </trkpt>
      <trkpt lat="46.3106" lon="7.70796">
        <ele>671.40002441406</ele>
        <time>2023-04-04T16:13:10.000Z</time>
      </trkpt>
      <trkpt lat="46.31059" lon="7.70809">
        <ele>671.40002441406</ele>
        <time>2023-04-04T16:13:12.000Z</time>
      </trkpt>
      <trkpt lat="46.31059" lon="7.70814">
        <ele>671.40002441406</ele>
        <time>2023-04-04T16:13:13.000Z</time>
      </trkpt>
      <trkpt lat="46.31059" lon="7.70821">
        <ele>671.40002441406</ele>
        <time>2023-04-04T16:13:14.000Z</time>
      </trkpt>
      <trkpt lat="46.31059" lon="7.70827">
        <ele>671.40002441406</ele>
        <time>2023-04-04T16:13:15.000Z</time>
      </trkpt>
      <trkpt lat="46.31058" lon="7.70864">
        <ele>671.20001220703</ele>
        <time>2023-04-04T16:13:21.000Z</time>
      </trkpt>
      <trkpt lat="46.31057" lon="7.7087">
        <ele>671.20001220703</ele>
        <time>2023-04-04T16:13:22.000Z</time>
      </trkpt>
      <trkpt lat="46.31057" lon="7.70876">
        <ele>671</ele>
        <time>2023-04-04T16:13:23.000Z</time>
      </trkpt>
      <trkpt lat="46.31057" lon="7.70888">
        <ele>671</ele>
        <time>2023-04-04T16:13:25.000Z</time>
      </trkpt>
      <trkpt lat="46.31056" lon="7.709">
        <ele>671</ele>
        <time>2023-04-04T16:13:27.000Z</time>
      </trkpt>
      <trkpt lat="46.31056" lon="7.70906">
        <ele>670.79998779297</ele>
        <time>2023-04-04T16:13:29.000Z</time>
      </trkpt>
      <trkpt lat="46.31055" lon="7.70916">
        <ele>670.79998779297</ele>
        <time>2023-04-04T16:13:30.000Z</time>
      </trkpt>
      <trkpt lat="46.31055" lon="7.70921">
        <ele>670.79998779297</ele>
        <time>2023-04-04T16:13:31.000Z</time>
      </trkpt>
      <trkpt lat="46.31054" lon="7.70925">
        <ele>670.79998779297</ele>
        <time>2023-04-04T16:13:32.000Z</time>
      </trkpt>
      <trkpt lat="46.31054" lon="7.7093">
        <ele>670.59997558594</ele>
        <time>2023-04-04T16:13:33.000Z</time>
      </trkpt>
      <trkpt lat="46.31054" lon="7.70935">
        <ele>670.59997558594</ele>
        <time>2023-04-04T16:13:34.000Z</time>
      </trkpt>
      <trkpt lat="46.31054" lon="7.7094">
        <ele>670.59997558594</ele>
        <time>2023-04-04T16:13:35.000Z</time>
      </trkpt>
      <trkpt lat="46.31054" lon="7.70945">
        <ele>670.59997558594</ele>
        <time>2023-04-04T16:13:36.000Z</time>
      </trkpt>
      <trkpt lat="46.31054" lon="7.70951">
        <ele>670.40002441406</ele>
        <time>2023-04-04T16:13:37.000Z</time>
      </trkpt>
      <trkpt lat="46.31053" lon="7.70956">
        <ele>670.40002441406</ele>
        <time>2023-04-04T16:13:38.000Z</time>
      </trkpt>
      <trkpt lat="46.31053" lon="7.70962">
        <ele>670.40002441406</ele>
        <time>2023-04-04T16:13:39.000Z</time>
      </trkpt>
      <trkpt lat="46.31052" lon="7.70967">
        <ele>670.40002441406</ele>
        <time>2023-04-04T16:13:40.000Z</time>
      </trkpt>
      <trkpt lat="46.31049" lon="7.71018">
        <ele>670.59997558594</ele>
        <time>2023-04-04T16:13:49.000Z</time>
      </trkpt>
      <trkpt lat="46.31048" lon="7.71035">
        <ele>670.79998779297</ele>
        <time>2023-04-04T16:13:52.000Z</time>
      </trkpt>
      <trkpt lat="46.31048" lon="7.71063">
        <ele>671</ele>
        <time>2023-04-04T16:13:57.000Z</time>
      </trkpt>
      <trkpt lat="46.31045" lon="7.71109">
        <ele>671.20001220703</ele>
        <time>2023-04-04T16:14:05.000Z</time>
      </trkpt>
      <trkpt lat="46.31043" lon="7.71138">
        <ele>671.20001220703</ele>
        <time>2023-04-04T16:14:10.000Z</time>
      </trkpt>
      <trkpt lat="46.31037" lon="7.71197">
        <ele>671.20001220703</ele>
        <time>2023-04-04T16:14:20.000Z</time>
      </trkpt>
      <trkpt lat="46.31035" lon="7.71213">
        <ele>671</ele>
        <time>2023-04-04T16:14:23.000Z</time>
      </trkpt>
      <trkpt lat="46.31035" lon="7.71217">
        <ele>671</ele>
        <time>2023-04-04T16:14:24.000Z</time>
      </trkpt>
      <trkpt lat="46.31034" lon="7.71221">
        <ele>671</ele>
        <time>2023-04-04T16:14:25.000Z</time>
      </trkpt>
      <trkpt lat="46.31034" lon="7.71226">
        <ele>671</ele>
        <time>2023-04-04T16:14:26.000Z</time>
      </trkpt>
      <trkpt lat="46.31033" lon="7.71231">
        <ele>671</ele>
        <time>2023-04-04T16:14:27.000Z</time>
      </trkpt>
      <trkpt lat="46.31032" lon="7.71242">
        <ele>671</ele>
        <time>2023-04-04T16:14:30.000Z</time>
      </trkpt>
      <trkpt lat="46.31029" lon="7.7126">
        <ele>671</ele>
        <time>2023-04-04T16:14:32.000Z</time>
      </trkpt>
      <trkpt lat="46.31027" lon="7.71278">
        <ele>671</ele>
        <time>2023-04-04T16:14:35.000Z</time>
      </trkpt>
      <trkpt lat="46.31027" lon="7.71278">
        <ele>671.20001220703</ele>
        <time>2023-04-04T16:14:36.000Z</time>
      </trkpt>
      <trkpt lat="46.31026" lon="7.7129">
        <ele>671.20001220703</ele>
        <time>2023-04-04T16:14:37.000Z</time>
      </trkpt>
      <trkpt lat="46.31022" lon="7.71328">
        <ele>671.20001220703</ele>
        <time>2023-04-04T16:14:43.000Z</time>
      </trkpt>
      <trkpt lat="46.31021" lon="7.71334">
        <ele>671.20001220703</ele>
        <time>2023-04-04T16:14:44.000Z</time>
      </trkpt>
      <trkpt lat="46.3102" lon="7.7134">
        <ele>671.20001220703</ele>
        <time>2023-04-04T16:14:45.000Z</time>
      </trkpt>
      <trkpt lat="46.31018" lon="7.71364">
        <ele>671.20001220703</ele>
        <time>2023-04-04T16:14:49.000Z</time>
      </trkpt>
      <trkpt lat="46.31012" lon="7.71396">
        <ele>671.40002441406</ele>
        <time>2023-04-04T16:14:54.000Z</time>
      </trkpt>
      <trkpt lat="46.31007" lon="7.71429">
        <ele>671.59997558594</ele>
        <time>2023-04-04T16:15:00.000Z</time>
      </trkpt>
      <trkpt lat="46.31006" lon="7.71434">
        <ele>671.59997558594</ele>
        <time>2023-04-04T16:15:01.000Z</time>
      </trkpt>
      <trkpt lat="46.31004" lon="7.71445">
        <ele>671.40002441406</ele>
        <time>2023-04-04T16:15:03.000Z</time>
      </trkpt>
      <trkpt lat="46.31004" lon="7.71449">
        <ele>671.40002441406</ele>
        <time>2023-04-04T16:15:04.000Z</time>
      </trkpt>
      <trkpt lat="46.31003" lon="7.71454">
        <ele>671.40002441406</ele>
        <time>2023-04-04T16:15:05.000Z</time>
      </trkpt>
      <trkpt lat="46.31002" lon="7.71459">
        <ele>671.40002441406</ele>
        <time>2023-04-04T16:15:06.000Z</time>
      </trkpt>
      <trkpt lat="46.31002" lon="7.71464">
        <ele>671.40002441406</ele>
        <time>2023-04-04T16:15:07.000Z</time>
      </trkpt>
      <trkpt lat="46.31002" lon="7.71469">
        <ele>671.40002441406</ele>
        <time>2023-04-04T16:15:08.000Z</time>
      </trkpt>
      <trkpt lat="46.31001" lon="7.71473">
        <ele>671.40002441406</ele>
        <time>2023-04-04T16:15:09.000Z</time>
      </trkpt>
      <trkpt lat="46.31" lon="7.71478">
        <ele>671.40002441406</ele>
        <time>2023-04-04T16:15:10.000Z</time>
      </trkpt>
      <trkpt lat="46.30999" lon="7.71483">
        <ele>671.40002441406</ele>
        <time>2023-04-04T16:15:11.000Z</time>
      </trkpt>
      <trkpt lat="46.30995" lon="7.71496">
        <ele>671.40002441406</ele>
        <time>2023-04-04T16:15:14.000Z</time>
      </trkpt>
      <trkpt lat="46.30993" lon="7.71503">
        <ele>671.40002441406</ele>
        <time>2023-04-04T16:15:16.000Z</time>
      </trkpt>
      <trkpt lat="46.30992" lon="7.71506">
        <ele>671.40002441406</ele>
        <time>2023-04-04T16:15:17.000Z</time>
      </trkpt>
      <trkpt lat="46.30992" lon="7.71508">
        <ele>671.40002441406</ele>
        <time>2023-04-04T16:15:18.000Z</time>
      </trkpt>
      <trkpt lat="46.30992" lon="7.71512">
        <ele>671.40002441406</ele>
        <time>2023-04-04T16:15:19.000Z</time>
      </trkpt>
      <trkpt lat="46.30989" lon="7.71528">
        <ele>671.59997558594</ele>
        <time>2023-04-04T16:15:23.000Z</time>
      </trkpt>
      <trkpt lat="46.3099" lon="7.71531">
        <ele>671.59997558594</ele>
        <time>2023-04-04T16:15:24.000Z</time>
      </trkpt>
      <trkpt lat="46.3099" lon="7.71532">
        <ele>671.79998779297</ele>
        <time>2023-04-04T16:15:25.000Z</time>
      </trkpt>
      <trkpt lat="46.3099" lon="7.71532">
        <ele>671.79998779297</ele>
        <time>2023-04-04T16:15:26.000Z</time>
      </trkpt>
      <trkpt lat="46.3099" lon="7.71532">
        <ele>671.79998779297</ele>
        <time>2023-04-04T16:15:27.000Z</time>
      </trkpt>
      <trkpt lat="46.30988" lon="7.71539">
        <ele>671.59997558594</ele>
        <time>2023-04-04T16:16:55.000Z</time>
      </trkpt>
      <trkpt lat="46.30987" lon="7.71547">
        <ele>671.59997558594</ele>
        <time>2023-04-04T16:16:57.000Z</time>
      </trkpt>
      <trkpt lat="46.30979" lon="7.71586">
        <ele>671.59997558594</ele>
        <time>2023-04-04T16:17:06.000Z</time>
      </trkpt>
      <trkpt lat="46.30978" lon="7.71618">
        <ele>671.20001220703</ele>
        <time>2023-04-04T16:17:13.000Z</time>
      </trkpt>
      <trkpt lat="46.30975" lon="7.71651">
        <ele>671</ele>
        <time>2023-04-04T16:17:19.000Z</time>
      </trkpt>
      <trkpt lat="46.30973" lon="7.71662">
        <ele>671</ele>
        <time>2023-04-04T16:17:21.000Z</time>
      </trkpt>
      <trkpt lat="46.30969" lon="7.71698">
        <ele>670.79998779297</ele>
        <time>2023-04-04T16:17:28.000Z</time>
      </trkpt>
      <trkpt lat="46.30968" lon="7.71703">
        <ele>670.79998779297</ele>
        <time>2023-04-04T16:17:29.000Z</time>
      </trkpt>
      <trkpt lat="46.30968" lon="7.71708">
        <ele>670.79998779297</ele>
        <time>2023-04-04T16:17:30.000Z</time>
      </trkpt>
      <trkpt lat="46.30964" lon="7.71737">
        <ele>670.79998779297</ele>
        <time>2023-04-04T16:17:35.000Z</time>
      </trkpt>
      <trkpt lat="46.3096" lon="7.71774">
        <ele>671</ele>
        <time>2023-04-04T16:17:41.000Z</time>
      </trkpt>
      <trkpt lat="46.30952" lon="7.71822">
        <ele>671.20001220703</ele>
        <time>2023-04-04T16:17:49.000Z</time>
      </trkpt>
      <trkpt lat="46.3095" lon="7.71834">
        <ele>671.40002441406</ele>
        <time>2023-04-04T16:17:51.000Z</time>
      </trkpt>
      <trkpt lat="46.30949" lon="7.71846">
        <ele>671.40002441406</ele>
        <time>2023-04-04T16:17:53.000Z</time>
      </trkpt>
      <trkpt lat="46.30948" lon="7.71858">
        <ele>671.40002441406</ele>
        <time>2023-04-04T16:17:55.000Z</time>
      </trkpt>
      <trkpt lat="46.30947" lon="7.71863">
        <ele>671.59997558594</ele>
        <time>2023-04-04T16:17:56.000Z</time>
      </trkpt>
      <trkpt lat="46.30946" lon="7.71869">
        <ele>671.59997558594</ele>
        <time>2023-04-04T16:17:57.000Z</time>
      </trkpt>
      <trkpt lat="46.30946" lon="7.71875">
        <ele>671.59997558594</ele>
        <time>2023-04-04T16:17:58.000Z</time>
      </trkpt>
      <trkpt lat="46.30945" lon="7.71881">
        <ele>671.59997558594</ele>
        <time>2023-04-04T16:17:59.000Z</time>
      </trkpt>
      <trkpt lat="46.30944" lon="7.71887">
        <ele>671.40002441406</ele>
        <time>2023-04-04T16:18:00.000Z</time>
      </trkpt>
      <trkpt lat="46.30943" lon="7.71898">
        <ele>671.40002441406</ele>
        <time>2023-04-04T16:18:02.000Z</time>
      </trkpt>
      <trkpt lat="46.30943" lon="7.71903">
        <ele>671.40002441406</ele>
        <time>2023-04-04T16:18:03.000Z</time>
      </trkpt>
      <trkpt lat="46.30941" lon="7.71914">
        <ele>671.20001220703</ele>
        <time>2023-04-04T16:18:05.000Z</time>
      </trkpt>
      <trkpt lat="46.30941" lon="7.71914">
        <ele>671.20001220703</ele>
        <time>2023-04-04T16:18:06.000Z</time>
      </trkpt>
      <trkpt lat="46.30938" lon="7.71931">
        <ele>671.20001220703</ele>
        <time>2023-04-04T16:18:08.000Z</time>
      </trkpt>
      <trkpt lat="46.30938" lon="7.71937">
        <ele>671.20001220703</ele>
        <time>2023-04-04T16:18:09.000Z</time>
      </trkpt>
      <trkpt lat="46.30937" lon="7.71944">
        <ele>671.20001220703</ele>
        <time>2023-04-04T16:18:10.000Z</time>
      </trkpt>
      <trkpt lat="46.30936" lon="7.7195">
        <ele>671.20001220703</ele>
        <time>2023-04-04T16:18:11.000Z</time>
      </trkpt>
      <trkpt lat="46.30935" lon="7.71957">
        <ele>671.20001220703</ele>
        <time>2023-04-04T16:18:12.000Z</time>
      </trkpt>
      <trkpt lat="46.30933" lon="7.71963">
        <ele>671.20001220703</ele>
        <time>2023-04-04T16:18:13.000Z</time>
      </trkpt>
      <trkpt lat="46.30933" lon="7.71969">
        <ele>671.20001220703</ele>
        <time>2023-04-04T16:18:14.000Z</time>
      </trkpt>
      <trkpt lat="46.30932" lon="7.71982">
        <ele>671.20001220703</ele>
        <time>2023-04-04T16:18:16.000Z</time>
      </trkpt>
      <trkpt lat="46.30931" lon="7.71988">
        <ele>671.20001220703</ele>
        <time>2023-04-04T16:18:17.000Z</time>
      </trkpt>
      <trkpt lat="46.30931" lon="7.71994">
        <ele>671.40002441406</ele>
        <time>2023-04-04T16:18:18.000Z</time>
      </trkpt>
      <trkpt lat="46.30928" lon="7.72017">
        <ele>671.59997558594</ele>
        <time>2023-04-04T16:18:22.000Z</time>
      </trkpt>
      <trkpt lat="46.30925" lon="7.72027">
        <ele>671.59997558594</ele>
        <time>2023-04-04T16:18:24.000Z</time>
      </trkpt>
      <trkpt lat="46.30923" lon="7.72057">
        <ele>671.79998779297</ele>
        <time>2023-04-04T16:18:29.000Z</time>
      </trkpt>
      <trkpt lat="46.3092" lon="7.7208">
        <ele>671.79998779297</ele>
        <time>2023-04-04T16:18:34.000Z</time>
      </trkpt>
      <trkpt lat="46.30919" lon="7.72086">
        <ele>671.79998779297</ele>
        <time>2023-04-04T16:18:35.000Z</time>
      </trkpt>
      <trkpt lat="46.30909" lon="7.72146">
        <ele>672</ele>
        <time>2023-04-04T16:18:45.000Z</time>
      </trkpt>
      <trkpt lat="46.30906" lon="7.72171">
        <ele>672</ele>
        <time>2023-04-04T16:18:49.000Z</time>
      </trkpt>
      <trkpt lat="46.30905" lon="7.72177">
        <ele>672</ele>
        <time>2023-04-04T16:18:50.000Z</time>
      </trkpt>
      <trkpt lat="46.30904" lon="7.72184">
        <ele>672</ele>
        <time>2023-04-04T16:18:51.000Z</time>
      </trkpt>
      <trkpt lat="46.30902" lon="7.72203">
        <ele>672</ele>
        <time>2023-04-04T16:18:54.000Z</time>
      </trkpt>
      <trkpt lat="46.30897" lon="7.72228">
        <ele>672.20001220703</ele>
        <time>2023-04-04T16:18:58.000Z</time>
      </trkpt>
      <trkpt lat="46.30895" lon="7.72235">
        <ele>672.20001220703</ele>
        <time>2023-04-04T16:18:59.000Z</time>
      </trkpt>
      <trkpt lat="46.30894" lon="7.7224">
        <ele>672.20001220703</ele>
        <time>2023-04-04T16:19:00.000Z</time>
      </trkpt>
      <trkpt lat="46.30893" lon="7.72252">
        <ele>672.20001220703</ele>
        <time>2023-04-04T16:19:02.000Z</time>
      </trkpt>
      <trkpt lat="46.30893" lon="7.72265">
        <ele>672.20001220703</ele>
        <time>2023-04-04T16:19:04.000Z</time>
      </trkpt>
      <trkpt lat="46.30886" lon="7.72302">
        <ele>672.20001220703</ele>
        <time>2023-04-04T16:19:10.000Z</time>
      </trkpt>
      <trkpt lat="46.30885" lon="7.72325">
        <ele>672.20001220703</ele>
        <time>2023-04-04T16:19:14.000Z</time>
      </trkpt>
      <trkpt lat="46.30884" lon="7.7233">
        <ele>672.40002441406</ele>
        <time>2023-04-04T16:19:15.000Z</time>
      </trkpt>
      <trkpt lat="46.30883" lon="7.72337">
        <ele>672.40002441406</ele>
        <time>2023-04-04T16:19:16.000Z</time>
      </trkpt>
      <trkpt lat="46.30882" lon="7.72344">
        <ele>672.40002441406</ele>
        <time>2023-04-04T16:19:17.000Z</time>
      </trkpt>
      <trkpt lat="46.30877" lon="7.72377">
        <ele>672.40002441406</ele>
        <time>2023-04-04T16:19:22.000Z</time>
      </trkpt>
      <trkpt lat="46.30877" lon="7.72382">
        <ele>672.40002441406</ele>
        <time>2023-04-04T16:19:23.000Z</time>
      </trkpt>
      <trkpt lat="46.30874" lon="7.72406">
        <ele>672.59997558594</ele>
        <time>2023-04-04T16:19:27.000Z</time>
      </trkpt>
      <trkpt lat="46.3087" lon="7.72424">
        <ele>672.40002441406</ele>
        <time>2023-04-04T16:19:30.000Z</time>
      </trkpt>
      <trkpt lat="46.30869" lon="7.72434">
        <ele>672.59997558594</ele>
        <time>2023-04-04T16:19:32.000Z</time>
      </trkpt>
      <trkpt lat="46.30868" lon="7.72439">
        <ele>672.59997558594</ele>
        <time>2023-04-04T16:19:33.000Z</time>
      </trkpt>
      <trkpt lat="46.30866" lon="7.7245">
        <ele>672.59997558594</ele>
        <time>2023-04-04T16:19:35.000Z</time>
      </trkpt>
      <trkpt lat="46.30866" lon="7.72455">
        <ele>672.59997558594</ele>
        <time>2023-04-04T16:19:36.000Z</time>
      </trkpt>
      <trkpt lat="46.30865" lon="7.7246">
        <ele>672.59997558594</ele>
        <time>2023-04-04T16:19:37.000Z</time>
      </trkpt>
      <trkpt lat="46.30865" lon="7.72465">
        <ele>672.59997558594</ele>
        <time>2023-04-04T16:19:38.000Z</time>
      </trkpt>
      <trkpt lat="46.30864" lon="7.7247">
        <ele>672.79998779297</ele>
        <time>2023-04-04T16:19:39.000Z</time>
      </trkpt>
      <trkpt lat="46.30864" lon="7.72476">
        <ele>672.79998779297</ele>
        <time>2023-04-04T16:19:40.000Z</time>
      </trkpt>
      <trkpt lat="46.30861" lon="7.72494">
        <ele>672.79998779297</ele>
        <time>2023-04-04T16:19:43.000Z</time>
      </trkpt>
      <trkpt lat="46.30852" lon="7.72558">
        <ele>672.79998779297</ele>
        <time>2023-04-04T16:19:54.000Z</time>
      </trkpt>
      <trkpt lat="46.30849" lon="7.72595">
        <ele>673</ele>
        <time>2023-04-04T16:20:00.000Z</time>
      </trkpt>
      <trkpt lat="46.30848" lon="7.72601">
        <ele>673</ele>
        <time>2023-04-04T16:20:01.000Z</time>
      </trkpt>
      <trkpt lat="46.30839" lon="7.72646">
        <ele>673</ele>
        <time>2023-04-04T16:20:09.000Z</time>
      </trkpt>
      <trkpt lat="46.30832" lon="7.72702">
        <ele>672.79998779297</ele>
        <time>2023-04-04T16:20:19.000Z</time>
      </trkpt>
      <trkpt lat="46.30832" lon="7.72712">
        <ele>673</ele>
        <time>2023-04-04T16:20:21.000Z</time>
      </trkpt>
      <trkpt lat="46.30831" lon="7.72718">
        <ele>673</ele>
        <time>2023-04-04T16:20:22.000Z</time>
      </trkpt>
      <trkpt lat="46.3083" lon="7.72723">
        <ele>673</ele>
        <time>2023-04-04T16:20:23.000Z</time>
      </trkpt>
      <trkpt lat="46.30829" lon="7.72729">
        <ele>673</ele>
        <time>2023-04-04T16:20:24.000Z</time>
      </trkpt>
      <trkpt lat="46.30827" lon="7.72745">
        <ele>673.20001220703</ele>
        <time>2023-04-04T16:20:27.000Z</time>
      </trkpt>
      <trkpt lat="46.30825" lon="7.72763">
        <ele>673.40002441406</ele>
        <time>2023-04-04T16:20:30.000Z</time>
      </trkpt>
      <trkpt lat="46.30818" lon="7.72803">
        <ele>673.59997558594</ele>
        <time>2023-04-04T16:20:37.000Z</time>
      </trkpt>
      <trkpt lat="46.3081" lon="7.72855">
        <ele>673.59997558594</ele>
        <time>2023-04-04T16:20:46.000Z</time>
      </trkpt>
      <trkpt lat="46.30809" lon="7.7286">
        <ele>673.59997558594</ele>
        <time>2023-04-04T16:20:47.000Z</time>
      </trkpt>
      <trkpt lat="46.30809" lon="7.72866">
        <ele>673.59997558594</ele>
        <time>2023-04-04T16:20:48.000Z</time>
      </trkpt>
      <trkpt lat="46.30808" lon="7.72871">
        <ele>673.59997558594</ele>
        <time>2023-04-04T16:20:49.000Z</time>
      </trkpt>
      <trkpt lat="46.30807" lon="7.72877">
        <ele>673.79998779297</ele>
        <time>2023-04-04T16:20:50.000Z</time>
      </trkpt>
      <trkpt lat="46.30804" lon="7.72893">
        <ele>673.79998779297</ele>
        <time>2023-04-04T16:20:53.000Z</time>
      </trkpt>
      <trkpt lat="46.30803" lon="7.72899">
        <ele>673.79998779297</ele>
        <time>2023-04-04T16:20:54.000Z</time>
      </trkpt>
      <trkpt lat="46.30803" lon="7.72905">
        <ele>673.79998779297</ele>
        <time>2023-04-04T16:20:55.000Z</time>
      </trkpt>
      <trkpt lat="46.30798" lon="7.72945">
        <ele>674</ele>
        <time>2023-04-04T16:21:02.000Z</time>
      </trkpt>
      <trkpt lat="46.30791" lon="7.72997">
        <ele>673.79998779297</ele>
        <time>2023-04-04T16:21:11.000Z</time>
      </trkpt>
      <trkpt lat="46.30791" lon="7.73003">
        <ele>673.79998779297</ele>
        <time>2023-04-04T16:21:12.000Z</time>
      </trkpt>
      <trkpt lat="46.30782" lon="7.7307">
        <ele>673.79998779297</ele>
        <time>2023-04-04T16:21:24.000Z</time>
      </trkpt>
      <trkpt lat="46.30775" lon="7.73111">
        <ele>674</ele>
        <time>2023-04-04T16:21:31.000Z</time>
      </trkpt>
      <trkpt lat="46.30768" lon="7.73158">
        <ele>674</ele>
        <time>2023-04-04T16:21:39.000Z</time>
      </trkpt>
      <trkpt lat="46.30761" lon="7.73209">
        <ele>674</ele>
        <time>2023-04-04T16:21:48.000Z</time>
      </trkpt>
      <trkpt lat="46.3076" lon="7.73214">
        <ele>674</ele>
        <time>2023-04-04T16:21:49.000Z</time>
      </trkpt>
      <trkpt lat="46.30759" lon="7.73219">
        <ele>674</ele>
        <time>2023-04-04T16:21:50.000Z</time>
      </trkpt>
      <trkpt lat="46.30759" lon="7.73224">
        <ele>674</ele>
        <time>2023-04-04T16:21:51.000Z</time>
      </trkpt>
      <trkpt lat="46.30758" lon="7.73229">
        <ele>674</ele>
        <time>2023-04-04T16:21:52.000Z</time>
      </trkpt>
      <trkpt lat="46.30757" lon="7.73233">
        <ele>674.20001220703</ele>
        <time>2023-04-04T16:21:53.000Z</time>
      </trkpt>
      <trkpt lat="46.30756" lon="7.73239">
        <ele>674.20001220703</ele>
        <time>2023-04-04T16:21:54.000Z</time>
      </trkpt>
      <trkpt lat="46.30755" lon="7.73244">
        <ele>674.20001220703</ele>
        <time>2023-04-04T16:21:55.000Z</time>
      </trkpt>
      <trkpt lat="46.30755" lon="7.73249">
        <ele>674.20001220703</ele>
        <time>2023-04-04T16:21:56.000Z</time>
      </trkpt>
      <trkpt lat="46.30754" lon="7.73255">
        <ele>674</ele>
        <time>2023-04-04T16:21:57.000Z</time>
      </trkpt>
      <trkpt lat="46.30747" lon="7.73303">
        <ele>673.79998779297</ele>
        <time>2023-04-04T16:22:06.000Z</time>
      </trkpt>
      <trkpt lat="46.30741" lon="7.73347">
        <ele>673.79998779297</ele>
        <time>2023-04-04T16:22:14.000Z</time>
      </trkpt>
      <trkpt lat="46.3074" lon="7.73353">
        <ele>673.79998779297</ele>
        <time>2023-04-04T16:22:15.000Z</time>
      </trkpt>
      <trkpt lat="46.30733" lon="7.73409">
        <ele>674.40002441406</ele>
        <time>2023-04-04T16:22:25.000Z</time>
      </trkpt>
      <trkpt lat="46.30725" lon="7.73461">
        <ele>674.40002441406</ele>
        <time>2023-04-04T16:22:34.000Z</time>
      </trkpt>
      <trkpt lat="46.30723" lon="7.73473">
        <ele>674.40002441406</ele>
        <time>2023-04-04T16:22:36.000Z</time>
      </trkpt>
      <trkpt lat="46.3072" lon="7.73496">
        <ele>674.40002441406</ele>
        <time>2023-04-04T16:22:40.000Z</time>
      </trkpt>
      <trkpt lat="46.30719" lon="7.73502">
        <ele>674.40002441406</ele>
        <time>2023-04-04T16:22:41.000Z</time>
      </trkpt>
      <trkpt lat="46.30718" lon="7.73507">
        <ele>674.40002441406</ele>
        <time>2023-04-04T16:22:42.000Z</time>
      </trkpt>
      <trkpt lat="46.30714" lon="7.73534">
        <ele>674.40002441406</ele>
        <time>2023-04-04T16:22:47.000Z</time>
      </trkpt>
      <trkpt lat="46.30713" lon="7.73539">
        <ele>674.40002441406</ele>
        <time>2023-04-04T16:22:48.000Z</time>
      </trkpt>
      <trkpt lat="46.30712" lon="7.73544">
        <ele>674.40002441406</ele>
        <time>2023-04-04T16:22:49.000Z</time>
      </trkpt>
      <trkpt lat="46.30711" lon="7.73549">
        <ele>674.40002441406</ele>
        <time>2023-04-04T16:22:50.000Z</time>
      </trkpt>
      <trkpt lat="46.3071" lon="7.73554">
        <ele>674.40002441406</ele>
        <time>2023-04-04T16:22:51.000Z</time>
      </trkpt>
      <trkpt lat="46.30709" lon="7.73559">
        <ele>674.40002441406</ele>
        <time>2023-04-04T16:22:52.000Z</time>
      </trkpt>
      <trkpt lat="46.30709" lon="7.73565">
        <ele>674.40002441406</ele>
        <time>2023-04-04T16:22:53.000Z</time>
      </trkpt>
      <trkpt lat="46.30708" lon="7.7357">
        <ele>674.40002441406</ele>
        <time>2023-04-04T16:22:54.000Z</time>
      </trkpt>
      <trkpt lat="46.30703" lon="7.73604">
        <ele>674.40002441406</ele>
        <time>2023-04-04T16:23:00.000Z</time>
      </trkpt>
      <trkpt lat="46.30695" lon="7.73647">
        <ele>674.20001220703</ele>
        <time>2023-04-04T16:23:08.000Z</time>
      </trkpt>
      <trkpt lat="46.30692" lon="7.73658">
        <ele>674.20001220703</ele>
        <time>2023-04-04T16:23:10.000Z</time>
      </trkpt>
      <trkpt lat="46.30691" lon="7.73663">
        <ele>674.20001220703</ele>
        <time>2023-04-04T16:23:11.000Z</time>
      </trkpt>
      <trkpt lat="46.30689" lon="7.73668">
        <ele>674.20001220703</ele>
        <time>2023-04-04T16:23:12.000Z</time>
      </trkpt>
      <trkpt lat="46.30684" lon="7.73687">
        <ele>674.40002441406</ele>
        <time>2023-04-04T16:23:16.000Z</time>
      </trkpt>
      <trkpt lat="46.30683" lon="7.73692">
        <ele>674.40002441406</ele>
        <time>2023-04-04T16:23:17.000Z</time>
      </trkpt>
      <trkpt lat="46.30682" lon="7.73697">
        <ele>674.40002441406</ele>
        <time>2023-04-04T16:23:18.000Z</time>
      </trkpt>
      <trkpt lat="46.30681" lon="7.73702">
        <ele>674.40002441406</ele>
        <time>2023-04-04T16:23:19.000Z</time>
      </trkpt>
      <trkpt lat="46.3068" lon="7.73708">
        <ele>674.40002441406</ele>
        <time>2023-04-04T16:23:20.000Z</time>
      </trkpt>
      <trkpt lat="46.30679" lon="7.73713">
        <ele>674.40002441406</ele>
        <time>2023-04-04T16:23:21.000Z</time>
      </trkpt>
      <trkpt lat="46.30679" lon="7.73718">
        <ele>674.59997558594</ele>
        <time>2023-04-04T16:23:22.000Z</time>
      </trkpt>
      <trkpt lat="46.30678" lon="7.73724">
        <ele>674.59997558594</ele>
        <time>2023-04-04T16:23:23.000Z</time>
      </trkpt>
      <trkpt lat="46.30677" lon="7.73735">
        <ele>674.59997558594</ele>
        <time>2023-04-04T16:23:25.000Z</time>
      </trkpt>
      <trkpt lat="46.30675" lon="7.73746">
        <ele>674.59997558594</ele>
        <time>2023-04-04T16:23:27.000Z</time>
      </trkpt>
      <trkpt lat="46.30669" lon="7.73804">
        <ele>675</ele>
        <time>2023-04-04T16:23:37.000Z</time>
      </trkpt>
      <trkpt lat="46.30663" lon="7.7385">
        <ele>675.40002441406</ele>
        <time>2023-04-04T16:23:45.000Z</time>
      </trkpt>
      <trkpt lat="46.30661" lon="7.73869">
        <ele>675.40002441406</ele>
        <time>2023-04-04T16:23:48.000Z</time>
      </trkpt>
      <trkpt lat="46.30658" lon="7.73895">
        <ele>675.40002441406</ele>
        <time>2023-04-04T16:23:52.000Z</time>
      </trkpt>
      <trkpt lat="46.30651" lon="7.73948">
        <ele>675.40002441406</ele>
        <time>2023-04-04T16:24:00.000Z</time>
      </trkpt>
      <trkpt lat="46.30648" lon="7.73978">
        <ele>675.40002441406</ele>
        <time>2023-04-04T16:24:05.000Z</time>
      </trkpt>
      <trkpt lat="46.30647" lon="7.73985">
        <ele>675.40002441406</ele>
        <time>2023-04-04T16:24:06.000Z</time>
      </trkpt>
      <trkpt lat="46.30647" lon="7.73991">
        <ele>675.40002441406</ele>
        <time>2023-04-04T16:24:07.000Z</time>
      </trkpt>
      <trkpt lat="46.30647" lon="7.73997">
        <ele>675.40002441406</ele>
        <time>2023-04-04T16:24:08.000Z</time>
      </trkpt>
      <trkpt lat="46.30647" lon="7.74003">
        <ele>675.40002441406</ele>
        <time>2023-04-04T16:24:09.000Z</time>
      </trkpt>
      <trkpt lat="46.30646" lon="7.74009">
        <ele>675.59997558594</ele>
        <time>2023-04-04T16:24:10.000Z</time>
      </trkpt>
      <trkpt lat="46.30646" lon="7.74014">
        <ele>675.59997558594</ele>
        <time>2023-04-04T16:24:11.000Z</time>
      </trkpt>
      <trkpt lat="46.30646" lon="7.7402">
        <ele>675.59997558594</ele>
        <time>2023-04-04T16:24:12.000Z</time>
      </trkpt>
      <trkpt lat="46.30646" lon="7.74026">
        <ele>675.59997558594</ele>
        <time>2023-04-04T16:24:13.000Z</time>
      </trkpt>
      <trkpt lat="46.30646" lon="7.74033">
        <ele>675.59997558594</ele>
        <time>2023-04-04T16:24:14.000Z</time>
      </trkpt>
      <trkpt lat="46.30645" lon="7.74039">
        <ele>675.79998779297</ele>
        <time>2023-04-04T16:24:15.000Z</time>
      </trkpt>
      <trkpt lat="46.30645" lon="7.74045">
        <ele>675.79998779297</ele>
        <time>2023-04-04T16:24:16.000Z</time>
      </trkpt>
      <trkpt lat="46.30645" lon="7.7408">
        <ele>676.20001220703</ele>
        <time>2023-04-04T16:24:22.000Z</time>
      </trkpt>
      <trkpt lat="46.30645" lon="7.74092">
        <ele>676.20001220703</ele>
        <time>2023-04-04T16:24:24.000Z</time>
      </trkpt>
      <trkpt lat="46.30645" lon="7.7411">
        <ele>676.40002441406</ele>
        <time>2023-04-04T16:24:27.000Z</time>
      </trkpt>
      <trkpt lat="46.30646" lon="7.74139">
        <ele>676.59997558594</ele>
        <time>2023-04-04T16:24:32.000Z</time>
      </trkpt>
      <trkpt lat="46.30649" lon="7.74192">
        <ele>676.20001220703</ele>
        <time>2023-04-04T16:24:41.000Z</time>
      </trkpt>
      <trkpt lat="46.30654" lon="7.7424">
        <ele>676.20001220703</ele>
        <time>2023-04-04T16:24:49.000Z</time>
      </trkpt>
      <trkpt lat="46.30655" lon="7.74259">
        <ele>676.20001220703</ele>
        <time>2023-04-04T16:24:52.000Z</time>
      </trkpt>
      <trkpt lat="46.3066" lon="7.74284">
        <ele>676.20001220703</ele>
        <time>2023-04-04T16:24:56.000Z</time>
      </trkpt>
      <trkpt lat="46.30663" lon="7.743">
        <ele>676.40002441406</ele>
        <time>2023-04-04T16:24:59.000Z</time>
      </trkpt>
      <trkpt lat="46.30667" lon="7.74308">
        <ele>676.59997558594</ele>
        <time>2023-04-04T16:25:01.000Z</time>
      </trkpt>
      <trkpt lat="46.30669" lon="7.74311">
        <ele>676.40002441406</ele>
        <time>2023-04-04T16:25:02.000Z</time>
      </trkpt>
      <trkpt lat="46.30671" lon="7.74313">
        <ele>676.59997558594</ele>
        <time>2023-04-04T16:25:03.000Z</time>
      </trkpt>
      <trkpt lat="46.30673" lon="7.74316">
        <ele>676.59997558594</ele>
        <time>2023-04-04T16:25:04.000Z</time>
      </trkpt>
      <trkpt lat="46.30676" lon="7.74318">
        <ele>676.79998779297</ele>
        <time>2023-04-04T16:25:05.000Z</time>
      </trkpt>
      <trkpt lat="46.30681" lon="7.74322">
        <ele>676.79998779297</ele>
        <time>2023-04-04T16:25:07.000Z</time>
      </trkpt>
      <trkpt lat="46.30683" lon="7.74323">
        <ele>676.59997558594</ele>
        <time>2023-04-04T16:25:08.000Z</time>
      </trkpt>
      <trkpt lat="46.30685" lon="7.74325">
        <ele>676.59997558594</ele>
        <time>2023-04-04T16:25:09.000Z</time>
      </trkpt>
      <trkpt lat="46.30687" lon="7.74326">
        <ele>676.59997558594</ele>
        <time>2023-04-04T16:25:10.000Z</time>
      </trkpt>
      <trkpt lat="46.30688" lon="7.74328">
        <ele>676.59997558594</ele>
        <time>2023-04-04T16:25:11.000Z</time>
      </trkpt>
      <trkpt lat="46.30689" lon="7.7433">
        <ele>676.59997558594</ele>
        <time>2023-04-04T16:25:12.000Z</time>
      </trkpt>
      <trkpt lat="46.30689" lon="7.74332">
        <ele>676.59997558594</ele>
        <time>2023-04-04T16:25:13.000Z</time>
      </trkpt>
      <trkpt lat="46.30689" lon="7.74334">
        <ele>676.59997558594</ele>
        <time>2023-04-04T16:25:14.000Z</time>
      </trkpt>
      <trkpt lat="46.30687" lon="7.7434">
        <ele>676.40002441406</ele>
        <time>2023-04-04T16:25:16.000Z</time>
      </trkpt>
      <trkpt lat="46.30684" lon="7.74353">
        <ele>676</ele>
        <time>2023-04-04T16:25:20.000Z</time>
      </trkpt>
      <trkpt lat="46.30684" lon="7.74358">
        <ele>676</ele>
        <time>2023-04-04T16:25:22.000Z</time>
      </trkpt>
      <trkpt lat="46.30685" lon="7.74359">
        <ele>676</ele>
        <time>2023-04-04T16:25:23.000Z</time>
      </trkpt>
      <trkpt lat="46.30686" lon="7.74361">
        <ele>675.79998779297</ele>
        <time>2023-04-04T16:25:24.000Z</time>
      </trkpt>
      <trkpt lat="46.30687" lon="7.74363">
        <ele>675.79998779297</ele>
        <time>2023-04-04T16:25:25.000Z</time>
      </trkpt>
      <trkpt lat="46.30688" lon="7.74366">
        <ele>675.79998779297</ele>
        <time>2023-04-04T16:25:26.000Z</time>
      </trkpt>
      <trkpt lat="46.30689" lon="7.74369">
        <ele>675.79998779297</ele>
        <time>2023-04-04T16:25:27.000Z</time>
      </trkpt>
      <trkpt lat="46.30691" lon="7.74372">
        <ele>675.79998779297</ele>
        <time>2023-04-04T16:25:28.000Z</time>
      </trkpt>
      <trkpt lat="46.30691" lon="7.74375">
        <ele>675.79998779297</ele>
        <time>2023-04-04T16:25:29.000Z</time>
      </trkpt>
      <trkpt lat="46.3069" lon="7.74379">
        <ele>675.79998779297</ele>
        <time>2023-04-04T16:25:30.000Z</time>
      </trkpt>
      <trkpt lat="46.30689" lon="7.74381">
        <ele>675.79998779297</ele>
        <time>2023-04-04T16:25:31.000Z</time>
      </trkpt>
      <trkpt lat="46.30688" lon="7.74383">
        <ele>675.79998779297</ele>
        <time>2023-04-04T16:25:32.000Z</time>
      </trkpt>
      <trkpt lat="46.30684" lon="7.74386">
        <ele>675.59997558594</ele>
        <time>2023-04-04T16:25:34.000Z</time>
      </trkpt>
      <trkpt lat="46.30684" lon="7.74388">
        <ele>675.79998779297</ele>
        <time>2023-04-04T16:25:35.000Z</time>
      </trkpt>
      <trkpt lat="46.30681" lon="7.74391">
        <ele>676</ele>
        <time>2023-04-04T16:25:37.000Z</time>
      </trkpt>
      <trkpt lat="46.3068" lon="7.74394">
        <ele>676</ele>
        <time>2023-04-04T16:25:38.000Z</time>
      </trkpt>
      <trkpt lat="46.3068" lon="7.74397">
        <ele>676</ele>
        <time>2023-04-04T16:25:39.000Z</time>
      </trkpt>
      <trkpt lat="46.30679" lon="7.74401">
        <ele>676</ele>
        <time>2023-04-04T16:25:40.000Z</time>
      </trkpt>
      <trkpt lat="46.3068" lon="7.74404">
        <ele>676.20001220703</ele>
        <time>2023-04-04T16:25:41.000Z</time>
      </trkpt>
      <trkpt lat="46.3068" lon="7.74408">
        <ele>676.40002441406</ele>
        <time>2023-04-04T16:25:42.000Z</time>
      </trkpt>
      <trkpt lat="46.30681" lon="7.74412">
        <ele>676.40002441406</ele>
        <time>2023-04-04T16:25:43.000Z</time>
      </trkpt>
      <trkpt lat="46.30681" lon="7.74417">
        <ele>676.59997558594</ele>
        <time>2023-04-04T16:25:44.000Z</time>
      </trkpt>
      <trkpt lat="46.30682" lon="7.74421">
        <ele>676.59997558594</ele>
        <time>2023-04-04T16:25:45.000Z</time>
      </trkpt>
      <trkpt lat="46.30687" lon="7.74447">
        <ele>676.79998779297</ele>
        <time>2023-04-04T16:25:50.000Z</time>
      </trkpt>
      <trkpt lat="46.30688" lon="7.74452">
        <ele>676.79998779297</ele>
        <time>2023-04-04T16:25:51.000Z</time>
      </trkpt>
      <trkpt lat="46.30691" lon="7.74467">
        <ele>676.79998779297</ele>
        <time>2023-04-04T16:25:55.000Z</time>
      </trkpt>
      <trkpt lat="46.30692" lon="7.74471">
        <ele>676.79998779297</ele>
        <time>2023-04-04T16:25:56.000Z</time>
      </trkpt>
      <trkpt lat="46.30691" lon="7.74478">
        <ele>676.79998779297</ele>
        <time>2023-04-04T16:25:57.000Z</time>
      </trkpt>
      <trkpt lat="46.30695" lon="7.7449">
        <ele>676.59997558594</ele>
        <time>2023-04-04T16:26:00.000Z</time>
      </trkpt>
      <trkpt lat="46.30697" lon="7.74493">
        <ele>676.40002441406</ele>
        <time>2023-04-04T16:26:01.000Z</time>
      </trkpt>
      <trkpt lat="46.30698" lon="7.74497">
        <ele>676.59997558594</ele>
        <time>2023-04-04T16:26:02.000Z</time>
      </trkpt>
      <trkpt lat="46.30698" lon="7.74501">
        <ele>676.59997558594</ele>
        <time>2023-04-04T16:26:03.000Z</time>
      </trkpt>
      <trkpt lat="46.30699" lon="7.74505">
        <ele>676.59997558594</ele>
        <time>2023-04-04T16:26:04.000Z</time>
      </trkpt>
      <trkpt lat="46.307" lon="7.7451">
        <ele>676.59997558594</ele>
        <time>2023-04-04T16:26:05.000Z</time>
      </trkpt>
      <trkpt lat="46.30701" lon="7.74514">
        <ele>676.59997558594</ele>
        <time>2023-04-04T16:26:06.000Z</time>
      </trkpt>
      <trkpt lat="46.30702" lon="7.74523">
        <ele>676.59997558594</ele>
        <time>2023-04-04T16:26:08.000Z</time>
      </trkpt>
      <trkpt lat="46.30708" lon="7.7456">
        <ele>676.59997558594</ele>
        <time>2023-04-04T16:26:15.000Z</time>
      </trkpt>
      <trkpt lat="46.30717" lon="7.74606">
        <ele>676.59997558594</ele>
        <time>2023-04-04T16:26:23.000Z</time>
      </trkpt>
      <trkpt lat="46.30726" lon="7.74647">
        <ele>676.40002441406</ele>
        <time>2023-04-04T16:26:30.000Z</time>
      </trkpt>
      <trkpt lat="46.30729" lon="7.74658">
        <ele>676.40002441406</ele>
        <time>2023-04-04T16:26:32.000Z</time>
      </trkpt>
      <trkpt lat="46.3073" lon="7.74668">
        <ele>676.40002441406</ele>
        <time>2023-04-04T16:26:34.000Z</time>
      </trkpt>
      <trkpt lat="46.30731" lon="7.74674">
        <ele>676.40002441406</ele>
        <time>2023-04-04T16:26:35.000Z</time>
      </trkpt>
      <trkpt lat="46.30732" lon="7.7468">
        <ele>676.40002441406</ele>
        <time>2023-04-04T16:26:36.000Z</time>
      </trkpt>
      <trkpt lat="46.30733" lon="7.74685">
        <ele>676.40002441406</ele>
        <time>2023-04-04T16:26:37.000Z</time>
      </trkpt>
      <trkpt lat="46.30735" lon="7.74691">
        <ele>676.40002441406</ele>
        <time>2023-04-04T16:26:38.000Z</time>
      </trkpt>
      <trkpt lat="46.3074" lon="7.74713">
        <ele>676.40002441406</ele>
        <time>2023-04-04T16:26:42.000Z</time>
      </trkpt>
      <trkpt lat="46.30741" lon="7.74719">
        <ele>676.40002441406</ele>
        <time>2023-04-04T16:26:43.000Z</time>
      </trkpt>
      <trkpt lat="46.30744" lon="7.7473">
        <ele>676.20001220703</ele>
        <time>2023-04-04T16:26:45.000Z</time>
      </trkpt>
      <trkpt lat="46.30751" lon="7.74758">
        <ele>676.20001220703</ele>
        <time>2023-04-04T16:26:50.000Z</time>
      </trkpt>
      <trkpt lat="46.30752" lon="7.74763">
        <ele>676.20001220703</ele>
        <time>2023-04-04T16:26:51.000Z</time>
      </trkpt>
      <trkpt lat="46.30753" lon="7.74768">
        <ele>676.20001220703</ele>
        <time>2023-04-04T16:26:52.000Z</time>
      </trkpt>
      <trkpt lat="46.30762" lon="7.74801">
        <ele>676.40002441406</ele>
        <time>2023-04-04T16:26:58.000Z</time>
      </trkpt>
      <trkpt lat="46.3077" lon="7.7484">
        <ele>676.79998779297</ele>
        <time>2023-04-04T16:27:05.000Z</time>
      </trkpt>
      <trkpt lat="46.30781" lon="7.74892">
        <ele>676.79998779297</ele>
        <time>2023-04-04T16:27:14.000Z</time>
      </trkpt>
      <trkpt lat="46.30786" lon="7.74916">
        <ele>677</ele>
        <time>2023-04-04T16:27:18.000Z</time>
      </trkpt>
      <trkpt lat="46.30791" lon="7.74939">
        <ele>677</ele>
        <time>2023-04-04T16:27:22.000Z</time>
      </trkpt>
      <trkpt lat="46.30795" lon="7.74956">
        <ele>677.20001220703</ele>
        <time>2023-04-04T16:27:25.000Z</time>
      </trkpt>
      <trkpt lat="46.30796" lon="7.74968">
        <ele>677.20001220703</ele>
        <time>2023-04-04T16:27:27.000Z</time>
      </trkpt>
      <trkpt lat="46.30796" lon="7.74973">
        <ele>677.20001220703</ele>
        <time>2023-04-04T16:27:28.000Z</time>
      </trkpt>
      <trkpt lat="46.30797" lon="7.74979">
        <ele>677.20001220703</ele>
        <time>2023-04-04T16:27:29.000Z</time>
      </trkpt>
      <trkpt lat="46.30798" lon="7.74985">
        <ele>677</ele>
        <time>2023-04-04T16:27:30.000Z</time>
      </trkpt>
      <trkpt lat="46.30803" lon="7.75009">
        <ele>677</ele>
        <time>2023-04-04T16:27:34.000Z</time>
      </trkpt>
      <trkpt lat="46.30804" lon="7.75015">
        <ele>676.79998779297</ele>
        <time>2023-04-04T16:27:35.000Z</time>
      </trkpt>
      <trkpt lat="46.30805" lon="7.7502">
        <ele>676.79998779297</ele>
        <time>2023-04-04T16:27:36.000Z</time>
      </trkpt>
      <trkpt lat="46.30812" lon="7.75045">
        <ele>677.20001220703</ele>
        <time>2023-04-04T16:27:40.000Z</time>
      </trkpt>
      <trkpt lat="46.30813" lon="7.75051">
        <ele>677.40002441406</ele>
        <time>2023-04-04T16:27:41.000Z</time>
      </trkpt>
      <trkpt lat="46.30815" lon="7.75057">
        <ele>677.40002441406</ele>
        <time>2023-04-04T16:27:42.000Z</time>
      </trkpt>
      <trkpt lat="46.30817" lon="7.75064">
        <ele>677.40002441406</ele>
        <time>2023-04-04T16:27:43.000Z</time>
      </trkpt>
      <trkpt lat="46.30819" lon="7.75069">
        <ele>677.40002441406</ele>
        <time>2023-04-04T16:27:44.000Z</time>
      </trkpt>
      <trkpt lat="46.3083" lon="7.75109">
        <ele>677.40002441406</ele>
        <time>2023-04-04T16:27:51.000Z</time>
      </trkpt>
      <trkpt lat="46.30831" lon="7.75115">
        <ele>677.40002441406</ele>
        <time>2023-04-04T16:27:52.000Z</time>
      </trkpt>
      <trkpt lat="46.30832" lon="7.75121">
        <ele>677.40002441406</ele>
        <time>2023-04-04T16:27:53.000Z</time>
      </trkpt>
      <trkpt lat="46.30844" lon="7.75168">
        <ele>677.59997558594</ele>
        <time>2023-04-04T16:28:01.000Z</time>
      </trkpt>
      <trkpt lat="46.30848" lon="7.75189">
        <ele>677.79998779297</ele>
        <time>2023-04-04T16:28:05.000Z</time>
      </trkpt>
      <trkpt lat="46.3085" lon="7.752">
        <ele>677.79998779297</ele>
        <time>2023-04-04T16:28:07.000Z</time>
      </trkpt>
      <trkpt lat="46.30851" lon="7.75206">
        <ele>677.79998779297</ele>
        <time>2023-04-04T16:28:08.000Z</time>
      </trkpt>
      <trkpt lat="46.30853" lon="7.75212">
        <ele>677.79998779297</ele>
        <time>2023-04-04T16:28:09.000Z</time>
      </trkpt>
      <trkpt lat="46.30856" lon="7.75222">
        <ele>677.79998779297</ele>
        <time>2023-04-04T16:28:11.000Z</time>
      </trkpt>
      <trkpt lat="46.30857" lon="7.75227">
        <ele>677.79998779297</ele>
        <time>2023-04-04T16:28:12.000Z</time>
      </trkpt>
      <trkpt lat="46.30858" lon="7.75232">
        <ele>677.79998779297</ele>
        <time>2023-04-04T16:28:13.000Z</time>
      </trkpt>
      <trkpt lat="46.30859" lon="7.75236">
        <ele>677.79998779297</ele>
        <time>2023-04-04T16:28:14.000Z</time>
      </trkpt>
      <trkpt lat="46.3086" lon="7.75241">
        <ele>677.79998779297</ele>
        <time>2023-04-04T16:28:15.000Z</time>
      </trkpt>
      <trkpt lat="46.30861" lon="7.75246">
        <ele>677.59997558594</ele>
        <time>2023-04-04T16:28:16.000Z</time>
      </trkpt>
      <trkpt lat="46.30867" lon="7.7527">
        <ele>677.59997558594</ele>
        <time>2023-04-04T16:28:21.000Z</time>
      </trkpt>
      <trkpt lat="46.30868" lon="7.75275">
        <ele>677.59997558594</ele>
        <time>2023-04-04T16:28:22.000Z</time>
      </trkpt>
      <trkpt lat="46.30869" lon="7.75279">
        <ele>677.59997558594</ele>
        <time>2023-04-04T16:28:23.000Z</time>
      </trkpt>
      <trkpt lat="46.30875" lon="7.75311">
        <ele>677.79998779297</ele>
        <time>2023-04-04T16:28:29.000Z</time>
      </trkpt>
      <trkpt lat="46.30878" lon="7.75321">
        <ele>678</ele>
        <time>2023-04-04T16:28:31.000Z</time>
      </trkpt>
      <trkpt lat="46.30885" lon="7.75352">
        <ele>678</ele>
        <time>2023-04-04T16:28:37.000Z</time>
      </trkpt>
      <trkpt lat="46.30889" lon="7.75372">
        <ele>678</ele>
        <time>2023-04-04T16:28:41.000Z</time>
      </trkpt>
      <trkpt lat="46.3089" lon="7.75377">
        <ele>678</ele>
        <time>2023-04-04T16:28:42.000Z</time>
      </trkpt>
      <trkpt lat="46.30892" lon="7.75382">
        <ele>678</ele>
        <time>2023-04-04T16:28:43.000Z</time>
      </trkpt>
      <trkpt lat="46.30895" lon="7.75392">
        <ele>678</ele>
        <time>2023-04-04T16:28:45.000Z</time>
      </trkpt>
      <trkpt lat="46.30899" lon="7.75402">
        <ele>678</ele>
        <time>2023-04-04T16:28:47.000Z</time>
      </trkpt>
      <trkpt lat="46.309" lon="7.75406">
        <ele>678</ele>
        <time>2023-04-04T16:28:48.000Z</time>
      </trkpt>
      <trkpt lat="46.30902" lon="7.75411">
        <ele>678</ele>
        <time>2023-04-04T16:28:49.000Z</time>
      </trkpt>
      <trkpt lat="46.30904" lon="7.75416">
        <ele>677.79998779297</ele>
        <time>2023-04-04T16:28:50.000Z</time>
      </trkpt>
      <trkpt lat="46.3091" lon="7.75431">
        <ele>677.79998779297</ele>
        <time>2023-04-04T16:28:53.000Z</time>
      </trkpt>
      <trkpt lat="46.30915" lon="7.7544">
        <ele>677.59997558594</ele>
        <time>2023-04-04T16:28:55.000Z</time>
      </trkpt>
      <trkpt lat="46.30917" lon="7.75444">
        <ele>677.59997558594</ele>
        <time>2023-04-04T16:28:56.000Z</time>
      </trkpt>
      <trkpt lat="46.30919" lon="7.75447">
        <ele>677.59997558594</ele>
        <time>2023-04-04T16:28:57.000Z</time>
      </trkpt>
      <trkpt lat="46.30922" lon="7.75455">
        <ele>677.79998779297</ele>
        <time>2023-04-04T16:28:59.000Z</time>
      </trkpt>
      <trkpt lat="46.30923" lon="7.75458">
        <ele>678</ele>
        <time>2023-04-04T16:29:00.000Z</time>
      </trkpt>
      <trkpt lat="46.30924" lon="7.75461">
        <ele>678</ele>
        <time>2023-04-04T16:29:01.000Z</time>
      </trkpt>
      <trkpt lat="46.30924" lon="7.75465">
        <ele>678.20001220703</ele>
        <time>2023-04-04T16:29:02.000Z</time>
      </trkpt>
      <trkpt lat="46.30925" lon="7.75468">
        <ele>678.40002441406</ele>
        <time>2023-04-04T16:29:03.000Z</time>
      </trkpt>
      <trkpt lat="46.30925" lon="7.75475">
        <ele>678.79998779297</ele>
        <time>2023-04-04T16:29:05.000Z</time>
      </trkpt>
      <trkpt lat="46.30926" lon="7.75478">
        <ele>679</ele>
        <time>2023-04-04T16:29:06.000Z</time>
      </trkpt>
      <trkpt lat="46.30926" lon="7.75481">
        <ele>679.20001220703</ele>
        <time>2023-04-04T16:29:07.000Z</time>
      </trkpt>
      <trkpt lat="46.30926" lon="7.75485">
        <ele>679.40002441406</ele>
        <time>2023-04-04T16:29:08.000Z</time>
      </trkpt>
      <trkpt lat="46.30926" lon="7.75489">
        <ele>679.40002441406</ele>
        <time>2023-04-04T16:29:09.000Z</time>
      </trkpt>
      <trkpt lat="46.30926" lon="7.75502">
        <ele>679.59997558594</ele>
        <time>2023-04-04T16:29:12.000Z</time>
      </trkpt>
      <trkpt lat="46.30929" lon="7.75538">
        <ele>679.59997558594</ele>
        <time>2023-04-04T16:29:18.000Z</time>
      </trkpt>
      <trkpt lat="46.30931" lon="7.75551">
        <ele>679</ele>
        <time>2023-04-04T16:29:20.000Z</time>
      </trkpt>
      <trkpt lat="46.30932" lon="7.75557">
        <ele>678.79998779297</ele>
        <time>2023-04-04T16:29:21.000Z</time>
      </trkpt>
      <trkpt lat="46.30933" lon="7.75562">
        <ele>678.79998779297</ele>
        <time>2023-04-04T16:29:22.000Z</time>
      </trkpt>
      <trkpt lat="46.30935" lon="7.75577">
        <ele>678.40002441406</ele>
        <time>2023-04-04T16:29:25.000Z</time>
      </trkpt>
      <trkpt lat="46.30936" lon="7.75582">
        <ele>678.40002441406</ele>
        <time>2023-04-04T16:29:26.000Z</time>
      </trkpt>
      <trkpt lat="46.30937" lon="7.75586">
        <ele>678.40002441406</ele>
        <time>2023-04-04T16:29:27.000Z</time>
      </trkpt>
      <trkpt lat="46.30938" lon="7.75591">
        <ele>678.20001220703</ele>
        <time>2023-04-04T16:29:28.000Z</time>
      </trkpt>
      <trkpt lat="46.30938" lon="7.75595">
        <ele>678.20001220703</ele>
        <time>2023-04-04T16:29:29.000Z</time>
      </trkpt>
      <trkpt lat="46.30939" lon="7.75603">
        <ele>678.20001220703</ele>
        <time>2023-04-04T16:29:31.000Z</time>
      </trkpt>
      <trkpt lat="46.3094" lon="7.75607">
        <ele>678</ele>
        <time>2023-04-04T16:29:32.000Z</time>
      </trkpt>
      <trkpt lat="46.3094" lon="7.7561">
        <ele>678</ele>
        <time>2023-04-04T16:29:33.000Z</time>
      </trkpt>
      <trkpt lat="46.3094" lon="7.75613">
        <ele>678</ele>
        <time>2023-04-04T16:29:34.000Z</time>
      </trkpt>
      <trkpt lat="46.3094" lon="7.75616">
        <ele>678</ele>
        <time>2023-04-04T16:29:35.000Z</time>
      </trkpt>
      <trkpt lat="46.3094" lon="7.75616">
        <ele>678</ele>
        <time>2023-04-04T16:29:36.000Z</time>
      </trkpt>
      <trkpt lat="46.3094" lon="7.75616">
        <ele>678</ele>
        <time>2023-04-04T16:29:37.000Z</time>
      </trkpt>
      <trkpt lat="46.3094" lon="7.75616">
        <ele>678</ele>
        <time>2023-04-04T16:29:38.000Z</time>
      </trkpt>
      <trkpt lat="46.3094" lon="7.75622">
        <ele>678.59997558594</ele>
        <time>2023-04-04T16:30:03.000Z</time>
      </trkpt>
      <trkpt lat="46.30941" lon="7.75628">
        <ele>678.59997558594</ele>
        <time>2023-04-04T16:30:05.000Z</time>
      </trkpt>
      <trkpt lat="46.30942" lon="7.75655">
        <ele>678.20001220703</ele>
        <time>2023-04-04T16:30:11.000Z</time>
      </trkpt>
      <trkpt lat="46.30943" lon="7.75659">
        <ele>678.20001220703</ele>
        <time>2023-04-04T16:30:12.000Z</time>
      </trkpt>
      <trkpt lat="46.30943" lon="7.75663">
        <ele>678.20001220703</ele>
        <time>2023-04-04T16:30:13.000Z</time>
      </trkpt>
      <trkpt lat="46.30946" lon="7.75693">
        <ele>677.59997558594</ele>
        <time>2023-04-04T16:30:19.000Z</time>
      </trkpt>
      <trkpt lat="46.30949" lon="7.7572">
        <ele>677.59997558594</ele>
        <time>2023-04-04T16:30:25.000Z</time>
      </trkpt>
      <trkpt lat="46.30946" lon="7.75763">
        <ele>677.79998779297</ele>
        <time>2023-04-04T16:30:33.000Z</time>
      </trkpt>
      <trkpt lat="46.30943" lon="7.75808">
        <ele>678</ele>
        <time>2023-04-04T16:30:41.000Z</time>
      </trkpt>
      <trkpt lat="46.3094" lon="7.75865">
        <ele>678.20001220703</ele>
        <time>2023-04-04T16:30:51.000Z</time>
      </trkpt>
      <trkpt lat="46.3094" lon="7.7587">
        <ele>678.20001220703</ele>
        <time>2023-04-04T16:30:52.000Z</time>
      </trkpt>
      <trkpt lat="46.30939" lon="7.75875">
        <ele>678.20001220703</ele>
        <time>2023-04-04T16:30:53.000Z</time>
      </trkpt>
      <trkpt lat="46.30938" lon="7.75886">
        <ele>678.20001220703</ele>
        <time>2023-04-04T16:30:55.000Z</time>
      </trkpt>
      <trkpt lat="46.30937" lon="7.75892">
        <ele>678.20001220703</ele>
        <time>2023-04-04T16:30:56.000Z</time>
      </trkpt>
      <trkpt lat="46.30935" lon="7.75919">
        <ele>678.20001220703</ele>
        <time>2023-04-04T16:31:01.000Z</time>
      </trkpt>
      <trkpt lat="46.30935" lon="7.75929">
        <ele>678.20001220703</ele>
        <time>2023-04-04T16:31:03.000Z</time>
      </trkpt>
      <trkpt lat="46.30934" lon="7.75934">
        <ele>678.20001220703</ele>
        <time>2023-04-04T16:31:04.000Z</time>
      </trkpt>
      <trkpt lat="46.30934" lon="7.75945">
        <ele>678.20001220703</ele>
        <time>2023-04-04T16:31:06.000Z</time>
      </trkpt>
      <trkpt lat="46.30933" lon="7.75962">
        <ele>678.20001220703</ele>
        <time>2023-04-04T16:31:09.000Z</time>
      </trkpt>
      <trkpt lat="46.30932" lon="7.75968">
        <ele>678.20001220703</ele>
        <time>2023-04-04T16:31:10.000Z</time>
      </trkpt>
      <trkpt lat="46.3093" lon="7.7598">
        <ele>678.20001220703</ele>
        <time>2023-04-04T16:31:12.000Z</time>
      </trkpt>
      <trkpt lat="46.30923" lon="7.76034">
        <ele>678.40002441406</ele>
        <time>2023-04-04T16:31:21.000Z</time>
      </trkpt>
      <trkpt lat="46.30919" lon="7.76071">
        <ele>678.40002441406</ele>
        <time>2023-04-04T16:31:27.000Z</time>
      </trkpt>
      <trkpt lat="46.30914" lon="7.76105">
        <ele>678.40002441406</ele>
        <time>2023-04-04T16:31:33.000Z</time>
      </trkpt>
      <trkpt lat="46.30913" lon="7.76116">
        <ele>678.40002441406</ele>
        <time>2023-04-04T16:31:35.000Z</time>
      </trkpt>
      <trkpt lat="46.30912" lon="7.76122">
        <ele>678.40002441406</ele>
        <time>2023-04-04T16:31:36.000Z</time>
      </trkpt>
      <trkpt lat="46.30912" lon="7.76127">
        <ele>678.59997558594</ele>
        <time>2023-04-04T16:31:37.000Z</time>
      </trkpt>
      <trkpt lat="46.30911" lon="7.76133">
        <ele>678.59997558594</ele>
        <time>2023-04-04T16:31:38.000Z</time>
      </trkpt>
      <trkpt lat="46.30909" lon="7.76144">
        <ele>678.59997558594</ele>
        <time>2023-04-04T16:31:40.000Z</time>
      </trkpt>
      <trkpt lat="46.30906" lon="7.76162">
        <ele>678.59997558594</ele>
        <time>2023-04-04T16:31:43.000Z</time>
      </trkpt>
      <trkpt lat="46.309" lon="7.76208">
        <ele>678.40002441406</ele>
        <time>2023-04-04T16:31:51.000Z</time>
      </trkpt>
      <trkpt lat="46.30899" lon="7.76212">
        <ele>678.40002441406</ele>
        <time>2023-04-04T16:31:52.000Z</time>
      </trkpt>
      <trkpt lat="46.30899" lon="7.76217">
        <ele>678.40002441406</ele>
        <time>2023-04-04T16:31:53.000Z</time>
      </trkpt>
      <trkpt lat="46.30898" lon="7.76223">
        <ele>678.40002441406</ele>
        <time>2023-04-04T16:31:54.000Z</time>
      </trkpt>
      <trkpt lat="46.30896" lon="7.76239">
        <ele>678.59997558594</ele>
        <time>2023-04-04T16:31:57.000Z</time>
      </trkpt>
      <trkpt lat="46.30895" lon="7.76251">
        <ele>678.59997558594</ele>
        <time>2023-04-04T16:31:59.000Z</time>
      </trkpt>
      <trkpt lat="46.30894" lon="7.76262">
        <ele>678.59997558594</ele>
        <time>2023-04-04T16:32:01.000Z</time>
      </trkpt>
      <trkpt lat="46.3089" lon="7.76285">
        <ele>678.79998779297</ele>
        <time>2023-04-04T16:32:05.000Z</time>
      </trkpt>
      <trkpt lat="46.30884" lon="7.76321">
        <ele>678.79998779297</ele>
        <time>2023-04-04T16:32:11.000Z</time>
      </trkpt>
      <trkpt lat="46.3088" lon="7.7635">
        <ele>678.59997558594</ele>
        <time>2023-04-04T16:32:16.000Z</time>
      </trkpt>
      <trkpt lat="46.3088" lon="7.76356">
        <ele>678.59997558594</ele>
        <time>2023-04-04T16:32:17.000Z</time>
      </trkpt>
      <trkpt lat="46.30879" lon="7.76361">
        <ele>678.59997558594</ele>
        <time>2023-04-04T16:32:18.000Z</time>
      </trkpt>
      <trkpt lat="46.30877" lon="7.76373">
        <ele>678.79998779297</ele>
        <time>2023-04-04T16:32:20.000Z</time>
      </trkpt>
      <trkpt lat="46.30877" lon="7.76378">
        <ele>678.79998779297</ele>
        <time>2023-04-04T16:32:21.000Z</time>
      </trkpt>
      <trkpt lat="46.30876" lon="7.76383">
        <ele>678.79998779297</ele>
        <time>2023-04-04T16:32:22.000Z</time>
      </trkpt>
      <trkpt lat="46.30876" lon="7.76389">
        <ele>678.79998779297</ele>
        <time>2023-04-04T16:32:23.000Z</time>
      </trkpt>
      <trkpt lat="46.30875" lon="7.76395">
        <ele>678.79998779297</ele>
        <time>2023-04-04T16:32:24.000Z</time>
      </trkpt>
      <trkpt lat="46.30874" lon="7.764">
        <ele>678.79998779297</ele>
        <time>2023-04-04T16:32:25.000Z</time>
      </trkpt>
      <trkpt lat="46.30874" lon="7.76405">
        <ele>678.79998779297</ele>
        <time>2023-04-04T16:32:26.000Z</time>
      </trkpt>
      <trkpt lat="46.30873" lon="7.76411">
        <ele>678.79998779297</ele>
        <time>2023-04-04T16:32:27.000Z</time>
      </trkpt>
      <trkpt lat="46.30868" lon="7.76451">
        <ele>679</ele>
        <time>2023-04-04T16:32:34.000Z</time>
      </trkpt>
      <trkpt lat="46.30867" lon="7.76457">
        <ele>679</ele>
        <time>2023-04-04T16:32:35.000Z</time>
      </trkpt>
      <trkpt lat="46.30863" lon="7.76493">
        <ele>678.79998779297</ele>
        <time>2023-04-04T16:32:41.000Z</time>
      </trkpt>
      <trkpt lat="46.30856" lon="7.76543">
        <ele>679</ele>
        <time>2023-04-04T16:32:49.000Z</time>
      </trkpt>
      <trkpt lat="46.30854" lon="7.76566">
        <ele>679.20001220703</ele>
        <time>2023-04-04T16:32:53.000Z</time>
      </trkpt>
      <trkpt lat="46.30854" lon="7.76572">
        <ele>679.20001220703</ele>
        <time>2023-04-04T16:32:54.000Z</time>
      </trkpt>
      <trkpt lat="46.30853" lon="7.7658">
        <ele>679.20001220703</ele>
        <time>2023-04-04T16:32:55.000Z</time>
      </trkpt>
      <trkpt lat="46.30853" lon="7.76584">
        <ele>679</ele>
        <time>2023-04-04T16:32:56.000Z</time>
      </trkpt>
      <trkpt lat="46.30852" lon="7.76591">
        <ele>678.79998779297</ele>
        <time>2023-04-04T16:32:57.000Z</time>
      </trkpt>
      <trkpt lat="46.3085" lon="7.76603">
        <ele>678.79998779297</ele>
        <time>2023-04-04T16:32:59.000Z</time>
      </trkpt>
      <trkpt lat="46.30843" lon="7.76634">
        <ele>678.79998779297</ele>
        <time>2023-04-04T16:33:04.000Z</time>
      </trkpt>
      <trkpt lat="46.30843" lon="7.76647">
        <ele>679.20001220703</ele>
        <time>2023-04-04T16:33:06.000Z</time>
      </trkpt>
      <trkpt lat="46.3084" lon="7.76668">
        <ele>679.20001220703</ele>
        <time>2023-04-04T16:33:10.000Z</time>
      </trkpt>
      <trkpt lat="46.30838" lon="7.76673">
        <ele>679</ele>
        <time>2023-04-04T16:33:11.000Z</time>
      </trkpt>
      <trkpt lat="46.30836" lon="7.76678">
        <ele>679</ele>
        <time>2023-04-04T16:33:12.000Z</time>
      </trkpt>
      <trkpt lat="46.30835" lon="7.76683">
        <ele>679.20001220703</ele>
        <time>2023-04-04T16:33:13.000Z</time>
      </trkpt>
      <trkpt lat="46.30835" lon="7.76688">
        <ele>679.20001220703</ele>
        <time>2023-04-04T16:33:14.000Z</time>
      </trkpt>
      <trkpt lat="46.30834" lon="7.76693">
        <ele>679.20001220703</ele>
        <time>2023-04-04T16:33:15.000Z</time>
      </trkpt>
      <trkpt lat="46.30834" lon="7.76698">
        <ele>679.40002441406</ele>
        <time>2023-04-04T16:33:16.000Z</time>
      </trkpt>
      <trkpt lat="46.30834" lon="7.76703">
        <ele>679.40002441406</ele>
        <time>2023-04-04T16:33:17.000Z</time>
      </trkpt>
      <trkpt lat="46.30833" lon="7.76708">
        <ele>679.59997558594</ele>
        <time>2023-04-04T16:33:18.000Z</time>
      </trkpt>
      <trkpt lat="46.30833" lon="7.76713">
        <ele>679.59997558594</ele>
        <time>2023-04-04T16:33:19.000Z</time>
      </trkpt>
      <trkpt lat="46.30832" lon="7.76733">
        <ele>679.79998779297</ele>
        <time>2023-04-04T16:33:23.000Z</time>
      </trkpt>
      <trkpt lat="46.30832" lon="7.76738">
        <ele>679.79998779297</ele>
        <time>2023-04-04T16:33:24.000Z</time>
      </trkpt>
      <trkpt lat="46.3083" lon="7.76749">
        <ele>679.79998779297</ele>
        <time>2023-04-04T16:33:26.000Z</time>
      </trkpt>
      <trkpt lat="46.30827" lon="7.76764">
        <ele>679.59997558594</ele>
        <time>2023-04-04T16:33:29.000Z</time>
      </trkpt>
      <trkpt lat="46.30827" lon="7.7677">
        <ele>679.40002441406</ele>
        <time>2023-04-04T16:33:30.000Z</time>
      </trkpt>
      <trkpt lat="46.30822" lon="7.76808">
        <ele>679.40002441406</ele>
        <time>2023-04-04T16:33:37.000Z</time>
      </trkpt>
      <trkpt lat="46.30814" lon="7.76865">
        <ele>679.40002441406</ele>
        <time>2023-04-04T16:33:47.000Z</time>
      </trkpt>
      <trkpt lat="46.30811" lon="7.7689">
        <ele>679.40002441406</ele>
        <time>2023-04-04T16:33:52.000Z</time>
      </trkpt>
      <trkpt lat="46.30811" lon="7.76895">
        <ele>679.40002441406</ele>
        <time>2023-04-04T16:33:53.000Z</time>
      </trkpt>
      <trkpt lat="46.30811" lon="7.769">
        <ele>679.20001220703</ele>
        <time>2023-04-04T16:33:54.000Z</time>
      </trkpt>
      <trkpt lat="46.3081" lon="7.76905">
        <ele>679.20001220703</ele>
        <time>2023-04-04T16:33:55.000Z</time>
      </trkpt>
      <trkpt lat="46.3081" lon="7.7691">
        <ele>679.40002441406</ele>
        <time>2023-04-04T16:33:56.000Z</time>
      </trkpt>
      <trkpt lat="46.3081" lon="7.76915">
        <ele>679.40002441406</ele>
        <time>2023-04-04T16:33:57.000Z</time>
      </trkpt>
      <trkpt lat="46.30809" lon="7.7692">
        <ele>679.40002441406</ele>
        <time>2023-04-04T16:33:58.000Z</time>
      </trkpt>
      <trkpt lat="46.30808" lon="7.7693">
        <ele>679.40002441406</ele>
        <time>2023-04-04T16:34:00.000Z</time>
      </trkpt>
      <trkpt lat="46.30808" lon="7.76936">
        <ele>679.40002441406</ele>
        <time>2023-04-04T16:34:01.000Z</time>
      </trkpt>
      <trkpt lat="46.30807" lon="7.76942">
        <ele>679.59997558594</ele>
        <time>2023-04-04T16:34:02.000Z</time>
      </trkpt>
      <trkpt lat="46.30804" lon="7.76972">
        <ele>679.79998779297</ele>
        <time>2023-04-04T16:34:07.000Z</time>
      </trkpt>
      <trkpt lat="46.30799" lon="7.76989">
        <ele>680</ele>
        <time>2023-04-04T16:34:10.000Z</time>
      </trkpt>
      <trkpt lat="46.30797" lon="7.77007">
        <ele>680</ele>
        <time>2023-04-04T16:34:13.000Z</time>
      </trkpt>
      <trkpt lat="46.30796" lon="7.77012">
        <ele>680</ele>
        <time>2023-04-04T16:34:14.000Z</time>
      </trkpt>
      <trkpt lat="46.30795" lon="7.77018">
        <ele>680.20001220703</ele>
        <time>2023-04-04T16:34:15.000Z</time>
      </trkpt>
      <trkpt lat="46.3079" lon="7.7705">
        <ele>680.20001220703</ele>
        <time>2023-04-04T16:34:20.000Z</time>
      </trkpt>
      <trkpt lat="46.30786" lon="7.77069">
        <ele>680.40002441406</ele>
        <time>2023-04-04T16:34:23.000Z</time>
      </trkpt>
      <trkpt lat="46.30782" lon="7.77094">
        <ele>680.40002441406</ele>
        <time>2023-04-04T16:34:27.000Z</time>
      </trkpt>
      <trkpt lat="46.30779" lon="7.77128">
        <ele>680.59997558594</ele>
        <time>2023-04-04T16:34:33.000Z</time>
      </trkpt>
      <trkpt lat="46.30776" lon="7.7715">
        <ele>680.59997558594</ele>
        <time>2023-04-04T16:34:37.000Z</time>
      </trkpt>
      <trkpt lat="46.30775" lon="7.77155">
        <ele>680.59997558594</ele>
        <time>2023-04-04T16:34:38.000Z</time>
      </trkpt>
      <trkpt lat="46.30775" lon="7.77161">
        <ele>680.59997558594</ele>
        <time>2023-04-04T16:34:39.000Z</time>
      </trkpt>
      <trkpt lat="46.30775" lon="7.77166">
        <ele>680.59997558594</ele>
        <time>2023-04-04T16:34:40.000Z</time>
      </trkpt>
      <trkpt lat="46.30774" lon="7.77177">
        <ele>680.59997558594</ele>
        <time>2023-04-04T16:34:42.000Z</time>
      </trkpt>
      <trkpt lat="46.30774" lon="7.77182">
        <ele>680.79998779297</ele>
        <time>2023-04-04T16:34:43.000Z</time>
      </trkpt>
      <trkpt lat="46.30774" lon="7.77187">
        <ele>680.79998779297</ele>
        <time>2023-04-04T16:34:44.000Z</time>
      </trkpt>
      <trkpt lat="46.30773" lon="7.77192">
        <ele>680.79998779297</ele>
        <time>2023-04-04T16:34:45.000Z</time>
      </trkpt>
      <trkpt lat="46.30773" lon="7.77197">
        <ele>680.79998779297</ele>
        <time>2023-04-04T16:34:46.000Z</time>
      </trkpt>
      <trkpt lat="46.30772" lon="7.77203">
        <ele>681</ele>
        <time>2023-04-04T16:34:47.000Z</time>
      </trkpt>
      <trkpt lat="46.30771" lon="7.77208">
        <ele>681</ele>
        <time>2023-04-04T16:34:48.000Z</time>
      </trkpt>
      <trkpt lat="46.30769" lon="7.77224">
        <ele>681</ele>
        <time>2023-04-04T16:34:51.000Z</time>
      </trkpt>
      <trkpt lat="46.30768" lon="7.77229">
        <ele>681</ele>
        <time>2023-04-04T16:34:52.000Z</time>
      </trkpt>
      <trkpt lat="46.30768" lon="7.77234">
        <ele>681</ele>
        <time>2023-04-04T16:34:53.000Z</time>
      </trkpt>
      <trkpt lat="46.30768" lon="7.7724">
        <ele>681</ele>
        <time>2023-04-04T16:34:54.000Z</time>
      </trkpt>
      <trkpt lat="46.30768" lon="7.77246">
        <ele>681</ele>
        <time>2023-04-04T16:34:55.000Z</time>
      </trkpt>
      <trkpt lat="46.30763" lon="7.7727">
        <ele>681</ele>
        <time>2023-04-04T16:34:59.000Z</time>
      </trkpt>
      <trkpt lat="46.30763" lon="7.77276">
        <ele>681</ele>
        <time>2023-04-04T16:35:00.000Z</time>
      </trkpt>
      <trkpt lat="46.30764" lon="7.77282">
        <ele>681</ele>
        <time>2023-04-04T16:35:01.000Z</time>
      </trkpt>
      <trkpt lat="46.30756" lon="7.77322">
        <ele>681.20001220703</ele>
        <time>2023-04-04T16:35:07.000Z</time>
      </trkpt>
      <trkpt lat="46.30749" lon="7.77359">
        <ele>681.20001220703</ele>
        <time>2023-04-04T16:35:13.000Z</time>
      </trkpt>
      <trkpt lat="46.30747" lon="7.7738">
        <ele>681.20001220703</ele>
        <time>2023-04-04T16:35:17.000Z</time>
      </trkpt>
      <trkpt lat="46.30746" lon="7.77386">
        <ele>681.20001220703</ele>
        <time>2023-04-04T16:35:18.000Z</time>
      </trkpt>
      <trkpt lat="46.30745" lon="7.77391">
        <ele>681</ele>
        <time>2023-04-04T16:35:19.000Z</time>
      </trkpt>
      <trkpt lat="46.30744" lon="7.77397">
        <ele>681</ele>
        <time>2023-04-04T16:35:20.000Z</time>
      </trkpt>
      <trkpt lat="46.30744" lon="7.77403">
        <ele>681</ele>
        <time>2023-04-04T16:35:21.000Z</time>
      </trkpt>
      <trkpt lat="46.30742" lon="7.77409">
        <ele>681</ele>
        <time>2023-04-04T16:35:22.000Z</time>
      </trkpt>
      <trkpt lat="46.3074" lon="7.77439">
        <ele>681</ele>
        <time>2023-04-04T16:35:27.000Z</time>
      </trkpt>
      <trkpt lat="46.3073" lon="7.77494">
        <ele>681</ele>
        <time>2023-04-04T16:35:36.000Z</time>
      </trkpt>
      <trkpt lat="46.30725" lon="7.77525">
        <ele>680.79998779297</ele>
        <time>2023-04-04T16:35:41.000Z</time>
      </trkpt>
      <trkpt lat="46.30723" lon="7.77543">
        <ele>681</ele>
        <time>2023-04-04T16:35:44.000Z</time>
      </trkpt>
      <trkpt lat="46.30718" lon="7.77579">
        <ele>681</ele>
        <time>2023-04-04T16:35:50.000Z</time>
      </trkpt>
      <trkpt lat="46.30718" lon="7.77584">
        <ele>681.20001220703</ele>
        <time>2023-04-04T16:35:51.000Z</time>
      </trkpt>
      <trkpt lat="46.30717" lon="7.7759">
        <ele>681.20001220703</ele>
        <time>2023-04-04T16:35:52.000Z</time>
      </trkpt>
      <trkpt lat="46.30716" lon="7.77596">
        <ele>681.20001220703</ele>
        <time>2023-04-04T16:35:53.000Z</time>
      </trkpt>
      <trkpt lat="46.30716" lon="7.77602">
        <ele>681.20001220703</ele>
        <time>2023-04-04T16:35:54.000Z</time>
      </trkpt>
      <trkpt lat="46.30715" lon="7.77607">
        <ele>681.40002441406</ele>
        <time>2023-04-04T16:35:55.000Z</time>
      </trkpt>
      <trkpt lat="46.30714" lon="7.77612">
        <ele>681.40002441406</ele>
        <time>2023-04-04T16:35:56.000Z</time>
      </trkpt>
      <trkpt lat="46.30714" lon="7.77617">
        <ele>681.59997558594</ele>
        <time>2023-04-04T16:35:57.000Z</time>
      </trkpt>
      <trkpt lat="46.30713" lon="7.77622">
        <ele>681.59997558594</ele>
        <time>2023-04-04T16:35:58.000Z</time>
      </trkpt>
      <trkpt lat="46.30713" lon="7.77627">
        <ele>681.59997558594</ele>
        <time>2023-04-04T16:35:59.000Z</time>
      </trkpt>
      <trkpt lat="46.3071" lon="7.77654">
        <ele>681.79998779297</ele>
        <time>2023-04-04T16:36:04.000Z</time>
      </trkpt>
      <trkpt lat="46.3071" lon="7.77659">
        <ele>681.79998779297</ele>
        <time>2023-04-04T16:36:05.000Z</time>
      </trkpt>
      <trkpt lat="46.30709" lon="7.77664">
        <ele>681.79998779297</ele>
        <time>2023-04-04T16:36:06.000Z</time>
      </trkpt>
      <trkpt lat="46.30703" lon="7.77701">
        <ele>682</ele>
        <time>2023-04-04T16:36:12.000Z</time>
      </trkpt>
      <trkpt lat="46.30698" lon="7.77739">
        <ele>682</ele>
        <time>2023-04-04T16:36:18.000Z</time>
      </trkpt>
      <trkpt lat="46.30697" lon="7.77761">
        <ele>682.20001220703</ele>
        <time>2023-04-04T16:36:22.000Z</time>
      </trkpt>
      <trkpt lat="46.30695" lon="7.77767">
        <ele>682.20001220703</ele>
        <time>2023-04-04T16:36:23.000Z</time>
      </trkpt>
      <trkpt lat="46.30695" lon="7.77773">
        <ele>682.20001220703</ele>
        <time>2023-04-04T16:36:24.000Z</time>
      </trkpt>
      <trkpt lat="46.3069" lon="7.7779">
        <ele>682.20001220703</ele>
        <time>2023-04-04T16:36:27.000Z</time>
      </trkpt>
      <trkpt lat="46.30689" lon="7.77795">
        <ele>682.40002441406</ele>
        <time>2023-04-04T16:36:28.000Z</time>
      </trkpt>
      <trkpt lat="46.30689" lon="7.778">
        <ele>682.40002441406</ele>
        <time>2023-04-04T16:36:29.000Z</time>
      </trkpt>
      <trkpt lat="46.30687" lon="7.77805">
        <ele>682.40002441406</ele>
        <time>2023-04-04T16:36:30.000Z</time>
      </trkpt>
      <trkpt lat="46.30687" lon="7.77809">
        <ele>682.40002441406</ele>
        <time>2023-04-04T16:36:31.000Z</time>
      </trkpt>
      <trkpt lat="46.30686" lon="7.77814">
        <ele>682.40002441406</ele>
        <time>2023-04-04T16:36:32.000Z</time>
      </trkpt>
      <trkpt lat="46.30685" lon="7.77819">
        <ele>682.40002441406</ele>
        <time>2023-04-04T16:36:33.000Z</time>
      </trkpt>
      <trkpt lat="46.30684" lon="7.77825">
        <ele>682.40002441406</ele>
        <time>2023-04-04T16:36:34.000Z</time>
      </trkpt>
      <trkpt lat="46.30683" lon="7.7783">
        <ele>682.40002441406</ele>
        <time>2023-04-04T16:36:35.000Z</time>
      </trkpt>
      <trkpt lat="46.30681" lon="7.77839">
        <ele>682.40002441406</ele>
        <time>2023-04-04T16:36:37.000Z</time>
      </trkpt>
      <trkpt lat="46.30681" lon="7.77843">
        <ele>682.40002441406</ele>
        <time>2023-04-04T16:36:38.000Z</time>
      </trkpt>
      <trkpt lat="46.3068" lon="7.77846">
        <ele>682.40002441406</ele>
        <time>2023-04-04T16:36:39.000Z</time>
      </trkpt>
      <trkpt lat="46.30681" lon="7.77849">
        <ele>682.40002441406</ele>
        <time>2023-04-04T16:36:40.000Z</time>
      </trkpt>
      <trkpt lat="46.3068" lon="7.77851">
        <ele>682.40002441406</ele>
        <time>2023-04-04T16:36:41.000Z</time>
      </trkpt>
      <trkpt lat="46.3068" lon="7.77851">
        <ele>682.59997558594</ele>
        <time>2023-04-04T16:36:42.000Z</time>
      </trkpt>
      <trkpt lat="46.3068" lon="7.77851">
        <ele>682.59997558594</ele>
        <time>2023-04-04T16:36:43.000Z</time>
      </trkpt>
      <trkpt lat="46.30686" lon="7.77859">
        <ele>682.59997558594</ele>
        <time>2023-04-04T16:37:36.000Z</time>
      </trkpt>
      <trkpt lat="46.3069" lon="7.77863">
        <ele>682.59997558594</ele>
        <time>2023-04-04T16:37:38.000Z</time>
      </trkpt>
      <trkpt lat="46.30692" lon="7.77866">
        <ele>682.59997558594</ele>
        <time>2023-04-04T16:37:39.000Z</time>
      </trkpt>
      <trkpt lat="46.30697" lon="7.77869">
        <ele>682.59997558594</ele>
        <time>2023-04-04T16:37:41.000Z</time>
      </trkpt>
      <trkpt lat="46.30711" lon="7.77876">
        <ele>682.40002441406</ele>
        <time>2023-04-04T16:37:44.000Z</time>
      </trkpt>
      <trkpt lat="46.30716" lon="7.77879">
        <ele>682.40002441406</ele>
        <time>2023-04-04T16:37:45.000Z</time>
      </trkpt>
      <trkpt lat="46.30737" lon="7.77892">
        <ele>681.59997558594</ele>
        <time>2023-04-04T16:37:50.000Z</time>
      </trkpt>
      <trkpt lat="46.30746" lon="7.77897">
        <ele>681.40002441406</ele>
        <time>2023-04-04T16:37:52.000Z</time>
      </trkpt>
      <trkpt lat="46.30788" lon="7.77919">
        <ele>680.79998779297</ele>
        <time>2023-04-04T16:38:01.000Z</time>
      </trkpt>
      <trkpt lat="46.30803" lon="7.77926">
        <ele>680.40002441406</ele>
        <time>2023-04-04T16:38:04.000Z</time>
      </trkpt>
      <trkpt lat="46.30825" lon="7.77938">
        <ele>680.20001220703</ele>
        <time>2023-04-04T16:38:09.000Z</time>
      </trkpt>
      <trkpt lat="46.30829" lon="7.7794">
        <ele>680.20001220703</ele>
        <time>2023-04-04T16:38:10.000Z</time>
      </trkpt>
      <trkpt lat="46.30834" lon="7.77942">
        <ele>680.20001220703</ele>
        <time>2023-04-04T16:38:11.000Z</time>
      </trkpt>
      <trkpt lat="46.30838" lon="7.77945">
        <ele>680.20001220703</ele>
        <time>2023-04-04T16:38:12.000Z</time>
      </trkpt>
      <trkpt lat="46.30842" lon="7.77947">
        <ele>680.20001220703</ele>
        <time>2023-04-04T16:38:13.000Z</time>
      </trkpt>
      <trkpt lat="46.30851" lon="7.77952">
        <ele>680</ele>
        <time>2023-04-04T16:38:15.000Z</time>
      </trkpt>
      <trkpt lat="46.30863" lon="7.77958">
        <ele>679.79998779297</ele>
        <time>2023-04-04T16:38:18.000Z</time>
      </trkpt>
      <trkpt lat="46.30872" lon="7.77963">
        <ele>679.59997558594</ele>
        <time>2023-04-04T16:38:20.000Z</time>
      </trkpt>
      <trkpt lat="46.30875" lon="7.77965">
        <ele>679.59997558594</ele>
        <time>2023-04-04T16:38:21.000Z</time>
      </trkpt>
      <trkpt lat="46.30883" lon="7.77969">
        <ele>679.59997558594</ele>
        <time>2023-04-04T16:38:23.000Z</time>
      </trkpt>
      <trkpt lat="46.30892" lon="7.77974">
        <ele>679.59997558594</ele>
        <time>2023-04-04T16:38:25.000Z</time>
      </trkpt>
      <trkpt lat="46.30896" lon="7.77975">
        <ele>679.59997558594</ele>
        <time>2023-04-04T16:38:26.000Z</time>
      </trkpt>
      <trkpt lat="46.309" lon="7.77978">
        <ele>679.59997558594</ele>
        <time>2023-04-04T16:38:27.000Z</time>
      </trkpt>
      <trkpt lat="46.30938" lon="7.77998">
        <ele>679.79998779297</ele>
        <time>2023-04-04T16:38:36.000Z</time>
      </trkpt>
      <trkpt lat="46.30946" lon="7.78002">
        <ele>679.79998779297</ele>
        <time>2023-04-04T16:38:38.000Z</time>
      </trkpt>
      <trkpt lat="46.3095" lon="7.78005">
        <ele>679.79998779297</ele>
        <time>2023-04-04T16:38:39.000Z</time>
      </trkpt>
      <trkpt lat="46.30954" lon="7.78007">
        <ele>679.79998779297</ele>
        <time>2023-04-04T16:38:40.000Z</time>
      </trkpt>
      <trkpt lat="46.30962" lon="7.78011">
        <ele>679.79998779297</ele>
        <time>2023-04-04T16:38:42.000Z</time>
      </trkpt>
      <trkpt lat="46.30966" lon="7.78014">
        <ele>679.79998779297</ele>
        <time>2023-04-04T16:38:43.000Z</time>
      </trkpt>
      <trkpt lat="46.30974" lon="7.78018">
        <ele>679.59997558594</ele>
        <time>2023-04-04T16:38:45.000Z</time>
      </trkpt>
      <trkpt lat="46.30978" lon="7.7802">
        <ele>679.59997558594</ele>
        <time>2023-04-04T16:38:46.000Z</time>
      </trkpt>
      <trkpt lat="46.30982" lon="7.78022">
        <ele>679.40002441406</ele>
        <time>2023-04-04T16:38:47.000Z</time>
      </trkpt>
      <trkpt lat="46.30986" lon="7.78024">
        <ele>679.40002441406</ele>
        <time>2023-04-04T16:38:48.000Z</time>
      </trkpt>
      <trkpt lat="46.3099" lon="7.78027">
        <ele>679.40002441406</ele>
        <time>2023-04-04T16:38:49.000Z</time>
      </trkpt>
      <trkpt lat="46.31007" lon="7.78035">
        <ele>679.40002441406</ele>
        <time>2023-04-04T16:38:53.000Z</time>
      </trkpt>
      <trkpt lat="46.3104" lon="7.78052">
        <ele>679.59997558594</ele>
        <time>2023-04-04T16:39:01.000Z</time>
      </trkpt>
      <trkpt lat="46.3108" lon="7.78074">
        <ele>679.40002441406</ele>
        <time>2023-04-04T16:39:11.000Z</time>
      </trkpt>
      <trkpt lat="46.31101" lon="7.78086">
        <ele>679</ele>
        <time>2023-04-04T16:39:16.000Z</time>
      </trkpt>
      <trkpt lat="46.31106" lon="7.78088">
        <ele>679</ele>
        <time>2023-04-04T16:39:17.000Z</time>
      </trkpt>
      <trkpt lat="46.31113" lon="7.78093">
        <ele>678.79998779297</ele>
        <time>2023-04-04T16:39:19.000Z</time>
      </trkpt>
      <trkpt lat="46.31117" lon="7.78095">
        <ele>678.79998779297</ele>
        <time>2023-04-04T16:39:20.000Z</time>
      </trkpt>
      <trkpt lat="46.31121" lon="7.78097">
        <ele>678.79998779297</ele>
        <time>2023-04-04T16:39:21.000Z</time>
      </trkpt>
      <trkpt lat="46.31137" lon="7.78104">
        <ele>678.79998779297</ele>
        <time>2023-04-04T16:39:25.000Z</time>
      </trkpt>
      <trkpt lat="46.31141" lon="7.78106">
        <ele>678.79998779297</ele>
        <time>2023-04-04T16:39:26.000Z</time>
      </trkpt>
      <trkpt lat="46.31145" lon="7.78108">
        <ele>678.79998779297</ele>
        <time>2023-04-04T16:39:27.000Z</time>
      </trkpt>
      <trkpt lat="46.31149" lon="7.7811">
        <ele>678.79998779297</ele>
        <time>2023-04-04T16:39:28.000Z</time>
      </trkpt>
      <trkpt lat="46.31152" lon="7.78112">
        <ele>678.79998779297</ele>
        <time>2023-04-04T16:39:29.000Z</time>
      </trkpt>
      <trkpt lat="46.31156" lon="7.78113">
        <ele>678.79998779297</ele>
        <time>2023-04-04T16:39:30.000Z</time>
      </trkpt>
      <trkpt lat="46.31164" lon="7.78116">
        <ele>678.79998779297</ele>
        <time>2023-04-04T16:39:32.000Z</time>
      </trkpt>
      <trkpt lat="46.31167" lon="7.78118">
        <ele>678.79998779297</ele>
        <time>2023-04-04T16:39:33.000Z</time>
      </trkpt>
      <trkpt lat="46.31171" lon="7.78119">
        <ele>679</ele>
        <time>2023-04-04T16:39:34.000Z</time>
      </trkpt>
      <trkpt lat="46.31174" lon="7.78121">
        <ele>679</ele>
        <time>2023-04-04T16:39:35.000Z</time>
      </trkpt>
      <trkpt lat="46.31176" lon="7.78122">
        <ele>679</ele>
        <time>2023-04-04T16:39:36.000Z</time>
      </trkpt>
      <trkpt lat="46.31179" lon="7.78124">
        <ele>679</ele>
        <time>2023-04-04T16:39:37.000Z</time>
      </trkpt>
      <trkpt lat="46.31181" lon="7.78127">
        <ele>679</ele>
        <time>2023-04-04T16:39:38.000Z</time>
      </trkpt>
      <trkpt lat="46.31182" lon="7.7813">
        <ele>679</ele>
        <time>2023-04-04T16:39:39.000Z</time>
      </trkpt>
      <trkpt lat="46.31183" lon="7.78133">
        <ele>679</ele>
        <time>2023-04-04T16:39:40.000Z</time>
      </trkpt>
      <trkpt lat="46.31183" lon="7.78137">
        <ele>679</ele>
        <time>2023-04-04T16:39:41.000Z</time>
      </trkpt>
      <trkpt lat="46.31183" lon="7.78141">
        <ele>679</ele>
        <time>2023-04-04T16:39:42.000Z</time>
      </trkpt>
      <trkpt lat="46.31183" lon="7.78146">
        <ele>679</ele>
        <time>2023-04-04T16:39:43.000Z</time>
      </trkpt>
      <trkpt lat="46.31183" lon="7.7815">
        <ele>679</ele>
        <time>2023-04-04T16:39:44.000Z</time>
      </trkpt>
      <trkpt lat="46.31182" lon="7.78171">
        <ele>678.79998779297</ele>
        <time>2023-04-04T16:39:48.000Z</time>
      </trkpt>
      <trkpt lat="46.31182" lon="7.78186">
        <ele>678.79998779297</ele>
        <time>2023-04-04T16:39:51.000Z</time>
      </trkpt>
      <trkpt lat="46.31182" lon="7.78191">
        <ele>678.79998779297</ele>
        <time>2023-04-04T16:39:52.000Z</time>
      </trkpt>
      <trkpt lat="46.3118" lon="7.78207">
        <ele>678.79998779297</ele>
        <time>2023-04-04T16:39:55.000Z</time>
      </trkpt>
      <trkpt lat="46.31178" lon="7.78268">
        <ele>678.59997558594</ele>
        <time>2023-04-04T16:40:05.000Z</time>
      </trkpt>
      <trkpt lat="46.31177" lon="7.78275">
        <ele>678.59997558594</ele>
        <time>2023-04-04T16:40:06.000Z</time>
      </trkpt>
      <trkpt lat="46.31176" lon="7.78313">
        <ele>678.40002441406</ele>
        <time>2023-04-04T16:40:12.000Z</time>
      </trkpt>
      <trkpt lat="46.31174" lon="7.78346">
        <ele>678.40002441406</ele>
        <time>2023-04-04T16:40:17.000Z</time>
      </trkpt>
      <trkpt lat="46.31173" lon="7.78364">
        <ele>678.20001220703</ele>
        <time>2023-04-04T16:40:20.000Z</time>
      </trkpt>
      <trkpt lat="46.31172" lon="7.78376">
        <ele>678.20001220703</ele>
        <time>2023-04-04T16:40:22.000Z</time>
      </trkpt>
      <trkpt lat="46.31172" lon="7.78381">
        <ele>678.20001220703</ele>
        <time>2023-04-04T16:40:23.000Z</time>
      </trkpt>
      <trkpt lat="46.31171" lon="7.78387">
        <ele>678.20001220703</ele>
        <time>2023-04-04T16:40:24.000Z</time>
      </trkpt>
      <trkpt lat="46.31171" lon="7.78393">
        <ele>678.20001220703</ele>
        <time>2023-04-04T16:40:25.000Z</time>
      </trkpt>
      <trkpt lat="46.31171" lon="7.78399">
        <ele>678.20001220703</ele>
        <time>2023-04-04T16:40:26.000Z</time>
      </trkpt>
      <trkpt lat="46.3117" lon="7.78405">
        <ele>678.20001220703</ele>
        <time>2023-04-04T16:40:27.000Z</time>
      </trkpt>
      <trkpt lat="46.3117" lon="7.78412">
        <ele>678.20001220703</ele>
        <time>2023-04-04T16:40:28.000Z</time>
      </trkpt>
      <trkpt lat="46.3117" lon="7.78418">
        <ele>678.20001220703</ele>
        <time>2023-04-04T16:40:29.000Z</time>
      </trkpt>
      <trkpt lat="46.31167" lon="7.78493">
        <ele>678.20001220703</ele>
        <time>2023-04-04T16:40:41.000Z</time>
      </trkpt>
      <trkpt lat="46.31165" lon="7.78543">
        <ele>678.40002441406</ele>
        <time>2023-04-04T16:40:49.000Z</time>
      </trkpt>
      <trkpt lat="46.31163" lon="7.78568">
        <ele>678.40002441406</ele>
        <time>2023-04-04T16:40:53.000Z</time>
      </trkpt>
      <trkpt lat="46.31161" lon="7.78637">
        <ele>678.59997558594</ele>
        <time>2023-04-04T16:41:04.000Z</time>
      </trkpt>
      <trkpt lat="46.31157" lon="7.78716">
        <ele>678.59997558594</ele>
        <time>2023-04-04T16:41:16.000Z</time>
      </trkpt>
      <trkpt lat="46.31157" lon="7.78722">
        <ele>678.59997558594</ele>
        <time>2023-04-04T16:41:17.000Z</time>
      </trkpt>
      <trkpt lat="46.31147" lon="7.78802">
        <ele>678.40002441406</ele>
        <time>2023-04-04T16:41:29.000Z</time>
      </trkpt>
      <trkpt lat="46.31138" lon="7.78848">
        <ele>678.59997558594</ele>
        <time>2023-04-04T16:41:36.000Z</time>
      </trkpt>
      <trkpt lat="46.31136" lon="7.7886">
        <ele>678.59997558594</ele>
        <time>2023-04-04T16:41:38.000Z</time>
      </trkpt>
      <trkpt lat="46.31135" lon="7.78865">
        <ele>678.59997558594</ele>
        <time>2023-04-04T16:41:39.000Z</time>
      </trkpt>
      <trkpt lat="46.31133" lon="7.78871">
        <ele>678.59997558594</ele>
        <time>2023-04-04T16:41:40.000Z</time>
      </trkpt>
      <trkpt lat="46.31131" lon="7.78876">
        <ele>678.40002441406</ele>
        <time>2023-04-04T16:41:41.000Z</time>
      </trkpt>
      <trkpt lat="46.3113" lon="7.78882">
        <ele>678.59997558594</ele>
        <time>2023-04-04T16:41:42.000Z</time>
      </trkpt>
      <trkpt lat="46.31128" lon="7.78888">
        <ele>678.59997558594</ele>
        <time>2023-04-04T16:41:43.000Z</time>
      </trkpt>
      <trkpt lat="46.31127" lon="7.78894">
        <ele>678.59997558594</ele>
        <time>2023-04-04T16:41:44.000Z</time>
      </trkpt>
      <trkpt lat="46.31126" lon="7.78899">
        <ele>678.59997558594</ele>
        <time>2023-04-04T16:41:45.000Z</time>
      </trkpt>
      <trkpt lat="46.31124" lon="7.78905">
        <ele>678.59997558594</ele>
        <time>2023-04-04T16:41:46.000Z</time>
      </trkpt>
      <trkpt lat="46.31123" lon="7.7891">
        <ele>678.59997558594</ele>
        <time>2023-04-04T16:41:47.000Z</time>
      </trkpt>
      <trkpt lat="46.31119" lon="7.78922">
        <ele>678.59997558594</ele>
        <time>2023-04-04T16:41:49.000Z</time>
      </trkpt>
      <trkpt lat="46.31114" lon="7.78938">
        <ele>678.59997558594</ele>
        <time>2023-04-04T16:41:52.000Z</time>
      </trkpt>
      <trkpt lat="46.3111" lon="7.78947">
        <ele>678.59997558594</ele>
        <time>2023-04-04T16:41:54.000Z</time>
      </trkpt>
      <trkpt lat="46.31109" lon="7.78952">
        <ele>678.59997558594</ele>
        <time>2023-04-04T16:41:55.000Z</time>
      </trkpt>
      <trkpt lat="46.31107" lon="7.78957">
        <ele>678.59997558594</ele>
        <time>2023-04-04T16:41:56.000Z</time>
      </trkpt>
      <trkpt lat="46.31105" lon="7.78962">
        <ele>678.59997558594</ele>
        <time>2023-04-04T16:41:57.000Z</time>
      </trkpt>
      <trkpt lat="46.31103" lon="7.78967">
        <ele>678.59997558594</ele>
        <time>2023-04-04T16:41:58.000Z</time>
      </trkpt>
      <trkpt lat="46.31101" lon="7.78972">
        <ele>678.59997558594</ele>
        <time>2023-04-04T16:41:59.000Z</time>
      </trkpt>
      <trkpt lat="46.31099" lon="7.78978">
        <ele>678.59997558594</ele>
        <time>2023-04-04T16:42:00.000Z</time>
      </trkpt>
      <trkpt lat="46.31097" lon="7.78983">
        <ele>678.59997558594</ele>
        <time>2023-04-04T16:42:01.000Z</time>
      </trkpt>
      <trkpt lat="46.31095" lon="7.78988">
        <ele>678.79998779297</ele>
        <time>2023-04-04T16:42:02.000Z</time>
      </trkpt>
      <trkpt lat="46.31083" lon="7.79019">
        <ele>679</ele>
        <time>2023-04-04T16:42:08.000Z</time>
      </trkpt>
      <trkpt lat="46.31076" lon="7.79035">
        <ele>679.20001220703</ele>
        <time>2023-04-04T16:42:11.000Z</time>
      </trkpt>
      <trkpt lat="46.31069" lon="7.79051">
        <ele>679.20001220703</ele>
        <time>2023-04-04T16:42:14.000Z</time>
      </trkpt>
      <trkpt lat="46.31062" lon="7.79066">
        <ele>679.20001220703</ele>
        <time>2023-04-04T16:42:17.000Z</time>
      </trkpt>
      <trkpt lat="46.31054" lon="7.79087">
        <ele>679.20001220703</ele>
        <time>2023-04-04T16:42:21.000Z</time>
      </trkpt>
      <trkpt lat="46.31051" lon="7.79097">
        <ele>679.20001220703</ele>
        <time>2023-04-04T16:42:23.000Z</time>
      </trkpt>
      <trkpt lat="46.31049" lon="7.79102">
        <ele>679.20001220703</ele>
        <time>2023-04-04T16:42:24.000Z</time>
      </trkpt>
      <trkpt lat="46.31047" lon="7.79107">
        <ele>679.20001220703</ele>
        <time>2023-04-04T16:42:25.000Z</time>
      </trkpt>
      <trkpt lat="46.31041" lon="7.79123">
        <ele>679.40002441406</ele>
        <time>2023-04-04T16:42:28.000Z</time>
      </trkpt>
      <trkpt lat="46.31039" lon="7.79128">
        <ele>679.40002441406</ele>
        <time>2023-04-04T16:42:29.000Z</time>
      </trkpt>
      <trkpt lat="46.31036" lon="7.79138">
        <ele>679.40002441406</ele>
        <time>2023-04-04T16:42:31.000Z</time>
      </trkpt>
      <trkpt lat="46.31028" lon="7.79156">
        <ele>679.59997558594</ele>
        <time>2023-04-04T16:42:35.000Z</time>
      </trkpt>
      <trkpt lat="46.31026" lon="7.79161">
        <ele>679.59997558594</ele>
        <time>2023-04-04T16:42:36.000Z</time>
      </trkpt>
      <trkpt lat="46.31025" lon="7.79165">
        <ele>679.59997558594</ele>
        <time>2023-04-04T16:42:37.000Z</time>
      </trkpt>
      <trkpt lat="46.31023" lon="7.7917">
        <ele>679.79998779297</ele>
        <time>2023-04-04T16:42:38.000Z</time>
      </trkpt>
      <trkpt lat="46.31021" lon="7.79175">
        <ele>680.20001220703</ele>
        <time>2023-04-04T16:42:39.000Z</time>
      </trkpt>
      <trkpt lat="46.31019" lon="7.79179">
        <ele>680.20001220703</ele>
        <time>2023-04-04T16:42:40.000Z</time>
      </trkpt>
      <trkpt lat="46.31018" lon="7.79183">
        <ele>680.40002441406</ele>
        <time>2023-04-04T16:42:41.000Z</time>
      </trkpt>
      <trkpt lat="46.31016" lon="7.79187">
        <ele>680.59997558594</ele>
        <time>2023-04-04T16:42:42.000Z</time>
      </trkpt>
      <trkpt lat="46.31014" lon="7.79191">
        <ele>680.59997558594</ele>
        <time>2023-04-04T16:42:43.000Z</time>
      </trkpt>
      <trkpt lat="46.31011" lon="7.79194">
        <ele>680.79998779297</ele>
        <time>2023-04-04T16:42:44.000Z</time>
      </trkpt>
      <trkpt lat="46.31009" lon="7.79197">
        <ele>680.79998779297</ele>
        <time>2023-04-04T16:42:45.000Z</time>
      </trkpt>
      <trkpt lat="46.31006" lon="7.79199">
        <ele>681</ele>
        <time>2023-04-04T16:42:46.000Z</time>
      </trkpt>
      <trkpt lat="46.31003" lon="7.79201">
        <ele>681</ele>
        <time>2023-04-04T16:42:47.000Z</time>
      </trkpt>
      <trkpt lat="46.31" lon="7.79202">
        <ele>681.20001220703</ele>
        <time>2023-04-04T16:42:48.000Z</time>
      </trkpt>
      <trkpt lat="46.30997" lon="7.79204">
        <ele>681.20001220703</ele>
        <time>2023-04-04T16:42:49.000Z</time>
      </trkpt>
      <trkpt lat="46.30995" lon="7.79206">
        <ele>681.40002441406</ele>
        <time>2023-04-04T16:42:50.000Z</time>
      </trkpt>
      <trkpt lat="46.30993" lon="7.79212">
        <ele>681.59997558594</ele>
        <time>2023-04-04T16:42:52.000Z</time>
      </trkpt>
      <trkpt lat="46.30992" lon="7.79217">
        <ele>681.79998779297</ele>
        <time>2023-04-04T16:42:53.000Z</time>
      </trkpt>
      <trkpt lat="46.30992" lon="7.79221">
        <ele>681.79998779297</ele>
        <time>2023-04-04T16:42:54.000Z</time>
      </trkpt>
      <trkpt lat="46.30992" lon="7.79226">
        <ele>682</ele>
        <time>2023-04-04T16:42:55.000Z</time>
      </trkpt>
      <trkpt lat="46.30992" lon="7.79231">
        <ele>682</ele>
        <time>2023-04-04T16:42:56.000Z</time>
      </trkpt>
      <trkpt lat="46.30987" lon="7.79255">
        <ele>682.20001220703</ele>
        <time>2023-04-04T16:43:01.000Z</time>
      </trkpt>
      <trkpt lat="46.30984" lon="7.79263">
        <ele>682.40002441406</ele>
        <time>2023-04-04T16:43:03.000Z</time>
      </trkpt>
      <trkpt lat="46.30982" lon="7.79267">
        <ele>682.40002441406</ele>
        <time>2023-04-04T16:43:04.000Z</time>
      </trkpt>
      <trkpt lat="46.30979" lon="7.79275">
        <ele>682.59997558594</ele>
        <time>2023-04-04T16:43:06.000Z</time>
      </trkpt>
      <trkpt lat="46.30976" lon="7.79283">
        <ele>682.79998779297</ele>
        <time>2023-04-04T16:43:08.000Z</time>
      </trkpt>
      <trkpt lat="46.30975" lon="7.79286">
        <ele>683</ele>
        <time>2023-04-04T16:43:09.000Z</time>
      </trkpt>
      <trkpt lat="46.30973" lon="7.7929">
        <ele>683</ele>
        <time>2023-04-04T16:43:10.000Z</time>
      </trkpt>
      <trkpt lat="46.3097" lon="7.79298">
        <ele>683.40002441406</ele>
        <time>2023-04-04T16:43:12.000Z</time>
      </trkpt>
      <trkpt lat="46.30958" lon="7.79322">
        <ele>684.40002441406</ele>
        <time>2023-04-04T16:43:18.000Z</time>
      </trkpt>
      <trkpt lat="46.30957" lon="7.79327">
        <ele>684.59997558594</ele>
        <time>2023-04-04T16:43:19.000Z</time>
      </trkpt>
      <trkpt lat="46.30955" lon="7.79331">
        <ele>684.59997558594</ele>
        <time>2023-04-04T16:43:20.000Z</time>
      </trkpt>
      <trkpt lat="46.30953" lon="7.79335">
        <ele>684.79998779297</ele>
        <time>2023-04-04T16:43:21.000Z</time>
      </trkpt>
      <trkpt lat="46.30952" lon="7.79339">
        <ele>684.79998779297</ele>
        <time>2023-04-04T16:43:22.000Z</time>
      </trkpt>
      <trkpt lat="46.3095" lon="7.79344">
        <ele>685</ele>
        <time>2023-04-04T16:43:23.000Z</time>
      </trkpt>
      <trkpt lat="46.30949" lon="7.79348">
        <ele>685</ele>
        <time>2023-04-04T16:43:24.000Z</time>
      </trkpt>
      <trkpt lat="46.30947" lon="7.79352">
        <ele>685.20001220703</ele>
        <time>2023-04-04T16:43:25.000Z</time>
      </trkpt>
      <trkpt lat="46.30945" lon="7.79356">
        <ele>685.59997558594</ele>
        <time>2023-04-04T16:43:26.000Z</time>
      </trkpt>
      <trkpt lat="46.30944" lon="7.7936">
        <ele>685.40002441406</ele>
        <time>2023-04-04T16:43:27.000Z</time>
      </trkpt>
      <trkpt lat="46.30942" lon="7.79364">
        <ele>685.40002441406</ele>
        <time>2023-04-04T16:43:28.000Z</time>
      </trkpt>
      <trkpt lat="46.30941" lon="7.79368">
        <ele>685.79998779297</ele>
        <time>2023-04-04T16:43:29.000Z</time>
      </trkpt>
      <trkpt lat="46.30939" lon="7.79373">
        <ele>685.79998779297</ele>
        <time>2023-04-04T16:43:30.000Z</time>
      </trkpt>
      <trkpt lat="46.30937" lon="7.79377">
        <ele>685.59997558594</ele>
        <time>2023-04-04T16:43:31.000Z</time>
      </trkpt>
      <trkpt lat="46.30935" lon="7.79381">
        <ele>686</ele>
        <time>2023-04-04T16:43:32.000Z</time>
      </trkpt>
      <trkpt lat="46.30934" lon="7.79385">
        <ele>686.20001220703</ele>
        <time>2023-04-04T16:43:33.000Z</time>
      </trkpt>
      <trkpt lat="46.30932" lon="7.79389">
        <ele>686.20001220703</ele>
        <time>2023-04-04T16:43:34.000Z</time>
      </trkpt>
      <trkpt lat="46.30931" lon="7.79393">
        <ele>686.20001220703</ele>
        <time>2023-04-04T16:43:35.000Z</time>
      </trkpt>
      <trkpt lat="46.30929" lon="7.79396">
        <ele>686.20001220703</ele>
        <time>2023-04-04T16:43:36.000Z</time>
      </trkpt>
      <trkpt lat="46.30928" lon="7.79401">
        <ele>686.40002441406</ele>
        <time>2023-04-04T16:43:37.000Z</time>
      </trkpt>
      <trkpt lat="46.30926" lon="7.79405">
        <ele>686.40002441406</ele>
        <time>2023-04-04T16:43:38.000Z</time>
      </trkpt>
      <trkpt lat="46.30924" lon="7.79409">
        <ele>686.59997558594</ele>
        <time>2023-04-04T16:43:39.000Z</time>
      </trkpt>
      <trkpt lat="46.30922" lon="7.79414">
        <ele>686.79998779297</ele>
        <time>2023-04-04T16:43:40.000Z</time>
      </trkpt>
      <trkpt lat="46.3092" lon="7.79418">
        <ele>686.79998779297</ele>
        <time>2023-04-04T16:43:41.000Z</time>
      </trkpt>
      <trkpt lat="46.30919" lon="7.79423">
        <ele>687</ele>
        <time>2023-04-04T16:43:42.000Z</time>
      </trkpt>
      <trkpt lat="46.30917" lon="7.79427">
        <ele>687</ele>
        <time>2023-04-04T16:43:43.000Z</time>
      </trkpt>
      <trkpt lat="46.30916" lon="7.79432">
        <ele>687</ele>
        <time>2023-04-04T16:43:44.000Z</time>
      </trkpt>
      <trkpt lat="46.30915" lon="7.79437">
        <ele>687.20001220703</ele>
        <time>2023-04-04T16:43:45.000Z</time>
      </trkpt>
      <trkpt lat="46.30913" lon="7.79442">
        <ele>687.20001220703</ele>
        <time>2023-04-04T16:43:46.000Z</time>
      </trkpt>
      <trkpt lat="46.30902" lon="7.79483">
        <ele>687.40002441406</ele>
        <time>2023-04-04T16:43:54.000Z</time>
      </trkpt>
      <trkpt lat="46.30894" lon="7.7954">
        <ele>687.79998779297</ele>
        <time>2023-04-04T16:44:04.000Z</time>
      </trkpt>
      <trkpt lat="46.30892" lon="7.79567">
        <ele>687.79998779297</ele>
        <time>2023-04-04T16:44:09.000Z</time>
      </trkpt>
      <trkpt lat="46.30892" lon="7.79573">
        <ele>687.79998779297</ele>
        <time>2023-04-04T16:44:10.000Z</time>
      </trkpt>
      <trkpt lat="46.30892" lon="7.79579">
        <ele>687.79998779297</ele>
        <time>2023-04-04T16:44:11.000Z</time>
      </trkpt>
      <trkpt lat="46.30892" lon="7.79585">
        <ele>687.79998779297</ele>
        <time>2023-04-04T16:44:12.000Z</time>
      </trkpt>
      <trkpt lat="46.30892" lon="7.7959">
        <ele>687.79998779297</ele>
        <time>2023-04-04T16:44:13.000Z</time>
      </trkpt>
      <trkpt lat="46.30893" lon="7.79644">
        <ele>687.40002441406</ele>
        <time>2023-04-04T16:44:22.000Z</time>
      </trkpt>
      <trkpt lat="46.30893" lon="7.79689">
        <ele>687.20001220703</ele>
        <time>2023-04-04T16:44:28.000Z</time>
      </trkpt>
      <trkpt lat="46.30894" lon="7.79747">
        <ele>685.59997558594</ele>
        <time>2023-04-04T16:44:34.000Z</time>
      </trkpt>
      <trkpt lat="46.30894" lon="7.79757">
        <ele>685.59997558594</ele>
        <time>2023-04-04T16:44:35.000Z</time>
      </trkpt>
      <trkpt lat="46.30895" lon="7.79802">
        <ele>684.40002441406</ele>
        <time>2023-04-04T16:44:39.000Z</time>
      </trkpt>
      <trkpt lat="46.30896" lon="7.79836">
        <ele>683.79998779297</ele>
        <time>2023-04-04T16:44:42.000Z</time>
      </trkpt>
      <trkpt lat="46.30896" lon="7.79847">
        <ele>683.20001220703</ele>
        <time>2023-04-04T16:44:43.000Z</time>
      </trkpt>
      <trkpt lat="46.30897" lon="7.79919">
        <ele>682.59997558594</ele>
        <time>2023-04-04T16:44:50.000Z</time>
      </trkpt>
      <trkpt lat="46.30897" lon="7.79929">
        <ele>682.40002441406</ele>
        <time>2023-04-04T16:44:51.000Z</time>
      </trkpt>
      <trkpt lat="46.30898" lon="7.79938">
        <ele>682.40002441406</ele>
        <time>2023-04-04T16:44:52.000Z</time>
      </trkpt>
      <trkpt lat="46.30898" lon="7.79947">
        <ele>682.40002441406</ele>
        <time>2023-04-04T16:44:53.000Z</time>
      </trkpt>
      <trkpt lat="46.30898" lon="7.79956">
        <ele>682.40002441406</ele>
        <time>2023-04-04T16:44:54.000Z</time>
      </trkpt>
      <trkpt lat="46.30899" lon="7.79964">
        <ele>682.40002441406</ele>
        <time>2023-04-04T16:44:55.000Z</time>
      </trkpt>
      <trkpt lat="46.30899" lon="7.79971">
        <ele>682.40002441406</ele>
        <time>2023-04-04T16:44:56.000Z</time>
      </trkpt>
      <trkpt lat="46.309" lon="7.79979">
        <ele>682.40002441406</ele>
        <time>2023-04-04T16:44:57.000Z</time>
      </trkpt>
      <trkpt lat="46.309" lon="7.79986">
        <ele>682.40002441406</ele>
        <time>2023-04-04T16:44:58.000Z</time>
      </trkpt>
      <trkpt lat="46.309" lon="7.79993">
        <ele>682.40002441406</ele>
        <time>2023-04-04T16:44:59.000Z</time>
      </trkpt>
      <trkpt lat="46.30901" lon="7.80007">
        <ele>682.40002441406</ele>
        <time>2023-04-04T16:45:01.000Z</time>
      </trkpt>
      <trkpt lat="46.309" lon="7.80013">
        <ele>682.40002441406</ele>
        <time>2023-04-04T16:45:02.000Z</time>
      </trkpt>
      <trkpt lat="46.30898" lon="7.80018">
        <ele>682.40002441406</ele>
        <time>2023-04-04T16:45:03.000Z</time>
      </trkpt>
      <trkpt lat="46.30895" lon="7.80021">
        <ele>682.20001220703</ele>
        <time>2023-04-04T16:45:04.000Z</time>
      </trkpt>
      <trkpt lat="46.3089" lon="7.80022">
        <ele>682.20001220703</ele>
        <time>2023-04-04T16:45:05.000Z</time>
      </trkpt>
      <trkpt lat="46.30886" lon="7.80022">
        <ele>682.20001220703</ele>
        <time>2023-04-04T16:45:06.000Z</time>
      </trkpt>
      <trkpt lat="46.30882" lon="7.80022">
        <ele>682.20001220703</ele>
        <time>2023-04-04T16:45:07.000Z</time>
      </trkpt>
      <trkpt lat="46.30877" lon="7.80022">
        <ele>682.20001220703</ele>
        <time>2023-04-04T16:45:08.000Z</time>
      </trkpt>
      <trkpt lat="46.30874" lon="7.80022">
        <ele>682.20001220703</ele>
        <time>2023-04-04T16:45:09.000Z</time>
      </trkpt>
      <trkpt lat="46.3087" lon="7.80022">
        <ele>682.20001220703</ele>
        <time>2023-04-04T16:45:10.000Z</time>
      </trkpt>
      <trkpt lat="46.30867" lon="7.80021">
        <ele>682.20001220703</ele>
        <time>2023-04-04T16:45:11.000Z</time>
      </trkpt>
      <trkpt lat="46.30863" lon="7.80022">
        <ele>682.20001220703</ele>
        <time>2023-04-04T16:45:12.000Z</time>
      </trkpt>
      <trkpt lat="46.30856" lon="7.80021">
        <ele>682.20001220703</ele>
        <time>2023-04-04T16:45:14.000Z</time>
      </trkpt>
      <trkpt lat="46.30853" lon="7.80021">
        <ele>682.20001220703</ele>
        <time>2023-04-04T16:45:15.000Z</time>
      </trkpt>
      <trkpt lat="46.3085" lon="7.80022">
        <ele>682.20001220703</ele>
        <time>2023-04-04T16:45:16.000Z</time>
      </trkpt>
      <trkpt lat="46.30847" lon="7.80022">
        <ele>682.20001220703</ele>
        <time>2023-04-04T16:45:17.000Z</time>
      </trkpt>
      <trkpt lat="46.30844" lon="7.80022">
        <ele>682</ele>
        <time>2023-04-04T16:45:18.000Z</time>
      </trkpt>
      <trkpt lat="46.30841" lon="7.80022">
        <ele>682</ele>
        <time>2023-04-04T16:45:19.000Z</time>
      </trkpt>
      <trkpt lat="46.30838" lon="7.80021">
        <ele>682</ele>
        <time>2023-04-04T16:45:20.000Z</time>
      </trkpt>
      <trkpt lat="46.30835" lon="7.80021">
        <ele>682</ele>
        <time>2023-04-04T16:45:21.000Z</time>
      </trkpt>
      <trkpt lat="46.30833" lon="7.80021">
        <ele>682</ele>
        <time>2023-04-04T16:45:22.000Z</time>
      </trkpt>
      <trkpt lat="46.3083" lon="7.80022">
        <ele>681.79998779297</ele>
        <time>2023-04-04T16:45:23.000Z</time>
      </trkpt>
      <trkpt lat="46.30828" lon="7.80023">
        <ele>681.79998779297</ele>
        <time>2023-04-04T16:45:24.000Z</time>
      </trkpt>
      <trkpt lat="46.30828" lon="7.80024">
        <ele>681.79998779297</ele>
        <time>2023-04-04T16:45:25.000Z</time>
      </trkpt>
      <trkpt lat="46.30828" lon="7.80024">
        <ele>682</ele>
        <time>2023-04-04T16:45:26.000Z</time>
      </trkpt>
      <trkpt lat="46.30828" lon="7.80024">
        <ele>682</ele>
        <time>2023-04-04T16:45:27.000Z</time>
      </trkpt>
      <trkpt lat="46.30825" lon="7.80026">
        <ele>682.79998779297</ele>
        <time>2023-04-04T16:45:42.000Z</time>
      </trkpt>
      <trkpt lat="46.3082" lon="7.80026">
        <ele>682.79998779297</ele>
        <time>2023-04-04T16:45:44.000Z</time>
      </trkpt>
      <trkpt lat="46.30818" lon="7.80026">
        <ele>682.79998779297</ele>
        <time>2023-04-04T16:45:45.000Z</time>
      </trkpt>
      <trkpt lat="46.30815" lon="7.80026">
        <ele>682.79998779297</ele>
        <time>2023-04-04T16:45:46.000Z</time>
      </trkpt>
      <trkpt lat="46.30801" lon="7.80029">
        <ele>682.79998779297</ele>
        <time>2023-04-04T16:45:50.000Z</time>
      </trkpt>
      <trkpt lat="46.30791" lon="7.8003">
        <ele>682.79998779297</ele>
        <time>2023-04-04T16:45:53.000Z</time>
      </trkpt>
      <trkpt lat="46.30776" lon="7.80032">
        <ele>682.59997558594</ele>
        <time>2023-04-04T16:45:57.000Z</time>
      </trkpt>
      <trkpt lat="46.30748" lon="7.80036">
        <ele>682.40002441406</ele>
        <time>2023-04-04T16:46:05.000Z</time>
      </trkpt>
      <trkpt lat="46.30745" lon="7.80036">
        <ele>682.40002441406</ele>
        <time>2023-04-04T16:46:06.000Z</time>
      </trkpt>
      <trkpt lat="46.30742" lon="7.80036">
        <ele>682.59997558594</ele>
        <time>2023-04-04T16:46:07.000Z</time>
      </trkpt>
      <trkpt lat="46.30739" lon="7.80037">
        <ele>682.59997558594</ele>
        <time>2023-04-04T16:46:08.000Z</time>
      </trkpt>
      <trkpt lat="46.30736" lon="7.80038">
        <ele>682.79998779297</ele>
        <time>2023-04-04T16:46:09.000Z</time>
      </trkpt>
      <trkpt lat="46.30733" lon="7.80038">
        <ele>682.79998779297</ele>
        <time>2023-04-04T16:46:10.000Z</time>
      </trkpt>
      <trkpt lat="46.3073" lon="7.80038">
        <ele>682.79998779297</ele>
        <time>2023-04-04T16:46:11.000Z</time>
      </trkpt>
      <trkpt lat="46.30727" lon="7.80038">
        <ele>683.20001220703</ele>
        <time>2023-04-04T16:46:12.000Z</time>
      </trkpt>
      <trkpt lat="46.30724" lon="7.80039">
        <ele>683.40002441406</ele>
        <time>2023-04-04T16:46:13.000Z</time>
      </trkpt>
      <trkpt lat="46.30721" lon="7.80039">
        <ele>683.59997558594</ele>
        <time>2023-04-04T16:46:14.000Z</time>
      </trkpt>
      <trkpt lat="46.30718" lon="7.8004">
        <ele>683.59997558594</ele>
        <time>2023-04-04T16:46:15.000Z</time>
      </trkpt>
      <trkpt lat="46.30715" lon="7.8004">
        <ele>683.79998779297</ele>
        <time>2023-04-04T16:46:16.000Z</time>
      </trkpt>
      <trkpt lat="46.30712" lon="7.8004">
        <ele>683.79998779297</ele>
        <time>2023-04-04T16:46:17.000Z</time>
      </trkpt>
      <trkpt lat="46.30709" lon="7.80041">
        <ele>683.79998779297</ele>
        <time>2023-04-04T16:46:18.000Z</time>
      </trkpt>
      <trkpt lat="46.30685" lon="7.80043">
        <ele>684.40002441406</ele>
        <time>2023-04-04T16:46:25.000Z</time>
      </trkpt>
      <trkpt lat="46.30682" lon="7.80044">
        <ele>684.40002441406</ele>
        <time>2023-04-04T16:46:26.000Z</time>
      </trkpt>
      <trkpt lat="46.30655" lon="7.80046">
        <ele>685</ele>
        <time>2023-04-04T16:46:34.000Z</time>
      </trkpt>
      <trkpt lat="46.30653" lon="7.80048">
        <ele>685</ele>
        <time>2023-04-04T16:46:35.000Z</time>
      </trkpt>
      <trkpt lat="46.30651" lon="7.80051">
        <ele>685</ele>
        <time>2023-04-04T16:46:36.000Z</time>
      </trkpt>
      <trkpt lat="46.3065" lon="7.80055">
        <ele>685</ele>
        <time>2023-04-04T16:46:37.000Z</time>
      </trkpt>
      <trkpt lat="46.30652" lon="7.80086">
        <ele>684.79998779297</ele>
        <time>2023-04-04T16:46:42.000Z</time>
      </trkpt>
      <trkpt lat="46.3065" lon="7.80103">
        <ele>684.40002441406</ele>
        <time>2023-04-04T16:46:44.000Z</time>
      </trkpt>
      <trkpt lat="46.3065" lon="7.80109">
        <ele>684</ele>
        <time>2023-04-04T16:46:45.000Z</time>
      </trkpt>
      <trkpt lat="46.30595" lon="7.80087">
        <ele>681.20001220703</ele>
        <time>2023-04-04T16:46:58.000Z</time>
      </trkpt>
      <trkpt lat="46.30593" lon="7.80083">
        <ele>681.40002441406</ele>
        <time>2023-04-04T16:46:59.000Z</time>
      </trkpt>
      <trkpt lat="46.30591" lon="7.80086">
        <ele>681.59997558594</ele>
        <time>2023-04-04T16:47:00.000Z</time>
      </trkpt>
      <trkpt lat="46.30589" lon="7.80081">
        <ele>681.59997558594</ele>
        <time>2023-04-04T16:47:01.000Z</time>
      </trkpt>
      <trkpt lat="46.30587" lon="7.80078">
        <ele>681.40002441406</ele>
        <time>2023-04-04T16:47:02.000Z</time>
      </trkpt>
      <trkpt lat="46.30585" lon="7.80075">
        <ele>681.59997558594</ele>
        <time>2023-04-04T16:47:03.000Z</time>
      </trkpt>
      <trkpt lat="46.30583" lon="7.80073">
        <ele>681.79998779297</ele>
        <time>2023-04-04T16:47:04.000Z</time>
      </trkpt>
      <trkpt lat="46.30581" lon="7.80071">
        <ele>682</ele>
        <time>2023-04-04T16:47:05.000Z</time>
      </trkpt>
      <trkpt lat="46.30578" lon="7.80071">
        <ele>682.20001220703</ele>
        <time>2023-04-04T16:47:06.000Z</time>
      </trkpt>
      <trkpt lat="46.30575" lon="7.80071">
        <ele>682.59997558594</ele>
        <time>2023-04-04T16:47:07.000Z</time>
      </trkpt>
      <trkpt lat="46.30572" lon="7.80072">
        <ele>682.79998779297</ele>
        <time>2023-04-04T16:47:08.000Z</time>
      </trkpt>
      <trkpt lat="46.30569" lon="7.80074">
        <ele>683</ele>
        <time>2023-04-04T16:47:09.000Z</time>
      </trkpt>
      <trkpt lat="46.30566" lon="7.80075">
        <ele>683</ele>
        <time>2023-04-04T16:47:10.000Z</time>
      </trkpt>
      <trkpt lat="46.30562" lon="7.80076">
        <ele>683</ele>
        <time>2023-04-04T16:47:11.000Z</time>
      </trkpt>
      <trkpt lat="46.30554" lon="7.80079">
        <ele>683</ele>
        <time>2023-04-04T16:47:13.000Z</time>
      </trkpt>
      <trkpt lat="46.30547" lon="7.8008">
        <ele>683.20001220703</ele>
        <time>2023-04-04T16:47:15.000Z</time>
      </trkpt>
      <trkpt lat="46.30543" lon="7.80081">
        <ele>683</ele>
        <time>2023-04-04T16:47:16.000Z</time>
      </trkpt>
      <trkpt lat="46.30532" lon="7.80086">
        <ele>683</ele>
        <time>2023-04-04T16:47:19.000Z</time>
      </trkpt>
      <trkpt lat="46.30524" lon="7.80089">
        <ele>682.79998779297</ele>
        <time>2023-04-04T16:47:21.000Z</time>
      </trkpt>
      <trkpt lat="46.30495" lon="7.801">
        <ele>682.79998779297</ele>
        <time>2023-04-04T16:47:28.000Z</time>
      </trkpt>
      <trkpt lat="46.30459" lon="7.80112">
        <ele>682.20001220703</ele>
        <time>2023-04-04T16:47:37.000Z</time>
      </trkpt>
      <trkpt lat="46.30443" lon="7.80116">
        <ele>681.59997558594</ele>
        <time>2023-04-04T16:47:41.000Z</time>
      </trkpt>
      <trkpt lat="46.30439" lon="7.80117">
        <ele>681.59997558594</ele>
        <time>2023-04-04T16:47:42.000Z</time>
      </trkpt>
      <trkpt lat="46.30434" lon="7.80119">
        <ele>681.59997558594</ele>
        <time>2023-04-04T16:47:43.000Z</time>
      </trkpt>
      <trkpt lat="46.30425" lon="7.8012">
        <ele>681.40002441406</ele>
        <time>2023-04-04T16:47:45.000Z</time>
      </trkpt>
      <trkpt lat="46.30403" lon="7.80116">
        <ele>681.40002441406</ele>
        <time>2023-04-04T16:47:50.000Z</time>
      </trkpt>
      <trkpt lat="46.304" lon="7.80114">
        <ele>681.40002441406</ele>
        <time>2023-04-04T16:47:51.000Z</time>
      </trkpt>
      <trkpt lat="46.30391" lon="7.80106">
        <ele>681.40002441406</ele>
        <time>2023-04-04T16:47:54.000Z</time>
      </trkpt>
      <trkpt lat="46.30385" lon="7.801">
        <ele>681.40002441406</ele>
        <time>2023-04-04T16:47:56.000Z</time>
      </trkpt>
      <trkpt lat="46.30382" lon="7.80097">
        <ele>681.40002441406</ele>
        <time>2023-04-04T16:47:57.000Z</time>
      </trkpt>
      <trkpt lat="46.30379" lon="7.80095">
        <ele>681.40002441406</ele>
        <time>2023-04-04T16:47:58.000Z</time>
      </trkpt>
      <trkpt lat="46.30376" lon="7.80093">
        <ele>681.40002441406</ele>
        <time>2023-04-04T16:47:59.000Z</time>
      </trkpt>
      <trkpt lat="46.30374" lon="7.80092">
        <ele>681.40002441406</ele>
        <time>2023-04-04T16:48:00.000Z</time>
      </trkpt>
      <trkpt lat="46.30372" lon="7.8009">
        <ele>681.59997558594</ele>
        <time>2023-04-04T16:48:01.000Z</time>
      </trkpt>
      <trkpt lat="46.3037" lon="7.80088">
        <ele>681.59997558594</ele>
        <time>2023-04-04T16:48:02.000Z</time>
      </trkpt>
      <trkpt lat="46.30368" lon="7.80087">
        <ele>681.59997558594</ele>
        <time>2023-04-04T16:48:03.000Z</time>
      </trkpt>
      <trkpt lat="46.30368" lon="7.80086">
        <ele>681.59997558594</ele>
        <time>2023-04-04T16:48:04.000Z</time>
      </trkpt>
      <trkpt lat="46.30368" lon="7.80086">
        <ele>681.59997558594</ele>
        <time>2023-04-04T16:48:05.000Z</time>
      </trkpt>
      <trkpt lat="46.30368" lon="7.80086">
        <ele>681.79998779297</ele>
        <time>2023-04-04T16:48:06.000Z</time>
      </trkpt>
      <trkpt lat="46.30362" lon="7.80083">
        <ele>682.20001220703</ele>
        <time>2023-04-04T16:49:06.000Z</time>
      </trkpt>
      <trkpt lat="46.3036" lon="7.80082">
        <ele>682.20001220703</ele>
        <time>2023-04-04T16:49:07.000Z</time>
      </trkpt>
      <trkpt lat="46.30358" lon="7.80081">
        <ele>682.20001220703</ele>
        <time>2023-04-04T16:49:08.000Z</time>
      </trkpt>
      <trkpt lat="46.30353" lon="7.80082">
        <ele>682.20001220703</ele>
        <time>2023-04-04T16:49:10.000Z</time>
      </trkpt>
      <trkpt lat="46.30352" lon="7.80084">
        <ele>682.20001220703</ele>
        <time>2023-04-04T16:49:11.000Z</time>
      </trkpt>
      <trkpt lat="46.30351" lon="7.80087">
        <ele>682.40002441406</ele>
        <time>2023-04-04T16:49:12.000Z</time>
      </trkpt>
      <trkpt lat="46.30351" lon="7.80099">
        <ele>682.40002441406</ele>
        <time>2023-04-04T16:49:15.000Z</time>
      </trkpt>
      <trkpt lat="46.30347" lon="7.80132">
        <ele>682.40002441406</ele>
        <time>2023-04-04T16:49:21.000Z</time>
      </trkpt>
      <trkpt lat="46.30347" lon="7.80137">
        <ele>682.20001220703</ele>
        <time>2023-04-04T16:49:22.000Z</time>
      </trkpt>
      <trkpt lat="46.30346" lon="7.80142">
        <ele>682.20001220703</ele>
        <time>2023-04-04T16:49:23.000Z</time>
      </trkpt>
      <trkpt lat="46.30339" lon="7.80182">
        <ele>681.79998779297</ele>
        <time>2023-04-04T16:49:30.000Z</time>
      </trkpt>
      <trkpt lat="46.30329" lon="7.80244">
        <ele>681.79998779297</ele>
        <time>2023-04-04T16:49:41.000Z</time>
      </trkpt>
      <trkpt lat="46.30326" lon="7.80258">
        <ele>681.79998779297</ele>
        <time>2023-04-04T16:49:44.000Z</time>
      </trkpt>
      <trkpt lat="46.30323" lon="7.80262">
        <ele>681.79998779297</ele>
        <time>2023-04-04T16:49:45.000Z</time>
      </trkpt>
      <trkpt lat="46.30321" lon="7.80263">
        <ele>681.79998779297</ele>
        <time>2023-04-04T16:49:46.000Z</time>
      </trkpt>
      <trkpt lat="46.30318" lon="7.80262">
        <ele>681.79998779297</ele>
        <time>2023-04-04T16:49:47.000Z</time>
      </trkpt>
      <trkpt lat="46.30315" lon="7.80262">
        <ele>681.59997558594</ele>
        <time>2023-04-04T16:49:48.000Z</time>
      </trkpt>
      <trkpt lat="46.30312" lon="7.80261">
        <ele>681.59997558594</ele>
        <time>2023-04-04T16:49:49.000Z</time>
      </trkpt>
      <trkpt lat="46.30309" lon="7.8026">
        <ele>681.59997558594</ele>
        <time>2023-04-04T16:49:50.000Z</time>
      </trkpt>
      <trkpt lat="46.30306" lon="7.80259">
        <ele>681.59997558594</ele>
        <time>2023-04-04T16:49:51.000Z</time>
      </trkpt>
      <trkpt lat="46.3029" lon="7.80253">
        <ele>681.79998779297</ele>
        <time>2023-04-04T16:49:56.000Z</time>
      </trkpt>
      <trkpt lat="46.30287" lon="7.80253">
        <ele>681.79998779297</ele>
        <time>2023-04-04T16:49:57.000Z</time>
      </trkpt>
      <trkpt lat="46.30284" lon="7.80253">
        <ele>681.79998779297</ele>
        <time>2023-04-04T16:49:58.000Z</time>
      </trkpt>
      <trkpt lat="46.30282" lon="7.80251">
        <ele>682</ele>
        <time>2023-04-04T16:49:59.000Z</time>
      </trkpt>
      <trkpt lat="46.30281" lon="7.8025">
        <ele>682</ele>
        <time>2023-04-04T16:50:00.000Z</time>
      </trkpt>
      <trkpt lat="46.3028" lon="7.8025">
        <ele>682</ele>
        <time>2023-04-04T16:50:01.000Z</time>
      </trkpt>
      <trkpt lat="46.3028" lon="7.8025">
        <ele>682</ele>
        <time>2023-04-04T16:50:02.000Z</time>
      </trkpt>
      <trkpt lat="46.3028" lon="7.8025">
        <ele>682</ele>
        <time>2023-04-04T16:50:03.000Z</time>
      </trkpt>
      <trkpt lat="46.3028" lon="7.8025">
        <ele>682</ele>
        <time>2023-04-04T16:50:04.000Z</time>
      </trkpt>
      <trkpt lat="46.30279" lon="7.8025">
        <ele>681.40002441406</ele>
        <time>2023-04-04T16:56:26.000Z</time>
      </trkpt>
      <trkpt lat="46.30274" lon="7.80249">
        <ele>681.40002441406</ele>
        <time>2023-04-04T16:56:29.000Z</time>
      </trkpt>
      <trkpt lat="46.3027" lon="7.8025">
        <ele>681.40002441406</ele>
        <time>2023-04-04T16:56:31.000Z</time>
      </trkpt>
      <trkpt lat="46.30268" lon="7.80251">
        <ele>681.20001220703</ele>
        <time>2023-04-04T16:56:32.000Z</time>
      </trkpt>
      <trkpt lat="46.30266" lon="7.80256">
        <ele>681.20001220703</ele>
        <time>2023-04-04T16:56:34.000Z</time>
      </trkpt>
      <trkpt lat="46.30266" lon="7.80267">
        <ele>681.20001220703</ele>
        <time>2023-04-04T16:56:37.000Z</time>
      </trkpt>
      <trkpt lat="46.30266" lon="7.8027">
        <ele>681.20001220703</ele>
        <time>2023-04-04T16:56:38.000Z</time>
      </trkpt>
      <trkpt lat="46.30265" lon="7.80273">
        <ele>681</ele>
        <time>2023-04-04T16:56:39.000Z</time>
      </trkpt>
      <trkpt lat="46.30263" lon="7.80276">
        <ele>681</ele>
        <time>2023-04-04T16:56:40.000Z</time>
      </trkpt>
      <trkpt lat="46.30262" lon="7.80279">
        <ele>680.79998779297</ele>
        <time>2023-04-04T16:56:41.000Z</time>
      </trkpt>
      <trkpt lat="46.30258" lon="7.80298">
        <ele>680.40002441406</ele>
        <time>2023-04-04T16:56:46.000Z</time>
      </trkpt>
      <trkpt lat="46.30257" lon="7.80301">
        <ele>680.20001220703</ele>
        <time>2023-04-04T16:56:47.000Z</time>
      </trkpt>
      <trkpt lat="46.30251" lon="7.80326">
        <ele>679.79998779297</ele>
        <time>2023-04-04T16:56:54.000Z</time>
      </trkpt>
      <trkpt lat="46.30251" lon="7.80327">
        <ele>679.79998779297</ele>
        <time>2023-04-04T16:56:55.000Z</time>
      </trkpt>
      <trkpt lat="46.30251" lon="7.80327">
        <ele>679.79998779297</ele>
        <time>2023-04-04T16:56:56.000Z</time>
      </trkpt>
      <trkpt lat="46.30251" lon="7.80327">
        <ele>679.79998779297</ele>
        <time>2023-04-04T16:56:57.000Z</time>
      </trkpt>
      <trkpt lat="46.30249" lon="7.80336">
        <ele>680.20001220703</ele>
        <time>2023-04-04T16:57:05.000Z</time>
      </trkpt>
      <trkpt lat="46.30246" lon="7.80359">
        <ele>680.40002441406</ele>
        <time>2023-04-04T16:57:11.000Z</time>
      </trkpt>
      <trkpt lat="46.30245" lon="7.80367">
        <ele>680.40002441406</ele>
        <time>2023-04-04T16:57:13.000Z</time>
      </trkpt>
      <trkpt lat="46.30244" lon="7.80371">
        <ele>680.40002441406</ele>
        <time>2023-04-04T16:57:14.000Z</time>
      </trkpt>
      <trkpt lat="46.30244" lon="7.80388">
        <ele>680</ele>
        <time>2023-04-04T16:57:18.000Z</time>
      </trkpt>
      <trkpt lat="46.30246" lon="7.80419">
        <ele>679.40002441406</ele>
        <time>2023-04-04T16:57:24.000Z</time>
      </trkpt>
      <trkpt lat="46.30248" lon="7.80455">
        <ele>679.40002441406</ele>
        <time>2023-04-04T16:57:31.000Z</time>
      </trkpt>
      <trkpt lat="46.30248" lon="7.80473">
        <ele>679.59997558594</ele>
        <time>2023-04-04T16:57:35.000Z</time>
      </trkpt>
      <trkpt lat="46.30249" lon="7.80477">
        <ele>679.59997558594</ele>
        <time>2023-04-04T16:57:36.000Z</time>
      </trkpt>
      <trkpt lat="46.30249" lon="7.8048">
        <ele>679.59997558594</ele>
        <time>2023-04-04T16:57:37.000Z</time>
      </trkpt>
      <trkpt lat="46.3025" lon="7.80483">
        <ele>679.59997558594</ele>
        <time>2023-04-04T16:57:38.000Z</time>
      </trkpt>
      <trkpt lat="46.30251" lon="7.80486">
        <ele>679.59997558594</ele>
        <time>2023-04-04T16:57:39.000Z</time>
      </trkpt>
      <trkpt lat="46.30253" lon="7.80488">
        <ele>679.59997558594</ele>
        <time>2023-04-04T16:57:40.000Z</time>
      </trkpt>
      <trkpt lat="46.30254" lon="7.8049">
        <ele>679.79998779297</ele>
        <time>2023-04-04T16:57:41.000Z</time>
      </trkpt>
      <trkpt lat="46.30255" lon="7.8049">
        <ele>679.79998779297</ele>
        <time>2023-04-04T16:57:42.000Z</time>
      </trkpt>
      <trkpt lat="46.30256" lon="7.8049">
        <ele>679.79998779297</ele>
        <time>2023-04-04T16:57:43.000Z</time>
      </trkpt>
      <trkpt lat="46.30257" lon="7.8049">
        <ele>679.79998779297</ele>
        <time>2023-04-04T16:57:44.000Z</time>
      </trkpt>
      <trkpt lat="46.30258" lon="7.80488">
        <ele>679.79998779297</ele>
        <time>2023-04-04T16:57:45.000Z</time>
      </trkpt>
      <trkpt lat="46.30259" lon="7.80486">
        <ele>680</ele>
        <time>2023-04-04T16:57:46.000Z</time>
      </trkpt>
      <trkpt lat="46.30258" lon="7.80482">
        <ele>680.20001220703</ele>
        <time>2023-04-04T16:57:48.000Z</time>
      </trkpt>
      <trkpt lat="46.30257" lon="7.80481">
        <ele>680.40002441406</ele>
        <time>2023-04-04T16:57:49.000Z</time>
      </trkpt>
      <trkpt lat="46.30256" lon="7.80479">
        <ele>680.40002441406</ele>
        <time>2023-04-04T16:57:50.000Z</time>
      </trkpt>
      <trkpt lat="46.30254" lon="7.80478">
        <ele>680.40002441406</ele>
        <time>2023-04-04T16:57:51.000Z</time>
      </trkpt>
      <trkpt lat="46.30253" lon="7.80477">
        <ele>680.40002441406</ele>
        <time>2023-04-04T16:57:52.000Z</time>
      </trkpt>
      <trkpt lat="46.30252" lon="7.80475">
        <ele>680.59997558594</ele>
        <time>2023-04-04T16:57:53.000Z</time>
      </trkpt>
      <trkpt lat="46.30249" lon="7.80465">
        <ele>680.59997558594</ele>
        <time>2023-04-04T16:57:57.000Z</time>
      </trkpt>
      <trkpt lat="46.30249" lon="7.80463">
        <ele>680.40002441406</ele>
        <time>2023-04-04T16:57:58.000Z</time>
      </trkpt>
      <trkpt lat="46.30249" lon="7.80462">
        <ele>680.40002441406</ele>
        <time>2023-04-04T16:57:59.000Z</time>
      </trkpt>
      <trkpt lat="46.30249" lon="7.80462">
        <ele>680.40002441406</ele>
        <time>2023-04-04T16:58:00.000Z</time>
      </trkpt>
      <trkpt lat="46.30249" lon="7.80462">
        <ele>680.40002441406</ele>
        <time>2023-04-04T16:58:01.000Z</time>
      </trkpt>
      <trkpt lat="46.3025" lon="7.80459">
        <ele>680.40002441406</ele>
        <time>2023-04-04T16:58:24.000Z</time>
      </trkpt>
      <trkpt lat="46.30255" lon="7.80458">
        <ele>680.40002441406</ele>
        <time>2023-04-04T16:58:27.000Z</time>
      </trkpt>
      <trkpt lat="46.30256" lon="7.80457">
        <ele>680.40002441406</ele>
        <time>2023-04-04T16:58:28.000Z</time>
      </trkpt>
      <trkpt lat="46.30256" lon="7.80457">
        <ele>680.40002441406</ele>
        <time>2023-04-04T16:58:29.000Z</time>
      </trkpt>
      <trkpt lat="46.30256" lon="7.80457">
        <ele>680.40002441406</ele>
        <time>2023-04-04T16:58:30.000Z</time>
      </trkpt>
      <trkpt lat="46.30256" lon="7.80457">
        <ele>680.40002441406</ele>
        <time>2023-04-04T16:58:31.000Z</time>
      </trkpt>
      <trkpt lat="46.30256" lon="7.80457">
        <ele>680.40002441406</ele>
        <time>2023-04-04T16:58:32.000Z</time>
      </trkpt>
    </trkseg>
  </trk>
</gpx>